<?xml version="1.0" encoding="UTF-8"?><gpx creator="Garmin Connect" version="1.1"
xsi:schemaLocation="http://www.topografix.com/GPX/1/1 http://www.topografix.com/GPX/11.xsd"
xmlns:ns3="http://www.garmin.com/xmlschemas/TrackPointExtension/v1"
xmlns="http://www.topografix.com/GPX/1/1"
xmlns:xsi="http://www.w3.org/2001/XMLSchema-instance"
xmlns:ns2="http://www.garmin.com/xmlschemas/GpxExtensions/v3"><metadata><time>2026-03-02T05:16:04.000Z</time></metadata><trk><type>20260302Mountain hike</type><extensions><totalTime>25771</totalTime><cumulativeDecrease>1108</cumulativeDecrease><cumulativeClimb>1086.5</cumulativeClimb><totalDistance>15160</totalDistance><routeType>0</routeType></extensions><trkseg><trkpt lat="42.211284" lon="23.387956"><ele>1736.5</ele><time>2026-03-02T05:16:04.000Z</time></trkpt>
<trkpt lat="42.211287" lon="23.387956"><ele>1736.5</ele><time>2026-03-02T05:16:05.000Z</time></trkpt>
<trkpt lat="42.211281" lon="23.387954"><ele>1736.5</ele><time>2026-03-02T05:16:06.000Z</time></trkpt>
<trkpt lat="42.21128" lon="23.387952"><ele>1736.5</ele><time>2026-03-02T05:16:07.000Z</time></trkpt>
<trkpt lat="42.211279" lon="23.387947"><ele>1736.5</ele><time>2026-03-02T05:16:08.000Z</time></trkpt>
<trkpt lat="42.21128" lon="23.387943"><ele>1736.5</ele><time>2026-03-02T05:16:09.000Z</time></trkpt>
<trkpt lat="42.211282" lon="23.387939"><ele>1736.5</ele><time>2026-03-02T05:16:10.000Z</time></trkpt>
<trkpt lat="42.211282" lon="23.387936"><ele>1736.5</ele><time>2026-03-02T05:16:11.000Z</time></trkpt>
<trkpt lat="42.211284" lon="23.387934"><ele>1736.5</ele><time>2026-03-02T05:16:12.000Z</time></trkpt>
<trkpt lat="42.211285" lon="23.387933"><ele>1736.5</ele><time>2026-03-02T05:16:13.000Z</time></trkpt>
<trkpt lat="42.211285" lon="23.387933"><ele>1736.5</ele><time>2026-03-02T05:16:14.000Z</time></trkpt>
<trkpt lat="42.211285" lon="23.387932"><ele>1736.4</ele><time>2026-03-02T05:16:15.000Z</time></trkpt>
<trkpt lat="42.211286" lon="23.38793"><ele>1736.4</ele><time>2026-03-02T05:16:16.000Z</time></trkpt>
<trkpt lat="42.211285" lon="23.38793"><ele>1736.4</ele><time>2026-03-02T05:16:17.000Z</time></trkpt>
<trkpt lat="42.211284" lon="23.387931"><ele>1736.4</ele><time>2026-03-02T05:16:18.000Z</time></trkpt>
<trkpt lat="42.211283" lon="23.387931"><ele>1736.4</ele><time>2026-03-02T05:16:19.000Z</time></trkpt>
<trkpt lat="42.211284" lon="23.387932"><ele>1736.4</ele><time>2026-03-02T05:16:20.000Z</time></trkpt>
<trkpt lat="42.21128" lon="23.387934"><ele>1736.4</ele><time>2026-03-02T05:16:21.000Z</time></trkpt>
<trkpt lat="42.211277" lon="23.387936"><ele>1736.4</ele><time>2026-03-02T05:16:22.000Z</time></trkpt>
<trkpt lat="42.211275" lon="23.387939"><ele>1736.4</ele><time>2026-03-02T05:16:23.000Z</time></trkpt>
<trkpt lat="42.211271" lon="23.387942"><ele>1736.4</ele><time>2026-03-02T05:16:24.000Z</time></trkpt>
<trkpt lat="42.211268" lon="23.387946"><ele>1736.5</ele><time>2026-03-02T05:16:25.000Z</time></trkpt>
<trkpt lat="42.211269" lon="23.387947"><ele>1736.5</ele><time>2026-03-02T05:16:26.000Z</time></trkpt>
<trkpt lat="42.21127" lon="23.387946"><ele>1736.5</ele><time>2026-03-02T05:16:27.000Z</time></trkpt>
<trkpt lat="42.211272" lon="23.387945"><ele>1736.5</ele><time>2026-03-02T05:16:28.000Z</time></trkpt>
<trkpt lat="42.211275" lon="23.387941"><ele>1736.5</ele><time>2026-03-02T05:16:29.000Z</time></trkpt>
<trkpt lat="42.211277" lon="23.387936"><ele>1736.5</ele><time>2026-03-02T05:16:30.000Z</time></trkpt>
<trkpt lat="42.211278" lon="23.387932"><ele>1736.5</ele><time>2026-03-02T05:16:31.000Z</time></trkpt>
<trkpt lat="42.211279" lon="23.38793"><ele>1736.5</ele><time>2026-03-02T05:16:32.000Z</time></trkpt>
<trkpt lat="42.211282" lon="23.387927"><ele>1736.5</ele><time>2026-03-02T05:16:33.000Z</time></trkpt>
<trkpt lat="42.211283" lon="23.387926"><ele>1736.5</ele><time>2026-03-02T05:16:34.000Z</time></trkpt>
<trkpt lat="42.211287" lon="23.387925"><ele>1736.6</ele><time>2026-03-02T05:16:35.000Z</time></trkpt>
<trkpt lat="42.211291" lon="23.387923"><ele>1736.6</ele><time>2026-03-02T05:16:36.000Z</time></trkpt>
<trkpt lat="42.211297" lon="23.387921"><ele>1736.6</ele><time>2026-03-02T05:16:37.000Z</time></trkpt>
<trkpt lat="42.211301" lon="23.387918"><ele>1736.6</ele><time>2026-03-02T05:16:38.000Z</time></trkpt>
<trkpt lat="42.211306" lon="23.387914"><ele>1736.6</ele><time>2026-03-02T05:16:39.000Z</time></trkpt>
<trkpt lat="42.211309" lon="23.387911"><ele>1736.5</ele><time>2026-03-02T05:16:40.000Z</time></trkpt>
<trkpt lat="42.211312" lon="23.387908"><ele>1736.5</ele><time>2026-03-02T05:16:41.000Z</time></trkpt>
<trkpt lat="42.211314" lon="23.387905"><ele>1736.5</ele><time>2026-03-02T05:16:42.000Z</time></trkpt>
<trkpt lat="42.211316" lon="23.387902"><ele>1736.5</ele><time>2026-03-02T05:16:43.000Z</time></trkpt>
<trkpt lat="42.211319" lon="23.387898"><ele>1736.5</ele><time>2026-03-02T05:16:44.000Z</time></trkpt>
<trkpt lat="42.211322" lon="23.387896"><ele>1736.5</ele><time>2026-03-02T05:16:45.000Z</time></trkpt>
<trkpt lat="42.211327" lon="23.387892"><ele>1736.5</ele><time>2026-03-02T05:16:46.000Z</time></trkpt>
<trkpt lat="42.211333" lon="23.38789"><ele>1736.5</ele><time>2026-03-02T05:16:47.000Z</time></trkpt>
<trkpt lat="42.211339" lon="23.387887"><ele>1736.5</ele><time>2026-03-02T05:16:48.000Z</time></trkpt>
<trkpt lat="42.211344" lon="23.387885"><ele>1736.5</ele><time>2026-03-02T05:16:49.000Z</time></trkpt>
<trkpt lat="42.21135" lon="23.387882"><ele>1736.5</ele><time>2026-03-02T05:16:50.000Z</time></trkpt>
<trkpt lat="42.211354" lon="23.38788"><ele>1736.5</ele><time>2026-03-02T05:16:51.000Z</time></trkpt>
<trkpt lat="42.211357" lon="23.387877"><ele>1736.5</ele><time>2026-03-02T05:16:52.000Z</time></trkpt>
<trkpt lat="42.211359" lon="23.387875"><ele>1736.5</ele><time>2026-03-02T05:16:53.000Z</time></trkpt>
<trkpt lat="42.211359" lon="23.387874"><ele>1736.5</ele><time>2026-03-02T05:16:54.000Z</time></trkpt>
<trkpt lat="42.211359" lon="23.387873"><ele>1736.5</ele><time>2026-03-02T05:16:55.000Z</time></trkpt>
<trkpt lat="42.21136" lon="23.387872"><ele>1736.5</ele><time>2026-03-02T05:16:56.000Z</time></trkpt>
<trkpt lat="42.21136" lon="23.387871"><ele>1736.5</ele><time>2026-03-02T05:16:57.000Z</time></trkpt>
<trkpt lat="42.21136" lon="23.38787"><ele>1736.5</ele><time>2026-03-02T05:16:58.000Z</time></trkpt>
<trkpt lat="42.211361" lon="23.387869"><ele>1736.5</ele><time>2026-03-02T05:16:59.000Z</time></trkpt>
<trkpt lat="42.211361" lon="23.387868"><ele>1736.5</ele><time>2026-03-02T05:17:00.000Z</time></trkpt>
<trkpt lat="42.211361" lon="23.387867"><ele>1736.5</ele><time>2026-03-02T05:17:01.000Z</time></trkpt>
<trkpt lat="42.211361" lon="23.387867"><ele>1736.5</ele><time>2026-03-02T05:17:02.000Z</time></trkpt>
<trkpt lat="42.21136" lon="23.387867"><ele>1736.5</ele><time>2026-03-02T05:17:03.000Z</time></trkpt>
<trkpt lat="42.21136" lon="23.387867"><ele>1736.5</ele><time>2026-03-02T05:17:04.000Z</time></trkpt>
<trkpt lat="42.211359" lon="23.387869"><ele>1736.5</ele><time>2026-03-02T05:17:05.000Z</time></trkpt>
<trkpt lat="42.211358" lon="23.387871"><ele>1736.5</ele><time>2026-03-02T05:17:06.000Z</time></trkpt>
<trkpt lat="42.211357" lon="23.387874"><ele>1736.5</ele><time>2026-03-02T05:17:07.000Z</time></trkpt>
<trkpt lat="42.211356" lon="23.387877"><ele>1736.5</ele><time>2026-03-02T05:17:08.000Z</time></trkpt>
<trkpt lat="42.211356" lon="23.387881"><ele>1736.5</ele><time>2026-03-02T05:17:09.000Z</time></trkpt>
<trkpt lat="42.211355" lon="23.387883"><ele>1736.4</ele><time>2026-03-02T05:17:10.000Z</time></trkpt>
<trkpt lat="42.211355" lon="23.387886"><ele>1736.4</ele><time>2026-03-02T05:17:11.000Z</time></trkpt>
<trkpt lat="42.211354" lon="23.387887"><ele>1736.4</ele><time>2026-03-02T05:17:12.000Z</time></trkpt>
<trkpt lat="42.211353" lon="23.387888"><ele>1736.4</ele><time>2026-03-02T05:17:13.000Z</time></trkpt>
<trkpt lat="42.211353" lon="23.387889"><ele>1736.4</ele><time>2026-03-02T05:17:14.000Z</time></trkpt>
<trkpt lat="42.211354" lon="23.387888"><ele>1736.2</ele><time>2026-03-02T05:17:15.000Z</time></trkpt>
<trkpt lat="42.211356" lon="23.387887"><ele>1736.2</ele><time>2026-03-02T05:17:16.000Z</time></trkpt>
<trkpt lat="42.211359" lon="23.387886"><ele>1736.2</ele><time>2026-03-02T05:17:17.000Z</time></trkpt>
<trkpt lat="42.211361" lon="23.387884"><ele>1736.2</ele><time>2026-03-02T05:17:18.000Z</time></trkpt>
<trkpt lat="42.211363" lon="23.387883"><ele>1736.2</ele><time>2026-03-02T05:17:19.000Z</time></trkpt>
<trkpt lat="42.211365" lon="23.387883"><ele>1736.1</ele><time>2026-03-02T05:17:20.000Z</time></trkpt>
<trkpt lat="42.211365" lon="23.387883"><ele>1736.1</ele><time>2026-03-02T05:17:21.000Z</time></trkpt>
<trkpt lat="42.211366" lon="23.387883"><ele>1736.1</ele><time>2026-03-02T05:17:22.000Z</time></trkpt>
<trkpt lat="42.211367" lon="23.387883"><ele>1736.1</ele><time>2026-03-02T05:17:23.000Z</time></trkpt>
<trkpt lat="42.211369" lon="23.387883"><ele>1736.1</ele><time>2026-03-02T05:17:24.000Z</time></trkpt>
<trkpt lat="42.211369" lon="23.387884"><ele>1736.1</ele><time>2026-03-02T05:17:25.000Z</time></trkpt>
<trkpt lat="42.21137" lon="23.387885"><ele>1736.1</ele><time>2026-03-02T05:17:26.000Z</time></trkpt>
<trkpt lat="42.21137" lon="23.387886"><ele>1736.1</ele><time>2026-03-02T05:17:27.000Z</time></trkpt>
<trkpt lat="42.211369" lon="23.387887"><ele>1736.1</ele><time>2026-03-02T05:17:28.000Z</time></trkpt>
<trkpt lat="42.211368" lon="23.387887"><ele>1736.1</ele><time>2026-03-02T05:17:29.000Z</time></trkpt>
<trkpt lat="42.211368" lon="23.387887"><ele>1736.3</ele><time>2026-03-02T05:17:30.000Z</time></trkpt>
<trkpt lat="42.211367" lon="23.387885"><ele>1736.3</ele><time>2026-03-02T05:17:31.000Z</time></trkpt>
<trkpt lat="42.211366" lon="23.387884"><ele>1736.3</ele><time>2026-03-02T05:17:32.000Z</time></trkpt>
<trkpt lat="42.211366" lon="23.387881"><ele>1736.3</ele><time>2026-03-02T05:17:33.000Z</time></trkpt>
<trkpt lat="42.211366" lon="23.38788"><ele>1736.3</ele><time>2026-03-02T05:17:34.000Z</time></trkpt>
<trkpt lat="42.211367" lon="23.387876"><ele>1736.4</ele><time>2026-03-02T05:17:35.000Z</time></trkpt>
<trkpt lat="42.211367" lon="23.387874"><ele>1736.4</ele><time>2026-03-02T05:17:36.000Z</time></trkpt>
<trkpt lat="42.211367" lon="23.387872"><ele>1736.4</ele><time>2026-03-02T05:17:37.000Z</time></trkpt>
<trkpt lat="42.211367" lon="23.387871"><ele>1736.4</ele><time>2026-03-02T05:17:38.000Z</time></trkpt>
<trkpt lat="42.211366" lon="23.387872"><ele>1736.4</ele><time>2026-03-02T05:17:39.000Z</time></trkpt>
<trkpt lat="42.211364" lon="23.387873"><ele>1736.4</ele><time>2026-03-02T05:17:40.000Z</time></trkpt>
<trkpt lat="42.211362" lon="23.387873"><ele>1736.4</ele><time>2026-03-02T05:17:41.000Z</time></trkpt>
<trkpt lat="42.211357" lon="23.387874"><ele>1736.4</ele><time>2026-03-02T05:17:42.000Z</time></trkpt>
<trkpt lat="42.211353" lon="23.387873"><ele>1736.4</ele><time>2026-03-02T05:17:43.000Z</time></trkpt>
<trkpt lat="42.211351" lon="23.387872"><ele>1736.4</ele><time>2026-03-02T05:17:44.000Z</time></trkpt>
<trkpt lat="42.211349" lon="23.38787"><ele>1736.3</ele><time>2026-03-02T05:17:45.000Z</time></trkpt>
<trkpt lat="42.21135" lon="23.387869"><ele>1736.3</ele><time>2026-03-02T05:17:46.000Z</time></trkpt>
<trkpt lat="42.211352" lon="23.387865"><ele>1736.3</ele><time>2026-03-02T05:17:47.000Z</time></trkpt>
<trkpt lat="42.211356" lon="23.387863"><ele>1736.3</ele><time>2026-03-02T05:17:48.000Z</time></trkpt>
<trkpt lat="42.211358" lon="23.387862"><ele>1736.3</ele><time>2026-03-02T05:17:49.000Z</time></trkpt>
<trkpt lat="42.21136" lon="23.387861"><ele>1736.2</ele><time>2026-03-02T05:17:50.000Z</time></trkpt>
<trkpt lat="42.211362" lon="23.38786"><ele>1736.2</ele><time>2026-03-02T05:17:51.000Z</time></trkpt>
<trkpt lat="42.211364" lon="23.387859"><ele>1736.2</ele><time>2026-03-02T05:17:52.000Z</time></trkpt>
<trkpt lat="42.211365" lon="23.387858"><ele>1736.2</ele><time>2026-03-02T05:17:53.000Z</time></trkpt>
<trkpt lat="42.211367" lon="23.387857"><ele>1736.2</ele><time>2026-03-02T05:17:54.000Z</time></trkpt>
<trkpt lat="42.211369" lon="23.387854"><ele>1736.2</ele><time>2026-03-02T05:17:55.000Z</time></trkpt>
<trkpt lat="42.211371" lon="23.387851"><ele>1736.2</ele><time>2026-03-02T05:17:56.000Z</time></trkpt>
<trkpt lat="42.211373" lon="23.387848"><ele>1736.2</ele><time>2026-03-02T05:17:57.000Z</time></trkpt>
<trkpt lat="42.211375" lon="23.387843"><ele>1736.2</ele><time>2026-03-02T05:17:58.000Z</time></trkpt>
<trkpt lat="42.211378" lon="23.387837"><ele>1736.2</ele><time>2026-03-02T05:17:59.000Z</time></trkpt>
<trkpt lat="42.211381" lon="23.38783"><ele>1736.1</ele><time>2026-03-02T05:18:00.000Z</time></trkpt>
<trkpt lat="42.211383" lon="23.387821"><ele>1736.1</ele><time>2026-03-02T05:18:01.000Z</time></trkpt>
<trkpt lat="42.211383" lon="23.38781"><ele>1736.1</ele><time>2026-03-02T05:18:02.000Z</time></trkpt>
<trkpt lat="42.211381" lon="23.387798"><ele>1736.1</ele><time>2026-03-02T05:18:03.000Z</time></trkpt>
<trkpt lat="42.211378" lon="23.387785"><ele>1736.1</ele><time>2026-03-02T05:18:04.000Z</time></trkpt>
<trkpt lat="42.211373" lon="23.387772"><ele>1736</ele><time>2026-03-02T05:18:05.000Z</time></trkpt>
<trkpt lat="42.211368" lon="23.38776"><ele>1736</ele><time>2026-03-02T05:18:06.000Z</time></trkpt>
<trkpt lat="42.211361" lon="23.387748"><ele>1736</ele><time>2026-03-02T05:18:07.000Z</time></trkpt>
<trkpt lat="42.211356" lon="23.387736"><ele>1736</ele><time>2026-03-02T05:18:08.000Z</time></trkpt>
<trkpt lat="42.211351" lon="23.387725"><ele>1736</ele><time>2026-03-02T05:18:09.000Z</time></trkpt>
<trkpt lat="42.211346" lon="23.387714"><ele>1736</ele><time>2026-03-02T05:18:10.000Z</time></trkpt>
<trkpt lat="42.211343" lon="23.387701"><ele>1736</ele><time>2026-03-02T05:18:11.000Z</time></trkpt>
<trkpt lat="42.211339" lon="23.38769"><ele>1736</ele><time>2026-03-02T05:18:12.000Z</time></trkpt>
<trkpt lat="42.211334" lon="23.387679"><ele>1736</ele><time>2026-03-02T05:18:13.000Z</time></trkpt>
<trkpt lat="42.211327" lon="23.387669"><ele>1736</ele><time>2026-03-02T05:18:14.000Z</time></trkpt>
<trkpt lat="42.211318" lon="23.38766"><ele>1735.9</ele><time>2026-03-02T05:18:15.000Z</time></trkpt>
<trkpt lat="42.211309" lon="23.387652"><ele>1735.9</ele><time>2026-03-02T05:18:16.000Z</time></trkpt>
<trkpt lat="42.211299" lon="23.387645"><ele>1735.9</ele><time>2026-03-02T05:18:17.000Z</time></trkpt>
<trkpt lat="42.211291" lon="23.387638"><ele>1735.9</ele><time>2026-03-02T05:18:18.000Z</time></trkpt>
<trkpt lat="42.211283" lon="23.387632"><ele>1735.9</ele><time>2026-03-02T05:18:19.000Z</time></trkpt>
<trkpt lat="42.211276" lon="23.387626"><ele>1735.8</ele><time>2026-03-02T05:18:20.000Z</time></trkpt>
<trkpt lat="42.21127" lon="23.387622"><ele>1735.8</ele><time>2026-03-02T05:18:21.000Z</time></trkpt>
<trkpt lat="42.211264" lon="23.387619"><ele>1735.8</ele><time>2026-03-02T05:18:22.000Z</time></trkpt>
<trkpt lat="42.211258" lon="23.387616"><ele>1735.8</ele><time>2026-03-02T05:18:23.000Z</time></trkpt>
<trkpt lat="42.211253" lon="23.387613"><ele>1735.8</ele><time>2026-03-02T05:18:24.000Z</time></trkpt>
<trkpt lat="42.211249" lon="23.387609"><ele>1735.7</ele><time>2026-03-02T05:18:25.000Z</time></trkpt>
<trkpt lat="42.211246" lon="23.387605"><ele>1735.7</ele><time>2026-03-02T05:18:26.000Z</time></trkpt>
<trkpt lat="42.211242" lon="23.3876"><ele>1735.7</ele><time>2026-03-02T05:18:27.000Z</time></trkpt>
<trkpt lat="42.211237" lon="23.387596"><ele>1735.7</ele><time>2026-03-02T05:18:28.000Z</time></trkpt>
<trkpt lat="42.211233" lon="23.387592"><ele>1735.7</ele><time>2026-03-02T05:18:29.000Z</time></trkpt>
<trkpt lat="42.211228" lon="23.387588"><ele>1735.6</ele><time>2026-03-02T05:18:30.000Z</time></trkpt>
<trkpt lat="42.211223" lon="23.387585"><ele>1735.6</ele><time>2026-03-02T05:18:31.000Z</time></trkpt>
<trkpt lat="42.211219" lon="23.387583"><ele>1735.6</ele><time>2026-03-02T05:18:32.000Z</time></trkpt>
<trkpt lat="42.211215" lon="23.387581"><ele>1735.6</ele><time>2026-03-02T05:18:33.000Z</time></trkpt>
<trkpt lat="42.211211" lon="23.38758"><ele>1735.6</ele><time>2026-03-02T05:18:34.000Z</time></trkpt>
<trkpt lat="42.211206" lon="23.387578"><ele>1735.4</ele><time>2026-03-02T05:18:35.000Z</time></trkpt>
<trkpt lat="42.211201" lon="23.387577"><ele>1735.4</ele><time>2026-03-02T05:18:36.000Z</time></trkpt>
<trkpt lat="42.211194" lon="23.387573"><ele>1735.4</ele><time>2026-03-02T05:18:37.000Z</time></trkpt>
<trkpt lat="42.211187" lon="23.387569"><ele>1735.4</ele><time>2026-03-02T05:18:38.000Z</time></trkpt>
<trkpt lat="42.21118" lon="23.387564"><ele>1735.4</ele><time>2026-03-02T05:18:39.000Z</time></trkpt>
<trkpt lat="42.211171" lon="23.387559"><ele>1735.2</ele><time>2026-03-02T05:18:40.000Z</time></trkpt>
<trkpt lat="42.211163" lon="23.387552"><ele>1735.2</ele><time>2026-03-02T05:18:41.000Z</time></trkpt>
<trkpt lat="42.211155" lon="23.387545"><ele>1735.2</ele><time>2026-03-02T05:18:42.000Z</time></trkpt>
<trkpt lat="42.211147" lon="23.387538"><ele>1735.2</ele><time>2026-03-02T05:18:43.000Z</time></trkpt>
<trkpt lat="42.211138" lon="23.38753"><ele>1735.2</ele><time>2026-03-02T05:18:44.000Z</time></trkpt>
<trkpt lat="42.211128" lon="23.387521"><ele>1734.4</ele><time>2026-03-02T05:18:45.000Z</time></trkpt>
<trkpt lat="42.211119" lon="23.387512"><ele>1734.4</ele><time>2026-03-02T05:18:46.000Z</time></trkpt>
<trkpt lat="42.211109" lon="23.387502"><ele>1734.4</ele><time>2026-03-02T05:18:47.000Z</time></trkpt>
<trkpt lat="42.211099" lon="23.387493"><ele>1734.4</ele><time>2026-03-02T05:18:48.000Z</time></trkpt>
<trkpt lat="42.211088" lon="23.387484"><ele>1734.4</ele><time>2026-03-02T05:18:49.000Z</time></trkpt>
<trkpt lat="42.211077" lon="23.387476"><ele>1733.1</ele><time>2026-03-02T05:18:50.000Z</time></trkpt>
<trkpt lat="42.211066" lon="23.387469"><ele>1733.1</ele><time>2026-03-02T05:18:51.000Z</time></trkpt>
<trkpt lat="42.211055" lon="23.387461"><ele>1733.1</ele><time>2026-03-02T05:18:52.000Z</time></trkpt>
<trkpt lat="42.211046" lon="23.387451"><ele>1733.1</ele><time>2026-03-02T05:18:53.000Z</time></trkpt>
<trkpt lat="42.211037" lon="23.38744"><ele>1733.1</ele><time>2026-03-02T05:18:54.000Z</time></trkpt>
<trkpt lat="42.211029" lon="23.387428"><ele>1732.4</ele><time>2026-03-02T05:18:55.000Z</time></trkpt>
<trkpt lat="42.211022" lon="23.387415"><ele>1732.4</ele><time>2026-03-02T05:18:56.000Z</time></trkpt>
<trkpt lat="42.211016" lon="23.387401"><ele>1732.4</ele><time>2026-03-02T05:18:57.000Z</time></trkpt>
<trkpt lat="42.211009" lon="23.387387"><ele>1732.4</ele><time>2026-03-02T05:18:58.000Z</time></trkpt>
<trkpt lat="42.211002" lon="23.387373"><ele>1732.4</ele><time>2026-03-02T05:18:59.000Z</time></trkpt>
<trkpt lat="42.210995" lon="23.387357"><ele>1731.1</ele><time>2026-03-02T05:19:00.000Z</time></trkpt>
<trkpt lat="42.210987" lon="23.387342"><ele>1731.1</ele><time>2026-03-02T05:19:01.000Z</time></trkpt>
<trkpt lat="42.21098" lon="23.387326"><ele>1731.1</ele><time>2026-03-02T05:19:02.000Z</time></trkpt>
<trkpt lat="42.210972" lon="23.387311"><ele>1731.1</ele><time>2026-03-02T05:19:03.000Z</time></trkpt>
<trkpt lat="42.210965" lon="23.387295"><ele>1731.1</ele><time>2026-03-02T05:19:04.000Z</time></trkpt>
<trkpt lat="42.210956" lon="23.38728"><ele>1730.2</ele><time>2026-03-02T05:19:05.000Z</time></trkpt>
<trkpt lat="42.210948" lon="23.387265"><ele>1730.2</ele><time>2026-03-02T05:19:06.000Z</time></trkpt>
<trkpt lat="42.21094" lon="23.387251"><ele>1730.2</ele><time>2026-03-02T05:19:07.000Z</time></trkpt>
<trkpt lat="42.210932" lon="23.387237"><ele>1730.2</ele><time>2026-03-02T05:19:08.000Z</time></trkpt>
<trkpt lat="42.210924" lon="23.387223"><ele>1730.2</ele><time>2026-03-02T05:19:09.000Z</time></trkpt>
<trkpt lat="42.210916" lon="23.387208"><ele>1729.9</ele><time>2026-03-02T05:19:10.000Z</time></trkpt>
<trkpt lat="42.210908" lon="23.387195"><ele>1729.9</ele><time>2026-03-02T05:19:11.000Z</time></trkpt>
<trkpt lat="42.2109" lon="23.387182"><ele>1729.9</ele><time>2026-03-02T05:19:12.000Z</time></trkpt>
<trkpt lat="42.210891" lon="23.387171"><ele>1729.9</ele><time>2026-03-02T05:19:13.000Z</time></trkpt>
<trkpt lat="42.210882" lon="23.38716"><ele>1729.9</ele><time>2026-03-02T05:19:14.000Z</time></trkpt>
<trkpt lat="42.210873" lon="23.387152"><ele>1729.5</ele><time>2026-03-02T05:19:15.000Z</time></trkpt>
<trkpt lat="42.210865" lon="23.387144"><ele>1729.5</ele><time>2026-03-02T05:19:16.000Z</time></trkpt>
<trkpt lat="42.210856" lon="23.387135"><ele>1729.5</ele><time>2026-03-02T05:19:17.000Z</time></trkpt>
<trkpt lat="42.210849" lon="23.387127"><ele>1729.5</ele><time>2026-03-02T05:19:18.000Z</time></trkpt>
<trkpt lat="42.210841" lon="23.387121"><ele>1729.5</ele><time>2026-03-02T05:19:19.000Z</time></trkpt>
<trkpt lat="42.210832" lon="23.387114"><ele>1729.5</ele><time>2026-03-02T05:19:20.000Z</time></trkpt>
<trkpt lat="42.210822" lon="23.387107"><ele>1729.5</ele><time>2026-03-02T05:19:21.000Z</time></trkpt>
<trkpt lat="42.210812" lon="23.3871"><ele>1729.5</ele><time>2026-03-02T05:19:22.000Z</time></trkpt>
<trkpt lat="42.210802" lon="23.387094"><ele>1729.5</ele><time>2026-03-02T05:19:23.000Z</time></trkpt>
<trkpt lat="42.210791" lon="23.387087"><ele>1729.5</ele><time>2026-03-02T05:19:24.000Z</time></trkpt>
<trkpt lat="42.21078" lon="23.38708"><ele>1729.6</ele><time>2026-03-02T05:19:25.000Z</time></trkpt>
<trkpt lat="42.210768" lon="23.387073"><ele>1729.6</ele><time>2026-03-02T05:19:26.000Z</time></trkpt>
<trkpt lat="42.210755" lon="23.387067"><ele>1729.6</ele><time>2026-03-02T05:19:27.000Z</time></trkpt>
<trkpt lat="42.210741" lon="23.387061"><ele>1729.6</ele><time>2026-03-02T05:19:28.000Z</time></trkpt>
<trkpt lat="42.210727" lon="23.387055"><ele>1729.6</ele><time>2026-03-02T05:19:29.000Z</time></trkpt>
<trkpt lat="42.210712" lon="23.387052"><ele>1729.9</ele><time>2026-03-02T05:19:30.000Z</time></trkpt>
<trkpt lat="42.210697" lon="23.38705"><ele>1729.9</ele><time>2026-03-02T05:19:31.000Z</time></trkpt>
<trkpt lat="42.210682" lon="23.387049"><ele>1729.9</ele><time>2026-03-02T05:19:32.000Z</time></trkpt>
<trkpt lat="42.210666" lon="23.387048"><ele>1729.9</ele><time>2026-03-02T05:19:33.000Z</time></trkpt>
<trkpt lat="42.21065" lon="23.387047"><ele>1729.9</ele><time>2026-03-02T05:19:34.000Z</time></trkpt>
<trkpt lat="42.210636" lon="23.387045"><ele>1730.2</ele><time>2026-03-02T05:19:35.000Z</time></trkpt>
<trkpt lat="42.210621" lon="23.387043"><ele>1730.2</ele><time>2026-03-02T05:19:36.000Z</time></trkpt>
<trkpt lat="42.210607" lon="23.387041"><ele>1730.2</ele><time>2026-03-02T05:19:37.000Z</time></trkpt>
<trkpt lat="42.210594" lon="23.387038"><ele>1730.2</ele><time>2026-03-02T05:19:38.000Z</time></trkpt>
<trkpt lat="42.210581" lon="23.387036"><ele>1730.2</ele><time>2026-03-02T05:19:39.000Z</time></trkpt>
<trkpt lat="42.210568" lon="23.387034"><ele>1730.3</ele><time>2026-03-02T05:19:40.000Z</time></trkpt>
<trkpt lat="42.210556" lon="23.387032"><ele>1730.3</ele><time>2026-03-02T05:19:41.000Z</time></trkpt>
<trkpt lat="42.210544" lon="23.387032"><ele>1730.3</ele><time>2026-03-02T05:19:42.000Z</time></trkpt>
<trkpt lat="42.210531" lon="23.387032"><ele>1730.3</ele><time>2026-03-02T05:19:43.000Z</time></trkpt>
<trkpt lat="42.210518" lon="23.387034"><ele>1730.3</ele><time>2026-03-02T05:19:44.000Z</time></trkpt>
<trkpt lat="42.210505" lon="23.387036"><ele>1730.6</ele><time>2026-03-02T05:19:45.000Z</time></trkpt>
<trkpt lat="42.210492" lon="23.387039"><ele>1730.6</ele><time>2026-03-02T05:19:46.000Z</time></trkpt>
<trkpt lat="42.210479" lon="23.387042"><ele>1730.6</ele><time>2026-03-02T05:19:47.000Z</time></trkpt>
<trkpt lat="42.210466" lon="23.387045"><ele>1730.6</ele><time>2026-03-02T05:19:48.000Z</time></trkpt>
<trkpt lat="42.210453" lon="23.387048"><ele>1730.6</ele><time>2026-03-02T05:19:49.000Z</time></trkpt>
<trkpt lat="42.21044" lon="23.387051"><ele>1730.9</ele><time>2026-03-02T05:19:50.000Z</time></trkpt>
<trkpt lat="42.210426" lon="23.387053"><ele>1730.9</ele><time>2026-03-02T05:19:51.000Z</time></trkpt>
<trkpt lat="42.210412" lon="23.387054"><ele>1730.9</ele><time>2026-03-02T05:19:52.000Z</time></trkpt>
<trkpt lat="42.210398" lon="23.387053"><ele>1730.9</ele><time>2026-03-02T05:19:53.000Z</time></trkpt>
<trkpt lat="42.210384" lon="23.387053"><ele>1730.9</ele><time>2026-03-02T05:19:54.000Z</time></trkpt>
<trkpt lat="42.21037" lon="23.387054"><ele>1731</ele><time>2026-03-02T05:19:55.000Z</time></trkpt>
<trkpt lat="42.210355" lon="23.387056"><ele>1731</ele><time>2026-03-02T05:19:56.000Z</time></trkpt>
<trkpt lat="42.210341" lon="23.387059"><ele>1731</ele><time>2026-03-02T05:19:57.000Z</time></trkpt>
<trkpt lat="42.210327" lon="23.387062"><ele>1731</ele><time>2026-03-02T05:19:58.000Z</time></trkpt>
<trkpt lat="42.210312" lon="23.387063"><ele>1731</ele><time>2026-03-02T05:19:59.000Z</time></trkpt>
<trkpt lat="42.210299" lon="23.387062"><ele>1731.3</ele><time>2026-03-02T05:20:00.000Z</time></trkpt>
<trkpt lat="42.210285" lon="23.38706"><ele>1731.3</ele><time>2026-03-02T05:20:01.000Z</time></trkpt>
<trkpt lat="42.210272" lon="23.387058"><ele>1731.3</ele><time>2026-03-02T05:20:02.000Z</time></trkpt>
<trkpt lat="42.210259" lon="23.387057"><ele>1731.3</ele><time>2026-03-02T05:20:03.000Z</time></trkpt>
<trkpt lat="42.210246" lon="23.387056"><ele>1731.3</ele><time>2026-03-02T05:20:04.000Z</time></trkpt>
<trkpt lat="42.210234" lon="23.387057"><ele>1731.7</ele><time>2026-03-02T05:20:05.000Z</time></trkpt>
<trkpt lat="42.210222" lon="23.387058"><ele>1731.7</ele><time>2026-03-02T05:20:06.000Z</time></trkpt>
<trkpt lat="42.210209" lon="23.38706"><ele>1731.7</ele><time>2026-03-02T05:20:07.000Z</time></trkpt>
<trkpt lat="42.210198" lon="23.387062"><ele>1731.7</ele><time>2026-03-02T05:20:08.000Z</time></trkpt>
<trkpt lat="42.210186" lon="23.387065"><ele>1731.7</ele><time>2026-03-02T05:20:09.000Z</time></trkpt>
<trkpt lat="42.210175" lon="23.387068"><ele>1732</ele><time>2026-03-02T05:20:10.000Z</time></trkpt>
<trkpt lat="42.210163" lon="23.387071"><ele>1732</ele><time>2026-03-02T05:20:11.000Z</time></trkpt>
<trkpt lat="42.210151" lon="23.387074"><ele>1732</ele><time>2026-03-02T05:20:12.000Z</time></trkpt>
<trkpt lat="42.210139" lon="23.387076"><ele>1732</ele><time>2026-03-02T05:20:13.000Z</time></trkpt>
<trkpt lat="42.210126" lon="23.387078"><ele>1732</ele><time>2026-03-02T05:20:14.000Z</time></trkpt>
<trkpt lat="42.210115" lon="23.387078"><ele>1732.4</ele><time>2026-03-02T05:20:15.000Z</time></trkpt>
<trkpt lat="42.210103" lon="23.387079"><ele>1732.4</ele><time>2026-03-02T05:20:16.000Z</time></trkpt>
<trkpt lat="42.210092" lon="23.38708"><ele>1732.4</ele><time>2026-03-02T05:20:17.000Z</time></trkpt>
<trkpt lat="42.210082" lon="23.387081"><ele>1732.4</ele><time>2026-03-02T05:20:18.000Z</time></trkpt>
<trkpt lat="42.210071" lon="23.387082"><ele>1732.4</ele><time>2026-03-02T05:20:19.000Z</time></trkpt>
<trkpt lat="42.21006" lon="23.387084"><ele>1732.9</ele><time>2026-03-02T05:20:20.000Z</time></trkpt>
<trkpt lat="42.210048" lon="23.387087"><ele>1732.9</ele><time>2026-03-02T05:20:21.000Z</time></trkpt>
<trkpt lat="42.210035" lon="23.38709"><ele>1732.9</ele><time>2026-03-02T05:20:22.000Z</time></trkpt>
<trkpt lat="42.210022" lon="23.387092"><ele>1732.9</ele><time>2026-03-02T05:20:23.000Z</time></trkpt>
<trkpt lat="42.21001" lon="23.387094"><ele>1732.9</ele><time>2026-03-02T05:20:24.000Z</time></trkpt>
<trkpt lat="42.209997" lon="23.387096"><ele>1733.1</ele><time>2026-03-02T05:20:25.000Z</time></trkpt>
<trkpt lat="42.209984" lon="23.387096"><ele>1733.1</ele><time>2026-03-02T05:20:26.000Z</time></trkpt>
<trkpt lat="42.209971" lon="23.387097"><ele>1733.1</ele><time>2026-03-02T05:20:27.000Z</time></trkpt>
<trkpt lat="42.209958" lon="23.387098"><ele>1733.1</ele><time>2026-03-02T05:20:28.000Z</time></trkpt>
<trkpt lat="42.209944" lon="23.387101"><ele>1733.1</ele><time>2026-03-02T05:20:29.000Z</time></trkpt>
<trkpt lat="42.20993" lon="23.387105"><ele>1733.6</ele><time>2026-03-02T05:20:30.000Z</time></trkpt>
<trkpt lat="42.209917" lon="23.387109"><ele>1733.6</ele><time>2026-03-02T05:20:31.000Z</time></trkpt>
<trkpt lat="42.209903" lon="23.387113"><ele>1733.6</ele><time>2026-03-02T05:20:32.000Z</time></trkpt>
<trkpt lat="42.20989" lon="23.387116"><ele>1733.6</ele><time>2026-03-02T05:20:33.000Z</time></trkpt>
<trkpt lat="42.209877" lon="23.387119"><ele>1733.6</ele><time>2026-03-02T05:20:34.000Z</time></trkpt>
<trkpt lat="42.209863" lon="23.387122"><ele>1734.1</ele><time>2026-03-02T05:20:35.000Z</time></trkpt>
<trkpt lat="42.209849" lon="23.387125"><ele>1734.1</ele><time>2026-03-02T05:20:36.000Z</time></trkpt>
<trkpt lat="42.209834" lon="23.387129"><ele>1734.1</ele><time>2026-03-02T05:20:37.000Z</time></trkpt>
<trkpt lat="42.209819" lon="23.387133"><ele>1734.1</ele><time>2026-03-02T05:20:38.000Z</time></trkpt>
<trkpt lat="42.209805" lon="23.387138"><ele>1734.1</ele><time>2026-03-02T05:20:39.000Z</time></trkpt>
<trkpt lat="42.20979" lon="23.387143"><ele>1734.2</ele><time>2026-03-02T05:20:40.000Z</time></trkpt>
<trkpt lat="42.209775" lon="23.387148"><ele>1734.2</ele><time>2026-03-02T05:20:41.000Z</time></trkpt>
<trkpt lat="42.209761" lon="23.387153"><ele>1734.2</ele><time>2026-03-02T05:20:42.000Z</time></trkpt>
<trkpt lat="42.209747" lon="23.387157"><ele>1734.2</ele><time>2026-03-02T05:20:43.000Z</time></trkpt>
<trkpt lat="42.209733" lon="23.38716"><ele>1734.2</ele><time>2026-03-02T05:20:44.000Z</time></trkpt>
<trkpt lat="42.209718" lon="23.387163"><ele>1734.4</ele><time>2026-03-02T05:20:45.000Z</time></trkpt>
<trkpt lat="42.209703" lon="23.387164"><ele>1734.4</ele><time>2026-03-02T05:20:46.000Z</time></trkpt>
<trkpt lat="42.209689" lon="23.387164"><ele>1734.4</ele><time>2026-03-02T05:20:47.000Z</time></trkpt>
<trkpt lat="42.209675" lon="23.387166"><ele>1734.4</ele><time>2026-03-02T05:20:48.000Z</time></trkpt>
<trkpt lat="42.209662" lon="23.387168"><ele>1734.4</ele><time>2026-03-02T05:20:49.000Z</time></trkpt>
<trkpt lat="42.209649" lon="23.38717"><ele>1734.7</ele><time>2026-03-02T05:20:50.000Z</time></trkpt>
<trkpt lat="42.209637" lon="23.387173"><ele>1734.7</ele><time>2026-03-02T05:20:51.000Z</time></trkpt>
<trkpt lat="42.209625" lon="23.387176"><ele>1734.7</ele><time>2026-03-02T05:20:52.000Z</time></trkpt>
<trkpt lat="42.209613" lon="23.387179"><ele>1734.7</ele><time>2026-03-02T05:20:53.000Z</time></trkpt>
<trkpt lat="42.2096" lon="23.387181"><ele>1734.7</ele><time>2026-03-02T05:20:54.000Z</time></trkpt>
<trkpt lat="42.209586" lon="23.387183"><ele>1735</ele><time>2026-03-02T05:20:55.000Z</time></trkpt>
<trkpt lat="42.209573" lon="23.387185"><ele>1735</ele><time>2026-03-02T05:20:56.000Z</time></trkpt>
<trkpt lat="42.209559" lon="23.387187"><ele>1735</ele><time>2026-03-02T05:20:57.000Z</time></trkpt>
<trkpt lat="42.209545" lon="23.387189"><ele>1735</ele><time>2026-03-02T05:20:58.000Z</time></trkpt>
<trkpt lat="42.209533" lon="23.387189"><ele>1735</ele><time>2026-03-02T05:20:59.000Z</time></trkpt>
<trkpt lat="42.20952" lon="23.38719"><ele>1735.6</ele><time>2026-03-02T05:21:00.000Z</time></trkpt>
<trkpt lat="42.209507" lon="23.387192"><ele>1735.6</ele><time>2026-03-02T05:21:01.000Z</time></trkpt>
<trkpt lat="42.209494" lon="23.387193"><ele>1735.6</ele><time>2026-03-02T05:21:02.000Z</time></trkpt>
<trkpt lat="42.209481" lon="23.387194"><ele>1735.6</ele><time>2026-03-02T05:21:03.000Z</time></trkpt>
<trkpt lat="42.209467" lon="23.387197"><ele>1735.6</ele><time>2026-03-02T05:21:04.000Z</time></trkpt>
<trkpt lat="42.209454" lon="23.3872"><ele>1735.9</ele><time>2026-03-02T05:21:05.000Z</time></trkpt>
<trkpt lat="42.20944" lon="23.387202"><ele>1735.9</ele><time>2026-03-02T05:21:06.000Z</time></trkpt>
<trkpt lat="42.209426" lon="23.387205"><ele>1735.9</ele><time>2026-03-02T05:21:07.000Z</time></trkpt>
<trkpt lat="42.209411" lon="23.38721"><ele>1735.9</ele><time>2026-03-02T05:21:08.000Z</time></trkpt>
<trkpt lat="42.209397" lon="23.387213"><ele>1735.9</ele><time>2026-03-02T05:21:09.000Z</time></trkpt>
<trkpt lat="42.209383" lon="23.387217"><ele>1735.9</ele><time>2026-03-02T05:21:10.000Z</time></trkpt>
<trkpt lat="42.209369" lon="23.38722"><ele>1735.9</ele><time>2026-03-02T05:21:11.000Z</time></trkpt>
<trkpt lat="42.209356" lon="23.387221"><ele>1735.9</ele><time>2026-03-02T05:21:12.000Z</time></trkpt>
<trkpt lat="42.209342" lon="23.387223"><ele>1735.9</ele><time>2026-03-02T05:21:13.000Z</time></trkpt>
<trkpt lat="42.209329" lon="23.387224"><ele>1735.9</ele><time>2026-03-02T05:21:14.000Z</time></trkpt>
<trkpt lat="42.209315" lon="23.387227"><ele>1736</ele><time>2026-03-02T05:21:15.000Z</time></trkpt>
<trkpt lat="42.2093" lon="23.387229"><ele>1736</ele><time>2026-03-02T05:21:16.000Z</time></trkpt>
<trkpt lat="42.209285" lon="23.387233"><ele>1736</ele><time>2026-03-02T05:21:17.000Z</time></trkpt>
<trkpt lat="42.20927" lon="23.387236"><ele>1736</ele><time>2026-03-02T05:21:18.000Z</time></trkpt>
<trkpt lat="42.209255" lon="23.38724"><ele>1736</ele><time>2026-03-02T05:21:19.000Z</time></trkpt>
<trkpt lat="42.20924" lon="23.387244"><ele>1736.2</ele><time>2026-03-02T05:21:20.000Z</time></trkpt>
<trkpt lat="42.209226" lon="23.387248"><ele>1736.2</ele><time>2026-03-02T05:21:21.000Z</time></trkpt>
<trkpt lat="42.209212" lon="23.387252"><ele>1736.2</ele><time>2026-03-02T05:21:22.000Z</time></trkpt>
<trkpt lat="42.209198" lon="23.387256"><ele>1736.2</ele><time>2026-03-02T05:21:23.000Z</time></trkpt>
<trkpt lat="42.209185" lon="23.387261"><ele>1736.2</ele><time>2026-03-02T05:21:24.000Z</time></trkpt>
<trkpt lat="42.209172" lon="23.387266"><ele>1736.4</ele><time>2026-03-02T05:21:25.000Z</time></trkpt>
<trkpt lat="42.209157" lon="23.387271"><ele>1736.4</ele><time>2026-03-02T05:21:26.000Z</time></trkpt>
<trkpt lat="42.209143" lon="23.387276"><ele>1736.4</ele><time>2026-03-02T05:21:27.000Z</time></trkpt>
<trkpt lat="42.20913" lon="23.387282"><ele>1736.4</ele><time>2026-03-02T05:21:28.000Z</time></trkpt>
<trkpt lat="42.209116" lon="23.387288"><ele>1736.4</ele><time>2026-03-02T05:21:29.000Z</time></trkpt>
<trkpt lat="42.209103" lon="23.387294"><ele>1736.6</ele><time>2026-03-02T05:21:30.000Z</time></trkpt>
<trkpt lat="42.20909" lon="23.387301"><ele>1736.6</ele><time>2026-03-02T05:21:31.000Z</time></trkpt>
<trkpt lat="42.209078" lon="23.387309"><ele>1736.6</ele><time>2026-03-02T05:21:32.000Z</time></trkpt>
<trkpt lat="42.209065" lon="23.387318"><ele>1736.6</ele><time>2026-03-02T05:21:33.000Z</time></trkpt>
<trkpt lat="42.209053" lon="23.387328"><ele>1736.6</ele><time>2026-03-02T05:21:34.000Z</time></trkpt>
<trkpt lat="42.209041" lon="23.387338"><ele>1736.6</ele><time>2026-03-02T05:21:35.000Z</time></trkpt>
<trkpt lat="42.20903" lon="23.38735"><ele>1736.6</ele><time>2026-03-02T05:21:36.000Z</time></trkpt>
<trkpt lat="42.20902" lon="23.387361"><ele>1736.6</ele><time>2026-03-02T05:21:37.000Z</time></trkpt>
<trkpt lat="42.20901" lon="23.387372"><ele>1736.6</ele><time>2026-03-02T05:21:38.000Z</time></trkpt>
<trkpt lat="42.209" lon="23.387381"><ele>1736.6</ele><time>2026-03-02T05:21:39.000Z</time></trkpt>
<trkpt lat="42.208991" lon="23.387389"><ele>1736.7</ele><time>2026-03-02T05:21:40.000Z</time></trkpt>
<trkpt lat="42.208981" lon="23.387396"><ele>1736.7</ele><time>2026-03-02T05:21:41.000Z</time></trkpt>
<trkpt lat="42.208971" lon="23.387403"><ele>1736.7</ele><time>2026-03-02T05:21:42.000Z</time></trkpt>
<trkpt lat="42.208961" lon="23.387409"><ele>1736.7</ele><time>2026-03-02T05:21:43.000Z</time></trkpt>
<trkpt lat="42.208951" lon="23.387414"><ele>1736.7</ele><time>2026-03-02T05:21:44.000Z</time></trkpt>
<trkpt lat="42.208941" lon="23.38742"><ele>1737.1</ele><time>2026-03-02T05:21:45.000Z</time></trkpt>
<trkpt lat="42.208931" lon="23.387424"><ele>1737.1</ele><time>2026-03-02T05:21:46.000Z</time></trkpt>
<trkpt lat="42.20892" lon="23.387428"><ele>1737.1</ele><time>2026-03-02T05:21:47.000Z</time></trkpt>
<trkpt lat="42.20891" lon="23.387432"><ele>1737.1</ele><time>2026-03-02T05:21:48.000Z</time></trkpt>
<trkpt lat="42.208899" lon="23.387435"><ele>1737.1</ele><time>2026-03-02T05:21:49.000Z</time></trkpt>
<trkpt lat="42.208888" lon="23.387438"><ele>1737.5</ele><time>2026-03-02T05:21:50.000Z</time></trkpt>
<trkpt lat="42.208876" lon="23.38744"><ele>1737.5</ele><time>2026-03-02T05:21:51.000Z</time></trkpt>
<trkpt lat="42.208866" lon="23.387442"><ele>1737.5</ele><time>2026-03-02T05:21:52.000Z</time></trkpt>
<trkpt lat="42.208856" lon="23.387444"><ele>1737.5</ele><time>2026-03-02T05:21:53.000Z</time></trkpt>
<trkpt lat="42.208847" lon="23.387445"><ele>1737.5</ele><time>2026-03-02T05:21:54.000Z</time></trkpt>
<trkpt lat="42.208838" lon="23.387446"><ele>1738</ele><time>2026-03-02T05:21:55.000Z</time></trkpt>
<trkpt lat="42.208829" lon="23.387447"><ele>1738</ele><time>2026-03-02T05:21:56.000Z</time></trkpt>
<trkpt lat="42.208819" lon="23.387448"><ele>1738</ele><time>2026-03-02T05:21:57.000Z</time></trkpt>
<trkpt lat="42.208809" lon="23.387449"><ele>1738</ele><time>2026-03-02T05:21:58.000Z</time></trkpt>
<trkpt lat="42.208797" lon="23.38745"><ele>1738</ele><time>2026-03-02T05:21:59.000Z</time></trkpt>
<trkpt lat="42.208784" lon="23.387452"><ele>1739.1</ele><time>2026-03-02T05:22:00.000Z</time></trkpt>
<trkpt lat="42.208771" lon="23.387455"><ele>1739.1</ele><time>2026-03-02T05:22:01.000Z</time></trkpt>
<trkpt lat="42.208758" lon="23.387459"><ele>1739.1</ele><time>2026-03-02T05:22:02.000Z</time></trkpt>
<trkpt lat="42.208744" lon="23.387462"><ele>1739.1</ele><time>2026-03-02T05:22:03.000Z</time></trkpt>
<trkpt lat="42.20873" lon="23.387464"><ele>1739.1</ele><time>2026-03-02T05:22:04.000Z</time></trkpt>
<trkpt lat="42.208716" lon="23.387466"><ele>1740.5</ele><time>2026-03-02T05:22:05.000Z</time></trkpt>
<trkpt lat="42.208701" lon="23.387467"><ele>1740.5</ele><time>2026-03-02T05:22:06.000Z</time></trkpt>
<trkpt lat="42.208687" lon="23.387468"><ele>1740.5</ele><time>2026-03-02T05:22:07.000Z</time></trkpt>
<trkpt lat="42.208674" lon="23.38747"><ele>1740.5</ele><time>2026-03-02T05:22:08.000Z</time></trkpt>
<trkpt lat="42.208661" lon="23.387471"><ele>1740.5</ele><time>2026-03-02T05:22:09.000Z</time></trkpt>
<trkpt lat="42.208648" lon="23.387471"><ele>1741.2</ele><time>2026-03-02T05:22:10.000Z</time></trkpt>
<trkpt lat="42.208635" lon="23.387469"><ele>1741.2</ele><time>2026-03-02T05:22:11.000Z</time></trkpt>
<trkpt lat="42.208621" lon="23.387467"><ele>1741.2</ele><time>2026-03-02T05:22:12.000Z</time></trkpt>
<trkpt lat="42.208608" lon="23.387466"><ele>1741.2</ele><time>2026-03-02T05:22:13.000Z</time></trkpt>
<trkpt lat="42.208596" lon="23.387465"><ele>1741.2</ele><time>2026-03-02T05:22:14.000Z</time></trkpt>
<trkpt lat="42.208584" lon="23.387464"><ele>1742.2</ele><time>2026-03-02T05:22:15.000Z</time></trkpt>
<trkpt lat="42.208573" lon="23.387464"><ele>1742.2</ele><time>2026-03-02T05:22:16.000Z</time></trkpt>
<trkpt lat="42.20856" lon="23.387465"><ele>1742.2</ele><time>2026-03-02T05:22:17.000Z</time></trkpt>
<trkpt lat="42.208548" lon="23.387464"><ele>1742.2</ele><time>2026-03-02T05:22:18.000Z</time></trkpt>
<trkpt lat="42.208535" lon="23.387464"><ele>1742.2</ele><time>2026-03-02T05:22:19.000Z</time></trkpt>
<trkpt lat="42.208521" lon="23.387464"><ele>1742.8</ele><time>2026-03-02T05:22:20.000Z</time></trkpt>
<trkpt lat="42.208509" lon="23.387464"><ele>1742.8</ele><time>2026-03-02T05:22:21.000Z</time></trkpt>
<trkpt lat="42.208497" lon="23.387464"><ele>1742.8</ele><time>2026-03-02T05:22:22.000Z</time></trkpt>
<trkpt lat="42.208485" lon="23.387465"><ele>1742.8</ele><time>2026-03-02T05:22:23.000Z</time></trkpt>
<trkpt lat="42.208473" lon="23.387467"><ele>1742.8</ele><time>2026-03-02T05:22:24.000Z</time></trkpt>
<trkpt lat="42.208461" lon="23.38747"><ele>1743.1</ele><time>2026-03-02T05:22:25.000Z</time></trkpt>
<trkpt lat="42.208449" lon="23.387474"><ele>1743.1</ele><time>2026-03-02T05:22:26.000Z</time></trkpt>
<trkpt lat="42.208437" lon="23.387476"><ele>1743.1</ele><time>2026-03-02T05:22:27.000Z</time></trkpt>
<trkpt lat="42.208425" lon="23.387479"><ele>1743.1</ele><time>2026-03-02T05:22:28.000Z</time></trkpt>
<trkpt lat="42.208414" lon="23.387481"><ele>1743.1</ele><time>2026-03-02T05:22:29.000Z</time></trkpt>
<trkpt lat="42.208402" lon="23.387482"><ele>1743.5</ele><time>2026-03-02T05:22:30.000Z</time></trkpt>
<trkpt lat="42.20839" lon="23.387483"><ele>1743.5</ele><time>2026-03-02T05:22:31.000Z</time></trkpt>
<trkpt lat="42.208378" lon="23.387483"><ele>1743.5</ele><time>2026-03-02T05:22:32.000Z</time></trkpt>
<trkpt lat="42.208365" lon="23.387484"><ele>1743.5</ele><time>2026-03-02T05:22:33.000Z</time></trkpt>
<trkpt lat="42.208351" lon="23.387485"><ele>1743.5</ele><time>2026-03-02T05:22:34.000Z</time></trkpt>
<trkpt lat="42.208338" lon="23.387487"><ele>1743.8</ele><time>2026-03-02T05:22:35.000Z</time></trkpt>
<trkpt lat="42.208324" lon="23.387488"><ele>1743.8</ele><time>2026-03-02T05:22:36.000Z</time></trkpt>
<trkpt lat="42.208312" lon="23.38749"><ele>1743.8</ele><time>2026-03-02T05:22:37.000Z</time></trkpt>
<trkpt lat="42.208299" lon="23.387492"><ele>1743.8</ele><time>2026-03-02T05:22:38.000Z</time></trkpt>
<trkpt lat="42.208287" lon="23.387495"><ele>1743.8</ele><time>2026-03-02T05:22:39.000Z</time></trkpt>
<trkpt lat="42.208275" lon="23.387496"><ele>1744</ele><time>2026-03-02T05:22:40.000Z</time></trkpt>
<trkpt lat="42.208264" lon="23.387496"><ele>1744</ele><time>2026-03-02T05:22:41.000Z</time></trkpt>
<trkpt lat="42.208253" lon="23.387497"><ele>1744</ele><time>2026-03-02T05:22:42.000Z</time></trkpt>
<trkpt lat="42.208241" lon="23.387499"><ele>1744</ele><time>2026-03-02T05:22:43.000Z</time></trkpt>
<trkpt lat="42.208231" lon="23.387501"><ele>1744</ele><time>2026-03-02T05:22:44.000Z</time></trkpt>
<trkpt lat="42.208222" lon="23.387505"><ele>1744.4</ele><time>2026-03-02T05:22:45.000Z</time></trkpt>
<trkpt lat="42.208212" lon="23.387509"><ele>1744.4</ele><time>2026-03-02T05:22:46.000Z</time></trkpt>
<trkpt lat="42.208203" lon="23.387512"><ele>1744.4</ele><time>2026-03-02T05:22:47.000Z</time></trkpt>
<trkpt lat="42.208195" lon="23.387514"><ele>1744.4</ele><time>2026-03-02T05:22:48.000Z</time></trkpt>
<trkpt lat="42.208188" lon="23.387514"><ele>1744.4</ele><time>2026-03-02T05:22:49.000Z</time></trkpt>
<trkpt lat="42.208182" lon="23.387515"><ele>1744.8</ele><time>2026-03-02T05:22:50.000Z</time></trkpt>
<trkpt lat="42.208177" lon="23.387515"><ele>1744.8</ele><time>2026-03-02T05:22:51.000Z</time></trkpt>
<trkpt lat="42.208175" lon="23.387515"><ele>1744.8</ele><time>2026-03-02T05:22:52.000Z</time></trkpt>
<trkpt lat="42.208174" lon="23.387516"><ele>1744.8</ele><time>2026-03-02T05:22:53.000Z</time></trkpt>
<trkpt lat="42.208174" lon="23.387519"><ele>1744.8</ele><time>2026-03-02T05:22:54.000Z</time></trkpt>
<trkpt lat="42.208176" lon="23.387523"><ele>1745</ele><time>2026-03-02T05:22:55.000Z</time></trkpt>
<trkpt lat="42.208179" lon="23.387528"><ele>1745</ele><time>2026-03-02T05:22:56.000Z</time></trkpt>
<trkpt lat="42.208181" lon="23.387533"><ele>1745</ele><time>2026-03-02T05:22:57.000Z</time></trkpt>
<trkpt lat="42.208183" lon="23.387537"><ele>1745</ele><time>2026-03-02T05:22:58.000Z</time></trkpt>
<trkpt lat="42.208183" lon="23.38754"><ele>1745</ele><time>2026-03-02T05:22:59.000Z</time></trkpt>
<trkpt lat="42.208182" lon="23.387541"><ele>1745.3</ele><time>2026-03-02T05:23:00.000Z</time></trkpt>
<trkpt lat="42.208181" lon="23.387541"><ele>1745.3</ele><time>2026-03-02T05:23:01.000Z</time></trkpt>
<trkpt lat="42.20818" lon="23.387541"><ele>1745.3</ele><time>2026-03-02T05:23:02.000Z</time></trkpt>
<trkpt lat="42.208178" lon="23.387541"><ele>1745.3</ele><time>2026-03-02T05:23:03.000Z</time></trkpt>
<trkpt lat="42.208177" lon="23.387541"><ele>1745.3</ele><time>2026-03-02T05:23:04.000Z</time></trkpt>
<trkpt lat="42.208178" lon="23.38754"><ele>1745.5</ele><time>2026-03-02T05:23:05.000Z</time></trkpt>
<trkpt lat="42.208182" lon="23.387537"><ele>1745.5</ele><time>2026-03-02T05:23:06.000Z</time></trkpt>
<trkpt lat="42.208187" lon="23.387534"><ele>1745.5</ele><time>2026-03-02T05:23:07.000Z</time></trkpt>
<trkpt lat="42.208196" lon="23.387531"><ele>1745.5</ele><time>2026-03-02T05:23:08.000Z</time></trkpt>
<trkpt lat="42.208205" lon="23.387529"><ele>1745.5</ele><time>2026-03-02T05:23:09.000Z</time></trkpt>
<trkpt lat="42.208214" lon="23.387528"><ele>1745.5</ele><time>2026-03-02T05:23:10.000Z</time></trkpt>
<trkpt lat="42.208221" lon="23.387527"><ele>1745.5</ele><time>2026-03-02T05:23:11.000Z</time></trkpt>
<trkpt lat="42.208224" lon="23.387526"><ele>1745.5</ele><time>2026-03-02T05:23:12.000Z</time></trkpt>
<trkpt lat="42.208224" lon="23.387525"><ele>1745.5</ele><time>2026-03-02T05:23:13.000Z</time></trkpt>
<trkpt lat="42.208219" lon="23.387523"><ele>1745.5</ele><time>2026-03-02T05:23:14.000Z</time></trkpt>
<trkpt lat="42.20821" lon="23.387522"><ele>1745.3</ele><time>2026-03-02T05:23:15.000Z</time></trkpt>
<trkpt lat="42.208197" lon="23.387519"><ele>1745.3</ele><time>2026-03-02T05:23:16.000Z</time></trkpt>
<trkpt lat="42.208182" lon="23.387517"><ele>1745.3</ele><time>2026-03-02T05:23:17.000Z</time></trkpt>
<trkpt lat="42.208166" lon="23.387514"><ele>1745.3</ele><time>2026-03-02T05:23:18.000Z</time></trkpt>
<trkpt lat="42.208149" lon="23.387511"><ele>1745.3</ele><time>2026-03-02T05:23:19.000Z</time></trkpt>
<trkpt lat="42.208134" lon="23.387506"><ele>1745.1</ele><time>2026-03-02T05:23:20.000Z</time></trkpt>
<trkpt lat="42.208119" lon="23.3875"><ele>1745.1</ele><time>2026-03-02T05:23:21.000Z</time></trkpt>
<trkpt lat="42.208105" lon="23.387494"><ele>1745.1</ele><time>2026-03-02T05:23:22.000Z</time></trkpt>
<trkpt lat="42.208096" lon="23.387488"><ele>1745.1</ele><time>2026-03-02T05:23:23.000Z</time></trkpt>
<trkpt lat="42.208093" lon="23.387487"><ele>1745.1</ele><time>2026-03-02T05:23:24.000Z</time></trkpt>
<trkpt lat="42.208096" lon="23.387489"><ele>1745.1</ele><time>2026-03-02T05:23:25.000Z</time></trkpt>
<trkpt lat="42.208106" lon="23.387496"><ele>1745.1</ele><time>2026-03-02T05:23:26.000Z</time></trkpt>
<trkpt lat="42.20812" lon="23.387504"><ele>1745.1</ele><time>2026-03-02T05:23:27.000Z</time></trkpt>
<trkpt lat="42.208134" lon="23.387512"><ele>1745.1</ele><time>2026-03-02T05:23:28.000Z</time></trkpt>
<trkpt lat="42.208143" lon="23.387517"><ele>1745.1</ele><time>2026-03-02T05:23:29.000Z</time></trkpt>
<trkpt lat="42.208147" lon="23.387517"><ele>1745.1</ele><time>2026-03-02T05:23:30.000Z</time></trkpt>
<trkpt lat="42.208145" lon="23.387514"><ele>1745.1</ele><time>2026-03-02T05:23:31.000Z</time></trkpt>
<trkpt lat="42.208137" lon="23.387508"><ele>1745.1</ele><time>2026-03-02T05:23:32.000Z</time></trkpt>
<trkpt lat="42.208127" lon="23.387502"><ele>1745.1</ele><time>2026-03-02T05:23:33.000Z</time></trkpt>
<trkpt lat="42.208115" lon="23.387493"><ele>1745.1</ele><time>2026-03-02T05:23:34.000Z</time></trkpt>
<trkpt lat="42.208103" lon="23.387484"><ele>1745.2</ele><time>2026-03-02T05:23:35.000Z</time></trkpt>
<trkpt lat="42.20809" lon="23.387474"><ele>1745.2</ele><time>2026-03-02T05:23:36.000Z</time></trkpt>
<trkpt lat="42.208079" lon="23.387464"><ele>1745.2</ele><time>2026-03-02T05:23:37.000Z</time></trkpt>
<trkpt lat="42.208066" lon="23.387454"><ele>1745.2</ele><time>2026-03-02T05:23:38.000Z</time></trkpt>
<trkpt lat="42.208055" lon="23.387445"><ele>1745.2</ele><time>2026-03-02T05:23:39.000Z</time></trkpt>
<trkpt lat="42.208043" lon="23.387437"><ele>1745.3</ele><time>2026-03-02T05:23:40.000Z</time></trkpt>
<trkpt lat="42.208031" lon="23.387431"><ele>1745.3</ele><time>2026-03-02T05:23:41.000Z</time></trkpt>
<trkpt lat="42.20802" lon="23.387427"><ele>1745.3</ele><time>2026-03-02T05:23:42.000Z</time></trkpt>
<trkpt lat="42.208012" lon="23.387424"><ele>1745.3</ele><time>2026-03-02T05:23:43.000Z</time></trkpt>
<trkpt lat="42.208007" lon="23.387423"><ele>1745.3</ele><time>2026-03-02T05:23:44.000Z</time></trkpt>
<trkpt lat="42.208006" lon="23.387424"><ele>1745.3</ele><time>2026-03-02T05:23:45.000Z</time></trkpt>
<trkpt lat="42.208007" lon="23.387425"><ele>1745.3</ele><time>2026-03-02T05:23:46.000Z</time></trkpt>
<trkpt lat="42.20801" lon="23.387427"><ele>1745.3</ele><time>2026-03-02T05:23:47.000Z</time></trkpt>
<trkpt lat="42.208012" lon="23.38743"><ele>1745.3</ele><time>2026-03-02T05:23:48.000Z</time></trkpt>
<trkpt lat="42.208013" lon="23.387432"><ele>1745.3</ele><time>2026-03-02T05:23:49.000Z</time></trkpt>
<trkpt lat="42.208014" lon="23.387434"><ele>1745.6</ele><time>2026-03-02T05:23:50.000Z</time></trkpt>
<trkpt lat="42.208013" lon="23.387435"><ele>1745.6</ele><time>2026-03-02T05:23:51.000Z</time></trkpt>
<trkpt lat="42.208013" lon="23.387434"><ele>1745.6</ele><time>2026-03-02T05:23:52.000Z</time></trkpt>
<trkpt lat="42.208013" lon="23.387434"><ele>1745.6</ele><time>2026-03-02T05:23:53.000Z</time></trkpt>
<trkpt lat="42.208012" lon="23.387434"><ele>1745.6</ele><time>2026-03-02T05:23:54.000Z</time></trkpt>
<trkpt lat="42.208012" lon="23.387433"><ele>1745.7</ele><time>2026-03-02T05:23:55.000Z</time></trkpt>
<trkpt lat="42.208011" lon="23.387433"><ele>1745.7</ele><time>2026-03-02T05:23:56.000Z</time></trkpt>
<trkpt lat="42.20801" lon="23.387432"><ele>1745.7</ele><time>2026-03-02T05:23:57.000Z</time></trkpt>
<trkpt lat="42.208009" lon="23.387432"><ele>1745.7</ele><time>2026-03-02T05:23:58.000Z</time></trkpt>
<trkpt lat="42.208007" lon="23.387432"><ele>1745.7</ele><time>2026-03-02T05:23:59.000Z</time></trkpt>
<trkpt lat="42.208004" lon="23.387433"><ele>1746</ele><time>2026-03-02T05:24:00.000Z</time></trkpt>
<trkpt lat="42.208003" lon="23.387432"><ele>1746</ele><time>2026-03-02T05:24:01.000Z</time></trkpt>
<trkpt lat="42.208002" lon="23.387431"><ele>1746</ele><time>2026-03-02T05:24:02.000Z</time></trkpt>
<trkpt lat="42.208" lon="23.38743"><ele>1746</ele><time>2026-03-02T05:24:03.000Z</time></trkpt>
<trkpt lat="42.207999" lon="23.387429"><ele>1746</ele><time>2026-03-02T05:24:04.000Z</time></trkpt>
<trkpt lat="42.208" lon="23.387426"><ele>1746.1</ele><time>2026-03-02T05:24:05.000Z</time></trkpt>
<trkpt lat="42.208" lon="23.387425"><ele>1746.1</ele><time>2026-03-02T05:24:06.000Z</time></trkpt>
<trkpt lat="42.207999" lon="23.387424"><ele>1746.1</ele><time>2026-03-02T05:24:07.000Z</time></trkpt>
<trkpt lat="42.207999" lon="23.387422"><ele>1746.1</ele><time>2026-03-02T05:24:08.000Z</time></trkpt>
<trkpt lat="42.207999" lon="23.38742"><ele>1746.1</ele><time>2026-03-02T05:24:09.000Z</time></trkpt>
<trkpt lat="42.208" lon="23.387416"><ele>1746.1</ele><time>2026-03-02T05:24:10.000Z</time></trkpt>
<trkpt lat="42.208001" lon="23.387412"><ele>1746.1</ele><time>2026-03-02T05:24:11.000Z</time></trkpt>
<trkpt lat="42.208002" lon="23.387408"><ele>1746.1</ele><time>2026-03-02T05:24:12.000Z</time></trkpt>
<trkpt lat="42.208002" lon="23.387405"><ele>1746.1</ele><time>2026-03-02T05:24:13.000Z</time></trkpt>
<trkpt lat="42.208002" lon="23.387403"><ele>1746.1</ele><time>2026-03-02T05:24:14.000Z</time></trkpt>
<trkpt lat="42.208001" lon="23.387402"><ele>1746.1</ele><time>2026-03-02T05:24:15.000Z</time></trkpt>
<trkpt lat="42.208001" lon="23.3874"><ele>1746.1</ele><time>2026-03-02T05:24:16.000Z</time></trkpt>
<trkpt lat="42.207999" lon="23.387398"><ele>1746.1</ele><time>2026-03-02T05:24:17.000Z</time></trkpt>
<trkpt lat="42.207994" lon="23.387396"><ele>1746.1</ele><time>2026-03-02T05:24:18.000Z</time></trkpt>
<trkpt lat="42.207989" lon="23.387394"><ele>1746.1</ele><time>2026-03-02T05:24:19.000Z</time></trkpt>
<trkpt lat="42.207984" lon="23.387392"><ele>1746.2</ele><time>2026-03-02T05:24:20.000Z</time></trkpt>
<trkpt lat="42.207978" lon="23.38739"><ele>1746.2</ele><time>2026-03-02T05:24:21.000Z</time></trkpt>
<trkpt lat="42.207975" lon="23.387387"><ele>1746.2</ele><time>2026-03-02T05:24:22.000Z</time></trkpt>
<trkpt lat="42.207974" lon="23.387384"><ele>1746.2</ele><time>2026-03-02T05:24:23.000Z</time></trkpt>
<trkpt lat="42.207975" lon="23.387382"><ele>1746.2</ele><time>2026-03-02T05:24:24.000Z</time></trkpt>
<trkpt lat="42.207975" lon="23.387381"><ele>1746.2</ele><time>2026-03-02T05:24:25.000Z</time></trkpt>
<trkpt lat="42.207976" lon="23.387382"><ele>1746.2</ele><time>2026-03-02T05:24:26.000Z</time></trkpt>
<trkpt lat="42.207976" lon="23.387384"><ele>1746.2</ele><time>2026-03-02T05:24:27.000Z</time></trkpt>
<trkpt lat="42.207976" lon="23.387385"><ele>1746.2</ele><time>2026-03-02T05:24:28.000Z</time></trkpt>
<trkpt lat="42.207976" lon="23.387385"><ele>1746.2</ele><time>2026-03-02T05:24:29.000Z</time></trkpt>
<trkpt lat="42.207976" lon="23.387385"><ele>1746.2</ele><time>2026-03-02T05:24:30.000Z</time></trkpt>
<trkpt lat="42.207975" lon="23.387385"><ele>1746.2</ele><time>2026-03-02T05:24:31.000Z</time></trkpt>
<trkpt lat="42.207975" lon="23.387385"><ele>1746.2</ele><time>2026-03-02T05:24:32.000Z</time></trkpt>
<trkpt lat="42.207975" lon="23.387384"><ele>1746.2</ele><time>2026-03-02T05:24:33.000Z</time></trkpt>
<trkpt lat="42.207975" lon="23.387384"><ele>1746.2</ele><time>2026-03-02T05:24:34.000Z</time></trkpt>
<trkpt lat="42.207975" lon="23.387383"><ele>1746.4</ele><time>2026-03-02T05:24:35.000Z</time></trkpt>
<trkpt lat="42.207974" lon="23.387383"><ele>1746.4</ele><time>2026-03-02T05:24:36.000Z</time></trkpt>
<trkpt lat="42.207974" lon="23.387383"><ele>1746.4</ele><time>2026-03-02T05:24:37.000Z</time></trkpt>
<trkpt lat="42.207974" lon="23.387384"><ele>1746.4</ele><time>2026-03-02T05:24:38.000Z</time></trkpt>
<trkpt lat="42.207973" lon="23.387385"><ele>1746.4</ele><time>2026-03-02T05:24:39.000Z</time></trkpt>
<trkpt lat="42.207972" lon="23.387386"><ele>1746.5</ele><time>2026-03-02T05:24:40.000Z</time></trkpt>
<trkpt lat="42.20797" lon="23.387386"><ele>1746.5</ele><time>2026-03-02T05:24:41.000Z</time></trkpt>
<trkpt lat="42.207969" lon="23.387387"><ele>1746.5</ele><time>2026-03-02T05:24:42.000Z</time></trkpt>
<trkpt lat="42.207968" lon="23.387386"><ele>1746.5</ele><time>2026-03-02T05:24:43.000Z</time></trkpt>
<trkpt lat="42.207969" lon="23.387386"><ele>1746.5</ele><time>2026-03-02T05:24:44.000Z</time></trkpt>
<trkpt lat="42.20797" lon="23.387385"><ele>1746.6</ele><time>2026-03-02T05:24:45.000Z</time></trkpt>
<trkpt lat="42.207971" lon="23.387384"><ele>1746.6</ele><time>2026-03-02T05:24:46.000Z</time></trkpt>
<trkpt lat="42.207972" lon="23.387384"><ele>1746.6</ele><time>2026-03-02T05:24:47.000Z</time></trkpt>
<trkpt lat="42.207973" lon="23.387383"><ele>1746.6</ele><time>2026-03-02T05:24:48.000Z</time></trkpt>
<trkpt lat="42.207973" lon="23.387383"><ele>1746.6</ele><time>2026-03-02T05:24:49.000Z</time></trkpt>
<trkpt lat="42.207973" lon="23.387383"><ele>1746.5</ele><time>2026-03-02T05:24:50.000Z</time></trkpt>
<trkpt lat="42.207973" lon="23.387383"><ele>1746.5</ele><time>2026-03-02T05:24:51.000Z</time></trkpt>
<trkpt lat="42.207973" lon="23.387383"><ele>1746.5</ele><time>2026-03-02T05:24:52.000Z</time></trkpt>
<trkpt lat="42.207973" lon="23.387383"><ele>1746.5</ele><time>2026-03-02T05:24:53.000Z</time></trkpt>
<trkpt lat="42.207973" lon="23.387383"><ele>1746.5</ele><time>2026-03-02T05:24:54.000Z</time></trkpt>
<trkpt lat="42.207974" lon="23.387383"><ele>1746.4</ele><time>2026-03-02T05:24:55.000Z</time></trkpt>
<trkpt lat="42.207974" lon="23.387383"><ele>1746.4</ele><time>2026-03-02T05:24:56.000Z</time></trkpt>
<trkpt lat="42.207975" lon="23.387383"><ele>1746.4</ele><time>2026-03-02T05:24:57.000Z</time></trkpt>
<trkpt lat="42.207976" lon="23.387382"><ele>1746.4</ele><time>2026-03-02T05:24:58.000Z</time></trkpt>
<trkpt lat="42.207977" lon="23.387382"><ele>1746.4</ele><time>2026-03-02T05:24:59.000Z</time></trkpt>
<trkpt lat="42.207977" lon="23.387382"><ele>1746.3</ele><time>2026-03-02T05:25:00.000Z</time></trkpt>
<trkpt lat="42.207977" lon="23.387382"><ele>1746.3</ele><time>2026-03-02T05:25:01.000Z</time></trkpt>
<trkpt lat="42.207977" lon="23.387382"><ele>1746.3</ele><time>2026-03-02T05:25:02.000Z</time></trkpt>
<trkpt lat="42.207977" lon="23.387382"><ele>1746.3</ele><time>2026-03-02T05:25:03.000Z</time></trkpt>
<trkpt lat="42.207977" lon="23.387381"><ele>1746.3</ele><time>2026-03-02T05:25:04.000Z</time></trkpt>
<trkpt lat="42.207978" lon="23.387379"><ele>1746.3</ele><time>2026-03-02T05:25:05.000Z</time></trkpt>
<trkpt lat="42.20798" lon="23.387378"><ele>1746.3</ele><time>2026-03-02T05:25:06.000Z</time></trkpt>
<trkpt lat="42.207981" lon="23.387376"><ele>1746.3</ele><time>2026-03-02T05:25:07.000Z</time></trkpt>
<trkpt lat="42.207982" lon="23.387375"><ele>1746.3</ele><time>2026-03-02T05:25:08.000Z</time></trkpt>
<trkpt lat="42.207982" lon="23.387373"><ele>1746.3</ele><time>2026-03-02T05:25:09.000Z</time></trkpt>
<trkpt lat="42.207981" lon="23.387373"><ele>1746.3</ele><time>2026-03-02T05:25:10.000Z</time></trkpt>
<trkpt lat="42.20798" lon="23.387373"><ele>1746.3</ele><time>2026-03-02T05:25:11.000Z</time></trkpt>
<trkpt lat="42.207978" lon="23.387374"><ele>1746.3</ele><time>2026-03-02T05:25:12.000Z</time></trkpt>
<trkpt lat="42.207977" lon="23.387376"><ele>1746.3</ele><time>2026-03-02T05:25:13.000Z</time></trkpt>
<trkpt lat="42.207976" lon="23.387378"><ele>1746.3</ele><time>2026-03-02T05:25:14.000Z</time></trkpt>
<trkpt lat="42.207975" lon="23.38738"><ele>1746.5</ele><time>2026-03-02T05:25:15.000Z</time></trkpt>
<trkpt lat="42.207973" lon="23.387382"><ele>1746.5</ele><time>2026-03-02T05:25:16.000Z</time></trkpt>
<trkpt lat="42.207973" lon="23.387382"><ele>1746.5</ele><time>2026-03-02T05:25:17.000Z</time></trkpt>
<trkpt lat="42.207974" lon="23.387382"><ele>1746.5</ele><time>2026-03-02T05:25:18.000Z</time></trkpt>
<trkpt lat="42.207975" lon="23.387382"><ele>1746.5</ele><time>2026-03-02T05:25:19.000Z</time></trkpt>
<trkpt lat="42.207976" lon="23.387382"><ele>1746.6</ele><time>2026-03-02T05:25:20.000Z</time></trkpt>
<trkpt lat="42.207977" lon="23.387382"><ele>1746.6</ele><time>2026-03-02T05:25:21.000Z</time></trkpt>
<trkpt lat="42.207977" lon="23.387382"><ele>1746.6</ele><time>2026-03-02T05:25:22.000Z</time></trkpt>
<trkpt lat="42.207978" lon="23.387383"><ele>1746.6</ele><time>2026-03-02T05:25:23.000Z</time></trkpt>
<trkpt lat="42.207978" lon="23.387383"><ele>1746.6</ele><time>2026-03-02T05:25:24.000Z</time></trkpt>
<trkpt lat="42.207978" lon="23.387383"><ele>1746.7</ele><time>2026-03-02T05:25:25.000Z</time></trkpt>
<trkpt lat="42.207978" lon="23.387384"><ele>1746.7</ele><time>2026-03-02T05:25:26.000Z</time></trkpt>
<trkpt lat="42.207978" lon="23.387385"><ele>1746.7</ele><time>2026-03-02T05:25:27.000Z</time></trkpt>
<trkpt lat="42.207978" lon="23.387386"><ele>1746.7</ele><time>2026-03-02T05:25:28.000Z</time></trkpt>
<trkpt lat="42.207977" lon="23.387388"><ele>1746.7</ele><time>2026-03-02T05:25:29.000Z</time></trkpt>
<trkpt lat="42.207978" lon="23.387389"><ele>1746.8</ele><time>2026-03-02T05:25:30.000Z</time></trkpt>
<trkpt lat="42.207978" lon="23.38739"><ele>1746.8</ele><time>2026-03-02T05:25:31.000Z</time></trkpt>
<trkpt lat="42.207979" lon="23.387392"><ele>1746.8</ele><time>2026-03-02T05:25:32.000Z</time></trkpt>
<trkpt lat="42.207978" lon="23.387393"><ele>1746.8</ele><time>2026-03-02T05:25:33.000Z</time></trkpt>
<trkpt lat="42.207977" lon="23.387394"><ele>1746.8</ele><time>2026-03-02T05:25:34.000Z</time></trkpt>
<trkpt lat="42.207976" lon="23.387394"><ele>1746.7</ele><time>2026-03-02T05:25:35.000Z</time></trkpt>
<trkpt lat="42.207974" lon="23.387395"><ele>1746.7</ele><time>2026-03-02T05:25:36.000Z</time></trkpt>
<trkpt lat="42.207972" lon="23.387394"><ele>1746.7</ele><time>2026-03-02T05:25:37.000Z</time></trkpt>
<trkpt lat="42.20797" lon="23.387393"><ele>1746.7</ele><time>2026-03-02T05:25:38.000Z</time></trkpt>
<trkpt lat="42.207969" lon="23.387392"><ele>1746.7</ele><time>2026-03-02T05:25:39.000Z</time></trkpt>
<trkpt lat="42.207969" lon="23.387392"><ele>1746.7</ele><time>2026-03-02T05:25:40.000Z</time></trkpt>
<trkpt lat="42.207969" lon="23.387391"><ele>1746.7</ele><time>2026-03-02T05:25:41.000Z</time></trkpt>
<trkpt lat="42.20797" lon="23.387391"><ele>1746.7</ele><time>2026-03-02T05:25:42.000Z</time></trkpt>
<trkpt lat="42.207972" lon="23.387391"><ele>1746.7</ele><time>2026-03-02T05:25:43.000Z</time></trkpt>
<trkpt lat="42.207973" lon="23.38739"><ele>1746.7</ele><time>2026-03-02T05:25:44.000Z</time></trkpt>
<trkpt lat="42.207975" lon="23.387389"><ele>1746.6</ele><time>2026-03-02T05:25:45.000Z</time></trkpt>
<trkpt lat="42.207976" lon="23.387388"><ele>1746.6</ele><time>2026-03-02T05:25:46.000Z</time></trkpt>
<trkpt lat="42.207976" lon="23.387387"><ele>1746.6</ele><time>2026-03-02T05:25:47.000Z</time></trkpt>
<trkpt lat="42.207976" lon="23.387386"><ele>1746.6</ele><time>2026-03-02T05:25:48.000Z</time></trkpt>
<trkpt lat="42.207976" lon="23.387386"><ele>1746.6</ele><time>2026-03-02T05:25:49.000Z</time></trkpt>
<trkpt lat="42.207976" lon="23.387386"><ele>1746.5</ele><time>2026-03-02T05:25:50.000Z</time></trkpt>
<trkpt lat="42.207976" lon="23.387386"><ele>1746.5</ele><time>2026-03-02T05:25:51.000Z</time></trkpt>
<trkpt lat="42.207976" lon="23.387386"><ele>1746.5</ele><time>2026-03-02T05:25:52.000Z</time></trkpt>
<trkpt lat="42.207976" lon="23.387386"><ele>1746.5</ele><time>2026-03-02T05:25:53.000Z</time></trkpt>
<trkpt lat="42.207976" lon="23.387386"><ele>1746.5</ele><time>2026-03-02T05:25:54.000Z</time></trkpt>
<trkpt lat="42.207976" lon="23.387386"><ele>1746.5</ele><time>2026-03-02T05:25:55.000Z</time></trkpt>
<trkpt lat="42.207975" lon="23.387386"><ele>1746.5</ele><time>2026-03-02T05:25:56.000Z</time></trkpt>
<trkpt lat="42.207976" lon="23.387384"><ele>1746.5</ele><time>2026-03-02T05:25:57.000Z</time></trkpt>
<trkpt lat="42.207977" lon="23.387382"><ele>1746.5</ele><time>2026-03-02T05:25:58.000Z</time></trkpt>
<trkpt lat="42.207979" lon="23.387378"><ele>1746.5</ele><time>2026-03-02T05:25:59.000Z</time></trkpt>
<trkpt lat="42.207982" lon="23.387374"><ele>1746.5</ele><time>2026-03-02T05:26:00.000Z</time></trkpt>
<trkpt lat="42.207984" lon="23.38737"><ele>1746.5</ele><time>2026-03-02T05:26:01.000Z</time></trkpt>
<trkpt lat="42.207986" lon="23.387368"><ele>1746.5</ele><time>2026-03-02T05:26:02.000Z</time></trkpt>
<trkpt lat="42.207987" lon="23.387366"><ele>1746.5</ele><time>2026-03-02T05:26:03.000Z</time></trkpt>
<trkpt lat="42.207987" lon="23.387366"><ele>1746.5</ele><time>2026-03-02T05:26:04.000Z</time></trkpt>
<trkpt lat="42.207984" lon="23.387365"><ele>1746.4</ele><time>2026-03-02T05:26:05.000Z</time></trkpt>
<trkpt lat="42.20798" lon="23.387364"><ele>1746.4</ele><time>2026-03-02T05:26:06.000Z</time></trkpt>
<trkpt lat="42.207975" lon="23.387364"><ele>1746.4</ele><time>2026-03-02T05:26:07.000Z</time></trkpt>
<trkpt lat="42.207966" lon="23.387364"><ele>1746.4</ele><time>2026-03-02T05:26:08.000Z</time></trkpt>
<trkpt lat="42.207956" lon="23.387363"><ele>1746.4</ele><time>2026-03-02T05:26:09.000Z</time></trkpt>
<trkpt lat="42.207945" lon="23.387362"><ele>1746.3</ele><time>2026-03-02T05:26:10.000Z</time></trkpt>
<trkpt lat="42.207932" lon="23.387359"><ele>1746.3</ele><time>2026-03-02T05:26:11.000Z</time></trkpt>
<trkpt lat="42.207918" lon="23.387356"><ele>1746.3</ele><time>2026-03-02T05:26:12.000Z</time></trkpt>
<trkpt lat="42.207904" lon="23.387351"><ele>1746.3</ele><time>2026-03-02T05:26:13.000Z</time></trkpt>
<trkpt lat="42.20789" lon="23.387346"><ele>1746.3</ele><time>2026-03-02T05:26:14.000Z</time></trkpt>
<trkpt lat="42.207877" lon="23.387341"><ele>1746.2</ele><time>2026-03-02T05:26:15.000Z</time></trkpt>
<trkpt lat="42.207863" lon="23.387336"><ele>1746.2</ele><time>2026-03-02T05:26:16.000Z</time></trkpt>
<trkpt lat="42.20785" lon="23.387331"><ele>1746.2</ele><time>2026-03-02T05:26:17.000Z</time></trkpt>
<trkpt lat="42.207837" lon="23.387325"><ele>1746.2</ele><time>2026-03-02T05:26:18.000Z</time></trkpt>
<trkpt lat="42.207825" lon="23.387319"><ele>1746.2</ele><time>2026-03-02T05:26:19.000Z</time></trkpt>
<trkpt lat="42.207812" lon="23.387313"><ele>1746.2</ele><time>2026-03-02T05:26:20.000Z</time></trkpt>
<trkpt lat="42.207802" lon="23.387306"><ele>1746.2</ele><time>2026-03-02T05:26:21.000Z</time></trkpt>
<trkpt lat="42.207791" lon="23.387299"><ele>1746.2</ele><time>2026-03-02T05:26:22.000Z</time></trkpt>
<trkpt lat="42.207781" lon="23.387291"><ele>1746.2</ele><time>2026-03-02T05:26:23.000Z</time></trkpt>
<trkpt lat="42.20777" lon="23.387283"><ele>1746.2</ele><time>2026-03-02T05:26:24.000Z</time></trkpt>
<trkpt lat="42.20776" lon="23.387275"><ele>1746.2</ele><time>2026-03-02T05:26:25.000Z</time></trkpt>
<trkpt lat="42.207748" lon="23.387268"><ele>1746.2</ele><time>2026-03-02T05:26:26.000Z</time></trkpt>
<trkpt lat="42.207736" lon="23.387261"><ele>1746.2</ele><time>2026-03-02T05:26:27.000Z</time></trkpt>
<trkpt lat="42.207724" lon="23.387255"><ele>1746.2</ele><time>2026-03-02T05:26:28.000Z</time></trkpt>
<trkpt lat="42.207712" lon="23.387249"><ele>1746.2</ele><time>2026-03-02T05:26:29.000Z</time></trkpt>
<trkpt lat="42.2077" lon="23.387243"><ele>1746.4</ele><time>2026-03-02T05:26:30.000Z</time></trkpt>
<trkpt lat="42.207689" lon="23.387234"><ele>1746.4</ele><time>2026-03-02T05:26:31.000Z</time></trkpt>
<trkpt lat="42.207678" lon="23.387227"><ele>1746.4</ele><time>2026-03-02T05:26:32.000Z</time></trkpt>
<trkpt lat="42.207667" lon="23.38722"><ele>1746.4</ele><time>2026-03-02T05:26:33.000Z</time></trkpt>
<trkpt lat="42.207657" lon="23.387215"><ele>1746.4</ele><time>2026-03-02T05:26:34.000Z</time></trkpt>
<trkpt lat="42.207647" lon="23.387211"><ele>1746.7</ele><time>2026-03-02T05:26:35.000Z</time></trkpt>
<trkpt lat="42.207637" lon="23.38721"><ele>1746.7</ele><time>2026-03-02T05:26:36.000Z</time></trkpt>
<trkpt lat="42.207628" lon="23.38721"><ele>1746.7</ele><time>2026-03-02T05:26:37.000Z</time></trkpt>
<trkpt lat="42.207619" lon="23.387211"><ele>1746.7</ele><time>2026-03-02T05:26:38.000Z</time></trkpt>
<trkpt lat="42.207609" lon="23.387211"><ele>1746.7</ele><time>2026-03-02T05:26:39.000Z</time></trkpt>
<trkpt lat="42.207599" lon="23.38721"><ele>1746.9</ele><time>2026-03-02T05:26:40.000Z</time></trkpt>
<trkpt lat="42.207589" lon="23.387209"><ele>1746.9</ele><time>2026-03-02T05:26:41.000Z</time></trkpt>
<trkpt lat="42.207579" lon="23.387207"><ele>1746.9</ele><time>2026-03-02T05:26:42.000Z</time></trkpt>
<trkpt lat="42.207568" lon="23.387203"><ele>1746.9</ele><time>2026-03-02T05:26:43.000Z</time></trkpt>
<trkpt lat="42.207557" lon="23.387198"><ele>1746.9</ele><time>2026-03-02T05:26:44.000Z</time></trkpt>
<trkpt lat="42.207545" lon="23.387192"><ele>1747.4</ele><time>2026-03-02T05:26:45.000Z</time></trkpt>
<trkpt lat="42.207533" lon="23.387185"><ele>1747.4</ele><time>2026-03-02T05:26:46.000Z</time></trkpt>
<trkpt lat="42.207521" lon="23.387179"><ele>1747.4</ele><time>2026-03-02T05:26:47.000Z</time></trkpt>
<trkpt lat="42.207509" lon="23.387174"><ele>1747.4</ele><time>2026-03-02T05:26:48.000Z</time></trkpt>
<trkpt lat="42.207496" lon="23.38717"><ele>1747.4</ele><time>2026-03-02T05:26:49.000Z</time></trkpt>
<trkpt lat="42.207485" lon="23.387167"><ele>1748.2</ele><time>2026-03-02T05:26:50.000Z</time></trkpt>
<trkpt lat="42.207473" lon="23.387165"><ele>1748.2</ele><time>2026-03-02T05:26:51.000Z</time></trkpt>
<trkpt lat="42.207462" lon="23.387163"><ele>1748.2</ele><time>2026-03-02T05:26:52.000Z</time></trkpt>
<trkpt lat="42.207451" lon="23.387161"><ele>1748.2</ele><time>2026-03-02T05:26:53.000Z</time></trkpt>
<trkpt lat="42.20744" lon="23.387159"><ele>1748.2</ele><time>2026-03-02T05:26:54.000Z</time></trkpt>
<trkpt lat="42.207428" lon="23.387157"><ele>1748.6</ele><time>2026-03-02T05:26:55.000Z</time></trkpt>
<trkpt lat="42.207417" lon="23.387156"><ele>1748.6</ele><time>2026-03-02T05:26:56.000Z</time></trkpt>
<trkpt lat="42.207406" lon="23.387154"><ele>1748.6</ele><time>2026-03-02T05:26:57.000Z</time></trkpt>
<trkpt lat="42.207394" lon="23.387153"><ele>1748.6</ele><time>2026-03-02T05:26:58.000Z</time></trkpt>
<trkpt lat="42.207383" lon="23.38715"><ele>1748.6</ele><time>2026-03-02T05:26:59.000Z</time></trkpt>
<trkpt lat="42.207372" lon="23.387147"><ele>1749.4</ele><time>2026-03-02T05:27:00.000Z</time></trkpt>
<trkpt lat="42.207362" lon="23.387143"><ele>1749.4</ele><time>2026-03-02T05:27:01.000Z</time></trkpt>
<trkpt lat="42.207351" lon="23.387139"><ele>1749.4</ele><time>2026-03-02T05:27:02.000Z</time></trkpt>
<trkpt lat="42.207339" lon="23.387134"><ele>1749.4</ele><time>2026-03-02T05:27:03.000Z</time></trkpt>
<trkpt lat="42.207328" lon="23.387129"><ele>1749.4</ele><time>2026-03-02T05:27:04.000Z</time></trkpt>
<trkpt lat="42.207317" lon="23.387125"><ele>1750</ele><time>2026-03-02T05:27:05.000Z</time></trkpt>
<trkpt lat="42.207306" lon="23.387123"><ele>1750</ele><time>2026-03-02T05:27:06.000Z</time></trkpt>
<trkpt lat="42.207294" lon="23.387122"><ele>1750</ele><time>2026-03-02T05:27:07.000Z</time></trkpt>
<trkpt lat="42.207282" lon="23.387123"><ele>1750</ele><time>2026-03-02T05:27:08.000Z</time></trkpt>
<trkpt lat="42.207269" lon="23.387122"><ele>1750</ele><time>2026-03-02T05:27:09.000Z</time></trkpt>
<trkpt lat="42.207256" lon="23.387122"><ele>1750.4</ele><time>2026-03-02T05:27:10.000Z</time></trkpt>
<trkpt lat="42.207243" lon="23.38712"><ele>1750.4</ele><time>2026-03-02T05:27:11.000Z</time></trkpt>
<trkpt lat="42.20723" lon="23.387118"><ele>1750.4</ele><time>2026-03-02T05:27:12.000Z</time></trkpt>
<trkpt lat="42.207219" lon="23.387116"><ele>1750.4</ele><time>2026-03-02T05:27:13.000Z</time></trkpt>
<trkpt lat="42.207207" lon="23.387114"><ele>1750.4</ele><time>2026-03-02T05:27:14.000Z</time></trkpt>
<trkpt lat="42.207196" lon="23.38711"><ele>1751.2</ele><time>2026-03-02T05:27:15.000Z</time></trkpt>
<trkpt lat="42.207185" lon="23.387106"><ele>1751.2</ele><time>2026-03-02T05:27:16.000Z</time></trkpt>
<trkpt lat="42.207174" lon="23.3871"><ele>1751.2</ele><time>2026-03-02T05:27:17.000Z</time></trkpt>
<trkpt lat="42.207163" lon="23.387092"><ele>1751.2</ele><time>2026-03-02T05:27:18.000Z</time></trkpt>
<trkpt lat="42.207153" lon="23.387084"><ele>1751.2</ele><time>2026-03-02T05:27:19.000Z</time></trkpt>
<trkpt lat="42.207142" lon="23.387076"><ele>1752.1</ele><time>2026-03-02T05:27:20.000Z</time></trkpt>
<trkpt lat="42.207129" lon="23.387069"><ele>1752.1</ele><time>2026-03-02T05:27:21.000Z</time></trkpt>
<trkpt lat="42.207117" lon="23.387062"><ele>1752.1</ele><time>2026-03-02T05:27:22.000Z</time></trkpt>
<trkpt lat="42.207104" lon="23.387057"><ele>1752.1</ele><time>2026-03-02T05:27:23.000Z</time></trkpt>
<trkpt lat="42.20709" lon="23.387053"><ele>1752.1</ele><time>2026-03-02T05:27:24.000Z</time></trkpt>
<trkpt lat="42.207077" lon="23.387051"><ele>1752.5</ele><time>2026-03-02T05:27:25.000Z</time></trkpt>
<trkpt lat="42.207064" lon="23.387049"><ele>1752.5</ele><time>2026-03-02T05:27:26.000Z</time></trkpt>
<trkpt lat="42.207053" lon="23.387048"><ele>1752.5</ele><time>2026-03-02T05:27:27.000Z</time></trkpt>
<trkpt lat="42.207042" lon="23.387048"><ele>1752.5</ele><time>2026-03-02T05:27:28.000Z</time></trkpt>
<trkpt lat="42.207031" lon="23.387047"><ele>1752.5</ele><time>2026-03-02T05:27:29.000Z</time></trkpt>
<trkpt lat="42.207021" lon="23.387046"><ele>1753</ele><time>2026-03-02T05:27:30.000Z</time></trkpt>
<trkpt lat="42.207011" lon="23.387044"><ele>1753</ele><time>2026-03-02T05:27:31.000Z</time></trkpt>
<trkpt lat="42.206999" lon="23.387043"><ele>1753</ele><time>2026-03-02T05:27:32.000Z</time></trkpt>
<trkpt lat="42.206988" lon="23.387041"><ele>1753</ele><time>2026-03-02T05:27:33.000Z</time></trkpt>
<trkpt lat="42.206977" lon="23.387038"><ele>1753</ele><time>2026-03-02T05:27:34.000Z</time></trkpt>
<trkpt lat="42.206967" lon="23.387035"><ele>1753.6</ele><time>2026-03-02T05:27:35.000Z</time></trkpt>
<trkpt lat="42.206956" lon="23.387033"><ele>1753.6</ele><time>2026-03-02T05:27:36.000Z</time></trkpt>
<trkpt lat="42.206947" lon="23.38703"><ele>1753.6</ele><time>2026-03-02T05:27:37.000Z</time></trkpt>
<trkpt lat="42.206936" lon="23.387029"><ele>1753.6</ele><time>2026-03-02T05:27:38.000Z</time></trkpt>
<trkpt lat="42.206926" lon="23.387027"><ele>1753.6</ele><time>2026-03-02T05:27:39.000Z</time></trkpt>
<trkpt lat="42.206914" lon="23.387026"><ele>1754</ele><time>2026-03-02T05:27:40.000Z</time></trkpt>
<trkpt lat="42.206903" lon="23.387024"><ele>1754</ele><time>2026-03-02T05:27:41.000Z</time></trkpt>
<trkpt lat="42.206891" lon="23.387022"><ele>1754</ele><time>2026-03-02T05:27:42.000Z</time></trkpt>
<trkpt lat="42.206879" lon="23.387018"><ele>1754</ele><time>2026-03-02T05:27:43.000Z</time></trkpt>
<trkpt lat="42.206867" lon="23.387016"><ele>1754</ele><time>2026-03-02T05:27:44.000Z</time></trkpt>
<trkpt lat="42.206854" lon="23.387013"><ele>1755</ele><time>2026-03-02T05:27:45.000Z</time></trkpt>
<trkpt lat="42.206843" lon="23.387011"><ele>1755</ele><time>2026-03-02T05:27:46.000Z</time></trkpt>
<trkpt lat="42.206831" lon="23.38701"><ele>1755</ele><time>2026-03-02T05:27:47.000Z</time></trkpt>
<trkpt lat="42.20682" lon="23.387009"><ele>1755</ele><time>2026-03-02T05:27:48.000Z</time></trkpt>
<trkpt lat="42.206809" lon="23.387008"><ele>1755</ele><time>2026-03-02T05:27:49.000Z</time></trkpt>
<trkpt lat="42.206798" lon="23.387006"><ele>1755.9</ele><time>2026-03-02T05:27:50.000Z</time></trkpt>
<trkpt lat="42.206788" lon="23.387004"><ele>1755.9</ele><time>2026-03-02T05:27:51.000Z</time></trkpt>
<trkpt lat="42.206778" lon="23.387001"><ele>1755.9</ele><time>2026-03-02T05:27:52.000Z</time></trkpt>
<trkpt lat="42.206768" lon="23.386998"><ele>1755.9</ele><time>2026-03-02T05:27:53.000Z</time></trkpt>
<trkpt lat="42.20676" lon="23.386993"><ele>1755.9</ele><time>2026-03-02T05:27:54.000Z</time></trkpt>
<trkpt lat="42.206751" lon="23.38699"><ele>1756.4</ele><time>2026-03-02T05:27:55.000Z</time></trkpt>
<trkpt lat="42.20674" lon="23.386986"><ele>1756.4</ele><time>2026-03-02T05:27:56.000Z</time></trkpt>
<trkpt lat="42.20673" lon="23.386983"><ele>1756.4</ele><time>2026-03-02T05:27:57.000Z</time></trkpt>
<trkpt lat="42.206718" lon="23.386981"><ele>1756.4</ele><time>2026-03-02T05:27:58.000Z</time></trkpt>
<trkpt lat="42.206705" lon="23.38698"><ele>1756.4</ele><time>2026-03-02T05:27:59.000Z</time></trkpt>
<trkpt lat="42.206691" lon="23.38698"><ele>1757.2</ele><time>2026-03-02T05:28:00.000Z</time></trkpt>
<trkpt lat="42.206678" lon="23.386978"><ele>1757.2</ele><time>2026-03-02T05:28:01.000Z</time></trkpt>
<trkpt lat="42.206664" lon="23.386977"><ele>1757.2</ele><time>2026-03-02T05:28:02.000Z</time></trkpt>
<trkpt lat="42.206651" lon="23.386975"><ele>1757.2</ele><time>2026-03-02T05:28:03.000Z</time></trkpt>
<trkpt lat="42.206638" lon="23.386972"><ele>1757.2</ele><time>2026-03-02T05:28:04.000Z</time></trkpt>
<trkpt lat="42.206627" lon="23.386968"><ele>1757.9</ele><time>2026-03-02T05:28:05.000Z</time></trkpt>
<trkpt lat="42.206616" lon="23.386963"><ele>1757.9</ele><time>2026-03-02T05:28:06.000Z</time></trkpt>
<trkpt lat="42.206606" lon="23.386956"><ele>1757.9</ele><time>2026-03-02T05:28:07.000Z</time></trkpt>
<trkpt lat="42.206596" lon="23.386948"><ele>1757.9</ele><time>2026-03-02T05:28:08.000Z</time></trkpt>
<trkpt lat="42.206586" lon="23.386938"><ele>1757.9</ele><time>2026-03-02T05:28:09.000Z</time></trkpt>
<trkpt lat="42.206578" lon="23.386929"><ele>1758.2</ele><time>2026-03-02T05:28:10.000Z</time></trkpt>
<trkpt lat="42.20657" lon="23.386922"><ele>1758.2</ele><time>2026-03-02T05:28:11.000Z</time></trkpt>
<trkpt lat="42.20656" lon="23.386917"><ele>1758.2</ele><time>2026-03-02T05:28:12.000Z</time></trkpt>
<trkpt lat="42.206552" lon="23.386915"><ele>1758.2</ele><time>2026-03-02T05:28:13.000Z</time></trkpt>
<trkpt lat="42.206543" lon="23.386914"><ele>1758.2</ele><time>2026-03-02T05:28:14.000Z</time></trkpt>
<trkpt lat="42.206533" lon="23.386913"><ele>1758.8</ele><time>2026-03-02T05:28:15.000Z</time></trkpt>
<trkpt lat="42.206524" lon="23.38691"><ele>1758.8</ele><time>2026-03-02T05:28:16.000Z</time></trkpt>
<trkpt lat="42.206516" lon="23.386906"><ele>1758.8</ele><time>2026-03-02T05:28:17.000Z</time></trkpt>
<trkpt lat="42.206508" lon="23.3869"><ele>1758.8</ele><time>2026-03-02T05:28:18.000Z</time></trkpt>
<trkpt lat="42.206501" lon="23.386894"><ele>1758.8</ele><time>2026-03-02T05:28:19.000Z</time></trkpt>
<trkpt lat="42.206495" lon="23.386887"><ele>1759.3</ele><time>2026-03-02T05:28:20.000Z</time></trkpt>
<trkpt lat="42.20649" lon="23.386879"><ele>1759.3</ele><time>2026-03-02T05:28:21.000Z</time></trkpt>
<trkpt lat="42.206484" lon="23.386871"><ele>1759.3</ele><time>2026-03-02T05:28:22.000Z</time></trkpt>
<trkpt lat="42.206479" lon="23.386863"><ele>1759.3</ele><time>2026-03-02T05:28:23.000Z</time></trkpt>
<trkpt lat="42.206472" lon="23.386855"><ele>1759.3</ele><time>2026-03-02T05:28:24.000Z</time></trkpt>
<trkpt lat="42.206465" lon="23.386847"><ele>1759.4</ele><time>2026-03-02T05:28:25.000Z</time></trkpt>
<trkpt lat="42.206457" lon="23.38684"><ele>1759.4</ele><time>2026-03-02T05:28:26.000Z</time></trkpt>
<trkpt lat="42.206449" lon="23.386833"><ele>1759.4</ele><time>2026-03-02T05:28:27.000Z</time></trkpt>
<trkpt lat="42.206441" lon="23.386827"><ele>1759.4</ele><time>2026-03-02T05:28:28.000Z</time></trkpt>
<trkpt lat="42.206432" lon="23.386821"><ele>1759.4</ele><time>2026-03-02T05:28:29.000Z</time></trkpt>
<trkpt lat="42.206424" lon="23.386815"><ele>1759.6</ele><time>2026-03-02T05:28:30.000Z</time></trkpt>
<trkpt lat="42.206415" lon="23.386811"><ele>1759.6</ele><time>2026-03-02T05:28:31.000Z</time></trkpt>
<trkpt lat="42.206405" lon="23.386807"><ele>1759.6</ele><time>2026-03-02T05:28:32.000Z</time></trkpt>
<trkpt lat="42.206395" lon="23.386803"><ele>1759.6</ele><time>2026-03-02T05:28:33.000Z</time></trkpt>
<trkpt lat="42.206385" lon="23.386799"><ele>1759.6</ele><time>2026-03-02T05:28:34.000Z</time></trkpt>
<trkpt lat="42.206376" lon="23.386796"><ele>1759.8</ele><time>2026-03-02T05:28:35.000Z</time></trkpt>
<trkpt lat="42.206367" lon="23.386793"><ele>1759.8</ele><time>2026-03-02T05:28:36.000Z</time></trkpt>
<trkpt lat="42.206358" lon="23.386789"><ele>1759.8</ele><time>2026-03-02T05:28:37.000Z</time></trkpt>
<trkpt lat="42.206349" lon="23.386787"><ele>1759.8</ele><time>2026-03-02T05:28:38.000Z</time></trkpt>
<trkpt lat="42.206339" lon="23.386785"><ele>1759.8</ele><time>2026-03-02T05:28:39.000Z</time></trkpt>
<trkpt lat="42.206329" lon="23.386783"><ele>1759.9</ele><time>2026-03-02T05:28:40.000Z</time></trkpt>
<trkpt lat="42.20632" lon="23.38678"><ele>1759.9</ele><time>2026-03-02T05:28:41.000Z</time></trkpt>
<trkpt lat="42.20631" lon="23.386776"><ele>1759.9</ele><time>2026-03-02T05:28:42.000Z</time></trkpt>
<trkpt lat="42.206301" lon="23.386771"><ele>1759.9</ele><time>2026-03-02T05:28:43.000Z</time></trkpt>
<trkpt lat="42.20629" lon="23.386766"><ele>1759.9</ele><time>2026-03-02T05:28:44.000Z</time></trkpt>
<trkpt lat="42.206279" lon="23.38676"><ele>1760.3</ele><time>2026-03-02T05:28:45.000Z</time></trkpt>
<trkpt lat="42.206267" lon="23.386754"><ele>1760.3</ele><time>2026-03-02T05:28:46.000Z</time></trkpt>
<trkpt lat="42.206255" lon="23.38675"><ele>1760.3</ele><time>2026-03-02T05:28:47.000Z</time></trkpt>
<trkpt lat="42.206243" lon="23.386745"><ele>1760.3</ele><time>2026-03-02T05:28:48.000Z</time></trkpt>
<trkpt lat="42.206232" lon="23.386741"><ele>1760.3</ele><time>2026-03-02T05:28:49.000Z</time></trkpt>
<trkpt lat="42.206222" lon="23.386737"><ele>1760.7</ele><time>2026-03-02T05:28:50.000Z</time></trkpt>
<trkpt lat="42.206212" lon="23.386734"><ele>1760.7</ele><time>2026-03-02T05:28:51.000Z</time></trkpt>
<trkpt lat="42.206203" lon="23.386729"><ele>1760.7</ele><time>2026-03-02T05:28:52.000Z</time></trkpt>
<trkpt lat="42.206194" lon="23.386724"><ele>1760.7</ele><time>2026-03-02T05:28:53.000Z</time></trkpt>
<trkpt lat="42.206185" lon="23.386721"><ele>1760.7</ele><time>2026-03-02T05:28:54.000Z</time></trkpt>
<trkpt lat="42.206175" lon="23.386717"><ele>1760.8</ele><time>2026-03-02T05:28:55.000Z</time></trkpt>
<trkpt lat="42.206164" lon="23.386712"><ele>1760.8</ele><time>2026-03-02T05:28:56.000Z</time></trkpt>
<trkpt lat="42.206153" lon="23.386707"><ele>1760.8</ele><time>2026-03-02T05:28:57.000Z</time></trkpt>
<trkpt lat="42.206142" lon="23.386703"><ele>1760.8</ele><time>2026-03-02T05:28:58.000Z</time></trkpt>
<trkpt lat="42.206131" lon="23.386699"><ele>1760.8</ele><time>2026-03-02T05:28:59.000Z</time></trkpt>
<trkpt lat="42.206119" lon="23.386696"><ele>1761.3</ele><time>2026-03-02T05:29:00.000Z</time></trkpt>
<trkpt lat="42.206108" lon="23.386695"><ele>1761.3</ele><time>2026-03-02T05:29:01.000Z</time></trkpt>
<trkpt lat="42.206095" lon="23.386693"><ele>1761.3</ele><time>2026-03-02T05:29:02.000Z</time></trkpt>
<trkpt lat="42.206082" lon="23.386693"><ele>1761.3</ele><time>2026-03-02T05:29:03.000Z</time></trkpt>
<trkpt lat="42.206069" lon="23.386692"><ele>1761.3</ele><time>2026-03-02T05:29:04.000Z</time></trkpt>
<trkpt lat="42.206054" lon="23.386691"><ele>1761.9</ele><time>2026-03-02T05:29:05.000Z</time></trkpt>
<trkpt lat="42.206039" lon="23.38669"><ele>1761.9</ele><time>2026-03-02T05:29:06.000Z</time></trkpt>
<trkpt lat="42.206025" lon="23.386689"><ele>1761.9</ele><time>2026-03-02T05:29:07.000Z</time></trkpt>
<trkpt lat="42.206011" lon="23.386686"><ele>1761.9</ele><time>2026-03-02T05:29:08.000Z</time></trkpt>
<trkpt lat="42.205998" lon="23.386683"><ele>1761.9</ele><time>2026-03-02T05:29:09.000Z</time></trkpt>
<trkpt lat="42.205985" lon="23.38668"><ele>1762.2</ele><time>2026-03-02T05:29:10.000Z</time></trkpt>
<trkpt lat="42.205971" lon="23.386677"><ele>1762.2</ele><time>2026-03-02T05:29:11.000Z</time></trkpt>
<trkpt lat="42.205956" lon="23.386673"><ele>1762.2</ele><time>2026-03-02T05:29:12.000Z</time></trkpt>
<trkpt lat="42.205942" lon="23.386669"><ele>1762.2</ele><time>2026-03-02T05:29:13.000Z</time></trkpt>
<trkpt lat="42.205929" lon="23.386665"><ele>1762.2</ele><time>2026-03-02T05:29:14.000Z</time></trkpt>
<trkpt lat="42.205919" lon="23.386661"><ele>1762.9</ele><time>2026-03-02T05:29:15.000Z</time></trkpt>
<trkpt lat="42.20591" lon="23.386659"><ele>1762.9</ele><time>2026-03-02T05:29:16.000Z</time></trkpt>
<trkpt lat="42.2059" lon="23.386656"><ele>1762.9</ele><time>2026-03-02T05:29:17.000Z</time></trkpt>
<trkpt lat="42.205889" lon="23.386654"><ele>1762.9</ele><time>2026-03-02T05:29:18.000Z</time></trkpt>
<trkpt lat="42.205877" lon="23.386651"><ele>1762.9</ele><time>2026-03-02T05:29:19.000Z</time></trkpt>
<trkpt lat="42.205865" lon="23.386649"><ele>1763.6</ele><time>2026-03-02T05:29:20.000Z</time></trkpt>
<trkpt lat="42.205852" lon="23.386646"><ele>1763.6</ele><time>2026-03-02T05:29:21.000Z</time></trkpt>
<trkpt lat="42.205841" lon="23.386642"><ele>1763.6</ele><time>2026-03-02T05:29:22.000Z</time></trkpt>
<trkpt lat="42.205831" lon="23.386638"><ele>1763.6</ele><time>2026-03-02T05:29:23.000Z</time></trkpt>
<trkpt lat="42.20582" lon="23.386636"><ele>1763.6</ele><time>2026-03-02T05:29:24.000Z</time></trkpt>
<trkpt lat="42.205809" lon="23.386636"><ele>1763.9</ele><time>2026-03-02T05:29:25.000Z</time></trkpt>
<trkpt lat="42.205798" lon="23.386638"><ele>1763.9</ele><time>2026-03-02T05:29:26.000Z</time></trkpt>
<trkpt lat="42.205786" lon="23.386641"><ele>1763.9</ele><time>2026-03-02T05:29:27.000Z</time></trkpt>
<trkpt lat="42.205772" lon="23.386645"><ele>1763.9</ele><time>2026-03-02T05:29:28.000Z</time></trkpt>
<trkpt lat="42.205759" lon="23.386648"><ele>1763.9</ele><time>2026-03-02T05:29:29.000Z</time></trkpt>
<trkpt lat="42.205747" lon="23.38665"><ele>1764.7</ele><time>2026-03-02T05:29:30.000Z</time></trkpt>
<trkpt lat="42.205736" lon="23.38665"><ele>1764.7</ele><time>2026-03-02T05:29:31.000Z</time></trkpt>
<trkpt lat="42.205726" lon="23.386649"><ele>1764.7</ele><time>2026-03-02T05:29:32.000Z</time></trkpt>
<trkpt lat="42.205717" lon="23.386647"><ele>1764.7</ele><time>2026-03-02T05:29:33.000Z</time></trkpt>
<trkpt lat="42.205708" lon="23.386648"><ele>1764.7</ele><time>2026-03-02T05:29:34.000Z</time></trkpt>
<trkpt lat="42.205699" lon="23.38665"><ele>1765.6</ele><time>2026-03-02T05:29:35.000Z</time></trkpt>
<trkpt lat="42.205688" lon="23.386653"><ele>1765.6</ele><time>2026-03-02T05:29:36.000Z</time></trkpt>
<trkpt lat="42.205675" lon="23.386657"><ele>1765.6</ele><time>2026-03-02T05:29:37.000Z</time></trkpt>
<trkpt lat="42.205663" lon="23.386661"><ele>1765.6</ele><time>2026-03-02T05:29:38.000Z</time></trkpt>
<trkpt lat="42.20565" lon="23.386664"><ele>1765.6</ele><time>2026-03-02T05:29:39.000Z</time></trkpt>
<trkpt lat="42.205637" lon="23.386666"><ele>1766</ele><time>2026-03-02T05:29:40.000Z</time></trkpt>
<trkpt lat="42.205625" lon="23.386668"><ele>1766</ele><time>2026-03-02T05:29:41.000Z</time></trkpt>
<trkpt lat="42.205615" lon="23.386669"><ele>1766</ele><time>2026-03-02T05:29:42.000Z</time></trkpt>
<trkpt lat="42.205603" lon="23.386671"><ele>1766</ele><time>2026-03-02T05:29:43.000Z</time></trkpt>
<trkpt lat="42.205592" lon="23.386672"><ele>1766</ele><time>2026-03-02T05:29:44.000Z</time></trkpt>
<trkpt lat="42.205581" lon="23.386673"><ele>1767.1</ele><time>2026-03-02T05:29:45.000Z</time></trkpt>
<trkpt lat="42.20557" lon="23.386673"><ele>1767.1</ele><time>2026-03-02T05:29:46.000Z</time></trkpt>
<trkpt lat="42.205559" lon="23.386673"><ele>1767.1</ele><time>2026-03-02T05:29:47.000Z</time></trkpt>
<trkpt lat="42.205548" lon="23.386671"><ele>1767.1</ele><time>2026-03-02T05:29:48.000Z</time></trkpt>
<trkpt lat="42.205538" lon="23.386667"><ele>1767.1</ele><time>2026-03-02T05:29:49.000Z</time></trkpt>
<trkpt lat="42.205529" lon="23.386661"><ele>1768.1</ele><time>2026-03-02T05:29:50.000Z</time></trkpt>
<trkpt lat="42.20552" lon="23.386655"><ele>1768.1</ele><time>2026-03-02T05:29:51.000Z</time></trkpt>
<trkpt lat="42.205512" lon="23.386648"><ele>1768.1</ele><time>2026-03-02T05:29:52.000Z</time></trkpt>
<trkpt lat="42.205504" lon="23.38664"><ele>1768.1</ele><time>2026-03-02T05:29:53.000Z</time></trkpt>
<trkpt lat="42.205495" lon="23.386633"><ele>1768.1</ele><time>2026-03-02T05:29:54.000Z</time></trkpt>
<trkpt lat="42.205486" lon="23.386625"><ele>1768.7</ele><time>2026-03-02T05:29:55.000Z</time></trkpt>
<trkpt lat="42.205476" lon="23.386618"><ele>1768.7</ele><time>2026-03-02T05:29:56.000Z</time></trkpt>
<trkpt lat="42.205465" lon="23.386612"><ele>1768.7</ele><time>2026-03-02T05:29:57.000Z</time></trkpt>
<trkpt lat="42.205453" lon="23.386605"><ele>1768.7</ele><time>2026-03-02T05:29:58.000Z</time></trkpt>
<trkpt lat="42.20544" lon="23.386599"><ele>1768.7</ele><time>2026-03-02T05:29:59.000Z</time></trkpt>
<trkpt lat="42.205428" lon="23.386593"><ele>1769.8</ele><time>2026-03-02T05:30:00.000Z</time></trkpt>
<trkpt lat="42.205415" lon="23.386586"><ele>1769.8</ele><time>2026-03-02T05:30:01.000Z</time></trkpt>
<trkpt lat="42.205404" lon="23.386578"><ele>1769.8</ele><time>2026-03-02T05:30:02.000Z</time></trkpt>
<trkpt lat="42.205394" lon="23.38657"><ele>1769.8</ele><time>2026-03-02T05:30:03.000Z</time></trkpt>
<trkpt lat="42.205384" lon="23.386562"><ele>1769.8</ele><time>2026-03-02T05:30:04.000Z</time></trkpt>
<trkpt lat="42.205376" lon="23.386553"><ele>1770.7</ele><time>2026-03-02T05:30:05.000Z</time></trkpt>
<trkpt lat="42.205368" lon="23.386543"><ele>1770.7</ele><time>2026-03-02T05:30:06.000Z</time></trkpt>
<trkpt lat="42.205359" lon="23.386534"><ele>1770.7</ele><time>2026-03-02T05:30:07.000Z</time></trkpt>
<trkpt lat="42.205351" lon="23.386525"><ele>1770.7</ele><time>2026-03-02T05:30:08.000Z</time></trkpt>
<trkpt lat="42.205343" lon="23.386516"><ele>1770.7</ele><time>2026-03-02T05:30:09.000Z</time></trkpt>
<trkpt lat="42.205334" lon="23.386507"><ele>1771.1</ele><time>2026-03-02T05:30:10.000Z</time></trkpt>
<trkpt lat="42.205324" lon="23.3865"><ele>1771.1</ele><time>2026-03-02T05:30:11.000Z</time></trkpt>
<trkpt lat="42.205313" lon="23.386492"><ele>1771.1</ele><time>2026-03-02T05:30:12.000Z</time></trkpt>
<trkpt lat="42.205301" lon="23.386485"><ele>1771.1</ele><time>2026-03-02T05:30:13.000Z</time></trkpt>
<trkpt lat="42.205289" lon="23.386478"><ele>1771.1</ele><time>2026-03-02T05:30:14.000Z</time></trkpt>
<trkpt lat="42.205277" lon="23.386472"><ele>1772.1</ele><time>2026-03-02T05:30:15.000Z</time></trkpt>
<trkpt lat="42.205266" lon="23.386466"><ele>1772.1</ele><time>2026-03-02T05:30:16.000Z</time></trkpt>
<trkpt lat="42.205257" lon="23.386461"><ele>1772.1</ele><time>2026-03-02T05:30:17.000Z</time></trkpt>
<trkpt lat="42.205249" lon="23.386456"><ele>1772.1</ele><time>2026-03-02T05:30:18.000Z</time></trkpt>
<trkpt lat="42.205242" lon="23.386452"><ele>1772.1</ele><time>2026-03-02T05:30:19.000Z</time></trkpt>
<trkpt lat="42.205235" lon="23.386449"><ele>1773.2</ele><time>2026-03-02T05:30:20.000Z</time></trkpt>
<trkpt lat="42.205228" lon="23.386445"><ele>1773.2</ele><time>2026-03-02T05:30:21.000Z</time></trkpt>
<trkpt lat="42.205222" lon="23.386443"><ele>1773.2</ele><time>2026-03-02T05:30:22.000Z</time></trkpt>
<trkpt lat="42.205219" lon="23.38644"><ele>1773.2</ele><time>2026-03-02T05:30:23.000Z</time></trkpt>
<trkpt lat="42.205217" lon="23.386438"><ele>1773.2</ele><time>2026-03-02T05:30:24.000Z</time></trkpt>
<trkpt lat="42.205218" lon="23.386434"><ele>1773.7</ele><time>2026-03-02T05:30:25.000Z</time></trkpt>
<trkpt lat="42.20522" lon="23.386432"><ele>1773.7</ele><time>2026-03-02T05:30:26.000Z</time></trkpt>
<trkpt lat="42.205222" lon="23.38643"><ele>1773.7</ele><time>2026-03-02T05:30:27.000Z</time></trkpt>
<trkpt lat="42.205224" lon="23.386429"><ele>1773.7</ele><time>2026-03-02T05:30:28.000Z</time></trkpt>
<trkpt lat="42.205227" lon="23.386428"><ele>1773.7</ele><time>2026-03-02T05:30:29.000Z</time></trkpt>
<trkpt lat="42.205228" lon="23.386429"><ele>1774.8</ele><time>2026-03-02T05:30:30.000Z</time></trkpt>
<trkpt lat="42.205229" lon="23.38643"><ele>1774.8</ele><time>2026-03-02T05:30:31.000Z</time></trkpt>
<trkpt lat="42.205228" lon="23.386435"><ele>1774.8</ele><time>2026-03-02T05:30:32.000Z</time></trkpt>
<trkpt lat="42.205227" lon="23.386439"><ele>1774.8</ele><time>2026-03-02T05:30:33.000Z</time></trkpt>
<trkpt lat="42.205227" lon="23.386445"><ele>1774.8</ele><time>2026-03-02T05:30:34.000Z</time></trkpt>
<trkpt lat="42.205227" lon="23.38645"><ele>1775.7</ele><time>2026-03-02T05:30:35.000Z</time></trkpt>
<trkpt lat="42.20523" lon="23.386455"><ele>1775.7</ele><time>2026-03-02T05:30:36.000Z</time></trkpt>
<trkpt lat="42.205235" lon="23.386458"><ele>1775.7</ele><time>2026-03-02T05:30:37.000Z</time></trkpt>
<trkpt lat="42.205241" lon="23.386462"><ele>1775.7</ele><time>2026-03-02T05:30:38.000Z</time></trkpt>
<trkpt lat="42.205249" lon="23.386465"><ele>1775.7</ele><time>2026-03-02T05:30:39.000Z</time></trkpt>
<trkpt lat="42.205259" lon="23.386468"><ele>1775.9</ele><time>2026-03-02T05:30:40.000Z</time></trkpt>
<trkpt lat="42.205268" lon="23.38647"><ele>1775.9</ele><time>2026-03-02T05:30:41.000Z</time></trkpt>
<trkpt lat="42.205279" lon="23.38647"><ele>1775.9</ele><time>2026-03-02T05:30:42.000Z</time></trkpt>
<trkpt lat="42.205289" lon="23.386468"><ele>1775.9</ele><time>2026-03-02T05:30:43.000Z</time></trkpt>
<trkpt lat="42.205296" lon="23.386465"><ele>1775.9</ele><time>2026-03-02T05:30:44.000Z</time></trkpt>
<trkpt lat="42.205302" lon="23.386462"><ele>1775.7</ele><time>2026-03-02T05:30:45.000Z</time></trkpt>
<trkpt lat="42.205305" lon="23.386458"><ele>1775.7</ele><time>2026-03-02T05:30:46.000Z</time></trkpt>
<trkpt lat="42.205308" lon="23.386454"><ele>1775.7</ele><time>2026-03-02T05:30:47.000Z</time></trkpt>
<trkpt lat="42.205309" lon="23.386451"><ele>1775.7</ele><time>2026-03-02T05:30:48.000Z</time></trkpt>
<trkpt lat="42.20531" lon="23.386447"><ele>1775.7</ele><time>2026-03-02T05:30:49.000Z</time></trkpt>
<trkpt lat="42.20531" lon="23.386446"><ele>1775.1</ele><time>2026-03-02T05:30:50.000Z</time></trkpt>
<trkpt lat="42.205311" lon="23.386444"><ele>1775.1</ele><time>2026-03-02T05:30:51.000Z</time></trkpt>
<trkpt lat="42.205313" lon="23.386441"><ele>1775.1</ele><time>2026-03-02T05:30:52.000Z</time></trkpt>
<trkpt lat="42.205315" lon="23.386438"><ele>1775.1</ele><time>2026-03-02T05:30:53.000Z</time></trkpt>
<trkpt lat="42.205316" lon="23.386436"><ele>1775.1</ele><time>2026-03-02T05:30:54.000Z</time></trkpt>
<trkpt lat="42.205317" lon="23.386433"><ele>1774.8</ele><time>2026-03-02T05:30:55.000Z</time></trkpt>
<trkpt lat="42.205318" lon="23.386431"><ele>1774.8</ele><time>2026-03-02T05:30:56.000Z</time></trkpt>
<trkpt lat="42.205317" lon="23.386431"><ele>1774.8</ele><time>2026-03-02T05:30:57.000Z</time></trkpt>
<trkpt lat="42.205317" lon="23.38643"><ele>1774.8</ele><time>2026-03-02T05:30:58.000Z</time></trkpt>
<trkpt lat="42.205317" lon="23.38643"><ele>1774.8</ele><time>2026-03-02T05:30:59.000Z</time></trkpt>
<trkpt lat="42.205317" lon="23.38643"><ele>1774.4</ele><time>2026-03-02T05:31:00.000Z</time></trkpt>
<trkpt lat="42.205317" lon="23.386429"><ele>1774.4</ele><time>2026-03-02T05:31:01.000Z</time></trkpt>
<trkpt lat="42.205317" lon="23.386429"><ele>1774.4</ele><time>2026-03-02T05:31:02.000Z</time></trkpt>
<trkpt lat="42.205316" lon="23.386428"><ele>1774.4</ele><time>2026-03-02T05:31:03.000Z</time></trkpt>
<trkpt lat="42.205315" lon="23.386427"><ele>1774.4</ele><time>2026-03-02T05:31:04.000Z</time></trkpt>
<trkpt lat="42.205314" lon="23.386426"><ele>1774.1</ele><time>2026-03-02T05:31:05.000Z</time></trkpt>
<trkpt lat="42.205313" lon="23.386426"><ele>1774.1</ele><time>2026-03-02T05:31:06.000Z</time></trkpt>
<trkpt lat="42.205313" lon="23.386425"><ele>1774.1</ele><time>2026-03-02T05:31:07.000Z</time></trkpt>
<trkpt lat="42.205313" lon="23.386425"><ele>1774.1</ele><time>2026-03-02T05:31:08.000Z</time></trkpt>
<trkpt lat="42.205313" lon="23.386425"><ele>1774.1</ele><time>2026-03-02T05:31:09.000Z</time></trkpt>
<trkpt lat="42.205313" lon="23.386425"><ele>1774</ele><time>2026-03-02T05:31:10.000Z</time></trkpt>
<trkpt lat="42.205313" lon="23.386425"><ele>1774</ele><time>2026-03-02T05:31:11.000Z</time></trkpt>
<trkpt lat="42.205313" lon="23.386425"><ele>1774</ele><time>2026-03-02T05:31:12.000Z</time></trkpt>
<trkpt lat="42.205313" lon="23.386425"><ele>1774</ele><time>2026-03-02T05:31:13.000Z</time></trkpt>
<trkpt lat="42.205313" lon="23.386425"><ele>1774</ele><time>2026-03-02T05:31:14.000Z</time></trkpt>
<trkpt lat="42.205313" lon="23.386426"><ele>1773.8</ele><time>2026-03-02T05:31:15.000Z</time></trkpt>
<trkpt lat="42.205314" lon="23.386426"><ele>1773.8</ele><time>2026-03-02T05:31:16.000Z</time></trkpt>
<trkpt lat="42.205314" lon="23.386427"><ele>1773.8</ele><time>2026-03-02T05:31:17.000Z</time></trkpt>
<trkpt lat="42.205314" lon="23.386427"><ele>1773.8</ele><time>2026-03-02T05:31:18.000Z</time></trkpt>
<trkpt lat="42.205315" lon="23.386428"><ele>1773.8</ele><time>2026-03-02T05:31:19.000Z</time></trkpt>
<trkpt lat="42.205315" lon="23.386428"><ele>1773.7</ele><time>2026-03-02T05:31:20.000Z</time></trkpt>
<trkpt lat="42.205315" lon="23.386428"><ele>1773.7</ele><time>2026-03-02T05:31:21.000Z</time></trkpt>
<trkpt lat="42.205315" lon="23.386428"><ele>1773.7</ele><time>2026-03-02T05:31:22.000Z</time></trkpt>
<trkpt lat="42.205315" lon="23.386428"><ele>1773.7</ele><time>2026-03-02T05:31:23.000Z</time></trkpt>
<trkpt lat="42.205315" lon="23.386428"><ele>1773.7</ele><time>2026-03-02T05:31:24.000Z</time></trkpt>
<trkpt lat="42.205315" lon="23.386428"><ele>1773.7</ele><time>2026-03-02T05:31:25.000Z</time></trkpt>
<trkpt lat="42.205315" lon="23.386428"><ele>1773.7</ele><time>2026-03-02T05:31:26.000Z</time></trkpt>
<trkpt lat="42.205315" lon="23.386428"><ele>1773.7</ele><time>2026-03-02T05:31:27.000Z</time></trkpt>
<trkpt lat="42.205315" lon="23.386428"><ele>1773.7</ele><time>2026-03-02T05:31:28.000Z</time></trkpt>
<trkpt lat="42.205315" lon="23.386428"><ele>1773.7</ele><time>2026-03-02T05:31:29.000Z</time></trkpt>
<trkpt lat="42.205315" lon="23.386428"><ele>1773.7</ele><time>2026-03-02T05:31:30.000Z</time></trkpt>
<trkpt lat="42.205315" lon="23.386428"><ele>1773.7</ele><time>2026-03-02T05:31:31.000Z</time></trkpt>
<trkpt lat="42.205315" lon="23.386428"><ele>1773.7</ele><time>2026-03-02T05:31:32.000Z</time></trkpt>
<trkpt lat="42.205315" lon="23.386428"><ele>1773.7</ele><time>2026-03-02T05:31:33.000Z</time></trkpt>
<trkpt lat="42.205316" lon="23.386428"><ele>1773.7</ele><time>2026-03-02T05:31:34.000Z</time></trkpt>
<trkpt lat="42.205316" lon="23.386428"><ele>1773.6</ele><time>2026-03-02T05:31:35.000Z</time></trkpt>
<trkpt lat="42.205316" lon="23.386428"><ele>1773.6</ele><time>2026-03-02T05:31:36.000Z</time></trkpt>
<trkpt lat="42.205314" lon="23.386428"><ele>1773.6</ele><time>2026-03-02T05:31:37.000Z</time></trkpt>
<trkpt lat="42.205313" lon="23.386427"><ele>1773.6</ele><time>2026-03-02T05:31:38.000Z</time></trkpt>
<trkpt lat="42.205311" lon="23.386426"><ele>1773.6</ele><time>2026-03-02T05:31:39.000Z</time></trkpt>
<trkpt lat="42.205309" lon="23.386424"><ele>1773.6</ele><time>2026-03-02T05:31:40.000Z</time></trkpt>
<trkpt lat="42.205306" lon="23.386421"><ele>1773.6</ele><time>2026-03-02T05:31:41.000Z</time></trkpt>
<trkpt lat="42.205304" lon="23.386419"><ele>1773.6</ele><time>2026-03-02T05:31:42.000Z</time></trkpt>
<trkpt lat="42.205303" lon="23.386418"><ele>1773.6</ele><time>2026-03-02T05:31:43.000Z</time></trkpt>
<trkpt lat="42.205301" lon="23.386417"><ele>1773.6</ele><time>2026-03-02T05:31:44.000Z</time></trkpt>
<trkpt lat="42.205301" lon="23.386416"><ele>1773.5</ele><time>2026-03-02T05:31:45.000Z</time></trkpt>
<trkpt lat="42.2053" lon="23.386415"><ele>1773.5</ele><time>2026-03-02T05:31:46.000Z</time></trkpt>
<trkpt lat="42.2053" lon="23.386415"><ele>1773.5</ele><time>2026-03-02T05:31:47.000Z</time></trkpt>
<trkpt lat="42.2053" lon="23.386414"><ele>1773.5</ele><time>2026-03-02T05:31:48.000Z</time></trkpt>
<trkpt lat="42.205299" lon="23.386415"><ele>1773.5</ele><time>2026-03-02T05:31:49.000Z</time></trkpt>
<trkpt lat="42.205298" lon="23.386416"><ele>1773.6</ele><time>2026-03-02T05:31:50.000Z</time></trkpt>
<trkpt lat="42.205295" lon="23.386416"><ele>1773.6</ele><time>2026-03-02T05:31:51.000Z</time></trkpt>
<trkpt lat="42.205292" lon="23.386418"><ele>1773.6</ele><time>2026-03-02T05:31:52.000Z</time></trkpt>
<trkpt lat="42.205287" lon="23.38642"><ele>1773.6</ele><time>2026-03-02T05:31:53.000Z</time></trkpt>
<trkpt lat="42.205283" lon="23.386423"><ele>1773.6</ele><time>2026-03-02T05:31:54.000Z</time></trkpt>
<trkpt lat="42.205278" lon="23.386426"><ele>1773.6</ele><time>2026-03-02T05:31:55.000Z</time></trkpt>
<trkpt lat="42.205274" lon="23.386432"><ele>1773.6</ele><time>2026-03-02T05:31:56.000Z</time></trkpt>
<trkpt lat="42.205269" lon="23.386437"><ele>1773.6</ele><time>2026-03-02T05:31:57.000Z</time></trkpt>
<trkpt lat="42.205264" lon="23.386442"><ele>1773.6</ele><time>2026-03-02T05:31:58.000Z</time></trkpt>
<trkpt lat="42.20526" lon="23.386447"><ele>1773.6</ele><time>2026-03-02T05:31:59.000Z</time></trkpt>
<trkpt lat="42.205257" lon="23.386449"><ele>1773.8</ele><time>2026-03-02T05:32:00.000Z</time></trkpt>
<trkpt lat="42.205254" lon="23.386452"><ele>1773.8</ele><time>2026-03-02T05:32:01.000Z</time></trkpt>
<trkpt lat="42.205252" lon="23.386453"><ele>1773.8</ele><time>2026-03-02T05:32:02.000Z</time></trkpt>
<trkpt lat="42.205248" lon="23.386456"><ele>1773.8</ele><time>2026-03-02T05:32:03.000Z</time></trkpt>
<trkpt lat="42.205243" lon="23.386458"><ele>1773.8</ele><time>2026-03-02T05:32:04.000Z</time></trkpt>
<trkpt lat="42.205237" lon="23.386461"><ele>1774</ele><time>2026-03-02T05:32:05.000Z</time></trkpt>
<trkpt lat="42.205231" lon="23.386462"><ele>1774</ele><time>2026-03-02T05:32:06.000Z</time></trkpt>
<trkpt lat="42.205225" lon="23.386463"><ele>1774</ele><time>2026-03-02T05:32:07.000Z</time></trkpt>
<trkpt lat="42.205221" lon="23.386462"><ele>1774</ele><time>2026-03-02T05:32:08.000Z</time></trkpt>
<trkpt lat="42.205218" lon="23.386462"><ele>1774</ele><time>2026-03-02T05:32:09.000Z</time></trkpt>
<trkpt lat="42.205216" lon="23.386462"><ele>1774.1</ele><time>2026-03-02T05:32:10.000Z</time></trkpt>
<trkpt lat="42.205213" lon="23.386463"><ele>1774.1</ele><time>2026-03-02T05:32:11.000Z</time></trkpt>
<trkpt lat="42.205212" lon="23.386461"><ele>1774.1</ele><time>2026-03-02T05:32:12.000Z</time></trkpt>
<trkpt lat="42.205211" lon="23.38646"><ele>1774.1</ele><time>2026-03-02T05:32:13.000Z</time></trkpt>
<trkpt lat="42.205208" lon="23.386456"><ele>1774.1</ele><time>2026-03-02T05:32:14.000Z</time></trkpt>
<trkpt lat="42.205205" lon="23.38645"><ele>1774.4</ele><time>2026-03-02T05:32:15.000Z</time></trkpt>
<trkpt lat="42.205201" lon="23.386444"><ele>1774.4</ele><time>2026-03-02T05:32:16.000Z</time></trkpt>
<trkpt lat="42.205194" lon="23.386439"><ele>1774.4</ele><time>2026-03-02T05:32:17.000Z</time></trkpt>
<trkpt lat="42.205187" lon="23.386436"><ele>1774.4</ele><time>2026-03-02T05:32:18.000Z</time></trkpt>
<trkpt lat="42.20518" lon="23.386433"><ele>1774.4</ele><time>2026-03-02T05:32:19.000Z</time></trkpt>
<trkpt lat="42.205173" lon="23.386432"><ele>1774.6</ele><time>2026-03-02T05:32:20.000Z</time></trkpt>
<trkpt lat="42.205167" lon="23.38643"><ele>1774.6</ele><time>2026-03-02T05:32:21.000Z</time></trkpt>
<trkpt lat="42.205164" lon="23.386429"><ele>1774.6</ele><time>2026-03-02T05:32:22.000Z</time></trkpt>
<trkpt lat="42.205162" lon="23.386428"><ele>1774.6</ele><time>2026-03-02T05:32:23.000Z</time></trkpt>
<trkpt lat="42.205159" lon="23.386427"><ele>1774.6</ele><time>2026-03-02T05:32:24.000Z</time></trkpt>
<trkpt lat="42.205157" lon="23.386427"><ele>1774.6</ele><time>2026-03-02T05:32:25.000Z</time></trkpt>
<trkpt lat="42.205153" lon="23.386428"><ele>1774.6</ele><time>2026-03-02T05:32:26.000Z</time></trkpt>
<trkpt lat="42.205149" lon="23.386429"><ele>1774.6</ele><time>2026-03-02T05:32:27.000Z</time></trkpt>
<trkpt lat="42.205144" lon="23.386428"><ele>1774.6</ele><time>2026-03-02T05:32:28.000Z</time></trkpt>
<trkpt lat="42.20514" lon="23.386427"><ele>1774.6</ele><time>2026-03-02T05:32:29.000Z</time></trkpt>
<trkpt lat="42.205135" lon="23.386427"><ele>1775</ele><time>2026-03-02T05:32:30.000Z</time></trkpt>
<trkpt lat="42.205132" lon="23.386427"><ele>1775</ele><time>2026-03-02T05:32:31.000Z</time></trkpt>
<trkpt lat="42.205129" lon="23.386426"><ele>1775</ele><time>2026-03-02T05:32:32.000Z</time></trkpt>
<trkpt lat="42.205125" lon="23.386428"><ele>1775</ele><time>2026-03-02T05:32:33.000Z</time></trkpt>
<trkpt lat="42.205122" lon="23.38643"><ele>1775</ele><time>2026-03-02T05:32:34.000Z</time></trkpt>
<trkpt lat="42.20512" lon="23.386432"><ele>1775.8</ele><time>2026-03-02T05:32:35.000Z</time></trkpt>
<trkpt lat="42.205119" lon="23.386434"><ele>1775.8</ele><time>2026-03-02T05:32:36.000Z</time></trkpt>
<trkpt lat="42.205119" lon="23.386435"><ele>1775.8</ele><time>2026-03-02T05:32:37.000Z</time></trkpt>
<trkpt lat="42.205121" lon="23.386436"><ele>1775.8</ele><time>2026-03-02T05:32:38.000Z</time></trkpt>
<trkpt lat="42.205122" lon="23.386437"><ele>1775.8</ele><time>2026-03-02T05:32:39.000Z</time></trkpt>
<trkpt lat="42.205123" lon="23.386438"><ele>1776.3</ele><time>2026-03-02T05:32:40.000Z</time></trkpt>
<trkpt lat="42.205123" lon="23.386438"><ele>1776.3</ele><time>2026-03-02T05:32:41.000Z</time></trkpt>
<trkpt lat="42.205122" lon="23.386438"><ele>1776.3</ele><time>2026-03-02T05:32:42.000Z</time></trkpt>
<trkpt lat="42.205121" lon="23.386439"><ele>1776.3</ele><time>2026-03-02T05:32:43.000Z</time></trkpt>
<trkpt lat="42.205119" lon="23.38644"><ele>1776.3</ele><time>2026-03-02T05:32:44.000Z</time></trkpt>
<trkpt lat="42.205118" lon="23.386441"><ele>1777.1</ele><time>2026-03-02T05:32:45.000Z</time></trkpt>
<trkpt lat="42.205118" lon="23.386443"><ele>1777.1</ele><time>2026-03-02T05:32:46.000Z</time></trkpt>
<trkpt lat="42.205119" lon="23.386446"><ele>1777.1</ele><time>2026-03-02T05:32:47.000Z</time></trkpt>
<trkpt lat="42.20512" lon="23.386448"><ele>1777.1</ele><time>2026-03-02T05:32:48.000Z</time></trkpt>
<trkpt lat="42.205122" lon="23.386449"><ele>1777.1</ele><time>2026-03-02T05:32:49.000Z</time></trkpt>
<trkpt lat="42.205124" lon="23.386449"><ele>1777.6</ele><time>2026-03-02T05:32:50.000Z</time></trkpt>
<trkpt lat="42.205125" lon="23.386449"><ele>1777.6</ele><time>2026-03-02T05:32:51.000Z</time></trkpt>
<trkpt lat="42.205126" lon="23.386447"><ele>1777.6</ele><time>2026-03-02T05:32:52.000Z</time></trkpt>
<trkpt lat="42.205126" lon="23.386446"><ele>1777.6</ele><time>2026-03-02T05:32:53.000Z</time></trkpt>
<trkpt lat="42.205125" lon="23.386445"><ele>1777.6</ele><time>2026-03-02T05:32:54.000Z</time></trkpt>
<trkpt lat="42.205125" lon="23.386446"><ele>1777.8</ele><time>2026-03-02T05:32:55.000Z</time></trkpt>
<trkpt lat="42.205125" lon="23.386446"><ele>1777.8</ele><time>2026-03-02T05:32:56.000Z</time></trkpt>
<trkpt lat="42.205125" lon="23.386446"><ele>1777.8</ele><time>2026-03-02T05:32:57.000Z</time></trkpt>
<trkpt lat="42.205125" lon="23.386446"><ele>1777.8</ele><time>2026-03-02T05:32:58.000Z</time></trkpt>
<trkpt lat="42.205125" lon="23.386446"><ele>1777.8</ele><time>2026-03-02T05:32:59.000Z</time></trkpt>
<trkpt lat="42.205124" lon="23.386446"><ele>1777.8</ele><time>2026-03-02T05:33:00.000Z</time></trkpt>
<trkpt lat="42.205124" lon="23.386446"><ele>1777.8</ele><time>2026-03-02T05:33:01.000Z</time></trkpt>
<trkpt lat="42.205124" lon="23.386445"><ele>1777.8</ele><time>2026-03-02T05:33:02.000Z</time></trkpt>
<trkpt lat="42.205126" lon="23.386444"><ele>1777.8</ele><time>2026-03-02T05:33:03.000Z</time></trkpt>
<trkpt lat="42.205129" lon="23.386444"><ele>1777.8</ele><time>2026-03-02T05:33:04.000Z</time></trkpt>
<trkpt lat="42.205135" lon="23.386443"><ele>1777.8</ele><time>2026-03-02T05:33:05.000Z</time></trkpt>
<trkpt lat="42.205141" lon="23.386445"><ele>1777.8</ele><time>2026-03-02T05:33:06.000Z</time></trkpt>
<trkpt lat="42.205148" lon="23.386447"><ele>1777.8</ele><time>2026-03-02T05:33:07.000Z</time></trkpt>
<trkpt lat="42.205155" lon="23.386449"><ele>1777.8</ele><time>2026-03-02T05:33:08.000Z</time></trkpt>
<trkpt lat="42.205162" lon="23.386451"><ele>1777.8</ele><time>2026-03-02T05:33:09.000Z</time></trkpt>
<trkpt lat="42.20517" lon="23.386455"><ele>1777.8</ele><time>2026-03-02T05:33:10.000Z</time></trkpt>
<trkpt lat="42.205179" lon="23.386459"><ele>1777.8</ele><time>2026-03-02T05:33:11.000Z</time></trkpt>
<trkpt lat="42.205187" lon="23.386465"><ele>1777.8</ele><time>2026-03-02T05:33:12.000Z</time></trkpt>
<trkpt lat="42.205192" lon="23.386471"><ele>1777.8</ele><time>2026-03-02T05:33:13.000Z</time></trkpt>
<trkpt lat="42.205194" lon="23.386475"><ele>1777.8</ele><time>2026-03-02T05:33:14.000Z</time></trkpt>
<trkpt lat="42.205196" lon="23.386475"><ele>1777.6</ele><time>2026-03-02T05:33:15.000Z</time></trkpt>
<trkpt lat="42.205197" lon="23.386474"><ele>1777.6</ele><time>2026-03-02T05:33:16.000Z</time></trkpt>
<trkpt lat="42.205198" lon="23.386471"><ele>1777.6</ele><time>2026-03-02T05:33:17.000Z</time></trkpt>
<trkpt lat="42.205201" lon="23.386467"><ele>1777.6</ele><time>2026-03-02T05:33:18.000Z</time></trkpt>
<trkpt lat="42.205204" lon="23.386464"><ele>1777.6</ele><time>2026-03-02T05:33:19.000Z</time></trkpt>
<trkpt lat="42.205206" lon="23.386463"><ele>1777</ele><time>2026-03-02T05:33:20.000Z</time></trkpt>
<trkpt lat="42.205207" lon="23.386462"><ele>1777</ele><time>2026-03-02T05:33:21.000Z</time></trkpt>
<trkpt lat="42.205207" lon="23.386461"><ele>1777</ele><time>2026-03-02T05:33:22.000Z</time></trkpt>
<trkpt lat="42.205205" lon="23.38646"><ele>1777</ele><time>2026-03-02T05:33:23.000Z</time></trkpt>
<trkpt lat="42.205202" lon="23.386459"><ele>1777</ele><time>2026-03-02T05:33:24.000Z</time></trkpt>
<trkpt lat="42.205197" lon="23.386458"><ele>1776.6</ele><time>2026-03-02T05:33:25.000Z</time></trkpt>
<trkpt lat="42.205191" lon="23.386457"><ele>1776.6</ele><time>2026-03-02T05:33:26.000Z</time></trkpt>
<trkpt lat="42.205182" lon="23.386456"><ele>1776.6</ele><time>2026-03-02T05:33:27.000Z</time></trkpt>
<trkpt lat="42.205173" lon="23.386456"><ele>1776.6</ele><time>2026-03-02T05:33:28.000Z</time></trkpt>
<trkpt lat="42.205163" lon="23.386457"><ele>1776.6</ele><time>2026-03-02T05:33:29.000Z</time></trkpt>
<trkpt lat="42.205152" lon="23.386457"><ele>1775.8</ele><time>2026-03-02T05:33:30.000Z</time></trkpt>
<trkpt lat="42.20514" lon="23.386456"><ele>1775.8</ele><time>2026-03-02T05:33:31.000Z</time></trkpt>
<trkpt lat="42.205128" lon="23.386455"><ele>1775.8</ele><time>2026-03-02T05:33:32.000Z</time></trkpt>
<trkpt lat="42.205117" lon="23.386453"><ele>1775.8</ele><time>2026-03-02T05:33:33.000Z</time></trkpt>
<trkpt lat="42.205105" lon="23.386451"><ele>1775.8</ele><time>2026-03-02T05:33:34.000Z</time></trkpt>
<trkpt lat="42.205092" lon="23.386449"><ele>1775.6</ele><time>2026-03-02T05:33:35.000Z</time></trkpt>
<trkpt lat="42.20508" lon="23.386447"><ele>1775.6</ele><time>2026-03-02T05:33:36.000Z</time></trkpt>
<trkpt lat="42.20507" lon="23.386445"><ele>1775.6</ele><time>2026-03-02T05:33:37.000Z</time></trkpt>
<trkpt lat="42.205061" lon="23.386445"><ele>1775.6</ele><time>2026-03-02T05:33:38.000Z</time></trkpt>
<trkpt lat="42.205057" lon="23.386448"><ele>1775.6</ele><time>2026-03-02T05:33:39.000Z</time></trkpt>
<trkpt lat="42.205058" lon="23.386452"><ele>1775.8</ele><time>2026-03-02T05:33:40.000Z</time></trkpt>
<trkpt lat="42.205061" lon="23.386459"><ele>1775.8</ele><time>2026-03-02T05:33:41.000Z</time></trkpt>
<trkpt lat="42.205063" lon="23.386466"><ele>1775.8</ele><time>2026-03-02T05:33:42.000Z</time></trkpt>
<trkpt lat="42.205064" lon="23.38647"><ele>1775.8</ele><time>2026-03-02T05:33:43.000Z</time></trkpt>
<trkpt lat="42.205064" lon="23.386468"><ele>1775.8</ele><time>2026-03-02T05:33:44.000Z</time></trkpt>
<trkpt lat="42.20506" lon="23.386463"><ele>1776.6</ele><time>2026-03-02T05:33:45.000Z</time></trkpt>
<trkpt lat="42.205054" lon="23.386456"><ele>1776.6</ele><time>2026-03-02T05:33:46.000Z</time></trkpt>
<trkpt lat="42.205047" lon="23.386448"><ele>1776.6</ele><time>2026-03-02T05:33:47.000Z</time></trkpt>
<trkpt lat="42.20504" lon="23.386441"><ele>1776.6</ele><time>2026-03-02T05:33:48.000Z</time></trkpt>
<trkpt lat="42.205032" lon="23.386435"><ele>1776.6</ele><time>2026-03-02T05:33:49.000Z</time></trkpt>
<trkpt lat="42.205025" lon="23.386429"><ele>1777.5</ele><time>2026-03-02T05:33:50.000Z</time></trkpt>
<trkpt lat="42.205018" lon="23.386423"><ele>1777.5</ele><time>2026-03-02T05:33:51.000Z</time></trkpt>
<trkpt lat="42.205012" lon="23.386418"><ele>1777.5</ele><time>2026-03-02T05:33:52.000Z</time></trkpt>
<trkpt lat="42.205006" lon="23.386413"><ele>1777.5</ele><time>2026-03-02T05:33:53.000Z</time></trkpt>
<trkpt lat="42.205001" lon="23.386409"><ele>1777.5</ele><time>2026-03-02T05:33:54.000Z</time></trkpt>
<trkpt lat="42.204998" lon="23.386405"><ele>1777.9</ele><time>2026-03-02T05:33:55.000Z</time></trkpt>
<trkpt lat="42.204995" lon="23.386403"><ele>1777.9</ele><time>2026-03-02T05:33:56.000Z</time></trkpt>
<trkpt lat="42.204995" lon="23.386402"><ele>1777.9</ele><time>2026-03-02T05:33:57.000Z</time></trkpt>
<trkpt lat="42.204995" lon="23.386402"><ele>1777.9</ele><time>2026-03-02T05:33:58.000Z</time></trkpt>
<trkpt lat="42.204995" lon="23.386403"><ele>1777.9</ele><time>2026-03-02T05:33:59.000Z</time></trkpt>
<trkpt lat="42.204995" lon="23.386405"><ele>1778.4</ele><time>2026-03-02T05:34:00.000Z</time></trkpt>
<trkpt lat="42.204995" lon="23.386406"><ele>1778.4</ele><time>2026-03-02T05:34:01.000Z</time></trkpt>
<trkpt lat="42.204995" lon="23.386406"><ele>1778.4</ele><time>2026-03-02T05:34:02.000Z</time></trkpt>
<trkpt lat="42.204993" lon="23.386405"><ele>1778.4</ele><time>2026-03-02T05:34:03.000Z</time></trkpt>
<trkpt lat="42.204989" lon="23.386404"><ele>1778.4</ele><time>2026-03-02T05:34:04.000Z</time></trkpt>
<trkpt lat="42.204984" lon="23.386404"><ele>1778.9</ele><time>2026-03-02T05:34:05.000Z</time></trkpt>
<trkpt lat="42.204977" lon="23.386402"><ele>1778.9</ele><time>2026-03-02T05:34:06.000Z</time></trkpt>
<trkpt lat="42.204967" lon="23.3864"><ele>1778.9</ele><time>2026-03-02T05:34:07.000Z</time></trkpt>
<trkpt lat="42.204958" lon="23.386397"><ele>1778.9</ele><time>2026-03-02T05:34:08.000Z</time></trkpt>
<trkpt lat="42.20495" lon="23.386393"><ele>1778.9</ele><time>2026-03-02T05:34:09.000Z</time></trkpt>
<trkpt lat="42.204941" lon="23.386388"><ele>1779.1</ele><time>2026-03-02T05:34:10.000Z</time></trkpt>
<trkpt lat="42.204932" lon="23.386384"><ele>1779.1</ele><time>2026-03-02T05:34:11.000Z</time></trkpt>
<trkpt lat="42.204924" lon="23.38638"><ele>1779.1</ele><time>2026-03-02T05:34:12.000Z</time></trkpt>
<trkpt lat="42.204915" lon="23.386376"><ele>1779.1</ele><time>2026-03-02T05:34:13.000Z</time></trkpt>
<trkpt lat="42.204905" lon="23.386371"><ele>1779.1</ele><time>2026-03-02T05:34:14.000Z</time></trkpt>
<trkpt lat="42.204895" lon="23.386366"><ele>1779.6</ele><time>2026-03-02T05:34:15.000Z</time></trkpt>
<trkpt lat="42.204886" lon="23.38636"><ele>1779.6</ele><time>2026-03-02T05:34:16.000Z</time></trkpt>
<trkpt lat="42.20488" lon="23.386354"><ele>1779.6</ele><time>2026-03-02T05:34:17.000Z</time></trkpt>
<trkpt lat="42.204873" lon="23.386348"><ele>1779.6</ele><time>2026-03-02T05:34:18.000Z</time></trkpt>
<trkpt lat="42.204867" lon="23.386341"><ele>1779.6</ele><time>2026-03-02T05:34:19.000Z</time></trkpt>
<trkpt lat="42.204863" lon="23.386333"><ele>1779.9</ele><time>2026-03-02T05:34:20.000Z</time></trkpt>
<trkpt lat="42.204858" lon="23.386326"><ele>1779.9</ele><time>2026-03-02T05:34:21.000Z</time></trkpt>
<trkpt lat="42.204853" lon="23.386318"><ele>1779.9</ele><time>2026-03-02T05:34:22.000Z</time></trkpt>
<trkpt lat="42.204848" lon="23.386311"><ele>1779.9</ele><time>2026-03-02T05:34:23.000Z</time></trkpt>
<trkpt lat="42.204844" lon="23.386305"><ele>1779.9</ele><time>2026-03-02T05:34:24.000Z</time></trkpt>
<trkpt lat="42.20484" lon="23.3863"><ele>1780.3</ele><time>2026-03-02T05:34:25.000Z</time></trkpt>
<trkpt lat="42.204836" lon="23.386296"><ele>1780.3</ele><time>2026-03-02T05:34:26.000Z</time></trkpt>
<trkpt lat="42.204832" lon="23.386292"><ele>1780.3</ele><time>2026-03-02T05:34:27.000Z</time></trkpt>
<trkpt lat="42.204828" lon="23.386289"><ele>1780.3</ele><time>2026-03-02T05:34:28.000Z</time></trkpt>
<trkpt lat="42.204824" lon="23.386287"><ele>1780.3</ele><time>2026-03-02T05:34:29.000Z</time></trkpt>
<trkpt lat="42.204818" lon="23.386285"><ele>1781.2</ele><time>2026-03-02T05:34:30.000Z</time></trkpt>
<trkpt lat="42.204813" lon="23.386284"><ele>1781.2</ele><time>2026-03-02T05:34:31.000Z</time></trkpt>
<trkpt lat="42.204807" lon="23.386283"><ele>1781.2</ele><time>2026-03-02T05:34:32.000Z</time></trkpt>
<trkpt lat="42.204799" lon="23.386281"><ele>1781.2</ele><time>2026-03-02T05:34:33.000Z</time></trkpt>
<trkpt lat="42.204791" lon="23.386278"><ele>1781.2</ele><time>2026-03-02T05:34:34.000Z</time></trkpt>
<trkpt lat="42.204784" lon="23.386275"><ele>1782.3</ele><time>2026-03-02T05:34:35.000Z</time></trkpt>
<trkpt lat="42.204776" lon="23.386272"><ele>1782.3</ele><time>2026-03-02T05:34:36.000Z</time></trkpt>
<trkpt lat="42.204768" lon="23.386269"><ele>1782.3</ele><time>2026-03-02T05:34:37.000Z</time></trkpt>
<trkpt lat="42.20476" lon="23.386267"><ele>1782.3</ele><time>2026-03-02T05:34:38.000Z</time></trkpt>
<trkpt lat="42.204748" lon="23.386267"><ele>1782.3</ele><time>2026-03-02T05:34:39.000Z</time></trkpt>
<trkpt lat="42.204735" lon="23.386268"><ele>1782.8</ele><time>2026-03-02T05:34:40.000Z</time></trkpt>
<trkpt lat="42.204721" lon="23.386268"><ele>1782.8</ele><time>2026-03-02T05:34:41.000Z</time></trkpt>
<trkpt lat="42.204706" lon="23.386267"><ele>1782.8</ele><time>2026-03-02T05:34:42.000Z</time></trkpt>
<trkpt lat="42.204692" lon="23.386264"><ele>1782.8</ele><time>2026-03-02T05:34:43.000Z</time></trkpt>
<trkpt lat="42.204679" lon="23.386257"><ele>1782.8</ele><time>2026-03-02T05:34:44.000Z</time></trkpt>
<trkpt lat="42.204667" lon="23.386246"><ele>1783.8</ele><time>2026-03-02T05:34:45.000Z</time></trkpt>
<trkpt lat="42.204657" lon="23.386234"><ele>1783.8</ele><time>2026-03-02T05:34:46.000Z</time></trkpt>
<trkpt lat="42.204645" lon="23.38622"><ele>1783.8</ele><time>2026-03-02T05:34:47.000Z</time></trkpt>
<trkpt lat="42.204636" lon="23.386204"><ele>1783.8</ele><time>2026-03-02T05:34:48.000Z</time></trkpt>
<trkpt lat="42.204626" lon="23.386189"><ele>1783.8</ele><time>2026-03-02T05:34:49.000Z</time></trkpt>
<trkpt lat="42.204617" lon="23.386176"><ele>1785</ele><time>2026-03-02T05:34:50.000Z</time></trkpt>
<trkpt lat="42.204608" lon="23.386164"><ele>1785</ele><time>2026-03-02T05:34:51.000Z</time></trkpt>
<trkpt lat="42.2046" lon="23.386154"><ele>1785</ele><time>2026-03-02T05:34:52.000Z</time></trkpt>
<trkpt lat="42.204592" lon="23.386143"><ele>1785</ele><time>2026-03-02T05:34:53.000Z</time></trkpt>
<trkpt lat="42.204584" lon="23.386132"><ele>1785</ele><time>2026-03-02T05:34:54.000Z</time></trkpt>
<trkpt lat="42.204575" lon="23.38612"><ele>1785.6</ele><time>2026-03-02T05:34:55.000Z</time></trkpt>
<trkpt lat="42.204567" lon="23.386108"><ele>1785.6</ele><time>2026-03-02T05:34:56.000Z</time></trkpt>
<trkpt lat="42.204559" lon="23.386094"><ele>1785.6</ele><time>2026-03-02T05:34:57.000Z</time></trkpt>
<trkpt lat="42.20455" lon="23.386082"><ele>1785.6</ele><time>2026-03-02T05:34:58.000Z</time></trkpt>
<trkpt lat="42.204542" lon="23.38607"><ele>1785.6</ele><time>2026-03-02T05:34:59.000Z</time></trkpt>
<trkpt lat="42.204535" lon="23.386056"><ele>1786.7</ele><time>2026-03-02T05:35:00.000Z</time></trkpt>
<trkpt lat="42.204528" lon="23.386043"><ele>1786.7</ele><time>2026-03-02T05:35:01.000Z</time></trkpt>
<trkpt lat="42.20452" lon="23.38603"><ele>1786.7</ele><time>2026-03-02T05:35:02.000Z</time></trkpt>
<trkpt lat="42.204513" lon="23.386017"><ele>1786.7</ele><time>2026-03-02T05:35:03.000Z</time></trkpt>
<trkpt lat="42.204506" lon="23.386004"><ele>1786.7</ele><time>2026-03-02T05:35:04.000Z</time></trkpt>
<trkpt lat="42.204499" lon="23.385992"><ele>1787.5</ele><time>2026-03-02T05:35:05.000Z</time></trkpt>
<trkpt lat="42.204493" lon="23.385979"><ele>1787.5</ele><time>2026-03-02T05:35:06.000Z</time></trkpt>
<trkpt lat="42.204487" lon="23.385967"><ele>1787.5</ele><time>2026-03-02T05:35:07.000Z</time></trkpt>
<trkpt lat="42.204481" lon="23.385955"><ele>1787.5</ele><time>2026-03-02T05:35:08.000Z</time></trkpt>
<trkpt lat="42.204474" lon="23.385944"><ele>1787.5</ele><time>2026-03-02T05:35:09.000Z</time></trkpt>
<trkpt lat="42.204468" lon="23.385931"><ele>1787.7</ele><time>2026-03-02T05:35:10.000Z</time></trkpt>
<trkpt lat="42.204461" lon="23.385918"><ele>1787.7</ele><time>2026-03-02T05:35:11.000Z</time></trkpt>
<trkpt lat="42.204454" lon="23.385905"><ele>1787.7</ele><time>2026-03-02T05:35:12.000Z</time></trkpt>
<trkpt lat="42.204446" lon="23.385891"><ele>1787.7</ele><time>2026-03-02T05:35:13.000Z</time></trkpt>
<trkpt lat="42.204439" lon="23.385878"><ele>1787.7</ele><time>2026-03-02T05:35:14.000Z</time></trkpt>
<trkpt lat="42.20443" lon="23.385866"><ele>1788.1</ele><time>2026-03-02T05:35:15.000Z</time></trkpt>
<trkpt lat="42.204421" lon="23.385854"><ele>1788.1</ele><time>2026-03-02T05:35:16.000Z</time></trkpt>
<trkpt lat="42.204412" lon="23.385844"><ele>1788.1</ele><time>2026-03-02T05:35:17.000Z</time></trkpt>
<trkpt lat="42.204402" lon="23.385834"><ele>1788.1</ele><time>2026-03-02T05:35:18.000Z</time></trkpt>
<trkpt lat="42.20439" lon="23.385824"><ele>1788.1</ele><time>2026-03-02T05:35:19.000Z</time></trkpt>
<trkpt lat="42.204379" lon="23.385814"><ele>1788.2</ele><time>2026-03-02T05:35:20.000Z</time></trkpt>
<trkpt lat="42.204369" lon="23.385804"><ele>1788.2</ele><time>2026-03-02T05:35:21.000Z</time></trkpt>
<trkpt lat="42.204358" lon="23.385794"><ele>1788.2</ele><time>2026-03-02T05:35:22.000Z</time></trkpt>
<trkpt lat="42.204348" lon="23.385784"><ele>1788.2</ele><time>2026-03-02T05:35:23.000Z</time></trkpt>
<trkpt lat="42.204338" lon="23.385774"><ele>1788.2</ele><time>2026-03-02T05:35:24.000Z</time></trkpt>
<trkpt lat="42.204329" lon="23.385765"><ele>1788.2</ele><time>2026-03-02T05:35:25.000Z</time></trkpt>
<trkpt lat="42.20432" lon="23.385755"><ele>1788.2</ele><time>2026-03-02T05:35:26.000Z</time></trkpt>
<trkpt lat="42.20431" lon="23.385745"><ele>1788.2</ele><time>2026-03-02T05:35:27.000Z</time></trkpt>
<trkpt lat="42.2043" lon="23.385735"><ele>1788.2</ele><time>2026-03-02T05:35:28.000Z</time></trkpt>
<trkpt lat="42.20429" lon="23.385727"><ele>1788.2</ele><time>2026-03-02T05:35:29.000Z</time></trkpt>
<trkpt lat="42.204279" lon="23.38572"><ele>1788.5</ele><time>2026-03-02T05:35:30.000Z</time></trkpt>
<trkpt lat="42.204268" lon="23.385714"><ele>1788.5</ele><time>2026-03-02T05:35:31.000Z</time></trkpt>
<trkpt lat="42.204256" lon="23.385709"><ele>1788.5</ele><time>2026-03-02T05:35:32.000Z</time></trkpt>
<trkpt lat="42.204245" lon="23.385704"><ele>1788.5</ele><time>2026-03-02T05:35:33.000Z</time></trkpt>
<trkpt lat="42.204233" lon="23.385699"><ele>1788.5</ele><time>2026-03-02T05:35:34.000Z</time></trkpt>
<trkpt lat="42.204223" lon="23.385694"><ele>1789.1</ele><time>2026-03-02T05:35:35.000Z</time></trkpt>
<trkpt lat="42.204213" lon="23.38569"><ele>1789.1</ele><time>2026-03-02T05:35:36.000Z</time></trkpt>
<trkpt lat="42.204202" lon="23.385686"><ele>1789.1</ele><time>2026-03-02T05:35:37.000Z</time></trkpt>
<trkpt lat="42.204191" lon="23.385683"><ele>1789.1</ele><time>2026-03-02T05:35:38.000Z</time></trkpt>
<trkpt lat="42.204182" lon="23.38568"><ele>1789.1</ele><time>2026-03-02T05:35:39.000Z</time></trkpt>
<trkpt lat="42.204171" lon="23.385676"><ele>1789.4</ele><time>2026-03-02T05:35:40.000Z</time></trkpt>
<trkpt lat="42.204162" lon="23.385672"><ele>1789.4</ele><time>2026-03-02T05:35:41.000Z</time></trkpt>
<trkpt lat="42.204154" lon="23.385667"><ele>1789.4</ele><time>2026-03-02T05:35:42.000Z</time></trkpt>
<trkpt lat="42.204146" lon="23.385661"><ele>1789.4</ele><time>2026-03-02T05:35:43.000Z</time></trkpt>
<trkpt lat="42.204136" lon="23.385656"><ele>1789.4</ele><time>2026-03-02T05:35:44.000Z</time></trkpt>
<trkpt lat="42.204124" lon="23.385651"><ele>1790.3</ele><time>2026-03-02T05:35:45.000Z</time></trkpt>
<trkpt lat="42.204113" lon="23.385647"><ele>1790.3</ele><time>2026-03-02T05:35:46.000Z</time></trkpt>
<trkpt lat="42.2041" lon="23.385644"><ele>1790.3</ele><time>2026-03-02T05:35:47.000Z</time></trkpt>
<trkpt lat="42.204087" lon="23.385641"><ele>1790.3</ele><time>2026-03-02T05:35:48.000Z</time></trkpt>
<trkpt lat="42.204073" lon="23.385637"><ele>1790.3</ele><time>2026-03-02T05:35:49.000Z</time></trkpt>
<trkpt lat="42.204062" lon="23.385634"><ele>1791.1</ele><time>2026-03-02T05:35:50.000Z</time></trkpt>
<trkpt lat="42.204051" lon="23.38563"><ele>1791.1</ele><time>2026-03-02T05:35:51.000Z</time></trkpt>
<trkpt lat="42.20404" lon="23.385627"><ele>1791.1</ele><time>2026-03-02T05:35:52.000Z</time></trkpt>
<trkpt lat="42.204031" lon="23.385624"><ele>1791.1</ele><time>2026-03-02T05:35:53.000Z</time></trkpt>
<trkpt lat="42.204023" lon="23.385621"><ele>1791.1</ele><time>2026-03-02T05:35:54.000Z</time></trkpt>
<trkpt lat="42.204014" lon="23.385616"><ele>1791.5</ele><time>2026-03-02T05:35:55.000Z</time></trkpt>
<trkpt lat="42.204006" lon="23.38561"><ele>1791.5</ele><time>2026-03-02T05:35:56.000Z</time></trkpt>
<trkpt lat="42.203998" lon="23.385604"><ele>1791.5</ele><time>2026-03-02T05:35:57.000Z</time></trkpt>
<trkpt lat="42.20399" lon="23.385596"><ele>1791.5</ele><time>2026-03-02T05:35:58.000Z</time></trkpt>
<trkpt lat="42.203981" lon="23.385588"><ele>1791.5</ele><time>2026-03-02T05:35:59.000Z</time></trkpt>
<trkpt lat="42.203972" lon="23.385581"><ele>1792.3</ele><time>2026-03-02T05:36:00.000Z</time></trkpt>
<trkpt lat="42.203963" lon="23.385574"><ele>1792.3</ele><time>2026-03-02T05:36:01.000Z</time></trkpt>
<trkpt lat="42.203955" lon="23.385565"><ele>1792.3</ele><time>2026-03-02T05:36:02.000Z</time></trkpt>
<trkpt lat="42.203946" lon="23.385556"><ele>1792.3</ele><time>2026-03-02T05:36:03.000Z</time></trkpt>
<trkpt lat="42.203937" lon="23.385549"><ele>1792.3</ele><time>2026-03-02T05:36:04.000Z</time></trkpt>
<trkpt lat="42.203928" lon="23.385541"><ele>1793.4</ele><time>2026-03-02T05:36:05.000Z</time></trkpt>
<trkpt lat="42.203919" lon="23.385533"><ele>1793.4</ele><time>2026-03-02T05:36:06.000Z</time></trkpt>
<trkpt lat="42.20391" lon="23.385525"><ele>1793.4</ele><time>2026-03-02T05:36:07.000Z</time></trkpt>
<trkpt lat="42.203901" lon="23.385519"><ele>1793.4</ele><time>2026-03-02T05:36:08.000Z</time></trkpt>
<trkpt lat="42.203893" lon="23.385511"><ele>1793.4</ele><time>2026-03-02T05:36:09.000Z</time></trkpt>
<trkpt lat="42.203886" lon="23.385505"><ele>1793.9</ele><time>2026-03-02T05:36:10.000Z</time></trkpt>
<trkpt lat="42.203879" lon="23.385498"><ele>1793.9</ele><time>2026-03-02T05:36:11.000Z</time></trkpt>
<trkpt lat="42.203873" lon="23.38549"><ele>1793.9</ele><time>2026-03-02T05:36:12.000Z</time></trkpt>
<trkpt lat="42.203867" lon="23.385482"><ele>1793.9</ele><time>2026-03-02T05:36:13.000Z</time></trkpt>
<trkpt lat="42.20386" lon="23.385476"><ele>1793.9</ele><time>2026-03-02T05:36:14.000Z</time></trkpt>
<trkpt lat="42.203853" lon="23.38547"><ele>1794.9</ele><time>2026-03-02T05:36:15.000Z</time></trkpt>
<trkpt lat="42.203845" lon="23.385464"><ele>1794.9</ele><time>2026-03-02T05:36:16.000Z</time></trkpt>
<trkpt lat="42.203836" lon="23.38546"><ele>1794.9</ele><time>2026-03-02T05:36:17.000Z</time></trkpt>
<trkpt lat="42.203826" lon="23.385457"><ele>1794.9</ele><time>2026-03-02T05:36:18.000Z</time></trkpt>
<trkpt lat="42.203817" lon="23.385454"><ele>1794.9</ele><time>2026-03-02T05:36:19.000Z</time></trkpt>
<trkpt lat="42.203808" lon="23.38545"><ele>1795.7</ele><time>2026-03-02T05:36:20.000Z</time></trkpt>
<trkpt lat="42.203799" lon="23.385446"><ele>1795.7</ele><time>2026-03-02T05:36:21.000Z</time></trkpt>
<trkpt lat="42.203789" lon="23.385441"><ele>1795.7</ele><time>2026-03-02T05:36:22.000Z</time></trkpt>
<trkpt lat="42.203778" lon="23.385435"><ele>1795.7</ele><time>2026-03-02T05:36:23.000Z</time></trkpt>
<trkpt lat="42.203768" lon="23.385429"><ele>1795.7</ele><time>2026-03-02T05:36:24.000Z</time></trkpt>
<trkpt lat="42.203758" lon="23.385423"><ele>1796.1</ele><time>2026-03-02T05:36:25.000Z</time></trkpt>
<trkpt lat="42.203749" lon="23.385417"><ele>1796.1</ele><time>2026-03-02T05:36:26.000Z</time></trkpt>
<trkpt lat="42.20374" lon="23.38541"><ele>1796.1</ele><time>2026-03-02T05:36:27.000Z</time></trkpt>
<trkpt lat="42.203732" lon="23.385403"><ele>1796.1</ele><time>2026-03-02T05:36:28.000Z</time></trkpt>
<trkpt lat="42.203726" lon="23.385396"><ele>1796.1</ele><time>2026-03-02T05:36:29.000Z</time></trkpt>
<trkpt lat="42.20372" lon="23.38539"><ele>1797</ele><time>2026-03-02T05:36:30.000Z</time></trkpt>
<trkpt lat="42.203714" lon="23.385382"><ele>1797</ele><time>2026-03-02T05:36:31.000Z</time></trkpt>
<trkpt lat="42.203709" lon="23.385376"><ele>1797</ele><time>2026-03-02T05:36:32.000Z</time></trkpt>
<trkpt lat="42.203704" lon="23.385366"><ele>1797</ele><time>2026-03-02T05:36:33.000Z</time></trkpt>
<trkpt lat="42.2037" lon="23.385356"><ele>1797</ele><time>2026-03-02T05:36:34.000Z</time></trkpt>
<trkpt lat="42.203695" lon="23.385346"><ele>1797.8</ele><time>2026-03-02T05:36:35.000Z</time></trkpt>
<trkpt lat="42.203689" lon="23.385337"><ele>1797.8</ele><time>2026-03-02T05:36:36.000Z</time></trkpt>
<trkpt lat="42.203681" lon="23.385328"><ele>1797.8</ele><time>2026-03-02T05:36:37.000Z</time></trkpt>
<trkpt lat="42.203672" lon="23.385321"><ele>1797.8</ele><time>2026-03-02T05:36:38.000Z</time></trkpt>
<trkpt lat="42.203662" lon="23.385316"><ele>1797.8</ele><time>2026-03-02T05:36:39.000Z</time></trkpt>
<trkpt lat="42.20365" lon="23.385311"><ele>1798.1</ele><time>2026-03-02T05:36:40.000Z</time></trkpt>
<trkpt lat="42.20364" lon="23.385306"><ele>1798.1</ele><time>2026-03-02T05:36:41.000Z</time></trkpt>
<trkpt lat="42.20363" lon="23.385301"><ele>1798.1</ele><time>2026-03-02T05:36:42.000Z</time></trkpt>
<trkpt lat="42.203621" lon="23.385297"><ele>1798.1</ele><time>2026-03-02T05:36:43.000Z</time></trkpt>
<trkpt lat="42.203612" lon="23.385292"><ele>1798.1</ele><time>2026-03-02T05:36:44.000Z</time></trkpt>
<trkpt lat="42.203605" lon="23.385287"><ele>1798.7</ele><time>2026-03-02T05:36:45.000Z</time></trkpt>
<trkpt lat="42.203597" lon="23.385282"><ele>1798.7</ele><time>2026-03-02T05:36:46.000Z</time></trkpt>
<trkpt lat="42.203588" lon="23.385276"><ele>1798.7</ele><time>2026-03-02T05:36:47.000Z</time></trkpt>
<trkpt lat="42.20358" lon="23.385269"><ele>1798.7</ele><time>2026-03-02T05:36:48.000Z</time></trkpt>
<trkpt lat="42.203571" lon="23.385262"><ele>1798.7</ele><time>2026-03-02T05:36:49.000Z</time></trkpt>
<trkpt lat="42.203563" lon="23.385254"><ele>1799.1</ele><time>2026-03-02T05:36:50.000Z</time></trkpt>
<trkpt lat="42.203554" lon="23.385247"><ele>1799.1</ele><time>2026-03-02T05:36:51.000Z</time></trkpt>
<trkpt lat="42.203546" lon="23.38524"><ele>1799.1</ele><time>2026-03-02T05:36:52.000Z</time></trkpt>
<trkpt lat="42.203538" lon="23.385232"><ele>1799.1</ele><time>2026-03-02T05:36:53.000Z</time></trkpt>
<trkpt lat="42.203531" lon="23.385222"><ele>1799.1</ele><time>2026-03-02T05:36:54.000Z</time></trkpt>
<trkpt lat="42.203524" lon="23.385213"><ele>1799.3</ele><time>2026-03-02T05:36:55.000Z</time></trkpt>
<trkpt lat="42.203518" lon="23.385202"><ele>1799.3</ele><time>2026-03-02T05:36:56.000Z</time></trkpt>
<trkpt lat="42.203515" lon="23.385191"><ele>1799.3</ele><time>2026-03-02T05:36:57.000Z</time></trkpt>
<trkpt lat="42.203511" lon="23.385181"><ele>1799.3</ele><time>2026-03-02T05:36:58.000Z</time></trkpt>
<trkpt lat="42.203506" lon="23.385171"><ele>1799.3</ele><time>2026-03-02T05:36:59.000Z</time></trkpt>
<trkpt lat="42.203499" lon="23.385162"><ele>1799.7</ele><time>2026-03-02T05:37:00.000Z</time></trkpt>
<trkpt lat="42.20349" lon="23.385153"><ele>1799.7</ele><time>2026-03-02T05:37:01.000Z</time></trkpt>
<trkpt lat="42.20348" lon="23.385144"><ele>1799.7</ele><time>2026-03-02T05:37:02.000Z</time></trkpt>
<trkpt lat="42.203469" lon="23.385135"><ele>1799.7</ele><time>2026-03-02T05:37:03.000Z</time></trkpt>
<trkpt lat="42.203459" lon="23.385126"><ele>1799.7</ele><time>2026-03-02T05:37:04.000Z</time></trkpt>
<trkpt lat="42.20345" lon="23.385116"><ele>1800.1</ele><time>2026-03-02T05:37:05.000Z</time></trkpt>
<trkpt lat="42.203441" lon="23.385106"><ele>1800.1</ele><time>2026-03-02T05:37:06.000Z</time></trkpt>
<trkpt lat="42.203433" lon="23.385096"><ele>1800.1</ele><time>2026-03-02T05:37:07.000Z</time></trkpt>
<trkpt lat="42.203425" lon="23.385087"><ele>1800.1</ele><time>2026-03-02T05:37:08.000Z</time></trkpt>
<trkpt lat="42.203416" lon="23.385078"><ele>1800.1</ele><time>2026-03-02T05:37:09.000Z</time></trkpt>
<trkpt lat="42.203406" lon="23.38507"><ele>1800.3</ele><time>2026-03-02T05:37:10.000Z</time></trkpt>
<trkpt lat="42.203397" lon="23.385063"><ele>1800.3</ele><time>2026-03-02T05:37:11.000Z</time></trkpt>
<trkpt lat="42.203387" lon="23.385057"><ele>1800.3</ele><time>2026-03-02T05:37:12.000Z</time></trkpt>
<trkpt lat="42.203378" lon="23.385052"><ele>1800.3</ele><time>2026-03-02T05:37:13.000Z</time></trkpt>
<trkpt lat="42.20337" lon="23.385047"><ele>1800.3</ele><time>2026-03-02T05:37:14.000Z</time></trkpt>
<trkpt lat="42.203364" lon="23.385042"><ele>1800.8</ele><time>2026-03-02T05:37:15.000Z</time></trkpt>
<trkpt lat="42.203356" lon="23.385038"><ele>1800.8</ele><time>2026-03-02T05:37:16.000Z</time></trkpt>
<trkpt lat="42.203349" lon="23.385033"><ele>1800.8</ele><time>2026-03-02T05:37:17.000Z</time></trkpt>
<trkpt lat="42.203341" lon="23.385027"><ele>1800.8</ele><time>2026-03-02T05:37:18.000Z</time></trkpt>
<trkpt lat="42.203334" lon="23.385021"><ele>1800.8</ele><time>2026-03-02T05:37:19.000Z</time></trkpt>
<trkpt lat="42.203328" lon="23.385013"><ele>1801.5</ele><time>2026-03-02T05:37:20.000Z</time></trkpt>
<trkpt lat="42.203322" lon="23.385006"><ele>1801.5</ele><time>2026-03-02T05:37:21.000Z</time></trkpt>
<trkpt lat="42.203316" lon="23.384998"><ele>1801.5</ele><time>2026-03-02T05:37:22.000Z</time></trkpt>
<trkpt lat="42.203311" lon="23.384991"><ele>1801.5</ele><time>2026-03-02T05:37:23.000Z</time></trkpt>
<trkpt lat="42.203305" lon="23.384985"><ele>1801.5</ele><time>2026-03-02T05:37:24.000Z</time></trkpt>
<trkpt lat="42.203299" lon="23.384978"><ele>1802</ele><time>2026-03-02T05:37:25.000Z</time></trkpt>
<trkpt lat="42.203293" lon="23.384972"><ele>1802</ele><time>2026-03-02T05:37:26.000Z</time></trkpt>
<trkpt lat="42.203288" lon="23.384965"><ele>1802</ele><time>2026-03-02T05:37:27.000Z</time></trkpt>
<trkpt lat="42.203282" lon="23.384958"><ele>1802</ele><time>2026-03-02T05:37:28.000Z</time></trkpt>
<trkpt lat="42.203277" lon="23.384951"><ele>1802</ele><time>2026-03-02T05:37:29.000Z</time></trkpt>
<trkpt lat="42.203271" lon="23.384944"><ele>1802.6</ele><time>2026-03-02T05:37:30.000Z</time></trkpt>
<trkpt lat="42.203265" lon="23.384936"><ele>1802.6</ele><time>2026-03-02T05:37:31.000Z</time></trkpt>
<trkpt lat="42.203258" lon="23.384927"><ele>1802.6</ele><time>2026-03-02T05:37:32.000Z</time></trkpt>
<trkpt lat="42.20325" lon="23.38492"><ele>1802.6</ele><time>2026-03-02T05:37:33.000Z</time></trkpt>
<trkpt lat="42.203242" lon="23.384913"><ele>1802.6</ele><time>2026-03-02T05:37:34.000Z</time></trkpt>
<trkpt lat="42.203234" lon="23.384907"><ele>1803.2</ele><time>2026-03-02T05:37:35.000Z</time></trkpt>
<trkpt lat="42.203226" lon="23.384901"><ele>1803.2</ele><time>2026-03-02T05:37:36.000Z</time></trkpt>
<trkpt lat="42.203219" lon="23.384895"><ele>1803.2</ele><time>2026-03-02T05:37:37.000Z</time></trkpt>
<trkpt lat="42.203212" lon="23.384889"><ele>1803.2</ele><time>2026-03-02T05:37:38.000Z</time></trkpt>
<trkpt lat="42.203204" lon="23.384882"><ele>1803.2</ele><time>2026-03-02T05:37:39.000Z</time></trkpt>
<trkpt lat="42.203197" lon="23.384875"><ele>1803.5</ele><time>2026-03-02T05:37:40.000Z</time></trkpt>
<trkpt lat="42.203191" lon="23.384866"><ele>1803.5</ele><time>2026-03-02T05:37:41.000Z</time></trkpt>
<trkpt lat="42.203185" lon="23.384858"><ele>1803.5</ele><time>2026-03-02T05:37:42.000Z</time></trkpt>
<trkpt lat="42.203178" lon="23.38485"><ele>1803.5</ele><time>2026-03-02T05:37:43.000Z</time></trkpt>
<trkpt lat="42.203172" lon="23.384842"><ele>1803.5</ele><time>2026-03-02T05:37:44.000Z</time></trkpt>
<trkpt lat="42.203166" lon="23.384835"><ele>1804</ele><time>2026-03-02T05:37:45.000Z</time></trkpt>
<trkpt lat="42.203159" lon="23.384828"><ele>1804</ele><time>2026-03-02T05:37:46.000Z</time></trkpt>
<trkpt lat="42.203151" lon="23.384821"><ele>1804</ele><time>2026-03-02T05:37:47.000Z</time></trkpt>
<trkpt lat="42.203142" lon="23.384814"><ele>1804</ele><time>2026-03-02T05:37:48.000Z</time></trkpt>
<trkpt lat="42.203133" lon="23.384807"><ele>1804</ele><time>2026-03-02T05:37:49.000Z</time></trkpt>
<trkpt lat="42.203124" lon="23.384801"><ele>1804.6</ele><time>2026-03-02T05:37:50.000Z</time></trkpt>
<trkpt lat="42.203116" lon="23.384794"><ele>1804.6</ele><time>2026-03-02T05:37:51.000Z</time></trkpt>
<trkpt lat="42.203108" lon="23.384786"><ele>1804.6</ele><time>2026-03-02T05:37:52.000Z</time></trkpt>
<trkpt lat="42.203101" lon="23.384779"><ele>1804.6</ele><time>2026-03-02T05:37:53.000Z</time></trkpt>
<trkpt lat="42.203094" lon="23.38477"><ele>1804.6</ele><time>2026-03-02T05:37:54.000Z</time></trkpt>
<trkpt lat="42.203089" lon="23.384761"><ele>1805</ele><time>2026-03-02T05:37:55.000Z</time></trkpt>
<trkpt lat="42.203084" lon="23.384751"><ele>1805</ele><time>2026-03-02T05:37:56.000Z</time></trkpt>
<trkpt lat="42.203081" lon="23.384741"><ele>1805</ele><time>2026-03-02T05:37:57.000Z</time></trkpt>
<trkpt lat="42.203077" lon="23.38473"><ele>1805</ele><time>2026-03-02T05:37:58.000Z</time></trkpt>
<trkpt lat="42.203075" lon="23.384719"><ele>1805</ele><time>2026-03-02T05:37:59.000Z</time></trkpt>
<trkpt lat="42.203072" lon="23.384708"><ele>1805.6</ele><time>2026-03-02T05:38:00.000Z</time></trkpt>
<trkpt lat="42.203068" lon="23.384699"><ele>1805.6</ele><time>2026-03-02T05:38:01.000Z</time></trkpt>
<trkpt lat="42.203064" lon="23.384689"><ele>1805.6</ele><time>2026-03-02T05:38:02.000Z</time></trkpt>
<trkpt lat="42.20306" lon="23.384678"><ele>1805.6</ele><time>2026-03-02T05:38:03.000Z</time></trkpt>
<trkpt lat="42.203056" lon="23.38467"><ele>1805.6</ele><time>2026-03-02T05:38:04.000Z</time></trkpt>
<trkpt lat="42.20305" lon="23.384661"><ele>1806.2</ele><time>2026-03-02T05:38:05.000Z</time></trkpt>
<trkpt lat="42.203043" lon="23.384652"><ele>1806.2</ele><time>2026-03-02T05:38:06.000Z</time></trkpt>
<trkpt lat="42.203036" lon="23.384646"><ele>1806.2</ele><time>2026-03-02T05:38:07.000Z</time></trkpt>
<trkpt lat="42.203027" lon="23.38464"><ele>1806.2</ele><time>2026-03-02T05:38:08.000Z</time></trkpt>
<trkpt lat="42.203018" lon="23.384635"><ele>1806.2</ele><time>2026-03-02T05:38:09.000Z</time></trkpt>
<trkpt lat="42.203008" lon="23.384629"><ele>1806.4</ele><time>2026-03-02T05:38:10.000Z</time></trkpt>
<trkpt lat="42.202998" lon="23.384622"><ele>1806.4</ele><time>2026-03-02T05:38:11.000Z</time></trkpt>
<trkpt lat="42.202988" lon="23.384614"><ele>1806.4</ele><time>2026-03-02T05:38:12.000Z</time></trkpt>
<trkpt lat="42.202978" lon="23.384606"><ele>1806.4</ele><time>2026-03-02T05:38:13.000Z</time></trkpt>
<trkpt lat="42.20297" lon="23.384598"><ele>1806.4</ele><time>2026-03-02T05:38:14.000Z</time></trkpt>
<trkpt lat="42.202961" lon="23.384592"><ele>1806.9</ele><time>2026-03-02T05:38:15.000Z</time></trkpt>
<trkpt lat="42.202953" lon="23.384589"><ele>1806.9</ele><time>2026-03-02T05:38:16.000Z</time></trkpt>
<trkpt lat="42.202945" lon="23.384587"><ele>1806.9</ele><time>2026-03-02T05:38:17.000Z</time></trkpt>
<trkpt lat="42.202936" lon="23.384585"><ele>1806.9</ele><time>2026-03-02T05:38:18.000Z</time></trkpt>
<trkpt lat="42.202929" lon="23.384581"><ele>1806.9</ele><time>2026-03-02T05:38:19.000Z</time></trkpt>
<trkpt lat="42.202922" lon="23.384578"><ele>1807.4</ele><time>2026-03-02T05:38:20.000Z</time></trkpt>
<trkpt lat="42.202916" lon="23.384575"><ele>1807.4</ele><time>2026-03-02T05:38:21.000Z</time></trkpt>
<trkpt lat="42.202911" lon="23.384571"><ele>1807.4</ele><time>2026-03-02T05:38:22.000Z</time></trkpt>
<trkpt lat="42.202906" lon="23.384568"><ele>1807.4</ele><time>2026-03-02T05:38:23.000Z</time></trkpt>
<trkpt lat="42.202901" lon="23.384567"><ele>1807.4</ele><time>2026-03-02T05:38:24.000Z</time></trkpt>
<trkpt lat="42.202895" lon="23.384566"><ele>1807.6</ele><time>2026-03-02T05:38:25.000Z</time></trkpt>
<trkpt lat="42.202889" lon="23.384563"><ele>1807.6</ele><time>2026-03-02T05:38:26.000Z</time></trkpt>
<trkpt lat="42.202884" lon="23.38456"><ele>1807.6</ele><time>2026-03-02T05:38:27.000Z</time></trkpt>
<trkpt lat="42.202877" lon="23.384556"><ele>1807.6</ele><time>2026-03-02T05:38:28.000Z</time></trkpt>
<trkpt lat="42.202871" lon="23.384549"><ele>1807.6</ele><time>2026-03-02T05:38:29.000Z</time></trkpt>
<trkpt lat="42.202865" lon="23.384542"><ele>1808.3</ele><time>2026-03-02T05:38:30.000Z</time></trkpt>
<trkpt lat="42.202858" lon="23.384535"><ele>1808.3</ele><time>2026-03-02T05:38:31.000Z</time></trkpt>
<trkpt lat="42.20285" lon="23.384526"><ele>1808.3</ele><time>2026-03-02T05:38:32.000Z</time></trkpt>
<trkpt lat="42.202843" lon="23.384518"><ele>1808.3</ele><time>2026-03-02T05:38:33.000Z</time></trkpt>
<trkpt lat="42.202836" lon="23.384508"><ele>1808.3</ele><time>2026-03-02T05:38:34.000Z</time></trkpt>
<trkpt lat="42.202828" lon="23.384499"><ele>1808.9</ele><time>2026-03-02T05:38:35.000Z</time></trkpt>
<trkpt lat="42.20282" lon="23.38449"><ele>1808.9</ele><time>2026-03-02T05:38:36.000Z</time></trkpt>
<trkpt lat="42.202811" lon="23.384481"><ele>1808.9</ele><time>2026-03-02T05:38:37.000Z</time></trkpt>
<trkpt lat="42.202802" lon="23.384472"><ele>1808.9</ele><time>2026-03-02T05:38:38.000Z</time></trkpt>
<trkpt lat="42.202792" lon="23.384463"><ele>1808.9</ele><time>2026-03-02T05:38:39.000Z</time></trkpt>
<trkpt lat="42.202783" lon="23.384453"><ele>1809.1</ele><time>2026-03-02T05:38:40.000Z</time></trkpt>
<trkpt lat="42.202775" lon="23.384444"><ele>1809.1</ele><time>2026-03-02T05:38:41.000Z</time></trkpt>
<trkpt lat="42.202766" lon="23.384435"><ele>1809.1</ele><time>2026-03-02T05:38:42.000Z</time></trkpt>
<trkpt lat="42.202759" lon="23.384427"><ele>1809.1</ele><time>2026-03-02T05:38:43.000Z</time></trkpt>
<trkpt lat="42.20275" lon="23.38442"><ele>1809.1</ele><time>2026-03-02T05:38:44.000Z</time></trkpt>
<trkpt lat="42.202741" lon="23.384413"><ele>1809.4</ele><time>2026-03-02T05:38:45.000Z</time></trkpt>
<trkpt lat="42.202733" lon="23.384406"><ele>1809.4</ele><time>2026-03-02T05:38:46.000Z</time></trkpt>
<trkpt lat="42.202725" lon="23.384398"><ele>1809.4</ele><time>2026-03-02T05:38:47.000Z</time></trkpt>
<trkpt lat="42.202717" lon="23.384389"><ele>1809.4</ele><time>2026-03-02T05:38:48.000Z</time></trkpt>
<trkpt lat="42.202709" lon="23.38438"><ele>1809.4</ele><time>2026-03-02T05:38:49.000Z</time></trkpt>
<trkpt lat="42.202699" lon="23.384372"><ele>1810</ele><time>2026-03-02T05:38:50.000Z</time></trkpt>
<trkpt lat="42.202689" lon="23.384364"><ele>1810</ele><time>2026-03-02T05:38:51.000Z</time></trkpt>
<trkpt lat="42.202678" lon="23.384356"><ele>1810</ele><time>2026-03-02T05:38:52.000Z</time></trkpt>
<trkpt lat="42.202667" lon="23.384348"><ele>1810</ele><time>2026-03-02T05:38:53.000Z</time></trkpt>
<trkpt lat="42.202657" lon="23.384341"><ele>1810</ele><time>2026-03-02T05:38:54.000Z</time></trkpt>
<trkpt lat="42.202647" lon="23.384334"><ele>1810.3</ele><time>2026-03-02T05:38:55.000Z</time></trkpt>
<trkpt lat="42.202636" lon="23.384327"><ele>1810.3</ele><time>2026-03-02T05:38:56.000Z</time></trkpt>
<trkpt lat="42.202626" lon="23.384321"><ele>1810.3</ele><time>2026-03-02T05:38:57.000Z</time></trkpt>
<trkpt lat="42.202616" lon="23.384315"><ele>1810.3</ele><time>2026-03-02T05:38:58.000Z</time></trkpt>
<trkpt lat="42.202605" lon="23.384309"><ele>1810.3</ele><time>2026-03-02T05:38:59.000Z</time></trkpt>
<trkpt lat="42.202594" lon="23.384303"><ele>1811.1</ele><time>2026-03-02T05:39:00.000Z</time></trkpt>
<trkpt lat="42.202582" lon="23.384297"><ele>1811.1</ele><time>2026-03-02T05:39:01.000Z</time></trkpt>
<trkpt lat="42.20257" lon="23.384291"><ele>1811.1</ele><time>2026-03-02T05:39:02.000Z</time></trkpt>
<trkpt lat="42.202557" lon="23.384285"><ele>1811.1</ele><time>2026-03-02T05:39:03.000Z</time></trkpt>
<trkpt lat="42.202545" lon="23.384277"><ele>1811.1</ele><time>2026-03-02T05:39:04.000Z</time></trkpt>
<trkpt lat="42.202533" lon="23.384268"><ele>1811.6</ele><time>2026-03-02T05:39:05.000Z</time></trkpt>
<trkpt lat="42.202521" lon="23.384259"><ele>1811.6</ele><time>2026-03-02T05:39:06.000Z</time></trkpt>
<trkpt lat="42.202509" lon="23.38425"><ele>1811.6</ele><time>2026-03-02T05:39:07.000Z</time></trkpt>
<trkpt lat="42.202497" lon="23.384242"><ele>1811.6</ele><time>2026-03-02T05:39:08.000Z</time></trkpt>
<trkpt lat="42.202486" lon="23.384234"><ele>1811.6</ele><time>2026-03-02T05:39:09.000Z</time></trkpt>
<trkpt lat="42.202474" lon="23.384226"><ele>1811.8</ele><time>2026-03-02T05:39:10.000Z</time></trkpt>
<trkpt lat="42.202463" lon="23.38422"><ele>1811.8</ele><time>2026-03-02T05:39:11.000Z</time></trkpt>
<trkpt lat="42.202451" lon="23.384214"><ele>1811.8</ele><time>2026-03-02T05:39:12.000Z</time></trkpt>
<trkpt lat="42.202439" lon="23.384207"><ele>1811.8</ele><time>2026-03-02T05:39:13.000Z</time></trkpt>
<trkpt lat="42.202427" lon="23.384201"><ele>1811.8</ele><time>2026-03-02T05:39:14.000Z</time></trkpt>
<trkpt lat="42.202415" lon="23.384193"><ele>1812.3</ele><time>2026-03-02T05:39:15.000Z</time></trkpt>
<trkpt lat="42.202403" lon="23.384186"><ele>1812.3</ele><time>2026-03-02T05:39:16.000Z</time></trkpt>
<trkpt lat="42.202391" lon="23.384179"><ele>1812.3</ele><time>2026-03-02T05:39:17.000Z</time></trkpt>
<trkpt lat="42.202379" lon="23.384172"><ele>1812.3</ele><time>2026-03-02T05:39:18.000Z</time></trkpt>
<trkpt lat="42.202367" lon="23.384165"><ele>1812.3</ele><time>2026-03-02T05:39:19.000Z</time></trkpt>
<trkpt lat="42.202355" lon="23.384159"><ele>1813.1</ele><time>2026-03-02T05:39:20.000Z</time></trkpt>
<trkpt lat="42.202343" lon="23.384155"><ele>1813.1</ele><time>2026-03-02T05:39:21.000Z</time></trkpt>
<trkpt lat="42.202332" lon="23.38415"><ele>1813.1</ele><time>2026-03-02T05:39:22.000Z</time></trkpt>
<trkpt lat="42.202319" lon="23.384146"><ele>1813.1</ele><time>2026-03-02T05:39:23.000Z</time></trkpt>
<trkpt lat="42.202307" lon="23.384142"><ele>1813.1</ele><time>2026-03-02T05:39:24.000Z</time></trkpt>
<trkpt lat="42.202295" lon="23.384137"><ele>1813.5</ele><time>2026-03-02T05:39:25.000Z</time></trkpt>
<trkpt lat="42.202282" lon="23.384133"><ele>1813.5</ele><time>2026-03-02T05:39:26.000Z</time></trkpt>
<trkpt lat="42.20227" lon="23.38413"><ele>1813.5</ele><time>2026-03-02T05:39:27.000Z</time></trkpt>
<trkpt lat="42.202258" lon="23.384127"><ele>1813.5</ele><time>2026-03-02T05:39:28.000Z</time></trkpt>
<trkpt lat="42.202247" lon="23.384124"><ele>1813.5</ele><time>2026-03-02T05:39:29.000Z</time></trkpt>
<trkpt lat="42.202237" lon="23.384119"><ele>1814.3</ele><time>2026-03-02T05:39:30.000Z</time></trkpt>
<trkpt lat="42.202227" lon="23.384114"><ele>1814.3</ele><time>2026-03-02T05:39:31.000Z</time></trkpt>
<trkpt lat="42.202218" lon="23.384107"><ele>1814.3</ele><time>2026-03-02T05:39:32.000Z</time></trkpt>
<trkpt lat="42.20221" lon="23.3841"><ele>1814.3</ele><time>2026-03-02T05:39:33.000Z</time></trkpt>
<trkpt lat="42.202201" lon="23.384094"><ele>1814.3</ele><time>2026-03-02T05:39:34.000Z</time></trkpt>
<trkpt lat="42.202191" lon="23.384088"><ele>1815.4</ele><time>2026-03-02T05:39:35.000Z</time></trkpt>
<trkpt lat="42.202181" lon="23.384083"><ele>1815.4</ele><time>2026-03-02T05:39:36.000Z</time></trkpt>
<trkpt lat="42.20217" lon="23.384078"><ele>1815.4</ele><time>2026-03-02T05:39:37.000Z</time></trkpt>
<trkpt lat="42.20216" lon="23.384073"><ele>1815.4</ele><time>2026-03-02T05:39:38.000Z</time></trkpt>
<trkpt lat="42.20215" lon="23.384067"><ele>1815.4</ele><time>2026-03-02T05:39:39.000Z</time></trkpt>
<trkpt lat="42.20214" lon="23.384062"><ele>1816.1</ele><time>2026-03-02T05:39:40.000Z</time></trkpt>
<trkpt lat="42.20213" lon="23.384055"><ele>1816.1</ele><time>2026-03-02T05:39:41.000Z</time></trkpt>
<trkpt lat="42.20212" lon="23.384049"><ele>1816.1</ele><time>2026-03-02T05:39:42.000Z</time></trkpt>
<trkpt lat="42.20211" lon="23.384041"><ele>1816.1</ele><time>2026-03-02T05:39:43.000Z</time></trkpt>
<trkpt lat="42.202098" lon="23.384034"><ele>1816.1</ele><time>2026-03-02T05:39:44.000Z</time></trkpt>
<trkpt lat="42.202086" lon="23.384028"><ele>1817.2</ele><time>2026-03-02T05:39:45.000Z</time></trkpt>
<trkpt lat="42.202073" lon="23.384021"><ele>1817.2</ele><time>2026-03-02T05:39:46.000Z</time></trkpt>
<trkpt lat="42.20206" lon="23.384014"><ele>1817.2</ele><time>2026-03-02T05:39:47.000Z</time></trkpt>
<trkpt lat="42.202047" lon="23.384008"><ele>1817.2</ele><time>2026-03-02T05:39:48.000Z</time></trkpt>
<trkpt lat="42.202033" lon="23.384003"><ele>1817.2</ele><time>2026-03-02T05:39:49.000Z</time></trkpt>
<trkpt lat="42.202019" lon="23.383997"><ele>1818</ele><time>2026-03-02T05:39:50.000Z</time></trkpt>
<trkpt lat="42.202004" lon="23.383991"><ele>1818</ele><time>2026-03-02T05:39:51.000Z</time></trkpt>
<trkpt lat="42.201988" lon="23.383985"><ele>1818</ele><time>2026-03-02T05:39:52.000Z</time></trkpt>
<trkpt lat="42.201973" lon="23.38398"><ele>1818</ele><time>2026-03-02T05:39:53.000Z</time></trkpt>
<trkpt lat="42.201959" lon="23.383973"><ele>1818</ele><time>2026-03-02T05:39:54.000Z</time></trkpt>
<trkpt lat="42.201946" lon="23.383966"><ele>1818.2</ele><time>2026-03-02T05:39:55.000Z</time></trkpt>
<trkpt lat="42.201934" lon="23.38396"><ele>1818.2</ele><time>2026-03-02T05:39:56.000Z</time></trkpt>
<trkpt lat="42.201922" lon="23.383952"><ele>1818.2</ele><time>2026-03-02T05:39:57.000Z</time></trkpt>
<trkpt lat="42.20191" lon="23.383944"><ele>1818.2</ele><time>2026-03-02T05:39:58.000Z</time></trkpt>
<trkpt lat="42.201898" lon="23.383936"><ele>1818.2</ele><time>2026-03-02T05:39:59.000Z</time></trkpt>
<trkpt lat="42.201887" lon="23.383928"><ele>1818.5</ele><time>2026-03-02T05:40:00.000Z</time></trkpt>
<trkpt lat="42.201875" lon="23.383922"><ele>1818.5</ele><time>2026-03-02T05:40:01.000Z</time></trkpt>
<trkpt lat="42.201864" lon="23.383916"><ele>1818.5</ele><time>2026-03-02T05:40:02.000Z</time></trkpt>
<trkpt lat="42.201853" lon="23.383911"><ele>1818.5</ele><time>2026-03-02T05:40:03.000Z</time></trkpt>
<trkpt lat="42.201842" lon="23.383905"><ele>1818.5</ele><time>2026-03-02T05:40:04.000Z</time></trkpt>
<trkpt lat="42.201831" lon="23.383899"><ele>1819</ele><time>2026-03-02T05:40:05.000Z</time></trkpt>
<trkpt lat="42.201823" lon="23.383892"><ele>1819</ele><time>2026-03-02T05:40:06.000Z</time></trkpt>
<trkpt lat="42.201814" lon="23.383885"><ele>1819</ele><time>2026-03-02T05:40:07.000Z</time></trkpt>
<trkpt lat="42.201806" lon="23.383878"><ele>1819</ele><time>2026-03-02T05:40:08.000Z</time></trkpt>
<trkpt lat="42.201798" lon="23.383872"><ele>1819</ele><time>2026-03-02T05:40:09.000Z</time></trkpt>
<trkpt lat="42.201789" lon="23.383865"><ele>1819.4</ele><time>2026-03-02T05:40:10.000Z</time></trkpt>
<trkpt lat="42.20178" lon="23.383859"><ele>1819.4</ele><time>2026-03-02T05:40:11.000Z</time></trkpt>
<trkpt lat="42.201771" lon="23.383852"><ele>1819.4</ele><time>2026-03-02T05:40:12.000Z</time></trkpt>
<trkpt lat="42.201761" lon="23.383845"><ele>1819.4</ele><time>2026-03-02T05:40:13.000Z</time></trkpt>
<trkpt lat="42.20175" lon="23.383836"><ele>1819.4</ele><time>2026-03-02T05:40:14.000Z</time></trkpt>
<trkpt lat="42.201739" lon="23.383827"><ele>1820.3</ele><time>2026-03-02T05:40:15.000Z</time></trkpt>
<trkpt lat="42.201727" lon="23.383818"><ele>1820.3</ele><time>2026-03-02T05:40:16.000Z</time></trkpt>
<trkpt lat="42.201715" lon="23.383807"><ele>1820.3</ele><time>2026-03-02T05:40:17.000Z</time></trkpt>
<trkpt lat="42.201704" lon="23.383795"><ele>1820.3</ele><time>2026-03-02T05:40:18.000Z</time></trkpt>
<trkpt lat="42.201693" lon="23.383784"><ele>1820.3</ele><time>2026-03-02T05:40:19.000Z</time></trkpt>
<trkpt lat="42.201684" lon="23.383773"><ele>1821.3</ele><time>2026-03-02T05:40:20.000Z</time></trkpt>
<trkpt lat="42.201673" lon="23.38376"><ele>1821.3</ele><time>2026-03-02T05:40:21.000Z</time></trkpt>
<trkpt lat="42.201664" lon="23.383746"><ele>1821.3</ele><time>2026-03-02T05:40:22.000Z</time></trkpt>
<trkpt lat="42.201655" lon="23.383733"><ele>1821.3</ele><time>2026-03-02T05:40:23.000Z</time></trkpt>
<trkpt lat="42.201645" lon="23.383718"><ele>1821.3</ele><time>2026-03-02T05:40:24.000Z</time></trkpt>
<trkpt lat="42.201635" lon="23.383703"><ele>1821.6</ele><time>2026-03-02T05:40:25.000Z</time></trkpt>
<trkpt lat="42.201625" lon="23.383687"><ele>1821.6</ele><time>2026-03-02T05:40:26.000Z</time></trkpt>
<trkpt lat="42.201615" lon="23.383671"><ele>1821.6</ele><time>2026-03-02T05:40:27.000Z</time></trkpt>
<trkpt lat="42.201606" lon="23.383656"><ele>1821.6</ele><time>2026-03-02T05:40:28.000Z</time></trkpt>
<trkpt lat="42.201596" lon="23.383641"><ele>1821.6</ele><time>2026-03-02T05:40:29.000Z</time></trkpt>
<trkpt lat="42.201586" lon="23.383627"><ele>1822.3</ele><time>2026-03-02T05:40:30.000Z</time></trkpt>
<trkpt lat="42.201575" lon="23.383615"><ele>1822.3</ele><time>2026-03-02T05:40:31.000Z</time></trkpt>
<trkpt lat="42.201564" lon="23.383604"><ele>1822.3</ele><time>2026-03-02T05:40:32.000Z</time></trkpt>
<trkpt lat="42.201551" lon="23.383592"><ele>1822.3</ele><time>2026-03-02T05:40:33.000Z</time></trkpt>
<trkpt lat="42.201539" lon="23.383582"><ele>1822.3</ele><time>2026-03-02T05:40:34.000Z</time></trkpt>
<trkpt lat="42.201526" lon="23.383571"><ele>1822.8</ele><time>2026-03-02T05:40:35.000Z</time></trkpt>
<trkpt lat="42.201513" lon="23.38356"><ele>1822.8</ele><time>2026-03-02T05:40:36.000Z</time></trkpt>
<trkpt lat="42.2015" lon="23.383548"><ele>1822.8</ele><time>2026-03-02T05:40:37.000Z</time></trkpt>
<trkpt lat="42.201489" lon="23.383535"><ele>1822.8</ele><time>2026-03-02T05:40:38.000Z</time></trkpt>
<trkpt lat="42.201478" lon="23.383521"><ele>1822.8</ele><time>2026-03-02T05:40:39.000Z</time></trkpt>
<trkpt lat="42.201468" lon="23.383507"><ele>1823</ele><time>2026-03-02T05:40:40.000Z</time></trkpt>
<trkpt lat="42.201459" lon="23.383494"><ele>1823</ele><time>2026-03-02T05:40:41.000Z</time></trkpt>
<trkpt lat="42.20145" lon="23.38348"><ele>1823</ele><time>2026-03-02T05:40:42.000Z</time></trkpt>
<trkpt lat="42.201441" lon="23.383468"><ele>1823</ele><time>2026-03-02T05:40:43.000Z</time></trkpt>
<trkpt lat="42.201431" lon="23.383456"><ele>1823</ele><time>2026-03-02T05:40:44.000Z</time></trkpt>
<trkpt lat="42.201421" lon="23.383444"><ele>1823.4</ele><time>2026-03-02T05:40:45.000Z</time></trkpt>
<trkpt lat="42.20141" lon="23.383432"><ele>1823.4</ele><time>2026-03-02T05:40:46.000Z</time></trkpt>
<trkpt lat="42.201398" lon="23.383421"><ele>1823.4</ele><time>2026-03-02T05:40:47.000Z</time></trkpt>
<trkpt lat="42.201386" lon="23.38341"><ele>1823.4</ele><time>2026-03-02T05:40:48.000Z</time></trkpt>
<trkpt lat="42.201373" lon="23.383401"><ele>1823.4</ele><time>2026-03-02T05:40:49.000Z</time></trkpt>
<trkpt lat="42.20136" lon="23.383392"><ele>1823.7</ele><time>2026-03-02T05:40:50.000Z</time></trkpt>
<trkpt lat="42.201347" lon="23.383386"><ele>1823.7</ele><time>2026-03-02T05:40:51.000Z</time></trkpt>
<trkpt lat="42.201336" lon="23.383379"><ele>1823.7</ele><time>2026-03-02T05:40:52.000Z</time></trkpt>
<trkpt lat="42.201325" lon="23.383374"><ele>1823.7</ele><time>2026-03-02T05:40:53.000Z</time></trkpt>
<trkpt lat="42.201314" lon="23.383371"><ele>1823.7</ele><time>2026-03-02T05:40:54.000Z</time></trkpt>
<trkpt lat="42.201303" lon="23.383368"><ele>1824</ele><time>2026-03-02T05:40:55.000Z</time></trkpt>
<trkpt lat="42.201292" lon="23.383366"><ele>1824</ele><time>2026-03-02T05:40:56.000Z</time></trkpt>
<trkpt lat="42.201282" lon="23.383364"><ele>1824</ele><time>2026-03-02T05:40:57.000Z</time></trkpt>
<trkpt lat="42.201272" lon="23.383363"><ele>1824</ele><time>2026-03-02T05:40:58.000Z</time></trkpt>
<trkpt lat="42.201264" lon="23.38336"><ele>1824</ele><time>2026-03-02T05:40:59.000Z</time></trkpt>
<trkpt lat="42.201256" lon="23.383354"><ele>1824.7</ele><time>2026-03-02T05:41:00.000Z</time></trkpt>
<trkpt lat="42.201247" lon="23.383348"><ele>1824.7</ele><time>2026-03-02T05:41:01.000Z</time></trkpt>
<trkpt lat="42.20124" lon="23.383341"><ele>1824.7</ele><time>2026-03-02T05:41:02.000Z</time></trkpt>
<trkpt lat="42.201232" lon="23.383332"><ele>1824.7</ele><time>2026-03-02T05:41:03.000Z</time></trkpt>
<trkpt lat="42.201222" lon="23.383323"><ele>1824.7</ele><time>2026-03-02T05:41:04.000Z</time></trkpt>
<trkpt lat="42.201212" lon="23.383315"><ele>1825.6</ele><time>2026-03-02T05:41:05.000Z</time></trkpt>
<trkpt lat="42.201202" lon="23.383306"><ele>1825.6</ele><time>2026-03-02T05:41:06.000Z</time></trkpt>
<trkpt lat="42.20119" lon="23.383296"><ele>1825.6</ele><time>2026-03-02T05:41:07.000Z</time></trkpt>
<trkpt lat="42.201179" lon="23.383287"><ele>1825.6</ele><time>2026-03-02T05:41:08.000Z</time></trkpt>
<trkpt lat="42.201168" lon="23.383277"><ele>1825.6</ele><time>2026-03-02T05:41:09.000Z</time></trkpt>
<trkpt lat="42.201157" lon="23.383269"><ele>1826.1</ele><time>2026-03-02T05:41:10.000Z</time></trkpt>
<trkpt lat="42.201146" lon="23.383261"><ele>1826.1</ele><time>2026-03-02T05:41:11.000Z</time></trkpt>
<trkpt lat="42.201134" lon="23.383254"><ele>1826.1</ele><time>2026-03-02T05:41:12.000Z</time></trkpt>
<trkpt lat="42.201122" lon="23.383249"><ele>1826.1</ele><time>2026-03-02T05:41:13.000Z</time></trkpt>
<trkpt lat="42.201111" lon="23.383244"><ele>1826.1</ele><time>2026-03-02T05:41:14.000Z</time></trkpt>
<trkpt lat="42.2011" lon="23.38324"><ele>1827.1</ele><time>2026-03-02T05:41:15.000Z</time></trkpt>
<trkpt lat="42.201088" lon="23.383233"><ele>1827.1</ele><time>2026-03-02T05:41:16.000Z</time></trkpt>
<trkpt lat="42.201076" lon="23.383226"><ele>1827.1</ele><time>2026-03-02T05:41:17.000Z</time></trkpt>
<trkpt lat="42.201065" lon="23.383218"><ele>1827.1</ele><time>2026-03-02T05:41:18.000Z</time></trkpt>
<trkpt lat="42.201052" lon="23.38321"><ele>1827.1</ele><time>2026-03-02T05:41:19.000Z</time></trkpt>
<trkpt lat="42.201039" lon="23.383203"><ele>1827.9</ele><time>2026-03-02T05:41:20.000Z</time></trkpt>
<trkpt lat="42.201028" lon="23.383197"><ele>1827.9</ele><time>2026-03-02T05:41:21.000Z</time></trkpt>
<trkpt lat="42.201016" lon="23.383192"><ele>1827.9</ele><time>2026-03-02T05:41:22.000Z</time></trkpt>
<trkpt lat="42.201005" lon="23.383187"><ele>1827.9</ele><time>2026-03-02T05:41:23.000Z</time></trkpt>
<trkpt lat="42.200995" lon="23.383181"><ele>1827.9</ele><time>2026-03-02T05:41:24.000Z</time></trkpt>
<trkpt lat="42.200985" lon="23.383173"><ele>1828.3</ele><time>2026-03-02T05:41:25.000Z</time></trkpt>
<trkpt lat="42.200975" lon="23.383166"><ele>1828.3</ele><time>2026-03-02T05:41:26.000Z</time></trkpt>
<trkpt lat="42.200966" lon="23.383158"><ele>1828.3</ele><time>2026-03-02T05:41:27.000Z</time></trkpt>
<trkpt lat="42.200958" lon="23.383149"><ele>1828.3</ele><time>2026-03-02T05:41:28.000Z</time></trkpt>
<trkpt lat="42.20095" lon="23.383141"><ele>1828.3</ele><time>2026-03-02T05:41:29.000Z</time></trkpt>
<trkpt lat="42.200942" lon="23.383134"><ele>1828.9</ele><time>2026-03-02T05:41:30.000Z</time></trkpt>
<trkpt lat="42.200935" lon="23.383128"><ele>1828.9</ele><time>2026-03-02T05:41:31.000Z</time></trkpt>
<trkpt lat="42.200928" lon="23.383122"><ele>1828.9</ele><time>2026-03-02T05:41:32.000Z</time></trkpt>
<trkpt lat="42.200921" lon="23.383117"><ele>1828.9</ele><time>2026-03-02T05:41:33.000Z</time></trkpt>
<trkpt lat="42.200913" lon="23.383112"><ele>1828.9</ele><time>2026-03-02T05:41:34.000Z</time></trkpt>
<trkpt lat="42.200906" lon="23.383107"><ele>1829.8</ele><time>2026-03-02T05:41:35.000Z</time></trkpt>
<trkpt lat="42.200898" lon="23.383101"><ele>1829.8</ele><time>2026-03-02T05:41:36.000Z</time></trkpt>
<trkpt lat="42.20089" lon="23.383095"><ele>1829.8</ele><time>2026-03-02T05:41:37.000Z</time></trkpt>
<trkpt lat="42.200881" lon="23.383089"><ele>1829.8</ele><time>2026-03-02T05:41:38.000Z</time></trkpt>
<trkpt lat="42.200871" lon="23.383084"><ele>1829.8</ele><time>2026-03-02T05:41:39.000Z</time></trkpt>
<trkpt lat="42.20086" lon="23.383079"><ele>1830.3</ele><time>2026-03-02T05:41:40.000Z</time></trkpt>
<trkpt lat="42.20085" lon="23.383075"><ele>1830.3</ele><time>2026-03-02T05:41:41.000Z</time></trkpt>
<trkpt lat="42.20084" lon="23.383069"><ele>1830.3</ele><time>2026-03-02T05:41:42.000Z</time></trkpt>
<trkpt lat="42.20083" lon="23.383063"><ele>1830.3</ele><time>2026-03-02T05:41:43.000Z</time></trkpt>
<trkpt lat="42.20082" lon="23.383055"><ele>1830.3</ele><time>2026-03-02T05:41:44.000Z</time></trkpt>
<trkpt lat="42.20081" lon="23.383046"><ele>1831.2</ele><time>2026-03-02T05:41:45.000Z</time></trkpt>
<trkpt lat="42.200799" lon="23.383037"><ele>1831.2</ele><time>2026-03-02T05:41:46.000Z</time></trkpt>
<trkpt lat="42.200788" lon="23.383027"><ele>1831.2</ele><time>2026-03-02T05:41:47.000Z</time></trkpt>
<trkpt lat="42.200778" lon="23.383016"><ele>1831.2</ele><time>2026-03-02T05:41:48.000Z</time></trkpt>
<trkpt lat="42.200769" lon="23.383006"><ele>1831.2</ele><time>2026-03-02T05:41:49.000Z</time></trkpt>
<trkpt lat="42.200759" lon="23.382996"><ele>1832.1</ele><time>2026-03-02T05:41:50.000Z</time></trkpt>
<trkpt lat="42.20075" lon="23.382985"><ele>1832.1</ele><time>2026-03-02T05:41:51.000Z</time></trkpt>
<trkpt lat="42.200741" lon="23.382976"><ele>1832.1</ele><time>2026-03-02T05:41:52.000Z</time></trkpt>
<trkpt lat="42.200732" lon="23.382966"><ele>1832.1</ele><time>2026-03-02T05:41:53.000Z</time></trkpt>
<trkpt lat="42.200722" lon="23.382958"><ele>1832.1</ele><time>2026-03-02T05:41:54.000Z</time></trkpt>
<trkpt lat="42.200711" lon="23.38295"><ele>1832.6</ele><time>2026-03-02T05:41:55.000Z</time></trkpt>
<trkpt lat="42.200699" lon="23.382942"><ele>1832.6</ele><time>2026-03-02T05:41:56.000Z</time></trkpt>
<trkpt lat="42.200689" lon="23.382935"><ele>1832.6</ele><time>2026-03-02T05:41:57.000Z</time></trkpt>
<trkpt lat="42.200678" lon="23.382928"><ele>1832.6</ele><time>2026-03-02T05:41:58.000Z</time></trkpt>
<trkpt lat="42.200667" lon="23.38292"><ele>1832.6</ele><time>2026-03-02T05:41:59.000Z</time></trkpt>
<trkpt lat="42.200658" lon="23.38291"><ele>1833.5</ele><time>2026-03-02T05:42:00.000Z</time></trkpt>
<trkpt lat="42.200649" lon="23.382899"><ele>1833.5</ele><time>2026-03-02T05:42:01.000Z</time></trkpt>
<trkpt lat="42.200641" lon="23.38289"><ele>1833.5</ele><time>2026-03-02T05:42:02.000Z</time></trkpt>
<trkpt lat="42.200631" lon="23.382881"><ele>1833.5</ele><time>2026-03-02T05:42:03.000Z</time></trkpt>
<trkpt lat="42.200622" lon="23.382874"><ele>1833.5</ele><time>2026-03-02T05:42:04.000Z</time></trkpt>
<trkpt lat="42.200608" lon="23.382869"><ele>1834.3</ele><time>2026-03-02T05:42:05.000Z</time></trkpt>
<trkpt lat="42.200595" lon="23.382865"><ele>1834.3</ele><time>2026-03-02T05:42:06.000Z</time></trkpt>
<trkpt lat="42.200581" lon="23.382859"><ele>1834.3</ele><time>2026-03-02T05:42:07.000Z</time></trkpt>
<trkpt lat="42.200568" lon="23.382854"><ele>1834.3</ele><time>2026-03-02T05:42:08.000Z</time></trkpt>
<trkpt lat="42.200555" lon="23.382847"><ele>1834.3</ele><time>2026-03-02T05:42:09.000Z</time></trkpt>
<trkpt lat="42.200546" lon="23.382839"><ele>1834.7</ele><time>2026-03-02T05:42:10.000Z</time></trkpt>
<trkpt lat="42.200538" lon="23.382831"><ele>1834.7</ele><time>2026-03-02T05:42:11.000Z</time></trkpt>
<trkpt lat="42.20053" lon="23.382823"><ele>1834.7</ele><time>2026-03-02T05:42:12.000Z</time></trkpt>
<trkpt lat="42.200523" lon="23.382816"><ele>1834.7</ele><time>2026-03-02T05:42:13.000Z</time></trkpt>
<trkpt lat="42.200515" lon="23.382808"><ele>1834.7</ele><time>2026-03-02T05:42:14.000Z</time></trkpt>
<trkpt lat="42.200507" lon="23.3828"><ele>1835.7</ele><time>2026-03-02T05:42:15.000Z</time></trkpt>
<trkpt lat="42.200499" lon="23.382793"><ele>1835.7</ele><time>2026-03-02T05:42:16.000Z</time></trkpt>
<trkpt lat="42.200492" lon="23.382786"><ele>1835.7</ele><time>2026-03-02T05:42:17.000Z</time></trkpt>
<trkpt lat="42.200484" lon="23.382779"><ele>1835.7</ele><time>2026-03-02T05:42:18.000Z</time></trkpt>
<trkpt lat="42.200475" lon="23.382772"><ele>1835.7</ele><time>2026-03-02T05:42:19.000Z</time></trkpt>
<trkpt lat="42.200466" lon="23.382766"><ele>1836.9</ele><time>2026-03-02T05:42:20.000Z</time></trkpt>
<trkpt lat="42.200457" lon="23.382759"><ele>1836.9</ele><time>2026-03-02T05:42:21.000Z</time></trkpt>
<trkpt lat="42.200447" lon="23.382753"><ele>1836.9</ele><time>2026-03-02T05:42:22.000Z</time></trkpt>
<trkpt lat="42.200437" lon="23.382746"><ele>1836.9</ele><time>2026-03-02T05:42:23.000Z</time></trkpt>
<trkpt lat="42.200426" lon="23.382739"><ele>1836.9</ele><time>2026-03-02T05:42:24.000Z</time></trkpt>
<trkpt lat="42.200416" lon="23.38273"><ele>1837.4</ele><time>2026-03-02T05:42:25.000Z</time></trkpt>
<trkpt lat="42.200405" lon="23.382722"><ele>1837.4</ele><time>2026-03-02T05:42:26.000Z</time></trkpt>
<trkpt lat="42.200394" lon="23.382713"><ele>1837.4</ele><time>2026-03-02T05:42:27.000Z</time></trkpt>
<trkpt lat="42.200383" lon="23.382705"><ele>1837.4</ele><time>2026-03-02T05:42:28.000Z</time></trkpt>
<trkpt lat="42.200373" lon="23.382697"><ele>1837.4</ele><time>2026-03-02T05:42:29.000Z</time></trkpt>
<trkpt lat="42.200363" lon="23.382691"><ele>1838.5</ele><time>2026-03-02T05:42:30.000Z</time></trkpt>
<trkpt lat="42.200353" lon="23.382685"><ele>1838.5</ele><time>2026-03-02T05:42:31.000Z</time></trkpt>
<trkpt lat="42.200343" lon="23.382679"><ele>1838.5</ele><time>2026-03-02T05:42:32.000Z</time></trkpt>
<trkpt lat="42.200333" lon="23.382673"><ele>1838.5</ele><time>2026-03-02T05:42:33.000Z</time></trkpt>
<trkpt lat="42.200323" lon="23.382667"><ele>1838.5</ele><time>2026-03-02T05:42:34.000Z</time></trkpt>
<trkpt lat="42.200312" lon="23.382663"><ele>1839.7</ele><time>2026-03-02T05:42:35.000Z</time></trkpt>
<trkpt lat="42.200303" lon="23.382659"><ele>1839.7</ele><time>2026-03-02T05:42:36.000Z</time></trkpt>
<trkpt lat="42.200293" lon="23.382656"><ele>1839.7</ele><time>2026-03-02T05:42:37.000Z</time></trkpt>
<trkpt lat="42.200281" lon="23.382654"><ele>1839.7</ele><time>2026-03-02T05:42:38.000Z</time></trkpt>
<trkpt lat="42.200269" lon="23.382653"><ele>1839.7</ele><time>2026-03-02T05:42:39.000Z</time></trkpt>
<trkpt lat="42.200257" lon="23.382652"><ele>1840.2</ele><time>2026-03-02T05:42:40.000Z</time></trkpt>
<trkpt lat="42.200244" lon="23.382652"><ele>1840.2</ele><time>2026-03-02T05:42:41.000Z</time></trkpt>
<trkpt lat="42.200232" lon="23.382652"><ele>1840.2</ele><time>2026-03-02T05:42:42.000Z</time></trkpt>
<trkpt lat="42.200219" lon="23.382649"><ele>1840.2</ele><time>2026-03-02T05:42:43.000Z</time></trkpt>
<trkpt lat="42.200207" lon="23.382646"><ele>1840.2</ele><time>2026-03-02T05:42:44.000Z</time></trkpt>
<trkpt lat="42.200195" lon="23.382641"><ele>1841.3</ele><time>2026-03-02T05:42:45.000Z</time></trkpt>
<trkpt lat="42.200184" lon="23.382635"><ele>1841.3</ele><time>2026-03-02T05:42:46.000Z</time></trkpt>
<trkpt lat="42.200174" lon="23.382628"><ele>1841.3</ele><time>2026-03-02T05:42:47.000Z</time></trkpt>
<trkpt lat="42.200163" lon="23.382622"><ele>1841.3</ele><time>2026-03-02T05:42:48.000Z</time></trkpt>
<trkpt lat="42.200153" lon="23.382614"><ele>1841.3</ele><time>2026-03-02T05:42:49.000Z</time></trkpt>
<trkpt lat="42.200144" lon="23.382607"><ele>1842.3</ele><time>2026-03-02T05:42:50.000Z</time></trkpt>
<trkpt lat="42.200136" lon="23.382599"><ele>1842.3</ele><time>2026-03-02T05:42:51.000Z</time></trkpt>
<trkpt lat="42.200127" lon="23.382591"><ele>1842.3</ele><time>2026-03-02T05:42:52.000Z</time></trkpt>
<trkpt lat="42.200119" lon="23.382584"><ele>1842.3</ele><time>2026-03-02T05:42:53.000Z</time></trkpt>
<trkpt lat="42.200109" lon="23.382578"><ele>1842.3</ele><time>2026-03-02T05:42:54.000Z</time></trkpt>
<trkpt lat="42.200099" lon="23.382573"><ele>1842.9</ele><time>2026-03-02T05:42:55.000Z</time></trkpt>
<trkpt lat="42.200088" lon="23.382569"><ele>1842.9</ele><time>2026-03-02T05:42:56.000Z</time></trkpt>
<trkpt lat="42.200077" lon="23.382566"><ele>1842.9</ele><time>2026-03-02T05:42:57.000Z</time></trkpt>
<trkpt lat="42.200065" lon="23.382563"><ele>1842.9</ele><time>2026-03-02T05:42:58.000Z</time></trkpt>
<trkpt lat="42.200054" lon="23.38256"><ele>1842.9</ele><time>2026-03-02T05:42:59.000Z</time></trkpt>
<trkpt lat="42.200043" lon="23.382557"><ele>1844</ele><time>2026-03-02T05:43:00.000Z</time></trkpt>
<trkpt lat="42.200031" lon="23.382554"><ele>1844</ele><time>2026-03-02T05:43:01.000Z</time></trkpt>
<trkpt lat="42.200019" lon="23.382551"><ele>1844</ele><time>2026-03-02T05:43:02.000Z</time></trkpt>
<trkpt lat="42.200007" lon="23.382545"><ele>1844</ele><time>2026-03-02T05:43:03.000Z</time></trkpt>
<trkpt lat="42.199996" lon="23.382539"><ele>1844</ele><time>2026-03-02T05:43:04.000Z</time></trkpt>
<trkpt lat="42.199983" lon="23.382533"><ele>1844.9</ele><time>2026-03-02T05:43:05.000Z</time></trkpt>
<trkpt lat="42.199971" lon="23.382526"><ele>1844.9</ele><time>2026-03-02T05:43:06.000Z</time></trkpt>
<trkpt lat="42.19996" lon="23.38252"><ele>1844.9</ele><time>2026-03-02T05:43:07.000Z</time></trkpt>
<trkpt lat="42.199949" lon="23.382514"><ele>1844.9</ele><time>2026-03-02T05:43:08.000Z</time></trkpt>
<trkpt lat="42.199936" lon="23.382508"><ele>1844.9</ele><time>2026-03-02T05:43:09.000Z</time></trkpt>
<trkpt lat="42.199925" lon="23.382502"><ele>1845.3</ele><time>2026-03-02T05:43:10.000Z</time></trkpt>
<trkpt lat="42.199915" lon="23.382497"><ele>1845.3</ele><time>2026-03-02T05:43:11.000Z</time></trkpt>
<trkpt lat="42.199903" lon="23.382492"><ele>1845.3</ele><time>2026-03-02T05:43:12.000Z</time></trkpt>
<trkpt lat="42.199893" lon="23.382486"><ele>1845.3</ele><time>2026-03-02T05:43:13.000Z</time></trkpt>
<trkpt lat="42.199885" lon="23.382481"><ele>1845.3</ele><time>2026-03-02T05:43:14.000Z</time></trkpt>
<trkpt lat="42.199876" lon="23.382475"><ele>1846</ele><time>2026-03-02T05:43:15.000Z</time></trkpt>
<trkpt lat="42.199867" lon="23.38247"><ele>1846</ele><time>2026-03-02T05:43:16.000Z</time></trkpt>
<trkpt lat="42.199858" lon="23.382465"><ele>1846</ele><time>2026-03-02T05:43:17.000Z</time></trkpt>
<trkpt lat="42.199849" lon="23.38246"><ele>1846</ele><time>2026-03-02T05:43:18.000Z</time></trkpt>
<trkpt lat="42.199839" lon="23.382456"><ele>1846</ele><time>2026-03-02T05:43:19.000Z</time></trkpt>
<trkpt lat="42.19983" lon="23.382453"><ele>1846.6</ele><time>2026-03-02T05:43:20.000Z</time></trkpt>
<trkpt lat="42.199819" lon="23.382451"><ele>1846.6</ele><time>2026-03-02T05:43:21.000Z</time></trkpt>
<trkpt lat="42.199808" lon="23.382448"><ele>1846.6</ele><time>2026-03-02T05:43:22.000Z</time></trkpt>
<trkpt lat="42.199797" lon="23.382445"><ele>1846.6</ele><time>2026-03-02T05:43:23.000Z</time></trkpt>
<trkpt lat="42.199786" lon="23.38244"><ele>1846.6</ele><time>2026-03-02T05:43:24.000Z</time></trkpt>
<trkpt lat="42.199774" lon="23.382434"><ele>1846.8</ele><time>2026-03-02T05:43:25.000Z</time></trkpt>
<trkpt lat="42.199763" lon="23.382426"><ele>1846.8</ele><time>2026-03-02T05:43:26.000Z</time></trkpt>
<trkpt lat="42.199754" lon="23.382417"><ele>1846.8</ele><time>2026-03-02T05:43:27.000Z</time></trkpt>
<trkpt lat="42.199744" lon="23.382408"><ele>1846.8</ele><time>2026-03-02T05:43:28.000Z</time></trkpt>
<trkpt lat="42.199735" lon="23.382398"><ele>1846.8</ele><time>2026-03-02T05:43:29.000Z</time></trkpt>
<trkpt lat="42.199726" lon="23.382388"><ele>1847.2</ele><time>2026-03-02T05:43:30.000Z</time></trkpt>
<trkpt lat="42.199717" lon="23.382378"><ele>1847.2</ele><time>2026-03-02T05:43:31.000Z</time></trkpt>
<trkpt lat="42.199707" lon="23.382367"><ele>1847.2</ele><time>2026-03-02T05:43:32.000Z</time></trkpt>
<trkpt lat="42.199697" lon="23.382355"><ele>1847.2</ele><time>2026-03-02T05:43:33.000Z</time></trkpt>
<trkpt lat="42.199687" lon="23.382342"><ele>1847.2</ele><time>2026-03-02T05:43:34.000Z</time></trkpt>
<trkpt lat="42.199675" lon="23.38233"><ele>1847.6</ele><time>2026-03-02T05:43:35.000Z</time></trkpt>
<trkpt lat="42.199665" lon="23.382317"><ele>1847.6</ele><time>2026-03-02T05:43:36.000Z</time></trkpt>
<trkpt lat="42.199654" lon="23.382306"><ele>1847.6</ele><time>2026-03-02T05:43:37.000Z</time></trkpt>
<trkpt lat="42.199644" lon="23.382295"><ele>1847.6</ele><time>2026-03-02T05:43:38.000Z</time></trkpt>
<trkpt lat="42.199633" lon="23.382285"><ele>1847.6</ele><time>2026-03-02T05:43:39.000Z</time></trkpt>
<trkpt lat="42.199623" lon="23.382274"><ele>1847.8</ele><time>2026-03-02T05:43:40.000Z</time></trkpt>
<trkpt lat="42.199612" lon="23.382263"><ele>1847.8</ele><time>2026-03-02T05:43:41.000Z</time></trkpt>
<trkpt lat="42.199602" lon="23.382251"><ele>1847.8</ele><time>2026-03-02T05:43:42.000Z</time></trkpt>
<trkpt lat="42.199594" lon="23.382239"><ele>1847.8</ele><time>2026-03-02T05:43:43.000Z</time></trkpt>
<trkpt lat="42.199585" lon="23.382227"><ele>1847.8</ele><time>2026-03-02T05:43:44.000Z</time></trkpt>
<trkpt lat="42.199578" lon="23.382215"><ele>1848.1</ele><time>2026-03-02T05:43:45.000Z</time></trkpt>
<trkpt lat="42.19957" lon="23.382203"><ele>1848.1</ele><time>2026-03-02T05:43:46.000Z</time></trkpt>
<trkpt lat="42.199562" lon="23.382191"><ele>1848.1</ele><time>2026-03-02T05:43:47.000Z</time></trkpt>
<trkpt lat="42.199554" lon="23.38218"><ele>1848.1</ele><time>2026-03-02T05:43:48.000Z</time></trkpt>
<trkpt lat="42.199546" lon="23.38217"><ele>1848.1</ele><time>2026-03-02T05:43:49.000Z</time></trkpt>
<trkpt lat="42.199537" lon="23.38216"><ele>1848.3</ele><time>2026-03-02T05:43:50.000Z</time></trkpt>
<trkpt lat="42.19953" lon="23.38215"><ele>1848.3</ele><time>2026-03-02T05:43:51.000Z</time></trkpt>
<trkpt lat="42.199522" lon="23.382139"><ele>1848.3</ele><time>2026-03-02T05:43:52.000Z</time></trkpt>
<trkpt lat="42.199515" lon="23.382127"><ele>1848.3</ele><time>2026-03-02T05:43:53.000Z</time></trkpt>
<trkpt lat="42.199508" lon="23.382115"><ele>1848.3</ele><time>2026-03-02T05:43:54.000Z</time></trkpt>
<trkpt lat="42.1995" lon="23.382104"><ele>1848.3</ele><time>2026-03-02T05:43:55.000Z</time></trkpt>
<trkpt lat="42.199493" lon="23.382092"><ele>1848.3</ele><time>2026-03-02T05:43:56.000Z</time></trkpt>
<trkpt lat="42.199485" lon="23.38208"><ele>1848.3</ele><time>2026-03-02T05:43:57.000Z</time></trkpt>
<trkpt lat="42.199476" lon="23.38207"><ele>1848.3</ele><time>2026-03-02T05:43:58.000Z</time></trkpt>
<trkpt lat="42.199467" lon="23.38206"><ele>1848.3</ele><time>2026-03-02T05:43:59.000Z</time></trkpt>
<trkpt lat="42.199457" lon="23.382052"><ele>1848.6</ele><time>2026-03-02T05:44:00.000Z</time></trkpt>
<trkpt lat="42.199448" lon="23.382043"><ele>1848.6</ele><time>2026-03-02T05:44:01.000Z</time></trkpt>
<trkpt lat="42.19944" lon="23.382034"><ele>1848.6</ele><time>2026-03-02T05:44:02.000Z</time></trkpt>
<trkpt lat="42.199431" lon="23.382024"><ele>1848.6</ele><time>2026-03-02T05:44:03.000Z</time></trkpt>
<trkpt lat="42.199424" lon="23.382014"><ele>1848.6</ele><time>2026-03-02T05:44:04.000Z</time></trkpt>
<trkpt lat="42.199417" lon="23.382003"><ele>1849.1</ele><time>2026-03-02T05:44:05.000Z</time></trkpt>
<trkpt lat="42.19941" lon="23.381993"><ele>1849.1</ele><time>2026-03-02T05:44:06.000Z</time></trkpt>
<trkpt lat="42.199403" lon="23.381983"><ele>1849.1</ele><time>2026-03-02T05:44:07.000Z</time></trkpt>
<trkpt lat="42.199396" lon="23.381973"><ele>1849.1</ele><time>2026-03-02T05:44:08.000Z</time></trkpt>
<trkpt lat="42.199389" lon="23.381962"><ele>1849.1</ele><time>2026-03-02T05:44:09.000Z</time></trkpt>
<trkpt lat="42.199383" lon="23.381949"><ele>1849.4</ele><time>2026-03-02T05:44:10.000Z</time></trkpt>
<trkpt lat="42.199376" lon="23.381937"><ele>1849.4</ele><time>2026-03-02T05:44:11.000Z</time></trkpt>
<trkpt lat="42.199369" lon="23.381925"><ele>1849.4</ele><time>2026-03-02T05:44:12.000Z</time></trkpt>
<trkpt lat="42.199363" lon="23.381914"><ele>1849.4</ele><time>2026-03-02T05:44:13.000Z</time></trkpt>
<trkpt lat="42.199358" lon="23.381902"><ele>1849.4</ele><time>2026-03-02T05:44:14.000Z</time></trkpt>
<trkpt lat="42.199354" lon="23.38189"><ele>1850.3</ele><time>2026-03-02T05:44:15.000Z</time></trkpt>
<trkpt lat="42.199349" lon="23.381878"><ele>1850.3</ele><time>2026-03-02T05:44:16.000Z</time></trkpt>
<trkpt lat="42.199344" lon="23.381866"><ele>1850.3</ele><time>2026-03-02T05:44:17.000Z</time></trkpt>
<trkpt lat="42.199338" lon="23.381855"><ele>1850.3</ele><time>2026-03-02T05:44:18.000Z</time></trkpt>
<trkpt lat="42.199331" lon="23.381843"><ele>1850.3</ele><time>2026-03-02T05:44:19.000Z</time></trkpt>
<trkpt lat="42.199322" lon="23.381832"><ele>1851.2</ele><time>2026-03-02T05:44:20.000Z</time></trkpt>
<trkpt lat="42.199313" lon="23.38182"><ele>1851.2</ele><time>2026-03-02T05:44:21.000Z</time></trkpt>
<trkpt lat="42.199304" lon="23.381808"><ele>1851.2</ele><time>2026-03-02T05:44:22.000Z</time></trkpt>
<trkpt lat="42.199297" lon="23.381796"><ele>1851.2</ele><time>2026-03-02T05:44:23.000Z</time></trkpt>
<trkpt lat="42.19929" lon="23.381783"><ele>1851.2</ele><time>2026-03-02T05:44:24.000Z</time></trkpt>
<trkpt lat="42.199284" lon="23.381769"><ele>1851.7</ele><time>2026-03-02T05:44:25.000Z</time></trkpt>
<trkpt lat="42.199277" lon="23.381754"><ele>1851.7</ele><time>2026-03-02T05:44:26.000Z</time></trkpt>
<trkpt lat="42.199271" lon="23.381739"><ele>1851.7</ele><time>2026-03-02T05:44:27.000Z</time></trkpt>
<trkpt lat="42.199264" lon="23.381724"><ele>1851.7</ele><time>2026-03-02T05:44:28.000Z</time></trkpt>
<trkpt lat="42.199258" lon="23.38171"><ele>1851.7</ele><time>2026-03-02T05:44:29.000Z</time></trkpt>
<trkpt lat="42.199251" lon="23.381696"><ele>1852.4</ele><time>2026-03-02T05:44:30.000Z</time></trkpt>
<trkpt lat="42.199243" lon="23.381683"><ele>1852.4</ele><time>2026-03-02T05:44:31.000Z</time></trkpt>
<trkpt lat="42.199236" lon="23.381672"><ele>1852.4</ele><time>2026-03-02T05:44:32.000Z</time></trkpt>
<trkpt lat="42.199228" lon="23.381661"><ele>1852.4</ele><time>2026-03-02T05:44:33.000Z</time></trkpt>
<trkpt lat="42.199219" lon="23.381652"><ele>1852.4</ele><time>2026-03-02T05:44:34.000Z</time></trkpt>
<trkpt lat="42.199209" lon="23.381644"><ele>1852.9</ele><time>2026-03-02T05:44:35.000Z</time></trkpt>
<trkpt lat="42.199198" lon="23.381636"><ele>1852.9</ele><time>2026-03-02T05:44:36.000Z</time></trkpt>
<trkpt lat="42.199187" lon="23.381628"><ele>1852.9</ele><time>2026-03-02T05:44:37.000Z</time></trkpt>
<trkpt lat="42.199176" lon="23.381621"><ele>1852.9</ele><time>2026-03-02T05:44:38.000Z</time></trkpt>
<trkpt lat="42.199164" lon="23.381614"><ele>1852.9</ele><time>2026-03-02T05:44:39.000Z</time></trkpt>
<trkpt lat="42.199154" lon="23.381605"><ele>1853</ele><time>2026-03-02T05:44:40.000Z</time></trkpt>
<trkpt lat="42.199144" lon="23.381596"><ele>1853</ele><time>2026-03-02T05:44:41.000Z</time></trkpt>
<trkpt lat="42.199134" lon="23.381585"><ele>1853</ele><time>2026-03-02T05:44:42.000Z</time></trkpt>
<trkpt lat="42.199125" lon="23.381575"><ele>1853</ele><time>2026-03-02T05:44:43.000Z</time></trkpt>
<trkpt lat="42.199116" lon="23.381566"><ele>1853</ele><time>2026-03-02T05:44:44.000Z</time></trkpt>
<trkpt lat="42.199107" lon="23.381557"><ele>1853.4</ele><time>2026-03-02T05:44:45.000Z</time></trkpt>
<trkpt lat="42.199097" lon="23.38155"><ele>1853.4</ele><time>2026-03-02T05:44:46.000Z</time></trkpt>
<trkpt lat="42.199087" lon="23.381543"><ele>1853.4</ele><time>2026-03-02T05:44:47.000Z</time></trkpt>
<trkpt lat="42.199077" lon="23.381536"><ele>1853.4</ele><time>2026-03-02T05:44:48.000Z</time></trkpt>
<trkpt lat="42.199068" lon="23.38153"><ele>1853.4</ele><time>2026-03-02T05:44:49.000Z</time></trkpt>
<trkpt lat="42.19906" lon="23.381524"><ele>1854.1</ele><time>2026-03-02T05:44:50.000Z</time></trkpt>
<trkpt lat="42.199054" lon="23.381518"><ele>1854.1</ele><time>2026-03-02T05:44:51.000Z</time></trkpt>
<trkpt lat="42.19905" lon="23.381515"><ele>1854.1</ele><time>2026-03-02T05:44:52.000Z</time></trkpt>
<trkpt lat="42.199048" lon="23.381512"><ele>1854.1</ele><time>2026-03-02T05:44:53.000Z</time></trkpt>
<trkpt lat="42.199046" lon="23.381511"><ele>1854.1</ele><time>2026-03-02T05:44:54.000Z</time></trkpt>
<trkpt lat="42.199044" lon="23.381511"><ele>1854.6</ele><time>2026-03-02T05:44:55.000Z</time></trkpt>
<trkpt lat="42.199043" lon="23.381511"><ele>1854.6</ele><time>2026-03-02T05:44:56.000Z</time></trkpt>
<trkpt lat="42.199041" lon="23.381511"><ele>1854.6</ele><time>2026-03-02T05:44:57.000Z</time></trkpt>
<trkpt lat="42.199039" lon="23.381511"><ele>1854.6</ele><time>2026-03-02T05:44:58.000Z</time></trkpt>
<trkpt lat="42.199037" lon="23.381511"><ele>1854.6</ele><time>2026-03-02T05:44:59.000Z</time></trkpt>
<trkpt lat="42.199034" lon="23.38151"><ele>1855.5</ele><time>2026-03-02T05:45:00.000Z</time></trkpt>
<trkpt lat="42.19903" lon="23.381511"><ele>1855.5</ele><time>2026-03-02T05:45:01.000Z</time></trkpt>
<trkpt lat="42.199025" lon="23.38151"><ele>1855.5</ele><time>2026-03-02T05:45:02.000Z</time></trkpt>
<trkpt lat="42.199019" lon="23.381509"><ele>1855.5</ele><time>2026-03-02T05:45:03.000Z</time></trkpt>
<trkpt lat="42.199012" lon="23.381508"><ele>1855.5</ele><time>2026-03-02T05:45:04.000Z</time></trkpt>
<trkpt lat="42.199007" lon="23.381505"><ele>1856.1</ele><time>2026-03-02T05:45:05.000Z</time></trkpt>
<trkpt lat="42.199001" lon="23.381503"><ele>1856.1</ele><time>2026-03-02T05:45:06.000Z</time></trkpt>
<trkpt lat="42.198995" lon="23.3815"><ele>1856.1</ele><time>2026-03-02T05:45:07.000Z</time></trkpt>
<trkpt lat="42.19899" lon="23.381496"><ele>1856.1</ele><time>2026-03-02T05:45:08.000Z</time></trkpt>
<trkpt lat="42.198984" lon="23.381492"><ele>1856.1</ele><time>2026-03-02T05:45:09.000Z</time></trkpt>
<trkpt lat="42.198977" lon="23.381487"><ele>1856.2</ele><time>2026-03-02T05:45:10.000Z</time></trkpt>
<trkpt lat="42.19897" lon="23.381482"><ele>1856.2</ele><time>2026-03-02T05:45:11.000Z</time></trkpt>
<trkpt lat="42.198963" lon="23.381477"><ele>1856.2</ele><time>2026-03-02T05:45:12.000Z</time></trkpt>
<trkpt lat="42.198955" lon="23.381473"><ele>1856.2</ele><time>2026-03-02T05:45:13.000Z</time></trkpt>
<trkpt lat="42.198947" lon="23.381469"><ele>1856.2</ele><time>2026-03-02T05:45:14.000Z</time></trkpt>
<trkpt lat="42.19894" lon="23.381465"><ele>1856.3</ele><time>2026-03-02T05:45:15.000Z</time></trkpt>
<trkpt lat="42.198933" lon="23.381462"><ele>1856.3</ele><time>2026-03-02T05:45:16.000Z</time></trkpt>
<trkpt lat="42.198925" lon="23.381458"><ele>1856.3</ele><time>2026-03-02T05:45:17.000Z</time></trkpt>
<trkpt lat="42.198917" lon="23.381453"><ele>1856.3</ele><time>2026-03-02T05:45:18.000Z</time></trkpt>
<trkpt lat="42.198908" lon="23.381448"><ele>1856.3</ele><time>2026-03-02T05:45:19.000Z</time></trkpt>
<trkpt lat="42.198899" lon="23.381444"><ele>1856.8</ele><time>2026-03-02T05:45:20.000Z</time></trkpt>
<trkpt lat="42.198889" lon="23.381441"><ele>1856.8</ele><time>2026-03-02T05:45:21.000Z</time></trkpt>
<trkpt lat="42.198879" lon="23.381436"><ele>1856.8</ele><time>2026-03-02T05:45:22.000Z</time></trkpt>
<trkpt lat="42.19887" lon="23.381432"><ele>1856.8</ele><time>2026-03-02T05:45:23.000Z</time></trkpt>
<trkpt lat="42.19886" lon="23.381428"><ele>1856.8</ele><time>2026-03-02T05:45:24.000Z</time></trkpt>
<trkpt lat="42.19885" lon="23.381424"><ele>1857.1</ele><time>2026-03-02T05:45:25.000Z</time></trkpt>
<trkpt lat="42.198839" lon="23.381419"><ele>1857.1</ele><time>2026-03-02T05:45:26.000Z</time></trkpt>
<trkpt lat="42.198829" lon="23.381416"><ele>1857.1</ele><time>2026-03-02T05:45:27.000Z</time></trkpt>
<trkpt lat="42.198819" lon="23.381413"><ele>1857.1</ele><time>2026-03-02T05:45:28.000Z</time></trkpt>
<trkpt lat="42.19881" lon="23.381409"><ele>1857.1</ele><time>2026-03-02T05:45:29.000Z</time></trkpt>
<trkpt lat="42.1988" lon="23.381405"><ele>1858</ele><time>2026-03-02T05:45:30.000Z</time></trkpt>
<trkpt lat="42.19879" lon="23.381401"><ele>1858</ele><time>2026-03-02T05:45:31.000Z</time></trkpt>
<trkpt lat="42.198781" lon="23.381397"><ele>1858</ele><time>2026-03-02T05:45:32.000Z</time></trkpt>
<trkpt lat="42.198771" lon="23.381392"><ele>1858</ele><time>2026-03-02T05:45:33.000Z</time></trkpt>
<trkpt lat="42.198761" lon="23.381388"><ele>1858</ele><time>2026-03-02T05:45:34.000Z</time></trkpt>
<trkpt lat="42.198753" lon="23.381383"><ele>1859</ele><time>2026-03-02T05:45:35.000Z</time></trkpt>
<trkpt lat="42.198744" lon="23.381378"><ele>1859</ele><time>2026-03-02T05:45:36.000Z</time></trkpt>
<trkpt lat="42.198735" lon="23.381373"><ele>1859</ele><time>2026-03-02T05:45:37.000Z</time></trkpt>
<trkpt lat="42.198726" lon="23.381367"><ele>1859</ele><time>2026-03-02T05:45:38.000Z</time></trkpt>
<trkpt lat="42.198717" lon="23.381362"><ele>1859</ele><time>2026-03-02T05:45:39.000Z</time></trkpt>
<trkpt lat="42.198708" lon="23.381357"><ele>1859.4</ele><time>2026-03-02T05:45:40.000Z</time></trkpt>
<trkpt lat="42.198697" lon="23.381353"><ele>1859.4</ele><time>2026-03-02T05:45:41.000Z</time></trkpt>
<trkpt lat="42.198687" lon="23.38135"><ele>1859.4</ele><time>2026-03-02T05:45:42.000Z</time></trkpt>
<trkpt lat="42.198676" lon="23.381346"><ele>1859.4</ele><time>2026-03-02T05:45:43.000Z</time></trkpt>
<trkpt lat="42.198666" lon="23.381343"><ele>1859.4</ele><time>2026-03-02T05:45:44.000Z</time></trkpt>
<trkpt lat="42.198655" lon="23.381338"><ele>1860.1</ele><time>2026-03-02T05:45:45.000Z</time></trkpt>
<trkpt lat="42.198645" lon="23.381334"><ele>1860.1</ele><time>2026-03-02T05:45:46.000Z</time></trkpt>
<trkpt lat="42.198634" lon="23.38133"><ele>1860.1</ele><time>2026-03-02T05:45:47.000Z</time></trkpt>
<trkpt lat="42.198624" lon="23.381326"><ele>1860.1</ele><time>2026-03-02T05:45:48.000Z</time></trkpt>
<trkpt lat="42.198614" lon="23.381321"><ele>1860.1</ele><time>2026-03-02T05:45:49.000Z</time></trkpt>
<trkpt lat="42.198605" lon="23.381315"><ele>1860.7</ele><time>2026-03-02T05:45:50.000Z</time></trkpt>
<trkpt lat="42.198595" lon="23.38131"><ele>1860.7</ele><time>2026-03-02T05:45:51.000Z</time></trkpt>
<trkpt lat="42.198587" lon="23.381304"><ele>1860.7</ele><time>2026-03-02T05:45:52.000Z</time></trkpt>
<trkpt lat="42.198578" lon="23.381298"><ele>1860.7</ele><time>2026-03-02T05:45:53.000Z</time></trkpt>
<trkpt lat="42.198568" lon="23.381294"><ele>1860.7</ele><time>2026-03-02T05:45:54.000Z</time></trkpt>
<trkpt lat="42.198557" lon="23.38129"><ele>1861</ele><time>2026-03-02T05:45:55.000Z</time></trkpt>
<trkpt lat="42.198546" lon="23.381286"><ele>1861</ele><time>2026-03-02T05:45:56.000Z</time></trkpt>
<trkpt lat="42.198534" lon="23.381284"><ele>1861</ele><time>2026-03-02T05:45:57.000Z</time></trkpt>
<trkpt lat="42.198522" lon="23.381283"><ele>1861</ele><time>2026-03-02T05:45:58.000Z</time></trkpt>
<trkpt lat="42.19851" lon="23.381282"><ele>1861</ele><time>2026-03-02T05:45:59.000Z</time></trkpt>
<trkpt lat="42.198498" lon="23.381283"><ele>1861.8</ele><time>2026-03-02T05:46:00.000Z</time></trkpt>
<trkpt lat="42.198487" lon="23.381284"><ele>1861.8</ele><time>2026-03-02T05:46:01.000Z</time></trkpt>
<trkpt lat="42.198475" lon="23.381284"><ele>1861.8</ele><time>2026-03-02T05:46:02.000Z</time></trkpt>
<trkpt lat="42.198463" lon="23.381284"><ele>1861.8</ele><time>2026-03-02T05:46:03.000Z</time></trkpt>
<trkpt lat="42.198452" lon="23.381285"><ele>1861.8</ele><time>2026-03-02T05:46:04.000Z</time></trkpt>
<trkpt lat="42.198441" lon="23.381285"><ele>1862.5</ele><time>2026-03-02T05:46:05.000Z</time></trkpt>
<trkpt lat="42.198431" lon="23.381284"><ele>1862.5</ele><time>2026-03-02T05:46:06.000Z</time></trkpt>
<trkpt lat="42.19842" lon="23.381284"><ele>1862.5</ele><time>2026-03-02T05:46:07.000Z</time></trkpt>
<trkpt lat="42.19841" lon="23.381283"><ele>1862.5</ele><time>2026-03-02T05:46:08.000Z</time></trkpt>
<trkpt lat="42.1984" lon="23.381282"><ele>1862.5</ele><time>2026-03-02T05:46:09.000Z</time></trkpt>
<trkpt lat="42.198391" lon="23.381279"><ele>1862.8</ele><time>2026-03-02T05:46:10.000Z</time></trkpt>
<trkpt lat="42.198381" lon="23.381275"><ele>1862.8</ele><time>2026-03-02T05:46:11.000Z</time></trkpt>
<trkpt lat="42.198372" lon="23.381269"><ele>1862.8</ele><time>2026-03-02T05:46:12.000Z</time></trkpt>
<trkpt lat="42.198362" lon="23.381261"><ele>1862.8</ele><time>2026-03-02T05:46:13.000Z</time></trkpt>
<trkpt lat="42.198353" lon="23.381253"><ele>1862.8</ele><time>2026-03-02T05:46:14.000Z</time></trkpt>
<trkpt lat="42.198343" lon="23.381243"><ele>1863.5</ele><time>2026-03-02T05:46:15.000Z</time></trkpt>
<trkpt lat="42.198334" lon="23.381233"><ele>1863.5</ele><time>2026-03-02T05:46:16.000Z</time></trkpt>
<trkpt lat="42.198324" lon="23.381225"><ele>1863.5</ele><time>2026-03-02T05:46:17.000Z</time></trkpt>
<trkpt lat="42.198317" lon="23.381217"><ele>1863.5</ele><time>2026-03-02T05:46:18.000Z</time></trkpt>
<trkpt lat="42.198311" lon="23.38121"><ele>1863.5</ele><time>2026-03-02T05:46:19.000Z</time></trkpt>
<trkpt lat="42.198306" lon="23.381207"><ele>1864.4</ele><time>2026-03-02T05:46:20.000Z</time></trkpt>
<trkpt lat="42.198304" lon="23.381205"><ele>1864.4</ele><time>2026-03-02T05:46:21.000Z</time></trkpt>
<trkpt lat="42.198302" lon="23.381205"><ele>1864.4</ele><time>2026-03-02T05:46:22.000Z</time></trkpt>
<trkpt lat="42.1983" lon="23.381206"><ele>1864.4</ele><time>2026-03-02T05:46:23.000Z</time></trkpt>
<trkpt lat="42.198299" lon="23.381208"><ele>1864.4</ele><time>2026-03-02T05:46:24.000Z</time></trkpt>
<trkpt lat="42.198298" lon="23.381209"><ele>1864.8</ele><time>2026-03-02T05:46:25.000Z</time></trkpt>
<trkpt lat="42.198297" lon="23.38121"><ele>1864.8</ele><time>2026-03-02T05:46:26.000Z</time></trkpt>
<trkpt lat="42.198295" lon="23.38121"><ele>1864.8</ele><time>2026-03-02T05:46:27.000Z</time></trkpt>
<trkpt lat="42.198293" lon="23.38121"><ele>1864.8</ele><time>2026-03-02T05:46:28.000Z</time></trkpt>
<trkpt lat="42.19829" lon="23.38121"><ele>1864.8</ele><time>2026-03-02T05:46:29.000Z</time></trkpt>
<trkpt lat="42.198288" lon="23.381209"><ele>1865.4</ele><time>2026-03-02T05:46:30.000Z</time></trkpt>
<trkpt lat="42.198285" lon="23.381209"><ele>1865.4</ele><time>2026-03-02T05:46:31.000Z</time></trkpt>
<trkpt lat="42.198284" lon="23.381209"><ele>1865.4</ele><time>2026-03-02T05:46:32.000Z</time></trkpt>
<trkpt lat="42.198283" lon="23.381209"><ele>1865.4</ele><time>2026-03-02T05:46:33.000Z</time></trkpt>
<trkpt lat="42.198283" lon="23.381209"><ele>1865.4</ele><time>2026-03-02T05:46:34.000Z</time></trkpt>
<trkpt lat="42.198283" lon="23.38121"><ele>1865.7</ele><time>2026-03-02T05:46:35.000Z</time></trkpt>
<trkpt lat="42.198283" lon="23.38121"><ele>1865.7</ele><time>2026-03-02T05:46:36.000Z</time></trkpt>
<trkpt lat="42.198283" lon="23.38121"><ele>1865.7</ele><time>2026-03-02T05:46:37.000Z</time></trkpt>
<trkpt lat="42.198284" lon="23.38121"><ele>1865.7</ele><time>2026-03-02T05:46:38.000Z</time></trkpt>
<trkpt lat="42.198285" lon="23.381209"><ele>1865.7</ele><time>2026-03-02T05:46:39.000Z</time></trkpt>
<trkpt lat="42.198286" lon="23.381209"><ele>1865.7</ele><time>2026-03-02T05:46:40.000Z</time></trkpt>
<trkpt lat="42.198287" lon="23.381208"><ele>1865.7</ele><time>2026-03-02T05:46:41.000Z</time></trkpt>
<trkpt lat="42.198289" lon="23.381208"><ele>1865.7</ele><time>2026-03-02T05:46:42.000Z</time></trkpt>
<trkpt lat="42.19829" lon="23.381207"><ele>1865.7</ele><time>2026-03-02T05:46:43.000Z</time></trkpt>
<trkpt lat="42.198291" lon="23.381206"><ele>1865.7</ele><time>2026-03-02T05:46:44.000Z</time></trkpt>
<trkpt lat="42.198292" lon="23.381205"><ele>1865.6</ele><time>2026-03-02T05:46:45.000Z</time></trkpt>
<trkpt lat="42.198294" lon="23.381204"><ele>1865.6</ele><time>2026-03-02T05:46:46.000Z</time></trkpt>
<trkpt lat="42.198295" lon="23.381204"><ele>1865.6</ele><time>2026-03-02T05:46:47.000Z</time></trkpt>
<trkpt lat="42.198297" lon="23.381205"><ele>1865.6</ele><time>2026-03-02T05:46:48.000Z</time></trkpt>
<trkpt lat="42.198299" lon="23.381206"><ele>1865.6</ele><time>2026-03-02T05:46:49.000Z</time></trkpt>
<trkpt lat="42.198299" lon="23.381206"><ele>1865.5</ele><time>2026-03-02T05:46:50.000Z</time></trkpt>
<trkpt lat="42.198298" lon="23.381204"><ele>1865.5</ele><time>2026-03-02T05:46:51.000Z</time></trkpt>
<trkpt lat="42.198294" lon="23.381201"><ele>1865.5</ele><time>2026-03-02T05:46:52.000Z</time></trkpt>
<trkpt lat="42.198288" lon="23.381195"><ele>1865.5</ele><time>2026-03-02T05:46:53.000Z</time></trkpt>
<trkpt lat="42.19828" lon="23.381186"><ele>1865.5</ele><time>2026-03-02T05:46:54.000Z</time></trkpt>
<trkpt lat="42.198272" lon="23.381177"><ele>1865.4</ele><time>2026-03-02T05:46:55.000Z</time></trkpt>
<trkpt lat="42.198264" lon="23.381169"><ele>1865.4</ele><time>2026-03-02T05:46:56.000Z</time></trkpt>
<trkpt lat="42.198256" lon="23.38116"><ele>1865.4</ele><time>2026-03-02T05:46:57.000Z</time></trkpt>
<trkpt lat="42.198249" lon="23.38115"><ele>1865.4</ele><time>2026-03-02T05:46:58.000Z</time></trkpt>
<trkpt lat="42.198241" lon="23.381141"><ele>1865.4</ele><time>2026-03-02T05:46:59.000Z</time></trkpt>
<trkpt lat="42.198233" lon="23.381131"><ele>1865.3</ele><time>2026-03-02T05:47:00.000Z</time></trkpt>
<trkpt lat="42.198225" lon="23.38112"><ele>1865.3</ele><time>2026-03-02T05:47:01.000Z</time></trkpt>
<trkpt lat="42.198216" lon="23.38111"><ele>1865.3</ele><time>2026-03-02T05:47:02.000Z</time></trkpt>
<trkpt lat="42.198205" lon="23.3811"><ele>1865.3</ele><time>2026-03-02T05:47:03.000Z</time></trkpt>
<trkpt lat="42.198197" lon="23.38109"><ele>1865.3</ele><time>2026-03-02T05:47:04.000Z</time></trkpt>
<trkpt lat="42.198187" lon="23.38108"><ele>1865.3</ele><time>2026-03-02T05:47:05.000Z</time></trkpt>
<trkpt lat="42.198177" lon="23.381071"><ele>1865.3</ele><time>2026-03-02T05:47:06.000Z</time></trkpt>
<trkpt lat="42.198168" lon="23.381062"><ele>1865.3</ele><time>2026-03-02T05:47:07.000Z</time></trkpt>
<trkpt lat="42.198159" lon="23.381054"><ele>1865.3</ele><time>2026-03-02T05:47:08.000Z</time></trkpt>
<trkpt lat="42.198151" lon="23.381046"><ele>1865.3</ele><time>2026-03-02T05:47:09.000Z</time></trkpt>
<trkpt lat="42.198142" lon="23.381038"><ele>1865.4</ele><time>2026-03-02T05:47:10.000Z</time></trkpt>
<trkpt lat="42.198134" lon="23.381029"><ele>1865.4</ele><time>2026-03-02T05:47:11.000Z</time></trkpt>
<trkpt lat="42.198125" lon="23.381019"><ele>1865.4</ele><time>2026-03-02T05:47:12.000Z</time></trkpt>
<trkpt lat="42.198118" lon="23.381009"><ele>1865.4</ele><time>2026-03-02T05:47:13.000Z</time></trkpt>
<trkpt lat="42.19811" lon="23.380999"><ele>1865.4</ele><time>2026-03-02T05:47:14.000Z</time></trkpt>
<trkpt lat="42.198102" lon="23.380988"><ele>1865.9</ele><time>2026-03-02T05:47:15.000Z</time></trkpt>
<trkpt lat="42.198093" lon="23.380978"><ele>1865.9</ele><time>2026-03-02T05:47:16.000Z</time></trkpt>
<trkpt lat="42.198084" lon="23.380968"><ele>1865.9</ele><time>2026-03-02T05:47:17.000Z</time></trkpt>
<trkpt lat="42.198074" lon="23.380958"><ele>1865.9</ele><time>2026-03-02T05:47:18.000Z</time></trkpt>
<trkpt lat="42.198063" lon="23.380948"><ele>1865.9</ele><time>2026-03-02T05:47:19.000Z</time></trkpt>
<trkpt lat="42.198052" lon="23.380939"><ele>1867</ele><time>2026-03-02T05:47:20.000Z</time></trkpt>
<trkpt lat="42.198042" lon="23.380929"><ele>1867</ele><time>2026-03-02T05:47:21.000Z</time></trkpt>
<trkpt lat="42.198032" lon="23.380919"><ele>1867</ele><time>2026-03-02T05:47:22.000Z</time></trkpt>
<trkpt lat="42.198021" lon="23.38091"><ele>1867</ele><time>2026-03-02T05:47:23.000Z</time></trkpt>
<trkpt lat="42.198011" lon="23.3809"><ele>1867</ele><time>2026-03-02T05:47:24.000Z</time></trkpt>
<trkpt lat="42.198001" lon="23.38089"><ele>1867.6</ele><time>2026-03-02T05:47:25.000Z</time></trkpt>
<trkpt lat="42.19799" lon="23.380881"><ele>1867.6</ele><time>2026-03-02T05:47:26.000Z</time></trkpt>
<trkpt lat="42.19798" lon="23.38087"><ele>1867.6</ele><time>2026-03-02T05:47:27.000Z</time></trkpt>
<trkpt lat="42.197969" lon="23.38086"><ele>1867.6</ele><time>2026-03-02T05:47:28.000Z</time></trkpt>
<trkpt lat="42.197958" lon="23.38085"><ele>1867.6</ele><time>2026-03-02T05:47:29.000Z</time></trkpt>
<trkpt lat="42.197949" lon="23.38084"><ele>1868.5</ele><time>2026-03-02T05:47:30.000Z</time></trkpt>
<trkpt lat="42.19794" lon="23.38083"><ele>1868.5</ele><time>2026-03-02T05:47:31.000Z</time></trkpt>
<trkpt lat="42.197932" lon="23.380822"><ele>1868.5</ele><time>2026-03-02T05:47:32.000Z</time></trkpt>
<trkpt lat="42.197924" lon="23.380812"><ele>1868.5</ele><time>2026-03-02T05:47:33.000Z</time></trkpt>
<trkpt lat="42.197916" lon="23.380803"><ele>1868.5</ele><time>2026-03-02T05:47:34.000Z</time></trkpt>
<trkpt lat="42.197908" lon="23.380794"><ele>1868.8</ele><time>2026-03-02T05:47:35.000Z</time></trkpt>
<trkpt lat="42.1979" lon="23.380786"><ele>1868.8</ele><time>2026-03-02T05:47:36.000Z</time></trkpt>
<trkpt lat="42.197891" lon="23.380778"><ele>1868.8</ele><time>2026-03-02T05:47:37.000Z</time></trkpt>
<trkpt lat="42.197882" lon="23.380771"><ele>1868.8</ele><time>2026-03-02T05:47:38.000Z</time></trkpt>
<trkpt lat="42.197874" lon="23.380765"><ele>1868.8</ele><time>2026-03-02T05:47:39.000Z</time></trkpt>
<trkpt lat="42.197865" lon="23.38076"><ele>1868.9</ele><time>2026-03-02T05:47:40.000Z</time></trkpt>
<trkpt lat="42.197856" lon="23.380755"><ele>1868.9</ele><time>2026-03-02T05:47:41.000Z</time></trkpt>
<trkpt lat="42.197847" lon="23.380752"><ele>1868.9</ele><time>2026-03-02T05:47:42.000Z</time></trkpt>
<trkpt lat="42.197836" lon="23.38075"><ele>1868.9</ele><time>2026-03-02T05:47:43.000Z</time></trkpt>
<trkpt lat="42.197824" lon="23.380749"><ele>1868.9</ele><time>2026-03-02T05:47:44.000Z</time></trkpt>
<trkpt lat="42.197812" lon="23.380748"><ele>1869.3</ele><time>2026-03-02T05:47:45.000Z</time></trkpt>
<trkpt lat="42.197799" lon="23.380746"><ele>1869.3</ele><time>2026-03-02T05:47:46.000Z</time></trkpt>
<trkpt lat="42.197787" lon="23.380744"><ele>1869.3</ele><time>2026-03-02T05:47:47.000Z</time></trkpt>
<trkpt lat="42.197776" lon="23.38074"><ele>1869.3</ele><time>2026-03-02T05:47:48.000Z</time></trkpt>
<trkpt lat="42.197765" lon="23.380736"><ele>1869.3</ele><time>2026-03-02T05:47:49.000Z</time></trkpt>
<trkpt lat="42.197753" lon="23.380734"><ele>1869.9</ele><time>2026-03-02T05:47:50.000Z</time></trkpt>
<trkpt lat="42.197741" lon="23.380731"><ele>1869.9</ele><time>2026-03-02T05:47:51.000Z</time></trkpt>
<trkpt lat="42.19773" lon="23.380729"><ele>1869.9</ele><time>2026-03-02T05:47:52.000Z</time></trkpt>
<trkpt lat="42.197719" lon="23.380727"><ele>1869.9</ele><time>2026-03-02T05:47:53.000Z</time></trkpt>
<trkpt lat="42.197708" lon="23.380724"><ele>1869.9</ele><time>2026-03-02T05:47:54.000Z</time></trkpt>
<trkpt lat="42.197697" lon="23.380721"><ele>1870.2</ele><time>2026-03-02T05:47:55.000Z</time></trkpt>
<trkpt lat="42.197687" lon="23.380717"><ele>1870.2</ele><time>2026-03-02T05:47:56.000Z</time></trkpt>
<trkpt lat="42.197676" lon="23.380713"><ele>1870.2</ele><time>2026-03-02T05:47:57.000Z</time></trkpt>
<trkpt lat="42.197666" lon="23.38071"><ele>1870.2</ele><time>2026-03-02T05:47:58.000Z</time></trkpt>
<trkpt lat="42.197656" lon="23.380708"><ele>1870.2</ele><time>2026-03-02T05:47:59.000Z</time></trkpt>
<trkpt lat="42.197646" lon="23.380706"><ele>1870.7</ele><time>2026-03-02T05:48:00.000Z</time></trkpt>
<trkpt lat="42.197636" lon="23.380704"><ele>1870.7</ele><time>2026-03-02T05:48:01.000Z</time></trkpt>
<trkpt lat="42.197626" lon="23.380703"><ele>1870.7</ele><time>2026-03-02T05:48:02.000Z</time></trkpt>
<trkpt lat="42.197616" lon="23.3807"><ele>1870.7</ele><time>2026-03-02T05:48:03.000Z</time></trkpt>
<trkpt lat="42.197607" lon="23.380697"><ele>1870.7</ele><time>2026-03-02T05:48:04.000Z</time></trkpt>
<trkpt lat="42.197597" lon="23.380695"><ele>1871.3</ele><time>2026-03-02T05:48:05.000Z</time></trkpt>
<trkpt lat="42.197587" lon="23.380691"><ele>1871.3</ele><time>2026-03-02T05:48:06.000Z</time></trkpt>
<trkpt lat="42.197577" lon="23.380687"><ele>1871.3</ele><time>2026-03-02T05:48:07.000Z</time></trkpt>
<trkpt lat="42.197566" lon="23.380684"><ele>1871.3</ele><time>2026-03-02T05:48:08.000Z</time></trkpt>
<trkpt lat="42.197556" lon="23.380681"><ele>1871.3</ele><time>2026-03-02T05:48:09.000Z</time></trkpt>
<trkpt lat="42.197546" lon="23.380677"><ele>1871.7</ele><time>2026-03-02T05:48:10.000Z</time></trkpt>
<trkpt lat="42.197535" lon="23.380672"><ele>1871.7</ele><time>2026-03-02T05:48:11.000Z</time></trkpt>
<trkpt lat="42.197525" lon="23.380667"><ele>1871.7</ele><time>2026-03-02T05:48:12.000Z</time></trkpt>
<trkpt lat="42.197515" lon="23.380661"><ele>1871.7</ele><time>2026-03-02T05:48:13.000Z</time></trkpt>
<trkpt lat="42.197505" lon="23.380655"><ele>1871.7</ele><time>2026-03-02T05:48:14.000Z</time></trkpt>
<trkpt lat="42.197495" lon="23.380651"><ele>1872.8</ele><time>2026-03-02T05:48:15.000Z</time></trkpt>
<trkpt lat="42.197485" lon="23.380646"><ele>1872.8</ele><time>2026-03-02T05:48:16.000Z</time></trkpt>
<trkpt lat="42.197474" lon="23.380641"><ele>1872.8</ele><time>2026-03-02T05:48:17.000Z</time></trkpt>
<trkpt lat="42.197462" lon="23.380636"><ele>1872.8</ele><time>2026-03-02T05:48:18.000Z</time></trkpt>
<trkpt lat="42.197449" lon="23.380631"><ele>1872.8</ele><time>2026-03-02T05:48:19.000Z</time></trkpt>
<trkpt lat="42.197437" lon="23.380626"><ele>1873.6</ele><time>2026-03-02T05:48:20.000Z</time></trkpt>
<trkpt lat="42.197425" lon="23.380621"><ele>1873.6</ele><time>2026-03-02T05:48:21.000Z</time></trkpt>
<trkpt lat="42.197412" lon="23.380617"><ele>1873.6</ele><time>2026-03-02T05:48:22.000Z</time></trkpt>
<trkpt lat="42.1974" lon="23.380613"><ele>1873.6</ele><time>2026-03-02T05:48:23.000Z</time></trkpt>
<trkpt lat="42.197389" lon="23.38061"><ele>1873.6</ele><time>2026-03-02T05:48:24.000Z</time></trkpt>
<trkpt lat="42.197377" lon="23.380605"><ele>1873.8</ele><time>2026-03-02T05:48:25.000Z</time></trkpt>
<trkpt lat="42.197367" lon="23.380601"><ele>1873.8</ele><time>2026-03-02T05:48:26.000Z</time></trkpt>
<trkpt lat="42.197358" lon="23.380596"><ele>1873.8</ele><time>2026-03-02T05:48:27.000Z</time></trkpt>
<trkpt lat="42.197348" lon="23.380592"><ele>1873.8</ele><time>2026-03-02T05:48:28.000Z</time></trkpt>
<trkpt lat="42.197338" lon="23.380589"><ele>1873.8</ele><time>2026-03-02T05:48:29.000Z</time></trkpt>
<trkpt lat="42.197329" lon="23.380586"><ele>1874.4</ele><time>2026-03-02T05:48:30.000Z</time></trkpt>
<trkpt lat="42.19732" lon="23.380582"><ele>1874.4</ele><time>2026-03-02T05:48:31.000Z</time></trkpt>
<trkpt lat="42.197311" lon="23.380577"><ele>1874.4</ele><time>2026-03-02T05:48:32.000Z</time></trkpt>
<trkpt lat="42.197303" lon="23.380571"><ele>1874.4</ele><time>2026-03-02T05:48:33.000Z</time></trkpt>
<trkpt lat="42.197295" lon="23.380563"><ele>1874.4</ele><time>2026-03-02T05:48:34.000Z</time></trkpt>
<trkpt lat="42.197285" lon="23.380554"><ele>1875</ele><time>2026-03-02T05:48:35.000Z</time></trkpt>
<trkpt lat="42.197275" lon="23.380546"><ele>1875</ele><time>2026-03-02T05:48:36.000Z</time></trkpt>
<trkpt lat="42.197264" lon="23.380538"><ele>1875</ele><time>2026-03-02T05:48:37.000Z</time></trkpt>
<trkpt lat="42.197254" lon="23.38053"><ele>1875</ele><time>2026-03-02T05:48:38.000Z</time></trkpt>
<trkpt lat="42.197243" lon="23.380521"><ele>1875</ele><time>2026-03-02T05:48:39.000Z</time></trkpt>
<trkpt lat="42.197234" lon="23.380513"><ele>1875.4</ele><time>2026-03-02T05:48:40.000Z</time></trkpt>
<trkpt lat="42.197225" lon="23.380504"><ele>1875.4</ele><time>2026-03-02T05:48:41.000Z</time></trkpt>
<trkpt lat="42.197216" lon="23.380496"><ele>1875.4</ele><time>2026-03-02T05:48:42.000Z</time></trkpt>
<trkpt lat="42.197207" lon="23.380488"><ele>1875.4</ele><time>2026-03-02T05:48:43.000Z</time></trkpt>
<trkpt lat="42.197198" lon="23.380482"><ele>1875.4</ele><time>2026-03-02T05:48:44.000Z</time></trkpt>
<trkpt lat="42.197189" lon="23.380477"><ele>1876.2</ele><time>2026-03-02T05:48:45.000Z</time></trkpt>
<trkpt lat="42.197179" lon="23.380472"><ele>1876.2</ele><time>2026-03-02T05:48:46.000Z</time></trkpt>
<trkpt lat="42.197169" lon="23.380467"><ele>1876.2</ele><time>2026-03-02T05:48:47.000Z</time></trkpt>
<trkpt lat="42.19716" lon="23.380462"><ele>1876.2</ele><time>2026-03-02T05:48:48.000Z</time></trkpt>
<trkpt lat="42.19715" lon="23.380458"><ele>1876.2</ele><time>2026-03-02T05:48:49.000Z</time></trkpt>
<trkpt lat="42.19714" lon="23.380453"><ele>1877</ele><time>2026-03-02T05:48:50.000Z</time></trkpt>
<trkpt lat="42.197131" lon="23.380449"><ele>1877</ele><time>2026-03-02T05:48:51.000Z</time></trkpt>
<trkpt lat="42.197122" lon="23.380444"><ele>1877</ele><time>2026-03-02T05:48:52.000Z</time></trkpt>
<trkpt lat="42.197112" lon="23.380439"><ele>1877</ele><time>2026-03-02T05:48:53.000Z</time></trkpt>
<trkpt lat="42.197104" lon="23.380434"><ele>1877</ele><time>2026-03-02T05:48:54.000Z</time></trkpt>
<trkpt lat="42.197096" lon="23.380428"><ele>1877.6</ele><time>2026-03-02T05:48:55.000Z</time></trkpt>
<trkpt lat="42.197088" lon="23.380421"><ele>1877.6</ele><time>2026-03-02T05:48:56.000Z</time></trkpt>
<trkpt lat="42.19708" lon="23.380413"><ele>1877.6</ele><time>2026-03-02T05:48:57.000Z</time></trkpt>
<trkpt lat="42.197072" lon="23.380405"><ele>1877.6</ele><time>2026-03-02T05:48:58.000Z</time></trkpt>
<trkpt lat="42.197063" lon="23.380397"><ele>1877.6</ele><time>2026-03-02T05:48:59.000Z</time></trkpt>
<trkpt lat="42.197055" lon="23.380391"><ele>1878.7</ele><time>2026-03-02T05:49:00.000Z</time></trkpt>
<trkpt lat="42.197049" lon="23.380384"><ele>1878.7</ele><time>2026-03-02T05:49:01.000Z</time></trkpt>
<trkpt lat="42.197045" lon="23.380379"><ele>1878.7</ele><time>2026-03-02T05:49:02.000Z</time></trkpt>
<trkpt lat="42.197043" lon="23.380375"><ele>1878.7</ele><time>2026-03-02T05:49:03.000Z</time></trkpt>
<trkpt lat="42.197041" lon="23.380373"><ele>1878.7</ele><time>2026-03-02T05:49:04.000Z</time></trkpt>
<trkpt lat="42.197038" lon="23.380369"><ele>1879.9</ele><time>2026-03-02T05:49:05.000Z</time></trkpt>
<trkpt lat="42.197035" lon="23.380364"><ele>1879.9</ele><time>2026-03-02T05:49:06.000Z</time></trkpt>
<trkpt lat="42.19703" lon="23.380357"><ele>1879.9</ele><time>2026-03-02T05:49:07.000Z</time></trkpt>
<trkpt lat="42.197024" lon="23.380347"><ele>1879.9</ele><time>2026-03-02T05:49:08.000Z</time></trkpt>
<trkpt lat="42.197019" lon="23.380335"><ele>1879.9</ele><time>2026-03-02T05:49:09.000Z</time></trkpt>
<trkpt lat="42.197014" lon="23.380323"><ele>1880.4</ele><time>2026-03-02T05:49:10.000Z</time></trkpt>
<trkpt lat="42.197008" lon="23.380312"><ele>1880.4</ele><time>2026-03-02T05:49:11.000Z</time></trkpt>
<trkpt lat="42.197002" lon="23.380299"><ele>1880.4</ele><time>2026-03-02T05:49:12.000Z</time></trkpt>
<trkpt lat="42.196997" lon="23.380285"><ele>1880.4</ele><time>2026-03-02T05:49:13.000Z</time></trkpt>
<trkpt lat="42.196992" lon="23.380273"><ele>1880.4</ele><time>2026-03-02T05:49:14.000Z</time></trkpt>
<trkpt lat="42.196987" lon="23.380261"><ele>1881.2</ele><time>2026-03-02T05:49:15.000Z</time></trkpt>
<trkpt lat="42.196982" lon="23.380248"><ele>1881.2</ele><time>2026-03-02T05:49:16.000Z</time></trkpt>
<trkpt lat="42.196977" lon="23.380235"><ele>1881.2</ele><time>2026-03-02T05:49:17.000Z</time></trkpt>
<trkpt lat="42.196971" lon="23.380223"><ele>1881.2</ele><time>2026-03-02T05:49:18.000Z</time></trkpt>
<trkpt lat="42.196964" lon="23.380211"><ele>1881.2</ele><time>2026-03-02T05:49:19.000Z</time></trkpt>
<trkpt lat="42.196956" lon="23.380199"><ele>1882</ele><time>2026-03-02T05:49:20.000Z</time></trkpt>
<trkpt lat="42.196946" lon="23.380188"><ele>1882</ele><time>2026-03-02T05:49:21.000Z</time></trkpt>
<trkpt lat="42.196936" lon="23.380179"><ele>1882</ele><time>2026-03-02T05:49:22.000Z</time></trkpt>
<trkpt lat="42.196927" lon="23.380168"><ele>1882</ele><time>2026-03-02T05:49:23.000Z</time></trkpt>
<trkpt lat="42.196917" lon="23.380157"><ele>1882</ele><time>2026-03-02T05:49:24.000Z</time></trkpt>
<trkpt lat="42.196908" lon="23.380147"><ele>1882.4</ele><time>2026-03-02T05:49:25.000Z</time></trkpt>
<trkpt lat="42.196899" lon="23.380137"><ele>1882.4</ele><time>2026-03-02T05:49:26.000Z</time></trkpt>
<trkpt lat="42.19689" lon="23.380129"><ele>1882.4</ele><time>2026-03-02T05:49:27.000Z</time></trkpt>
<trkpt lat="42.19688" lon="23.380123"><ele>1882.4</ele><time>2026-03-02T05:49:28.000Z</time></trkpt>
<trkpt lat="42.19687" lon="23.380118"><ele>1882.4</ele><time>2026-03-02T05:49:29.000Z</time></trkpt>
<trkpt lat="42.196861" lon="23.380112"><ele>1883.4</ele><time>2026-03-02T05:49:30.000Z</time></trkpt>
<trkpt lat="42.196852" lon="23.380106"><ele>1883.4</ele><time>2026-03-02T05:49:31.000Z</time></trkpt>
<trkpt lat="42.196844" lon="23.3801"><ele>1883.4</ele><time>2026-03-02T05:49:32.000Z</time></trkpt>
<trkpt lat="42.196836" lon="23.380094"><ele>1883.4</ele><time>2026-03-02T05:49:33.000Z</time></trkpt>
<trkpt lat="42.196826" lon="23.380087"><ele>1883.4</ele><time>2026-03-02T05:49:34.000Z</time></trkpt>
<trkpt lat="42.196816" lon="23.380082"><ele>1884.5</ele><time>2026-03-02T05:49:35.000Z</time></trkpt>
<trkpt lat="42.196805" lon="23.380076"><ele>1884.5</ele><time>2026-03-02T05:49:36.000Z</time></trkpt>
<trkpt lat="42.196794" lon="23.380068"><ele>1884.5</ele><time>2026-03-02T05:49:37.000Z</time></trkpt>
<trkpt lat="42.196784" lon="23.38006"><ele>1884.5</ele><time>2026-03-02T05:49:38.000Z</time></trkpt>
<trkpt lat="42.196776" lon="23.38005"><ele>1884.5</ele><time>2026-03-02T05:49:39.000Z</time></trkpt>
<trkpt lat="42.196769" lon="23.380038"><ele>1885</ele><time>2026-03-02T05:49:40.000Z</time></trkpt>
<trkpt lat="42.196762" lon="23.380025"><ele>1885</ele><time>2026-03-02T05:49:41.000Z</time></trkpt>
<trkpt lat="42.196755" lon="23.380013"><ele>1885</ele><time>2026-03-02T05:49:42.000Z</time></trkpt>
<trkpt lat="42.196749" lon="23.380001"><ele>1885</ele><time>2026-03-02T05:49:43.000Z</time></trkpt>
<trkpt lat="42.196742" lon="23.379988"><ele>1885</ele><time>2026-03-02T05:49:44.000Z</time></trkpt>
<trkpt lat="42.196734" lon="23.379976"><ele>1885.9</ele><time>2026-03-02T05:49:45.000Z</time></trkpt>
<trkpt lat="42.196725" lon="23.379964"><ele>1885.9</ele><time>2026-03-02T05:49:46.000Z</time></trkpt>
<trkpt lat="42.196718" lon="23.379952"><ele>1885.9</ele><time>2026-03-02T05:49:47.000Z</time></trkpt>
<trkpt lat="42.196711" lon="23.379939"><ele>1885.9</ele><time>2026-03-02T05:49:48.000Z</time></trkpt>
<trkpt lat="42.196706" lon="23.379928"><ele>1885.9</ele><time>2026-03-02T05:49:49.000Z</time></trkpt>
<trkpt lat="42.1967" lon="23.379916"><ele>1886.7</ele><time>2026-03-02T05:49:50.000Z</time></trkpt>
<trkpt lat="42.196694" lon="23.379905"><ele>1886.7</ele><time>2026-03-02T05:49:51.000Z</time></trkpt>
<trkpt lat="42.196688" lon="23.379895"><ele>1886.7</ele><time>2026-03-02T05:49:52.000Z</time></trkpt>
<trkpt lat="42.196681" lon="23.379886"><ele>1886.7</ele><time>2026-03-02T05:49:53.000Z</time></trkpt>
<trkpt lat="42.196674" lon="23.379876"><ele>1886.7</ele><time>2026-03-02T05:49:54.000Z</time></trkpt>
<trkpt lat="42.196667" lon="23.379866"><ele>1887.1</ele><time>2026-03-02T05:49:55.000Z</time></trkpt>
<trkpt lat="42.19666" lon="23.379856"><ele>1887.1</ele><time>2026-03-02T05:49:56.000Z</time></trkpt>
<trkpt lat="42.196653" lon="23.379846"><ele>1887.1</ele><time>2026-03-02T05:49:57.000Z</time></trkpt>
<trkpt lat="42.196647" lon="23.379835"><ele>1887.1</ele><time>2026-03-02T05:49:58.000Z</time></trkpt>
<trkpt lat="42.19664" lon="23.379823"><ele>1887.1</ele><time>2026-03-02T05:49:59.000Z</time></trkpt>
<trkpt lat="42.196634" lon="23.379812"><ele>1887.9</ele><time>2026-03-02T05:50:00.000Z</time></trkpt>
<trkpt lat="42.196629" lon="23.379801"><ele>1887.9</ele><time>2026-03-02T05:50:01.000Z</time></trkpt>
<trkpt lat="42.196624" lon="23.379791"><ele>1887.9</ele><time>2026-03-02T05:50:02.000Z</time></trkpt>
<trkpt lat="42.196618" lon="23.379781"><ele>1887.9</ele><time>2026-03-02T05:50:03.000Z</time></trkpt>
<trkpt lat="42.196612" lon="23.379771"><ele>1887.9</ele><time>2026-03-02T05:50:04.000Z</time></trkpt>
<trkpt lat="42.196606" lon="23.379761"><ele>1888.8</ele><time>2026-03-02T05:50:05.000Z</time></trkpt>
<trkpt lat="42.196598" lon="23.37975"><ele>1888.8</ele><time>2026-03-02T05:50:06.000Z</time></trkpt>
<trkpt lat="42.196592" lon="23.379737"><ele>1888.8</ele><time>2026-03-02T05:50:07.000Z</time></trkpt>
<trkpt lat="42.196586" lon="23.379724"><ele>1888.8</ele><time>2026-03-02T05:50:08.000Z</time></trkpt>
<trkpt lat="42.196579" lon="23.37971"><ele>1888.8</ele><time>2026-03-02T05:50:09.000Z</time></trkpt>
<trkpt lat="42.196572" lon="23.379696"><ele>1889.3</ele><time>2026-03-02T05:50:10.000Z</time></trkpt>
<trkpt lat="42.196564" lon="23.379683"><ele>1889.3</ele><time>2026-03-02T05:50:11.000Z</time></trkpt>
<trkpt lat="42.196556" lon="23.379671"><ele>1889.3</ele><time>2026-03-02T05:50:12.000Z</time></trkpt>
<trkpt lat="42.196548" lon="23.379661"><ele>1889.3</ele><time>2026-03-02T05:50:13.000Z</time></trkpt>
<trkpt lat="42.196539" lon="23.379651"><ele>1889.3</ele><time>2026-03-02T05:50:14.000Z</time></trkpt>
<trkpt lat="42.19653" lon="23.379642"><ele>1890.1</ele><time>2026-03-02T05:50:15.000Z</time></trkpt>
<trkpt lat="42.196521" lon="23.379634"><ele>1890.1</ele><time>2026-03-02T05:50:16.000Z</time></trkpt>
<trkpt lat="42.196511" lon="23.379626"><ele>1890.1</ele><time>2026-03-02T05:50:17.000Z</time></trkpt>
<trkpt lat="42.196501" lon="23.379617"><ele>1890.1</ele><time>2026-03-02T05:50:18.000Z</time></trkpt>
<trkpt lat="42.196492" lon="23.379608"><ele>1890.1</ele><time>2026-03-02T05:50:19.000Z</time></trkpt>
<trkpt lat="42.196484" lon="23.379597"><ele>1890.7</ele><time>2026-03-02T05:50:20.000Z</time></trkpt>
<trkpt lat="42.196476" lon="23.379586"><ele>1890.7</ele><time>2026-03-02T05:50:21.000Z</time></trkpt>
<trkpt lat="42.196468" lon="23.379575"><ele>1890.7</ele><time>2026-03-02T05:50:22.000Z</time></trkpt>
<trkpt lat="42.196459" lon="23.379566"><ele>1890.7</ele><time>2026-03-02T05:50:23.000Z</time></trkpt>
<trkpt lat="42.196451" lon="23.379558"><ele>1890.7</ele><time>2026-03-02T05:50:24.000Z</time></trkpt>
<trkpt lat="42.196442" lon="23.379552"><ele>1890.9</ele><time>2026-03-02T05:50:25.000Z</time></trkpt>
<trkpt lat="42.196431" lon="23.379548"><ele>1890.9</ele><time>2026-03-02T05:50:26.000Z</time></trkpt>
<trkpt lat="42.19642" lon="23.379544"><ele>1890.9</ele><time>2026-03-02T05:50:27.000Z</time></trkpt>
<trkpt lat="42.196409" lon="23.379541"><ele>1890.9</ele><time>2026-03-02T05:50:28.000Z</time></trkpt>
<trkpt lat="42.196397" lon="23.37954"><ele>1890.9</ele><time>2026-03-02T05:50:29.000Z</time></trkpt>
<trkpt lat="42.196385" lon="23.379539"><ele>1891.6</ele><time>2026-03-02T05:50:30.000Z</time></trkpt>
<trkpt lat="42.196374" lon="23.379537"><ele>1891.6</ele><time>2026-03-02T05:50:31.000Z</time></trkpt>
<trkpt lat="42.196364" lon="23.379536"><ele>1891.6</ele><time>2026-03-02T05:50:32.000Z</time></trkpt>
<trkpt lat="42.196354" lon="23.379534"><ele>1891.6</ele><time>2026-03-02T05:50:33.000Z</time></trkpt>
<trkpt lat="42.196344" lon="23.379532"><ele>1891.6</ele><time>2026-03-02T05:50:34.000Z</time></trkpt>
<trkpt lat="42.196334" lon="23.379529"><ele>1892.3</ele><time>2026-03-02T05:50:35.000Z</time></trkpt>
<trkpt lat="42.196324" lon="23.379527"><ele>1892.3</ele><time>2026-03-02T05:50:36.000Z</time></trkpt>
<trkpt lat="42.196315" lon="23.379525"><ele>1892.3</ele><time>2026-03-02T05:50:37.000Z</time></trkpt>
<trkpt lat="42.196306" lon="23.379521"><ele>1892.3</ele><time>2026-03-02T05:50:38.000Z</time></trkpt>
<trkpt lat="42.196297" lon="23.379516"><ele>1892.3</ele><time>2026-03-02T05:50:39.000Z</time></trkpt>
<trkpt lat="42.196288" lon="23.379512"><ele>1892.8</ele><time>2026-03-02T05:50:40.000Z</time></trkpt>
<trkpt lat="42.19628" lon="23.379506"><ele>1892.8</ele><time>2026-03-02T05:50:41.000Z</time></trkpt>
<trkpt lat="42.196271" lon="23.3795"><ele>1892.8</ele><time>2026-03-02T05:50:42.000Z</time></trkpt>
<trkpt lat="42.196262" lon="23.379493"><ele>1892.8</ele><time>2026-03-02T05:50:43.000Z</time></trkpt>
<trkpt lat="42.196253" lon="23.379488"><ele>1892.8</ele><time>2026-03-02T05:50:44.000Z</time></trkpt>
<trkpt lat="42.196244" lon="23.379481"><ele>1893.9</ele><time>2026-03-02T05:50:45.000Z</time></trkpt>
<trkpt lat="42.196235" lon="23.379475"><ele>1893.9</ele><time>2026-03-02T05:50:46.000Z</time></trkpt>
<trkpt lat="42.196227" lon="23.379468"><ele>1893.9</ele><time>2026-03-02T05:50:47.000Z</time></trkpt>
<trkpt lat="42.196218" lon="23.379461"><ele>1893.9</ele><time>2026-03-02T05:50:48.000Z</time></trkpt>
<trkpt lat="42.196209" lon="23.379453"><ele>1893.9</ele><time>2026-03-02T05:50:49.000Z</time></trkpt>
<trkpt lat="42.196201" lon="23.379446"><ele>1895</ele><time>2026-03-02T05:50:50.000Z</time></trkpt>
<trkpt lat="42.196193" lon="23.379439"><ele>1895</ele><time>2026-03-02T05:50:51.000Z</time></trkpt>
<trkpt lat="42.196185" lon="23.379432"><ele>1895</ele><time>2026-03-02T05:50:52.000Z</time></trkpt>
<trkpt lat="42.196176" lon="23.379425"><ele>1895</ele><time>2026-03-02T05:50:53.000Z</time></trkpt>
<trkpt lat="42.196168" lon="23.379419"><ele>1895</ele><time>2026-03-02T05:50:54.000Z</time></trkpt>
<trkpt lat="42.19616" lon="23.379413"><ele>1895.6</ele><time>2026-03-02T05:50:55.000Z</time></trkpt>
<trkpt lat="42.196152" lon="23.379408"><ele>1895.6</ele><time>2026-03-02T05:50:56.000Z</time></trkpt>
<trkpt lat="42.196144" lon="23.379405"><ele>1895.6</ele><time>2026-03-02T05:50:57.000Z</time></trkpt>
<trkpt lat="42.196134" lon="23.379402"><ele>1895.6</ele><time>2026-03-02T05:50:58.000Z</time></trkpt>
<trkpt lat="42.196125" lon="23.3794"><ele>1895.6</ele><time>2026-03-02T05:50:59.000Z</time></trkpt>
<trkpt lat="42.196115" lon="23.379399"><ele>1896.6</ele><time>2026-03-02T05:51:00.000Z</time></trkpt>
<trkpt lat="42.196105" lon="23.379397"><ele>1896.6</ele><time>2026-03-02T05:51:01.000Z</time></trkpt>
<trkpt lat="42.196095" lon="23.379395"><ele>1896.6</ele><time>2026-03-02T05:51:02.000Z</time></trkpt>
<trkpt lat="42.196086" lon="23.379393"><ele>1896.6</ele><time>2026-03-02T05:51:03.000Z</time></trkpt>
<trkpt lat="42.196076" lon="23.379391"><ele>1896.6</ele><time>2026-03-02T05:51:04.000Z</time></trkpt>
<trkpt lat="42.196067" lon="23.379388"><ele>1897.6</ele><time>2026-03-02T05:51:05.000Z</time></trkpt>
<trkpt lat="42.196057" lon="23.379385"><ele>1897.6</ele><time>2026-03-02T05:51:06.000Z</time></trkpt>
<trkpt lat="42.196047" lon="23.379383"><ele>1897.6</ele><time>2026-03-02T05:51:07.000Z</time></trkpt>
<trkpt lat="42.196038" lon="23.37938"><ele>1897.6</ele><time>2026-03-02T05:51:08.000Z</time></trkpt>
<trkpt lat="42.196028" lon="23.379377"><ele>1897.6</ele><time>2026-03-02T05:51:09.000Z</time></trkpt>
<trkpt lat="42.19602" lon="23.379375"><ele>1898.2</ele><time>2026-03-02T05:51:10.000Z</time></trkpt>
<trkpt lat="42.196011" lon="23.379373"><ele>1898.2</ele><time>2026-03-02T05:51:11.000Z</time></trkpt>
<trkpt lat="42.196002" lon="23.379371"><ele>1898.2</ele><time>2026-03-02T05:51:12.000Z</time></trkpt>
<trkpt lat="42.195992" lon="23.379369"><ele>1898.2</ele><time>2026-03-02T05:51:13.000Z</time></trkpt>
<trkpt lat="42.195983" lon="23.379366"><ele>1898.2</ele><time>2026-03-02T05:51:14.000Z</time></trkpt>
<trkpt lat="42.195972" lon="23.379363"><ele>1899.2</ele><time>2026-03-02T05:51:15.000Z</time></trkpt>
<trkpt lat="42.195961" lon="23.379358"><ele>1899.2</ele><time>2026-03-02T05:51:16.000Z</time></trkpt>
<trkpt lat="42.195951" lon="23.379352"><ele>1899.2</ele><time>2026-03-02T05:51:17.000Z</time></trkpt>
<trkpt lat="42.195942" lon="23.379345"><ele>1899.2</ele><time>2026-03-02T05:51:18.000Z</time></trkpt>
<trkpt lat="42.195935" lon="23.379336"><ele>1899.2</ele><time>2026-03-02T05:51:19.000Z</time></trkpt>
<trkpt lat="42.195929" lon="23.379326"><ele>1900.3</ele><time>2026-03-02T05:51:20.000Z</time></trkpt>
<trkpt lat="42.195923" lon="23.379316"><ele>1900.3</ele><time>2026-03-02T05:51:21.000Z</time></trkpt>
<trkpt lat="42.195918" lon="23.379307"><ele>1900.3</ele><time>2026-03-02T05:51:22.000Z</time></trkpt>
<trkpt lat="42.195914" lon="23.379298"><ele>1900.3</ele><time>2026-03-02T05:51:23.000Z</time></trkpt>
<trkpt lat="42.195907" lon="23.379289"><ele>1900.3</ele><time>2026-03-02T05:51:24.000Z</time></trkpt>
<trkpt lat="42.1959" lon="23.379279"><ele>1900.8</ele><time>2026-03-02T05:51:25.000Z</time></trkpt>
<trkpt lat="42.195894" lon="23.379273"><ele>1900.8</ele><time>2026-03-02T05:51:26.000Z</time></trkpt>
<trkpt lat="42.19589" lon="23.37927"><ele>1900.8</ele><time>2026-03-02T05:51:27.000Z</time></trkpt>
<trkpt lat="42.195887" lon="23.379269"><ele>1900.8</ele><time>2026-03-02T05:51:28.000Z</time></trkpt>
<trkpt lat="42.195884" lon="23.37927"><ele>1900.8</ele><time>2026-03-02T05:51:29.000Z</time></trkpt>
<trkpt lat="42.195883" lon="23.379272"><ele>1902</ele><time>2026-03-02T05:51:30.000Z</time></trkpt>
<trkpt lat="42.195882" lon="23.379273"><ele>1902</ele><time>2026-03-02T05:51:31.000Z</time></trkpt>
<trkpt lat="42.195881" lon="23.379273"><ele>1902</ele><time>2026-03-02T05:51:32.000Z</time></trkpt>
<trkpt lat="42.19588" lon="23.379272"><ele>1902</ele><time>2026-03-02T05:51:33.000Z</time></trkpt>
<trkpt lat="42.195881" lon="23.37927"><ele>1902</ele><time>2026-03-02T05:51:34.000Z</time></trkpt>
<trkpt lat="42.195881" lon="23.379269"><ele>1903</ele><time>2026-03-02T05:51:35.000Z</time></trkpt>
<trkpt lat="42.195881" lon="23.379269"><ele>1903</ele><time>2026-03-02T05:51:36.000Z</time></trkpt>
<trkpt lat="42.195881" lon="23.379269"><ele>1903</ele><time>2026-03-02T05:51:37.000Z</time></trkpt>
<trkpt lat="42.195882" lon="23.379269"><ele>1903</ele><time>2026-03-02T05:51:38.000Z</time></trkpt>
<trkpt lat="42.195881" lon="23.379269"><ele>1903</ele><time>2026-03-02T05:51:39.000Z</time></trkpt>
<trkpt lat="42.195881" lon="23.379268"><ele>1903.4</ele><time>2026-03-02T05:51:40.000Z</time></trkpt>
<trkpt lat="42.19588" lon="23.379268"><ele>1903.4</ele><time>2026-03-02T05:51:41.000Z</time></trkpt>
<trkpt lat="42.19588" lon="23.379267"><ele>1903.4</ele><time>2026-03-02T05:51:42.000Z</time></trkpt>
<trkpt lat="42.19588" lon="23.379265"><ele>1903.4</ele><time>2026-03-02T05:51:43.000Z</time></trkpt>
<trkpt lat="42.19588" lon="23.379263"><ele>1903.4</ele><time>2026-03-02T05:51:44.000Z</time></trkpt>
<trkpt lat="42.19588" lon="23.379262"><ele>1903.8</ele><time>2026-03-02T05:51:45.000Z</time></trkpt>
<trkpt lat="42.19588" lon="23.37926"><ele>1903.8</ele><time>2026-03-02T05:51:46.000Z</time></trkpt>
<trkpt lat="42.19588" lon="23.379259"><ele>1903.8</ele><time>2026-03-02T05:51:47.000Z</time></trkpt>
<trkpt lat="42.19588" lon="23.379261"><ele>1903.8</ele><time>2026-03-02T05:51:48.000Z</time></trkpt>
<trkpt lat="42.19588" lon="23.379263"><ele>1903.8</ele><time>2026-03-02T05:51:49.000Z</time></trkpt>
<trkpt lat="42.19588" lon="23.379265"><ele>1903.9</ele><time>2026-03-02T05:51:50.000Z</time></trkpt>
<trkpt lat="42.19588" lon="23.379266"><ele>1903.9</ele><time>2026-03-02T05:51:51.000Z</time></trkpt>
<trkpt lat="42.195879" lon="23.379268"><ele>1903.9</ele><time>2026-03-02T05:51:52.000Z</time></trkpt>
<trkpt lat="42.195879" lon="23.379268"><ele>1903.9</ele><time>2026-03-02T05:51:53.000Z</time></trkpt>
<trkpt lat="42.195879" lon="23.379268"><ele>1903.9</ele><time>2026-03-02T05:51:54.000Z</time></trkpt>
<trkpt lat="42.195879" lon="23.379268"><ele>1903.9</ele><time>2026-03-02T05:51:55.000Z</time></trkpt>
<trkpt lat="42.195879" lon="23.379267"><ele>1903.9</ele><time>2026-03-02T05:51:56.000Z</time></trkpt>
<trkpt lat="42.195878" lon="23.379267"><ele>1903.9</ele><time>2026-03-02T05:51:57.000Z</time></trkpt>
<trkpt lat="42.195878" lon="23.379266"><ele>1903.9</ele><time>2026-03-02T05:51:58.000Z</time></trkpt>
<trkpt lat="42.195878" lon="23.379265"><ele>1903.9</ele><time>2026-03-02T05:51:59.000Z</time></trkpt>
<trkpt lat="42.195878" lon="23.379265"><ele>1903.7</ele><time>2026-03-02T05:52:00.000Z</time></trkpt>
<trkpt lat="42.195878" lon="23.379266"><ele>1903.7</ele><time>2026-03-02T05:52:01.000Z</time></trkpt>
<trkpt lat="42.195878" lon="23.379266"><ele>1903.7</ele><time>2026-03-02T05:52:02.000Z</time></trkpt>
<trkpt lat="42.195878" lon="23.379267"><ele>1903.7</ele><time>2026-03-02T05:52:03.000Z</time></trkpt>
<trkpt lat="42.195879" lon="23.379267"><ele>1903.7</ele><time>2026-03-02T05:52:04.000Z</time></trkpt>
<trkpt lat="42.19588" lon="23.379268"><ele>1903.5</ele><time>2026-03-02T05:52:05.000Z</time></trkpt>
<trkpt lat="42.195881" lon="23.379268"><ele>1903.5</ele><time>2026-03-02T05:52:06.000Z</time></trkpt>
<trkpt lat="42.195882" lon="23.379269"><ele>1903.5</ele><time>2026-03-02T05:52:07.000Z</time></trkpt>
<trkpt lat="42.195882" lon="23.37927"><ele>1903.5</ele><time>2026-03-02T05:52:08.000Z</time></trkpt>
<trkpt lat="42.195881" lon="23.37927"><ele>1903.5</ele><time>2026-03-02T05:52:09.000Z</time></trkpt>
<trkpt lat="42.19588" lon="23.37927"><ele>1903.4</ele><time>2026-03-02T05:52:10.000Z</time></trkpt>
<trkpt lat="42.19588" lon="23.37927"><ele>1903.4</ele><time>2026-03-02T05:52:11.000Z</time></trkpt>
<trkpt lat="42.19588" lon="23.37927"><ele>1903.4</ele><time>2026-03-02T05:52:12.000Z</time></trkpt>
<trkpt lat="42.195879" lon="23.37927"><ele>1903.4</ele><time>2026-03-02T05:52:13.000Z</time></trkpt>
<trkpt lat="42.195878" lon="23.37927"><ele>1903.4</ele><time>2026-03-02T05:52:14.000Z</time></trkpt>
<trkpt lat="42.195877" lon="23.37927"><ele>1903.4</ele><time>2026-03-02T05:52:15.000Z</time></trkpt>
<trkpt lat="42.195877" lon="23.379271"><ele>1903.4</ele><time>2026-03-02T05:52:16.000Z</time></trkpt>
<trkpt lat="42.195876" lon="23.379272"><ele>1903.4</ele><time>2026-03-02T05:52:17.000Z</time></trkpt>
<trkpt lat="42.195876" lon="23.379273"><ele>1903.4</ele><time>2026-03-02T05:52:18.000Z</time></trkpt>
<trkpt lat="42.195877" lon="23.379273"><ele>1903.4</ele><time>2026-03-02T05:52:19.000Z</time></trkpt>
<trkpt lat="42.195877" lon="23.379274"><ele>1903.5</ele><time>2026-03-02T05:52:20.000Z</time></trkpt>
<trkpt lat="42.195877" lon="23.379274"><ele>1903.5</ele><time>2026-03-02T05:52:21.000Z</time></trkpt>
<trkpt lat="42.195877" lon="23.379274"><ele>1903.5</ele><time>2026-03-02T05:52:22.000Z</time></trkpt>
<trkpt lat="42.195877" lon="23.379274"><ele>1903.5</ele><time>2026-03-02T05:52:23.000Z</time></trkpt>
<trkpt lat="42.195877" lon="23.379274"><ele>1903.5</ele><time>2026-03-02T05:52:24.000Z</time></trkpt>
<trkpt lat="42.195877" lon="23.379274"><ele>1903.5</ele><time>2026-03-02T05:52:25.000Z</time></trkpt>
<trkpt lat="42.195877" lon="23.379274"><ele>1903.5</ele><time>2026-03-02T05:52:26.000Z</time></trkpt>
<trkpt lat="42.195877" lon="23.379274"><ele>1903.5</ele><time>2026-03-02T05:52:27.000Z</time></trkpt>
<trkpt lat="42.195876" lon="23.379274"><ele>1903.5</ele><time>2026-03-02T05:52:28.000Z</time></trkpt>
<trkpt lat="42.195876" lon="23.379274"><ele>1903.5</ele><time>2026-03-02T05:52:29.000Z</time></trkpt>
<trkpt lat="42.195876" lon="23.379274"><ele>1903.4</ele><time>2026-03-02T05:52:30.000Z</time></trkpt>
<trkpt lat="42.195876" lon="23.379274"><ele>1903.4</ele><time>2026-03-02T05:52:31.000Z</time></trkpt>
<trkpt lat="42.195876" lon="23.379274"><ele>1903.4</ele><time>2026-03-02T05:52:32.000Z</time></trkpt>
<trkpt lat="42.195876" lon="23.379275"><ele>1903.4</ele><time>2026-03-02T05:52:33.000Z</time></trkpt>
<trkpt lat="42.195877" lon="23.379275"><ele>1903.4</ele><time>2026-03-02T05:52:34.000Z</time></trkpt>
<trkpt lat="42.195878" lon="23.379275"><ele>1903.5</ele><time>2026-03-02T05:52:35.000Z</time></trkpt>
<trkpt lat="42.195878" lon="23.379274"><ele>1903.5</ele><time>2026-03-02T05:52:36.000Z</time></trkpt>
<trkpt lat="42.195879" lon="23.379274"><ele>1903.5</ele><time>2026-03-02T05:52:37.000Z</time></trkpt>
<trkpt lat="42.195879" lon="23.379274"><ele>1903.5</ele><time>2026-03-02T05:52:38.000Z</time></trkpt>
<trkpt lat="42.195879" lon="23.379274"><ele>1903.5</ele><time>2026-03-02T05:52:39.000Z</time></trkpt>
<trkpt lat="42.195879" lon="23.379274"><ele>1903.5</ele><time>2026-03-02T05:52:40.000Z</time></trkpt>
<trkpt lat="42.195879" lon="23.379274"><ele>1903.5</ele><time>2026-03-02T05:52:41.000Z</time></trkpt>
<trkpt lat="42.195879" lon="23.379274"><ele>1903.5</ele><time>2026-03-02T05:52:42.000Z</time></trkpt>
<trkpt lat="42.195879" lon="23.379273"><ele>1903.5</ele><time>2026-03-02T05:52:43.000Z</time></trkpt>
<trkpt lat="42.19588" lon="23.379272"><ele>1903.5</ele><time>2026-03-02T05:52:44.000Z</time></trkpt>
<trkpt lat="42.19588" lon="23.379271"><ele>1903.7</ele><time>2026-03-02T05:52:45.000Z</time></trkpt>
<trkpt lat="42.19588" lon="23.37927"><ele>1903.7</ele><time>2026-03-02T05:52:46.000Z</time></trkpt>
<trkpt lat="42.19588" lon="23.379269"><ele>1903.7</ele><time>2026-03-02T05:52:47.000Z</time></trkpt>
<trkpt lat="42.19588" lon="23.379269"><ele>1903.7</ele><time>2026-03-02T05:52:48.000Z</time></trkpt>
<trkpt lat="42.195879" lon="23.37927"><ele>1903.7</ele><time>2026-03-02T05:52:49.000Z</time></trkpt>
<trkpt lat="42.195879" lon="23.37927"><ele>1903.8</ele><time>2026-03-02T05:52:50.000Z</time></trkpt>
<trkpt lat="42.195878" lon="23.37927"><ele>1903.8</ele><time>2026-03-02T05:52:51.000Z</time></trkpt>
<trkpt lat="42.195878" lon="23.379271"><ele>1903.8</ele><time>2026-03-02T05:52:52.000Z</time></trkpt>
<trkpt lat="42.195877" lon="23.379271"><ele>1903.8</ele><time>2026-03-02T05:52:53.000Z</time></trkpt>
<trkpt lat="42.195876" lon="23.379272"><ele>1903.8</ele><time>2026-03-02T05:52:54.000Z</time></trkpt>
<trkpt lat="42.195875" lon="23.379272"><ele>1903.9</ele><time>2026-03-02T05:52:55.000Z</time></trkpt>
<trkpt lat="42.195874" lon="23.379273"><ele>1903.9</ele><time>2026-03-02T05:52:56.000Z</time></trkpt>
<trkpt lat="42.195874" lon="23.379273"><ele>1903.9</ele><time>2026-03-02T05:52:57.000Z</time></trkpt>
<trkpt lat="42.195874" lon="23.379273"><ele>1903.9</ele><time>2026-03-02T05:52:58.000Z</time></trkpt>
<trkpt lat="42.195874" lon="23.379274"><ele>1903.9</ele><time>2026-03-02T05:52:59.000Z</time></trkpt>
<trkpt lat="42.195874" lon="23.379275"><ele>1903.8</ele><time>2026-03-02T05:53:00.000Z</time></trkpt>
<trkpt lat="42.195874" lon="23.379277"><ele>1903.8</ele><time>2026-03-02T05:53:01.000Z</time></trkpt>
<trkpt lat="42.195874" lon="23.379278"><ele>1903.8</ele><time>2026-03-02T05:53:02.000Z</time></trkpt>
<trkpt lat="42.195874" lon="23.379279"><ele>1903.8</ele><time>2026-03-02T05:53:03.000Z</time></trkpt>
<trkpt lat="42.195874" lon="23.37928"><ele>1903.8</ele><time>2026-03-02T05:53:04.000Z</time></trkpt>
<trkpt lat="42.195874" lon="23.37928"><ele>1903.7</ele><time>2026-03-02T05:53:05.000Z</time></trkpt>
<trkpt lat="42.195873" lon="23.37928"><ele>1903.7</ele><time>2026-03-02T05:53:06.000Z</time></trkpt>
<trkpt lat="42.195873" lon="23.37928"><ele>1903.7</ele><time>2026-03-02T05:53:07.000Z</time></trkpt>
<trkpt lat="42.195873" lon="23.37928"><ele>1903.7</ele><time>2026-03-02T05:53:08.000Z</time></trkpt>
<trkpt lat="42.195873" lon="23.37928"><ele>1903.7</ele><time>2026-03-02T05:53:09.000Z</time></trkpt>
<trkpt lat="42.195873" lon="23.37928"><ele>1903.6</ele><time>2026-03-02T05:53:10.000Z</time></trkpt>
<trkpt lat="42.195873" lon="23.37928"><ele>1903.6</ele><time>2026-03-02T05:53:11.000Z</time></trkpt>
<trkpt lat="42.195873" lon="23.37928"><ele>1903.6</ele><time>2026-03-02T05:53:12.000Z</time></trkpt>
<trkpt lat="42.195873" lon="23.37928"><ele>1903.6</ele><time>2026-03-02T05:53:13.000Z</time></trkpt>
<trkpt lat="42.195872" lon="23.379279"><ele>1903.6</ele><time>2026-03-02T05:53:14.000Z</time></trkpt>
<trkpt lat="42.195868" lon="23.379276"><ele>1903.6</ele><time>2026-03-02T05:53:15.000Z</time></trkpt>
<trkpt lat="42.195864" lon="23.37927"><ele>1903.6</ele><time>2026-03-02T05:53:16.000Z</time></trkpt>
<trkpt lat="42.195857" lon="23.37926"><ele>1903.6</ele><time>2026-03-02T05:53:17.000Z</time></trkpt>
<trkpt lat="42.19585" lon="23.379247"><ele>1903.6</ele><time>2026-03-02T05:53:18.000Z</time></trkpt>
<trkpt lat="42.195843" lon="23.379231"><ele>1903.6</ele><time>2026-03-02T05:53:19.000Z</time></trkpt>
<trkpt lat="42.195838" lon="23.379216"><ele>1903.7</ele><time>2026-03-02T05:53:20.000Z</time></trkpt>
<trkpt lat="42.195833" lon="23.379201"><ele>1903.7</ele><time>2026-03-02T05:53:21.000Z</time></trkpt>
<trkpt lat="42.195829" lon="23.379188"><ele>1903.7</ele><time>2026-03-02T05:53:22.000Z</time></trkpt>
<trkpt lat="42.195826" lon="23.379177"><ele>1903.7</ele><time>2026-03-02T05:53:23.000Z</time></trkpt>
<trkpt lat="42.195822" lon="23.379166"><ele>1903.7</ele><time>2026-03-02T05:53:24.000Z</time></trkpt>
<trkpt lat="42.19582" lon="23.379156"><ele>1903.8</ele><time>2026-03-02T05:53:25.000Z</time></trkpt>
<trkpt lat="42.195818" lon="23.379146"><ele>1903.8</ele><time>2026-03-02T05:53:26.000Z</time></trkpt>
<trkpt lat="42.195816" lon="23.379138"><ele>1903.8</ele><time>2026-03-02T05:53:27.000Z</time></trkpt>
<trkpt lat="42.195816" lon="23.379133"><ele>1903.8</ele><time>2026-03-02T05:53:28.000Z</time></trkpt>
<trkpt lat="42.195816" lon="23.379132"><ele>1903.8</ele><time>2026-03-02T05:53:29.000Z</time></trkpt>
<trkpt lat="42.195815" lon="23.379133"><ele>1903.7</ele><time>2026-03-02T05:53:30.000Z</time></trkpt>
<trkpt lat="42.195816" lon="23.379135"><ele>1903.7</ele><time>2026-03-02T05:53:31.000Z</time></trkpt>
<trkpt lat="42.195815" lon="23.379135"><ele>1903.7</ele><time>2026-03-02T05:53:32.000Z</time></trkpt>
<trkpt lat="42.195814" lon="23.379131"><ele>1903.7</ele><time>2026-03-02T05:53:33.000Z</time></trkpt>
<trkpt lat="42.195813" lon="23.379124"><ele>1903.7</ele><time>2026-03-02T05:53:34.000Z</time></trkpt>
<trkpt lat="42.195812" lon="23.379113"><ele>1903.7</ele><time>2026-03-02T05:53:35.000Z</time></trkpt>
<trkpt lat="42.195809" lon="23.379099"><ele>1903.7</ele><time>2026-03-02T05:53:36.000Z</time></trkpt>
<trkpt lat="42.195806" lon="23.379085"><ele>1903.7</ele><time>2026-03-02T05:53:37.000Z</time></trkpt>
<trkpt lat="42.195803" lon="23.379071"><ele>1903.7</ele><time>2026-03-02T05:53:38.000Z</time></trkpt>
<trkpt lat="42.195799" lon="23.379059"><ele>1903.7</ele><time>2026-03-02T05:53:39.000Z</time></trkpt>
<trkpt lat="42.195794" lon="23.379047"><ele>1903.9</ele><time>2026-03-02T05:53:40.000Z</time></trkpt>
<trkpt lat="42.195789" lon="23.379035"><ele>1903.9</ele><time>2026-03-02T05:53:41.000Z</time></trkpt>
<trkpt lat="42.195782" lon="23.379022"><ele>1903.9</ele><time>2026-03-02T05:53:42.000Z</time></trkpt>
<trkpt lat="42.195774" lon="23.379008"><ele>1903.9</ele><time>2026-03-02T05:53:43.000Z</time></trkpt>
<trkpt lat="42.195766" lon="23.378995"><ele>1903.9</ele><time>2026-03-02T05:53:44.000Z</time></trkpt>
<trkpt lat="42.195757" lon="23.378981"><ele>1904.3</ele><time>2026-03-02T05:53:45.000Z</time></trkpt>
<trkpt lat="42.195748" lon="23.378967"><ele>1904.3</ele><time>2026-03-02T05:53:46.000Z</time></trkpt>
<trkpt lat="42.195739" lon="23.378954"><ele>1904.3</ele><time>2026-03-02T05:53:47.000Z</time></trkpt>
<trkpt lat="42.19573" lon="23.37894"><ele>1904.3</ele><time>2026-03-02T05:53:48.000Z</time></trkpt>
<trkpt lat="42.19572" lon="23.378927"><ele>1904.3</ele><time>2026-03-02T05:53:49.000Z</time></trkpt>
<trkpt lat="42.195711" lon="23.378913"><ele>1904.5</ele><time>2026-03-02T05:53:50.000Z</time></trkpt>
<trkpt lat="42.195701" lon="23.3789"><ele>1904.5</ele><time>2026-03-02T05:53:51.000Z</time></trkpt>
<trkpt lat="42.195692" lon="23.378887"><ele>1904.5</ele><time>2026-03-02T05:53:52.000Z</time></trkpt>
<trkpt lat="42.195683" lon="23.378873"><ele>1904.5</ele><time>2026-03-02T05:53:53.000Z</time></trkpt>
<trkpt lat="42.195675" lon="23.378858"><ele>1904.5</ele><time>2026-03-02T05:53:54.000Z</time></trkpt>
<trkpt lat="42.195667" lon="23.378843"><ele>1904.5</ele><time>2026-03-02T05:53:55.000Z</time></trkpt>
<trkpt lat="42.19566" lon="23.378828"><ele>1904.5</ele><time>2026-03-02T05:53:56.000Z</time></trkpt>
<trkpt lat="42.195653" lon="23.378813"><ele>1904.5</ele><time>2026-03-02T05:53:57.000Z</time></trkpt>
<trkpt lat="42.195645" lon="23.3788"><ele>1904.5</ele><time>2026-03-02T05:53:58.000Z</time></trkpt>
<trkpt lat="42.195637" lon="23.378786"><ele>1904.5</ele><time>2026-03-02T05:53:59.000Z</time></trkpt>
<trkpt lat="42.195629" lon="23.378773"><ele>1904.4</ele><time>2026-03-02T05:54:00.000Z</time></trkpt>
<trkpt lat="42.19562" lon="23.37876"><ele>1904.4</ele><time>2026-03-02T05:54:01.000Z</time></trkpt>
<trkpt lat="42.19561" lon="23.378746"><ele>1904.4</ele><time>2026-03-02T05:54:02.000Z</time></trkpt>
<trkpt lat="42.195601" lon="23.378733"><ele>1904.4</ele><time>2026-03-02T05:54:03.000Z</time></trkpt>
<trkpt lat="42.195592" lon="23.378719"><ele>1904.4</ele><time>2026-03-02T05:54:04.000Z</time></trkpt>
<trkpt lat="42.195584" lon="23.378706"><ele>1904</ele><time>2026-03-02T05:54:05.000Z</time></trkpt>
<trkpt lat="42.195576" lon="23.378693"><ele>1904</ele><time>2026-03-02T05:54:06.000Z</time></trkpt>
<trkpt lat="42.195568" lon="23.37868"><ele>1904</ele><time>2026-03-02T05:54:07.000Z</time></trkpt>
<trkpt lat="42.19556" lon="23.378667"><ele>1904</ele><time>2026-03-02T05:54:08.000Z</time></trkpt>
<trkpt lat="42.195552" lon="23.378654"><ele>1904</ele><time>2026-03-02T05:54:09.000Z</time></trkpt>
<trkpt lat="42.195544" lon="23.37864"><ele>1903.9</ele><time>2026-03-02T05:54:10.000Z</time></trkpt>
<trkpt lat="42.195536" lon="23.378625"><ele>1903.9</ele><time>2026-03-02T05:54:11.000Z</time></trkpt>
<trkpt lat="42.195527" lon="23.378611"><ele>1903.9</ele><time>2026-03-02T05:54:12.000Z</time></trkpt>
<trkpt lat="42.195519" lon="23.378597"><ele>1903.9</ele><time>2026-03-02T05:54:13.000Z</time></trkpt>
<trkpt lat="42.195512" lon="23.378582"><ele>1903.9</ele><time>2026-03-02T05:54:14.000Z</time></trkpt>
<trkpt lat="42.195505" lon="23.378568"><ele>1903.7</ele><time>2026-03-02T05:54:15.000Z</time></trkpt>
<trkpt lat="42.195499" lon="23.378555"><ele>1903.7</ele><time>2026-03-02T05:54:16.000Z</time></trkpt>
<trkpt lat="42.195492" lon="23.378541"><ele>1903.7</ele><time>2026-03-02T05:54:17.000Z</time></trkpt>
<trkpt lat="42.195485" lon="23.378528"><ele>1903.7</ele><time>2026-03-02T05:54:18.000Z</time></trkpt>
<trkpt lat="42.195478" lon="23.378515"><ele>1903.7</ele><time>2026-03-02T05:54:19.000Z</time></trkpt>
<trkpt lat="42.195471" lon="23.378502"><ele>1903.7</ele><time>2026-03-02T05:54:20.000Z</time></trkpt>
<trkpt lat="42.195464" lon="23.37849"><ele>1903.7</ele><time>2026-03-02T05:54:21.000Z</time></trkpt>
<trkpt lat="42.195457" lon="23.378478"><ele>1903.7</ele><time>2026-03-02T05:54:22.000Z</time></trkpt>
<trkpt lat="42.19545" lon="23.378467"><ele>1903.7</ele><time>2026-03-02T05:54:23.000Z</time></trkpt>
<trkpt lat="42.195442" lon="23.378455"><ele>1903.7</ele><time>2026-03-02T05:54:24.000Z</time></trkpt>
<trkpt lat="42.195433" lon="23.378443"><ele>1903.8</ele><time>2026-03-02T05:54:25.000Z</time></trkpt>
<trkpt lat="42.195424" lon="23.378429"><ele>1903.8</ele><time>2026-03-02T05:54:26.000Z</time></trkpt>
<trkpt lat="42.195416" lon="23.378413"><ele>1903.8</ele><time>2026-03-02T05:54:27.000Z</time></trkpt>
<trkpt lat="42.195409" lon="23.378398"><ele>1903.8</ele><time>2026-03-02T05:54:28.000Z</time></trkpt>
<trkpt lat="42.195403" lon="23.378382"><ele>1903.8</ele><time>2026-03-02T05:54:29.000Z</time></trkpt>
<trkpt lat="42.195399" lon="23.378366"><ele>1904.2</ele><time>2026-03-02T05:54:30.000Z</time></trkpt>
<trkpt lat="42.195395" lon="23.37835"><ele>1904.2</ele><time>2026-03-02T05:54:31.000Z</time></trkpt>
<trkpt lat="42.195392" lon="23.378335"><ele>1904.2</ele><time>2026-03-02T05:54:32.000Z</time></trkpt>
<trkpt lat="42.195389" lon="23.378318"><ele>1904.2</ele><time>2026-03-02T05:54:33.000Z</time></trkpt>
<trkpt lat="42.195386" lon="23.378302"><ele>1904.2</ele><time>2026-03-02T05:54:34.000Z</time></trkpt>
<trkpt lat="42.195384" lon="23.378283"><ele>1904.6</ele><time>2026-03-02T05:54:35.000Z</time></trkpt>
<trkpt lat="42.195382" lon="23.378265"><ele>1904.6</ele><time>2026-03-02T05:54:36.000Z</time></trkpt>
<trkpt lat="42.19538" lon="23.378248"><ele>1904.6</ele><time>2026-03-02T05:54:37.000Z</time></trkpt>
<trkpt lat="42.195378" lon="23.378232"><ele>1904.6</ele><time>2026-03-02T05:54:38.000Z</time></trkpt>
<trkpt lat="42.195377" lon="23.378216"><ele>1904.6</ele><time>2026-03-02T05:54:39.000Z</time></trkpt>
<trkpt lat="42.195375" lon="23.3782"><ele>1904.8</ele><time>2026-03-02T05:54:40.000Z</time></trkpt>
<trkpt lat="42.195374" lon="23.378183"><ele>1904.8</ele><time>2026-03-02T05:54:41.000Z</time></trkpt>
<trkpt lat="42.195374" lon="23.378166"><ele>1904.8</ele><time>2026-03-02T05:54:42.000Z</time></trkpt>
<trkpt lat="42.195373" lon="23.378148"><ele>1904.8</ele><time>2026-03-02T05:54:43.000Z</time></trkpt>
<trkpt lat="42.195373" lon="23.37813"><ele>1904.8</ele><time>2026-03-02T05:54:44.000Z</time></trkpt>
<trkpt lat="42.195372" lon="23.378113"><ele>1905.3</ele><time>2026-03-02T05:54:45.000Z</time></trkpt>
<trkpt lat="42.195372" lon="23.378096"><ele>1905.3</ele><time>2026-03-02T05:54:46.000Z</time></trkpt>
<trkpt lat="42.195371" lon="23.378079"><ele>1905.3</ele><time>2026-03-02T05:54:47.000Z</time></trkpt>
<trkpt lat="42.19537" lon="23.378063"><ele>1905.3</ele><time>2026-03-02T05:54:48.000Z</time></trkpt>
<trkpt lat="42.195367" lon="23.378048"><ele>1905.3</ele><time>2026-03-02T05:54:49.000Z</time></trkpt>
<trkpt lat="42.195364" lon="23.378035"><ele>1905.9</ele><time>2026-03-02T05:54:50.000Z</time></trkpt>
<trkpt lat="42.195358" lon="23.378024"><ele>1905.9</ele><time>2026-03-02T05:54:51.000Z</time></trkpt>
<trkpt lat="42.19535" lon="23.378015"><ele>1905.9</ele><time>2026-03-02T05:54:52.000Z</time></trkpt>
<trkpt lat="42.195342" lon="23.378006"><ele>1905.9</ele><time>2026-03-02T05:54:53.000Z</time></trkpt>
<trkpt lat="42.195333" lon="23.377999"><ele>1905.9</ele><time>2026-03-02T05:54:54.000Z</time></trkpt>
<trkpt lat="42.195323" lon="23.377991"><ele>1906</ele><time>2026-03-02T05:54:55.000Z</time></trkpt>
<trkpt lat="42.195313" lon="23.377984"><ele>1906</ele><time>2026-03-02T05:54:56.000Z</time></trkpt>
<trkpt lat="42.195303" lon="23.377977"><ele>1906</ele><time>2026-03-02T05:54:57.000Z</time></trkpt>
<trkpt lat="42.195293" lon="23.37797"><ele>1906</ele><time>2026-03-02T05:54:58.000Z</time></trkpt>
<trkpt lat="42.195283" lon="23.377963"><ele>1906</ele><time>2026-03-02T05:54:59.000Z</time></trkpt>
<trkpt lat="42.195273" lon="23.377958"><ele>1906.1</ele><time>2026-03-02T05:55:00.000Z</time></trkpt>
<trkpt lat="42.195265" lon="23.377952"><ele>1906.1</ele><time>2026-03-02T05:55:01.000Z</time></trkpt>
<trkpt lat="42.195257" lon="23.377947"><ele>1906.1</ele><time>2026-03-02T05:55:02.000Z</time></trkpt>
<trkpt lat="42.19525" lon="23.377942"><ele>1906.1</ele><time>2026-03-02T05:55:03.000Z</time></trkpt>
<trkpt lat="42.195243" lon="23.377937"><ele>1906.1</ele><time>2026-03-02T05:55:04.000Z</time></trkpt>
<trkpt lat="42.195235" lon="23.377932"><ele>1906.4</ele><time>2026-03-02T05:55:05.000Z</time></trkpt>
<trkpt lat="42.195228" lon="23.377927"><ele>1906.4</ele><time>2026-03-02T05:55:06.000Z</time></trkpt>
<trkpt lat="42.195221" lon="23.377922"><ele>1906.4</ele><time>2026-03-02T05:55:07.000Z</time></trkpt>
<trkpt lat="42.195215" lon="23.377919"><ele>1906.4</ele><time>2026-03-02T05:55:08.000Z</time></trkpt>
<trkpt lat="42.195211" lon="23.377917"><ele>1906.4</ele><time>2026-03-02T05:55:09.000Z</time></trkpt>
<trkpt lat="42.195208" lon="23.377915"><ele>1906.7</ele><time>2026-03-02T05:55:10.000Z</time></trkpt>
<trkpt lat="42.195206" lon="23.377914"><ele>1906.7</ele><time>2026-03-02T05:55:11.000Z</time></trkpt>
<trkpt lat="42.195206" lon="23.377913"><ele>1906.7</ele><time>2026-03-02T05:55:12.000Z</time></trkpt>
<trkpt lat="42.195205" lon="23.377911"><ele>1906.7</ele><time>2026-03-02T05:55:13.000Z</time></trkpt>
<trkpt lat="42.195205" lon="23.377909"><ele>1906.7</ele><time>2026-03-02T05:55:14.000Z</time></trkpt>
<trkpt lat="42.195205" lon="23.377908"><ele>1907.6</ele><time>2026-03-02T05:55:15.000Z</time></trkpt>
<trkpt lat="42.195205" lon="23.377906"><ele>1907.6</ele><time>2026-03-02T05:55:16.000Z</time></trkpt>
<trkpt lat="42.195206" lon="23.377907"><ele>1907.6</ele><time>2026-03-02T05:55:17.000Z</time></trkpt>
<trkpt lat="42.195206" lon="23.377906"><ele>1907.6</ele><time>2026-03-02T05:55:18.000Z</time></trkpt>
<trkpt lat="42.195206" lon="23.377906"><ele>1907.6</ele><time>2026-03-02T05:55:19.000Z</time></trkpt>
<trkpt lat="42.195206" lon="23.377906"><ele>1908.6</ele><time>2026-03-02T05:55:20.000Z</time></trkpt>
<trkpt lat="42.195207" lon="23.377906"><ele>1908.6</ele><time>2026-03-02T05:55:21.000Z</time></trkpt>
<trkpt lat="42.195207" lon="23.377906"><ele>1908.6</ele><time>2026-03-02T05:55:22.000Z</time></trkpt>
<trkpt lat="42.195207" lon="23.377906"><ele>1908.6</ele><time>2026-03-02T05:55:23.000Z</time></trkpt>
<trkpt lat="42.195205" lon="23.377906"><ele>1908.6</ele><time>2026-03-02T05:55:24.000Z</time></trkpt>
<trkpt lat="42.195203" lon="23.377905"><ele>1908.9</ele><time>2026-03-02T05:55:25.000Z</time></trkpt>
<trkpt lat="42.195198" lon="23.377903"><ele>1908.9</ele><time>2026-03-02T05:55:26.000Z</time></trkpt>
<trkpt lat="42.195192" lon="23.3779"><ele>1908.9</ele><time>2026-03-02T05:55:27.000Z</time></trkpt>
<trkpt lat="42.195183" lon="23.377898"><ele>1908.9</ele><time>2026-03-02T05:55:28.000Z</time></trkpt>
<trkpt lat="42.195174" lon="23.377895"><ele>1908.9</ele><time>2026-03-02T05:55:29.000Z</time></trkpt>
<trkpt lat="42.195165" lon="23.377892"><ele>1909.2</ele><time>2026-03-02T05:55:30.000Z</time></trkpt>
<trkpt lat="42.195155" lon="23.377889"><ele>1909.2</ele><time>2026-03-02T05:55:31.000Z</time></trkpt>
<trkpt lat="42.195145" lon="23.377885"><ele>1909.2</ele><time>2026-03-02T05:55:32.000Z</time></trkpt>
<trkpt lat="42.195136" lon="23.377881"><ele>1909.2</ele><time>2026-03-02T05:55:33.000Z</time></trkpt>
<trkpt lat="42.195126" lon="23.377877"><ele>1909.2</ele><time>2026-03-02T05:55:34.000Z</time></trkpt>
<trkpt lat="42.195116" lon="23.377872"><ele>1909.5</ele><time>2026-03-02T05:55:35.000Z</time></trkpt>
<trkpt lat="42.195107" lon="23.377869"><ele>1909.5</ele><time>2026-03-02T05:55:36.000Z</time></trkpt>
<trkpt lat="42.195099" lon="23.377865"><ele>1909.5</ele><time>2026-03-02T05:55:37.000Z</time></trkpt>
<trkpt lat="42.195091" lon="23.37786"><ele>1909.5</ele><time>2026-03-02T05:55:38.000Z</time></trkpt>
<trkpt lat="42.195084" lon="23.377855"><ele>1909.5</ele><time>2026-03-02T05:55:39.000Z</time></trkpt>
<trkpt lat="42.195076" lon="23.377852"><ele>1909.7</ele><time>2026-03-02T05:55:40.000Z</time></trkpt>
<trkpt lat="42.195069" lon="23.377847"><ele>1909.7</ele><time>2026-03-02T05:55:41.000Z</time></trkpt>
<trkpt lat="42.195063" lon="23.377843"><ele>1909.7</ele><time>2026-03-02T05:55:42.000Z</time></trkpt>
<trkpt lat="42.195056" lon="23.377838"><ele>1909.7</ele><time>2026-03-02T05:55:43.000Z</time></trkpt>
<trkpt lat="42.195048" lon="23.377834"><ele>1909.7</ele><time>2026-03-02T05:55:44.000Z</time></trkpt>
<trkpt lat="42.19504" lon="23.377828"><ele>1910.3</ele><time>2026-03-02T05:55:45.000Z</time></trkpt>
<trkpt lat="42.195032" lon="23.377824"><ele>1910.3</ele><time>2026-03-02T05:55:46.000Z</time></trkpt>
<trkpt lat="42.195022" lon="23.377819"><ele>1910.3</ele><time>2026-03-02T05:55:47.000Z</time></trkpt>
<trkpt lat="42.195013" lon="23.377813"><ele>1910.3</ele><time>2026-03-02T05:55:48.000Z</time></trkpt>
<trkpt lat="42.195003" lon="23.377807"><ele>1910.3</ele><time>2026-03-02T05:55:49.000Z</time></trkpt>
<trkpt lat="42.194994" lon="23.377801"><ele>1911.6</ele><time>2026-03-02T05:55:50.000Z</time></trkpt>
<trkpt lat="42.194985" lon="23.377795"><ele>1911.6</ele><time>2026-03-02T05:55:51.000Z</time></trkpt>
<trkpt lat="42.194975" lon="23.377789"><ele>1911.6</ele><time>2026-03-02T05:55:52.000Z</time></trkpt>
<trkpt lat="42.194965" lon="23.377784"><ele>1911.6</ele><time>2026-03-02T05:55:53.000Z</time></trkpt>
<trkpt lat="42.194956" lon="23.377778"><ele>1911.6</ele><time>2026-03-02T05:55:54.000Z</time></trkpt>
<trkpt lat="42.194946" lon="23.377772"><ele>1912.4</ele><time>2026-03-02T05:55:55.000Z</time></trkpt>
<trkpt lat="42.194935" lon="23.377764"><ele>1912.4</ele><time>2026-03-02T05:55:56.000Z</time></trkpt>
<trkpt lat="42.194925" lon="23.377756"><ele>1912.4</ele><time>2026-03-02T05:55:57.000Z</time></trkpt>
<trkpt lat="42.194914" lon="23.377748"><ele>1912.4</ele><time>2026-03-02T05:55:58.000Z</time></trkpt>
<trkpt lat="42.194904" lon="23.37774"><ele>1912.4</ele><time>2026-03-02T05:55:59.000Z</time></trkpt>
<trkpt lat="42.194893" lon="23.377732"><ele>1913.9</ele><time>2026-03-02T05:56:00.000Z</time></trkpt>
<trkpt lat="42.194883" lon="23.377724"><ele>1913.9</ele><time>2026-03-02T05:56:01.000Z</time></trkpt>
<trkpt lat="42.194873" lon="23.377717"><ele>1913.9</ele><time>2026-03-02T05:56:02.000Z</time></trkpt>
<trkpt lat="42.194863" lon="23.377709"><ele>1913.9</ele><time>2026-03-02T05:56:03.000Z</time></trkpt>
<trkpt lat="42.194854" lon="23.377701"><ele>1913.9</ele><time>2026-03-02T05:56:04.000Z</time></trkpt>
<trkpt lat="42.194845" lon="23.377691"><ele>1915</ele><time>2026-03-02T05:56:05.000Z</time></trkpt>
<trkpt lat="42.194836" lon="23.377681"><ele>1915</ele><time>2026-03-02T05:56:06.000Z</time></trkpt>
<trkpt lat="42.194828" lon="23.37767"><ele>1915</ele><time>2026-03-02T05:56:07.000Z</time></trkpt>
<trkpt lat="42.194819" lon="23.377659"><ele>1915</ele><time>2026-03-02T05:56:08.000Z</time></trkpt>
<trkpt lat="42.194811" lon="23.377649"><ele>1915</ele><time>2026-03-02T05:56:09.000Z</time></trkpt>
<trkpt lat="42.194802" lon="23.37764"><ele>1915.4</ele><time>2026-03-02T05:56:10.000Z</time></trkpt>
<trkpt lat="42.194793" lon="23.377631"><ele>1915.4</ele><time>2026-03-02T05:56:11.000Z</time></trkpt>
<trkpt lat="42.194783" lon="23.377623"><ele>1915.4</ele><time>2026-03-02T05:56:12.000Z</time></trkpt>
<trkpt lat="42.194772" lon="23.377615"><ele>1915.4</ele><time>2026-03-02T05:56:13.000Z</time></trkpt>
<trkpt lat="42.194762" lon="23.377606"><ele>1915.4</ele><time>2026-03-02T05:56:14.000Z</time></trkpt>
<trkpt lat="42.194752" lon="23.377599"><ele>1916.1</ele><time>2026-03-02T05:56:15.000Z</time></trkpt>
<trkpt lat="42.194742" lon="23.377592"><ele>1916.1</ele><time>2026-03-02T05:56:16.000Z</time></trkpt>
<trkpt lat="42.194731" lon="23.377586"><ele>1916.1</ele><time>2026-03-02T05:56:17.000Z</time></trkpt>
<trkpt lat="42.194721" lon="23.37758"><ele>1916.1</ele><time>2026-03-02T05:56:18.000Z</time></trkpt>
<trkpt lat="42.19471" lon="23.377576"><ele>1916.1</ele><time>2026-03-02T05:56:19.000Z</time></trkpt>
<trkpt lat="42.194699" lon="23.377571"><ele>1916.8</ele><time>2026-03-02T05:56:20.000Z</time></trkpt>
<trkpt lat="42.194688" lon="23.377566"><ele>1916.8</ele><time>2026-03-02T05:56:21.000Z</time></trkpt>
<trkpt lat="42.194677" lon="23.377563"><ele>1916.8</ele><time>2026-03-02T05:56:22.000Z</time></trkpt>
<trkpt lat="42.194666" lon="23.37756"><ele>1916.8</ele><time>2026-03-02T05:56:23.000Z</time></trkpt>
<trkpt lat="42.194655" lon="23.377556"><ele>1916.8</ele><time>2026-03-02T05:56:24.000Z</time></trkpt>
<trkpt lat="42.194644" lon="23.377554"><ele>1917.1</ele><time>2026-03-02T05:56:25.000Z</time></trkpt>
<trkpt lat="42.194634" lon="23.377552"><ele>1917.1</ele><time>2026-03-02T05:56:26.000Z</time></trkpt>
<trkpt lat="42.194623" lon="23.37755"><ele>1917.1</ele><time>2026-03-02T05:56:27.000Z</time></trkpt>
<trkpt lat="42.194613" lon="23.377547"><ele>1917.1</ele><time>2026-03-02T05:56:28.000Z</time></trkpt>
<trkpt lat="42.194601" lon="23.377546"><ele>1917.1</ele><time>2026-03-02T05:56:29.000Z</time></trkpt>
<trkpt lat="42.194589" lon="23.377544"><ele>1917.7</ele><time>2026-03-02T05:56:30.000Z</time></trkpt>
<trkpt lat="42.194577" lon="23.377543"><ele>1917.7</ele><time>2026-03-02T05:56:31.000Z</time></trkpt>
<trkpt lat="42.194566" lon="23.377543"><ele>1917.7</ele><time>2026-03-02T05:56:32.000Z</time></trkpt>
<trkpt lat="42.194554" lon="23.377544"><ele>1917.7</ele><time>2026-03-02T05:56:33.000Z</time></trkpt>
<trkpt lat="42.194544" lon="23.377546"><ele>1917.7</ele><time>2026-03-02T05:56:34.000Z</time></trkpt>
<trkpt lat="42.194534" lon="23.377549"><ele>1918.3</ele><time>2026-03-02T05:56:35.000Z</time></trkpt>
<trkpt lat="42.194523" lon="23.377551"><ele>1918.3</ele><time>2026-03-02T05:56:36.000Z</time></trkpt>
<trkpt lat="42.194512" lon="23.377553"><ele>1918.3</ele><time>2026-03-02T05:56:37.000Z</time></trkpt>
<trkpt lat="42.194501" lon="23.377555"><ele>1918.3</ele><time>2026-03-02T05:56:38.000Z</time></trkpt>
<trkpt lat="42.194489" lon="23.377558"><ele>1918.3</ele><time>2026-03-02T05:56:39.000Z</time></trkpt>
<trkpt lat="42.194478" lon="23.377559"><ele>1918.7</ele><time>2026-03-02T05:56:40.000Z</time></trkpt>
<trkpt lat="42.194467" lon="23.37756"><ele>1918.7</ele><time>2026-03-02T05:56:41.000Z</time></trkpt>
<trkpt lat="42.194455" lon="23.37756"><ele>1918.7</ele><time>2026-03-02T05:56:42.000Z</time></trkpt>
<trkpt lat="42.194443" lon="23.377558"><ele>1918.7</ele><time>2026-03-02T05:56:43.000Z</time></trkpt>
<trkpt lat="42.194431" lon="23.377555"><ele>1918.7</ele><time>2026-03-02T05:56:44.000Z</time></trkpt>
<trkpt lat="42.194419" lon="23.377551"><ele>1919.4</ele><time>2026-03-02T05:56:45.000Z</time></trkpt>
<trkpt lat="42.194408" lon="23.377544"><ele>1919.4</ele><time>2026-03-02T05:56:46.000Z</time></trkpt>
<trkpt lat="42.194397" lon="23.377538"><ele>1919.4</ele><time>2026-03-02T05:56:47.000Z</time></trkpt>
<trkpt lat="42.194386" lon="23.377529"><ele>1919.4</ele><time>2026-03-02T05:56:48.000Z</time></trkpt>
<trkpt lat="42.194376" lon="23.377519"><ele>1919.4</ele><time>2026-03-02T05:56:49.000Z</time></trkpt>
<trkpt lat="42.194366" lon="23.377508"><ele>1920.1</ele><time>2026-03-02T05:56:50.000Z</time></trkpt>
<trkpt lat="42.194358" lon="23.377498"><ele>1920.1</ele><time>2026-03-02T05:56:51.000Z</time></trkpt>
<trkpt lat="42.19435" lon="23.377487"><ele>1920.1</ele><time>2026-03-02T05:56:52.000Z</time></trkpt>
<trkpt lat="42.194342" lon="23.377475"><ele>1920.1</ele><time>2026-03-02T05:56:53.000Z</time></trkpt>
<trkpt lat="42.194335" lon="23.377465"><ele>1920.1</ele><time>2026-03-02T05:56:54.000Z</time></trkpt>
<trkpt lat="42.194327" lon="23.377454"><ele>1920.4</ele><time>2026-03-02T05:56:55.000Z</time></trkpt>
<trkpt lat="42.194318" lon="23.377445"><ele>1920.4</ele><time>2026-03-02T05:56:56.000Z</time></trkpt>
<trkpt lat="42.194309" lon="23.377438"><ele>1920.4</ele><time>2026-03-02T05:56:57.000Z</time></trkpt>
<trkpt lat="42.194298" lon="23.377432"><ele>1920.4</ele><time>2026-03-02T05:56:58.000Z</time></trkpt>
<trkpt lat="42.194285" lon="23.377426"><ele>1920.4</ele><time>2026-03-02T05:56:59.000Z</time></trkpt>
<trkpt lat="42.194273" lon="23.377422"><ele>1921.2</ele><time>2026-03-02T05:57:00.000Z</time></trkpt>
<trkpt lat="42.194261" lon="23.377418"><ele>1921.2</ele><time>2026-03-02T05:57:01.000Z</time></trkpt>
<trkpt lat="42.194248" lon="23.377416"><ele>1921.2</ele><time>2026-03-02T05:57:02.000Z</time></trkpt>
<trkpt lat="42.194236" lon="23.377414"><ele>1921.2</ele><time>2026-03-02T05:57:03.000Z</time></trkpt>
<trkpt lat="42.194223" lon="23.377414"><ele>1921.2</ele><time>2026-03-02T05:57:04.000Z</time></trkpt>
<trkpt lat="42.194211" lon="23.377414"><ele>1921.9</ele><time>2026-03-02T05:57:05.000Z</time></trkpt>
<trkpt lat="42.194199" lon="23.377413"><ele>1921.9</ele><time>2026-03-02T05:57:06.000Z</time></trkpt>
<trkpt lat="42.194186" lon="23.37741"><ele>1921.9</ele><time>2026-03-02T05:57:07.000Z</time></trkpt>
<trkpt lat="42.194174" lon="23.377406"><ele>1921.9</ele><time>2026-03-02T05:57:08.000Z</time></trkpt>
<trkpt lat="42.194162" lon="23.377401"><ele>1921.9</ele><time>2026-03-02T05:57:09.000Z</time></trkpt>
<trkpt lat="42.194149" lon="23.377395"><ele>1922.1</ele><time>2026-03-02T05:57:10.000Z</time></trkpt>
<trkpt lat="42.194136" lon="23.377388"><ele>1922.1</ele><time>2026-03-02T05:57:11.000Z</time></trkpt>
<trkpt lat="42.194122" lon="23.377382"><ele>1922.1</ele><time>2026-03-02T05:57:12.000Z</time></trkpt>
<trkpt lat="42.194109" lon="23.377376"><ele>1922.1</ele><time>2026-03-02T05:57:13.000Z</time></trkpt>
<trkpt lat="42.194097" lon="23.377369"><ele>1922.1</ele><time>2026-03-02T05:57:14.000Z</time></trkpt>
<trkpt lat="42.194086" lon="23.377361"><ele>1922.4</ele><time>2026-03-02T05:57:15.000Z</time></trkpt>
<trkpt lat="42.194075" lon="23.377352"><ele>1922.4</ele><time>2026-03-02T05:57:16.000Z</time></trkpt>
<trkpt lat="42.194066" lon="23.377342"><ele>1922.4</ele><time>2026-03-02T05:57:17.000Z</time></trkpt>
<trkpt lat="42.194057" lon="23.377331"><ele>1922.4</ele><time>2026-03-02T05:57:18.000Z</time></trkpt>
<trkpt lat="42.194047" lon="23.377319"><ele>1922.4</ele><time>2026-03-02T05:57:19.000Z</time></trkpt>
<trkpt lat="42.194038" lon="23.377307"><ele>1922.7</ele><time>2026-03-02T05:57:20.000Z</time></trkpt>
<trkpt lat="42.19403" lon="23.377296"><ele>1922.7</ele><time>2026-03-02T05:57:21.000Z</time></trkpt>
<trkpt lat="42.194022" lon="23.377285"><ele>1922.7</ele><time>2026-03-02T05:57:22.000Z</time></trkpt>
<trkpt lat="42.194015" lon="23.377275"><ele>1922.7</ele><time>2026-03-02T05:57:23.000Z</time></trkpt>
<trkpt lat="42.194009" lon="23.377264"><ele>1922.7</ele><time>2026-03-02T05:57:24.000Z</time></trkpt>
<trkpt lat="42.194003" lon="23.377253"><ele>1922.9</ele><time>2026-03-02T05:57:25.000Z</time></trkpt>
<trkpt lat="42.193996" lon="23.377242"><ele>1922.9</ele><time>2026-03-02T05:57:26.000Z</time></trkpt>
<trkpt lat="42.193988" lon="23.377231"><ele>1922.9</ele><time>2026-03-02T05:57:27.000Z</time></trkpt>
<trkpt lat="42.19398" lon="23.377222"><ele>1922.9</ele><time>2026-03-02T05:57:28.000Z</time></trkpt>
<trkpt lat="42.193971" lon="23.377214"><ele>1922.9</ele><time>2026-03-02T05:57:29.000Z</time></trkpt>
<trkpt lat="42.193961" lon="23.377207"><ele>1923.3</ele><time>2026-03-02T05:57:30.000Z</time></trkpt>
<trkpt lat="42.193952" lon="23.377201"><ele>1923.3</ele><time>2026-03-02T05:57:31.000Z</time></trkpt>
<trkpt lat="42.193943" lon="23.377198"><ele>1923.3</ele><time>2026-03-02T05:57:32.000Z</time></trkpt>
<trkpt lat="42.193934" lon="23.377197"><ele>1923.3</ele><time>2026-03-02T05:57:33.000Z</time></trkpt>
<trkpt lat="42.193924" lon="23.377196"><ele>1923.3</ele><time>2026-03-02T05:57:34.000Z</time></trkpt>
<trkpt lat="42.193914" lon="23.377197"><ele>1924.2</ele><time>2026-03-02T05:57:35.000Z</time></trkpt>
<trkpt lat="42.193903" lon="23.377197"><ele>1924.2</ele><time>2026-03-02T05:57:36.000Z</time></trkpt>
<trkpt lat="42.193892" lon="23.377197"><ele>1924.2</ele><time>2026-03-02T05:57:37.000Z</time></trkpt>
<trkpt lat="42.193881" lon="23.377197"><ele>1924.2</ele><time>2026-03-02T05:57:38.000Z</time></trkpt>
<trkpt lat="42.193869" lon="23.377197"><ele>1924.2</ele><time>2026-03-02T05:57:39.000Z</time></trkpt>
<trkpt lat="42.193859" lon="23.377196"><ele>1924.7</ele><time>2026-03-02T05:57:40.000Z</time></trkpt>
<trkpt lat="42.193849" lon="23.377197"><ele>1924.7</ele><time>2026-03-02T05:57:41.000Z</time></trkpt>
<trkpt lat="42.193839" lon="23.377197"><ele>1924.7</ele><time>2026-03-02T05:57:42.000Z</time></trkpt>
<trkpt lat="42.19383" lon="23.377196"><ele>1924.7</ele><time>2026-03-02T05:57:43.000Z</time></trkpt>
<trkpt lat="42.19382" lon="23.377196"><ele>1924.7</ele><time>2026-03-02T05:57:44.000Z</time></trkpt>
<trkpt lat="42.19381" lon="23.377194"><ele>1925.8</ele><time>2026-03-02T05:57:45.000Z</time></trkpt>
<trkpt lat="42.193801" lon="23.37719"><ele>1925.8</ele><time>2026-03-02T05:57:46.000Z</time></trkpt>
<trkpt lat="42.193791" lon="23.377187"><ele>1925.8</ele><time>2026-03-02T05:57:47.000Z</time></trkpt>
<trkpt lat="42.193781" lon="23.377181"><ele>1925.8</ele><time>2026-03-02T05:57:48.000Z</time></trkpt>
<trkpt lat="42.193771" lon="23.377175"><ele>1925.8</ele><time>2026-03-02T05:57:49.000Z</time></trkpt>
<trkpt lat="42.193763" lon="23.377169"><ele>1926.8</ele><time>2026-03-02T05:57:50.000Z</time></trkpt>
<trkpt lat="42.193754" lon="23.377162"><ele>1926.8</ele><time>2026-03-02T05:57:51.000Z</time></trkpt>
<trkpt lat="42.193744" lon="23.377153"><ele>1926.8</ele><time>2026-03-02T05:57:52.000Z</time></trkpt>
<trkpt lat="42.193736" lon="23.377145"><ele>1926.8</ele><time>2026-03-02T05:57:53.000Z</time></trkpt>
<trkpt lat="42.193728" lon="23.377136"><ele>1926.8</ele><time>2026-03-02T05:57:54.000Z</time></trkpt>
<trkpt lat="42.193721" lon="23.377127"><ele>1927.3</ele><time>2026-03-02T05:57:55.000Z</time></trkpt>
<trkpt lat="42.193714" lon="23.377117"><ele>1927.3</ele><time>2026-03-02T05:57:56.000Z</time></trkpt>
<trkpt lat="42.193708" lon="23.377107"><ele>1927.3</ele><time>2026-03-02T05:57:57.000Z</time></trkpt>
<trkpt lat="42.193702" lon="23.377096"><ele>1927.3</ele><time>2026-03-02T05:57:58.000Z</time></trkpt>
<trkpt lat="42.193697" lon="23.377084"><ele>1927.3</ele><time>2026-03-02T05:57:59.000Z</time></trkpt>
<trkpt lat="42.193693" lon="23.377072"><ele>1928.4</ele><time>2026-03-02T05:58:00.000Z</time></trkpt>
<trkpt lat="42.193688" lon="23.37706"><ele>1928.4</ele><time>2026-03-02T05:58:01.000Z</time></trkpt>
<trkpt lat="42.193684" lon="23.377048"><ele>1928.4</ele><time>2026-03-02T05:58:02.000Z</time></trkpt>
<trkpt lat="42.193679" lon="23.377036"><ele>1928.4</ele><time>2026-03-02T05:58:03.000Z</time></trkpt>
<trkpt lat="42.193672" lon="23.377023"><ele>1928.4</ele><time>2026-03-02T05:58:04.000Z</time></trkpt>
<trkpt lat="42.193665" lon="23.377011"><ele>1929.4</ele><time>2026-03-02T05:58:05.000Z</time></trkpt>
<trkpt lat="42.193659" lon="23.376999"><ele>1929.4</ele><time>2026-03-02T05:58:06.000Z</time></trkpt>
<trkpt lat="42.19365" lon="23.376986"><ele>1929.4</ele><time>2026-03-02T05:58:07.000Z</time></trkpt>
<trkpt lat="42.193642" lon="23.376974"><ele>1929.4</ele><time>2026-03-02T05:58:08.000Z</time></trkpt>
<trkpt lat="42.193634" lon="23.376962"><ele>1929.4</ele><time>2026-03-02T05:58:09.000Z</time></trkpt>
<trkpt lat="42.193626" lon="23.376951"><ele>1929.9</ele><time>2026-03-02T05:58:10.000Z</time></trkpt>
<trkpt lat="42.193618" lon="23.376941"><ele>1929.9</ele><time>2026-03-02T05:58:11.000Z</time></trkpt>
<trkpt lat="42.193611" lon="23.376932"><ele>1929.9</ele><time>2026-03-02T05:58:12.000Z</time></trkpt>
<trkpt lat="42.193604" lon="23.376923"><ele>1929.9</ele><time>2026-03-02T05:58:13.000Z</time></trkpt>
<trkpt lat="42.193599" lon="23.376914"><ele>1929.9</ele><time>2026-03-02T05:58:14.000Z</time></trkpt>
<trkpt lat="42.193595" lon="23.376904"><ele>1930.8</ele><time>2026-03-02T05:58:15.000Z</time></trkpt>
<trkpt lat="42.193589" lon="23.376895"><ele>1930.8</ele><time>2026-03-02T05:58:16.000Z</time></trkpt>
<trkpt lat="42.193585" lon="23.376885"><ele>1930.8</ele><time>2026-03-02T05:58:17.000Z</time></trkpt>
<trkpt lat="42.19358" lon="23.376875"><ele>1930.8</ele><time>2026-03-02T05:58:18.000Z</time></trkpt>
<trkpt lat="42.193575" lon="23.376866"><ele>1930.8</ele><time>2026-03-02T05:58:19.000Z</time></trkpt>
<trkpt lat="42.193573" lon="23.376861"><ele>1931.5</ele><time>2026-03-02T05:58:20.000Z</time></trkpt>
<trkpt lat="42.193571" lon="23.376859"><ele>1931.5</ele><time>2026-03-02T05:58:21.000Z</time></trkpt>
<trkpt lat="42.193569" lon="23.376859"><ele>1931.5</ele><time>2026-03-02T05:58:22.000Z</time></trkpt>
<trkpt lat="42.193568" lon="23.37686"><ele>1931.5</ele><time>2026-03-02T05:58:23.000Z</time></trkpt>
<trkpt lat="42.193567" lon="23.376862"><ele>1931.5</ele><time>2026-03-02T05:58:24.000Z</time></trkpt>
<trkpt lat="42.193566" lon="23.376862"><ele>1931.9</ele><time>2026-03-02T05:58:25.000Z</time></trkpt>
<trkpt lat="42.193566" lon="23.376863"><ele>1931.9</ele><time>2026-03-02T05:58:26.000Z</time></trkpt>
<trkpt lat="42.193567" lon="23.376864"><ele>1931.9</ele><time>2026-03-02T05:58:27.000Z</time></trkpt>
<trkpt lat="42.193568" lon="23.376865"><ele>1931.9</ele><time>2026-03-02T05:58:28.000Z</time></trkpt>
<trkpt lat="42.193568" lon="23.376867"><ele>1931.9</ele><time>2026-03-02T05:58:29.000Z</time></trkpt>
<trkpt lat="42.193569" lon="23.376868"><ele>1932.6</ele><time>2026-03-02T05:58:30.000Z</time></trkpt>
<trkpt lat="42.193569" lon="23.37687"><ele>1932.6</ele><time>2026-03-02T05:58:31.000Z</time></trkpt>
<trkpt lat="42.193569" lon="23.37687"><ele>1932.6</ele><time>2026-03-02T05:58:32.000Z</time></trkpt>
<trkpt lat="42.193568" lon="23.376871"><ele>1932.6</ele><time>2026-03-02T05:58:33.000Z</time></trkpt>
<trkpt lat="42.193567" lon="23.376871"><ele>1932.6</ele><time>2026-03-02T05:58:34.000Z</time></trkpt>
<trkpt lat="42.193566" lon="23.376872"><ele>1933.1</ele><time>2026-03-02T05:58:35.000Z</time></trkpt>
<trkpt lat="42.193565" lon="23.376872"><ele>1933.1</ele><time>2026-03-02T05:58:36.000Z</time></trkpt>
<trkpt lat="42.193564" lon="23.376872"><ele>1933.1</ele><time>2026-03-02T05:58:37.000Z</time></trkpt>
<trkpt lat="42.193564" lon="23.376872"><ele>1933.1</ele><time>2026-03-02T05:58:38.000Z</time></trkpt>
<trkpt lat="42.193563" lon="23.376872"><ele>1933.1</ele><time>2026-03-02T05:58:39.000Z</time></trkpt>
<trkpt lat="42.193563" lon="23.376872"><ele>1933.3</ele><time>2026-03-02T05:58:40.000Z</time></trkpt>
<trkpt lat="42.193562" lon="23.376873"><ele>1933.3</ele><time>2026-03-02T05:58:41.000Z</time></trkpt>
<trkpt lat="42.193562" lon="23.376873"><ele>1933.3</ele><time>2026-03-02T05:58:42.000Z</time></trkpt>
<trkpt lat="42.193562" lon="23.376872"><ele>1933.3</ele><time>2026-03-02T05:58:43.000Z</time></trkpt>
<trkpt lat="42.193562" lon="23.376872"><ele>1933.3</ele><time>2026-03-02T05:58:44.000Z</time></trkpt>
<trkpt lat="42.193561" lon="23.376873"><ele>1933.3</ele><time>2026-03-02T05:58:45.000Z</time></trkpt>
<trkpt lat="42.19356" lon="23.376873"><ele>1933.3</ele><time>2026-03-02T05:58:46.000Z</time></trkpt>
<trkpt lat="42.193559" lon="23.376873"><ele>1933.3</ele><time>2026-03-02T05:58:47.000Z</time></trkpt>
<trkpt lat="42.193559" lon="23.376873"><ele>1933.3</ele><time>2026-03-02T05:58:48.000Z</time></trkpt>
<trkpt lat="42.193558" lon="23.376873"><ele>1933.3</ele><time>2026-03-02T05:58:49.000Z</time></trkpt>
<trkpt lat="42.193558" lon="23.376872"><ele>1933.3</ele><time>2026-03-02T05:58:50.000Z</time></trkpt>
<trkpt lat="42.193558" lon="23.376872"><ele>1933.3</ele><time>2026-03-02T05:58:51.000Z</time></trkpt>
<trkpt lat="42.193558" lon="23.376871"><ele>1933.3</ele><time>2026-03-02T05:58:52.000Z</time></trkpt>
<trkpt lat="42.193558" lon="23.376871"><ele>1933.3</ele><time>2026-03-02T05:58:53.000Z</time></trkpt>
<trkpt lat="42.193558" lon="23.376871"><ele>1933.3</ele><time>2026-03-02T05:58:54.000Z</time></trkpt>
<trkpt lat="42.193558" lon="23.376871"><ele>1933.3</ele><time>2026-03-02T05:58:55.000Z</time></trkpt>
<trkpt lat="42.193556" lon="23.37687"><ele>1933.3</ele><time>2026-03-02T05:58:56.000Z</time></trkpt>
<trkpt lat="42.193555" lon="23.37687"><ele>1933.3</ele><time>2026-03-02T05:58:57.000Z</time></trkpt>
<trkpt lat="42.193554" lon="23.376869"><ele>1933.3</ele><time>2026-03-02T05:58:58.000Z</time></trkpt>
<trkpt lat="42.193553" lon="23.376868"><ele>1933.3</ele><time>2026-03-02T05:58:59.000Z</time></trkpt>
<trkpt lat="42.193551" lon="23.376866"><ele>1933.4</ele><time>2026-03-02T05:59:00.000Z</time></trkpt>
<trkpt lat="42.193551" lon="23.376865"><ele>1933.4</ele><time>2026-03-02T05:59:01.000Z</time></trkpt>
<trkpt lat="42.19355" lon="23.376865"><ele>1933.4</ele><time>2026-03-02T05:59:02.000Z</time></trkpt>
<trkpt lat="42.19355" lon="23.376864"><ele>1933.4</ele><time>2026-03-02T05:59:03.000Z</time></trkpt>
<trkpt lat="42.19355" lon="23.376864"><ele>1933.4</ele><time>2026-03-02T05:59:04.000Z</time></trkpt>
<trkpt lat="42.19355" lon="23.376864"><ele>1933.6</ele><time>2026-03-02T05:59:05.000Z</time></trkpt>
<trkpt lat="42.19355" lon="23.376864"><ele>1933.6</ele><time>2026-03-02T05:59:06.000Z</time></trkpt>
<trkpt lat="42.19355" lon="23.376864"><ele>1933.6</ele><time>2026-03-02T05:59:07.000Z</time></trkpt>
<trkpt lat="42.19355" lon="23.376864"><ele>1933.6</ele><time>2026-03-02T05:59:08.000Z</time></trkpt>
<trkpt lat="42.19355" lon="23.376864"><ele>1933.6</ele><time>2026-03-02T05:59:09.000Z</time></trkpt>
<trkpt lat="42.19355" lon="23.376864"><ele>1933.7</ele><time>2026-03-02T05:59:10.000Z</time></trkpt>
<trkpt lat="42.19355" lon="23.376864"><ele>1933.7</ele><time>2026-03-02T05:59:11.000Z</time></trkpt>
<trkpt lat="42.19355" lon="23.376864"><ele>1933.7</ele><time>2026-03-02T05:59:12.000Z</time></trkpt>
<trkpt lat="42.19355" lon="23.376864"><ele>1933.7</ele><time>2026-03-02T05:59:13.000Z</time></trkpt>
<trkpt lat="42.19355" lon="23.376864"><ele>1933.7</ele><time>2026-03-02T05:59:14.000Z</time></trkpt>
<trkpt lat="42.193551" lon="23.376864"><ele>1933.8</ele><time>2026-03-02T05:59:15.000Z</time></trkpt>
<trkpt lat="42.193551" lon="23.376864"><ele>1933.8</ele><time>2026-03-02T05:59:16.000Z</time></trkpt>
<trkpt lat="42.193551" lon="23.376864"><ele>1933.8</ele><time>2026-03-02T05:59:17.000Z</time></trkpt>
<trkpt lat="42.193551" lon="23.376863"><ele>1933.8</ele><time>2026-03-02T05:59:18.000Z</time></trkpt>
<trkpt lat="42.193552" lon="23.37686"><ele>1933.8</ele><time>2026-03-02T05:59:19.000Z</time></trkpt>
<trkpt lat="42.193551" lon="23.376855"><ele>1933.8</ele><time>2026-03-02T05:59:20.000Z</time></trkpt>
<trkpt lat="42.19355" lon="23.376848"><ele>1933.8</ele><time>2026-03-02T05:59:21.000Z</time></trkpt>
<trkpt lat="42.19355" lon="23.376842"><ele>1933.8</ele><time>2026-03-02T05:59:22.000Z</time></trkpt>
<trkpt lat="42.193549" lon="23.376837"><ele>1933.8</ele><time>2026-03-02T05:59:23.000Z</time></trkpt>
<trkpt lat="42.193547" lon="23.376835"><ele>1933.8</ele><time>2026-03-02T05:59:24.000Z</time></trkpt>
<trkpt lat="42.193547" lon="23.376836"><ele>1933.7</ele><time>2026-03-02T05:59:25.000Z</time></trkpt>
<trkpt lat="42.193547" lon="23.376837"><ele>1933.7</ele><time>2026-03-02T05:59:26.000Z</time></trkpt>
<trkpt lat="42.193547" lon="23.376839"><ele>1933.7</ele><time>2026-03-02T05:59:27.000Z</time></trkpt>
<trkpt lat="42.193548" lon="23.37684"><ele>1933.7</ele><time>2026-03-02T05:59:28.000Z</time></trkpt>
<trkpt lat="42.193549" lon="23.37684"><ele>1933.7</ele><time>2026-03-02T05:59:29.000Z</time></trkpt>
<trkpt lat="42.193549" lon="23.37684"><ele>1933.7</ele><time>2026-03-02T05:59:30.000Z</time></trkpt>
<trkpt lat="42.193548" lon="23.37684"><ele>1933.7</ele><time>2026-03-02T05:59:31.000Z</time></trkpt>
<trkpt lat="42.193548" lon="23.37684"><ele>1933.7</ele><time>2026-03-02T05:59:32.000Z</time></trkpt>
<trkpt lat="42.193547" lon="23.376839"><ele>1933.7</ele><time>2026-03-02T05:59:33.000Z</time></trkpt>
<trkpt lat="42.193547" lon="23.376839"><ele>1933.7</ele><time>2026-03-02T05:59:34.000Z</time></trkpt>
<trkpt lat="42.193546" lon="23.376838"><ele>1934.1</ele><time>2026-03-02T05:59:35.000Z</time></trkpt>
<trkpt lat="42.193546" lon="23.376838"><ele>1934.1</ele><time>2026-03-02T05:59:36.000Z</time></trkpt>
<trkpt lat="42.193546" lon="23.376838"><ele>1934.1</ele><time>2026-03-02T05:59:37.000Z</time></trkpt>
<trkpt lat="42.193546" lon="23.376838"><ele>1934.1</ele><time>2026-03-02T05:59:38.000Z</time></trkpt>
<trkpt lat="42.193546" lon="23.376838"><ele>1934.1</ele><time>2026-03-02T05:59:39.000Z</time></trkpt>
<trkpt lat="42.193546" lon="23.376838"><ele>1934.3</ele><time>2026-03-02T05:59:40.000Z</time></trkpt>
<trkpt lat="42.193546" lon="23.376838"><ele>1934.3</ele><time>2026-03-02T05:59:41.000Z</time></trkpt>
<trkpt lat="42.193546" lon="23.376838"><ele>1934.3</ele><time>2026-03-02T05:59:42.000Z</time></trkpt>
<trkpt lat="42.193546" lon="23.376838"><ele>1934.3</ele><time>2026-03-02T05:59:43.000Z</time></trkpt>
<trkpt lat="42.193546" lon="23.376838"><ele>1934.3</ele><time>2026-03-02T05:59:44.000Z</time></trkpt>
<trkpt lat="42.193546" lon="23.376838"><ele>1934.6</ele><time>2026-03-02T05:59:45.000Z</time></trkpt>
<trkpt lat="42.193546" lon="23.376838"><ele>1934.6</ele><time>2026-03-02T05:59:46.000Z</time></trkpt>
<trkpt lat="42.193546" lon="23.376838"><ele>1934.6</ele><time>2026-03-02T05:59:47.000Z</time></trkpt>
<trkpt lat="42.193546" lon="23.376839"><ele>1934.6</ele><time>2026-03-02T05:59:48.000Z</time></trkpt>
<trkpt lat="42.193547" lon="23.37684"><ele>1934.6</ele><time>2026-03-02T05:59:49.000Z</time></trkpt>
<trkpt lat="42.193547" lon="23.376841"><ele>1934.5</ele><time>2026-03-02T05:59:50.000Z</time></trkpt>
<trkpt lat="42.193547" lon="23.376842"><ele>1934.5</ele><time>2026-03-02T05:59:51.000Z</time></trkpt>
<trkpt lat="42.193547" lon="23.376842"><ele>1934.5</ele><time>2026-03-02T05:59:52.000Z</time></trkpt>
<trkpt lat="42.193547" lon="23.376842"><ele>1934.5</ele><time>2026-03-02T05:59:53.000Z</time></trkpt>
<trkpt lat="42.193547" lon="23.376843"><ele>1934.5</ele><time>2026-03-02T05:59:54.000Z</time></trkpt>
<trkpt lat="42.193547" lon="23.376843"><ele>1934.4</ele><time>2026-03-02T05:59:55.000Z</time></trkpt>
<trkpt lat="42.193547" lon="23.376843"><ele>1934.4</ele><time>2026-03-02T05:59:56.000Z</time></trkpt>
<trkpt lat="42.193547" lon="23.376843"><ele>1934.4</ele><time>2026-03-02T05:59:57.000Z</time></trkpt>
<trkpt lat="42.193547" lon="23.376843"><ele>1934.4</ele><time>2026-03-02T05:59:58.000Z</time></trkpt>
<trkpt lat="42.193546" lon="23.376841"><ele>1934.4</ele><time>2026-03-02T05:59:59.000Z</time></trkpt>
<trkpt lat="42.193545" lon="23.376836"><ele>1934.3</ele><time>2026-03-02T06:00:00.000Z</time></trkpt>
<trkpt lat="42.193544" lon="23.376828"><ele>1934.3</ele><time>2026-03-02T06:00:01.000Z</time></trkpt>
<trkpt lat="42.193542" lon="23.376818"><ele>1934.3</ele><time>2026-03-02T06:00:02.000Z</time></trkpt>
<trkpt lat="42.193539" lon="23.376805"><ele>1934.3</ele><time>2026-03-02T06:00:03.000Z</time></trkpt>
<trkpt lat="42.193535" lon="23.376791"><ele>1934.3</ele><time>2026-03-02T06:00:04.000Z</time></trkpt>
<trkpt lat="42.193529" lon="23.376777"><ele>1934.2</ele><time>2026-03-02T06:00:05.000Z</time></trkpt>
<trkpt lat="42.193522" lon="23.376764"><ele>1934.2</ele><time>2026-03-02T06:00:06.000Z</time></trkpt>
<trkpt lat="42.193515" lon="23.37675"><ele>1934.2</ele><time>2026-03-02T06:00:07.000Z</time></trkpt>
<trkpt lat="42.193508" lon="23.376738"><ele>1934.2</ele><time>2026-03-02T06:00:08.000Z</time></trkpt>
<trkpt lat="42.193502" lon="23.376725"><ele>1934.2</ele><time>2026-03-02T06:00:09.000Z</time></trkpt>
<trkpt lat="42.193497" lon="23.376712"><ele>1934.3</ele><time>2026-03-02T06:00:10.000Z</time></trkpt>
<trkpt lat="42.193491" lon="23.376698"><ele>1934.3</ele><time>2026-03-02T06:00:11.000Z</time></trkpt>
<trkpt lat="42.193486" lon="23.376684"><ele>1934.3</ele><time>2026-03-02T06:00:12.000Z</time></trkpt>
<trkpt lat="42.19348" lon="23.376669"><ele>1934.3</ele><time>2026-03-02T06:00:13.000Z</time></trkpt>
<trkpt lat="42.193475" lon="23.376657"><ele>1934.3</ele><time>2026-03-02T06:00:14.000Z</time></trkpt>
<trkpt lat="42.19347" lon="23.376644"><ele>1934.8</ele><time>2026-03-02T06:00:15.000Z</time></trkpt>
<trkpt lat="42.193464" lon="23.376631"><ele>1934.8</ele><time>2026-03-02T06:00:16.000Z</time></trkpt>
<trkpt lat="42.193458" lon="23.376619"><ele>1934.8</ele><time>2026-03-02T06:00:17.000Z</time></trkpt>
<trkpt lat="42.193451" lon="23.376608"><ele>1934.8</ele><time>2026-03-02T06:00:18.000Z</time></trkpt>
<trkpt lat="42.193444" lon="23.376596"><ele>1934.8</ele><time>2026-03-02T06:00:19.000Z</time></trkpt>
<trkpt lat="42.193435" lon="23.376587"><ele>1935.5</ele><time>2026-03-02T06:00:20.000Z</time></trkpt>
<trkpt lat="42.193427" lon="23.376581"><ele>1935.5</ele><time>2026-03-02T06:00:21.000Z</time></trkpt>
<trkpt lat="42.193417" lon="23.376576"><ele>1935.5</ele><time>2026-03-02T06:00:22.000Z</time></trkpt>
<trkpt lat="42.193408" lon="23.376573"><ele>1935.5</ele><time>2026-03-02T06:00:23.000Z</time></trkpt>
<trkpt lat="42.193398" lon="23.376573"><ele>1935.5</ele><time>2026-03-02T06:00:24.000Z</time></trkpt>
<trkpt lat="42.193388" lon="23.376575"><ele>1936</ele><time>2026-03-02T06:00:25.000Z</time></trkpt>
<trkpt lat="42.193378" lon="23.376577"><ele>1936</ele><time>2026-03-02T06:00:26.000Z</time></trkpt>
<trkpt lat="42.193369" lon="23.376581"><ele>1936</ele><time>2026-03-02T06:00:27.000Z</time></trkpt>
<trkpt lat="42.193358" lon="23.376585"><ele>1936</ele><time>2026-03-02T06:00:28.000Z</time></trkpt>
<trkpt lat="42.193347" lon="23.376589"><ele>1936</ele><time>2026-03-02T06:00:29.000Z</time></trkpt>
<trkpt lat="42.193335" lon="23.376593"><ele>1936.8</ele><time>2026-03-02T06:00:30.000Z</time></trkpt>
<trkpt lat="42.193322" lon="23.376597"><ele>1936.8</ele><time>2026-03-02T06:00:31.000Z</time></trkpt>
<trkpt lat="42.193308" lon="23.3766"><ele>1936.8</ele><time>2026-03-02T06:00:32.000Z</time></trkpt>
<trkpt lat="42.193294" lon="23.376603"><ele>1936.8</ele><time>2026-03-02T06:00:33.000Z</time></trkpt>
<trkpt lat="42.193281" lon="23.376605"><ele>1936.8</ele><time>2026-03-02T06:00:34.000Z</time></trkpt>
<trkpt lat="42.193267" lon="23.376607"><ele>1937.6</ele><time>2026-03-02T06:00:35.000Z</time></trkpt>
<trkpt lat="42.193254" lon="23.376608"><ele>1937.6</ele><time>2026-03-02T06:00:36.000Z</time></trkpt>
<trkpt lat="42.193242" lon="23.37661"><ele>1937.6</ele><time>2026-03-02T06:00:37.000Z</time></trkpt>
<trkpt lat="42.19323" lon="23.376612"><ele>1937.6</ele><time>2026-03-02T06:00:38.000Z</time></trkpt>
<trkpt lat="42.193218" lon="23.376615"><ele>1937.6</ele><time>2026-03-02T06:00:39.000Z</time></trkpt>
<trkpt lat="42.193206" lon="23.376617"><ele>1937.8</ele><time>2026-03-02T06:00:40.000Z</time></trkpt>
<trkpt lat="42.193195" lon="23.376619"><ele>1937.8</ele><time>2026-03-02T06:00:41.000Z</time></trkpt>
<trkpt lat="42.193185" lon="23.376621"><ele>1937.8</ele><time>2026-03-02T06:00:42.000Z</time></trkpt>
<trkpt lat="42.193176" lon="23.376623"><ele>1937.8</ele><time>2026-03-02T06:00:43.000Z</time></trkpt>
<trkpt lat="42.193166" lon="23.376624"><ele>1937.8</ele><time>2026-03-02T06:00:44.000Z</time></trkpt>
<trkpt lat="42.193156" lon="23.376626"><ele>1938.4</ele><time>2026-03-02T06:00:45.000Z</time></trkpt>
<trkpt lat="42.193146" lon="23.376628"><ele>1938.4</ele><time>2026-03-02T06:00:46.000Z</time></trkpt>
<trkpt lat="42.193133" lon="23.37663"><ele>1938.4</ele><time>2026-03-02T06:00:47.000Z</time></trkpt>
<trkpt lat="42.193121" lon="23.376632"><ele>1938.4</ele><time>2026-03-02T06:00:48.000Z</time></trkpt>
<trkpt lat="42.193108" lon="23.376634"><ele>1938.4</ele><time>2026-03-02T06:00:49.000Z</time></trkpt>
<trkpt lat="42.193096" lon="23.376636"><ele>1939.2</ele><time>2026-03-02T06:00:50.000Z</time></trkpt>
<trkpt lat="42.193084" lon="23.376637"><ele>1939.2</ele><time>2026-03-02T06:00:51.000Z</time></trkpt>
<trkpt lat="42.193073" lon="23.376638"><ele>1939.2</ele><time>2026-03-02T06:00:52.000Z</time></trkpt>
<trkpt lat="42.193061" lon="23.376639"><ele>1939.2</ele><time>2026-03-02T06:00:53.000Z</time></trkpt>
<trkpt lat="42.19305" lon="23.376638"><ele>1939.2</ele><time>2026-03-02T06:00:54.000Z</time></trkpt>
<trkpt lat="42.193039" lon="23.376636"><ele>1939.7</ele><time>2026-03-02T06:00:55.000Z</time></trkpt>
<trkpt lat="42.193028" lon="23.376633"><ele>1939.7</ele><time>2026-03-02T06:00:56.000Z</time></trkpt>
<trkpt lat="42.193017" lon="23.37663"><ele>1939.7</ele><time>2026-03-02T06:00:57.000Z</time></trkpt>
<trkpt lat="42.193008" lon="23.376626"><ele>1939.7</ele><time>2026-03-02T06:00:58.000Z</time></trkpt>
<trkpt lat="42.192998" lon="23.376622"><ele>1939.7</ele><time>2026-03-02T06:00:59.000Z</time></trkpt>
<trkpt lat="42.192989" lon="23.376619"><ele>1940.8</ele><time>2026-03-02T06:01:00.000Z</time></trkpt>
<trkpt lat="42.192979" lon="23.376615"><ele>1940.8</ele><time>2026-03-02T06:01:01.000Z</time></trkpt>
<trkpt lat="42.192969" lon="23.376613"><ele>1940.8</ele><time>2026-03-02T06:01:02.000Z</time></trkpt>
<trkpt lat="42.192959" lon="23.376611"><ele>1940.8</ele><time>2026-03-02T06:01:03.000Z</time></trkpt>
<trkpt lat="42.192949" lon="23.37661"><ele>1940.8</ele><time>2026-03-02T06:01:04.000Z</time></trkpt>
<trkpt lat="42.192939" lon="23.376609"><ele>1941.7</ele><time>2026-03-02T06:01:05.000Z</time></trkpt>
<trkpt lat="42.192929" lon="23.37661"><ele>1941.7</ele><time>2026-03-02T06:01:06.000Z</time></trkpt>
<trkpt lat="42.192918" lon="23.37661"><ele>1941.7</ele><time>2026-03-02T06:01:07.000Z</time></trkpt>
<trkpt lat="42.192906" lon="23.37661"><ele>1941.7</ele><time>2026-03-02T06:01:08.000Z</time></trkpt>
<trkpt lat="42.192894" lon="23.37661"><ele>1941.7</ele><time>2026-03-02T06:01:09.000Z</time></trkpt>
<trkpt lat="42.192882" lon="23.376609"><ele>1942.1</ele><time>2026-03-02T06:01:10.000Z</time></trkpt>
<trkpt lat="42.192872" lon="23.376607"><ele>1942.1</ele><time>2026-03-02T06:01:11.000Z</time></trkpt>
<trkpt lat="42.192861" lon="23.376604"><ele>1942.1</ele><time>2026-03-02T06:01:12.000Z</time></trkpt>
<trkpt lat="42.192851" lon="23.376602"><ele>1942.1</ele><time>2026-03-02T06:01:13.000Z</time></trkpt>
<trkpt lat="42.192841" lon="23.3766"><ele>1942.1</ele><time>2026-03-02T06:01:14.000Z</time></trkpt>
<trkpt lat="42.192831" lon="23.376598"><ele>1943.1</ele><time>2026-03-02T06:01:15.000Z</time></trkpt>
<trkpt lat="42.192821" lon="23.376597"><ele>1943.1</ele><time>2026-03-02T06:01:16.000Z</time></trkpt>
<trkpt lat="42.192811" lon="23.376596"><ele>1943.1</ele><time>2026-03-02T06:01:17.000Z</time></trkpt>
<trkpt lat="42.192801" lon="23.376596"><ele>1943.1</ele><time>2026-03-02T06:01:18.000Z</time></trkpt>
<trkpt lat="42.192791" lon="23.376595"><ele>1943.1</ele><time>2026-03-02T06:01:19.000Z</time></trkpt>
<trkpt lat="42.192781" lon="23.376596"><ele>1944.2</ele><time>2026-03-02T06:01:20.000Z</time></trkpt>
<trkpt lat="42.192771" lon="23.376596"><ele>1944.2</ele><time>2026-03-02T06:01:21.000Z</time></trkpt>
<trkpt lat="42.192762" lon="23.376595"><ele>1944.2</ele><time>2026-03-02T06:01:22.000Z</time></trkpt>
<trkpt lat="42.192754" lon="23.376595"><ele>1944.2</ele><time>2026-03-02T06:01:23.000Z</time></trkpt>
<trkpt lat="42.192745" lon="23.376594"><ele>1944.2</ele><time>2026-03-02T06:01:24.000Z</time></trkpt>
<trkpt lat="42.192736" lon="23.376593"><ele>1944.7</ele><time>2026-03-02T06:01:25.000Z</time></trkpt>
<trkpt lat="42.192727" lon="23.376592"><ele>1944.7</ele><time>2026-03-02T06:01:26.000Z</time></trkpt>
<trkpt lat="42.192717" lon="23.376591"><ele>1944.7</ele><time>2026-03-02T06:01:27.000Z</time></trkpt>
<trkpt lat="42.192708" lon="23.37659"><ele>1944.7</ele><time>2026-03-02T06:01:28.000Z</time></trkpt>
<trkpt lat="42.192699" lon="23.376587"><ele>1944.7</ele><time>2026-03-02T06:01:29.000Z</time></trkpt>
<trkpt lat="42.19269" lon="23.376584"><ele>1945.8</ele><time>2026-03-02T06:01:30.000Z</time></trkpt>
<trkpt lat="42.192682" lon="23.37658"><ele>1945.8</ele><time>2026-03-02T06:01:31.000Z</time></trkpt>
<trkpt lat="42.192674" lon="23.376576"><ele>1945.8</ele><time>2026-03-02T06:01:32.000Z</time></trkpt>
<trkpt lat="42.192666" lon="23.376573"><ele>1945.8</ele><time>2026-03-02T06:01:33.000Z</time></trkpt>
<trkpt lat="42.192658" lon="23.37657"><ele>1945.8</ele><time>2026-03-02T06:01:34.000Z</time></trkpt>
<trkpt lat="42.19265" lon="23.376568"><ele>1947.1</ele><time>2026-03-02T06:01:35.000Z</time></trkpt>
<trkpt lat="42.192641" lon="23.376565"><ele>1947.1</ele><time>2026-03-02T06:01:36.000Z</time></trkpt>
<trkpt lat="42.192633" lon="23.376563"><ele>1947.1</ele><time>2026-03-02T06:01:37.000Z</time></trkpt>
<trkpt lat="42.192625" lon="23.37656"><ele>1947.1</ele><time>2026-03-02T06:01:38.000Z</time></trkpt>
<trkpt lat="42.192617" lon="23.376558"><ele>1947.1</ele><time>2026-03-02T06:01:39.000Z</time></trkpt>
<trkpt lat="42.192608" lon="23.376556"><ele>1947.8</ele><time>2026-03-02T06:01:40.000Z</time></trkpt>
<trkpt lat="42.192599" lon="23.376554"><ele>1947.8</ele><time>2026-03-02T06:01:41.000Z</time></trkpt>
<trkpt lat="42.19259" lon="23.376552"><ele>1947.8</ele><time>2026-03-02T06:01:42.000Z</time></trkpt>
<trkpt lat="42.192581" lon="23.37655"><ele>1947.8</ele><time>2026-03-02T06:01:43.000Z</time></trkpt>
<trkpt lat="42.192572" lon="23.376548"><ele>1947.8</ele><time>2026-03-02T06:01:44.000Z</time></trkpt>
<trkpt lat="42.192563" lon="23.376545"><ele>1949.2</ele><time>2026-03-02T06:01:45.000Z</time></trkpt>
<trkpt lat="42.192555" lon="23.37654"><ele>1949.2</ele><time>2026-03-02T06:01:46.000Z</time></trkpt>
<trkpt lat="42.192545" lon="23.376536"><ele>1949.2</ele><time>2026-03-02T06:01:47.000Z</time></trkpt>
<trkpt lat="42.192536" lon="23.376532"><ele>1949.2</ele><time>2026-03-02T06:01:48.000Z</time></trkpt>
<trkpt lat="42.192527" lon="23.376528"><ele>1949.2</ele><time>2026-03-02T06:01:49.000Z</time></trkpt>
<trkpt lat="42.192518" lon="23.376524"><ele>1950.6</ele><time>2026-03-02T06:01:50.000Z</time></trkpt>
<trkpt lat="42.192508" lon="23.37652"><ele>1950.6</ele><time>2026-03-02T06:01:51.000Z</time></trkpt>
<trkpt lat="42.192498" lon="23.376516"><ele>1950.6</ele><time>2026-03-02T06:01:52.000Z</time></trkpt>
<trkpt lat="42.192488" lon="23.376512"><ele>1950.6</ele><time>2026-03-02T06:01:53.000Z</time></trkpt>
<trkpt lat="42.192477" lon="23.376509"><ele>1950.6</ele><time>2026-03-02T06:01:54.000Z</time></trkpt>
<trkpt lat="42.192467" lon="23.376506"><ele>1951.3</ele><time>2026-03-02T06:01:55.000Z</time></trkpt>
<trkpt lat="42.192457" lon="23.376504"><ele>1951.3</ele><time>2026-03-02T06:01:56.000Z</time></trkpt>
<trkpt lat="42.192447" lon="23.376503"><ele>1951.3</ele><time>2026-03-02T06:01:57.000Z</time></trkpt>
<trkpt lat="42.192438" lon="23.376501"><ele>1951.3</ele><time>2026-03-02T06:01:58.000Z</time></trkpt>
<trkpt lat="42.192429" lon="23.376498"><ele>1951.3</ele><time>2026-03-02T06:01:59.000Z</time></trkpt>
<trkpt lat="42.192421" lon="23.376494"><ele>1952.6</ele><time>2026-03-02T06:02:00.000Z</time></trkpt>
<trkpt lat="42.192413" lon="23.376491"><ele>1952.6</ele><time>2026-03-02T06:02:01.000Z</time></trkpt>
<trkpt lat="42.192405" lon="23.376485"><ele>1952.6</ele><time>2026-03-02T06:02:02.000Z</time></trkpt>
<trkpt lat="42.192396" lon="23.37648"><ele>1952.6</ele><time>2026-03-02T06:02:03.000Z</time></trkpt>
<trkpt lat="42.192388" lon="23.376475"><ele>1952.6</ele><time>2026-03-02T06:02:04.000Z</time></trkpt>
<trkpt lat="42.19238" lon="23.37647"><ele>1953.9</ele><time>2026-03-02T06:02:05.000Z</time></trkpt>
<trkpt lat="42.192371" lon="23.376466"><ele>1953.9</ele><time>2026-03-02T06:02:06.000Z</time></trkpt>
<trkpt lat="42.192363" lon="23.376462"><ele>1953.9</ele><time>2026-03-02T06:02:07.000Z</time></trkpt>
<trkpt lat="42.192354" lon="23.376458"><ele>1953.9</ele><time>2026-03-02T06:02:08.000Z</time></trkpt>
<trkpt lat="42.192347" lon="23.376455"><ele>1953.9</ele><time>2026-03-02T06:02:09.000Z</time></trkpt>
<trkpt lat="42.192339" lon="23.376451"><ele>1954.6</ele><time>2026-03-02T06:02:10.000Z</time></trkpt>
<trkpt lat="42.192331" lon="23.376447"><ele>1954.6</ele><time>2026-03-02T06:02:11.000Z</time></trkpt>
<trkpt lat="42.192324" lon="23.376443"><ele>1954.6</ele><time>2026-03-02T06:02:12.000Z</time></trkpt>
<trkpt lat="42.192315" lon="23.376439"><ele>1954.6</ele><time>2026-03-02T06:02:13.000Z</time></trkpt>
<trkpt lat="42.192306" lon="23.376434"><ele>1954.6</ele><time>2026-03-02T06:02:14.000Z</time></trkpt>
<trkpt lat="42.192297" lon="23.37643"><ele>1956</ele><time>2026-03-02T06:02:15.000Z</time></trkpt>
<trkpt lat="42.192288" lon="23.376427"><ele>1956</ele><time>2026-03-02T06:02:16.000Z</time></trkpt>
<trkpt lat="42.192278" lon="23.376423"><ele>1956</ele><time>2026-03-02T06:02:17.000Z</time></trkpt>
<trkpt lat="42.192268" lon="23.376419"><ele>1956</ele><time>2026-03-02T06:02:18.000Z</time></trkpt>
<trkpt lat="42.192258" lon="23.376415"><ele>1956</ele><time>2026-03-02T06:02:19.000Z</time></trkpt>
<trkpt lat="42.192247" lon="23.376411"><ele>1957.2</ele><time>2026-03-02T06:02:20.000Z</time></trkpt>
<trkpt lat="42.192237" lon="23.376407"><ele>1957.2</ele><time>2026-03-02T06:02:21.000Z</time></trkpt>
<trkpt lat="42.192228" lon="23.376403"><ele>1957.2</ele><time>2026-03-02T06:02:22.000Z</time></trkpt>
<trkpt lat="42.19222" lon="23.376398"><ele>1957.2</ele><time>2026-03-02T06:02:23.000Z</time></trkpt>
<trkpt lat="42.192212" lon="23.376393"><ele>1957.2</ele><time>2026-03-02T06:02:24.000Z</time></trkpt>
<trkpt lat="42.192205" lon="23.376388"><ele>1957.8</ele><time>2026-03-02T06:02:25.000Z</time></trkpt>
<trkpt lat="42.192197" lon="23.376382"><ele>1957.8</ele><time>2026-03-02T06:02:26.000Z</time></trkpt>
<trkpt lat="42.192188" lon="23.376377"><ele>1957.8</ele><time>2026-03-02T06:02:27.000Z</time></trkpt>
<trkpt lat="42.19218" lon="23.376373"><ele>1957.8</ele><time>2026-03-02T06:02:28.000Z</time></trkpt>
<trkpt lat="42.192169" lon="23.376368"><ele>1957.8</ele><time>2026-03-02T06:02:29.000Z</time></trkpt>
<trkpt lat="42.192159" lon="23.376364"><ele>1959</ele><time>2026-03-02T06:02:30.000Z</time></trkpt>
<trkpt lat="42.192149" lon="23.37636"><ele>1959</ele><time>2026-03-02T06:02:31.000Z</time></trkpt>
<trkpt lat="42.192139" lon="23.376355"><ele>1959</ele><time>2026-03-02T06:02:32.000Z</time></trkpt>
<trkpt lat="42.19213" lon="23.376351"><ele>1959</ele><time>2026-03-02T06:02:33.000Z</time></trkpt>
<trkpt lat="42.19212" lon="23.376346"><ele>1959</ele><time>2026-03-02T06:02:34.000Z</time></trkpt>
<trkpt lat="42.19211" lon="23.37634"><ele>1960.3</ele><time>2026-03-02T06:02:35.000Z</time></trkpt>
<trkpt lat="42.1921" lon="23.376335"><ele>1960.3</ele><time>2026-03-02T06:02:36.000Z</time></trkpt>
<trkpt lat="42.19209" lon="23.376329"><ele>1960.3</ele><time>2026-03-02T06:02:37.000Z</time></trkpt>
<trkpt lat="42.192081" lon="23.376324"><ele>1960.3</ele><time>2026-03-02T06:02:38.000Z</time></trkpt>
<trkpt lat="42.192073" lon="23.376318"><ele>1960.3</ele><time>2026-03-02T06:02:39.000Z</time></trkpt>
<trkpt lat="42.192065" lon="23.376312"><ele>1961</ele><time>2026-03-02T06:02:40.000Z</time></trkpt>
<trkpt lat="42.192057" lon="23.376306"><ele>1961</ele><time>2026-03-02T06:02:41.000Z</time></trkpt>
<trkpt lat="42.192049" lon="23.376301"><ele>1961</ele><time>2026-03-02T06:02:42.000Z</time></trkpt>
<trkpt lat="42.192041" lon="23.376296"><ele>1961</ele><time>2026-03-02T06:02:43.000Z</time></trkpt>
<trkpt lat="42.192033" lon="23.37629"><ele>1961</ele><time>2026-03-02T06:02:44.000Z</time></trkpt>
<trkpt lat="42.192024" lon="23.376285"><ele>1962.3</ele><time>2026-03-02T06:02:45.000Z</time></trkpt>
<trkpt lat="42.192015" lon="23.37628"><ele>1962.3</ele><time>2026-03-02T06:02:46.000Z</time></trkpt>
<trkpt lat="42.192006" lon="23.376275"><ele>1962.3</ele><time>2026-03-02T06:02:47.000Z</time></trkpt>
<trkpt lat="42.191998" lon="23.37627"><ele>1962.3</ele><time>2026-03-02T06:02:48.000Z</time></trkpt>
<trkpt lat="42.19199" lon="23.376266"><ele>1962.3</ele><time>2026-03-02T06:02:49.000Z</time></trkpt>
<trkpt lat="42.191983" lon="23.376261"><ele>1963.5</ele><time>2026-03-02T06:02:50.000Z</time></trkpt>
<trkpt lat="42.191976" lon="23.376256"><ele>1963.5</ele><time>2026-03-02T06:02:51.000Z</time></trkpt>
<trkpt lat="42.191968" lon="23.376252"><ele>1963.5</ele><time>2026-03-02T06:02:52.000Z</time></trkpt>
<trkpt lat="42.191961" lon="23.376247"><ele>1963.5</ele><time>2026-03-02T06:02:53.000Z</time></trkpt>
<trkpt lat="42.191954" lon="23.376244"><ele>1963.5</ele><time>2026-03-02T06:02:54.000Z</time></trkpt>
<trkpt lat="42.191945" lon="23.37624"><ele>1964</ele><time>2026-03-02T06:02:55.000Z</time></trkpt>
<trkpt lat="42.191937" lon="23.376237"><ele>1964</ele><time>2026-03-02T06:02:56.000Z</time></trkpt>
<trkpt lat="42.191927" lon="23.376234"><ele>1964</ele><time>2026-03-02T06:02:57.000Z</time></trkpt>
<trkpt lat="42.191918" lon="23.376231"><ele>1964</ele><time>2026-03-02T06:02:58.000Z</time></trkpt>
<trkpt lat="42.191908" lon="23.376229"><ele>1964</ele><time>2026-03-02T06:02:59.000Z</time></trkpt>
<trkpt lat="42.191897" lon="23.376228"><ele>1965.2</ele><time>2026-03-02T06:03:00.000Z</time></trkpt>
<trkpt lat="42.191886" lon="23.376227"><ele>1965.2</ele><time>2026-03-02T06:03:01.000Z</time></trkpt>
<trkpt lat="42.191876" lon="23.376225"><ele>1965.2</ele><time>2026-03-02T06:03:02.000Z</time></trkpt>
<trkpt lat="42.191865" lon="23.376223"><ele>1965.2</ele><time>2026-03-02T06:03:03.000Z</time></trkpt>
<trkpt lat="42.191854" lon="23.376222"><ele>1965.2</ele><time>2026-03-02T06:03:04.000Z</time></trkpt>
<trkpt lat="42.191843" lon="23.37622"><ele>1966.4</ele><time>2026-03-02T06:03:05.000Z</time></trkpt>
<trkpt lat="42.191832" lon="23.376217"><ele>1966.4</ele><time>2026-03-02T06:03:06.000Z</time></trkpt>
<trkpt lat="42.191821" lon="23.376213"><ele>1966.4</ele><time>2026-03-02T06:03:07.000Z</time></trkpt>
<trkpt lat="42.191811" lon="23.376208"><ele>1966.4</ele><time>2026-03-02T06:03:08.000Z</time></trkpt>
<trkpt lat="42.191801" lon="23.3762"><ele>1966.4</ele><time>2026-03-02T06:03:09.000Z</time></trkpt>
<trkpt lat="42.191791" lon="23.376191"><ele>1967</ele><time>2026-03-02T06:03:10.000Z</time></trkpt>
<trkpt lat="42.191783" lon="23.376181"><ele>1967</ele><time>2026-03-02T06:03:11.000Z</time></trkpt>
<trkpt lat="42.191775" lon="23.37617"><ele>1967</ele><time>2026-03-02T06:03:12.000Z</time></trkpt>
<trkpt lat="42.191769" lon="23.376159"><ele>1967</ele><time>2026-03-02T06:03:13.000Z</time></trkpt>
<trkpt lat="42.191762" lon="23.376149"><ele>1967</ele><time>2026-03-02T06:03:14.000Z</time></trkpt>
<trkpt lat="42.191755" lon="23.37614"><ele>1968.1</ele><time>2026-03-02T06:03:15.000Z</time></trkpt>
<trkpt lat="42.191749" lon="23.37613"><ele>1968.1</ele><time>2026-03-02T06:03:16.000Z</time></trkpt>
<trkpt lat="42.191741" lon="23.376122"><ele>1968.1</ele><time>2026-03-02T06:03:17.000Z</time></trkpt>
<trkpt lat="42.191733" lon="23.376115"><ele>1968.1</ele><time>2026-03-02T06:03:18.000Z</time></trkpt>
<trkpt lat="42.191725" lon="23.376109"><ele>1968.1</ele><time>2026-03-02T06:03:19.000Z</time></trkpt>
<trkpt lat="42.191716" lon="23.376103"><ele>1969.3</ele><time>2026-03-02T06:03:20.000Z</time></trkpt>
<trkpt lat="42.191707" lon="23.376098"><ele>1969.3</ele><time>2026-03-02T06:03:21.000Z</time></trkpt>
<trkpt lat="42.191698" lon="23.376092"><ele>1969.3</ele><time>2026-03-02T06:03:22.000Z</time></trkpt>
<trkpt lat="42.191689" lon="23.376086"><ele>1969.3</ele><time>2026-03-02T06:03:23.000Z</time></trkpt>
<trkpt lat="42.191679" lon="23.376081"><ele>1969.3</ele><time>2026-03-02T06:03:24.000Z</time></trkpt>
<trkpt lat="42.191669" lon="23.376076"><ele>1969.9</ele><time>2026-03-02T06:03:25.000Z</time></trkpt>
<trkpt lat="42.191659" lon="23.37607"><ele>1969.9</ele><time>2026-03-02T06:03:26.000Z</time></trkpt>
<trkpt lat="42.191649" lon="23.376062"><ele>1969.9</ele><time>2026-03-02T06:03:27.000Z</time></trkpt>
<trkpt lat="42.191639" lon="23.376054"><ele>1969.9</ele><time>2026-03-02T06:03:28.000Z</time></trkpt>
<trkpt lat="42.191629" lon="23.376044"><ele>1969.9</ele><time>2026-03-02T06:03:29.000Z</time></trkpt>
<trkpt lat="42.191621" lon="23.376033"><ele>1971.2</ele><time>2026-03-02T06:03:30.000Z</time></trkpt>
<trkpt lat="42.191614" lon="23.376022"><ele>1971.2</ele><time>2026-03-02T06:03:31.000Z</time></trkpt>
<trkpt lat="42.191609" lon="23.376011"><ele>1971.2</ele><time>2026-03-02T06:03:32.000Z</time></trkpt>
<trkpt lat="42.191604" lon="23.376"><ele>1971.2</ele><time>2026-03-02T06:03:33.000Z</time></trkpt>
<trkpt lat="42.1916" lon="23.375989"><ele>1971.2</ele><time>2026-03-02T06:03:34.000Z</time></trkpt>
<trkpt lat="42.191594" lon="23.375978"><ele>1972.6</ele><time>2026-03-02T06:03:35.000Z</time></trkpt>
<trkpt lat="42.191587" lon="23.375968"><ele>1972.6</ele><time>2026-03-02T06:03:36.000Z</time></trkpt>
<trkpt lat="42.19158" lon="23.375958"><ele>1972.6</ele><time>2026-03-02T06:03:37.000Z</time></trkpt>
<trkpt lat="42.191573" lon="23.375948"><ele>1972.6</ele><time>2026-03-02T06:03:38.000Z</time></trkpt>
<trkpt lat="42.191566" lon="23.375939"><ele>1972.6</ele><time>2026-03-02T06:03:39.000Z</time></trkpt>
<trkpt lat="42.191559" lon="23.37593"><ele>1973.3</ele><time>2026-03-02T06:03:40.000Z</time></trkpt>
<trkpt lat="42.191552" lon="23.375921"><ele>1973.3</ele><time>2026-03-02T06:03:41.000Z</time></trkpt>
<trkpt lat="42.191545" lon="23.375914"><ele>1973.3</ele><time>2026-03-02T06:03:42.000Z</time></trkpt>
<trkpt lat="42.191537" lon="23.375906"><ele>1973.3</ele><time>2026-03-02T06:03:43.000Z</time></trkpt>
<trkpt lat="42.191529" lon="23.3759"><ele>1973.3</ele><time>2026-03-02T06:03:44.000Z</time></trkpt>
<trkpt lat="42.19152" lon="23.375894"><ele>1974.6</ele><time>2026-03-02T06:03:45.000Z</time></trkpt>
<trkpt lat="42.191512" lon="23.375888"><ele>1974.6</ele><time>2026-03-02T06:03:46.000Z</time></trkpt>
<trkpt lat="42.191502" lon="23.375883"><ele>1974.6</ele><time>2026-03-02T06:03:47.000Z</time></trkpt>
<trkpt lat="42.191494" lon="23.375877"><ele>1974.6</ele><time>2026-03-02T06:03:48.000Z</time></trkpt>
<trkpt lat="42.191484" lon="23.375871"><ele>1974.6</ele><time>2026-03-02T06:03:49.000Z</time></trkpt>
<trkpt lat="42.191474" lon="23.375865"><ele>1975.9</ele><time>2026-03-02T06:03:50.000Z</time></trkpt>
<trkpt lat="42.191463" lon="23.375858"><ele>1975.9</ele><time>2026-03-02T06:03:51.000Z</time></trkpt>
<trkpt lat="42.191452" lon="23.375852"><ele>1975.9</ele><time>2026-03-02T06:03:52.000Z</time></trkpt>
<trkpt lat="42.191441" lon="23.375845"><ele>1975.9</ele><time>2026-03-02T06:03:53.000Z</time></trkpt>
<trkpt lat="42.19143" lon="23.375839"><ele>1975.9</ele><time>2026-03-02T06:03:54.000Z</time></trkpt>
<trkpt lat="42.191421" lon="23.375832"><ele>1976.5</ele><time>2026-03-02T06:03:55.000Z</time></trkpt>
<trkpt lat="42.191414" lon="23.375826"><ele>1976.5</ele><time>2026-03-02T06:03:56.000Z</time></trkpt>
<trkpt lat="42.191406" lon="23.375821"><ele>1976.5</ele><time>2026-03-02T06:03:57.000Z</time></trkpt>
<trkpt lat="42.191399" lon="23.375816"><ele>1976.5</ele><time>2026-03-02T06:03:58.000Z</time></trkpt>
<trkpt lat="42.191391" lon="23.375811"><ele>1976.5</ele><time>2026-03-02T06:03:59.000Z</time></trkpt>
<trkpt lat="42.191382" lon="23.375806"><ele>1977.6</ele><time>2026-03-02T06:04:00.000Z</time></trkpt>
<trkpt lat="42.191373" lon="23.375801"><ele>1977.6</ele><time>2026-03-02T06:04:01.000Z</time></trkpt>
<trkpt lat="42.191364" lon="23.375795"><ele>1977.6</ele><time>2026-03-02T06:04:02.000Z</time></trkpt>
<trkpt lat="42.191356" lon="23.375788"><ele>1977.6</ele><time>2026-03-02T06:04:03.000Z</time></trkpt>
<trkpt lat="42.191347" lon="23.375781"><ele>1977.6</ele><time>2026-03-02T06:04:04.000Z</time></trkpt>
<trkpt lat="42.191337" lon="23.375774"><ele>1978.5</ele><time>2026-03-02T06:04:05.000Z</time></trkpt>
<trkpt lat="42.191328" lon="23.375766"><ele>1978.5</ele><time>2026-03-02T06:04:06.000Z</time></trkpt>
<trkpt lat="42.191319" lon="23.375757"><ele>1978.5</ele><time>2026-03-02T06:04:07.000Z</time></trkpt>
<trkpt lat="42.191311" lon="23.375749"><ele>1978.5</ele><time>2026-03-02T06:04:08.000Z</time></trkpt>
<trkpt lat="42.191304" lon="23.375741"><ele>1978.5</ele><time>2026-03-02T06:04:09.000Z</time></trkpt>
<trkpt lat="42.191297" lon="23.375731"><ele>1978.8</ele><time>2026-03-02T06:04:10.000Z</time></trkpt>
<trkpt lat="42.191291" lon="23.375721"><ele>1978.8</ele><time>2026-03-02T06:04:11.000Z</time></trkpt>
<trkpt lat="42.191285" lon="23.37571"><ele>1978.8</ele><time>2026-03-02T06:04:12.000Z</time></trkpt>
<trkpt lat="42.191278" lon="23.375699"><ele>1978.8</ele><time>2026-03-02T06:04:13.000Z</time></trkpt>
<trkpt lat="42.191271" lon="23.375687"><ele>1978.8</ele><time>2026-03-02T06:04:14.000Z</time></trkpt>
<trkpt lat="42.191264" lon="23.375677"><ele>1979.5</ele><time>2026-03-02T06:04:15.000Z</time></trkpt>
<trkpt lat="42.191257" lon="23.375666"><ele>1979.5</ele><time>2026-03-02T06:04:16.000Z</time></trkpt>
<trkpt lat="42.191249" lon="23.375656"><ele>1979.5</ele><time>2026-03-02T06:04:17.000Z</time></trkpt>
<trkpt lat="42.191242" lon="23.375646"><ele>1979.5</ele><time>2026-03-02T06:04:18.000Z</time></trkpt>
<trkpt lat="42.191234" lon="23.375636"><ele>1979.5</ele><time>2026-03-02T06:04:19.000Z</time></trkpt>
<trkpt lat="42.191226" lon="23.375626"><ele>1980.3</ele><time>2026-03-02T06:04:20.000Z</time></trkpt>
<trkpt lat="42.191219" lon="23.375616"><ele>1980.3</ele><time>2026-03-02T06:04:21.000Z</time></trkpt>
<trkpt lat="42.191211" lon="23.375606"><ele>1980.3</ele><time>2026-03-02T06:04:22.000Z</time></trkpt>
<trkpt lat="42.191203" lon="23.375595"><ele>1980.3</ele><time>2026-03-02T06:04:23.000Z</time></trkpt>
<trkpt lat="42.191196" lon="23.375583"><ele>1980.3</ele><time>2026-03-02T06:04:24.000Z</time></trkpt>
<trkpt lat="42.191189" lon="23.375572"><ele>1980.7</ele><time>2026-03-02T06:04:25.000Z</time></trkpt>
<trkpt lat="42.191182" lon="23.375561"><ele>1980.7</ele><time>2026-03-02T06:04:26.000Z</time></trkpt>
<trkpt lat="42.191175" lon="23.37555"><ele>1980.7</ele><time>2026-03-02T06:04:27.000Z</time></trkpt>
<trkpt lat="42.191169" lon="23.37554"><ele>1980.7</ele><time>2026-03-02T06:04:28.000Z</time></trkpt>
<trkpt lat="42.191163" lon="23.375532"><ele>1980.7</ele><time>2026-03-02T06:04:29.000Z</time></trkpt>
<trkpt lat="42.191158" lon="23.375525"><ele>1981.6</ele><time>2026-03-02T06:04:30.000Z</time></trkpt>
<trkpt lat="42.191152" lon="23.375517"><ele>1981.6</ele><time>2026-03-02T06:04:31.000Z</time></trkpt>
<trkpt lat="42.191145" lon="23.37551"><ele>1981.6</ele><time>2026-03-02T06:04:32.000Z</time></trkpt>
<trkpt lat="42.191139" lon="23.375503"><ele>1981.6</ele><time>2026-03-02T06:04:33.000Z</time></trkpt>
<trkpt lat="42.191131" lon="23.375495"><ele>1981.6</ele><time>2026-03-02T06:04:34.000Z</time></trkpt>
<trkpt lat="42.191123" lon="23.375486"><ele>1982.6</ele><time>2026-03-02T06:04:35.000Z</time></trkpt>
<trkpt lat="42.191115" lon="23.375477"><ele>1982.6</ele><time>2026-03-02T06:04:36.000Z</time></trkpt>
<trkpt lat="42.191106" lon="23.375467"><ele>1982.6</ele><time>2026-03-02T06:04:37.000Z</time></trkpt>
<trkpt lat="42.191099" lon="23.375456"><ele>1982.6</ele><time>2026-03-02T06:04:38.000Z</time></trkpt>
<trkpt lat="42.191092" lon="23.375445"><ele>1982.6</ele><time>2026-03-02T06:04:39.000Z</time></trkpt>
<trkpt lat="42.191086" lon="23.375433"><ele>1983.1</ele><time>2026-03-02T06:04:40.000Z</time></trkpt>
<trkpt lat="42.191081" lon="23.375421"><ele>1983.1</ele><time>2026-03-02T06:04:41.000Z</time></trkpt>
<trkpt lat="42.191077" lon="23.37541"><ele>1983.1</ele><time>2026-03-02T06:04:42.000Z</time></trkpt>
<trkpt lat="42.191073" lon="23.3754"><ele>1983.1</ele><time>2026-03-02T06:04:43.000Z</time></trkpt>
<trkpt lat="42.191068" lon="23.37539"><ele>1983.1</ele><time>2026-03-02T06:04:44.000Z</time></trkpt>
<trkpt lat="42.191064" lon="23.37538"><ele>1984.3</ele><time>2026-03-02T06:04:45.000Z</time></trkpt>
<trkpt lat="42.191058" lon="23.375371"><ele>1984.3</ele><time>2026-03-02T06:04:46.000Z</time></trkpt>
<trkpt lat="42.191052" lon="23.375361"><ele>1984.3</ele><time>2026-03-02T06:04:47.000Z</time></trkpt>
<trkpt lat="42.191045" lon="23.375352"><ele>1984.3</ele><time>2026-03-02T06:04:48.000Z</time></trkpt>
<trkpt lat="42.191039" lon="23.375343"><ele>1984.3</ele><time>2026-03-02T06:04:49.000Z</time></trkpt>
<trkpt lat="42.191032" lon="23.375335"><ele>1985.6</ele><time>2026-03-02T06:04:50.000Z</time></trkpt>
<trkpt lat="42.191026" lon="23.375327"><ele>1985.6</ele><time>2026-03-02T06:04:51.000Z</time></trkpt>
<trkpt lat="42.19102" lon="23.375319"><ele>1985.6</ele><time>2026-03-02T06:04:52.000Z</time></trkpt>
<trkpt lat="42.191014" lon="23.375311"><ele>1985.6</ele><time>2026-03-02T06:04:53.000Z</time></trkpt>
<trkpt lat="42.191008" lon="23.375302"><ele>1985.6</ele><time>2026-03-02T06:04:54.000Z</time></trkpt>
<trkpt lat="42.191003" lon="23.375293"><ele>1986.2</ele><time>2026-03-02T06:04:55.000Z</time></trkpt>
<trkpt lat="42.190997" lon="23.375284"><ele>1986.2</ele><time>2026-03-02T06:04:56.000Z</time></trkpt>
<trkpt lat="42.190992" lon="23.375275"><ele>1986.2</ele><time>2026-03-02T06:04:57.000Z</time></trkpt>
<trkpt lat="42.190986" lon="23.375267"><ele>1986.2</ele><time>2026-03-02T06:04:58.000Z</time></trkpt>
<trkpt lat="42.190979" lon="23.375259"><ele>1986.2</ele><time>2026-03-02T06:04:59.000Z</time></trkpt>
<trkpt lat="42.190972" lon="23.37525"><ele>1987.4</ele><time>2026-03-02T06:05:00.000Z</time></trkpt>
<trkpt lat="42.190966" lon="23.375241"><ele>1987.4</ele><time>2026-03-02T06:05:01.000Z</time></trkpt>
<trkpt lat="42.190959" lon="23.375233"><ele>1987.4</ele><time>2026-03-02T06:05:02.000Z</time></trkpt>
<trkpt lat="42.190953" lon="23.375223"><ele>1987.4</ele><time>2026-03-02T06:05:03.000Z</time></trkpt>
<trkpt lat="42.190947" lon="23.375214"><ele>1987.4</ele><time>2026-03-02T06:05:04.000Z</time></trkpt>
<trkpt lat="42.190941" lon="23.375204"><ele>1988.5</ele><time>2026-03-02T06:05:05.000Z</time></trkpt>
<trkpt lat="42.190934" lon="23.375194"><ele>1988.5</ele><time>2026-03-02T06:05:06.000Z</time></trkpt>
<trkpt lat="42.190928" lon="23.375184"><ele>1988.5</ele><time>2026-03-02T06:05:07.000Z</time></trkpt>
<trkpt lat="42.190921" lon="23.375173"><ele>1988.5</ele><time>2026-03-02T06:05:08.000Z</time></trkpt>
<trkpt lat="42.190915" lon="23.375163"><ele>1988.5</ele><time>2026-03-02T06:05:09.000Z</time></trkpt>
<trkpt lat="42.190909" lon="23.375152"><ele>1989</ele><time>2026-03-02T06:05:10.000Z</time></trkpt>
<trkpt lat="42.190903" lon="23.37514"><ele>1989</ele><time>2026-03-02T06:05:11.000Z</time></trkpt>
<trkpt lat="42.190897" lon="23.375129"><ele>1989</ele><time>2026-03-02T06:05:12.000Z</time></trkpt>
<trkpt lat="42.190892" lon="23.375119"><ele>1989</ele><time>2026-03-02T06:05:13.000Z</time></trkpt>
<trkpt lat="42.190887" lon="23.375108"><ele>1989</ele><time>2026-03-02T06:05:14.000Z</time></trkpt>
<trkpt lat="42.190881" lon="23.375098"><ele>1989.9</ele><time>2026-03-02T06:05:15.000Z</time></trkpt>
<trkpt lat="42.190875" lon="23.375087"><ele>1989.9</ele><time>2026-03-02T06:05:16.000Z</time></trkpt>
<trkpt lat="42.190869" lon="23.375077"><ele>1989.9</ele><time>2026-03-02T06:05:17.000Z</time></trkpt>
<trkpt lat="42.190862" lon="23.375065"><ele>1989.9</ele><time>2026-03-02T06:05:18.000Z</time></trkpt>
<trkpt lat="42.190856" lon="23.375055"><ele>1989.9</ele><time>2026-03-02T06:05:19.000Z</time></trkpt>
<trkpt lat="42.190851" lon="23.375044"><ele>1990.7</ele><time>2026-03-02T06:05:20.000Z</time></trkpt>
<trkpt lat="42.190845" lon="23.375033"><ele>1990.7</ele><time>2026-03-02T06:05:21.000Z</time></trkpt>
<trkpt lat="42.19084" lon="23.375022"><ele>1990.7</ele><time>2026-03-02T06:05:22.000Z</time></trkpt>
<trkpt lat="42.190834" lon="23.375012"><ele>1990.7</ele><time>2026-03-02T06:05:23.000Z</time></trkpt>
<trkpt lat="42.190827" lon="23.375001"><ele>1990.7</ele><time>2026-03-02T06:05:24.000Z</time></trkpt>
<trkpt lat="42.190819" lon="23.374992"><ele>1991.2</ele><time>2026-03-02T06:05:25.000Z</time></trkpt>
<trkpt lat="42.19081" lon="23.374982"><ele>1991.2</ele><time>2026-03-02T06:05:26.000Z</time></trkpt>
<trkpt lat="42.190801" lon="23.374974"><ele>1991.2</ele><time>2026-03-02T06:05:27.000Z</time></trkpt>
<trkpt lat="42.190791" lon="23.374966"><ele>1991.2</ele><time>2026-03-02T06:05:28.000Z</time></trkpt>
<trkpt lat="42.190781" lon="23.374959"><ele>1991.2</ele><time>2026-03-02T06:05:29.000Z</time></trkpt>
<trkpt lat="42.190771" lon="23.374953"><ele>1992.3</ele><time>2026-03-02T06:05:30.000Z</time></trkpt>
<trkpt lat="42.190761" lon="23.374947"><ele>1992.3</ele><time>2026-03-02T06:05:31.000Z</time></trkpt>
<trkpt lat="42.19075" lon="23.374941"><ele>1992.3</ele><time>2026-03-02T06:05:32.000Z</time></trkpt>
<trkpt lat="42.19074" lon="23.374937"><ele>1992.3</ele><time>2026-03-02T06:05:33.000Z</time></trkpt>
<trkpt lat="42.19073" lon="23.374931"><ele>1992.3</ele><time>2026-03-02T06:05:34.000Z</time></trkpt>
<trkpt lat="42.190721" lon="23.374926"><ele>1993.4</ele><time>2026-03-02T06:05:35.000Z</time></trkpt>
<trkpt lat="42.190713" lon="23.374921"><ele>1993.4</ele><time>2026-03-02T06:05:36.000Z</time></trkpt>
<trkpt lat="42.190705" lon="23.374914"><ele>1993.4</ele><time>2026-03-02T06:05:37.000Z</time></trkpt>
<trkpt lat="42.190697" lon="23.374908"><ele>1993.4</ele><time>2026-03-02T06:05:38.000Z</time></trkpt>
<trkpt lat="42.190688" lon="23.374901"><ele>1993.4</ele><time>2026-03-02T06:05:39.000Z</time></trkpt>
<trkpt lat="42.190679" lon="23.374894"><ele>1993.9</ele><time>2026-03-02T06:05:40.000Z</time></trkpt>
<trkpt lat="42.190669" lon="23.374888"><ele>1993.9</ele><time>2026-03-02T06:05:41.000Z</time></trkpt>
<trkpt lat="42.190659" lon="23.374881"><ele>1993.9</ele><time>2026-03-02T06:05:42.000Z</time></trkpt>
<trkpt lat="42.190649" lon="23.374875"><ele>1993.9</ele><time>2026-03-02T06:05:43.000Z</time></trkpt>
<trkpt lat="42.190639" lon="23.374869"><ele>1993.9</ele><time>2026-03-02T06:05:44.000Z</time></trkpt>
<trkpt lat="42.190629" lon="23.374864"><ele>1994.9</ele><time>2026-03-02T06:05:45.000Z</time></trkpt>
<trkpt lat="42.19062" lon="23.374859"><ele>1994.9</ele><time>2026-03-02T06:05:46.000Z</time></trkpt>
<trkpt lat="42.190611" lon="23.374854"><ele>1994.9</ele><time>2026-03-02T06:05:47.000Z</time></trkpt>
<trkpt lat="42.190602" lon="23.374848"><ele>1994.9</ele><time>2026-03-02T06:05:48.000Z</time></trkpt>
<trkpt lat="42.190593" lon="23.374841"><ele>1994.9</ele><time>2026-03-02T06:05:49.000Z</time></trkpt>
<trkpt lat="42.190584" lon="23.374834"><ele>1995.8</ele><time>2026-03-02T06:05:50.000Z</time></trkpt>
<trkpt lat="42.190575" lon="23.374827"><ele>1995.8</ele><time>2026-03-02T06:05:51.000Z</time></trkpt>
<trkpt lat="42.190566" lon="23.37482"><ele>1995.8</ele><time>2026-03-02T06:05:52.000Z</time></trkpt>
<trkpt lat="42.190558" lon="23.374813"><ele>1995.8</ele><time>2026-03-02T06:05:53.000Z</time></trkpt>
<trkpt lat="42.190549" lon="23.374807"><ele>1995.8</ele><time>2026-03-02T06:05:54.000Z</time></trkpt>
<trkpt lat="42.190539" lon="23.3748"><ele>1996.3</ele><time>2026-03-02T06:05:55.000Z</time></trkpt>
<trkpt lat="42.19053" lon="23.374795"><ele>1996.3</ele><time>2026-03-02T06:05:56.000Z</time></trkpt>
<trkpt lat="42.190519" lon="23.37479"><ele>1996.3</ele><time>2026-03-02T06:05:57.000Z</time></trkpt>
<trkpt lat="42.190509" lon="23.374785"><ele>1996.3</ele><time>2026-03-02T06:05:58.000Z</time></trkpt>
<trkpt lat="42.190497" lon="23.374779"><ele>1996.3</ele><time>2026-03-02T06:05:59.000Z</time></trkpt>
<trkpt lat="42.190486" lon="23.374774"><ele>1997.1</ele><time>2026-03-02T06:06:00.000Z</time></trkpt>
<trkpt lat="42.190474" lon="23.374769"><ele>1997.1</ele><time>2026-03-02T06:06:01.000Z</time></trkpt>
<trkpt lat="42.190463" lon="23.374764"><ele>1997.1</ele><time>2026-03-02T06:06:02.000Z</time></trkpt>
<trkpt lat="42.190453" lon="23.374759"><ele>1997.1</ele><time>2026-03-02T06:06:03.000Z</time></trkpt>
<trkpt lat="42.190442" lon="23.374754"><ele>1997.1</ele><time>2026-03-02T06:06:04.000Z</time></trkpt>
<trkpt lat="42.190432" lon="23.37475"><ele>1998</ele><time>2026-03-02T06:06:05.000Z</time></trkpt>
<trkpt lat="42.190422" lon="23.374746"><ele>1998</ele><time>2026-03-02T06:06:06.000Z</time></trkpt>
<trkpt lat="42.190412" lon="23.374742"><ele>1998</ele><time>2026-03-02T06:06:07.000Z</time></trkpt>
<trkpt lat="42.1904" lon="23.374738"><ele>1998</ele><time>2026-03-02T06:06:08.000Z</time></trkpt>
<trkpt lat="42.190389" lon="23.374735"><ele>1998</ele><time>2026-03-02T06:06:09.000Z</time></trkpt>
<trkpt lat="42.190379" lon="23.374732"><ele>1998.4</ele><time>2026-03-02T06:06:10.000Z</time></trkpt>
<trkpt lat="42.190368" lon="23.37473"><ele>1998.4</ele><time>2026-03-02T06:06:11.000Z</time></trkpt>
<trkpt lat="42.190358" lon="23.374728"><ele>1998.4</ele><time>2026-03-02T06:06:12.000Z</time></trkpt>
<trkpt lat="42.190348" lon="23.374726"><ele>1998.4</ele><time>2026-03-02T06:06:13.000Z</time></trkpt>
<trkpt lat="42.190337" lon="23.374723"><ele>1998.4</ele><time>2026-03-02T06:06:14.000Z</time></trkpt>
<trkpt lat="42.190325" lon="23.374718"><ele>1999.2</ele><time>2026-03-02T06:06:15.000Z</time></trkpt>
<trkpt lat="42.190313" lon="23.374713"><ele>1999.2</ele><time>2026-03-02T06:06:16.000Z</time></trkpt>
<trkpt lat="42.190301" lon="23.374707"><ele>1999.2</ele><time>2026-03-02T06:06:17.000Z</time></trkpt>
<trkpt lat="42.190289" lon="23.374702"><ele>1999.2</ele><time>2026-03-02T06:06:18.000Z</time></trkpt>
<trkpt lat="42.190278" lon="23.374696"><ele>1999.2</ele><time>2026-03-02T06:06:19.000Z</time></trkpt>
<trkpt lat="42.190267" lon="23.37469"><ele>1999.8</ele><time>2026-03-02T06:06:20.000Z</time></trkpt>
<trkpt lat="42.190256" lon="23.374684"><ele>1999.8</ele><time>2026-03-02T06:06:21.000Z</time></trkpt>
<trkpt lat="42.190246" lon="23.374678"><ele>1999.8</ele><time>2026-03-02T06:06:22.000Z</time></trkpt>
<trkpt lat="42.190236" lon="23.374672"><ele>1999.8</ele><time>2026-03-02T06:06:23.000Z</time></trkpt>
<trkpt lat="42.190225" lon="23.374666"><ele>1999.8</ele><time>2026-03-02T06:06:24.000Z</time></trkpt>
<trkpt lat="42.190215" lon="23.374661"><ele>2000</ele><time>2026-03-02T06:06:25.000Z</time></trkpt>
<trkpt lat="42.190205" lon="23.374656"><ele>2000</ele><time>2026-03-02T06:06:26.000Z</time></trkpt>
<trkpt lat="42.190195" lon="23.374651"><ele>2000</ele><time>2026-03-02T06:06:27.000Z</time></trkpt>
<trkpt lat="42.190185" lon="23.374645"><ele>2000</ele><time>2026-03-02T06:06:28.000Z</time></trkpt>
<trkpt lat="42.190175" lon="23.37464"><ele>2000</ele><time>2026-03-02T06:06:29.000Z</time></trkpt>
<trkpt lat="42.190166" lon="23.374634"><ele>2000.4</ele><time>2026-03-02T06:06:30.000Z</time></trkpt>
<trkpt lat="42.190157" lon="23.37463"><ele>2000.4</ele><time>2026-03-02T06:06:31.000Z</time></trkpt>
<trkpt lat="42.190151" lon="23.374626"><ele>2000.4</ele><time>2026-03-02T06:06:32.000Z</time></trkpt>
<trkpt lat="42.190145" lon="23.374624"><ele>2000.4</ele><time>2026-03-02T06:06:33.000Z</time></trkpt>
<trkpt lat="42.19014" lon="23.374621"><ele>2000.4</ele><time>2026-03-02T06:06:34.000Z</time></trkpt>
<trkpt lat="42.190135" lon="23.374619"><ele>2000.8</ele><time>2026-03-02T06:06:35.000Z</time></trkpt>
<trkpt lat="42.190128" lon="23.374615"><ele>2000.8</ele><time>2026-03-02T06:06:36.000Z</time></trkpt>
<trkpt lat="42.190119" lon="23.37461"><ele>2000.8</ele><time>2026-03-02T06:06:37.000Z</time></trkpt>
<trkpt lat="42.190109" lon="23.374605"><ele>2000.8</ele><time>2026-03-02T06:06:38.000Z</time></trkpt>
<trkpt lat="42.190099" lon="23.374598"><ele>2000.8</ele><time>2026-03-02T06:06:39.000Z</time></trkpt>
<trkpt lat="42.190088" lon="23.374592"><ele>2001.1</ele><time>2026-03-02T06:06:40.000Z</time></trkpt>
<trkpt lat="42.190078" lon="23.374586"><ele>2001.1</ele><time>2026-03-02T06:06:41.000Z</time></trkpt>
<trkpt lat="42.190068" lon="23.37458"><ele>2001.1</ele><time>2026-03-02T06:06:42.000Z</time></trkpt>
<trkpt lat="42.190058" lon="23.374574"><ele>2001.1</ele><time>2026-03-02T06:06:43.000Z</time></trkpt>
<trkpt lat="42.190048" lon="23.374568"><ele>2001.1</ele><time>2026-03-02T06:06:44.000Z</time></trkpt>
<trkpt lat="42.190038" lon="23.374562"><ele>2001.5</ele><time>2026-03-02T06:06:45.000Z</time></trkpt>
<trkpt lat="42.190028" lon="23.374557"><ele>2001.5</ele><time>2026-03-02T06:06:46.000Z</time></trkpt>
<trkpt lat="42.190018" lon="23.374551"><ele>2001.5</ele><time>2026-03-02T06:06:47.000Z</time></trkpt>
<trkpt lat="42.190007" lon="23.374546"><ele>2001.5</ele><time>2026-03-02T06:06:48.000Z</time></trkpt>
<trkpt lat="42.189997" lon="23.374541"><ele>2001.5</ele><time>2026-03-02T06:06:49.000Z</time></trkpt>
<trkpt lat="42.189986" lon="23.374535"><ele>2002.2</ele><time>2026-03-02T06:06:50.000Z</time></trkpt>
<trkpt lat="42.189976" lon="23.37453"><ele>2002.2</ele><time>2026-03-02T06:06:51.000Z</time></trkpt>
<trkpt lat="42.189964" lon="23.374524"><ele>2002.2</ele><time>2026-03-02T06:06:52.000Z</time></trkpt>
<trkpt lat="42.189954" lon="23.374518"><ele>2002.2</ele><time>2026-03-02T06:06:53.000Z</time></trkpt>
<trkpt lat="42.189944" lon="23.374512"><ele>2002.2</ele><time>2026-03-02T06:06:54.000Z</time></trkpt>
<trkpt lat="42.189934" lon="23.374506"><ele>2002.6</ele><time>2026-03-02T06:06:55.000Z</time></trkpt>
<trkpt lat="42.189924" lon="23.3745"><ele>2002.6</ele><time>2026-03-02T06:06:56.000Z</time></trkpt>
<trkpt lat="42.189914" lon="23.374495"><ele>2002.6</ele><time>2026-03-02T06:06:57.000Z</time></trkpt>
<trkpt lat="42.189903" lon="23.374489"><ele>2002.6</ele><time>2026-03-02T06:06:58.000Z</time></trkpt>
<trkpt lat="42.189892" lon="23.374482"><ele>2002.6</ele><time>2026-03-02T06:06:59.000Z</time></trkpt>
<trkpt lat="42.189881" lon="23.374476"><ele>2003.4</ele><time>2026-03-02T06:07:00.000Z</time></trkpt>
<trkpt lat="42.18987" lon="23.37447"><ele>2003.4</ele><time>2026-03-02T06:07:01.000Z</time></trkpt>
<trkpt lat="42.189859" lon="23.374464"><ele>2003.4</ele><time>2026-03-02T06:07:02.000Z</time></trkpt>
<trkpt lat="42.189851" lon="23.374459"><ele>2003.4</ele><time>2026-03-02T06:07:03.000Z</time></trkpt>
<trkpt lat="42.189842" lon="23.374454"><ele>2003.4</ele><time>2026-03-02T06:07:04.000Z</time></trkpt>
<trkpt lat="42.189834" lon="23.374448"><ele>2004.3</ele><time>2026-03-02T06:07:05.000Z</time></trkpt>
<trkpt lat="42.189826" lon="23.374442"><ele>2004.3</ele><time>2026-03-02T06:07:06.000Z</time></trkpt>
<trkpt lat="42.189818" lon="23.374435"><ele>2004.3</ele><time>2026-03-02T06:07:07.000Z</time></trkpt>
<trkpt lat="42.18981" lon="23.374428"><ele>2004.3</ele><time>2026-03-02T06:07:08.000Z</time></trkpt>
<trkpt lat="42.189802" lon="23.374421"><ele>2004.3</ele><time>2026-03-02T06:07:09.000Z</time></trkpt>
<trkpt lat="42.189794" lon="23.374415"><ele>2004.8</ele><time>2026-03-02T06:07:10.000Z</time></trkpt>
<trkpt lat="42.189786" lon="23.374409"><ele>2004.8</ele><time>2026-03-02T06:07:11.000Z</time></trkpt>
<trkpt lat="42.189778" lon="23.374402"><ele>2004.8</ele><time>2026-03-02T06:07:12.000Z</time></trkpt>
<trkpt lat="42.18977" lon="23.374397"><ele>2004.8</ele><time>2026-03-02T06:07:13.000Z</time></trkpt>
<trkpt lat="42.189762" lon="23.374391"><ele>2004.8</ele><time>2026-03-02T06:07:14.000Z</time></trkpt>
<trkpt lat="42.189754" lon="23.374385"><ele>2006</ele><time>2026-03-02T06:07:15.000Z</time></trkpt>
<trkpt lat="42.189746" lon="23.37438"><ele>2006</ele><time>2026-03-02T06:07:16.000Z</time></trkpt>
<trkpt lat="42.189738" lon="23.374375"><ele>2006</ele><time>2026-03-02T06:07:17.000Z</time></trkpt>
<trkpt lat="42.189729" lon="23.37437"><ele>2006</ele><time>2026-03-02T06:07:18.000Z</time></trkpt>
<trkpt lat="42.189721" lon="23.374366"><ele>2006</ele><time>2026-03-02T06:07:19.000Z</time></trkpt>
<trkpt lat="42.189713" lon="23.374362"><ele>2007.6</ele><time>2026-03-02T06:07:20.000Z</time></trkpt>
<trkpt lat="42.189704" lon="23.374359"><ele>2007.6</ele><time>2026-03-02T06:07:21.000Z</time></trkpt>
<trkpt lat="42.189696" lon="23.374356"><ele>2007.6</ele><time>2026-03-02T06:07:22.000Z</time></trkpt>
<trkpt lat="42.189688" lon="23.374352"><ele>2007.6</ele><time>2026-03-02T06:07:23.000Z</time></trkpt>
<trkpt lat="42.189679" lon="23.374348"><ele>2007.6</ele><time>2026-03-02T06:07:24.000Z</time></trkpt>
<trkpt lat="42.18967" lon="23.374343"><ele>2008.4</ele><time>2026-03-02T06:07:25.000Z</time></trkpt>
<trkpt lat="42.189661" lon="23.374338"><ele>2008.4</ele><time>2026-03-02T06:07:26.000Z</time></trkpt>
<trkpt lat="42.189651" lon="23.374333"><ele>2008.4</ele><time>2026-03-02T06:07:27.000Z</time></trkpt>
<trkpt lat="42.189642" lon="23.374328"><ele>2008.4</ele><time>2026-03-02T06:07:28.000Z</time></trkpt>
<trkpt lat="42.189633" lon="23.374323"><ele>2008.4</ele><time>2026-03-02T06:07:29.000Z</time></trkpt>
<trkpt lat="42.189625" lon="23.374318"><ele>2009.8</ele><time>2026-03-02T06:07:30.000Z</time></trkpt>
<trkpt lat="42.189616" lon="23.374314"><ele>2009.8</ele><time>2026-03-02T06:07:31.000Z</time></trkpt>
<trkpt lat="42.189608" lon="23.37431"><ele>2009.8</ele><time>2026-03-02T06:07:32.000Z</time></trkpt>
<trkpt lat="42.1896" lon="23.374306"><ele>2009.8</ele><time>2026-03-02T06:07:33.000Z</time></trkpt>
<trkpt lat="42.189591" lon="23.374301"><ele>2009.8</ele><time>2026-03-02T06:07:34.000Z</time></trkpt>
<trkpt lat="42.189581" lon="23.374297"><ele>2011</ele><time>2026-03-02T06:07:35.000Z</time></trkpt>
<trkpt lat="42.189571" lon="23.374293"><ele>2011</ele><time>2026-03-02T06:07:36.000Z</time></trkpt>
<trkpt lat="42.18956" lon="23.374289"><ele>2011</ele><time>2026-03-02T06:07:37.000Z</time></trkpt>
<trkpt lat="42.18955" lon="23.374285"><ele>2011</ele><time>2026-03-02T06:07:38.000Z</time></trkpt>
<trkpt lat="42.18954" lon="23.374281"><ele>2011</ele><time>2026-03-02T06:07:39.000Z</time></trkpt>
<trkpt lat="42.18953" lon="23.374276"><ele>2011.7</ele><time>2026-03-02T06:07:40.000Z</time></trkpt>
<trkpt lat="42.189521" lon="23.374271"><ele>2011.7</ele><time>2026-03-02T06:07:41.000Z</time></trkpt>
<trkpt lat="42.189511" lon="23.374266"><ele>2011.7</ele><time>2026-03-02T06:07:42.000Z</time></trkpt>
<trkpt lat="42.189502" lon="23.374261"><ele>2011.7</ele><time>2026-03-02T06:07:43.000Z</time></trkpt>
<trkpt lat="42.189493" lon="23.374256"><ele>2011.7</ele><time>2026-03-02T06:07:44.000Z</time></trkpt>
<trkpt lat="42.189485" lon="23.374251"><ele>2013</ele><time>2026-03-02T06:07:45.000Z</time></trkpt>
<trkpt lat="42.189477" lon="23.374246"><ele>2013</ele><time>2026-03-02T06:07:46.000Z</time></trkpt>
<trkpt lat="42.189469" lon="23.374241"><ele>2013</ele><time>2026-03-02T06:07:47.000Z</time></trkpt>
<trkpt lat="42.189461" lon="23.374235"><ele>2013</ele><time>2026-03-02T06:07:48.000Z</time></trkpt>
<trkpt lat="42.189452" lon="23.37423"><ele>2013</ele><time>2026-03-02T06:07:49.000Z</time></trkpt>
<trkpt lat="42.189442" lon="23.374225"><ele>2014.3</ele><time>2026-03-02T06:07:50.000Z</time></trkpt>
<trkpt lat="42.189431" lon="23.37422"><ele>2014.3</ele><time>2026-03-02T06:07:51.000Z</time></trkpt>
<trkpt lat="42.18942" lon="23.374215"><ele>2014.3</ele><time>2026-03-02T06:07:52.000Z</time></trkpt>
<trkpt lat="42.189409" lon="23.37421"><ele>2014.3</ele><time>2026-03-02T06:07:53.000Z</time></trkpt>
<trkpt lat="42.189398" lon="23.374206"><ele>2014.3</ele><time>2026-03-02T06:07:54.000Z</time></trkpt>
<trkpt lat="42.189387" lon="23.374203"><ele>2014.8</ele><time>2026-03-02T06:07:55.000Z</time></trkpt>
<trkpt lat="42.189376" lon="23.374199"><ele>2014.8</ele><time>2026-03-02T06:07:56.000Z</time></trkpt>
<trkpt lat="42.189364" lon="23.374196"><ele>2014.8</ele><time>2026-03-02T06:07:57.000Z</time></trkpt>
<trkpt lat="42.189353" lon="23.374193"><ele>2014.8</ele><time>2026-03-02T06:07:58.000Z</time></trkpt>
<trkpt lat="42.189341" lon="23.374191"><ele>2014.8</ele><time>2026-03-02T06:07:59.000Z</time></trkpt>
<trkpt lat="42.189329" lon="23.374188"><ele>2015.7</ele><time>2026-03-02T06:08:00.000Z</time></trkpt>
<trkpt lat="42.189317" lon="23.374186"><ele>2015.7</ele><time>2026-03-02T06:08:01.000Z</time></trkpt>
<trkpt lat="42.189305" lon="23.374183"><ele>2015.7</ele><time>2026-03-02T06:08:02.000Z</time></trkpt>
<trkpt lat="42.189292" lon="23.37418"><ele>2015.7</ele><time>2026-03-02T06:08:03.000Z</time></trkpt>
<trkpt lat="42.18928" lon="23.374177"><ele>2015.7</ele><time>2026-03-02T06:08:04.000Z</time></trkpt>
<trkpt lat="42.189268" lon="23.374175"><ele>2016.5</ele><time>2026-03-02T06:08:05.000Z</time></trkpt>
<trkpt lat="42.189257" lon="23.374172"><ele>2016.5</ele><time>2026-03-02T06:08:06.000Z</time></trkpt>
<trkpt lat="42.189246" lon="23.374169"><ele>2016.5</ele><time>2026-03-02T06:08:07.000Z</time></trkpt>
<trkpt lat="42.189235" lon="23.374166"><ele>2016.5</ele><time>2026-03-02T06:08:08.000Z</time></trkpt>
<trkpt lat="42.189224" lon="23.374162"><ele>2016.5</ele><time>2026-03-02T06:08:09.000Z</time></trkpt>
<trkpt lat="42.189215" lon="23.374158"><ele>2016.8</ele><time>2026-03-02T06:08:10.000Z</time></trkpt>
<trkpt lat="42.189207" lon="23.374153"><ele>2016.8</ele><time>2026-03-02T06:08:11.000Z</time></trkpt>
<trkpt lat="42.1892" lon="23.374148"><ele>2016.8</ele><time>2026-03-02T06:08:12.000Z</time></trkpt>
<trkpt lat="42.189193" lon="23.374143"><ele>2016.8</ele><time>2026-03-02T06:08:13.000Z</time></trkpt>
<trkpt lat="42.189187" lon="23.374138"><ele>2016.8</ele><time>2026-03-02T06:08:14.000Z</time></trkpt>
<trkpt lat="42.189181" lon="23.374134"><ele>2017.6</ele><time>2026-03-02T06:08:15.000Z</time></trkpt>
<trkpt lat="42.189174" lon="23.374129"><ele>2017.6</ele><time>2026-03-02T06:08:16.000Z</time></trkpt>
<trkpt lat="42.189166" lon="23.374127"><ele>2017.6</ele><time>2026-03-02T06:08:17.000Z</time></trkpt>
<trkpt lat="42.189158" lon="23.374126"><ele>2017.6</ele><time>2026-03-02T06:08:18.000Z</time></trkpt>
<trkpt lat="42.189149" lon="23.374125"><ele>2017.6</ele><time>2026-03-02T06:08:19.000Z</time></trkpt>
<trkpt lat="42.18914" lon="23.374127"><ele>2018.6</ele><time>2026-03-02T06:08:20.000Z</time></trkpt>
<trkpt lat="42.18913" lon="23.374131"><ele>2018.6</ele><time>2026-03-02T06:08:21.000Z</time></trkpt>
<trkpt lat="42.18912" lon="23.374135"><ele>2018.6</ele><time>2026-03-02T06:08:22.000Z</time></trkpt>
<trkpt lat="42.18911" lon="23.37414"><ele>2018.6</ele><time>2026-03-02T06:08:23.000Z</time></trkpt>
<trkpt lat="42.189098" lon="23.374144"><ele>2018.6</ele><time>2026-03-02T06:08:24.000Z</time></trkpt>
<trkpt lat="42.189086" lon="23.374146"><ele>2019.2</ele><time>2026-03-02T06:08:25.000Z</time></trkpt>
<trkpt lat="42.189074" lon="23.374146"><ele>2019.2</ele><time>2026-03-02T06:08:26.000Z</time></trkpt>
<trkpt lat="42.189061" lon="23.374146"><ele>2019.2</ele><time>2026-03-02T06:08:27.000Z</time></trkpt>
<trkpt lat="42.189048" lon="23.374145"><ele>2019.2</ele><time>2026-03-02T06:08:28.000Z</time></trkpt>
<trkpt lat="42.189037" lon="23.374143"><ele>2019.2</ele><time>2026-03-02T06:08:29.000Z</time></trkpt>
<trkpt lat="42.189025" lon="23.374141"><ele>2020.2</ele><time>2026-03-02T06:08:30.000Z</time></trkpt>
<trkpt lat="42.189015" lon="23.374137"><ele>2020.2</ele><time>2026-03-02T06:08:31.000Z</time></trkpt>
<trkpt lat="42.189006" lon="23.374133"><ele>2020.2</ele><time>2026-03-02T06:08:32.000Z</time></trkpt>
<trkpt lat="42.188996" lon="23.374128"><ele>2020.2</ele><time>2026-03-02T06:08:33.000Z</time></trkpt>
<trkpt lat="42.188987" lon="23.374123"><ele>2020.2</ele><time>2026-03-02T06:08:34.000Z</time></trkpt>
<trkpt lat="42.188978" lon="23.374118"><ele>2020.5</ele><time>2026-03-02T06:08:35.000Z</time></trkpt>
<trkpt lat="42.18897" lon="23.374114"><ele>2020.5</ele><time>2026-03-02T06:08:36.000Z</time></trkpt>
<trkpt lat="42.188961" lon="23.374108"><ele>2020.5</ele><time>2026-03-02T06:08:37.000Z</time></trkpt>
<trkpt lat="42.188953" lon="23.374102"><ele>2020.5</ele><time>2026-03-02T06:08:38.000Z</time></trkpt>
<trkpt lat="42.188945" lon="23.374096"><ele>2020.5</ele><time>2026-03-02T06:08:39.000Z</time></trkpt>
<trkpt lat="42.188937" lon="23.374091"><ele>2020.3</ele><time>2026-03-02T06:08:40.000Z</time></trkpt>
<trkpt lat="42.18893" lon="23.374089"><ele>2020.3</ele><time>2026-03-02T06:08:41.000Z</time></trkpt>
<trkpt lat="42.188924" lon="23.374087"><ele>2020.3</ele><time>2026-03-02T06:08:42.000Z</time></trkpt>
<trkpt lat="42.18892" lon="23.374088"><ele>2020.3</ele><time>2026-03-02T06:08:43.000Z</time></trkpt>
<trkpt lat="42.188917" lon="23.374089"><ele>2020.3</ele><time>2026-03-02T06:08:44.000Z</time></trkpt>
<trkpt lat="42.188917" lon="23.37409"><ele>2019.7</ele><time>2026-03-02T06:08:45.000Z</time></trkpt>
<trkpt lat="42.188916" lon="23.374091"><ele>2019.7</ele><time>2026-03-02T06:08:46.000Z</time></trkpt>
<trkpt lat="42.188916" lon="23.374091"><ele>2019.7</ele><time>2026-03-02T06:08:47.000Z</time></trkpt>
<trkpt lat="42.188916" lon="23.374091"><ele>2019.7</ele><time>2026-03-02T06:08:48.000Z</time></trkpt>
<trkpt lat="42.188916" lon="23.374091"><ele>2019.7</ele><time>2026-03-02T06:08:49.000Z</time></trkpt>
<trkpt lat="42.188915" lon="23.374092"><ele>2019.6</ele><time>2026-03-02T06:08:50.000Z</time></trkpt>
<trkpt lat="42.188913" lon="23.374095"><ele>2019.6</ele><time>2026-03-02T06:08:51.000Z</time></trkpt>
<trkpt lat="42.188909" lon="23.374099"><ele>2019.6</ele><time>2026-03-02T06:08:52.000Z</time></trkpt>
<trkpt lat="42.188904" lon="23.374103"><ele>2019.6</ele><time>2026-03-02T06:08:53.000Z</time></trkpt>
<trkpt lat="42.188899" lon="23.374107"><ele>2019.6</ele><time>2026-03-02T06:08:54.000Z</time></trkpt>
<trkpt lat="42.188895" lon="23.37411"><ele>2019.8</ele><time>2026-03-02T06:08:55.000Z</time></trkpt>
<trkpt lat="42.188892" lon="23.374112"><ele>2019.8</ele><time>2026-03-02T06:08:56.000Z</time></trkpt>
<trkpt lat="42.18889" lon="23.374112"><ele>2019.8</ele><time>2026-03-02T06:08:57.000Z</time></trkpt>
<trkpt lat="42.188889" lon="23.374113"><ele>2019.8</ele><time>2026-03-02T06:08:58.000Z</time></trkpt>
<trkpt lat="42.188889" lon="23.374114"><ele>2019.8</ele><time>2026-03-02T06:08:59.000Z</time></trkpt>
<trkpt lat="42.188888" lon="23.374114"><ele>2020</ele><time>2026-03-02T06:09:00.000Z</time></trkpt>
<trkpt lat="42.188888" lon="23.374115"><ele>2020</ele><time>2026-03-02T06:09:01.000Z</time></trkpt>
<trkpt lat="42.188888" lon="23.374116"><ele>2020</ele><time>2026-03-02T06:09:02.000Z</time></trkpt>
<trkpt lat="42.188888" lon="23.374116"><ele>2020</ele><time>2026-03-02T06:09:03.000Z</time></trkpt>
<trkpt lat="42.188888" lon="23.374116"><ele>2020</ele><time>2026-03-02T06:09:04.000Z</time></trkpt>
<trkpt lat="42.188888" lon="23.374116"><ele>2020</ele><time>2026-03-02T06:09:05.000Z</time></trkpt>
<trkpt lat="42.188889" lon="23.374115"><ele>2020</ele><time>2026-03-02T06:09:06.000Z</time></trkpt>
<trkpt lat="42.188889" lon="23.374115"><ele>2020</ele><time>2026-03-02T06:09:07.000Z</time></trkpt>
<trkpt lat="42.188889" lon="23.374114"><ele>2020</ele><time>2026-03-02T06:09:08.000Z</time></trkpt>
<trkpt lat="42.18889" lon="23.374113"><ele>2020</ele><time>2026-03-02T06:09:09.000Z</time></trkpt>
<trkpt lat="42.18889" lon="23.374113"><ele>2019.9</ele><time>2026-03-02T06:09:10.000Z</time></trkpt>
<trkpt lat="42.18889" lon="23.374112"><ele>2019.9</ele><time>2026-03-02T06:09:11.000Z</time></trkpt>
<trkpt lat="42.188891" lon="23.374112"><ele>2019.9</ele><time>2026-03-02T06:09:12.000Z</time></trkpt>
<trkpt lat="42.188891" lon="23.374112"><ele>2019.9</ele><time>2026-03-02T06:09:13.000Z</time></trkpt>
<trkpt lat="42.188891" lon="23.374112"><ele>2019.9</ele><time>2026-03-02T06:09:14.000Z</time></trkpt>
<trkpt lat="42.188892" lon="23.374113"><ele>2019.9</ele><time>2026-03-02T06:09:15.000Z</time></trkpt>
<trkpt lat="42.188892" lon="23.374113"><ele>2019.9</ele><time>2026-03-02T06:09:16.000Z</time></trkpt>
<trkpt lat="42.188891" lon="23.374114"><ele>2019.9</ele><time>2026-03-02T06:09:17.000Z</time></trkpt>
<trkpt lat="42.188888" lon="23.374115"><ele>2019.9</ele><time>2026-03-02T06:09:18.000Z</time></trkpt>
<trkpt lat="42.188882" lon="23.374116"><ele>2019.9</ele><time>2026-03-02T06:09:19.000Z</time></trkpt>
<trkpt lat="42.188875" lon="23.374116"><ele>2019.9</ele><time>2026-03-02T06:09:20.000Z</time></trkpt>
<trkpt lat="42.188866" lon="23.374115"><ele>2019.9</ele><time>2026-03-02T06:09:21.000Z</time></trkpt>
<trkpt lat="42.188858" lon="23.374112"><ele>2019.9</ele><time>2026-03-02T06:09:22.000Z</time></trkpt>
<trkpt lat="42.188849" lon="23.374108"><ele>2019.9</ele><time>2026-03-02T06:09:23.000Z</time></trkpt>
<trkpt lat="42.18884" lon="23.374105"><ele>2019.9</ele><time>2026-03-02T06:09:24.000Z</time></trkpt>
<trkpt lat="42.188831" lon="23.374101"><ele>2019.9</ele><time>2026-03-02T06:09:25.000Z</time></trkpt>
<trkpt lat="42.18882" lon="23.374097"><ele>2019.9</ele><time>2026-03-02T06:09:26.000Z</time></trkpt>
<trkpt lat="42.188809" lon="23.374094"><ele>2019.9</ele><time>2026-03-02T06:09:27.000Z</time></trkpt>
<trkpt lat="42.188797" lon="23.37409"><ele>2019.9</ele><time>2026-03-02T06:09:28.000Z</time></trkpt>
<trkpt lat="42.188786" lon="23.374084"><ele>2019.9</ele><time>2026-03-02T06:09:29.000Z</time></trkpt>
<trkpt lat="42.188776" lon="23.374077"><ele>2019.9</ele><time>2026-03-02T06:09:30.000Z</time></trkpt>
<trkpt lat="42.188767" lon="23.37407"><ele>2019.9</ele><time>2026-03-02T06:09:31.000Z</time></trkpt>
<trkpt lat="42.188758" lon="23.374061"><ele>2019.9</ele><time>2026-03-02T06:09:32.000Z</time></trkpt>
<trkpt lat="42.188751" lon="23.374052"><ele>2019.9</ele><time>2026-03-02T06:09:33.000Z</time></trkpt>
<trkpt lat="42.188743" lon="23.374043"><ele>2019.9</ele><time>2026-03-02T06:09:34.000Z</time></trkpt>
<trkpt lat="42.188735" lon="23.374034"><ele>2019.9</ele><time>2026-03-02T06:09:35.000Z</time></trkpt>
<trkpt lat="42.188725" lon="23.374024"><ele>2019.9</ele><time>2026-03-02T06:09:36.000Z</time></trkpt>
<trkpt lat="42.188716" lon="23.374013"><ele>2019.9</ele><time>2026-03-02T06:09:37.000Z</time></trkpt>
<trkpt lat="42.188708" lon="23.374001"><ele>2019.9</ele><time>2026-03-02T06:09:38.000Z</time></trkpt>
<trkpt lat="42.1887" lon="23.373988"><ele>2019.9</ele><time>2026-03-02T06:09:39.000Z</time></trkpt>
<trkpt lat="42.188695" lon="23.373976"><ele>2020</ele><time>2026-03-02T06:09:40.000Z</time></trkpt>
<trkpt lat="42.188691" lon="23.373964"><ele>2020</ele><time>2026-03-02T06:09:41.000Z</time></trkpt>
<trkpt lat="42.188688" lon="23.373953"><ele>2020</ele><time>2026-03-02T06:09:42.000Z</time></trkpt>
<trkpt lat="42.188684" lon="23.373943"><ele>2020</ele><time>2026-03-02T06:09:43.000Z</time></trkpt>
<trkpt lat="42.188682" lon="23.373932"><ele>2020</ele><time>2026-03-02T06:09:44.000Z</time></trkpt>
<trkpt lat="42.188678" lon="23.37392"><ele>2020.2</ele><time>2026-03-02T06:09:45.000Z</time></trkpt>
<trkpt lat="42.188675" lon="23.37391"><ele>2020.2</ele><time>2026-03-02T06:09:46.000Z</time></trkpt>
<trkpt lat="42.188672" lon="23.373901"><ele>2020.2</ele><time>2026-03-02T06:09:47.000Z</time></trkpt>
<trkpt lat="42.18867" lon="23.373892"><ele>2020.2</ele><time>2026-03-02T06:09:48.000Z</time></trkpt>
<trkpt lat="42.188668" lon="23.373884"><ele>2020.2</ele><time>2026-03-02T06:09:49.000Z</time></trkpt>
<trkpt lat="42.188666" lon="23.373877"><ele>2020.7</ele><time>2026-03-02T06:09:50.000Z</time></trkpt>
<trkpt lat="42.188664" lon="23.373869"><ele>2020.7</ele><time>2026-03-02T06:09:51.000Z</time></trkpt>
<trkpt lat="42.18866" lon="23.373861"><ele>2020.7</ele><time>2026-03-02T06:09:52.000Z</time></trkpt>
<trkpt lat="42.188657" lon="23.373853"><ele>2020.7</ele><time>2026-03-02T06:09:53.000Z</time></trkpt>
<trkpt lat="42.188653" lon="23.373846"><ele>2020.7</ele><time>2026-03-02T06:09:54.000Z</time></trkpt>
<trkpt lat="42.18865" lon="23.373838"><ele>2021.1</ele><time>2026-03-02T06:09:55.000Z</time></trkpt>
<trkpt lat="42.188647" lon="23.373831"><ele>2021.1</ele><time>2026-03-02T06:09:56.000Z</time></trkpt>
<trkpt lat="42.188644" lon="23.373825"><ele>2021.1</ele><time>2026-03-02T06:09:57.000Z</time></trkpt>
<trkpt lat="42.188642" lon="23.373818"><ele>2021.1</ele><time>2026-03-02T06:09:58.000Z</time></trkpt>
<trkpt lat="42.18864" lon="23.373813"><ele>2021.1</ele><time>2026-03-02T06:09:59.000Z</time></trkpt>
<trkpt lat="42.188639" lon="23.373809"><ele>2022</ele><time>2026-03-02T06:10:00.000Z</time></trkpt>
<trkpt lat="42.188637" lon="23.373806"><ele>2022</ele><time>2026-03-02T06:10:01.000Z</time></trkpt>
<trkpt lat="42.188635" lon="23.373803"><ele>2022</ele><time>2026-03-02T06:10:02.000Z</time></trkpt>
<trkpt lat="42.188633" lon="23.373799"><ele>2022</ele><time>2026-03-02T06:10:03.000Z</time></trkpt>
<trkpt lat="42.188631" lon="23.373793"><ele>2022</ele><time>2026-03-02T06:10:04.000Z</time></trkpt>
<trkpt lat="42.188628" lon="23.373787"><ele>2022.7</ele><time>2026-03-02T06:10:05.000Z</time></trkpt>
<trkpt lat="42.188625" lon="23.373779"><ele>2022.7</ele><time>2026-03-02T06:10:06.000Z</time></trkpt>
<trkpt lat="42.188622" lon="23.373769"><ele>2022.7</ele><time>2026-03-02T06:10:07.000Z</time></trkpt>
<trkpt lat="42.188619" lon="23.373761"><ele>2022.7</ele><time>2026-03-02T06:10:08.000Z</time></trkpt>
<trkpt lat="42.188616" lon="23.373752"><ele>2022.7</ele><time>2026-03-02T06:10:09.000Z</time></trkpt>
<trkpt lat="42.188612" lon="23.373743"><ele>2023.1</ele><time>2026-03-02T06:10:10.000Z</time></trkpt>
<trkpt lat="42.188608" lon="23.373732"><ele>2023.1</ele><time>2026-03-02T06:10:11.000Z</time></trkpt>
<trkpt lat="42.188604" lon="23.373722"><ele>2023.1</ele><time>2026-03-02T06:10:12.000Z</time></trkpt>
<trkpt lat="42.188601" lon="23.37371"><ele>2023.1</ele><time>2026-03-02T06:10:13.000Z</time></trkpt>
<trkpt lat="42.188599" lon="23.373698"><ele>2023.1</ele><time>2026-03-02T06:10:14.000Z</time></trkpt>
<trkpt lat="42.188597" lon="23.373686"><ele>2024.1</ele><time>2026-03-02T06:10:15.000Z</time></trkpt>
<trkpt lat="42.188596" lon="23.373674"><ele>2024.1</ele><time>2026-03-02T06:10:16.000Z</time></trkpt>
<trkpt lat="42.188594" lon="23.373662"><ele>2024.1</ele><time>2026-03-02T06:10:17.000Z</time></trkpt>
<trkpt lat="42.188591" lon="23.37365"><ele>2024.1</ele><time>2026-03-02T06:10:18.000Z</time></trkpt>
<trkpt lat="42.188587" lon="23.373638"><ele>2024.1</ele><time>2026-03-02T06:10:19.000Z</time></trkpt>
<trkpt lat="42.188582" lon="23.373625"><ele>2025.3</ele><time>2026-03-02T06:10:20.000Z</time></trkpt>
<trkpt lat="42.188576" lon="23.373613"><ele>2025.3</ele><time>2026-03-02T06:10:21.000Z</time></trkpt>
<trkpt lat="42.18857" lon="23.373602"><ele>2025.3</ele><time>2026-03-02T06:10:22.000Z</time></trkpt>
<trkpt lat="42.188562" lon="23.373591"><ele>2025.3</ele><time>2026-03-02T06:10:23.000Z</time></trkpt>
<trkpt lat="42.188554" lon="23.37358"><ele>2025.3</ele><time>2026-03-02T06:10:24.000Z</time></trkpt>
<trkpt lat="42.188544" lon="23.373571"><ele>2025.8</ele><time>2026-03-02T06:10:25.000Z</time></trkpt>
<trkpt lat="42.188535" lon="23.373564"><ele>2025.8</ele><time>2026-03-02T06:10:26.000Z</time></trkpt>
<trkpt lat="42.188526" lon="23.373558"><ele>2025.8</ele><time>2026-03-02T06:10:27.000Z</time></trkpt>
<trkpt lat="42.18852" lon="23.373554"><ele>2025.8</ele><time>2026-03-02T06:10:28.000Z</time></trkpt>
<trkpt lat="42.188515" lon="23.373552"><ele>2025.8</ele><time>2026-03-02T06:10:29.000Z</time></trkpt>
<trkpt lat="42.18851" lon="23.373551"><ele>2026.2</ele><time>2026-03-02T06:10:30.000Z</time></trkpt>
<trkpt lat="42.188506" lon="23.37355"><ele>2026.2</ele><time>2026-03-02T06:10:31.000Z</time></trkpt>
<trkpt lat="42.1885" lon="23.373549"><ele>2026.2</ele><time>2026-03-02T06:10:32.000Z</time></trkpt>
<trkpt lat="42.188494" lon="23.373547"><ele>2026.2</ele><time>2026-03-02T06:10:33.000Z</time></trkpt>
<trkpt lat="42.188486" lon="23.373545"><ele>2026.2</ele><time>2026-03-02T06:10:34.000Z</time></trkpt>
<trkpt lat="42.188478" lon="23.373541"><ele>2026.3</ele><time>2026-03-02T06:10:35.000Z</time></trkpt>
<trkpt lat="42.188471" lon="23.373537"><ele>2026.3</ele><time>2026-03-02T06:10:36.000Z</time></trkpt>
<trkpt lat="42.188463" lon="23.373532"><ele>2026.3</ele><time>2026-03-02T06:10:37.000Z</time></trkpt>
<trkpt lat="42.188456" lon="23.373529"><ele>2026.3</ele><time>2026-03-02T06:10:38.000Z</time></trkpt>
<trkpt lat="42.188449" lon="23.373524"><ele>2026.3</ele><time>2026-03-02T06:10:39.000Z</time></trkpt>
<trkpt lat="42.188442" lon="23.37352"><ele>2026.4</ele><time>2026-03-02T06:10:40.000Z</time></trkpt>
<trkpt lat="42.188436" lon="23.373516"><ele>2026.4</ele><time>2026-03-02T06:10:41.000Z</time></trkpt>
<trkpt lat="42.188428" lon="23.373512"><ele>2026.4</ele><time>2026-03-02T06:10:42.000Z</time></trkpt>
<trkpt lat="42.188421" lon="23.373509"><ele>2026.4</ele><time>2026-03-02T06:10:43.000Z</time></trkpt>
<trkpt lat="42.188414" lon="23.373507"><ele>2026.4</ele><time>2026-03-02T06:10:44.000Z</time></trkpt>
<trkpt lat="42.188407" lon="23.373507"><ele>2027.2</ele><time>2026-03-02T06:10:45.000Z</time></trkpt>
<trkpt lat="42.188401" lon="23.373505"><ele>2027.2</ele><time>2026-03-02T06:10:46.000Z</time></trkpt>
<trkpt lat="42.188394" lon="23.373504"><ele>2027.2</ele><time>2026-03-02T06:10:47.000Z</time></trkpt>
<trkpt lat="42.188387" lon="23.373502"><ele>2027.2</ele><time>2026-03-02T06:10:48.000Z</time></trkpt>
<trkpt lat="42.188379" lon="23.373499"><ele>2027.2</ele><time>2026-03-02T06:10:49.000Z</time></trkpt>
<trkpt lat="42.188372" lon="23.373496"><ele>2028.4</ele><time>2026-03-02T06:10:50.000Z</time></trkpt>
<trkpt lat="42.188364" lon="23.373493"><ele>2028.4</ele><time>2026-03-02T06:10:51.000Z</time></trkpt>
<trkpt lat="42.188357" lon="23.37349"><ele>2028.4</ele><time>2026-03-02T06:10:52.000Z</time></trkpt>
<trkpt lat="42.188348" lon="23.373487"><ele>2028.4</ele><time>2026-03-02T06:10:53.000Z</time></trkpt>
<trkpt lat="42.188339" lon="23.373483"><ele>2028.4</ele><time>2026-03-02T06:10:54.000Z</time></trkpt>
<trkpt lat="42.188328" lon="23.373479"><ele>2029</ele><time>2026-03-02T06:10:55.000Z</time></trkpt>
<trkpt lat="42.188317" lon="23.373474"><ele>2029</ele><time>2026-03-02T06:10:56.000Z</time></trkpt>
<trkpt lat="42.188306" lon="23.373469"><ele>2029</ele><time>2026-03-02T06:10:57.000Z</time></trkpt>
<trkpt lat="42.188296" lon="23.373465"><ele>2029</ele><time>2026-03-02T06:10:58.000Z</time></trkpt>
<trkpt lat="42.188286" lon="23.373462"><ele>2029</ele><time>2026-03-02T06:10:59.000Z</time></trkpt>
<trkpt lat="42.188276" lon="23.373458"><ele>2030.3</ele><time>2026-03-02T06:11:00.000Z</time></trkpt>
<trkpt lat="42.188266" lon="23.373455"><ele>2030.3</ele><time>2026-03-02T06:11:01.000Z</time></trkpt>
<trkpt lat="42.188255" lon="23.373452"><ele>2030.3</ele><time>2026-03-02T06:11:02.000Z</time></trkpt>
<trkpt lat="42.188244" lon="23.373447"><ele>2030.3</ele><time>2026-03-02T06:11:03.000Z</time></trkpt>
<trkpt lat="42.188233" lon="23.373443"><ele>2030.3</ele><time>2026-03-02T06:11:04.000Z</time></trkpt>
<trkpt lat="42.188221" lon="23.373438"><ele>2031.2</ele><time>2026-03-02T06:11:05.000Z</time></trkpt>
<trkpt lat="42.18821" lon="23.373434"><ele>2031.2</ele><time>2026-03-02T06:11:06.000Z</time></trkpt>
<trkpt lat="42.1882" lon="23.373429"><ele>2031.2</ele><time>2026-03-02T06:11:07.000Z</time></trkpt>
<trkpt lat="42.188192" lon="23.373424"><ele>2031.2</ele><time>2026-03-02T06:11:08.000Z</time></trkpt>
<trkpt lat="42.188185" lon="23.37342"><ele>2031.2</ele><time>2026-03-02T06:11:09.000Z</time></trkpt>
<trkpt lat="42.188181" lon="23.373415"><ele>2031.4</ele><time>2026-03-02T06:11:10.000Z</time></trkpt>
<trkpt lat="42.188178" lon="23.373411"><ele>2031.4</ele><time>2026-03-02T06:11:11.000Z</time></trkpt>
<trkpt lat="42.188174" lon="23.373407"><ele>2031.4</ele><time>2026-03-02T06:11:12.000Z</time></trkpt>
<trkpt lat="42.188168" lon="23.373403"><ele>2031.4</ele><time>2026-03-02T06:11:13.000Z</time></trkpt>
<trkpt lat="42.188161" lon="23.373399"><ele>2031.4</ele><time>2026-03-02T06:11:14.000Z</time></trkpt>
<trkpt lat="42.188151" lon="23.373394"><ele>2031.3</ele><time>2026-03-02T06:11:15.000Z</time></trkpt>
<trkpt lat="42.188142" lon="23.37339"><ele>2031.3</ele><time>2026-03-02T06:11:16.000Z</time></trkpt>
<trkpt lat="42.188133" lon="23.373384"><ele>2031.3</ele><time>2026-03-02T06:11:17.000Z</time></trkpt>
<trkpt lat="42.188126" lon="23.37338"><ele>2031.3</ele><time>2026-03-02T06:11:18.000Z</time></trkpt>
<trkpt lat="42.18812" lon="23.373375"><ele>2031.3</ele><time>2026-03-02T06:11:19.000Z</time></trkpt>
<trkpt lat="42.188115" lon="23.373369"><ele>2030.9</ele><time>2026-03-02T06:11:20.000Z</time></trkpt>
<trkpt lat="42.188109" lon="23.373362"><ele>2030.9</ele><time>2026-03-02T06:11:21.000Z</time></trkpt>
<trkpt lat="42.188105" lon="23.373356"><ele>2030.9</ele><time>2026-03-02T06:11:22.000Z</time></trkpt>
<trkpt lat="42.1881" lon="23.373348"><ele>2030.9</ele><time>2026-03-02T06:11:23.000Z</time></trkpt>
<trkpt lat="42.188097" lon="23.373342"><ele>2030.9</ele><time>2026-03-02T06:11:24.000Z</time></trkpt>
<trkpt lat="42.188094" lon="23.373338"><ele>2030.8</ele><time>2026-03-02T06:11:25.000Z</time></trkpt>
<trkpt lat="42.188093" lon="23.373335"><ele>2030.8</ele><time>2026-03-02T06:11:26.000Z</time></trkpt>
<trkpt lat="42.188092" lon="23.373334"><ele>2030.8</ele><time>2026-03-02T06:11:27.000Z</time></trkpt>
<trkpt lat="42.18809" lon="23.373335"><ele>2030.8</ele><time>2026-03-02T06:11:28.000Z</time></trkpt>
<trkpt lat="42.18809" lon="23.373336"><ele>2030.8</ele><time>2026-03-02T06:11:29.000Z</time></trkpt>
<trkpt lat="42.188088" lon="23.373337"><ele>2031</ele><time>2026-03-02T06:11:30.000Z</time></trkpt>
<trkpt lat="42.188087" lon="23.373339"><ele>2031</ele><time>2026-03-02T06:11:31.000Z</time></trkpt>
<trkpt lat="42.188085" lon="23.373341"><ele>2031</ele><time>2026-03-02T06:11:32.000Z</time></trkpt>
<trkpt lat="42.188084" lon="23.373343"><ele>2031</ele><time>2026-03-02T06:11:33.000Z</time></trkpt>
<trkpt lat="42.188083" lon="23.373345"><ele>2031</ele><time>2026-03-02T06:11:34.000Z</time></trkpt>
<trkpt lat="42.188082" lon="23.373344"><ele>2031.3</ele><time>2026-03-02T06:11:35.000Z</time></trkpt>
<trkpt lat="42.188081" lon="23.373344"><ele>2031.3</ele><time>2026-03-02T06:11:36.000Z</time></trkpt>
<trkpt lat="42.18808" lon="23.373344"><ele>2031.3</ele><time>2026-03-02T06:11:37.000Z</time></trkpt>
<trkpt lat="42.188079" lon="23.373343"><ele>2031.3</ele><time>2026-03-02T06:11:38.000Z</time></trkpt>
<trkpt lat="42.188078" lon="23.373342"><ele>2031.3</ele><time>2026-03-02T06:11:39.000Z</time></trkpt>
<trkpt lat="42.188078" lon="23.373341"><ele>2031.4</ele><time>2026-03-02T06:11:40.000Z</time></trkpt>
<trkpt lat="42.188078" lon="23.37334"><ele>2031.4</ele><time>2026-03-02T06:11:41.000Z</time></trkpt>
<trkpt lat="42.188077" lon="23.373339"><ele>2031.4</ele><time>2026-03-02T06:11:42.000Z</time></trkpt>
<trkpt lat="42.188076" lon="23.373338"><ele>2031.4</ele><time>2026-03-02T06:11:43.000Z</time></trkpt>
<trkpt lat="42.188074" lon="23.373337"><ele>2031.4</ele><time>2026-03-02T06:11:44.000Z</time></trkpt>
<trkpt lat="42.18807" lon="23.373335"><ele>2031.5</ele><time>2026-03-02T06:11:45.000Z</time></trkpt>
<trkpt lat="42.188063" lon="23.373333"><ele>2031.5</ele><time>2026-03-02T06:11:46.000Z</time></trkpt>
<trkpt lat="42.188055" lon="23.37333"><ele>2031.5</ele><time>2026-03-02T06:11:47.000Z</time></trkpt>
<trkpt lat="42.188048" lon="23.373326"><ele>2031.5</ele><time>2026-03-02T06:11:48.000Z</time></trkpt>
<trkpt lat="42.18804" lon="23.373322"><ele>2031.5</ele><time>2026-03-02T06:11:49.000Z</time></trkpt>
<trkpt lat="42.188031" lon="23.37332"><ele>2031.6</ele><time>2026-03-02T06:11:50.000Z</time></trkpt>
<trkpt lat="42.188023" lon="23.373318"><ele>2031.6</ele><time>2026-03-02T06:11:51.000Z</time></trkpt>
<trkpt lat="42.188013" lon="23.373316"><ele>2031.6</ele><time>2026-03-02T06:11:52.000Z</time></trkpt>
<trkpt lat="42.188003" lon="23.373313"><ele>2031.6</ele><time>2026-03-02T06:11:53.000Z</time></trkpt>
<trkpt lat="42.187992" lon="23.373311"><ele>2031.6</ele><time>2026-03-02T06:11:54.000Z</time></trkpt>
<trkpt lat="42.187982" lon="23.373308"><ele>2031.7</ele><time>2026-03-02T06:11:55.000Z</time></trkpt>
<trkpt lat="42.187972" lon="23.373305"><ele>2031.7</ele><time>2026-03-02T06:11:56.000Z</time></trkpt>
<trkpt lat="42.187963" lon="23.373302"><ele>2031.7</ele><time>2026-03-02T06:11:57.000Z</time></trkpt>
<trkpt lat="42.187953" lon="23.373299"><ele>2031.7</ele><time>2026-03-02T06:11:58.000Z</time></trkpt>
<trkpt lat="42.187944" lon="23.373295"><ele>2031.7</ele><time>2026-03-02T06:11:59.000Z</time></trkpt>
<trkpt lat="42.187936" lon="23.373292"><ele>2031.9</ele><time>2026-03-02T06:12:00.000Z</time></trkpt>
<trkpt lat="42.187927" lon="23.373288"><ele>2031.9</ele><time>2026-03-02T06:12:01.000Z</time></trkpt>
<trkpt lat="42.187918" lon="23.373283"><ele>2031.9</ele><time>2026-03-02T06:12:02.000Z</time></trkpt>
<trkpt lat="42.187909" lon="23.373279"><ele>2031.9</ele><time>2026-03-02T06:12:03.000Z</time></trkpt>
<trkpt lat="42.1879" lon="23.373275"><ele>2031.9</ele><time>2026-03-02T06:12:04.000Z</time></trkpt>
<trkpt lat="42.187891" lon="23.373271"><ele>2032</ele><time>2026-03-02T06:12:05.000Z</time></trkpt>
<trkpt lat="42.187882" lon="23.373268"><ele>2032</ele><time>2026-03-02T06:12:06.000Z</time></trkpt>
<trkpt lat="42.187874" lon="23.373266"><ele>2032</ele><time>2026-03-02T06:12:07.000Z</time></trkpt>
<trkpt lat="42.187866" lon="23.373263"><ele>2032</ele><time>2026-03-02T06:12:08.000Z</time></trkpt>
<trkpt lat="42.187858" lon="23.37326"><ele>2032</ele><time>2026-03-02T06:12:09.000Z</time></trkpt>
<trkpt lat="42.187849" lon="23.373257"><ele>2032.1</ele><time>2026-03-02T06:12:10.000Z</time></trkpt>
<trkpt lat="42.18784" lon="23.373253"><ele>2032.1</ele><time>2026-03-02T06:12:11.000Z</time></trkpt>
<trkpt lat="42.187832" lon="23.373249"><ele>2032.1</ele><time>2026-03-02T06:12:12.000Z</time></trkpt>
<trkpt lat="42.187823" lon="23.373247"><ele>2032.1</ele><time>2026-03-02T06:12:13.000Z</time></trkpt>
<trkpt lat="42.187815" lon="23.373244"><ele>2032.1</ele><time>2026-03-02T06:12:14.000Z</time></trkpt>
<trkpt lat="42.187807" lon="23.37324"><ele>2032.5</ele><time>2026-03-02T06:12:15.000Z</time></trkpt>
<trkpt lat="42.1878" lon="23.373237"><ele>2032.5</ele><time>2026-03-02T06:12:16.000Z</time></trkpt>
<trkpt lat="42.187794" lon="23.373233"><ele>2032.5</ele><time>2026-03-02T06:12:17.000Z</time></trkpt>
<trkpt lat="42.187788" lon="23.373228"><ele>2032.5</ele><time>2026-03-02T06:12:18.000Z</time></trkpt>
<trkpt lat="42.187783" lon="23.373224"><ele>2032.5</ele><time>2026-03-02T06:12:19.000Z</time></trkpt>
<trkpt lat="42.187779" lon="23.373219"><ele>2033.3</ele><time>2026-03-02T06:12:20.000Z</time></trkpt>
<trkpt lat="42.187775" lon="23.373215"><ele>2033.3</ele><time>2026-03-02T06:12:21.000Z</time></trkpt>
<trkpt lat="42.187769" lon="23.373211"><ele>2033.3</ele><time>2026-03-02T06:12:22.000Z</time></trkpt>
<trkpt lat="42.187764" lon="23.373206"><ele>2033.3</ele><time>2026-03-02T06:12:23.000Z</time></trkpt>
<trkpt lat="42.187759" lon="23.3732"><ele>2033.3</ele><time>2026-03-02T06:12:24.000Z</time></trkpt>
<trkpt lat="42.187754" lon="23.373195"><ele>2033.9</ele><time>2026-03-02T06:12:25.000Z</time></trkpt>
<trkpt lat="42.187749" lon="23.37319"><ele>2033.9</ele><time>2026-03-02T06:12:26.000Z</time></trkpt>
<trkpt lat="42.187745" lon="23.373186"><ele>2033.9</ele><time>2026-03-02T06:12:27.000Z</time></trkpt>
<trkpt lat="42.187741" lon="23.373183"><ele>2033.9</ele><time>2026-03-02T06:12:28.000Z</time></trkpt>
<trkpt lat="42.187737" lon="23.37318"><ele>2033.9</ele><time>2026-03-02T06:12:29.000Z</time></trkpt>
<trkpt lat="42.187733" lon="23.373176"><ele>2035.3</ele><time>2026-03-02T06:12:30.000Z</time></trkpt>
<trkpt lat="42.187731" lon="23.373171"><ele>2035.3</ele><time>2026-03-02T06:12:31.000Z</time></trkpt>
<trkpt lat="42.187728" lon="23.373167"><ele>2035.3</ele><time>2026-03-02T06:12:32.000Z</time></trkpt>
<trkpt lat="42.187726" lon="23.373165"><ele>2035.3</ele><time>2026-03-02T06:12:33.000Z</time></trkpt>
<trkpt lat="42.187725" lon="23.373165"><ele>2035.3</ele><time>2026-03-02T06:12:34.000Z</time></trkpt>
<trkpt lat="42.187725" lon="23.373166"><ele>2036.6</ele><time>2026-03-02T06:12:35.000Z</time></trkpt>
<trkpt lat="42.187725" lon="23.373169"><ele>2036.6</ele><time>2026-03-02T06:12:36.000Z</time></trkpt>
<trkpt lat="42.187724" lon="23.373171"><ele>2036.6</ele><time>2026-03-02T06:12:37.000Z</time></trkpt>
<trkpt lat="42.187722" lon="23.373172"><ele>2036.6</ele><time>2026-03-02T06:12:38.000Z</time></trkpt>
<trkpt lat="42.187718" lon="23.373172"><ele>2036.6</ele><time>2026-03-02T06:12:39.000Z</time></trkpt>
<trkpt lat="42.187711" lon="23.373171"><ele>2037.3</ele><time>2026-03-02T06:12:40.000Z</time></trkpt>
<trkpt lat="42.187702" lon="23.373169"><ele>2037.3</ele><time>2026-03-02T06:12:41.000Z</time></trkpt>
<trkpt lat="42.187694" lon="23.373165"><ele>2037.3</ele><time>2026-03-02T06:12:42.000Z</time></trkpt>
<trkpt lat="42.187686" lon="23.37316"><ele>2037.3</ele><time>2026-03-02T06:12:43.000Z</time></trkpt>
<trkpt lat="42.187679" lon="23.373155"><ele>2037.3</ele><time>2026-03-02T06:12:44.000Z</time></trkpt>
<trkpt lat="42.187673" lon="23.37315"><ele>2038.6</ele><time>2026-03-02T06:12:45.000Z</time></trkpt>
<trkpt lat="42.187667" lon="23.373145"><ele>2038.6</ele><time>2026-03-02T06:12:46.000Z</time></trkpt>
<trkpt lat="42.187661" lon="23.37314"><ele>2038.6</ele><time>2026-03-02T06:12:47.000Z</time></trkpt>
<trkpt lat="42.187655" lon="23.373137"><ele>2038.6</ele><time>2026-03-02T06:12:48.000Z</time></trkpt>
<trkpt lat="42.18765" lon="23.373135"><ele>2038.6</ele><time>2026-03-02T06:12:49.000Z</time></trkpt>
<trkpt lat="42.187644" lon="23.373133"><ele>2039.6</ele><time>2026-03-02T06:12:50.000Z</time></trkpt>
<trkpt lat="42.187638" lon="23.373131"><ele>2039.6</ele><time>2026-03-02T06:12:51.000Z</time></trkpt>
<trkpt lat="42.187632" lon="23.37313"><ele>2039.6</ele><time>2026-03-02T06:12:52.000Z</time></trkpt>
<trkpt lat="42.187625" lon="23.373128"><ele>2039.6</ele><time>2026-03-02T06:12:53.000Z</time></trkpt>
<trkpt lat="42.187619" lon="23.373125"><ele>2039.6</ele><time>2026-03-02T06:12:54.000Z</time></trkpt>
<trkpt lat="42.187612" lon="23.373122"><ele>2040.1</ele><time>2026-03-02T06:12:55.000Z</time></trkpt>
<trkpt lat="42.187607" lon="23.373117"><ele>2040.1</ele><time>2026-03-02T06:12:56.000Z</time></trkpt>
<trkpt lat="42.187601" lon="23.373114"><ele>2040.1</ele><time>2026-03-02T06:12:57.000Z</time></trkpt>
<trkpt lat="42.187594" lon="23.373109"><ele>2040.1</ele><time>2026-03-02T06:12:58.000Z</time></trkpt>
<trkpt lat="42.187587" lon="23.373105"><ele>2040.1</ele><time>2026-03-02T06:12:59.000Z</time></trkpt>
<trkpt lat="42.18758" lon="23.3731"><ele>2041.2</ele><time>2026-03-02T06:13:00.000Z</time></trkpt>
<trkpt lat="42.187574" lon="23.373095"><ele>2041.2</ele><time>2026-03-02T06:13:01.000Z</time></trkpt>
<trkpt lat="42.187567" lon="23.373089"><ele>2041.2</ele><time>2026-03-02T06:13:02.000Z</time></trkpt>
<trkpt lat="42.187562" lon="23.373083"><ele>2041.2</ele><time>2026-03-02T06:13:03.000Z</time></trkpt>
<trkpt lat="42.187557" lon="23.373077"><ele>2041.2</ele><time>2026-03-02T06:13:04.000Z</time></trkpt>
<trkpt lat="42.187551" lon="23.373071"><ele>2042.5</ele><time>2026-03-02T06:13:05.000Z</time></trkpt>
<trkpt lat="42.187546" lon="23.373065"><ele>2042.5</ele><time>2026-03-02T06:13:06.000Z</time></trkpt>
<trkpt lat="42.187542" lon="23.37306"><ele>2042.5</ele><time>2026-03-02T06:13:07.000Z</time></trkpt>
<trkpt lat="42.187536" lon="23.373053"><ele>2042.5</ele><time>2026-03-02T06:13:08.000Z</time></trkpt>
<trkpt lat="42.187531" lon="23.373047"><ele>2042.5</ele><time>2026-03-02T06:13:09.000Z</time></trkpt>
<trkpt lat="42.187527" lon="23.37304"><ele>2043.2</ele><time>2026-03-02T06:13:10.000Z</time></trkpt>
<trkpt lat="42.187523" lon="23.373033"><ele>2043.2</ele><time>2026-03-02T06:13:11.000Z</time></trkpt>
<trkpt lat="42.187521" lon="23.373028"><ele>2043.2</ele><time>2026-03-02T06:13:12.000Z</time></trkpt>
<trkpt lat="42.18752" lon="23.373024"><ele>2043.2</ele><time>2026-03-02T06:13:13.000Z</time></trkpt>
<trkpt lat="42.18752" lon="23.373022"><ele>2043.2</ele><time>2026-03-02T06:13:14.000Z</time></trkpt>
<trkpt lat="42.187519" lon="23.373023"><ele>2044.6</ele><time>2026-03-02T06:13:15.000Z</time></trkpt>
<trkpt lat="42.187517" lon="23.373024"><ele>2044.6</ele><time>2026-03-02T06:13:16.000Z</time></trkpt>
<trkpt lat="42.187513" lon="23.373024"><ele>2044.6</ele><time>2026-03-02T06:13:17.000Z</time></trkpt>
<trkpt lat="42.187508" lon="23.373021"><ele>2044.6</ele><time>2026-03-02T06:13:18.000Z</time></trkpt>
<trkpt lat="42.187503" lon="23.373016"><ele>2044.6</ele><time>2026-03-02T06:13:19.000Z</time></trkpt>
<trkpt lat="42.187497" lon="23.373009"><ele>2045.9</ele><time>2026-03-02T06:13:20.000Z</time></trkpt>
<trkpt lat="42.187493" lon="23.373"><ele>2045.9</ele><time>2026-03-02T06:13:21.000Z</time></trkpt>
<trkpt lat="42.187489" lon="23.372992"><ele>2045.9</ele><time>2026-03-02T06:13:22.000Z</time></trkpt>
<trkpt lat="42.187485" lon="23.372984"><ele>2045.9</ele><time>2026-03-02T06:13:23.000Z</time></trkpt>
<trkpt lat="42.187481" lon="23.372977"><ele>2045.9</ele><time>2026-03-02T06:13:24.000Z</time></trkpt>
<trkpt lat="42.187477" lon="23.37297"><ele>2046.4</ele><time>2026-03-02T06:13:25.000Z</time></trkpt>
<trkpt lat="42.187473" lon="23.372962"><ele>2046.4</ele><time>2026-03-02T06:13:26.000Z</time></trkpt>
<trkpt lat="42.187469" lon="23.372954"><ele>2046.4</ele><time>2026-03-02T06:13:27.000Z</time></trkpt>
<trkpt lat="42.187464" lon="23.372947"><ele>2046.4</ele><time>2026-03-02T06:13:28.000Z</time></trkpt>
<trkpt lat="42.187459" lon="23.372939"><ele>2046.4</ele><time>2026-03-02T06:13:29.000Z</time></trkpt>
<trkpt lat="42.187454" lon="23.37293"><ele>2047.4</ele><time>2026-03-02T06:13:30.000Z</time></trkpt>
<trkpt lat="42.18745" lon="23.372925"><ele>2047.4</ele><time>2026-03-02T06:13:31.000Z</time></trkpt>
<trkpt lat="42.187445" lon="23.372918"><ele>2047.4</ele><time>2026-03-02T06:13:32.000Z</time></trkpt>
<trkpt lat="42.18744" lon="23.372912"><ele>2047.4</ele><time>2026-03-02T06:13:33.000Z</time></trkpt>
<trkpt lat="42.187436" lon="23.372907"><ele>2047.4</ele><time>2026-03-02T06:13:34.000Z</time></trkpt>
<trkpt lat="42.187433" lon="23.372902"><ele>2048.4</ele><time>2026-03-02T06:13:35.000Z</time></trkpt>
<trkpt lat="42.187428" lon="23.372896"><ele>2048.4</ele><time>2026-03-02T06:13:36.000Z</time></trkpt>
<trkpt lat="42.187424" lon="23.372891"><ele>2048.4</ele><time>2026-03-02T06:13:37.000Z</time></trkpt>
<trkpt lat="42.187419" lon="23.372885"><ele>2048.4</ele><time>2026-03-02T06:13:38.000Z</time></trkpt>
<trkpt lat="42.187412" lon="23.372879"><ele>2048.4</ele><time>2026-03-02T06:13:39.000Z</time></trkpt>
<trkpt lat="42.187406" lon="23.372876"><ele>2048.9</ele><time>2026-03-02T06:13:40.000Z</time></trkpt>
<trkpt lat="42.187399" lon="23.372871"><ele>2048.9</ele><time>2026-03-02T06:13:41.000Z</time></trkpt>
<trkpt lat="42.187392" lon="23.372867"><ele>2048.9</ele><time>2026-03-02T06:13:42.000Z</time></trkpt>
<trkpt lat="42.187386" lon="23.372862"><ele>2048.9</ele><time>2026-03-02T06:13:43.000Z</time></trkpt>
<trkpt lat="42.187381" lon="23.372857"><ele>2048.9</ele><time>2026-03-02T06:13:44.000Z</time></trkpt>
<trkpt lat="42.187375" lon="23.37285"><ele>2050.1</ele><time>2026-03-02T06:13:45.000Z</time></trkpt>
<trkpt lat="42.18737" lon="23.372843"><ele>2050.1</ele><time>2026-03-02T06:13:46.000Z</time></trkpt>
<trkpt lat="42.187365" lon="23.372836"><ele>2050.1</ele><time>2026-03-02T06:13:47.000Z</time></trkpt>
<trkpt lat="42.187358" lon="23.372829"><ele>2050.1</ele><time>2026-03-02T06:13:48.000Z</time></trkpt>
<trkpt lat="42.187351" lon="23.372821"><ele>2050.1</ele><time>2026-03-02T06:13:49.000Z</time></trkpt>
<trkpt lat="42.187344" lon="23.372815"><ele>2051.4</ele><time>2026-03-02T06:13:50.000Z</time></trkpt>
<trkpt lat="42.187337" lon="23.372808"><ele>2051.4</ele><time>2026-03-02T06:13:51.000Z</time></trkpt>
<trkpt lat="42.18733" lon="23.3728"><ele>2051.4</ele><time>2026-03-02T06:13:52.000Z</time></trkpt>
<trkpt lat="42.187323" lon="23.372795"><ele>2051.4</ele><time>2026-03-02T06:13:53.000Z</time></trkpt>
<trkpt lat="42.187318" lon="23.37279"><ele>2051.4</ele><time>2026-03-02T06:13:54.000Z</time></trkpt>
<trkpt lat="42.187314" lon="23.372785"><ele>2052</ele><time>2026-03-02T06:13:55.000Z</time></trkpt>
<trkpt lat="42.187311" lon="23.372782"><ele>2052</ele><time>2026-03-02T06:13:56.000Z</time></trkpt>
<trkpt lat="42.18731" lon="23.372782"><ele>2052</ele><time>2026-03-02T06:13:57.000Z</time></trkpt>
<trkpt lat="42.18731" lon="23.372781"><ele>2052</ele><time>2026-03-02T06:13:58.000Z</time></trkpt>
<trkpt lat="42.18731" lon="23.372782"><ele>2052</ele><time>2026-03-02T06:13:59.000Z</time></trkpt>
<trkpt lat="42.187308" lon="23.372785"><ele>2053.2</ele><time>2026-03-02T06:14:00.000Z</time></trkpt>
<trkpt lat="42.187306" lon="23.372787"><ele>2053.2</ele><time>2026-03-02T06:14:01.000Z</time></trkpt>
<trkpt lat="42.187302" lon="23.372786"><ele>2053.2</ele><time>2026-03-02T06:14:02.000Z</time></trkpt>
<trkpt lat="42.187295" lon="23.372783"><ele>2053.2</ele><time>2026-03-02T06:14:03.000Z</time></trkpt>
<trkpt lat="42.187286" lon="23.37278"><ele>2053.2</ele><time>2026-03-02T06:14:04.000Z</time></trkpt>
<trkpt lat="42.187276" lon="23.372776"><ele>2054.1</ele><time>2026-03-02T06:14:05.000Z</time></trkpt>
<trkpt lat="42.187265" lon="23.372772"><ele>2054.1</ele><time>2026-03-02T06:14:06.000Z</time></trkpt>
<trkpt lat="42.187254" lon="23.37277"><ele>2054.1</ele><time>2026-03-02T06:14:07.000Z</time></trkpt>
<trkpt lat="42.187246" lon="23.372768"><ele>2054.1</ele><time>2026-03-02T06:14:08.000Z</time></trkpt>
<trkpt lat="42.187237" lon="23.372765"><ele>2054.1</ele><time>2026-03-02T06:14:09.000Z</time></trkpt>
<trkpt lat="42.187229" lon="23.372762"><ele>2054.5</ele><time>2026-03-02T06:14:10.000Z</time></trkpt>
<trkpt lat="42.187222" lon="23.372757"><ele>2054.5</ele><time>2026-03-02T06:14:11.000Z</time></trkpt>
<trkpt lat="42.187214" lon="23.372752"><ele>2054.5</ele><time>2026-03-02T06:14:12.000Z</time></trkpt>
<trkpt lat="42.187207" lon="23.372746"><ele>2054.5</ele><time>2026-03-02T06:14:13.000Z</time></trkpt>
<trkpt lat="42.187202" lon="23.372739"><ele>2054.5</ele><time>2026-03-02T06:14:14.000Z</time></trkpt>
<trkpt lat="42.187196" lon="23.372732"><ele>2054.9</ele><time>2026-03-02T06:14:15.000Z</time></trkpt>
<trkpt lat="42.187192" lon="23.372724"><ele>2054.9</ele><time>2026-03-02T06:14:16.000Z</time></trkpt>
<trkpt lat="42.187188" lon="23.372718"><ele>2054.9</ele><time>2026-03-02T06:14:17.000Z</time></trkpt>
<trkpt lat="42.187183" lon="23.37271"><ele>2054.9</ele><time>2026-03-02T06:14:18.000Z</time></trkpt>
<trkpt lat="42.187178" lon="23.372703"><ele>2054.9</ele><time>2026-03-02T06:14:19.000Z</time></trkpt>
<trkpt lat="42.187172" lon="23.372697"><ele>2055.4</ele><time>2026-03-02T06:14:20.000Z</time></trkpt>
<trkpt lat="42.187166" lon="23.372691"><ele>2055.4</ele><time>2026-03-02T06:14:21.000Z</time></trkpt>
<trkpt lat="42.187157" lon="23.372685"><ele>2055.4</ele><time>2026-03-02T06:14:22.000Z</time></trkpt>
<trkpt lat="42.187149" lon="23.37268"><ele>2055.4</ele><time>2026-03-02T06:14:23.000Z</time></trkpt>
<trkpt lat="42.187141" lon="23.372674"><ele>2055.4</ele><time>2026-03-02T06:14:24.000Z</time></trkpt>
<trkpt lat="42.187133" lon="23.372669"><ele>2055.9</ele><time>2026-03-02T06:14:25.000Z</time></trkpt>
<trkpt lat="42.187124" lon="23.372662"><ele>2055.9</ele><time>2026-03-02T06:14:26.000Z</time></trkpt>
<trkpt lat="42.187117" lon="23.372656"><ele>2055.9</ele><time>2026-03-02T06:14:27.000Z</time></trkpt>
<trkpt lat="42.18711" lon="23.37265"><ele>2055.9</ele><time>2026-03-02T06:14:28.000Z</time></trkpt>
<trkpt lat="42.187103" lon="23.372644"><ele>2055.9</ele><time>2026-03-02T06:14:29.000Z</time></trkpt>
<trkpt lat="42.187095" lon="23.372637"><ele>2057.2</ele><time>2026-03-02T06:14:30.000Z</time></trkpt>
<trkpt lat="42.187087" lon="23.372631"><ele>2057.2</ele><time>2026-03-02T06:14:31.000Z</time></trkpt>
<trkpt lat="42.187079" lon="23.372624"><ele>2057.2</ele><time>2026-03-02T06:14:32.000Z</time></trkpt>
<trkpt lat="42.18707" lon="23.372616"><ele>2057.2</ele><time>2026-03-02T06:14:33.000Z</time></trkpt>
<trkpt lat="42.187061" lon="23.372609"><ele>2057.2</ele><time>2026-03-02T06:14:34.000Z</time></trkpt>
<trkpt lat="42.187053" lon="23.372602"><ele>2058.2</ele><time>2026-03-02T06:14:35.000Z</time></trkpt>
<trkpt lat="42.187044" lon="23.372596"><ele>2058.2</ele><time>2026-03-02T06:14:36.000Z</time></trkpt>
<trkpt lat="42.187035" lon="23.372591"><ele>2058.2</ele><time>2026-03-02T06:14:37.000Z</time></trkpt>
<trkpt lat="42.187025" lon="23.372586"><ele>2058.2</ele><time>2026-03-02T06:14:38.000Z</time></trkpt>
<trkpt lat="42.187016" lon="23.372581"><ele>2058.2</ele><time>2026-03-02T06:14:39.000Z</time></trkpt>
<trkpt lat="42.187006" lon="23.372577"><ele>2058.5</ele><time>2026-03-02T06:14:40.000Z</time></trkpt>
<trkpt lat="42.186997" lon="23.372572"><ele>2058.5</ele><time>2026-03-02T06:14:41.000Z</time></trkpt>
<trkpt lat="42.186988" lon="23.372567"><ele>2058.5</ele><time>2026-03-02T06:14:42.000Z</time></trkpt>
<trkpt lat="42.186979" lon="23.372561"><ele>2058.5</ele><time>2026-03-02T06:14:43.000Z</time></trkpt>
<trkpt lat="42.186969" lon="23.372554"><ele>2058.5</ele><time>2026-03-02T06:14:44.000Z</time></trkpt>
<trkpt lat="42.18696" lon="23.372547"><ele>2059</ele><time>2026-03-02T06:14:45.000Z</time></trkpt>
<trkpt lat="42.186951" lon="23.37254"><ele>2059</ele><time>2026-03-02T06:14:46.000Z</time></trkpt>
<trkpt lat="42.186942" lon="23.372533"><ele>2059</ele><time>2026-03-02T06:14:47.000Z</time></trkpt>
<trkpt lat="42.186932" lon="23.372527"><ele>2059</ele><time>2026-03-02T06:14:48.000Z</time></trkpt>
<trkpt lat="42.186923" lon="23.372522"><ele>2059</ele><time>2026-03-02T06:14:49.000Z</time></trkpt>
<trkpt lat="42.186915" lon="23.372518"><ele>2059.8</ele><time>2026-03-02T06:14:50.000Z</time></trkpt>
<trkpt lat="42.186905" lon="23.372512"><ele>2059.8</ele><time>2026-03-02T06:14:51.000Z</time></trkpt>
<trkpt lat="42.186895" lon="23.372506"><ele>2059.8</ele><time>2026-03-02T06:14:52.000Z</time></trkpt>
<trkpt lat="42.186886" lon="23.372501"><ele>2059.8</ele><time>2026-03-02T06:14:53.000Z</time></trkpt>
<trkpt lat="42.186876" lon="23.372494"><ele>2059.8</ele><time>2026-03-02T06:14:54.000Z</time></trkpt>
<trkpt lat="42.186867" lon="23.372487"><ele>2060.3</ele><time>2026-03-02T06:14:55.000Z</time></trkpt>
<trkpt lat="42.186859" lon="23.372482"><ele>2060.3</ele><time>2026-03-02T06:14:56.000Z</time></trkpt>
<trkpt lat="42.186852" lon="23.372478"><ele>2060.3</ele><time>2026-03-02T06:14:57.000Z</time></trkpt>
<trkpt lat="42.186844" lon="23.372473"><ele>2060.3</ele><time>2026-03-02T06:14:58.000Z</time></trkpt>
<trkpt lat="42.186836" lon="23.372469"><ele>2060.3</ele><time>2026-03-02T06:14:59.000Z</time></trkpt>
<trkpt lat="42.186827" lon="23.372466"><ele>2061.6</ele><time>2026-03-02T06:15:00.000Z</time></trkpt>
<trkpt lat="42.186817" lon="23.372462"><ele>2061.6</ele><time>2026-03-02T06:15:01.000Z</time></trkpt>
<trkpt lat="42.186807" lon="23.372457"><ele>2061.6</ele><time>2026-03-02T06:15:02.000Z</time></trkpt>
<trkpt lat="42.186796" lon="23.372452"><ele>2061.6</ele><time>2026-03-02T06:15:03.000Z</time></trkpt>
<trkpt lat="42.186785" lon="23.372447"><ele>2061.6</ele><time>2026-03-02T06:15:04.000Z</time></trkpt>
<trkpt lat="42.186774" lon="23.372442"><ele>2062.8</ele><time>2026-03-02T06:15:05.000Z</time></trkpt>
<trkpt lat="42.186763" lon="23.372436"><ele>2062.8</ele><time>2026-03-02T06:15:06.000Z</time></trkpt>
<trkpt lat="42.186753" lon="23.37243"><ele>2062.8</ele><time>2026-03-02T06:15:07.000Z</time></trkpt>
<trkpt lat="42.186743" lon="23.372425"><ele>2062.8</ele><time>2026-03-02T06:15:08.000Z</time></trkpt>
<trkpt lat="42.186733" lon="23.37242"><ele>2062.8</ele><time>2026-03-02T06:15:09.000Z</time></trkpt>
<trkpt lat="42.186724" lon="23.372414"><ele>2063.3</ele><time>2026-03-02T06:15:10.000Z</time></trkpt>
<trkpt lat="42.186717" lon="23.37241"><ele>2063.3</ele><time>2026-03-02T06:15:11.000Z</time></trkpt>
<trkpt lat="42.186712" lon="23.372408"><ele>2063.3</ele><time>2026-03-02T06:15:12.000Z</time></trkpt>
<trkpt lat="42.186709" lon="23.372407"><ele>2063.3</ele><time>2026-03-02T06:15:13.000Z</time></trkpt>
<trkpt lat="42.186709" lon="23.372406"><ele>2063.3</ele><time>2026-03-02T06:15:14.000Z</time></trkpt>
<trkpt lat="42.186709" lon="23.372404"><ele>2064.2</ele><time>2026-03-02T06:15:15.000Z</time></trkpt>
<trkpt lat="42.186708" lon="23.372401"><ele>2064.2</ele><time>2026-03-02T06:15:16.000Z</time></trkpt>
<trkpt lat="42.186704" lon="23.372396"><ele>2064.2</ele><time>2026-03-02T06:15:17.000Z</time></trkpt>
<trkpt lat="42.186698" lon="23.372391"><ele>2064.2</ele><time>2026-03-02T06:15:18.000Z</time></trkpt>
<trkpt lat="42.18669" lon="23.372386"><ele>2064.2</ele><time>2026-03-02T06:15:19.000Z</time></trkpt>
<trkpt lat="42.18668" lon="23.372381"><ele>2064.7</ele><time>2026-03-02T06:15:20.000Z</time></trkpt>
<trkpt lat="42.18667" lon="23.372375"><ele>2064.7</ele><time>2026-03-02T06:15:21.000Z</time></trkpt>
<trkpt lat="42.186659" lon="23.37237"><ele>2064.7</ele><time>2026-03-02T06:15:22.000Z</time></trkpt>
<trkpt lat="42.186647" lon="23.372364"><ele>2064.7</ele><time>2026-03-02T06:15:23.000Z</time></trkpt>
<trkpt lat="42.186636" lon="23.372358"><ele>2064.7</ele><time>2026-03-02T06:15:24.000Z</time></trkpt>
<trkpt lat="42.186624" lon="23.372354"><ele>2064.8</ele><time>2026-03-02T06:15:25.000Z</time></trkpt>
<trkpt lat="42.186614" lon="23.372351"><ele>2064.8</ele><time>2026-03-02T06:15:26.000Z</time></trkpt>
<trkpt lat="42.186604" lon="23.372348"><ele>2064.8</ele><time>2026-03-02T06:15:27.000Z</time></trkpt>
<trkpt lat="42.186594" lon="23.372346"><ele>2064.8</ele><time>2026-03-02T06:15:28.000Z</time></trkpt>
<trkpt lat="42.186584" lon="23.372344"><ele>2064.8</ele><time>2026-03-02T06:15:29.000Z</time></trkpt>
<trkpt lat="42.186574" lon="23.372342"><ele>2065</ele><time>2026-03-02T06:15:30.000Z</time></trkpt>
<trkpt lat="42.186564" lon="23.372339"><ele>2065</ele><time>2026-03-02T06:15:31.000Z</time></trkpt>
<trkpt lat="42.186555" lon="23.372338"><ele>2065</ele><time>2026-03-02T06:15:32.000Z</time></trkpt>
<trkpt lat="42.186545" lon="23.372336"><ele>2065</ele><time>2026-03-02T06:15:33.000Z</time></trkpt>
<trkpt lat="42.186535" lon="23.372332"><ele>2065</ele><time>2026-03-02T06:15:34.000Z</time></trkpt>
<trkpt lat="42.186526" lon="23.372329"><ele>2065.3</ele><time>2026-03-02T06:15:35.000Z</time></trkpt>
<trkpt lat="42.186518" lon="23.372326"><ele>2065.3</ele><time>2026-03-02T06:15:36.000Z</time></trkpt>
<trkpt lat="42.186509" lon="23.372323"><ele>2065.3</ele><time>2026-03-02T06:15:37.000Z</time></trkpt>
<trkpt lat="42.1865" lon="23.37232"><ele>2065.3</ele><time>2026-03-02T06:15:38.000Z</time></trkpt>
<trkpt lat="42.186491" lon="23.372317"><ele>2065.3</ele><time>2026-03-02T06:15:39.000Z</time></trkpt>
<trkpt lat="42.186481" lon="23.372312"><ele>2065.5</ele><time>2026-03-02T06:15:40.000Z</time></trkpt>
<trkpt lat="42.186471" lon="23.372309"><ele>2065.5</ele><time>2026-03-02T06:15:41.000Z</time></trkpt>
<trkpt lat="42.186461" lon="23.372306"><ele>2065.5</ele><time>2026-03-02T06:15:42.000Z</time></trkpt>
<trkpt lat="42.186451" lon="23.372303"><ele>2065.5</ele><time>2026-03-02T06:15:43.000Z</time></trkpt>
<trkpt lat="42.186441" lon="23.372302"><ele>2065.5</ele><time>2026-03-02T06:15:44.000Z</time></trkpt>
<trkpt lat="42.186432" lon="23.372301"><ele>2066.1</ele><time>2026-03-02T06:15:45.000Z</time></trkpt>
<trkpt lat="42.186422" lon="23.372301"><ele>2066.1</ele><time>2026-03-02T06:15:46.000Z</time></trkpt>
<trkpt lat="42.186412" lon="23.3723"><ele>2066.1</ele><time>2026-03-02T06:15:47.000Z</time></trkpt>
<trkpt lat="42.186402" lon="23.3723"><ele>2066.1</ele><time>2026-03-02T06:15:48.000Z</time></trkpt>
<trkpt lat="42.186393" lon="23.372299"><ele>2066.1</ele><time>2026-03-02T06:15:49.000Z</time></trkpt>
<trkpt lat="42.186384" lon="23.372298"><ele>2066.7</ele><time>2026-03-02T06:15:50.000Z</time></trkpt>
<trkpt lat="42.186374" lon="23.372296"><ele>2066.7</ele><time>2026-03-02T06:15:51.000Z</time></trkpt>
<trkpt lat="42.186365" lon="23.372296"><ele>2066.7</ele><time>2026-03-02T06:15:52.000Z</time></trkpt>
<trkpt lat="42.186356" lon="23.372295"><ele>2066.7</ele><time>2026-03-02T06:15:53.000Z</time></trkpt>
<trkpt lat="42.186346" lon="23.372295"><ele>2066.7</ele><time>2026-03-02T06:15:54.000Z</time></trkpt>
<trkpt lat="42.186336" lon="23.372294"><ele>2067.1</ele><time>2026-03-02T06:15:55.000Z</time></trkpt>
<trkpt lat="42.186326" lon="23.372296"><ele>2067.1</ele><time>2026-03-02T06:15:56.000Z</time></trkpt>
<trkpt lat="42.186316" lon="23.372297"><ele>2067.1</ele><time>2026-03-02T06:15:57.000Z</time></trkpt>
<trkpt lat="42.186306" lon="23.372298"><ele>2067.1</ele><time>2026-03-02T06:15:58.000Z</time></trkpt>
<trkpt lat="42.186297" lon="23.3723"><ele>2067.1</ele><time>2026-03-02T06:15:59.000Z</time></trkpt>
<trkpt lat="42.186287" lon="23.372302"><ele>2067.9</ele><time>2026-03-02T06:16:00.000Z</time></trkpt>
<trkpt lat="42.186277" lon="23.372303"><ele>2067.9</ele><time>2026-03-02T06:16:01.000Z</time></trkpt>
<trkpt lat="42.186267" lon="23.372304"><ele>2067.9</ele><time>2026-03-02T06:16:02.000Z</time></trkpt>
<trkpt lat="42.186258" lon="23.372305"><ele>2067.9</ele><time>2026-03-02T06:16:03.000Z</time></trkpt>
<trkpt lat="42.186248" lon="23.372305"><ele>2067.9</ele><time>2026-03-02T06:16:04.000Z</time></trkpt>
<trkpt lat="42.18624" lon="23.372305"><ele>2069</ele><time>2026-03-02T06:16:05.000Z</time></trkpt>
<trkpt lat="42.186231" lon="23.372305"><ele>2069</ele><time>2026-03-02T06:16:06.000Z</time></trkpt>
<trkpt lat="42.186223" lon="23.372305"><ele>2069</ele><time>2026-03-02T06:16:07.000Z</time></trkpt>
<trkpt lat="42.186214" lon="23.372305"><ele>2069</ele><time>2026-03-02T06:16:08.000Z</time></trkpt>
<trkpt lat="42.186206" lon="23.372305"><ele>2069</ele><time>2026-03-02T06:16:09.000Z</time></trkpt>
<trkpt lat="42.186197" lon="23.372305"><ele>2069.6</ele><time>2026-03-02T06:16:10.000Z</time></trkpt>
<trkpt lat="42.186189" lon="23.372305"><ele>2069.6</ele><time>2026-03-02T06:16:11.000Z</time></trkpt>
<trkpt lat="42.186181" lon="23.372306"><ele>2069.6</ele><time>2026-03-02T06:16:12.000Z</time></trkpt>
<trkpt lat="42.186172" lon="23.372306"><ele>2069.6</ele><time>2026-03-02T06:16:13.000Z</time></trkpt>
<trkpt lat="42.186165" lon="23.372306"><ele>2069.6</ele><time>2026-03-02T06:16:14.000Z</time></trkpt>
<trkpt lat="42.186158" lon="23.372306"><ele>2070.7</ele><time>2026-03-02T06:16:15.000Z</time></trkpt>
<trkpt lat="42.186151" lon="23.372305"><ele>2070.7</ele><time>2026-03-02T06:16:16.000Z</time></trkpt>
<trkpt lat="42.186143" lon="23.372304"><ele>2070.7</ele><time>2026-03-02T06:16:17.000Z</time></trkpt>
<trkpt lat="42.186135" lon="23.372304"><ele>2070.7</ele><time>2026-03-02T06:16:18.000Z</time></trkpt>
<trkpt lat="42.186127" lon="23.372305"><ele>2070.7</ele><time>2026-03-02T06:16:19.000Z</time></trkpt>
<trkpt lat="42.186118" lon="23.372306"><ele>2071.6</ele><time>2026-03-02T06:16:20.000Z</time></trkpt>
<trkpt lat="42.186109" lon="23.372308"><ele>2071.6</ele><time>2026-03-02T06:16:21.000Z</time></trkpt>
<trkpt lat="42.186102" lon="23.372309"><ele>2071.6</ele><time>2026-03-02T06:16:22.000Z</time></trkpt>
<trkpt lat="42.186094" lon="23.37231"><ele>2071.6</ele><time>2026-03-02T06:16:23.000Z</time></trkpt>
<trkpt lat="42.186086" lon="23.372311"><ele>2071.6</ele><time>2026-03-02T06:16:24.000Z</time></trkpt>
<trkpt lat="42.186079" lon="23.372311"><ele>2071.9</ele><time>2026-03-02T06:16:25.000Z</time></trkpt>
<trkpt lat="42.186073" lon="23.372312"><ele>2071.9</ele><time>2026-03-02T06:16:26.000Z</time></trkpt>
<trkpt lat="42.186065" lon="23.372313"><ele>2071.9</ele><time>2026-03-02T06:16:27.000Z</time></trkpt>
<trkpt lat="42.186059" lon="23.372315"><ele>2071.9</ele><time>2026-03-02T06:16:28.000Z</time></trkpt>
<trkpt lat="42.186053" lon="23.372318"><ele>2071.9</ele><time>2026-03-02T06:16:29.000Z</time></trkpt>
<trkpt lat="42.186046" lon="23.372319"><ele>2072.4</ele><time>2026-03-02T06:16:30.000Z</time></trkpt>
<trkpt lat="42.186039" lon="23.37232"><ele>2072.4</ele><time>2026-03-02T06:16:31.000Z</time></trkpt>
<trkpt lat="42.186033" lon="23.372322"><ele>2072.4</ele><time>2026-03-02T06:16:32.000Z</time></trkpt>
<trkpt lat="42.186027" lon="23.372322"><ele>2072.4</ele><time>2026-03-02T06:16:33.000Z</time></trkpt>
<trkpt lat="42.186021" lon="23.372323"><ele>2072.4</ele><time>2026-03-02T06:16:34.000Z</time></trkpt>
<trkpt lat="42.186016" lon="23.372324"><ele>2073</ele><time>2026-03-02T06:16:35.000Z</time></trkpt>
<trkpt lat="42.186011" lon="23.372326"><ele>2073</ele><time>2026-03-02T06:16:36.000Z</time></trkpt>
<trkpt lat="42.186007" lon="23.372328"><ele>2073</ele><time>2026-03-02T06:16:37.000Z</time></trkpt>
<trkpt lat="42.186002" lon="23.372331"><ele>2073</ele><time>2026-03-02T06:16:38.000Z</time></trkpt>
<trkpt lat="42.185997" lon="23.372332"><ele>2073</ele><time>2026-03-02T06:16:39.000Z</time></trkpt>
<trkpt lat="42.185993" lon="23.372333"><ele>2073.4</ele><time>2026-03-02T06:16:40.000Z</time></trkpt>
<trkpt lat="42.185988" lon="23.372333"><ele>2073.4</ele><time>2026-03-02T06:16:41.000Z</time></trkpt>
<trkpt lat="42.185985" lon="23.372334"><ele>2073.4</ele><time>2026-03-02T06:16:42.000Z</time></trkpt>
<trkpt lat="42.185981" lon="23.372335"><ele>2073.4</ele><time>2026-03-02T06:16:43.000Z</time></trkpt>
<trkpt lat="42.185976" lon="23.372335"><ele>2073.4</ele><time>2026-03-02T06:16:44.000Z</time></trkpt>
<trkpt lat="42.185972" lon="23.372336"><ele>2074.3</ele><time>2026-03-02T06:16:45.000Z</time></trkpt>
<trkpt lat="42.185968" lon="23.372337"><ele>2074.3</ele><time>2026-03-02T06:16:46.000Z</time></trkpt>
<trkpt lat="42.185963" lon="23.372337"><ele>2074.3</ele><time>2026-03-02T06:16:47.000Z</time></trkpt>
<trkpt lat="42.185959" lon="23.372336"><ele>2074.3</ele><time>2026-03-02T06:16:48.000Z</time></trkpt>
<trkpt lat="42.185956" lon="23.372336"><ele>2074.3</ele><time>2026-03-02T06:16:49.000Z</time></trkpt>
<trkpt lat="42.185951" lon="23.372334"><ele>2075.3</ele><time>2026-03-02T06:16:50.000Z</time></trkpt>
<trkpt lat="42.185945" lon="23.372332"><ele>2075.3</ele><time>2026-03-02T06:16:51.000Z</time></trkpt>
<trkpt lat="42.18594" lon="23.372329"><ele>2075.3</ele><time>2026-03-02T06:16:52.000Z</time></trkpt>
<trkpt lat="42.185934" lon="23.372326"><ele>2075.3</ele><time>2026-03-02T06:16:53.000Z</time></trkpt>
<trkpt lat="42.185927" lon="23.372323"><ele>2075.3</ele><time>2026-03-02T06:16:54.000Z</time></trkpt>
<trkpt lat="42.185921" lon="23.37232"><ele>2075.8</ele><time>2026-03-02T06:16:55.000Z</time></trkpt>
<trkpt lat="42.185916" lon="23.372317"><ele>2075.8</ele><time>2026-03-02T06:16:56.000Z</time></trkpt>
<trkpt lat="42.185911" lon="23.372313"><ele>2075.8</ele><time>2026-03-02T06:16:57.000Z</time></trkpt>
<trkpt lat="42.185906" lon="23.372311"><ele>2075.8</ele><time>2026-03-02T06:16:58.000Z</time></trkpt>
<trkpt lat="42.185903" lon="23.37231"><ele>2075.8</ele><time>2026-03-02T06:16:59.000Z</time></trkpt>
<trkpt lat="42.185899" lon="23.372309"><ele>2076.7</ele><time>2026-03-02T06:17:00.000Z</time></trkpt>
<trkpt lat="42.185895" lon="23.372308"><ele>2076.7</ele><time>2026-03-02T06:17:01.000Z</time></trkpt>
<trkpt lat="42.18589" lon="23.372309"><ele>2076.7</ele><time>2026-03-02T06:17:02.000Z</time></trkpt>
<trkpt lat="42.185886" lon="23.37231"><ele>2076.7</ele><time>2026-03-02T06:17:03.000Z</time></trkpt>
<trkpt lat="42.18588" lon="23.37231"><ele>2076.7</ele><time>2026-03-02T06:17:04.000Z</time></trkpt>
<trkpt lat="42.185874" lon="23.37231"><ele>2077.7</ele><time>2026-03-02T06:17:05.000Z</time></trkpt>
<trkpt lat="42.185868" lon="23.37231"><ele>2077.7</ele><time>2026-03-02T06:17:06.000Z</time></trkpt>
<trkpt lat="42.185863" lon="23.372311"><ele>2077.7</ele><time>2026-03-02T06:17:07.000Z</time></trkpt>
<trkpt lat="42.185856" lon="23.37231"><ele>2077.7</ele><time>2026-03-02T06:17:08.000Z</time></trkpt>
<trkpt lat="42.185851" lon="23.37231"><ele>2077.7</ele><time>2026-03-02T06:17:09.000Z</time></trkpt>
<trkpt lat="42.185845" lon="23.372308"><ele>2078.2</ele><time>2026-03-02T06:17:10.000Z</time></trkpt>
<trkpt lat="42.18584" lon="23.372306"><ele>2078.2</ele><time>2026-03-02T06:17:11.000Z</time></trkpt>
<trkpt lat="42.185835" lon="23.372304"><ele>2078.2</ele><time>2026-03-02T06:17:12.000Z</time></trkpt>
<trkpt lat="42.18583" lon="23.372301"><ele>2078.2</ele><time>2026-03-02T06:17:13.000Z</time></trkpt>
<trkpt lat="42.185825" lon="23.372299"><ele>2078.2</ele><time>2026-03-02T06:17:14.000Z</time></trkpt>
<trkpt lat="42.18582" lon="23.372296"><ele>2079.1</ele><time>2026-03-02T06:17:15.000Z</time></trkpt>
<trkpt lat="42.185816" lon="23.372294"><ele>2079.1</ele><time>2026-03-02T06:17:16.000Z</time></trkpt>
<trkpt lat="42.185812" lon="23.372292"><ele>2079.1</ele><time>2026-03-02T06:17:17.000Z</time></trkpt>
<trkpt lat="42.185809" lon="23.372291"><ele>2079.1</ele><time>2026-03-02T06:17:18.000Z</time></trkpt>
<trkpt lat="42.185806" lon="23.372289"><ele>2079.1</ele><time>2026-03-02T06:17:19.000Z</time></trkpt>
<trkpt lat="42.185804" lon="23.372289"><ele>2079.8</ele><time>2026-03-02T06:17:20.000Z</time></trkpt>
<trkpt lat="42.185801" lon="23.37229"><ele>2079.8</ele><time>2026-03-02T06:17:21.000Z</time></trkpt>
<trkpt lat="42.185797" lon="23.372291"><ele>2079.8</ele><time>2026-03-02T06:17:22.000Z</time></trkpt>
<trkpt lat="42.185792" lon="23.372294"><ele>2079.8</ele><time>2026-03-02T06:17:23.000Z</time></trkpt>
<trkpt lat="42.185787" lon="23.372298"><ele>2079.8</ele><time>2026-03-02T06:17:24.000Z</time></trkpt>
<trkpt lat="42.185781" lon="23.372302"><ele>2080.2</ele><time>2026-03-02T06:17:25.000Z</time></trkpt>
<trkpt lat="42.185775" lon="23.372305"><ele>2080.2</ele><time>2026-03-02T06:17:26.000Z</time></trkpt>
<trkpt lat="42.185769" lon="23.372307"><ele>2080.2</ele><time>2026-03-02T06:17:27.000Z</time></trkpt>
<trkpt lat="42.185763" lon="23.372309"><ele>2080.2</ele><time>2026-03-02T06:17:28.000Z</time></trkpt>
<trkpt lat="42.185758" lon="23.372309"><ele>2080.2</ele><time>2026-03-02T06:17:29.000Z</time></trkpt>
<trkpt lat="42.185752" lon="23.372309"><ele>2080.7</ele><time>2026-03-02T06:17:30.000Z</time></trkpt>
<trkpt lat="42.185746" lon="23.372309"><ele>2080.7</ele><time>2026-03-02T06:17:31.000Z</time></trkpt>
<trkpt lat="42.18574" lon="23.372309"><ele>2080.7</ele><time>2026-03-02T06:17:32.000Z</time></trkpt>
<trkpt lat="42.185733" lon="23.37231"><ele>2080.7</ele><time>2026-03-02T06:17:33.000Z</time></trkpt>
<trkpt lat="42.185727" lon="23.37231"><ele>2080.7</ele><time>2026-03-02T06:17:34.000Z</time></trkpt>
<trkpt lat="42.185723" lon="23.372311"><ele>2081.5</ele><time>2026-03-02T06:17:35.000Z</time></trkpt>
<trkpt lat="42.185718" lon="23.372311"><ele>2081.5</ele><time>2026-03-02T06:17:36.000Z</time></trkpt>
<trkpt lat="42.185714" lon="23.372311"><ele>2081.5</ele><time>2026-03-02T06:17:37.000Z</time></trkpt>
<trkpt lat="42.185711" lon="23.37231"><ele>2081.5</ele><time>2026-03-02T06:17:38.000Z</time></trkpt>
<trkpt lat="42.185707" lon="23.372309"><ele>2081.5</ele><time>2026-03-02T06:17:39.000Z</time></trkpt>
<trkpt lat="42.185703" lon="23.372309"><ele>2081.9</ele><time>2026-03-02T06:17:40.000Z</time></trkpt>
<trkpt lat="42.185699" lon="23.372308"><ele>2081.9</ele><time>2026-03-02T06:17:41.000Z</time></trkpt>
<trkpt lat="42.185695" lon="23.372307"><ele>2081.9</ele><time>2026-03-02T06:17:42.000Z</time></trkpt>
<trkpt lat="42.18569" lon="23.372306"><ele>2081.9</ele><time>2026-03-02T06:17:43.000Z</time></trkpt>
<trkpt lat="42.185686" lon="23.372303"><ele>2081.9</ele><time>2026-03-02T06:17:44.000Z</time></trkpt>
<trkpt lat="42.185682" lon="23.372301"><ele>2083</ele><time>2026-03-02T06:17:45.000Z</time></trkpt>
<trkpt lat="42.185678" lon="23.3723"><ele>2083</ele><time>2026-03-02T06:17:46.000Z</time></trkpt>
<trkpt lat="42.185675" lon="23.372298"><ele>2083</ele><time>2026-03-02T06:17:47.000Z</time></trkpt>
<trkpt lat="42.185671" lon="23.372297"><ele>2083</ele><time>2026-03-02T06:17:48.000Z</time></trkpt>
<trkpt lat="42.185667" lon="23.372296"><ele>2083</ele><time>2026-03-02T06:17:49.000Z</time></trkpt>
<trkpt lat="42.185662" lon="23.372295"><ele>2083.9</ele><time>2026-03-02T06:17:50.000Z</time></trkpt>
<trkpt lat="42.185656" lon="23.372295"><ele>2083.9</ele><time>2026-03-02T06:17:51.000Z</time></trkpt>
<trkpt lat="42.18565" lon="23.372294"><ele>2083.9</ele><time>2026-03-02T06:17:52.000Z</time></trkpt>
<trkpt lat="42.185644" lon="23.372293"><ele>2083.9</ele><time>2026-03-02T06:17:53.000Z</time></trkpt>
<trkpt lat="42.185638" lon="23.372292"><ele>2083.9</ele><time>2026-03-02T06:17:54.000Z</time></trkpt>
<trkpt lat="42.185632" lon="23.372291"><ele>2084.3</ele><time>2026-03-02T06:17:55.000Z</time></trkpt>
<trkpt lat="42.185626" lon="23.372289"><ele>2084.3</ele><time>2026-03-02T06:17:56.000Z</time></trkpt>
<trkpt lat="42.18562" lon="23.372287"><ele>2084.3</ele><time>2026-03-02T06:17:57.000Z</time></trkpt>
<trkpt lat="42.185615" lon="23.372286"><ele>2084.3</ele><time>2026-03-02T06:17:58.000Z</time></trkpt>
<trkpt lat="42.18561" lon="23.372285"><ele>2084.3</ele><time>2026-03-02T06:17:59.000Z</time></trkpt>
<trkpt lat="42.185605" lon="23.372283"><ele>2084.9</ele><time>2026-03-02T06:18:00.000Z</time></trkpt>
<trkpt lat="42.1856" lon="23.372283"><ele>2084.9</ele><time>2026-03-02T06:18:01.000Z</time></trkpt>
<trkpt lat="42.185595" lon="23.372283"><ele>2084.9</ele><time>2026-03-02T06:18:02.000Z</time></trkpt>
<trkpt lat="42.18559" lon="23.372284"><ele>2084.9</ele><time>2026-03-02T06:18:03.000Z</time></trkpt>
<trkpt lat="42.185584" lon="23.372285"><ele>2084.9</ele><time>2026-03-02T06:18:04.000Z</time></trkpt>
<trkpt lat="42.185578" lon="23.372286"><ele>2085.7</ele><time>2026-03-02T06:18:05.000Z</time></trkpt>
<trkpt lat="42.185572" lon="23.372287"><ele>2085.7</ele><time>2026-03-02T06:18:06.000Z</time></trkpt>
<trkpt lat="42.185567" lon="23.372288"><ele>2085.7</ele><time>2026-03-02T06:18:07.000Z</time></trkpt>
<trkpt lat="42.185561" lon="23.372287"><ele>2085.7</ele><time>2026-03-02T06:18:08.000Z</time></trkpt>
<trkpt lat="42.185557" lon="23.372286"><ele>2085.7</ele><time>2026-03-02T06:18:09.000Z</time></trkpt>
<trkpt lat="42.185554" lon="23.372285"><ele>2086.1</ele><time>2026-03-02T06:18:10.000Z</time></trkpt>
<trkpt lat="42.18555" lon="23.372285"><ele>2086.1</ele><time>2026-03-02T06:18:11.000Z</time></trkpt>
<trkpt lat="42.185547" lon="23.372286"><ele>2086.1</ele><time>2026-03-02T06:18:12.000Z</time></trkpt>
<trkpt lat="42.185543" lon="23.372288"><ele>2086.1</ele><time>2026-03-02T06:18:13.000Z</time></trkpt>
<trkpt lat="42.185538" lon="23.372289"><ele>2086.1</ele><time>2026-03-02T06:18:14.000Z</time></trkpt>
<trkpt lat="42.185531" lon="23.37229"><ele>2087.1</ele><time>2026-03-02T06:18:15.000Z</time></trkpt>
<trkpt lat="42.185525" lon="23.37229"><ele>2087.1</ele><time>2026-03-02T06:18:16.000Z</time></trkpt>
<trkpt lat="42.185519" lon="23.372287"><ele>2087.1</ele><time>2026-03-02T06:18:17.000Z</time></trkpt>
<trkpt lat="42.185514" lon="23.372285"><ele>2087.1</ele><time>2026-03-02T06:18:18.000Z</time></trkpt>
<trkpt lat="42.18551" lon="23.372282"><ele>2087.1</ele><time>2026-03-02T06:18:19.000Z</time></trkpt>
<trkpt lat="42.185506" lon="23.372279"><ele>2088</ele><time>2026-03-02T06:18:20.000Z</time></trkpt>
<trkpt lat="42.185503" lon="23.372277"><ele>2088</ele><time>2026-03-02T06:18:21.000Z</time></trkpt>
<trkpt lat="42.185499" lon="23.372275"><ele>2088</ele><time>2026-03-02T06:18:22.000Z</time></trkpt>
<trkpt lat="42.185494" lon="23.372273"><ele>2088</ele><time>2026-03-02T06:18:23.000Z</time></trkpt>
<trkpt lat="42.18549" lon="23.372271"><ele>2088</ele><time>2026-03-02T06:18:24.000Z</time></trkpt>
<trkpt lat="42.185485" lon="23.372269"><ele>2088.5</ele><time>2026-03-02T06:18:25.000Z</time></trkpt>
<trkpt lat="42.18548" lon="23.372268"><ele>2088.5</ele><time>2026-03-02T06:18:26.000Z</time></trkpt>
<trkpt lat="42.185476" lon="23.372268"><ele>2088.5</ele><time>2026-03-02T06:18:27.000Z</time></trkpt>
<trkpt lat="42.185471" lon="23.372268"><ele>2088.5</ele><time>2026-03-02T06:18:28.000Z</time></trkpt>
<trkpt lat="42.185467" lon="23.372268"><ele>2088.5</ele><time>2026-03-02T06:18:29.000Z</time></trkpt>
<trkpt lat="42.185462" lon="23.372269"><ele>2089.4</ele><time>2026-03-02T06:18:30.000Z</time></trkpt>
<trkpt lat="42.185458" lon="23.372269"><ele>2089.4</ele><time>2026-03-02T06:18:31.000Z</time></trkpt>
<trkpt lat="42.185454" lon="23.372269"><ele>2089.4</ele><time>2026-03-02T06:18:32.000Z</time></trkpt>
<trkpt lat="42.185451" lon="23.372268"><ele>2089.4</ele><time>2026-03-02T06:18:33.000Z</time></trkpt>
<trkpt lat="42.185447" lon="23.372267"><ele>2089.4</ele><time>2026-03-02T06:18:34.000Z</time></trkpt>
<trkpt lat="42.185443" lon="23.372266"><ele>2090.4</ele><time>2026-03-02T06:18:35.000Z</time></trkpt>
<trkpt lat="42.18544" lon="23.372265"><ele>2090.4</ele><time>2026-03-02T06:18:36.000Z</time></trkpt>
<trkpt lat="42.185435" lon="23.372265"><ele>2090.4</ele><time>2026-03-02T06:18:37.000Z</time></trkpt>
<trkpt lat="42.185429" lon="23.372265"><ele>2090.4</ele><time>2026-03-02T06:18:38.000Z</time></trkpt>
<trkpt lat="42.185423" lon="23.372264"><ele>2090.4</ele><time>2026-03-02T06:18:39.000Z</time></trkpt>
<trkpt lat="42.185418" lon="23.372264"><ele>2090.8</ele><time>2026-03-02T06:18:40.000Z</time></trkpt>
<trkpt lat="42.185412" lon="23.372263"><ele>2090.8</ele><time>2026-03-02T06:18:41.000Z</time></trkpt>
<trkpt lat="42.185407" lon="23.372262"><ele>2090.8</ele><time>2026-03-02T06:18:42.000Z</time></trkpt>
<trkpt lat="42.185403" lon="23.372261"><ele>2090.8</ele><time>2026-03-02T06:18:43.000Z</time></trkpt>
<trkpt lat="42.185398" lon="23.372259"><ele>2090.8</ele><time>2026-03-02T06:18:44.000Z</time></trkpt>
<trkpt lat="42.185393" lon="23.372258"><ele>2091.8</ele><time>2026-03-02T06:18:45.000Z</time></trkpt>
<trkpt lat="42.185389" lon="23.372257"><ele>2091.8</ele><time>2026-03-02T06:18:46.000Z</time></trkpt>
<trkpt lat="42.185385" lon="23.372256"><ele>2091.8</ele><time>2026-03-02T06:18:47.000Z</time></trkpt>
<trkpt lat="42.18538" lon="23.372254"><ele>2091.8</ele><time>2026-03-02T06:18:48.000Z</time></trkpt>
<trkpt lat="42.185377" lon="23.372253"><ele>2091.8</ele><time>2026-03-02T06:18:49.000Z</time></trkpt>
<trkpt lat="42.185374" lon="23.372252"><ele>2092.8</ele><time>2026-03-02T06:18:50.000Z</time></trkpt>
<trkpt lat="42.185371" lon="23.37225"><ele>2092.8</ele><time>2026-03-02T06:18:51.000Z</time></trkpt>
<trkpt lat="42.185367" lon="23.372249"><ele>2092.8</ele><time>2026-03-02T06:18:52.000Z</time></trkpt>
<trkpt lat="42.185364" lon="23.372248"><ele>2092.8</ele><time>2026-03-02T06:18:53.000Z</time></trkpt>
<trkpt lat="42.185361" lon="23.372247"><ele>2092.8</ele><time>2026-03-02T06:18:54.000Z</time></trkpt>
<trkpt lat="42.185358" lon="23.372248"><ele>2093.3</ele><time>2026-03-02T06:18:55.000Z</time></trkpt>
<trkpt lat="42.185354" lon="23.372249"><ele>2093.3</ele><time>2026-03-02T06:18:56.000Z</time></trkpt>
<trkpt lat="42.185351" lon="23.372249"><ele>2093.3</ele><time>2026-03-02T06:18:57.000Z</time></trkpt>
<trkpt lat="42.185347" lon="23.372248"><ele>2093.3</ele><time>2026-03-02T06:18:58.000Z</time></trkpt>
<trkpt lat="42.185343" lon="23.372247"><ele>2093.3</ele><time>2026-03-02T06:18:59.000Z</time></trkpt>
<trkpt lat="42.185339" lon="23.372246"><ele>2094.3</ele><time>2026-03-02T06:19:00.000Z</time></trkpt>
<trkpt lat="42.185335" lon="23.372244"><ele>2094.3</ele><time>2026-03-02T06:19:01.000Z</time></trkpt>
<trkpt lat="42.18533" lon="23.372242"><ele>2094.3</ele><time>2026-03-02T06:19:02.000Z</time></trkpt>
<trkpt lat="42.185325" lon="23.37224"><ele>2094.3</ele><time>2026-03-02T06:19:03.000Z</time></trkpt>
<trkpt lat="42.18532" lon="23.372238"><ele>2094.3</ele><time>2026-03-02T06:19:04.000Z</time></trkpt>
<trkpt lat="42.185314" lon="23.372236"><ele>2095.2</ele><time>2026-03-02T06:19:05.000Z</time></trkpt>
<trkpt lat="42.185309" lon="23.372234"><ele>2095.2</ele><time>2026-03-02T06:19:06.000Z</time></trkpt>
<trkpt lat="42.185304" lon="23.372232"><ele>2095.2</ele><time>2026-03-02T06:19:07.000Z</time></trkpt>
<trkpt lat="42.1853" lon="23.372231"><ele>2095.2</ele><time>2026-03-02T06:19:08.000Z</time></trkpt>
<trkpt lat="42.185295" lon="23.372228"><ele>2095.2</ele><time>2026-03-02T06:19:09.000Z</time></trkpt>
<trkpt lat="42.185291" lon="23.372226"><ele>2095.7</ele><time>2026-03-02T06:19:10.000Z</time></trkpt>
<trkpt lat="42.185288" lon="23.372223"><ele>2095.7</ele><time>2026-03-02T06:19:11.000Z</time></trkpt>
<trkpt lat="42.185284" lon="23.372218"><ele>2095.7</ele><time>2026-03-02T06:19:12.000Z</time></trkpt>
<trkpt lat="42.18528" lon="23.372214"><ele>2095.7</ele><time>2026-03-02T06:19:13.000Z</time></trkpt>
<trkpt lat="42.185276" lon="23.372211"><ele>2095.7</ele><time>2026-03-02T06:19:14.000Z</time></trkpt>
<trkpt lat="42.185272" lon="23.372207"><ele>2096.6</ele><time>2026-03-02T06:19:15.000Z</time></trkpt>
<trkpt lat="42.185269" lon="23.372204"><ele>2096.6</ele><time>2026-03-02T06:19:16.000Z</time></trkpt>
<trkpt lat="42.185266" lon="23.372202"><ele>2096.6</ele><time>2026-03-02T06:19:17.000Z</time></trkpt>
<trkpt lat="42.185264" lon="23.372201"><ele>2096.6</ele><time>2026-03-02T06:19:18.000Z</time></trkpt>
<trkpt lat="42.185261" lon="23.372199"><ele>2096.6</ele><time>2026-03-02T06:19:19.000Z</time></trkpt>
<trkpt lat="42.185259" lon="23.372198"><ele>2097.3</ele><time>2026-03-02T06:19:20.000Z</time></trkpt>
<trkpt lat="42.185256" lon="23.372197"><ele>2097.3</ele><time>2026-03-02T06:19:21.000Z</time></trkpt>
<trkpt lat="42.185253" lon="23.372196"><ele>2097.3</ele><time>2026-03-02T06:19:22.000Z</time></trkpt>
<trkpt lat="42.185251" lon="23.372193"><ele>2097.3</ele><time>2026-03-02T06:19:23.000Z</time></trkpt>
<trkpt lat="42.185249" lon="23.372191"><ele>2097.3</ele><time>2026-03-02T06:19:24.000Z</time></trkpt>
<trkpt lat="42.185249" lon="23.372191"><ele>2097.7</ele><time>2026-03-02T06:19:25.000Z</time></trkpt>
<trkpt lat="42.185248" lon="23.372192"><ele>2097.7</ele><time>2026-03-02T06:19:26.000Z</time></trkpt>
<trkpt lat="42.185247" lon="23.372192"><ele>2097.7</ele><time>2026-03-02T06:19:27.000Z</time></trkpt>
<trkpt lat="42.185246" lon="23.372194"><ele>2097.7</ele><time>2026-03-02T06:19:28.000Z</time></trkpt>
<trkpt lat="42.185244" lon="23.372195"><ele>2097.7</ele><time>2026-03-02T06:19:29.000Z</time></trkpt>
<trkpt lat="42.185241" lon="23.372195"><ele>2098.5</ele><time>2026-03-02T06:19:30.000Z</time></trkpt>
<trkpt lat="42.185236" lon="23.372193"><ele>2098.5</ele><time>2026-03-02T06:19:31.000Z</time></trkpt>
<trkpt lat="42.185231" lon="23.372193"><ele>2098.5</ele><time>2026-03-02T06:19:32.000Z</time></trkpt>
<trkpt lat="42.185225" lon="23.372193"><ele>2098.5</ele><time>2026-03-02T06:19:33.000Z</time></trkpt>
<trkpt lat="42.185219" lon="23.372193"><ele>2098.5</ele><time>2026-03-02T06:19:34.000Z</time></trkpt>
<trkpt lat="42.185215" lon="23.372191"><ele>2099.4</ele><time>2026-03-02T06:19:35.000Z</time></trkpt>
<trkpt lat="42.185212" lon="23.37219"><ele>2099.4</ele><time>2026-03-02T06:19:36.000Z</time></trkpt>
<trkpt lat="42.185209" lon="23.372188"><ele>2099.4</ele><time>2026-03-02T06:19:37.000Z</time></trkpt>
<trkpt lat="42.185206" lon="23.372187"><ele>2099.4</ele><time>2026-03-02T06:19:38.000Z</time></trkpt>
<trkpt lat="42.185204" lon="23.372186"><ele>2099.4</ele><time>2026-03-02T06:19:39.000Z</time></trkpt>
<trkpt lat="42.1852" lon="23.372186"><ele>2099.9</ele><time>2026-03-02T06:19:40.000Z</time></trkpt>
<trkpt lat="42.185195" lon="23.372185"><ele>2099.9</ele><time>2026-03-02T06:19:41.000Z</time></trkpt>
<trkpt lat="42.18519" lon="23.372182"><ele>2099.9</ele><time>2026-03-02T06:19:42.000Z</time></trkpt>
<trkpt lat="42.185185" lon="23.372179"><ele>2099.9</ele><time>2026-03-02T06:19:43.000Z</time></trkpt>
<trkpt lat="42.18518" lon="23.372177"><ele>2099.9</ele><time>2026-03-02T06:19:44.000Z</time></trkpt>
<trkpt lat="42.185175" lon="23.372175"><ele>2100.7</ele><time>2026-03-02T06:19:45.000Z</time></trkpt>
<trkpt lat="42.18517" lon="23.372172"><ele>2100.7</ele><time>2026-03-02T06:19:46.000Z</time></trkpt>
<trkpt lat="42.185166" lon="23.37217"><ele>2100.7</ele><time>2026-03-02T06:19:47.000Z</time></trkpt>
<trkpt lat="42.185161" lon="23.372169"><ele>2100.7</ele><time>2026-03-02T06:19:48.000Z</time></trkpt>
<trkpt lat="42.185157" lon="23.372168"><ele>2100.7</ele><time>2026-03-02T06:19:49.000Z</time></trkpt>
<trkpt lat="42.185153" lon="23.372167"><ele>2101.5</ele><time>2026-03-02T06:19:50.000Z</time></trkpt>
<trkpt lat="42.185149" lon="23.372166"><ele>2101.5</ele><time>2026-03-02T06:19:51.000Z</time></trkpt>
<trkpt lat="42.185145" lon="23.372165"><ele>2101.5</ele><time>2026-03-02T06:19:52.000Z</time></trkpt>
<trkpt lat="42.18514" lon="23.372163"><ele>2101.5</ele><time>2026-03-02T06:19:53.000Z</time></trkpt>
<trkpt lat="42.185136" lon="23.372162"><ele>2101.5</ele><time>2026-03-02T06:19:54.000Z</time></trkpt>
<trkpt lat="42.185131" lon="23.37216"><ele>2102</ele><time>2026-03-02T06:19:55.000Z</time></trkpt>
<trkpt lat="42.185127" lon="23.372159"><ele>2102</ele><time>2026-03-02T06:19:56.000Z</time></trkpt>
<trkpt lat="42.185123" lon="23.372157"><ele>2102</ele><time>2026-03-02T06:19:57.000Z</time></trkpt>
<trkpt lat="42.185119" lon="23.372155"><ele>2102</ele><time>2026-03-02T06:19:58.000Z</time></trkpt>
<trkpt lat="42.185114" lon="23.372152"><ele>2102</ele><time>2026-03-02T06:19:59.000Z</time></trkpt>
<trkpt lat="42.18511" lon="23.372149"><ele>2103.1</ele><time>2026-03-02T06:20:00.000Z</time></trkpt>
<trkpt lat="42.185106" lon="23.372146"><ele>2103.1</ele><time>2026-03-02T06:20:01.000Z</time></trkpt>
<trkpt lat="42.185102" lon="23.372143"><ele>2103.1</ele><time>2026-03-02T06:20:02.000Z</time></trkpt>
<trkpt lat="42.185099" lon="23.372139"><ele>2103.1</ele><time>2026-03-02T06:20:03.000Z</time></trkpt>
<trkpt lat="42.185095" lon="23.372135"><ele>2103.1</ele><time>2026-03-02T06:20:04.000Z</time></trkpt>
<trkpt lat="42.185092" lon="23.37213"><ele>2104</ele><time>2026-03-02T06:20:05.000Z</time></trkpt>
<trkpt lat="42.185089" lon="23.372126"><ele>2104</ele><time>2026-03-02T06:20:06.000Z</time></trkpt>
<trkpt lat="42.185086" lon="23.372123"><ele>2104</ele><time>2026-03-02T06:20:07.000Z</time></trkpt>
<trkpt lat="42.185082" lon="23.372121"><ele>2104</ele><time>2026-03-02T06:20:08.000Z</time></trkpt>
<trkpt lat="42.185079" lon="23.37212"><ele>2104</ele><time>2026-03-02T06:20:09.000Z</time></trkpt>
<trkpt lat="42.185074" lon="23.372119"><ele>2104.6</ele><time>2026-03-02T06:20:10.000Z</time></trkpt>
<trkpt lat="42.18507" lon="23.372117"><ele>2104.6</ele><time>2026-03-02T06:20:11.000Z</time></trkpt>
<trkpt lat="42.185066" lon="23.372114"><ele>2104.6</ele><time>2026-03-02T06:20:12.000Z</time></trkpt>
<trkpt lat="42.185062" lon="23.372111"><ele>2104.6</ele><time>2026-03-02T06:20:13.000Z</time></trkpt>
<trkpt lat="42.185058" lon="23.372108"><ele>2104.6</ele><time>2026-03-02T06:20:14.000Z</time></trkpt>
<trkpt lat="42.185054" lon="23.372105"><ele>2105.7</ele><time>2026-03-02T06:20:15.000Z</time></trkpt>
<trkpt lat="42.18505" lon="23.372104"><ele>2105.7</ele><time>2026-03-02T06:20:16.000Z</time></trkpt>
<trkpt lat="42.185047" lon="23.372102"><ele>2105.7</ele><time>2026-03-02T06:20:17.000Z</time></trkpt>
<trkpt lat="42.185043" lon="23.3721"><ele>2105.7</ele><time>2026-03-02T06:20:18.000Z</time></trkpt>
<trkpt lat="42.18504" lon="23.372097"><ele>2105.7</ele><time>2026-03-02T06:20:19.000Z</time></trkpt>
<trkpt lat="42.185035" lon="23.372095"><ele>2106.8</ele><time>2026-03-02T06:20:20.000Z</time></trkpt>
<trkpt lat="42.185031" lon="23.372092"><ele>2106.8</ele><time>2026-03-02T06:20:21.000Z</time></trkpt>
<trkpt lat="42.185026" lon="23.37209"><ele>2106.8</ele><time>2026-03-02T06:20:22.000Z</time></trkpt>
<trkpt lat="42.185021" lon="23.372087"><ele>2106.8</ele><time>2026-03-02T06:20:23.000Z</time></trkpt>
<trkpt lat="42.185016" lon="23.372085"><ele>2106.8</ele><time>2026-03-02T06:20:24.000Z</time></trkpt>
<trkpt lat="42.185012" lon="23.372083"><ele>2107.3</ele><time>2026-03-02T06:20:25.000Z</time></trkpt>
<trkpt lat="42.185008" lon="23.37208"><ele>2107.3</ele><time>2026-03-02T06:20:26.000Z</time></trkpt>
<trkpt lat="42.185004" lon="23.372078"><ele>2107.3</ele><time>2026-03-02T06:20:27.000Z</time></trkpt>
<trkpt lat="42.184999" lon="23.372076"><ele>2107.3</ele><time>2026-03-02T06:20:28.000Z</time></trkpt>
<trkpt lat="42.184994" lon="23.372073"><ele>2107.3</ele><time>2026-03-02T06:20:29.000Z</time></trkpt>
<trkpt lat="42.184989" lon="23.372071"><ele>2108.3</ele><time>2026-03-02T06:20:30.000Z</time></trkpt>
<trkpt lat="42.184983" lon="23.372069"><ele>2108.3</ele><time>2026-03-02T06:20:31.000Z</time></trkpt>
<trkpt lat="42.184978" lon="23.372066"><ele>2108.3</ele><time>2026-03-02T06:20:32.000Z</time></trkpt>
<trkpt lat="42.184973" lon="23.372064"><ele>2108.3</ele><time>2026-03-02T06:20:33.000Z</time></trkpt>
<trkpt lat="42.184968" lon="23.372061"><ele>2108.3</ele><time>2026-03-02T06:20:34.000Z</time></trkpt>
<trkpt lat="42.184963" lon="23.372059"><ele>2109.1</ele><time>2026-03-02T06:20:35.000Z</time></trkpt>
<trkpt lat="42.184957" lon="23.372056"><ele>2109.1</ele><time>2026-03-02T06:20:36.000Z</time></trkpt>
<trkpt lat="42.184952" lon="23.372054"><ele>2109.1</ele><time>2026-03-02T06:20:37.000Z</time></trkpt>
<trkpt lat="42.184946" lon="23.372052"><ele>2109.1</ele><time>2026-03-02T06:20:38.000Z</time></trkpt>
<trkpt lat="42.18494" lon="23.372049"><ele>2109.1</ele><time>2026-03-02T06:20:39.000Z</time></trkpt>
<trkpt lat="42.184934" lon="23.372046"><ele>2109.5</ele><time>2026-03-02T06:20:40.000Z</time></trkpt>
<trkpt lat="42.184929" lon="23.372043"><ele>2109.5</ele><time>2026-03-02T06:20:41.000Z</time></trkpt>
<trkpt lat="42.184924" lon="23.372041"><ele>2109.5</ele><time>2026-03-02T06:20:42.000Z</time></trkpt>
<trkpt lat="42.184918" lon="23.372038"><ele>2109.5</ele><time>2026-03-02T06:20:43.000Z</time></trkpt>
<trkpt lat="42.184914" lon="23.372036"><ele>2109.5</ele><time>2026-03-02T06:20:44.000Z</time></trkpt>
<trkpt lat="42.184908" lon="23.372036"><ele>2110.2</ele><time>2026-03-02T06:20:45.000Z</time></trkpt>
<trkpt lat="42.184904" lon="23.372036"><ele>2110.2</ele><time>2026-03-02T06:20:46.000Z</time></trkpt>
<trkpt lat="42.184898" lon="23.372037"><ele>2110.2</ele><time>2026-03-02T06:20:47.000Z</time></trkpt>
<trkpt lat="42.184892" lon="23.372037"><ele>2110.2</ele><time>2026-03-02T06:20:48.000Z</time></trkpt>
<trkpt lat="42.184886" lon="23.372037"><ele>2110.2</ele><time>2026-03-02T06:20:49.000Z</time></trkpt>
<trkpt lat="42.18488" lon="23.372036"><ele>2111.1</ele><time>2026-03-02T06:20:50.000Z</time></trkpt>
<trkpt lat="42.184874" lon="23.372035"><ele>2111.1</ele><time>2026-03-02T06:20:51.000Z</time></trkpt>
<trkpt lat="42.184869" lon="23.372035"><ele>2111.1</ele><time>2026-03-02T06:20:52.000Z</time></trkpt>
<trkpt lat="42.184862" lon="23.372034"><ele>2111.1</ele><time>2026-03-02T06:20:53.000Z</time></trkpt>
<trkpt lat="42.184856" lon="23.372033"><ele>2111.1</ele><time>2026-03-02T06:20:54.000Z</time></trkpt>
<trkpt lat="42.18485" lon="23.372032"><ele>2111.6</ele><time>2026-03-02T06:20:55.000Z</time></trkpt>
<trkpt lat="42.184842" lon="23.372031"><ele>2111.6</ele><time>2026-03-02T06:20:56.000Z</time></trkpt>
<trkpt lat="42.184833" lon="23.372029"><ele>2111.6</ele><time>2026-03-02T06:20:57.000Z</time></trkpt>
<trkpt lat="42.184824" lon="23.372028"><ele>2111.6</ele><time>2026-03-02T06:20:58.000Z</time></trkpt>
<trkpt lat="42.184813" lon="23.372027"><ele>2111.6</ele><time>2026-03-02T06:20:59.000Z</time></trkpt>
<trkpt lat="42.184803" lon="23.372025"><ele>2112.4</ele><time>2026-03-02T06:21:00.000Z</time></trkpt>
<trkpt lat="42.184793" lon="23.372023"><ele>2112.4</ele><time>2026-03-02T06:21:01.000Z</time></trkpt>
<trkpt lat="42.184784" lon="23.372022"><ele>2112.4</ele><time>2026-03-02T06:21:02.000Z</time></trkpt>
<trkpt lat="42.184776" lon="23.37202"><ele>2112.4</ele><time>2026-03-02T06:21:03.000Z</time></trkpt>
<trkpt lat="42.184769" lon="23.372018"><ele>2112.4</ele><time>2026-03-02T06:21:04.000Z</time></trkpt>
<trkpt lat="42.184763" lon="23.372017"><ele>2113</ele><time>2026-03-02T06:21:05.000Z</time></trkpt>
<trkpt lat="42.184756" lon="23.372015"><ele>2113</ele><time>2026-03-02T06:21:06.000Z</time></trkpt>
<trkpt lat="42.184749" lon="23.372013"><ele>2113</ele><time>2026-03-02T06:21:07.000Z</time></trkpt>
<trkpt lat="42.184741" lon="23.37201"><ele>2113</ele><time>2026-03-02T06:21:08.000Z</time></trkpt>
<trkpt lat="42.184733" lon="23.372006"><ele>2113</ele><time>2026-03-02T06:21:09.000Z</time></trkpt>
<trkpt lat="42.184726" lon="23.372003"><ele>2113.3</ele><time>2026-03-02T06:21:10.000Z</time></trkpt>
<trkpt lat="42.184719" lon="23.372"><ele>2113.3</ele><time>2026-03-02T06:21:11.000Z</time></trkpt>
<trkpt lat="42.184712" lon="23.371997"><ele>2113.3</ele><time>2026-03-02T06:21:12.000Z</time></trkpt>
<trkpt lat="42.184706" lon="23.371993"><ele>2113.3</ele><time>2026-03-02T06:21:13.000Z</time></trkpt>
<trkpt lat="42.1847" lon="23.371989"><ele>2113.3</ele><time>2026-03-02T06:21:14.000Z</time></trkpt>
<trkpt lat="42.184693" lon="23.371985"><ele>2114</ele><time>2026-03-02T06:21:15.000Z</time></trkpt>
<trkpt lat="42.184688" lon="23.37198"><ele>2114</ele><time>2026-03-02T06:21:16.000Z</time></trkpt>
<trkpt lat="42.184681" lon="23.371975"><ele>2114</ele><time>2026-03-02T06:21:17.000Z</time></trkpt>
<trkpt lat="42.184675" lon="23.37197"><ele>2114</ele><time>2026-03-02T06:21:18.000Z</time></trkpt>
<trkpt lat="42.184669" lon="23.371966"><ele>2114</ele><time>2026-03-02T06:21:19.000Z</time></trkpt>
<trkpt lat="42.184662" lon="23.371961"><ele>2115</ele><time>2026-03-02T06:21:20.000Z</time></trkpt>
<trkpt lat="42.184655" lon="23.371956"><ele>2115</ele><time>2026-03-02T06:21:21.000Z</time></trkpt>
<trkpt lat="42.184649" lon="23.371952"><ele>2115</ele><time>2026-03-02T06:21:22.000Z</time></trkpt>
<trkpt lat="42.184643" lon="23.371947"><ele>2115</ele><time>2026-03-02T06:21:23.000Z</time></trkpt>
<trkpt lat="42.184635" lon="23.371942"><ele>2115</ele><time>2026-03-02T06:21:24.000Z</time></trkpt>
<trkpt lat="42.184627" lon="23.371939"><ele>2115.5</ele><time>2026-03-02T06:21:25.000Z</time></trkpt>
<trkpt lat="42.184619" lon="23.371936"><ele>2115.5</ele><time>2026-03-02T06:21:26.000Z</time></trkpt>
<trkpt lat="42.184611" lon="23.371933"><ele>2115.5</ele><time>2026-03-02T06:21:27.000Z</time></trkpt>
<trkpt lat="42.184604" lon="23.371931"><ele>2115.5</ele><time>2026-03-02T06:21:28.000Z</time></trkpt>
<trkpt lat="42.184598" lon="23.371929"><ele>2115.5</ele><time>2026-03-02T06:21:29.000Z</time></trkpt>
<trkpt lat="42.184592" lon="23.371927"><ele>2116.5</ele><time>2026-03-02T06:21:30.000Z</time></trkpt>
<trkpt lat="42.184586" lon="23.371925"><ele>2116.5</ele><time>2026-03-02T06:21:31.000Z</time></trkpt>
<trkpt lat="42.18458" lon="23.371923"><ele>2116.5</ele><time>2026-03-02T06:21:32.000Z</time></trkpt>
<trkpt lat="42.184574" lon="23.371921"><ele>2116.5</ele><time>2026-03-02T06:21:33.000Z</time></trkpt>
<trkpt lat="42.184567" lon="23.371919"><ele>2116.5</ele><time>2026-03-02T06:21:34.000Z</time></trkpt>
<trkpt lat="42.18456" lon="23.371916"><ele>2117.4</ele><time>2026-03-02T06:21:35.000Z</time></trkpt>
<trkpt lat="42.184554" lon="23.371913"><ele>2117.4</ele><time>2026-03-02T06:21:36.000Z</time></trkpt>
<trkpt lat="42.184548" lon="23.371911"><ele>2117.4</ele><time>2026-03-02T06:21:37.000Z</time></trkpt>
<trkpt lat="42.184543" lon="23.371909"><ele>2117.4</ele><time>2026-03-02T06:21:38.000Z</time></trkpt>
<trkpt lat="42.184538" lon="23.371907"><ele>2117.4</ele><time>2026-03-02T06:21:39.000Z</time></trkpt>
<trkpt lat="42.184534" lon="23.371906"><ele>2117.8</ele><time>2026-03-02T06:21:40.000Z</time></trkpt>
<trkpt lat="42.18453" lon="23.371905"><ele>2117.8</ele><time>2026-03-02T06:21:41.000Z</time></trkpt>
<trkpt lat="42.184526" lon="23.371904"><ele>2117.8</ele><time>2026-03-02T06:21:42.000Z</time></trkpt>
<trkpt lat="42.184522" lon="23.371902"><ele>2117.8</ele><time>2026-03-02T06:21:43.000Z</time></trkpt>
<trkpt lat="42.184518" lon="23.3719"><ele>2117.8</ele><time>2026-03-02T06:21:44.000Z</time></trkpt>
<trkpt lat="42.184513" lon="23.371898"><ele>2118.5</ele><time>2026-03-02T06:21:45.000Z</time></trkpt>
<trkpt lat="42.184509" lon="23.371896"><ele>2118.5</ele><time>2026-03-02T06:21:46.000Z</time></trkpt>
<trkpt lat="42.184505" lon="23.371894"><ele>2118.5</ele><time>2026-03-02T06:21:47.000Z</time></trkpt>
<trkpt lat="42.1845" lon="23.371892"><ele>2118.5</ele><time>2026-03-02T06:21:48.000Z</time></trkpt>
<trkpt lat="42.184496" lon="23.37189"><ele>2118.5</ele><time>2026-03-02T06:21:49.000Z</time></trkpt>
<trkpt lat="42.184491" lon="23.371887"><ele>2119.2</ele><time>2026-03-02T06:21:50.000Z</time></trkpt>
<trkpt lat="42.184486" lon="23.371885"><ele>2119.2</ele><time>2026-03-02T06:21:51.000Z</time></trkpt>
<trkpt lat="42.184481" lon="23.371883"><ele>2119.2</ele><time>2026-03-02T06:21:52.000Z</time></trkpt>
<trkpt lat="42.184475" lon="23.37188"><ele>2119.2</ele><time>2026-03-02T06:21:53.000Z</time></trkpt>
<trkpt lat="42.18447" lon="23.371879"><ele>2119.2</ele><time>2026-03-02T06:21:54.000Z</time></trkpt>
<trkpt lat="42.184464" lon="23.371876"><ele>2119.6</ele><time>2026-03-02T06:21:55.000Z</time></trkpt>
<trkpt lat="42.184458" lon="23.371874"><ele>2119.6</ele><time>2026-03-02T06:21:56.000Z</time></trkpt>
<trkpt lat="42.184452" lon="23.37187"><ele>2119.6</ele><time>2026-03-02T06:21:57.000Z</time></trkpt>
<trkpt lat="42.184447" lon="23.371868"><ele>2119.6</ele><time>2026-03-02T06:21:58.000Z</time></trkpt>
<trkpt lat="42.184443" lon="23.371864"><ele>2119.6</ele><time>2026-03-02T06:21:59.000Z</time></trkpt>
<trkpt lat="42.18444" lon="23.37186"><ele>2120.6</ele><time>2026-03-02T06:22:00.000Z</time></trkpt>
<trkpt lat="42.184437" lon="23.371855"><ele>2120.6</ele><time>2026-03-02T06:22:01.000Z</time></trkpt>
<trkpt lat="42.184433" lon="23.371851"><ele>2120.6</ele><time>2026-03-02T06:22:02.000Z</time></trkpt>
<trkpt lat="42.184429" lon="23.371846"><ele>2120.6</ele><time>2026-03-02T06:22:03.000Z</time></trkpt>
<trkpt lat="42.184423" lon="23.371843"><ele>2120.6</ele><time>2026-03-02T06:22:04.000Z</time></trkpt>
<trkpt lat="42.184419" lon="23.371839"><ele>2121.6</ele><time>2026-03-02T06:22:05.000Z</time></trkpt>
<trkpt lat="42.184414" lon="23.371836"><ele>2121.6</ele><time>2026-03-02T06:22:06.000Z</time></trkpt>
<trkpt lat="42.18441" lon="23.371833"><ele>2121.6</ele><time>2026-03-02T06:22:07.000Z</time></trkpt>
<trkpt lat="42.184407" lon="23.371829"><ele>2121.6</ele><time>2026-03-02T06:22:08.000Z</time></trkpt>
<trkpt lat="42.184403" lon="23.371825"><ele>2121.6</ele><time>2026-03-02T06:22:09.000Z</time></trkpt>
<trkpt lat="42.184398" lon="23.371822"><ele>2122.1</ele><time>2026-03-02T06:22:10.000Z</time></trkpt>
<trkpt lat="42.184394" lon="23.371819"><ele>2122.1</ele><time>2026-03-02T06:22:11.000Z</time></trkpt>
<trkpt lat="42.184387" lon="23.371816"><ele>2122.1</ele><time>2026-03-02T06:22:12.000Z</time></trkpt>
<trkpt lat="42.184381" lon="23.371814"><ele>2122.1</ele><time>2026-03-02T06:22:13.000Z</time></trkpt>
<trkpt lat="42.184375" lon="23.371813"><ele>2122.1</ele><time>2026-03-02T06:22:14.000Z</time></trkpt>
<trkpt lat="42.184368" lon="23.371811"><ele>2123</ele><time>2026-03-02T06:22:15.000Z</time></trkpt>
<trkpt lat="42.184362" lon="23.371809"><ele>2123</ele><time>2026-03-02T06:22:16.000Z</time></trkpt>
<trkpt lat="42.184355" lon="23.371806"><ele>2123</ele><time>2026-03-02T06:22:17.000Z</time></trkpt>
<trkpt lat="42.18435" lon="23.371804"><ele>2123</ele><time>2026-03-02T06:22:18.000Z</time></trkpt>
<trkpt lat="42.184344" lon="23.371802"><ele>2123</ele><time>2026-03-02T06:22:19.000Z</time></trkpt>
<trkpt lat="42.184338" lon="23.371799"><ele>2124</ele><time>2026-03-02T06:22:20.000Z</time></trkpt>
<trkpt lat="42.184332" lon="23.371795"><ele>2124</ele><time>2026-03-02T06:22:21.000Z</time></trkpt>
<trkpt lat="42.184327" lon="23.371789"><ele>2124</ele><time>2026-03-02T06:22:22.000Z</time></trkpt>
<trkpt lat="42.184322" lon="23.371783"><ele>2124</ele><time>2026-03-02T06:22:23.000Z</time></trkpt>
<trkpt lat="42.184317" lon="23.371778"><ele>2124</ele><time>2026-03-02T06:22:24.000Z</time></trkpt>
<trkpt lat="42.184313" lon="23.371775"><ele>2124.4</ele><time>2026-03-02T06:22:25.000Z</time></trkpt>
<trkpt lat="42.184309" lon="23.371773"><ele>2124.4</ele><time>2026-03-02T06:22:26.000Z</time></trkpt>
<trkpt lat="42.184304" lon="23.371774"><ele>2124.4</ele><time>2026-03-02T06:22:27.000Z</time></trkpt>
<trkpt lat="42.184298" lon="23.371773"><ele>2124.4</ele><time>2026-03-02T06:22:28.000Z</time></trkpt>
<trkpt lat="42.184292" lon="23.371771"><ele>2124.4</ele><time>2026-03-02T06:22:29.000Z</time></trkpt>
<trkpt lat="42.184287" lon="23.371767"><ele>2125.4</ele><time>2026-03-02T06:22:30.000Z</time></trkpt>
<trkpt lat="42.184283" lon="23.371761"><ele>2125.4</ele><time>2026-03-02T06:22:31.000Z</time></trkpt>
<trkpt lat="42.184278" lon="23.371756"><ele>2125.4</ele><time>2026-03-02T06:22:32.000Z</time></trkpt>
<trkpt lat="42.184273" lon="23.371752"><ele>2125.4</ele><time>2026-03-02T06:22:33.000Z</time></trkpt>
<trkpt lat="42.184268" lon="23.371747"><ele>2125.4</ele><time>2026-03-02T06:22:34.000Z</time></trkpt>
<trkpt lat="42.184261" lon="23.371743"><ele>2126.3</ele><time>2026-03-02T06:22:35.000Z</time></trkpt>
<trkpt lat="42.184254" lon="23.37174"><ele>2126.3</ele><time>2026-03-02T06:22:36.000Z</time></trkpt>
<trkpt lat="42.184248" lon="23.371736"><ele>2126.3</ele><time>2026-03-02T06:22:37.000Z</time></trkpt>
<trkpt lat="42.184241" lon="23.371731"><ele>2126.3</ele><time>2026-03-02T06:22:38.000Z</time></trkpt>
<trkpt lat="42.184234" lon="23.371726"><ele>2126.3</ele><time>2026-03-02T06:22:39.000Z</time></trkpt>
<trkpt lat="42.184227" lon="23.371722"><ele>2126.7</ele><time>2026-03-02T06:22:40.000Z</time></trkpt>
<trkpt lat="42.184219" lon="23.371719"><ele>2126.7</ele><time>2026-03-02T06:22:41.000Z</time></trkpt>
<trkpt lat="42.184212" lon="23.371716"><ele>2126.7</ele><time>2026-03-02T06:22:42.000Z</time></trkpt>
<trkpt lat="42.184204" lon="23.371713"><ele>2126.7</ele><time>2026-03-02T06:22:43.000Z</time></trkpt>
<trkpt lat="42.184196" lon="23.371709"><ele>2126.7</ele><time>2026-03-02T06:22:44.000Z</time></trkpt>
<trkpt lat="42.184188" lon="23.371706"><ele>2127.3</ele><time>2026-03-02T06:22:45.000Z</time></trkpt>
<trkpt lat="42.184181" lon="23.371703"><ele>2127.3</ele><time>2026-03-02T06:22:46.000Z</time></trkpt>
<trkpt lat="42.184174" lon="23.3717"><ele>2127.3</ele><time>2026-03-02T06:22:47.000Z</time></trkpt>
<trkpt lat="42.184167" lon="23.371698"><ele>2127.3</ele><time>2026-03-02T06:22:48.000Z</time></trkpt>
<trkpt lat="42.184158" lon="23.371695"><ele>2127.3</ele><time>2026-03-02T06:22:49.000Z</time></trkpt>
<trkpt lat="42.184151" lon="23.371694"><ele>2127.9</ele><time>2026-03-02T06:22:50.000Z</time></trkpt>
<trkpt lat="42.184143" lon="23.371693"><ele>2127.9</ele><time>2026-03-02T06:22:51.000Z</time></trkpt>
<trkpt lat="42.184134" lon="23.371692"><ele>2127.9</ele><time>2026-03-02T06:22:52.000Z</time></trkpt>
<trkpt lat="42.184126" lon="23.371692"><ele>2127.9</ele><time>2026-03-02T06:22:53.000Z</time></trkpt>
<trkpt lat="42.184119" lon="23.371692"><ele>2127.9</ele><time>2026-03-02T06:22:54.000Z</time></trkpt>
<trkpt lat="42.184111" lon="23.371691"><ele>2128.1</ele><time>2026-03-02T06:22:55.000Z</time></trkpt>
<trkpt lat="42.184104" lon="23.37169"><ele>2128.1</ele><time>2026-03-02T06:22:56.000Z</time></trkpt>
<trkpt lat="42.184097" lon="23.37169"><ele>2128.1</ele><time>2026-03-02T06:22:57.000Z</time></trkpt>
<trkpt lat="42.184089" lon="23.371689"><ele>2128.1</ele><time>2026-03-02T06:22:58.000Z</time></trkpt>
<trkpt lat="42.184081" lon="23.371688"><ele>2128.1</ele><time>2026-03-02T06:22:59.000Z</time></trkpt>
<trkpt lat="42.184072" lon="23.371687"><ele>2128.8</ele><time>2026-03-02T06:23:00.000Z</time></trkpt>
<trkpt lat="42.184063" lon="23.371687"><ele>2128.8</ele><time>2026-03-02T06:23:01.000Z</time></trkpt>
<trkpt lat="42.184054" lon="23.371686"><ele>2128.8</ele><time>2026-03-02T06:23:02.000Z</time></trkpt>
<trkpt lat="42.184046" lon="23.371685"><ele>2128.8</ele><time>2026-03-02T06:23:03.000Z</time></trkpt>
<trkpt lat="42.184039" lon="23.371684"><ele>2128.8</ele><time>2026-03-02T06:23:04.000Z</time></trkpt>
<trkpt lat="42.184034" lon="23.371684"><ele>2129.7</ele><time>2026-03-02T06:23:05.000Z</time></trkpt>
<trkpt lat="42.184031" lon="23.371684"><ele>2129.7</ele><time>2026-03-02T06:23:06.000Z</time></trkpt>
<trkpt lat="42.184027" lon="23.371686"><ele>2129.7</ele><time>2026-03-02T06:23:07.000Z</time></trkpt>
<trkpt lat="42.184023" lon="23.371688"><ele>2129.7</ele><time>2026-03-02T06:23:08.000Z</time></trkpt>
<trkpt lat="42.184016" lon="23.37169"><ele>2129.7</ele><time>2026-03-02T06:23:09.000Z</time></trkpt>
<trkpt lat="42.184008" lon="23.371692"><ele>2130.1</ele><time>2026-03-02T06:23:10.000Z</time></trkpt>
<trkpt lat="42.183999" lon="23.371693"><ele>2130.1</ele><time>2026-03-02T06:23:11.000Z</time></trkpt>
<trkpt lat="42.183991" lon="23.371693"><ele>2130.1</ele><time>2026-03-02T06:23:12.000Z</time></trkpt>
<trkpt lat="42.183983" lon="23.371694"><ele>2130.1</ele><time>2026-03-02T06:23:13.000Z</time></trkpt>
<trkpt lat="42.183977" lon="23.371695"><ele>2130.1</ele><time>2026-03-02T06:23:14.000Z</time></trkpt>
<trkpt lat="42.183973" lon="23.371695"><ele>2130.8</ele><time>2026-03-02T06:23:15.000Z</time></trkpt>
<trkpt lat="42.183971" lon="23.371695"><ele>2130.8</ele><time>2026-03-02T06:23:16.000Z</time></trkpt>
<trkpt lat="42.183969" lon="23.371695"><ele>2130.8</ele><time>2026-03-02T06:23:17.000Z</time></trkpt>
<trkpt lat="42.183969" lon="23.371696"><ele>2130.8</ele><time>2026-03-02T06:23:18.000Z</time></trkpt>
<trkpt lat="42.183969" lon="23.371697"><ele>2130.8</ele><time>2026-03-02T06:23:19.000Z</time></trkpt>
<trkpt lat="42.183969" lon="23.371698"><ele>2131.3</ele><time>2026-03-02T06:23:20.000Z</time></trkpt>
<trkpt lat="42.183969" lon="23.371699"><ele>2131.3</ele><time>2026-03-02T06:23:21.000Z</time></trkpt>
<trkpt lat="42.183969" lon="23.3717"><ele>2131.3</ele><time>2026-03-02T06:23:22.000Z</time></trkpt>
<trkpt lat="42.183969" lon="23.3717"><ele>2131.3</ele><time>2026-03-02T06:23:23.000Z</time></trkpt>
<trkpt lat="42.183969" lon="23.3717"><ele>2131.3</ele><time>2026-03-02T06:23:24.000Z</time></trkpt>
<trkpt lat="42.183969" lon="23.3717"><ele>2131.5</ele><time>2026-03-02T06:23:25.000Z</time></trkpt>
<trkpt lat="42.183969" lon="23.3717"><ele>2131.5</ele><time>2026-03-02T06:23:26.000Z</time></trkpt>
<trkpt lat="42.183969" lon="23.3717"><ele>2131.5</ele><time>2026-03-02T06:23:27.000Z</time></trkpt>
<trkpt lat="42.183969" lon="23.3717"><ele>2131.5</ele><time>2026-03-02T06:23:28.000Z</time></trkpt>
<trkpt lat="42.183969" lon="23.3717"><ele>2131.5</ele><time>2026-03-02T06:23:29.000Z</time></trkpt>
<trkpt lat="42.183969" lon="23.371701"><ele>2131.8</ele><time>2026-03-02T06:23:30.000Z</time></trkpt>
<trkpt lat="42.183969" lon="23.371701"><ele>2131.8</ele><time>2026-03-02T06:23:31.000Z</time></trkpt>
<trkpt lat="42.183969" lon="23.371701"><ele>2131.8</ele><time>2026-03-02T06:23:32.000Z</time></trkpt>
<trkpt lat="42.183969" lon="23.371701"><ele>2131.8</ele><time>2026-03-02T06:23:33.000Z</time></trkpt>
<trkpt lat="42.183969" lon="23.371701"><ele>2131.8</ele><time>2026-03-02T06:23:34.000Z</time></trkpt>
<trkpt lat="42.183969" lon="23.371701"><ele>2132</ele><time>2026-03-02T06:23:35.000Z</time></trkpt>
<trkpt lat="42.183969" lon="23.371701"><ele>2132</ele><time>2026-03-02T06:23:36.000Z</time></trkpt>
<trkpt lat="42.183969" lon="23.371701"><ele>2132</ele><time>2026-03-02T06:23:37.000Z</time></trkpt>
<trkpt lat="42.183969" lon="23.371701"><ele>2132</ele><time>2026-03-02T06:23:38.000Z</time></trkpt>
<trkpt lat="42.183968" lon="23.371701"><ele>2132</ele><time>2026-03-02T06:23:39.000Z</time></trkpt>
<trkpt lat="42.183968" lon="23.371701"><ele>2132</ele><time>2026-03-02T06:23:40.000Z</time></trkpt>
<trkpt lat="42.183968" lon="23.371701"><ele>2132</ele><time>2026-03-02T06:23:41.000Z</time></trkpt>
<trkpt lat="42.183967" lon="23.371701"><ele>2132</ele><time>2026-03-02T06:23:42.000Z</time></trkpt>
<trkpt lat="42.183967" lon="23.371702"><ele>2132</ele><time>2026-03-02T06:23:43.000Z</time></trkpt>
<trkpt lat="42.183967" lon="23.371704"><ele>2132</ele><time>2026-03-02T06:23:44.000Z</time></trkpt>
<trkpt lat="42.183967" lon="23.371704"><ele>2131.9</ele><time>2026-03-02T06:23:45.000Z</time></trkpt>
<trkpt lat="42.183967" lon="23.371705"><ele>2131.9</ele><time>2026-03-02T06:23:46.000Z</time></trkpt>
<trkpt lat="42.183966" lon="23.371706"><ele>2131.9</ele><time>2026-03-02T06:23:47.000Z</time></trkpt>
<trkpt lat="42.183966" lon="23.371706"><ele>2131.9</ele><time>2026-03-02T06:23:48.000Z</time></trkpt>
<trkpt lat="42.183965" lon="23.371707"><ele>2131.9</ele><time>2026-03-02T06:23:49.000Z</time></trkpt>
<trkpt lat="42.183965" lon="23.371707"><ele>2131.8</ele><time>2026-03-02T06:23:50.000Z</time></trkpt>
<trkpt lat="42.183965" lon="23.371709"><ele>2131.8</ele><time>2026-03-02T06:23:51.000Z</time></trkpt>
<trkpt lat="42.183966" lon="23.37171"><ele>2131.8</ele><time>2026-03-02T06:23:52.000Z</time></trkpt>
<trkpt lat="42.183965" lon="23.371712"><ele>2131.8</ele><time>2026-03-02T06:23:53.000Z</time></trkpt>
<trkpt lat="42.183965" lon="23.371714"><ele>2131.8</ele><time>2026-03-02T06:23:54.000Z</time></trkpt>
<trkpt lat="42.183965" lon="23.371716"><ele>2131.8</ele><time>2026-03-02T06:23:55.000Z</time></trkpt>
<trkpt lat="42.183968" lon="23.371717"><ele>2131.8</ele><time>2026-03-02T06:23:56.000Z</time></trkpt>
<trkpt lat="42.183971" lon="23.371719"><ele>2131.8</ele><time>2026-03-02T06:23:57.000Z</time></trkpt>
<trkpt lat="42.183976" lon="23.371719"><ele>2131.8</ele><time>2026-03-02T06:23:58.000Z</time></trkpt>
<trkpt lat="42.183981" lon="23.371721"><ele>2131.8</ele><time>2026-03-02T06:23:59.000Z</time></trkpt>
<trkpt lat="42.183985" lon="23.371722"><ele>2131.9</ele><time>2026-03-02T06:24:00.000Z</time></trkpt>
<trkpt lat="42.183986" lon="23.371724"><ele>2131.9</ele><time>2026-03-02T06:24:01.000Z</time></trkpt>
<trkpt lat="42.183987" lon="23.371725"><ele>2131.9</ele><time>2026-03-02T06:24:02.000Z</time></trkpt>
<trkpt lat="42.183987" lon="23.371726"><ele>2131.9</ele><time>2026-03-02T06:24:03.000Z</time></trkpt>
<trkpt lat="42.183988" lon="23.371727"><ele>2131.9</ele><time>2026-03-02T06:24:04.000Z</time></trkpt>
<trkpt lat="42.183989" lon="23.37173"><ele>2132</ele><time>2026-03-02T06:24:05.000Z</time></trkpt>
<trkpt lat="42.18399" lon="23.371732"><ele>2132</ele><time>2026-03-02T06:24:06.000Z</time></trkpt>
<trkpt lat="42.183991" lon="23.371733"><ele>2132</ele><time>2026-03-02T06:24:07.000Z</time></trkpt>
<trkpt lat="42.183992" lon="23.371734"><ele>2132</ele><time>2026-03-02T06:24:08.000Z</time></trkpt>
<trkpt lat="42.183993" lon="23.371734"><ele>2132</ele><time>2026-03-02T06:24:09.000Z</time></trkpt>
<trkpt lat="42.183991" lon="23.371734"><ele>2131.9</ele><time>2026-03-02T06:24:10.000Z</time></trkpt>
<trkpt lat="42.183991" lon="23.371735"><ele>2131.9</ele><time>2026-03-02T06:24:11.000Z</time></trkpt>
<trkpt lat="42.18399" lon="23.371737"><ele>2131.9</ele><time>2026-03-02T06:24:12.000Z</time></trkpt>
<trkpt lat="42.18399" lon="23.37174"><ele>2131.9</ele><time>2026-03-02T06:24:13.000Z</time></trkpt>
<trkpt lat="42.183989" lon="23.371743"><ele>2131.9</ele><time>2026-03-02T06:24:14.000Z</time></trkpt>
<trkpt lat="42.183989" lon="23.371747"><ele>2131.9</ele><time>2026-03-02T06:24:15.000Z</time></trkpt>
<trkpt lat="42.183989" lon="23.37175"><ele>2131.9</ele><time>2026-03-02T06:24:16.000Z</time></trkpt>
<trkpt lat="42.183988" lon="23.371752"><ele>2131.9</ele><time>2026-03-02T06:24:17.000Z</time></trkpt>
<trkpt lat="42.183987" lon="23.371753"><ele>2131.9</ele><time>2026-03-02T06:24:18.000Z</time></trkpt>
<trkpt lat="42.183986" lon="23.371755"><ele>2131.9</ele><time>2026-03-02T06:24:19.000Z</time></trkpt>
<trkpt lat="42.183986" lon="23.371757"><ele>2131.9</ele><time>2026-03-02T06:24:20.000Z</time></trkpt>
<trkpt lat="42.183986" lon="23.371758"><ele>2131.9</ele><time>2026-03-02T06:24:21.000Z</time></trkpt>
<trkpt lat="42.183986" lon="23.371758"><ele>2131.9</ele><time>2026-03-02T06:24:22.000Z</time></trkpt>
<trkpt lat="42.183986" lon="23.371758"><ele>2131.9</ele><time>2026-03-02T06:24:23.000Z</time></trkpt>
<trkpt lat="42.183985" lon="23.371758"><ele>2131.9</ele><time>2026-03-02T06:24:24.000Z</time></trkpt>
<trkpt lat="42.183985" lon="23.371759"><ele>2132</ele><time>2026-03-02T06:24:25.000Z</time></trkpt>
<trkpt lat="42.183985" lon="23.371759"><ele>2132</ele><time>2026-03-02T06:24:26.000Z</time></trkpt>
<trkpt lat="42.183985" lon="23.37176"><ele>2132</ele><time>2026-03-02T06:24:27.000Z</time></trkpt>
<trkpt lat="42.183985" lon="23.37176"><ele>2132</ele><time>2026-03-02T06:24:28.000Z</time></trkpt>
<trkpt lat="42.183985" lon="23.37176"><ele>2132</ele><time>2026-03-02T06:24:29.000Z</time></trkpt>
<trkpt lat="42.183984" lon="23.37176"><ele>2132.3</ele><time>2026-03-02T06:24:30.000Z</time></trkpt>
<trkpt lat="42.183985" lon="23.37176"><ele>2132.3</ele><time>2026-03-02T06:24:31.000Z</time></trkpt>
<trkpt lat="42.183985" lon="23.37176"><ele>2132.3</ele><time>2026-03-02T06:24:32.000Z</time></trkpt>
<trkpt lat="42.183984" lon="23.37176"><ele>2132.3</ele><time>2026-03-02T06:24:33.000Z</time></trkpt>
<trkpt lat="42.183985" lon="23.371759"><ele>2132.3</ele><time>2026-03-02T06:24:34.000Z</time></trkpt>
<trkpt lat="42.183985" lon="23.371759"><ele>2132.3</ele><time>2026-03-02T06:24:35.000Z</time></trkpt>
<trkpt lat="42.183986" lon="23.371759"><ele>2132.3</ele><time>2026-03-02T06:24:36.000Z</time></trkpt>
<trkpt lat="42.183987" lon="23.37176"><ele>2132.3</ele><time>2026-03-02T06:24:37.000Z</time></trkpt>
<trkpt lat="42.183988" lon="23.37176"><ele>2132.3</ele><time>2026-03-02T06:24:38.000Z</time></trkpt>
<trkpt lat="42.183988" lon="23.371762"><ele>2132.3</ele><time>2026-03-02T06:24:39.000Z</time></trkpt>
<trkpt lat="42.183989" lon="23.371764"><ele>2132.4</ele><time>2026-03-02T06:24:40.000Z</time></trkpt>
<trkpt lat="42.18399" lon="23.371764"><ele>2132.4</ele><time>2026-03-02T06:24:41.000Z</time></trkpt>
<trkpt lat="42.183991" lon="23.371765"><ele>2132.4</ele><time>2026-03-02T06:24:42.000Z</time></trkpt>
<trkpt lat="42.183992" lon="23.371766"><ele>2132.4</ele><time>2026-03-02T06:24:43.000Z</time></trkpt>
<trkpt lat="42.183993" lon="23.371767"><ele>2132.4</ele><time>2026-03-02T06:24:44.000Z</time></trkpt>
<trkpt lat="42.183993" lon="23.371769"><ele>2132.3</ele><time>2026-03-02T06:24:45.000Z</time></trkpt>
<trkpt lat="42.183993" lon="23.37177"><ele>2132.3</ele><time>2026-03-02T06:24:46.000Z</time></trkpt>
<trkpt lat="42.183993" lon="23.371771"><ele>2132.3</ele><time>2026-03-02T06:24:47.000Z</time></trkpt>
<trkpt lat="42.183993" lon="23.371772"><ele>2132.3</ele><time>2026-03-02T06:24:48.000Z</time></trkpt>
<trkpt lat="42.183992" lon="23.371773"><ele>2132.3</ele><time>2026-03-02T06:24:49.000Z</time></trkpt>
<trkpt lat="42.183992" lon="23.371773"><ele>2132.2</ele><time>2026-03-02T06:24:50.000Z</time></trkpt>
<trkpt lat="42.183992" lon="23.371773"><ele>2132.2</ele><time>2026-03-02T06:24:51.000Z</time></trkpt>
<trkpt lat="42.183992" lon="23.371773"><ele>2132.2</ele><time>2026-03-02T06:24:52.000Z</time></trkpt>
<trkpt lat="42.183992" lon="23.371773"><ele>2132.2</ele><time>2026-03-02T06:24:53.000Z</time></trkpt>
<trkpt lat="42.183992" lon="23.371773"><ele>2132.2</ele><time>2026-03-02T06:24:54.000Z</time></trkpt>
<trkpt lat="42.183992" lon="23.371773"><ele>2132.1</ele><time>2026-03-02T06:24:55.000Z</time></trkpt>
<trkpt lat="42.183992" lon="23.371773"><ele>2132.1</ele><time>2026-03-02T06:24:56.000Z</time></trkpt>
<trkpt lat="42.183992" lon="23.371773"><ele>2132.1</ele><time>2026-03-02T06:24:57.000Z</time></trkpt>
<trkpt lat="42.183992" lon="23.371773"><ele>2132.1</ele><time>2026-03-02T06:24:58.000Z</time></trkpt>
<trkpt lat="42.183992" lon="23.371773"><ele>2132.1</ele><time>2026-03-02T06:24:59.000Z</time></trkpt>
<trkpt lat="42.183993" lon="23.371773"><ele>2132</ele><time>2026-03-02T06:25:00.000Z</time></trkpt>
<trkpt lat="42.183993" lon="23.371772"><ele>2132</ele><time>2026-03-02T06:25:01.000Z</time></trkpt>
<trkpt lat="42.183993" lon="23.371772"><ele>2132</ele><time>2026-03-02T06:25:02.000Z</time></trkpt>
<trkpt lat="42.183993" lon="23.371771"><ele>2132</ele><time>2026-03-02T06:25:03.000Z</time></trkpt>
<trkpt lat="42.183993" lon="23.37177"><ele>2132</ele><time>2026-03-02T06:25:04.000Z</time></trkpt>
<trkpt lat="42.183994" lon="23.37177"><ele>2132</ele><time>2026-03-02T06:25:05.000Z</time></trkpt>
<trkpt lat="42.183994" lon="23.37177"><ele>2132</ele><time>2026-03-02T06:25:06.000Z</time></trkpt>
<trkpt lat="42.183995" lon="23.37177"><ele>2132</ele><time>2026-03-02T06:25:07.000Z</time></trkpt>
<trkpt lat="42.183995" lon="23.371769"><ele>2132</ele><time>2026-03-02T06:25:08.000Z</time></trkpt>
<trkpt lat="42.183995" lon="23.371769"><ele>2132</ele><time>2026-03-02T06:25:09.000Z</time></trkpt>
<trkpt lat="42.183996" lon="23.371769"><ele>2132</ele><time>2026-03-02T06:25:10.000Z</time></trkpt>
<trkpt lat="42.183995" lon="23.371768"><ele>2132</ele><time>2026-03-02T06:25:11.000Z</time></trkpt>
<trkpt lat="42.183995" lon="23.371767"><ele>2132</ele><time>2026-03-02T06:25:12.000Z</time></trkpt>
<trkpt lat="42.183994" lon="23.371767"><ele>2132</ele><time>2026-03-02T06:25:13.000Z</time></trkpt>
<trkpt lat="42.183993" lon="23.371767"><ele>2132</ele><time>2026-03-02T06:25:14.000Z</time></trkpt>
<trkpt lat="42.183992" lon="23.371766"><ele>2132.1</ele><time>2026-03-02T06:25:15.000Z</time></trkpt>
<trkpt lat="42.183992" lon="23.371765"><ele>2132.1</ele><time>2026-03-02T06:25:16.000Z</time></trkpt>
<trkpt lat="42.183992" lon="23.371763"><ele>2132.1</ele><time>2026-03-02T06:25:17.000Z</time></trkpt>
<trkpt lat="42.183992" lon="23.371762"><ele>2132.1</ele><time>2026-03-02T06:25:18.000Z</time></trkpt>
<trkpt lat="42.183992" lon="23.371761"><ele>2132.1</ele><time>2026-03-02T06:25:19.000Z</time></trkpt>
<trkpt lat="42.183992" lon="23.37176"><ele>2132.2</ele><time>2026-03-02T06:25:20.000Z</time></trkpt>
<trkpt lat="42.183992" lon="23.37176"><ele>2132.2</ele><time>2026-03-02T06:25:21.000Z</time></trkpt>
<trkpt lat="42.18399" lon="23.371759"><ele>2132.2</ele><time>2026-03-02T06:25:22.000Z</time></trkpt>
<trkpt lat="42.18399" lon="23.371759"><ele>2132.2</ele><time>2026-03-02T06:25:23.000Z</time></trkpt>
<trkpt lat="42.183989" lon="23.371759"><ele>2132.2</ele><time>2026-03-02T06:25:24.000Z</time></trkpt>
<trkpt lat="42.183989" lon="23.371758"><ele>2132.1</ele><time>2026-03-02T06:25:25.000Z</time></trkpt>
<trkpt lat="42.183989" lon="23.371758"><ele>2132.1</ele><time>2026-03-02T06:25:26.000Z</time></trkpt>
<trkpt lat="42.183989" lon="23.371758"><ele>2132.1</ele><time>2026-03-02T06:25:27.000Z</time></trkpt>
<trkpt lat="42.183989" lon="23.371758"><ele>2132.1</ele><time>2026-03-02T06:25:28.000Z</time></trkpt>
<trkpt lat="42.183989" lon="23.371758"><ele>2132.1</ele><time>2026-03-02T06:25:29.000Z</time></trkpt>
<trkpt lat="42.183989" lon="23.371758"><ele>2132</ele><time>2026-03-02T06:25:30.000Z</time></trkpt>
<trkpt lat="42.183989" lon="23.371758"><ele>2132</ele><time>2026-03-02T06:25:31.000Z</time></trkpt>
<trkpt lat="42.183989" lon="23.371758"><ele>2132</ele><time>2026-03-02T06:25:32.000Z</time></trkpt>
<trkpt lat="42.183989" lon="23.371758"><ele>2132</ele><time>2026-03-02T06:25:33.000Z</time></trkpt>
<trkpt lat="42.183989" lon="23.371758"><ele>2132</ele><time>2026-03-02T06:25:34.000Z</time></trkpt>
<trkpt lat="42.183989" lon="23.371758"><ele>2132</ele><time>2026-03-02T06:25:35.000Z</time></trkpt>
<trkpt lat="42.183989" lon="23.371758"><ele>2132</ele><time>2026-03-02T06:25:36.000Z</time></trkpt>
<trkpt lat="42.18399" lon="23.371759"><ele>2132</ele><time>2026-03-02T06:25:37.000Z</time></trkpt>
<trkpt lat="42.18399" lon="23.371759"><ele>2132</ele><time>2026-03-02T06:25:38.000Z</time></trkpt>
<trkpt lat="42.183991" lon="23.371759"><ele>2132</ele><time>2026-03-02T06:25:39.000Z</time></trkpt>
<trkpt lat="42.183992" lon="23.371759"><ele>2132</ele><time>2026-03-02T06:25:40.000Z</time></trkpt>
<trkpt lat="42.183992" lon="23.371759"><ele>2132</ele><time>2026-03-02T06:25:41.000Z</time></trkpt>
<trkpt lat="42.183993" lon="23.371759"><ele>2132</ele><time>2026-03-02T06:25:42.000Z</time></trkpt>
<trkpt lat="42.183995" lon="23.371759"><ele>2132</ele><time>2026-03-02T06:25:43.000Z</time></trkpt>
<trkpt lat="42.183996" lon="23.371759"><ele>2132</ele><time>2026-03-02T06:25:44.000Z</time></trkpt>
<trkpt lat="42.183998" lon="23.37176"><ele>2132.1</ele><time>2026-03-02T06:25:45.000Z</time></trkpt>
<trkpt lat="42.184" lon="23.37176"><ele>2132.1</ele><time>2026-03-02T06:25:46.000Z</time></trkpt>
<trkpt lat="42.184001" lon="23.371761"><ele>2132.1</ele><time>2026-03-02T06:25:47.000Z</time></trkpt>
<trkpt lat="42.184002" lon="23.371761"><ele>2132.1</ele><time>2026-03-02T06:25:48.000Z</time></trkpt>
<trkpt lat="42.184002" lon="23.371762"><ele>2132.1</ele><time>2026-03-02T06:25:49.000Z</time></trkpt>
<trkpt lat="42.184002" lon="23.371762"><ele>2132.1</ele><time>2026-03-02T06:25:50.000Z</time></trkpt>
<trkpt lat="42.184003" lon="23.371762"><ele>2132.1</ele><time>2026-03-02T06:25:51.000Z</time></trkpt>
<trkpt lat="42.184003" lon="23.371762"><ele>2132.1</ele><time>2026-03-02T06:25:52.000Z</time></trkpt>
<trkpt lat="42.184003" lon="23.371762"><ele>2132.1</ele><time>2026-03-02T06:25:53.000Z</time></trkpt>
<trkpt lat="42.184002" lon="23.371764"><ele>2132.1</ele><time>2026-03-02T06:25:54.000Z</time></trkpt>
<trkpt lat="42.184001" lon="23.371766"><ele>2132.1</ele><time>2026-03-02T06:25:55.000Z</time></trkpt>
<trkpt lat="42.184" lon="23.371767"><ele>2132.1</ele><time>2026-03-02T06:25:56.000Z</time></trkpt>
<trkpt lat="42.183999" lon="23.37177"><ele>2132.1</ele><time>2026-03-02T06:25:57.000Z</time></trkpt>
<trkpt lat="42.183998" lon="23.371772"><ele>2132.1</ele><time>2026-03-02T06:25:58.000Z</time></trkpt>
<trkpt lat="42.183997" lon="23.371773"><ele>2132.1</ele><time>2026-03-02T06:25:59.000Z</time></trkpt>
<trkpt lat="42.183996" lon="23.371774"><ele>2132</ele><time>2026-03-02T06:26:00.000Z</time></trkpt>
<trkpt lat="42.183996" lon="23.371775"><ele>2132</ele><time>2026-03-02T06:26:01.000Z</time></trkpt>
<trkpt lat="42.183995" lon="23.371775"><ele>2132</ele><time>2026-03-02T06:26:02.000Z</time></trkpt>
<trkpt lat="42.183995" lon="23.371776"><ele>2132</ele><time>2026-03-02T06:26:03.000Z</time></trkpt>
<trkpt lat="42.183996" lon="23.371777"><ele>2132</ele><time>2026-03-02T06:26:04.000Z</time></trkpt>
<trkpt lat="42.183997" lon="23.371777"><ele>2132</ele><time>2026-03-02T06:26:05.000Z</time></trkpt>
<trkpt lat="42.183999" lon="23.371777"><ele>2132</ele><time>2026-03-02T06:26:06.000Z</time></trkpt>
<trkpt lat="42.184" lon="23.371777"><ele>2132</ele><time>2026-03-02T06:26:07.000Z</time></trkpt>
<trkpt lat="42.184001" lon="23.371776"><ele>2132</ele><time>2026-03-02T06:26:08.000Z</time></trkpt>
<trkpt lat="42.184001" lon="23.371776"><ele>2132</ele><time>2026-03-02T06:26:09.000Z</time></trkpt>
<trkpt lat="42.184002" lon="23.371776"><ele>2132.1</ele><time>2026-03-02T06:26:10.000Z</time></trkpt>
<trkpt lat="42.184002" lon="23.371776"><ele>2132.1</ele><time>2026-03-02T06:26:11.000Z</time></trkpt>
<trkpt lat="42.184002" lon="23.371776"><ele>2132.1</ele><time>2026-03-02T06:26:12.000Z</time></trkpt>
<trkpt lat="42.184002" lon="23.371776"><ele>2132.1</ele><time>2026-03-02T06:26:13.000Z</time></trkpt>
<trkpt lat="42.184002" lon="23.371776"><ele>2132.1</ele><time>2026-03-02T06:26:14.000Z</time></trkpt>
<trkpt lat="42.184002" lon="23.371776"><ele>2132.1</ele><time>2026-03-02T06:26:15.000Z</time></trkpt>
<trkpt lat="42.184002" lon="23.371776"><ele>2132.1</ele><time>2026-03-02T06:26:16.000Z</time></trkpt>
<trkpt lat="42.184002" lon="23.371776"><ele>2132.1</ele><time>2026-03-02T06:26:17.000Z</time></trkpt>
<trkpt lat="42.184002" lon="23.371776"><ele>2132.1</ele><time>2026-03-02T06:26:18.000Z</time></trkpt>
<trkpt lat="42.184002" lon="23.371776"><ele>2132.1</ele><time>2026-03-02T06:26:19.000Z</time></trkpt>
<trkpt lat="42.184001" lon="23.371776"><ele>2132</ele><time>2026-03-02T06:26:20.000Z</time></trkpt>
<trkpt lat="42.184002" lon="23.371775"><ele>2132</ele><time>2026-03-02T06:26:21.000Z</time></trkpt>
<trkpt lat="42.184002" lon="23.371775"><ele>2132</ele><time>2026-03-02T06:26:22.000Z</time></trkpt>
<trkpt lat="42.184003" lon="23.371775"><ele>2132</ele><time>2026-03-02T06:26:23.000Z</time></trkpt>
<trkpt lat="42.184004" lon="23.371775"><ele>2132</ele><time>2026-03-02T06:26:24.000Z</time></trkpt>
<trkpt lat="42.184005" lon="23.371775"><ele>2131.9</ele><time>2026-03-02T06:26:25.000Z</time></trkpt>
<trkpt lat="42.184005" lon="23.371775"><ele>2131.9</ele><time>2026-03-02T06:26:26.000Z</time></trkpt>
<trkpt lat="42.184004" lon="23.371776"><ele>2131.9</ele><time>2026-03-02T06:26:27.000Z</time></trkpt>
<trkpt lat="42.184002" lon="23.371776"><ele>2131.9</ele><time>2026-03-02T06:26:28.000Z</time></trkpt>
<trkpt lat="42.183999" lon="23.371777"><ele>2131.9</ele><time>2026-03-02T06:26:29.000Z</time></trkpt>
<trkpt lat="42.183995" lon="23.371778"><ele>2132</ele><time>2026-03-02T06:26:30.000Z</time></trkpt>
<trkpt lat="42.183988" lon="23.37178"><ele>2132</ele><time>2026-03-02T06:26:31.000Z</time></trkpt>
<trkpt lat="42.18398" lon="23.371781"><ele>2132</ele><time>2026-03-02T06:26:32.000Z</time></trkpt>
<trkpt lat="42.18397" lon="23.371783"><ele>2132</ele><time>2026-03-02T06:26:33.000Z</time></trkpt>
<trkpt lat="42.183959" lon="23.371785"><ele>2132</ele><time>2026-03-02T06:26:34.000Z</time></trkpt>
<trkpt lat="42.183947" lon="23.371786"><ele>2132.2</ele><time>2026-03-02T06:26:35.000Z</time></trkpt>
<trkpt lat="42.183936" lon="23.371788"><ele>2132.2</ele><time>2026-03-02T06:26:36.000Z</time></trkpt>
<trkpt lat="42.183925" lon="23.371789"><ele>2132.2</ele><time>2026-03-02T06:26:37.000Z</time></trkpt>
<trkpt lat="42.183916" lon="23.371791"><ele>2132.2</ele><time>2026-03-02T06:26:38.000Z</time></trkpt>
<trkpt lat="42.183906" lon="23.371793"><ele>2132.2</ele><time>2026-03-02T06:26:39.000Z</time></trkpt>
<trkpt lat="42.183896" lon="23.371796"><ele>2132.4</ele><time>2026-03-02T06:26:40.000Z</time></trkpt>
<trkpt lat="42.183886" lon="23.371799"><ele>2132.4</ele><time>2026-03-02T06:26:41.000Z</time></trkpt>
<trkpt lat="42.183875" lon="23.371803"><ele>2132.4</ele><time>2026-03-02T06:26:42.000Z</time></trkpt>
<trkpt lat="42.183863" lon="23.371806"><ele>2132.4</ele><time>2026-03-02T06:26:43.000Z</time></trkpt>
<trkpt lat="42.183852" lon="23.371809"><ele>2132.4</ele><time>2026-03-02T06:26:44.000Z</time></trkpt>
<trkpt lat="42.183841" lon="23.371812"><ele>2132.5</ele><time>2026-03-02T06:26:45.000Z</time></trkpt>
<trkpt lat="42.18383" lon="23.371816"><ele>2132.5</ele><time>2026-03-02T06:26:46.000Z</time></trkpt>
<trkpt lat="42.183818" lon="23.37182"><ele>2132.5</ele><time>2026-03-02T06:26:47.000Z</time></trkpt>
<trkpt lat="42.183807" lon="23.371823"><ele>2132.5</ele><time>2026-03-02T06:26:48.000Z</time></trkpt>
<trkpt lat="42.183796" lon="23.371826"><ele>2132.5</ele><time>2026-03-02T06:26:49.000Z</time></trkpt>
<trkpt lat="42.183784" lon="23.371828"><ele>2132.6</ele><time>2026-03-02T06:26:50.000Z</time></trkpt>
<trkpt lat="42.183773" lon="23.371831"><ele>2132.6</ele><time>2026-03-02T06:26:51.000Z</time></trkpt>
<trkpt lat="42.183762" lon="23.371833"><ele>2132.6</ele><time>2026-03-02T06:26:52.000Z</time></trkpt>
<trkpt lat="42.18375" lon="23.371835"><ele>2132.6</ele><time>2026-03-02T06:26:53.000Z</time></trkpt>
<trkpt lat="42.18374" lon="23.371837"><ele>2132.6</ele><time>2026-03-02T06:26:54.000Z</time></trkpt>
<trkpt lat="42.183729" lon="23.371839"><ele>2132.6</ele><time>2026-03-02T06:26:55.000Z</time></trkpt>
<trkpt lat="42.183719" lon="23.371842"><ele>2132.6</ele><time>2026-03-02T06:26:56.000Z</time></trkpt>
<trkpt lat="42.18371" lon="23.371845"><ele>2132.6</ele><time>2026-03-02T06:26:57.000Z</time></trkpt>
<trkpt lat="42.183701" lon="23.371848"><ele>2132.6</ele><time>2026-03-02T06:26:58.000Z</time></trkpt>
<trkpt lat="42.183693" lon="23.371852"><ele>2132.6</ele><time>2026-03-02T06:26:59.000Z</time></trkpt>
<trkpt lat="42.183684" lon="23.371856"><ele>2132.9</ele><time>2026-03-02T06:27:00.000Z</time></trkpt>
<trkpt lat="42.183675" lon="23.37186"><ele>2132.9</ele><time>2026-03-02T06:27:01.000Z</time></trkpt>
<trkpt lat="42.183667" lon="23.371863"><ele>2132.9</ele><time>2026-03-02T06:27:02.000Z</time></trkpt>
<trkpt lat="42.183659" lon="23.371865"><ele>2132.9</ele><time>2026-03-02T06:27:03.000Z</time></trkpt>
<trkpt lat="42.18365" lon="23.371868"><ele>2132.9</ele><time>2026-03-02T06:27:04.000Z</time></trkpt>
<trkpt lat="42.183641" lon="23.371871"><ele>2133.2</ele><time>2026-03-02T06:27:05.000Z</time></trkpt>
<trkpt lat="42.183632" lon="23.371874"><ele>2133.2</ele><time>2026-03-02T06:27:06.000Z</time></trkpt>
<trkpt lat="42.183622" lon="23.371877"><ele>2133.2</ele><time>2026-03-02T06:27:07.000Z</time></trkpt>
<trkpt lat="42.183613" lon="23.37188"><ele>2133.2</ele><time>2026-03-02T06:27:08.000Z</time></trkpt>
<trkpt lat="42.183603" lon="23.371882"><ele>2133.2</ele><time>2026-03-02T06:27:09.000Z</time></trkpt>
<trkpt lat="42.183595" lon="23.371884"><ele>2133.3</ele><time>2026-03-02T06:27:10.000Z</time></trkpt>
<trkpt lat="42.183586" lon="23.371887"><ele>2133.3</ele><time>2026-03-02T06:27:11.000Z</time></trkpt>
<trkpt lat="42.183578" lon="23.371888"><ele>2133.3</ele><time>2026-03-02T06:27:12.000Z</time></trkpt>
<trkpt lat="42.183569" lon="23.371889"><ele>2133.3</ele><time>2026-03-02T06:27:13.000Z</time></trkpt>
<trkpt lat="42.183561" lon="23.371891"><ele>2133.3</ele><time>2026-03-02T06:27:14.000Z</time></trkpt>
<trkpt lat="42.183553" lon="23.371892"><ele>2133.5</ele><time>2026-03-02T06:27:15.000Z</time></trkpt>
<trkpt lat="42.183544" lon="23.371893"><ele>2133.5</ele><time>2026-03-02T06:27:16.000Z</time></trkpt>
<trkpt lat="42.183536" lon="23.371896"><ele>2133.5</ele><time>2026-03-02T06:27:17.000Z</time></trkpt>
<trkpt lat="42.183527" lon="23.371899"><ele>2133.5</ele><time>2026-03-02T06:27:18.000Z</time></trkpt>
<trkpt lat="42.183518" lon="23.371902"><ele>2133.5</ele><time>2026-03-02T06:27:19.000Z</time></trkpt>
<trkpt lat="42.183508" lon="23.371905"><ele>2133.8</ele><time>2026-03-02T06:27:20.000Z</time></trkpt>
<trkpt lat="42.183498" lon="23.371908"><ele>2133.8</ele><time>2026-03-02T06:27:21.000Z</time></trkpt>
<trkpt lat="42.183487" lon="23.371912"><ele>2133.8</ele><time>2026-03-02T06:27:22.000Z</time></trkpt>
<trkpt lat="42.183477" lon="23.371914"><ele>2133.8</ele><time>2026-03-02T06:27:23.000Z</time></trkpt>
<trkpt lat="42.183466" lon="23.371917"><ele>2133.8</ele><time>2026-03-02T06:27:24.000Z</time></trkpt>
<trkpt lat="42.183456" lon="23.37192"><ele>2133.9</ele><time>2026-03-02T06:27:25.000Z</time></trkpt>
<trkpt lat="42.183445" lon="23.371923"><ele>2133.9</ele><time>2026-03-02T06:27:26.000Z</time></trkpt>
<trkpt lat="42.183435" lon="23.371927"><ele>2133.9</ele><time>2026-03-02T06:27:27.000Z</time></trkpt>
<trkpt lat="42.183425" lon="23.371931"><ele>2133.9</ele><time>2026-03-02T06:27:28.000Z</time></trkpt>
<trkpt lat="42.183415" lon="23.371934"><ele>2133.9</ele><time>2026-03-02T06:27:29.000Z</time></trkpt>
<trkpt lat="42.183405" lon="23.371938"><ele>2134.1</ele><time>2026-03-02T06:27:30.000Z</time></trkpt>
<trkpt lat="42.183395" lon="23.371942"><ele>2134.1</ele><time>2026-03-02T06:27:31.000Z</time></trkpt>
<trkpt lat="42.183383" lon="23.371946"><ele>2134.1</ele><time>2026-03-02T06:27:32.000Z</time></trkpt>
<trkpt lat="42.183373" lon="23.371949"><ele>2134.1</ele><time>2026-03-02T06:27:33.000Z</time></trkpt>
<trkpt lat="42.183362" lon="23.371952"><ele>2134.1</ele><time>2026-03-02T06:27:34.000Z</time></trkpt>
<trkpt lat="42.183351" lon="23.371955"><ele>2134.3</ele><time>2026-03-02T06:27:35.000Z</time></trkpt>
<trkpt lat="42.183341" lon="23.371956"><ele>2134.3</ele><time>2026-03-02T06:27:36.000Z</time></trkpt>
<trkpt lat="42.183332" lon="23.371957"><ele>2134.3</ele><time>2026-03-02T06:27:37.000Z</time></trkpt>
<trkpt lat="42.183321" lon="23.371957"><ele>2134.3</ele><time>2026-03-02T06:27:38.000Z</time></trkpt>
<trkpt lat="42.18331" lon="23.371957"><ele>2134.3</ele><time>2026-03-02T06:27:39.000Z</time></trkpt>
<trkpt lat="42.183299" lon="23.371958"><ele>2134.4</ele><time>2026-03-02T06:27:40.000Z</time></trkpt>
<trkpt lat="42.183288" lon="23.371959"><ele>2134.4</ele><time>2026-03-02T06:27:41.000Z</time></trkpt>
<trkpt lat="42.183277" lon="23.371961"><ele>2134.4</ele><time>2026-03-02T06:27:42.000Z</time></trkpt>
<trkpt lat="42.183267" lon="23.371964"><ele>2134.4</ele><time>2026-03-02T06:27:43.000Z</time></trkpt>
<trkpt lat="42.183258" lon="23.371968"><ele>2134.4</ele><time>2026-03-02T06:27:44.000Z</time></trkpt>
<trkpt lat="42.18325" lon="23.371971"><ele>2134.6</ele><time>2026-03-02T06:27:45.000Z</time></trkpt>
<trkpt lat="42.183241" lon="23.371976"><ele>2134.6</ele><time>2026-03-02T06:27:46.000Z</time></trkpt>
<trkpt lat="42.183232" lon="23.371981"><ele>2134.6</ele><time>2026-03-02T06:27:47.000Z</time></trkpt>
<trkpt lat="42.183223" lon="23.371986"><ele>2134.6</ele><time>2026-03-02T06:27:48.000Z</time></trkpt>
<trkpt lat="42.183213" lon="23.37199"><ele>2134.6</ele><time>2026-03-02T06:27:49.000Z</time></trkpt>
<trkpt lat="42.183203" lon="23.371995"><ele>2134.8</ele><time>2026-03-02T06:27:50.000Z</time></trkpt>
<trkpt lat="42.183192" lon="23.371998"><ele>2134.8</ele><time>2026-03-02T06:27:51.000Z</time></trkpt>
<trkpt lat="42.183182" lon="23.372"><ele>2134.8</ele><time>2026-03-02T06:27:52.000Z</time></trkpt>
<trkpt lat="42.183171" lon="23.372004"><ele>2134.8</ele><time>2026-03-02T06:27:53.000Z</time></trkpt>
<trkpt lat="42.183161" lon="23.372007"><ele>2134.8</ele><time>2026-03-02T06:27:54.000Z</time></trkpt>
<trkpt lat="42.183151" lon="23.372011"><ele>2134.8</ele><time>2026-03-02T06:27:55.000Z</time></trkpt>
<trkpt lat="42.183141" lon="23.372015"><ele>2134.8</ele><time>2026-03-02T06:27:56.000Z</time></trkpt>
<trkpt lat="42.183132" lon="23.372019"><ele>2134.8</ele><time>2026-03-02T06:27:57.000Z</time></trkpt>
<trkpt lat="42.183123" lon="23.372023"><ele>2134.8</ele><time>2026-03-02T06:27:58.000Z</time></trkpt>
<trkpt lat="42.183113" lon="23.372026"><ele>2134.8</ele><time>2026-03-02T06:27:59.000Z</time></trkpt>
<trkpt lat="42.183102" lon="23.372031"><ele>2134.9</ele><time>2026-03-02T06:28:00.000Z</time></trkpt>
<trkpt lat="42.183091" lon="23.372037"><ele>2134.9</ele><time>2026-03-02T06:28:01.000Z</time></trkpt>
<trkpt lat="42.18308" lon="23.372042"><ele>2134.9</ele><time>2026-03-02T06:28:02.000Z</time></trkpt>
<trkpt lat="42.183069" lon="23.372049"><ele>2134.9</ele><time>2026-03-02T06:28:03.000Z</time></trkpt>
<trkpt lat="42.183059" lon="23.372054"><ele>2134.9</ele><time>2026-03-02T06:28:04.000Z</time></trkpt>
<trkpt lat="42.18305" lon="23.37206"><ele>2135.1</ele><time>2026-03-02T06:28:05.000Z</time></trkpt>
<trkpt lat="42.183042" lon="23.372065"><ele>2135.1</ele><time>2026-03-02T06:28:06.000Z</time></trkpt>
<trkpt lat="42.183034" lon="23.372071"><ele>2135.1</ele><time>2026-03-02T06:28:07.000Z</time></trkpt>
<trkpt lat="42.183026" lon="23.372078"><ele>2135.1</ele><time>2026-03-02T06:28:08.000Z</time></trkpt>
<trkpt lat="42.183017" lon="23.372085"><ele>2135.1</ele><time>2026-03-02T06:28:09.000Z</time></trkpt>
<trkpt lat="42.183008" lon="23.372092"><ele>2135.2</ele><time>2026-03-02T06:28:10.000Z</time></trkpt>
<trkpt lat="42.182999" lon="23.372099"><ele>2135.2</ele><time>2026-03-02T06:28:11.000Z</time></trkpt>
<trkpt lat="42.182989" lon="23.372105"><ele>2135.2</ele><time>2026-03-02T06:28:12.000Z</time></trkpt>
<trkpt lat="42.182982" lon="23.372112"><ele>2135.2</ele><time>2026-03-02T06:28:13.000Z</time></trkpt>
<trkpt lat="42.182975" lon="23.372119"><ele>2135.2</ele><time>2026-03-02T06:28:14.000Z</time></trkpt>
<trkpt lat="42.182968" lon="23.372125"><ele>2135.6</ele><time>2026-03-02T06:28:15.000Z</time></trkpt>
<trkpt lat="42.182961" lon="23.372132"><ele>2135.6</ele><time>2026-03-02T06:28:16.000Z</time></trkpt>
<trkpt lat="42.182954" lon="23.37214"><ele>2135.6</ele><time>2026-03-02T06:28:17.000Z</time></trkpt>
<trkpt lat="42.182947" lon="23.372147"><ele>2135.6</ele><time>2026-03-02T06:28:18.000Z</time></trkpt>
<trkpt lat="42.18294" lon="23.372155"><ele>2135.6</ele><time>2026-03-02T06:28:19.000Z</time></trkpt>
<trkpt lat="42.182934" lon="23.372162"><ele>2135.9</ele><time>2026-03-02T06:28:20.000Z</time></trkpt>
<trkpt lat="42.182927" lon="23.372169"><ele>2135.9</ele><time>2026-03-02T06:28:21.000Z</time></trkpt>
<trkpt lat="42.182921" lon="23.372177"><ele>2135.9</ele><time>2026-03-02T06:28:22.000Z</time></trkpt>
<trkpt lat="42.182915" lon="23.372184"><ele>2135.9</ele><time>2026-03-02T06:28:23.000Z</time></trkpt>
<trkpt lat="42.182909" lon="23.372191"><ele>2135.9</ele><time>2026-03-02T06:28:24.000Z</time></trkpt>
<trkpt lat="42.182903" lon="23.372198"><ele>2136</ele><time>2026-03-02T06:28:25.000Z</time></trkpt>
<trkpt lat="42.182897" lon="23.372206"><ele>2136</ele><time>2026-03-02T06:28:26.000Z</time></trkpt>
<trkpt lat="42.182891" lon="23.372214"><ele>2136</ele><time>2026-03-02T06:28:27.000Z</time></trkpt>
<trkpt lat="42.182883" lon="23.372224"><ele>2136</ele><time>2026-03-02T06:28:28.000Z</time></trkpt>
<trkpt lat="42.182876" lon="23.372233"><ele>2136</ele><time>2026-03-02T06:28:29.000Z</time></trkpt>
<trkpt lat="42.182869" lon="23.372243"><ele>2136.4</ele><time>2026-03-02T06:28:30.000Z</time></trkpt>
<trkpt lat="42.182861" lon="23.372252"><ele>2136.4</ele><time>2026-03-02T06:28:31.000Z</time></trkpt>
<trkpt lat="42.182854" lon="23.37226"><ele>2136.4</ele><time>2026-03-02T06:28:32.000Z</time></trkpt>
<trkpt lat="42.182847" lon="23.372267"><ele>2136.4</ele><time>2026-03-02T06:28:33.000Z</time></trkpt>
<trkpt lat="42.18284" lon="23.372272"><ele>2136.4</ele><time>2026-03-02T06:28:34.000Z</time></trkpt>
<trkpt lat="42.182832" lon="23.372277"><ele>2136.6</ele><time>2026-03-02T06:28:35.000Z</time></trkpt>
<trkpt lat="42.182824" lon="23.37228"><ele>2136.6</ele><time>2026-03-02T06:28:36.000Z</time></trkpt>
<trkpt lat="42.182815" lon="23.372282"><ele>2136.6</ele><time>2026-03-02T06:28:37.000Z</time></trkpt>
<trkpt lat="42.182807" lon="23.372282"><ele>2136.6</ele><time>2026-03-02T06:28:38.000Z</time></trkpt>
<trkpt lat="42.182798" lon="23.372282"><ele>2136.6</ele><time>2026-03-02T06:28:39.000Z</time></trkpt>
<trkpt lat="42.18279" lon="23.372281"><ele>2136.7</ele><time>2026-03-02T06:28:40.000Z</time></trkpt>
<trkpt lat="42.182783" lon="23.37228"><ele>2136.7</ele><time>2026-03-02T06:28:41.000Z</time></trkpt>
<trkpt lat="42.182776" lon="23.37228"><ele>2136.7</ele><time>2026-03-02T06:28:42.000Z</time></trkpt>
<trkpt lat="42.182769" lon="23.37228"><ele>2136.7</ele><time>2026-03-02T06:28:43.000Z</time></trkpt>
<trkpt lat="42.182763" lon="23.37228"><ele>2136.7</ele><time>2026-03-02T06:28:44.000Z</time></trkpt>
<trkpt lat="42.182756" lon="23.37228"><ele>2136.9</ele><time>2026-03-02T06:28:45.000Z</time></trkpt>
<trkpt lat="42.182749" lon="23.372282"><ele>2136.9</ele><time>2026-03-02T06:28:46.000Z</time></trkpt>
<trkpt lat="42.182742" lon="23.372285"><ele>2136.9</ele><time>2026-03-02T06:28:47.000Z</time></trkpt>
<trkpt lat="42.182734" lon="23.372288"><ele>2136.9</ele><time>2026-03-02T06:28:48.000Z</time></trkpt>
<trkpt lat="42.182725" lon="23.37229"><ele>2136.9</ele><time>2026-03-02T06:28:49.000Z</time></trkpt>
<trkpt lat="42.182715" lon="23.372292"><ele>2137.1</ele><time>2026-03-02T06:28:50.000Z</time></trkpt>
<trkpt lat="42.182705" lon="23.372293"><ele>2137.1</ele><time>2026-03-02T06:28:51.000Z</time></trkpt>
<trkpt lat="42.182698" lon="23.372293"><ele>2137.1</ele><time>2026-03-02T06:28:52.000Z</time></trkpt>
<trkpt lat="42.182691" lon="23.372293"><ele>2137.1</ele><time>2026-03-02T06:28:53.000Z</time></trkpt>
<trkpt lat="42.182686" lon="23.372294"><ele>2137.1</ele><time>2026-03-02T06:28:54.000Z</time></trkpt>
<trkpt lat="42.18268" lon="23.372295"><ele>2137.3</ele><time>2026-03-02T06:28:55.000Z</time></trkpt>
<trkpt lat="42.182674" lon="23.372296"><ele>2137.3</ele><time>2026-03-02T06:28:56.000Z</time></trkpt>
<trkpt lat="42.182667" lon="23.372297"><ele>2137.3</ele><time>2026-03-02T06:28:57.000Z</time></trkpt>
<trkpt lat="42.182659" lon="23.372298"><ele>2137.3</ele><time>2026-03-02T06:28:58.000Z</time></trkpt>
<trkpt lat="42.182651" lon="23.372299"><ele>2137.3</ele><time>2026-03-02T06:28:59.000Z</time></trkpt>
<trkpt lat="42.182643" lon="23.3723"><ele>2137.8</ele><time>2026-03-02T06:29:00.000Z</time></trkpt>
<trkpt lat="42.182635" lon="23.3723"><ele>2137.8</ele><time>2026-03-02T06:29:01.000Z</time></trkpt>
<trkpt lat="42.182625" lon="23.372301"><ele>2137.8</ele><time>2026-03-02T06:29:02.000Z</time></trkpt>
<trkpt lat="42.182613" lon="23.372303"><ele>2137.8</ele><time>2026-03-02T06:29:03.000Z</time></trkpt>
<trkpt lat="42.182601" lon="23.372305"><ele>2137.8</ele><time>2026-03-02T06:29:04.000Z</time></trkpt>
<trkpt lat="42.182588" lon="23.372307"><ele>2138.3</ele><time>2026-03-02T06:29:05.000Z</time></trkpt>
<trkpt lat="42.182576" lon="23.372309"><ele>2138.3</ele><time>2026-03-02T06:29:06.000Z</time></trkpt>
<trkpt lat="42.182565" lon="23.372311"><ele>2138.3</ele><time>2026-03-02T06:29:07.000Z</time></trkpt>
<trkpt lat="42.182553" lon="23.372311"><ele>2138.3</ele><time>2026-03-02T06:29:08.000Z</time></trkpt>
<trkpt lat="42.182543" lon="23.372311"><ele>2138.3</ele><time>2026-03-02T06:29:09.000Z</time></trkpt>
<trkpt lat="42.182532" lon="23.372311"><ele>2138.5</ele><time>2026-03-02T06:29:10.000Z</time></trkpt>
<trkpt lat="42.182521" lon="23.372311"><ele>2138.5</ele><time>2026-03-02T06:29:11.000Z</time></trkpt>
<trkpt lat="42.182511" lon="23.372312"><ele>2138.5</ele><time>2026-03-02T06:29:12.000Z</time></trkpt>
<trkpt lat="42.182501" lon="23.372312"><ele>2138.5</ele><time>2026-03-02T06:29:13.000Z</time></trkpt>
<trkpt lat="42.18249" lon="23.372312"><ele>2138.5</ele><time>2026-03-02T06:29:14.000Z</time></trkpt>
<trkpt lat="42.182479" lon="23.372312"><ele>2139</ele><time>2026-03-02T06:29:15.000Z</time></trkpt>
<trkpt lat="42.182468" lon="23.372311"><ele>2139</ele><time>2026-03-02T06:29:16.000Z</time></trkpt>
<trkpt lat="42.182457" lon="23.372311"><ele>2139</ele><time>2026-03-02T06:29:17.000Z</time></trkpt>
<trkpt lat="42.182446" lon="23.37231"><ele>2139</ele><time>2026-03-02T06:29:18.000Z</time></trkpt>
<trkpt lat="42.182434" lon="23.372309"><ele>2139</ele><time>2026-03-02T06:29:19.000Z</time></trkpt>
<trkpt lat="42.182424" lon="23.372308"><ele>2139.5</ele><time>2026-03-02T06:29:20.000Z</time></trkpt>
<trkpt lat="42.182414" lon="23.372307"><ele>2139.5</ele><time>2026-03-02T06:29:21.000Z</time></trkpt>
<trkpt lat="42.182405" lon="23.372306"><ele>2139.5</ele><time>2026-03-02T06:29:22.000Z</time></trkpt>
<trkpt lat="42.182395" lon="23.372306"><ele>2139.5</ele><time>2026-03-02T06:29:23.000Z</time></trkpt>
<trkpt lat="42.182386" lon="23.372306"><ele>2139.5</ele><time>2026-03-02T06:29:24.000Z</time></trkpt>
<trkpt lat="42.182376" lon="23.372307"><ele>2139.9</ele><time>2026-03-02T06:29:25.000Z</time></trkpt>
<trkpt lat="42.182366" lon="23.372308"><ele>2139.9</ele><time>2026-03-02T06:29:26.000Z</time></trkpt>
<trkpt lat="42.182355" lon="23.372308"><ele>2139.9</ele><time>2026-03-02T06:29:27.000Z</time></trkpt>
<trkpt lat="42.182344" lon="23.372308"><ele>2139.9</ele><time>2026-03-02T06:29:28.000Z</time></trkpt>
<trkpt lat="42.182334" lon="23.372308"><ele>2139.9</ele><time>2026-03-02T06:29:29.000Z</time></trkpt>
<trkpt lat="42.182323" lon="23.372309"><ele>2140.5</ele><time>2026-03-02T06:29:30.000Z</time></trkpt>
<trkpt lat="42.182312" lon="23.372309"><ele>2140.5</ele><time>2026-03-02T06:29:31.000Z</time></trkpt>
<trkpt lat="42.182302" lon="23.37231"><ele>2140.5</ele><time>2026-03-02T06:29:32.000Z</time></trkpt>
<trkpt lat="42.182293" lon="23.372312"><ele>2140.5</ele><time>2026-03-02T06:29:33.000Z</time></trkpt>
<trkpt lat="42.182284" lon="23.372313"><ele>2140.5</ele><time>2026-03-02T06:29:34.000Z</time></trkpt>
<trkpt lat="42.182276" lon="23.372313"><ele>2141.1</ele><time>2026-03-02T06:29:35.000Z</time></trkpt>
<trkpt lat="42.182268" lon="23.372315"><ele>2141.1</ele><time>2026-03-02T06:29:36.000Z</time></trkpt>
<trkpt lat="42.182261" lon="23.372318"><ele>2141.1</ele><time>2026-03-02T06:29:37.000Z</time></trkpt>
<trkpt lat="42.182254" lon="23.37232"><ele>2141.1</ele><time>2026-03-02T06:29:38.000Z</time></trkpt>
<trkpt lat="42.182247" lon="23.372323"><ele>2141.1</ele><time>2026-03-02T06:29:39.000Z</time></trkpt>
<trkpt lat="42.182239" lon="23.372326"><ele>2141.4</ele><time>2026-03-02T06:29:40.000Z</time></trkpt>
<trkpt lat="42.182231" lon="23.372328"><ele>2141.4</ele><time>2026-03-02T06:29:41.000Z</time></trkpt>
<trkpt lat="42.182221" lon="23.372329"><ele>2141.4</ele><time>2026-03-02T06:29:42.000Z</time></trkpt>
<trkpt lat="42.182211" lon="23.372329"><ele>2141.4</ele><time>2026-03-02T06:29:43.000Z</time></trkpt>
<trkpt lat="42.1822" lon="23.372329"><ele>2141.4</ele><time>2026-03-02T06:29:44.000Z</time></trkpt>
<trkpt lat="42.18219" lon="23.372329"><ele>2142.1</ele><time>2026-03-02T06:29:45.000Z</time></trkpt>
<trkpt lat="42.18218" lon="23.37233"><ele>2142.1</ele><time>2026-03-02T06:29:46.000Z</time></trkpt>
<trkpt lat="42.182169" lon="23.37233"><ele>2142.1</ele><time>2026-03-02T06:29:47.000Z</time></trkpt>
<trkpt lat="42.182158" lon="23.372331"><ele>2142.1</ele><time>2026-03-02T06:29:48.000Z</time></trkpt>
<trkpt lat="42.182149" lon="23.372331"><ele>2142.1</ele><time>2026-03-02T06:29:49.000Z</time></trkpt>
<trkpt lat="42.182139" lon="23.37233"><ele>2143</ele><time>2026-03-02T06:29:50.000Z</time></trkpt>
<trkpt lat="42.18213" lon="23.372329"><ele>2143</ele><time>2026-03-02T06:29:51.000Z</time></trkpt>
<trkpt lat="42.182121" lon="23.372329"><ele>2143</ele><time>2026-03-02T06:29:52.000Z</time></trkpt>
<trkpt lat="42.182112" lon="23.372328"><ele>2143</ele><time>2026-03-02T06:29:53.000Z</time></trkpt>
<trkpt lat="42.182102" lon="23.372328"><ele>2143</ele><time>2026-03-02T06:29:54.000Z</time></trkpt>
<trkpt lat="42.182093" lon="23.372329"><ele>2143.5</ele><time>2026-03-02T06:29:55.000Z</time></trkpt>
<trkpt lat="42.182083" lon="23.37233"><ele>2143.5</ele><time>2026-03-02T06:29:56.000Z</time></trkpt>
<trkpt lat="42.182073" lon="23.372332"><ele>2143.5</ele><time>2026-03-02T06:29:57.000Z</time></trkpt>
<trkpt lat="42.182063" lon="23.372335"><ele>2143.5</ele><time>2026-03-02T06:29:58.000Z</time></trkpt>
<trkpt lat="42.182053" lon="23.372338"><ele>2143.5</ele><time>2026-03-02T06:29:59.000Z</time></trkpt>
<trkpt lat="42.182043" lon="23.372342"><ele>2144.6</ele><time>2026-03-02T06:30:00.000Z</time></trkpt>
<trkpt lat="42.182032" lon="23.372344"><ele>2144.6</ele><time>2026-03-02T06:30:01.000Z</time></trkpt>
<trkpt lat="42.182022" lon="23.372346"><ele>2144.6</ele><time>2026-03-02T06:30:02.000Z</time></trkpt>
<trkpt lat="42.182012" lon="23.372348"><ele>2144.6</ele><time>2026-03-02T06:30:03.000Z</time></trkpt>
<trkpt lat="42.182001" lon="23.372349"><ele>2144.6</ele><time>2026-03-02T06:30:04.000Z</time></trkpt>
<trkpt lat="42.181991" lon="23.372349"><ele>2145.8</ele><time>2026-03-02T06:30:05.000Z</time></trkpt>
<trkpt lat="42.181982" lon="23.37235"><ele>2145.8</ele><time>2026-03-02T06:30:06.000Z</time></trkpt>
<trkpt lat="42.181973" lon="23.372351"><ele>2145.8</ele><time>2026-03-02T06:30:07.000Z</time></trkpt>
<trkpt lat="42.181964" lon="23.372351"><ele>2145.8</ele><time>2026-03-02T06:30:08.000Z</time></trkpt>
<trkpt lat="42.181955" lon="23.372352"><ele>2145.8</ele><time>2026-03-02T06:30:09.000Z</time></trkpt>
<trkpt lat="42.181945" lon="23.372352"><ele>2146.4</ele><time>2026-03-02T06:30:10.000Z</time></trkpt>
<trkpt lat="42.181936" lon="23.372353"><ele>2146.4</ele><time>2026-03-02T06:30:11.000Z</time></trkpt>
<trkpt lat="42.181927" lon="23.372353"><ele>2146.4</ele><time>2026-03-02T06:30:12.000Z</time></trkpt>
<trkpt lat="42.181917" lon="23.372354"><ele>2146.4</ele><time>2026-03-02T06:30:13.000Z</time></trkpt>
<trkpt lat="42.181909" lon="23.372355"><ele>2146.4</ele><time>2026-03-02T06:30:14.000Z</time></trkpt>
<trkpt lat="42.181901" lon="23.372357"><ele>2147.4</ele><time>2026-03-02T06:30:15.000Z</time></trkpt>
<trkpt lat="42.181893" lon="23.37236"><ele>2147.4</ele><time>2026-03-02T06:30:16.000Z</time></trkpt>
<trkpt lat="42.181886" lon="23.372364"><ele>2147.4</ele><time>2026-03-02T06:30:17.000Z</time></trkpt>
<trkpt lat="42.181879" lon="23.372368"><ele>2147.4</ele><time>2026-03-02T06:30:18.000Z</time></trkpt>
<trkpt lat="42.181873" lon="23.372372"><ele>2147.4</ele><time>2026-03-02T06:30:19.000Z</time></trkpt>
<trkpt lat="42.181866" lon="23.372376"><ele>2148.4</ele><time>2026-03-02T06:30:20.000Z</time></trkpt>
<trkpt lat="42.18186" lon="23.37238"><ele>2148.4</ele><time>2026-03-02T06:30:21.000Z</time></trkpt>
<trkpt lat="42.181854" lon="23.372385"><ele>2148.4</ele><time>2026-03-02T06:30:22.000Z</time></trkpt>
<trkpt lat="42.181847" lon="23.372389"><ele>2148.4</ele><time>2026-03-02T06:30:23.000Z</time></trkpt>
<trkpt lat="42.18184" lon="23.372393"><ele>2148.4</ele><time>2026-03-02T06:30:24.000Z</time></trkpt>
<trkpt lat="42.181833" lon="23.372398"><ele>2148.9</ele><time>2026-03-02T06:30:25.000Z</time></trkpt>
<trkpt lat="42.181825" lon="23.372402"><ele>2148.9</ele><time>2026-03-02T06:30:26.000Z</time></trkpt>
<trkpt lat="42.181817" lon="23.372406"><ele>2148.9</ele><time>2026-03-02T06:30:27.000Z</time></trkpt>
<trkpt lat="42.18181" lon="23.372411"><ele>2148.9</ele><time>2026-03-02T06:30:28.000Z</time></trkpt>
<trkpt lat="42.181803" lon="23.372415"><ele>2148.9</ele><time>2026-03-02T06:30:29.000Z</time></trkpt>
<trkpt lat="42.181796" lon="23.37242"><ele>2150.1</ele><time>2026-03-02T06:30:30.000Z</time></trkpt>
<trkpt lat="42.181788" lon="23.372425"><ele>2150.1</ele><time>2026-03-02T06:30:31.000Z</time></trkpt>
<trkpt lat="42.181781" lon="23.37243"><ele>2150.1</ele><time>2026-03-02T06:30:32.000Z</time></trkpt>
<trkpt lat="42.181774" lon="23.372434"><ele>2150.1</ele><time>2026-03-02T06:30:33.000Z</time></trkpt>
<trkpt lat="42.181768" lon="23.372437"><ele>2150.1</ele><time>2026-03-02T06:30:34.000Z</time></trkpt>
<trkpt lat="42.181763" lon="23.372441"><ele>2151.3</ele><time>2026-03-02T06:30:35.000Z</time></trkpt>
<trkpt lat="42.181757" lon="23.372445"><ele>2151.3</ele><time>2026-03-02T06:30:36.000Z</time></trkpt>
<trkpt lat="42.181751" lon="23.372449"><ele>2151.3</ele><time>2026-03-02T06:30:37.000Z</time></trkpt>
<trkpt lat="42.181745" lon="23.372454"><ele>2151.3</ele><time>2026-03-02T06:30:38.000Z</time></trkpt>
<trkpt lat="42.181739" lon="23.37246"><ele>2151.3</ele><time>2026-03-02T06:30:39.000Z</time></trkpt>
<trkpt lat="42.181731" lon="23.372465"><ele>2151.9</ele><time>2026-03-02T06:30:40.000Z</time></trkpt>
<trkpt lat="42.181725" lon="23.372469"><ele>2151.9</ele><time>2026-03-02T06:30:41.000Z</time></trkpt>
<trkpt lat="42.181719" lon="23.372473"><ele>2151.9</ele><time>2026-03-02T06:30:42.000Z</time></trkpt>
<trkpt lat="42.181714" lon="23.372475"><ele>2151.9</ele><time>2026-03-02T06:30:43.000Z</time></trkpt>
<trkpt lat="42.181707" lon="23.372479"><ele>2151.9</ele><time>2026-03-02T06:30:44.000Z</time></trkpt>
<trkpt lat="42.181699" lon="23.372482"><ele>2153</ele><time>2026-03-02T06:30:45.000Z</time></trkpt>
<trkpt lat="42.181691" lon="23.372485"><ele>2153</ele><time>2026-03-02T06:30:46.000Z</time></trkpt>
<trkpt lat="42.181683" lon="23.372489"><ele>2153</ele><time>2026-03-02T06:30:47.000Z</time></trkpt>
<trkpt lat="42.181675" lon="23.372492"><ele>2153</ele><time>2026-03-02T06:30:48.000Z</time></trkpt>
<trkpt lat="42.181667" lon="23.372495"><ele>2153</ele><time>2026-03-02T06:30:49.000Z</time></trkpt>
<trkpt lat="42.181658" lon="23.372497"><ele>2154.3</ele><time>2026-03-02T06:30:50.000Z</time></trkpt>
<trkpt lat="42.181649" lon="23.372499"><ele>2154.3</ele><time>2026-03-02T06:30:51.000Z</time></trkpt>
<trkpt lat="42.18164" lon="23.372502"><ele>2154.3</ele><time>2026-03-02T06:30:52.000Z</time></trkpt>
<trkpt lat="42.18163" lon="23.372505"><ele>2154.3</ele><time>2026-03-02T06:30:53.000Z</time></trkpt>
<trkpt lat="42.181622" lon="23.372506"><ele>2154.3</ele><time>2026-03-02T06:30:54.000Z</time></trkpt>
<trkpt lat="42.181614" lon="23.372506"><ele>2155</ele><time>2026-03-02T06:30:55.000Z</time></trkpt>
<trkpt lat="42.181606" lon="23.372506"><ele>2155</ele><time>2026-03-02T06:30:56.000Z</time></trkpt>
<trkpt lat="42.181599" lon="23.372504"><ele>2155</ele><time>2026-03-02T06:30:57.000Z</time></trkpt>
<trkpt lat="42.181592" lon="23.372503"><ele>2155</ele><time>2026-03-02T06:30:58.000Z</time></trkpt>
<trkpt lat="42.181583" lon="23.372503"><ele>2155</ele><time>2026-03-02T06:30:59.000Z</time></trkpt>
<trkpt lat="42.181576" lon="23.372503"><ele>2156.3</ele><time>2026-03-02T06:31:00.000Z</time></trkpt>
<trkpt lat="42.181568" lon="23.372504"><ele>2156.3</ele><time>2026-03-02T06:31:01.000Z</time></trkpt>
<trkpt lat="42.181561" lon="23.372504"><ele>2156.3</ele><time>2026-03-02T06:31:02.000Z</time></trkpt>
<trkpt lat="42.181554" lon="23.372504"><ele>2156.3</ele><time>2026-03-02T06:31:03.000Z</time></trkpt>
<trkpt lat="42.181548" lon="23.372504"><ele>2156.3</ele><time>2026-03-02T06:31:04.000Z</time></trkpt>
<trkpt lat="42.181542" lon="23.372503"><ele>2157.4</ele><time>2026-03-02T06:31:05.000Z</time></trkpt>
<trkpt lat="42.181537" lon="23.372503"><ele>2157.4</ele><time>2026-03-02T06:31:06.000Z</time></trkpt>
<trkpt lat="42.181531" lon="23.372503"><ele>2157.4</ele><time>2026-03-02T06:31:07.000Z</time></trkpt>
<trkpt lat="42.181524" lon="23.372503"><ele>2157.4</ele><time>2026-03-02T06:31:08.000Z</time></trkpt>
<trkpt lat="42.181516" lon="23.372504"><ele>2157.4</ele><time>2026-03-02T06:31:09.000Z</time></trkpt>
<trkpt lat="42.181508" lon="23.372505"><ele>2157.9</ele><time>2026-03-02T06:31:10.000Z</time></trkpt>
<trkpt lat="42.181499" lon="23.372505"><ele>2157.9</ele><time>2026-03-02T06:31:11.000Z</time></trkpt>
<trkpt lat="42.181491" lon="23.372505"><ele>2157.9</ele><time>2026-03-02T06:31:12.000Z</time></trkpt>
<trkpt lat="42.181483" lon="23.372504"><ele>2157.9</ele><time>2026-03-02T06:31:13.000Z</time></trkpt>
<trkpt lat="42.181475" lon="23.372501"><ele>2157.9</ele><time>2026-03-02T06:31:14.000Z</time></trkpt>
<trkpt lat="42.181468" lon="23.372499"><ele>2158.9</ele><time>2026-03-02T06:31:15.000Z</time></trkpt>
<trkpt lat="42.18146" lon="23.372497"><ele>2158.9</ele><time>2026-03-02T06:31:16.000Z</time></trkpt>
<trkpt lat="42.181452" lon="23.372494"><ele>2158.9</ele><time>2026-03-02T06:31:17.000Z</time></trkpt>
<trkpt lat="42.181445" lon="23.372492"><ele>2158.9</ele><time>2026-03-02T06:31:18.000Z</time></trkpt>
<trkpt lat="42.181438" lon="23.372491"><ele>2158.9</ele><time>2026-03-02T06:31:19.000Z</time></trkpt>
<trkpt lat="42.18143" lon="23.37249"><ele>2159.9</ele><time>2026-03-02T06:31:20.000Z</time></trkpt>
<trkpt lat="42.181422" lon="23.372489"><ele>2159.9</ele><time>2026-03-02T06:31:21.000Z</time></trkpt>
<trkpt lat="42.181415" lon="23.372488"><ele>2159.9</ele><time>2026-03-02T06:31:22.000Z</time></trkpt>
<trkpt lat="42.181406" lon="23.372488"><ele>2159.9</ele><time>2026-03-02T06:31:23.000Z</time></trkpt>
<trkpt lat="42.181399" lon="23.372488"><ele>2159.9</ele><time>2026-03-02T06:31:24.000Z</time></trkpt>
<trkpt lat="42.181392" lon="23.372487"><ele>2160.4</ele><time>2026-03-02T06:31:25.000Z</time></trkpt>
<trkpt lat="42.181385" lon="23.372487"><ele>2160.4</ele><time>2026-03-02T06:31:26.000Z</time></trkpt>
<trkpt lat="42.181379" lon="23.372487"><ele>2160.4</ele><time>2026-03-02T06:31:27.000Z</time></trkpt>
<trkpt lat="42.181372" lon="23.372487"><ele>2160.4</ele><time>2026-03-02T06:31:28.000Z</time></trkpt>
<trkpt lat="42.181365" lon="23.372488"><ele>2160.4</ele><time>2026-03-02T06:31:29.000Z</time></trkpt>
<trkpt lat="42.181359" lon="23.372489"><ele>2161.6</ele><time>2026-03-02T06:31:30.000Z</time></trkpt>
<trkpt lat="42.181352" lon="23.37249"><ele>2161.6</ele><time>2026-03-02T06:31:31.000Z</time></trkpt>
<trkpt lat="42.181344" lon="23.372491"><ele>2161.6</ele><time>2026-03-02T06:31:32.000Z</time></trkpt>
<trkpt lat="42.181338" lon="23.372492"><ele>2161.6</ele><time>2026-03-02T06:31:33.000Z</time></trkpt>
<trkpt lat="42.181331" lon="23.372492"><ele>2161.6</ele><time>2026-03-02T06:31:34.000Z</time></trkpt>
<trkpt lat="42.181324" lon="23.372492"><ele>2162.7</ele><time>2026-03-02T06:31:35.000Z</time></trkpt>
<trkpt lat="42.181318" lon="23.372492"><ele>2162.7</ele><time>2026-03-02T06:31:36.000Z</time></trkpt>
<trkpt lat="42.181311" lon="23.372492"><ele>2162.7</ele><time>2026-03-02T06:31:37.000Z</time></trkpt>
<trkpt lat="42.181304" lon="23.372493"><ele>2162.7</ele><time>2026-03-02T06:31:38.000Z</time></trkpt>
<trkpt lat="42.181297" lon="23.372494"><ele>2162.7</ele><time>2026-03-02T06:31:39.000Z</time></trkpt>
<trkpt lat="42.18129" lon="23.372494"><ele>2163.3</ele><time>2026-03-02T06:31:40.000Z</time></trkpt>
<trkpt lat="42.181282" lon="23.372495"><ele>2163.3</ele><time>2026-03-02T06:31:41.000Z</time></trkpt>
<trkpt lat="42.181274" lon="23.372496"><ele>2163.3</ele><time>2026-03-02T06:31:42.000Z</time></trkpt>
<trkpt lat="42.181266" lon="23.372496"><ele>2163.3</ele><time>2026-03-02T06:31:43.000Z</time></trkpt>
<trkpt lat="42.181258" lon="23.372497"><ele>2163.3</ele><time>2026-03-02T06:31:44.000Z</time></trkpt>
<trkpt lat="42.18125" lon="23.372499"><ele>2164.4</ele><time>2026-03-02T06:31:45.000Z</time></trkpt>
<trkpt lat="42.181243" lon="23.3725"><ele>2164.4</ele><time>2026-03-02T06:31:46.000Z</time></trkpt>
<trkpt lat="42.181236" lon="23.372501"><ele>2164.4</ele><time>2026-03-02T06:31:47.000Z</time></trkpt>
<trkpt lat="42.181229" lon="23.372501"><ele>2164.4</ele><time>2026-03-02T06:31:48.000Z</time></trkpt>
<trkpt lat="42.181222" lon="23.372501"><ele>2164.4</ele><time>2026-03-02T06:31:49.000Z</time></trkpt>
<trkpt lat="42.181216" lon="23.372501"><ele>2165.4</ele><time>2026-03-02T06:31:50.000Z</time></trkpt>
<trkpt lat="42.18121" lon="23.372501"><ele>2165.4</ele><time>2026-03-02T06:31:51.000Z</time></trkpt>
<trkpt lat="42.181203" lon="23.372501"><ele>2165.4</ele><time>2026-03-02T06:31:52.000Z</time></trkpt>
<trkpt lat="42.181197" lon="23.372501"><ele>2165.4</ele><time>2026-03-02T06:31:53.000Z</time></trkpt>
<trkpt lat="42.181191" lon="23.372502"><ele>2165.4</ele><time>2026-03-02T06:31:54.000Z</time></trkpt>
<trkpt lat="42.181186" lon="23.372502"><ele>2165.9</ele><time>2026-03-02T06:31:55.000Z</time></trkpt>
<trkpt lat="42.181181" lon="23.372502"><ele>2165.9</ele><time>2026-03-02T06:31:56.000Z</time></trkpt>
<trkpt lat="42.181177" lon="23.372502"><ele>2165.9</ele><time>2026-03-02T06:31:57.000Z</time></trkpt>
<trkpt lat="42.181172" lon="23.372502"><ele>2165.9</ele><time>2026-03-02T06:31:58.000Z</time></trkpt>
<trkpt lat="42.181166" lon="23.372502"><ele>2165.9</ele><time>2026-03-02T06:31:59.000Z</time></trkpt>
<trkpt lat="42.181159" lon="23.372502"><ele>2167.1</ele><time>2026-03-02T06:32:00.000Z</time></trkpt>
<trkpt lat="42.181153" lon="23.372503"><ele>2167.1</ele><time>2026-03-02T06:32:01.000Z</time></trkpt>
<trkpt lat="42.181146" lon="23.372505"><ele>2167.1</ele><time>2026-03-02T06:32:02.000Z</time></trkpt>
<trkpt lat="42.181138" lon="23.372506"><ele>2167.1</ele><time>2026-03-02T06:32:03.000Z</time></trkpt>
<trkpt lat="42.181131" lon="23.372508"><ele>2167.1</ele><time>2026-03-02T06:32:04.000Z</time></trkpt>
<trkpt lat="42.181125" lon="23.37251"><ele>2168.4</ele><time>2026-03-02T06:32:05.000Z</time></trkpt>
<trkpt lat="42.181118" lon="23.372511"><ele>2168.4</ele><time>2026-03-02T06:32:06.000Z</time></trkpt>
<trkpt lat="42.181112" lon="23.372513"><ele>2168.4</ele><time>2026-03-02T06:32:07.000Z</time></trkpt>
<trkpt lat="42.181106" lon="23.372514"><ele>2168.4</ele><time>2026-03-02T06:32:08.000Z</time></trkpt>
<trkpt lat="42.1811" lon="23.372516"><ele>2168.4</ele><time>2026-03-02T06:32:09.000Z</time></trkpt>
<trkpt lat="42.181094" lon="23.372517"><ele>2169.1</ele><time>2026-03-02T06:32:10.000Z</time></trkpt>
<trkpt lat="42.181088" lon="23.372517"><ele>2169.1</ele><time>2026-03-02T06:32:11.000Z</time></trkpt>
<trkpt lat="42.181081" lon="23.372517"><ele>2169.1</ele><time>2026-03-02T06:32:12.000Z</time></trkpt>
<trkpt lat="42.181075" lon="23.372517"><ele>2169.1</ele><time>2026-03-02T06:32:13.000Z</time></trkpt>
<trkpt lat="42.181068" lon="23.372516"><ele>2169.1</ele><time>2026-03-02T06:32:14.000Z</time></trkpt>
<trkpt lat="42.18106" lon="23.372516"><ele>2170.3</ele><time>2026-03-02T06:32:15.000Z</time></trkpt>
<trkpt lat="42.181053" lon="23.372516"><ele>2170.3</ele><time>2026-03-02T06:32:16.000Z</time></trkpt>
<trkpt lat="42.181045" lon="23.372517"><ele>2170.3</ele><time>2026-03-02T06:32:17.000Z</time></trkpt>
<trkpt lat="42.181037" lon="23.372518"><ele>2170.3</ele><time>2026-03-02T06:32:18.000Z</time></trkpt>
<trkpt lat="42.18103" lon="23.37252"><ele>2170.3</ele><time>2026-03-02T06:32:19.000Z</time></trkpt>
<trkpt lat="42.181021" lon="23.372522"><ele>2171.5</ele><time>2026-03-02T06:32:20.000Z</time></trkpt>
<trkpt lat="42.181013" lon="23.372522"><ele>2171.5</ele><time>2026-03-02T06:32:21.000Z</time></trkpt>
<trkpt lat="42.181006" lon="23.372522"><ele>2171.5</ele><time>2026-03-02T06:32:22.000Z</time></trkpt>
<trkpt lat="42.180997" lon="23.372522"><ele>2171.5</ele><time>2026-03-02T06:32:23.000Z</time></trkpt>
<trkpt lat="42.180989" lon="23.372521"><ele>2171.5</ele><time>2026-03-02T06:32:24.000Z</time></trkpt>
<trkpt lat="42.180982" lon="23.372521"><ele>2172</ele><time>2026-03-02T06:32:25.000Z</time></trkpt>
<trkpt lat="42.180974" lon="23.37252"><ele>2172</ele><time>2026-03-02T06:32:26.000Z</time></trkpt>
<trkpt lat="42.180966" lon="23.37252"><ele>2172</ele><time>2026-03-02T06:32:27.000Z</time></trkpt>
<trkpt lat="42.180959" lon="23.37252"><ele>2172</ele><time>2026-03-02T06:32:28.000Z</time></trkpt>
<trkpt lat="42.180951" lon="23.37252"><ele>2172</ele><time>2026-03-02T06:32:29.000Z</time></trkpt>
<trkpt lat="42.180944" lon="23.37252"><ele>2173.1</ele><time>2026-03-02T06:32:30.000Z</time></trkpt>
<trkpt lat="42.180937" lon="23.372519"><ele>2173.1</ele><time>2026-03-02T06:32:31.000Z</time></trkpt>
<trkpt lat="42.18093" lon="23.372518"><ele>2173.1</ele><time>2026-03-02T06:32:32.000Z</time></trkpt>
<trkpt lat="42.180923" lon="23.372517"><ele>2173.1</ele><time>2026-03-02T06:32:33.000Z</time></trkpt>
<trkpt lat="42.180917" lon="23.372516"><ele>2173.1</ele><time>2026-03-02T06:32:34.000Z</time></trkpt>
<trkpt lat="42.18091" lon="23.372515"><ele>2174.3</ele><time>2026-03-02T06:32:35.000Z</time></trkpt>
<trkpt lat="42.180903" lon="23.372513"><ele>2174.3</ele><time>2026-03-02T06:32:36.000Z</time></trkpt>
<trkpt lat="42.180899" lon="23.372511"><ele>2174.3</ele><time>2026-03-02T06:32:37.000Z</time></trkpt>
<trkpt lat="42.180895" lon="23.37251"><ele>2174.3</ele><time>2026-03-02T06:32:38.000Z</time></trkpt>
<trkpt lat="42.180893" lon="23.37251"><ele>2174.3</ele><time>2026-03-02T06:32:39.000Z</time></trkpt>
<trkpt lat="42.180893" lon="23.372513"><ele>2174.9</ele><time>2026-03-02T06:32:40.000Z</time></trkpt>
<trkpt lat="42.180896" lon="23.372517"><ele>2174.9</ele><time>2026-03-02T06:32:41.000Z</time></trkpt>
<trkpt lat="42.180899" lon="23.372522"><ele>2174.9</ele><time>2026-03-02T06:32:42.000Z</time></trkpt>
<trkpt lat="42.180901" lon="23.372527"><ele>2174.9</ele><time>2026-03-02T06:32:43.000Z</time></trkpt>
<trkpt lat="42.180905" lon="23.37253"><ele>2174.9</ele><time>2026-03-02T06:32:44.000Z</time></trkpt>
<trkpt lat="42.180907" lon="23.372532"><ele>2176</ele><time>2026-03-02T06:32:45.000Z</time></trkpt>
<trkpt lat="42.180908" lon="23.372533"><ele>2176</ele><time>2026-03-02T06:32:46.000Z</time></trkpt>
<trkpt lat="42.180909" lon="23.372534"><ele>2176</ele><time>2026-03-02T06:32:47.000Z</time></trkpt>
<trkpt lat="42.180908" lon="23.372535"><ele>2176</ele><time>2026-03-02T06:32:48.000Z</time></trkpt>
<trkpt lat="42.180905" lon="23.372536"><ele>2176</ele><time>2026-03-02T06:32:49.000Z</time></trkpt>
<trkpt lat="42.180902" lon="23.372537"><ele>2177.1</ele><time>2026-03-02T06:32:50.000Z</time></trkpt>
<trkpt lat="42.180897" lon="23.372537"><ele>2177.1</ele><time>2026-03-02T06:32:51.000Z</time></trkpt>
<trkpt lat="42.180892" lon="23.372536"><ele>2177.1</ele><time>2026-03-02T06:32:52.000Z</time></trkpt>
<trkpt lat="42.180887" lon="23.372534"><ele>2177.1</ele><time>2026-03-02T06:32:53.000Z</time></trkpt>
<trkpt lat="42.180881" lon="23.372531"><ele>2177.1</ele><time>2026-03-02T06:32:54.000Z</time></trkpt>
<trkpt lat="42.180874" lon="23.37253"><ele>2177.5</ele><time>2026-03-02T06:32:55.000Z</time></trkpt>
<trkpt lat="42.180867" lon="23.372529"><ele>2177.5</ele><time>2026-03-02T06:32:56.000Z</time></trkpt>
<trkpt lat="42.180859" lon="23.372529"><ele>2177.5</ele><time>2026-03-02T06:32:57.000Z</time></trkpt>
<trkpt lat="42.180852" lon="23.372531"><ele>2177.5</ele><time>2026-03-02T06:32:58.000Z</time></trkpt>
<trkpt lat="42.180843" lon="23.372532"><ele>2177.5</ele><time>2026-03-02T06:32:59.000Z</time></trkpt>
<trkpt lat="42.180836" lon="23.372532"><ele>2177.8</ele><time>2026-03-02T06:33:00.000Z</time></trkpt>
<trkpt lat="42.180829" lon="23.372533"><ele>2177.8</ele><time>2026-03-02T06:33:01.000Z</time></trkpt>
<trkpt lat="42.180821" lon="23.372532"><ele>2177.8</ele><time>2026-03-02T06:33:02.000Z</time></trkpt>
<trkpt lat="42.180813" lon="23.372531"><ele>2177.8</ele><time>2026-03-02T06:33:03.000Z</time></trkpt>
<trkpt lat="42.180806" lon="23.372531"><ele>2177.8</ele><time>2026-03-02T06:33:04.000Z</time></trkpt>
<trkpt lat="42.180799" lon="23.372531"><ele>2178</ele><time>2026-03-02T06:33:05.000Z</time></trkpt>
<trkpt lat="42.180792" lon="23.37253"><ele>2178</ele><time>2026-03-02T06:33:06.000Z</time></trkpt>
<trkpt lat="42.180786" lon="23.37253"><ele>2178</ele><time>2026-03-02T06:33:07.000Z</time></trkpt>
<trkpt lat="42.18078" lon="23.372529"><ele>2178</ele><time>2026-03-02T06:33:08.000Z</time></trkpt>
<trkpt lat="42.180774" lon="23.372528"><ele>2178</ele><time>2026-03-02T06:33:09.000Z</time></trkpt>
<trkpt lat="42.180768" lon="23.372527"><ele>2178.3</ele><time>2026-03-02T06:33:10.000Z</time></trkpt>
<trkpt lat="42.180764" lon="23.372526"><ele>2178.3</ele><time>2026-03-02T06:33:11.000Z</time></trkpt>
<trkpt lat="42.18076" lon="23.372525"><ele>2178.3</ele><time>2026-03-02T06:33:12.000Z</time></trkpt>
<trkpt lat="42.180757" lon="23.372523"><ele>2178.3</ele><time>2026-03-02T06:33:13.000Z</time></trkpt>
<trkpt lat="42.180756" lon="23.372522"><ele>2178.3</ele><time>2026-03-02T06:33:14.000Z</time></trkpt>
<trkpt lat="42.180755" lon="23.372525"><ele>2179.4</ele><time>2026-03-02T06:33:15.000Z</time></trkpt>
<trkpt lat="42.180754" lon="23.372529"><ele>2179.4</ele><time>2026-03-02T06:33:16.000Z</time></trkpt>
<trkpt lat="42.180752" lon="23.372534"><ele>2179.4</ele><time>2026-03-02T06:33:17.000Z</time></trkpt>
<trkpt lat="42.180751" lon="23.372541"><ele>2179.4</ele><time>2026-03-02T06:33:18.000Z</time></trkpt>
<trkpt lat="42.18075" lon="23.372546"><ele>2179.4</ele><time>2026-03-02T06:33:19.000Z</time></trkpt>
<trkpt lat="42.18075" lon="23.372548"><ele>2180.5</ele><time>2026-03-02T06:33:20.000Z</time></trkpt>
<trkpt lat="42.180749" lon="23.372549"><ele>2180.5</ele><time>2026-03-02T06:33:21.000Z</time></trkpt>
<trkpt lat="42.180749" lon="23.372549"><ele>2180.5</ele><time>2026-03-02T06:33:22.000Z</time></trkpt>
<trkpt lat="42.180749" lon="23.372548"><ele>2180.5</ele><time>2026-03-02T06:33:23.000Z</time></trkpt>
<trkpt lat="42.180749" lon="23.372548"><ele>2180.5</ele><time>2026-03-02T06:33:24.000Z</time></trkpt>
<trkpt lat="42.180749" lon="23.372549"><ele>2181</ele><time>2026-03-02T06:33:25.000Z</time></trkpt>
<trkpt lat="42.180749" lon="23.372549"><ele>2181</ele><time>2026-03-02T06:33:26.000Z</time></trkpt>
<trkpt lat="42.180748" lon="23.37255"><ele>2181</ele><time>2026-03-02T06:33:27.000Z</time></trkpt>
<trkpt lat="42.180748" lon="23.372551"><ele>2181</ele><time>2026-03-02T06:33:28.000Z</time></trkpt>
<trkpt lat="42.180747" lon="23.372551"><ele>2181</ele><time>2026-03-02T06:33:29.000Z</time></trkpt>
<trkpt lat="42.180745" lon="23.372551"><ele>2181.5</ele><time>2026-03-02T06:33:30.000Z</time></trkpt>
<trkpt lat="42.180743" lon="23.372552"><ele>2181.5</ele><time>2026-03-02T06:33:31.000Z</time></trkpt>
<trkpt lat="42.180741" lon="23.372553"><ele>2181.5</ele><time>2026-03-02T06:33:32.000Z</time></trkpt>
<trkpt lat="42.180739" lon="23.372555"><ele>2181.5</ele><time>2026-03-02T06:33:33.000Z</time></trkpt>
<trkpt lat="42.180736" lon="23.372558"><ele>2181.5</ele><time>2026-03-02T06:33:34.000Z</time></trkpt>
<trkpt lat="42.180735" lon="23.37256"><ele>2181.8</ele><time>2026-03-02T06:33:35.000Z</time></trkpt>
<trkpt lat="42.180736" lon="23.372561"><ele>2181.8</ele><time>2026-03-02T06:33:36.000Z</time></trkpt>
<trkpt lat="42.180735" lon="23.37256"><ele>2181.8</ele><time>2026-03-02T06:33:37.000Z</time></trkpt>
<trkpt lat="42.180736" lon="23.372558"><ele>2181.8</ele><time>2026-03-02T06:33:38.000Z</time></trkpt>
<trkpt lat="42.180735" lon="23.372557"><ele>2181.8</ele><time>2026-03-02T06:33:39.000Z</time></trkpt>
<trkpt lat="42.180732" lon="23.372557"><ele>2181.8</ele><time>2026-03-02T06:33:40.000Z</time></trkpt>
<trkpt lat="42.180726" lon="23.372558"><ele>2181.8</ele><time>2026-03-02T06:33:41.000Z</time></trkpt>
<trkpt lat="42.180719" lon="23.37256"><ele>2181.8</ele><time>2026-03-02T06:33:42.000Z</time></trkpt>
<trkpt lat="42.180711" lon="23.372562"><ele>2181.8</ele><time>2026-03-02T06:33:43.000Z</time></trkpt>
<trkpt lat="42.180703" lon="23.372563"><ele>2181.8</ele><time>2026-03-02T06:33:44.000Z</time></trkpt>
<trkpt lat="42.180697" lon="23.372564"><ele>2181.6</ele><time>2026-03-02T06:33:45.000Z</time></trkpt>
<trkpt lat="42.180692" lon="23.372564"><ele>2181.6</ele><time>2026-03-02T06:33:46.000Z</time></trkpt>
<trkpt lat="42.180687" lon="23.372564"><ele>2181.6</ele><time>2026-03-02T06:33:47.000Z</time></trkpt>
<trkpt lat="42.180682" lon="23.372564"><ele>2181.6</ele><time>2026-03-02T06:33:48.000Z</time></trkpt>
<trkpt lat="42.180677" lon="23.372565"><ele>2181.6</ele><time>2026-03-02T06:33:49.000Z</time></trkpt>
<trkpt lat="42.180672" lon="23.372566"><ele>2181.6</ele><time>2026-03-02T06:33:50.000Z</time></trkpt>
<trkpt lat="42.180667" lon="23.372566"><ele>2181.6</ele><time>2026-03-02T06:33:51.000Z</time></trkpt>
<trkpt lat="42.18066" lon="23.372566"><ele>2181.6</ele><time>2026-03-02T06:33:52.000Z</time></trkpt>
<trkpt lat="42.180655" lon="23.372565"><ele>2181.6</ele><time>2026-03-02T06:33:53.000Z</time></trkpt>
<trkpt lat="42.180647" lon="23.372564"><ele>2181.6</ele><time>2026-03-02T06:33:54.000Z</time></trkpt>
<trkpt lat="42.180639" lon="23.372563"><ele>2181.9</ele><time>2026-03-02T06:33:55.000Z</time></trkpt>
<trkpt lat="42.180631" lon="23.372562"><ele>2181.9</ele><time>2026-03-02T06:33:56.000Z</time></trkpt>
<trkpt lat="42.180623" lon="23.37256"><ele>2181.9</ele><time>2026-03-02T06:33:57.000Z</time></trkpt>
<trkpt lat="42.180613" lon="23.372558"><ele>2181.9</ele><time>2026-03-02T06:33:58.000Z</time></trkpt>
<trkpt lat="42.180606" lon="23.372557"><ele>2181.9</ele><time>2026-03-02T06:33:59.000Z</time></trkpt>
<trkpt lat="42.180599" lon="23.372556"><ele>2182.9</ele><time>2026-03-02T06:34:00.000Z</time></trkpt>
<trkpt lat="42.180591" lon="23.372555"><ele>2182.9</ele><time>2026-03-02T06:34:01.000Z</time></trkpt>
<trkpt lat="42.180584" lon="23.372555"><ele>2182.9</ele><time>2026-03-02T06:34:02.000Z</time></trkpt>
<trkpt lat="42.180579" lon="23.372556"><ele>2182.9</ele><time>2026-03-02T06:34:03.000Z</time></trkpt>
<trkpt lat="42.180573" lon="23.372555"><ele>2182.9</ele><time>2026-03-02T06:34:04.000Z</time></trkpt>
<trkpt lat="42.180569" lon="23.372555"><ele>2184</ele><time>2026-03-02T06:34:05.000Z</time></trkpt>
<trkpt lat="42.180566" lon="23.372555"><ele>2184</ele><time>2026-03-02T06:34:06.000Z</time></trkpt>
<trkpt lat="42.180565" lon="23.372555"><ele>2184</ele><time>2026-03-02T06:34:07.000Z</time></trkpt>
<trkpt lat="42.180564" lon="23.372554"><ele>2184</ele><time>2026-03-02T06:34:08.000Z</time></trkpt>
<trkpt lat="42.180564" lon="23.372554"><ele>2184</ele><time>2026-03-02T06:34:09.000Z</time></trkpt>
<trkpt lat="42.180564" lon="23.372553"><ele>2184.5</ele><time>2026-03-02T06:34:10.000Z</time></trkpt>
<trkpt lat="42.180565" lon="23.372553"><ele>2184.5</ele><time>2026-03-02T06:34:11.000Z</time></trkpt>
<trkpt lat="42.180565" lon="23.372553"><ele>2184.5</ele><time>2026-03-02T06:34:12.000Z</time></trkpt>
<trkpt lat="42.180564" lon="23.372552"><ele>2184.5</ele><time>2026-03-02T06:34:13.000Z</time></trkpt>
<trkpt lat="42.180562" lon="23.37255"><ele>2184.5</ele><time>2026-03-02T06:34:14.000Z</time></trkpt>
<trkpt lat="42.180558" lon="23.372549"><ele>2185.5</ele><time>2026-03-02T06:34:15.000Z</time></trkpt>
<trkpt lat="42.180552" lon="23.372548"><ele>2185.5</ele><time>2026-03-02T06:34:16.000Z</time></trkpt>
<trkpt lat="42.180545" lon="23.372547"><ele>2185.5</ele><time>2026-03-02T06:34:17.000Z</time></trkpt>
<trkpt lat="42.180537" lon="23.372546"><ele>2185.5</ele><time>2026-03-02T06:34:18.000Z</time></trkpt>
<trkpt lat="42.180528" lon="23.372546"><ele>2185.5</ele><time>2026-03-02T06:34:19.000Z</time></trkpt>
<trkpt lat="42.180521" lon="23.372546"><ele>2186</ele><time>2026-03-02T06:34:20.000Z</time></trkpt>
<trkpt lat="42.180516" lon="23.372546"><ele>2186</ele><time>2026-03-02T06:34:21.000Z</time></trkpt>
<trkpt lat="42.18051" lon="23.372545"><ele>2186</ele><time>2026-03-02T06:34:22.000Z</time></trkpt>
<trkpt lat="42.180505" lon="23.372545"><ele>2186</ele><time>2026-03-02T06:34:23.000Z</time></trkpt>
<trkpt lat="42.180503" lon="23.372545"><ele>2186</ele><time>2026-03-02T06:34:24.000Z</time></trkpt>
<trkpt lat="42.180503" lon="23.372545"><ele>2186.2</ele><time>2026-03-02T06:34:25.000Z</time></trkpt>
<trkpt lat="42.180504" lon="23.372546"><ele>2186.2</ele><time>2026-03-02T06:34:26.000Z</time></trkpt>
<trkpt lat="42.180505" lon="23.372545"><ele>2186.2</ele><time>2026-03-02T06:34:27.000Z</time></trkpt>
<trkpt lat="42.180506" lon="23.372545"><ele>2186.2</ele><time>2026-03-02T06:34:28.000Z</time></trkpt>
<trkpt lat="42.180506" lon="23.372545"><ele>2186.2</ele><time>2026-03-02T06:34:29.000Z</time></trkpt>
<trkpt lat="42.180506" lon="23.372545"><ele>2186.7</ele><time>2026-03-02T06:34:30.000Z</time></trkpt>
<trkpt lat="42.180505" lon="23.372546"><ele>2186.7</ele><time>2026-03-02T06:34:31.000Z</time></trkpt>
<trkpt lat="42.180504" lon="23.372549"><ele>2186.7</ele><time>2026-03-02T06:34:32.000Z</time></trkpt>
<trkpt lat="42.180504" lon="23.372551"><ele>2186.7</ele><time>2026-03-02T06:34:33.000Z</time></trkpt>
<trkpt lat="42.180502" lon="23.372553"><ele>2186.7</ele><time>2026-03-02T06:34:34.000Z</time></trkpt>
<trkpt lat="42.180499" lon="23.372555"><ele>2187.2</ele><time>2026-03-02T06:34:35.000Z</time></trkpt>
<trkpt lat="42.180496" lon="23.372556"><ele>2187.2</ele><time>2026-03-02T06:34:36.000Z</time></trkpt>
<trkpt lat="42.180491" lon="23.372555"><ele>2187.2</ele><time>2026-03-02T06:34:37.000Z</time></trkpt>
<trkpt lat="42.180487" lon="23.372555"><ele>2187.2</ele><time>2026-03-02T06:34:38.000Z</time></trkpt>
<trkpt lat="42.180482" lon="23.372555"><ele>2187.2</ele><time>2026-03-02T06:34:39.000Z</time></trkpt>
<trkpt lat="42.180478" lon="23.372555"><ele>2187.3</ele><time>2026-03-02T06:34:40.000Z</time></trkpt>
<trkpt lat="42.180474" lon="23.372557"><ele>2187.3</ele><time>2026-03-02T06:34:41.000Z</time></trkpt>
<trkpt lat="42.180471" lon="23.372557"><ele>2187.3</ele><time>2026-03-02T06:34:42.000Z</time></trkpt>
<trkpt lat="42.180469" lon="23.372559"><ele>2187.3</ele><time>2026-03-02T06:34:43.000Z</time></trkpt>
<trkpt lat="42.180467" lon="23.372559"><ele>2187.3</ele><time>2026-03-02T06:34:44.000Z</time></trkpt>
<trkpt lat="42.180467" lon="23.37256"><ele>2187.4</ele><time>2026-03-02T06:34:45.000Z</time></trkpt>
<trkpt lat="42.180468" lon="23.372561"><ele>2187.4</ele><time>2026-03-02T06:34:46.000Z</time></trkpt>
<trkpt lat="42.180469" lon="23.372562"><ele>2187.4</ele><time>2026-03-02T06:34:47.000Z</time></trkpt>
<trkpt lat="42.180469" lon="23.372564"><ele>2187.4</ele><time>2026-03-02T06:34:48.000Z</time></trkpt>
<trkpt lat="42.18047" lon="23.372565"><ele>2187.4</ele><time>2026-03-02T06:34:49.000Z</time></trkpt>
<trkpt lat="42.18047" lon="23.372565"><ele>2187.9</ele><time>2026-03-02T06:34:50.000Z</time></trkpt>
<trkpt lat="42.18047" lon="23.372565"><ele>2187.9</ele><time>2026-03-02T06:34:51.000Z</time></trkpt>
<trkpt lat="42.18047" lon="23.372565"><ele>2187.9</ele><time>2026-03-02T06:34:52.000Z</time></trkpt>
<trkpt lat="42.18047" lon="23.372564"><ele>2187.9</ele><time>2026-03-02T06:34:53.000Z</time></trkpt>
<trkpt lat="42.18047" lon="23.372564"><ele>2187.9</ele><time>2026-03-02T06:34:54.000Z</time></trkpt>
<trkpt lat="42.18047" lon="23.372564"><ele>2188</ele><time>2026-03-02T06:34:55.000Z</time></trkpt>
<trkpt lat="42.18047" lon="23.372563"><ele>2188</ele><time>2026-03-02T06:34:56.000Z</time></trkpt>
<trkpt lat="42.18047" lon="23.372563"><ele>2188</ele><time>2026-03-02T06:34:57.000Z</time></trkpt>
<trkpt lat="42.18047" lon="23.372563"><ele>2188</ele><time>2026-03-02T06:34:58.000Z</time></trkpt>
<trkpt lat="42.18047" lon="23.372563"><ele>2188</ele><time>2026-03-02T06:34:59.000Z</time></trkpt>
<trkpt lat="42.18047" lon="23.372563"><ele>2188</ele><time>2026-03-02T06:35:00.000Z</time></trkpt>
<trkpt lat="42.18047" lon="23.372563"><ele>2188</ele><time>2026-03-02T06:35:01.000Z</time></trkpt>
<trkpt lat="42.18047" lon="23.372563"><ele>2188</ele><time>2026-03-02T06:35:02.000Z</time></trkpt>
<trkpt lat="42.18047" lon="23.372564"><ele>2188</ele><time>2026-03-02T06:35:03.000Z</time></trkpt>
<trkpt lat="42.18047" lon="23.372565"><ele>2188</ele><time>2026-03-02T06:35:04.000Z</time></trkpt>
<trkpt lat="42.18047" lon="23.372565"><ele>2187.9</ele><time>2026-03-02T06:35:05.000Z</time></trkpt>
<trkpt lat="42.180469" lon="23.372566"><ele>2187.9</ele><time>2026-03-02T06:35:06.000Z</time></trkpt>
<trkpt lat="42.180469" lon="23.372567"><ele>2187.9</ele><time>2026-03-02T06:35:07.000Z</time></trkpt>
<trkpt lat="42.180469" lon="23.372567"><ele>2187.9</ele><time>2026-03-02T06:35:08.000Z</time></trkpt>
<trkpt lat="42.180468" lon="23.372567"><ele>2187.9</ele><time>2026-03-02T06:35:09.000Z</time></trkpt>
<trkpt lat="42.180469" lon="23.372569"><ele>2188</ele><time>2026-03-02T06:35:10.000Z</time></trkpt>
<trkpt lat="42.180469" lon="23.372571"><ele>2188</ele><time>2026-03-02T06:35:11.000Z</time></trkpt>
<trkpt lat="42.180469" lon="23.372572"><ele>2188</ele><time>2026-03-02T06:35:12.000Z</time></trkpt>
<trkpt lat="42.180469" lon="23.372574"><ele>2188</ele><time>2026-03-02T06:35:13.000Z</time></trkpt>
<trkpt lat="42.180469" lon="23.372575"><ele>2188</ele><time>2026-03-02T06:35:14.000Z</time></trkpt>
<trkpt lat="42.18047" lon="23.372575"><ele>2188</ele><time>2026-03-02T06:35:15.000Z</time></trkpt>
<trkpt lat="42.18047" lon="23.372574"><ele>2188</ele><time>2026-03-02T06:35:16.000Z</time></trkpt>
<trkpt lat="42.180471" lon="23.372574"><ele>2188</ele><time>2026-03-02T06:35:17.000Z</time></trkpt>
<trkpt lat="42.180471" lon="23.372573"><ele>2188</ele><time>2026-03-02T06:35:18.000Z</time></trkpt>
<trkpt lat="42.18047" lon="23.372573"><ele>2188</ele><time>2026-03-02T06:35:19.000Z</time></trkpt>
<trkpt lat="42.180469" lon="23.372573"><ele>2187.9</ele><time>2026-03-02T06:35:20.000Z</time></trkpt>
<trkpt lat="42.180468" lon="23.372574"><ele>2187.9</ele><time>2026-03-02T06:35:21.000Z</time></trkpt>
<trkpt lat="42.180467" lon="23.372573"><ele>2187.9</ele><time>2026-03-02T06:35:22.000Z</time></trkpt>
<trkpt lat="42.180464" lon="23.372572"><ele>2187.9</ele><time>2026-03-02T06:35:23.000Z</time></trkpt>
<trkpt lat="42.180462" lon="23.372571"><ele>2187.9</ele><time>2026-03-02T06:35:24.000Z</time></trkpt>
<trkpt lat="42.180458" lon="23.37257"><ele>2187.9</ele><time>2026-03-02T06:35:25.000Z</time></trkpt>
<trkpt lat="42.180452" lon="23.372568"><ele>2187.9</ele><time>2026-03-02T06:35:26.000Z</time></trkpt>
<trkpt lat="42.180445" lon="23.372567"><ele>2187.9</ele><time>2026-03-02T06:35:27.000Z</time></trkpt>
<trkpt lat="42.180435" lon="23.372564"><ele>2187.9</ele><time>2026-03-02T06:35:28.000Z</time></trkpt>
<trkpt lat="42.180425" lon="23.372561"><ele>2187.9</ele><time>2026-03-02T06:35:29.000Z</time></trkpt>
<trkpt lat="42.180414" lon="23.372558"><ele>2188.1</ele><time>2026-03-02T06:35:30.000Z</time></trkpt>
<trkpt lat="42.180401" lon="23.372555"><ele>2188.1</ele><time>2026-03-02T06:35:31.000Z</time></trkpt>
<trkpt lat="42.180389" lon="23.372552"><ele>2188.1</ele><time>2026-03-02T06:35:32.000Z</time></trkpt>
<trkpt lat="42.180379" lon="23.372551"><ele>2188.1</ele><time>2026-03-02T06:35:33.000Z</time></trkpt>
<trkpt lat="42.180369" lon="23.37255"><ele>2188.1</ele><time>2026-03-02T06:35:34.000Z</time></trkpt>
<trkpt lat="42.180359" lon="23.372549"><ele>2188.8</ele><time>2026-03-02T06:35:35.000Z</time></trkpt>
<trkpt lat="42.18035" lon="23.372549"><ele>2188.8</ele><time>2026-03-02T06:35:36.000Z</time></trkpt>
<trkpt lat="42.180342" lon="23.372549"><ele>2188.8</ele><time>2026-03-02T06:35:37.000Z</time></trkpt>
<trkpt lat="42.180332" lon="23.372549"><ele>2188.8</ele><time>2026-03-02T06:35:38.000Z</time></trkpt>
<trkpt lat="42.180323" lon="23.372549"><ele>2188.8</ele><time>2026-03-02T06:35:39.000Z</time></trkpt>
<trkpt lat="42.180314" lon="23.372547"><ele>2189.4</ele><time>2026-03-02T06:35:40.000Z</time></trkpt>
<trkpt lat="42.180305" lon="23.372546"><ele>2189.4</ele><time>2026-03-02T06:35:41.000Z</time></trkpt>
<trkpt lat="42.180298" lon="23.372545"><ele>2189.4</ele><time>2026-03-02T06:35:42.000Z</time></trkpt>
<trkpt lat="42.180294" lon="23.372543"><ele>2189.4</ele><time>2026-03-02T06:35:43.000Z</time></trkpt>
<trkpt lat="42.180292" lon="23.372542"><ele>2189.4</ele><time>2026-03-02T06:35:44.000Z</time></trkpt>
<trkpt lat="42.180291" lon="23.372544"><ele>2190.8</ele><time>2026-03-02T06:35:45.000Z</time></trkpt>
<trkpt lat="42.180289" lon="23.372546"><ele>2190.8</ele><time>2026-03-02T06:35:46.000Z</time></trkpt>
<trkpt lat="42.180286" lon="23.372549"><ele>2190.8</ele><time>2026-03-02T06:35:47.000Z</time></trkpt>
<trkpt lat="42.180281" lon="23.372551"><ele>2190.8</ele><time>2026-03-02T06:35:48.000Z</time></trkpt>
<trkpt lat="42.180273" lon="23.372554"><ele>2190.8</ele><time>2026-03-02T06:35:49.000Z</time></trkpt>
<trkpt lat="42.180266" lon="23.372557"><ele>2192.5</ele><time>2026-03-02T06:35:50.000Z</time></trkpt>
<trkpt lat="42.180261" lon="23.372559"><ele>2192.5</ele><time>2026-03-02T06:35:51.000Z</time></trkpt>
<trkpt lat="42.180256" lon="23.372562"><ele>2192.5</ele><time>2026-03-02T06:35:52.000Z</time></trkpt>
<trkpt lat="42.180253" lon="23.372565"><ele>2192.5</ele><time>2026-03-02T06:35:53.000Z</time></trkpt>
<trkpt lat="42.180253" lon="23.372568"><ele>2192.5</ele><time>2026-03-02T06:35:54.000Z</time></trkpt>
<trkpt lat="42.180253" lon="23.37257"><ele>2193.3</ele><time>2026-03-02T06:35:55.000Z</time></trkpt>
<trkpt lat="42.180253" lon="23.372571"><ele>2193.3</ele><time>2026-03-02T06:35:56.000Z</time></trkpt>
<trkpt lat="42.180254" lon="23.372571"><ele>2193.3</ele><time>2026-03-02T06:35:57.000Z</time></trkpt>
<trkpt lat="42.180254" lon="23.372572"><ele>2193.3</ele><time>2026-03-02T06:35:58.000Z</time></trkpt>
<trkpt lat="42.180254" lon="23.372571"><ele>2193.3</ele><time>2026-03-02T06:35:59.000Z</time></trkpt>
<trkpt lat="42.180254" lon="23.372571"><ele>2194.7</ele><time>2026-03-02T06:36:00.000Z</time></trkpt>
<trkpt lat="42.180254" lon="23.372571"><ele>2194.7</ele><time>2026-03-02T06:36:01.000Z</time></trkpt>
<trkpt lat="42.180254" lon="23.372571"><ele>2194.7</ele><time>2026-03-02T06:36:02.000Z</time></trkpt>
<trkpt lat="42.180254" lon="23.372571"><ele>2194.7</ele><time>2026-03-02T06:36:03.000Z</time></trkpt>
<trkpt lat="42.180254" lon="23.372573"><ele>2194.7</ele><time>2026-03-02T06:36:04.000Z</time></trkpt>
<trkpt lat="42.180253" lon="23.372573"><ele>2195.3</ele><time>2026-03-02T06:36:05.000Z</time></trkpt>
<trkpt lat="42.18025" lon="23.372574"><ele>2195.3</ele><time>2026-03-02T06:36:06.000Z</time></trkpt>
<trkpt lat="42.180246" lon="23.372574"><ele>2195.3</ele><time>2026-03-02T06:36:07.000Z</time></trkpt>
<trkpt lat="42.180241" lon="23.372574"><ele>2195.3</ele><time>2026-03-02T06:36:08.000Z</time></trkpt>
<trkpt lat="42.180235" lon="23.372572"><ele>2195.3</ele><time>2026-03-02T06:36:09.000Z</time></trkpt>
<trkpt lat="42.180229" lon="23.37257"><ele>2195.5</ele><time>2026-03-02T06:36:10.000Z</time></trkpt>
<trkpt lat="42.180222" lon="23.372568"><ele>2195.5</ele><time>2026-03-02T06:36:11.000Z</time></trkpt>
<trkpt lat="42.180216" lon="23.372567"><ele>2195.5</ele><time>2026-03-02T06:36:12.000Z</time></trkpt>
<trkpt lat="42.180211" lon="23.372565"><ele>2195.5</ele><time>2026-03-02T06:36:13.000Z</time></trkpt>
<trkpt lat="42.180205" lon="23.372564"><ele>2195.5</ele><time>2026-03-02T06:36:14.000Z</time></trkpt>
<trkpt lat="42.180199" lon="23.372563"><ele>2195.7</ele><time>2026-03-02T06:36:15.000Z</time></trkpt>
<trkpt lat="42.180195" lon="23.372563"><ele>2195.7</ele><time>2026-03-02T06:36:16.000Z</time></trkpt>
<trkpt lat="42.18019" lon="23.372563"><ele>2195.7</ele><time>2026-03-02T06:36:17.000Z</time></trkpt>
<trkpt lat="42.180184" lon="23.372564"><ele>2195.7</ele><time>2026-03-02T06:36:18.000Z</time></trkpt>
<trkpt lat="42.180178" lon="23.372564"><ele>2195.7</ele><time>2026-03-02T06:36:19.000Z</time></trkpt>
<trkpt lat="42.180172" lon="23.372564"><ele>2196.3</ele><time>2026-03-02T06:36:20.000Z</time></trkpt>
<trkpt lat="42.180164" lon="23.372564"><ele>2196.3</ele><time>2026-03-02T06:36:21.000Z</time></trkpt>
<trkpt lat="42.180158" lon="23.372564"><ele>2196.3</ele><time>2026-03-02T06:36:22.000Z</time></trkpt>
<trkpt lat="42.180151" lon="23.372564"><ele>2196.3</ele><time>2026-03-02T06:36:23.000Z</time></trkpt>
<trkpt lat="42.180144" lon="23.372566"><ele>2196.3</ele><time>2026-03-02T06:36:24.000Z</time></trkpt>
<trkpt lat="42.180138" lon="23.372569"><ele>2196.8</ele><time>2026-03-02T06:36:25.000Z</time></trkpt>
<trkpt lat="42.180132" lon="23.372572"><ele>2196.8</ele><time>2026-03-02T06:36:26.000Z</time></trkpt>
<trkpt lat="42.180125" lon="23.372575"><ele>2196.8</ele><time>2026-03-02T06:36:27.000Z</time></trkpt>
<trkpt lat="42.180119" lon="23.372578"><ele>2196.8</ele><time>2026-03-02T06:36:28.000Z</time></trkpt>
<trkpt lat="42.180112" lon="23.372582"><ele>2196.8</ele><time>2026-03-02T06:36:29.000Z</time></trkpt>
<trkpt lat="42.180105" lon="23.372584"><ele>2198</ele><time>2026-03-02T06:36:30.000Z</time></trkpt>
<trkpt lat="42.180097" lon="23.372585"><ele>2198</ele><time>2026-03-02T06:36:31.000Z</time></trkpt>
<trkpt lat="42.180091" lon="23.372586"><ele>2198</ele><time>2026-03-02T06:36:32.000Z</time></trkpt>
<trkpt lat="42.180083" lon="23.372587"><ele>2198</ele><time>2026-03-02T06:36:33.000Z</time></trkpt>
<trkpt lat="42.180078" lon="23.372586"><ele>2198</ele><time>2026-03-02T06:36:34.000Z</time></trkpt>
<trkpt lat="42.180072" lon="23.372586"><ele>2199.2</ele><time>2026-03-02T06:36:35.000Z</time></trkpt>
<trkpt lat="42.180067" lon="23.372587"><ele>2199.2</ele><time>2026-03-02T06:36:36.000Z</time></trkpt>
<trkpt lat="42.180062" lon="23.372587"><ele>2199.2</ele><time>2026-03-02T06:36:37.000Z</time></trkpt>
<trkpt lat="42.180058" lon="23.372587"><ele>2199.2</ele><time>2026-03-02T06:36:38.000Z</time></trkpt>
<trkpt lat="42.180054" lon="23.372588"><ele>2199.2</ele><time>2026-03-02T06:36:39.000Z</time></trkpt>
<trkpt lat="42.18005" lon="23.372587"><ele>2199.8</ele><time>2026-03-02T06:36:40.000Z</time></trkpt>
<trkpt lat="42.180046" lon="23.372586"><ele>2199.8</ele><time>2026-03-02T06:36:41.000Z</time></trkpt>
<trkpt lat="42.180039" lon="23.372586"><ele>2199.8</ele><time>2026-03-02T06:36:42.000Z</time></trkpt>
<trkpt lat="42.180034" lon="23.372586"><ele>2199.8</ele><time>2026-03-02T06:36:43.000Z</time></trkpt>
<trkpt lat="42.180028" lon="23.372585"><ele>2199.8</ele><time>2026-03-02T06:36:44.000Z</time></trkpt>
<trkpt lat="42.18002" lon="23.372585"><ele>2201</ele><time>2026-03-02T06:36:45.000Z</time></trkpt>
<trkpt lat="42.180013" lon="23.372586"><ele>2201</ele><time>2026-03-02T06:36:46.000Z</time></trkpt>
<trkpt lat="42.180007" lon="23.372587"><ele>2201</ele><time>2026-03-02T06:36:47.000Z</time></trkpt>
<trkpt lat="42.18" lon="23.372588"><ele>2201</ele><time>2026-03-02T06:36:48.000Z</time></trkpt>
<trkpt lat="42.179993" lon="23.37259"><ele>2201</ele><time>2026-03-02T06:36:49.000Z</time></trkpt>
<trkpt lat="42.179987" lon="23.372593"><ele>2202.1</ele><time>2026-03-02T06:36:50.000Z</time></trkpt>
<trkpt lat="42.17998" lon="23.372595"><ele>2202.1</ele><time>2026-03-02T06:36:51.000Z</time></trkpt>
<trkpt lat="42.179973" lon="23.372598"><ele>2202.1</ele><time>2026-03-02T06:36:52.000Z</time></trkpt>
<trkpt lat="42.179967" lon="23.372601"><ele>2202.1</ele><time>2026-03-02T06:36:53.000Z</time></trkpt>
<trkpt lat="42.179959" lon="23.372604"><ele>2202.1</ele><time>2026-03-02T06:36:54.000Z</time></trkpt>
<trkpt lat="42.179952" lon="23.372607"><ele>2202.7</ele><time>2026-03-02T06:36:55.000Z</time></trkpt>
<trkpt lat="42.179946" lon="23.372611"><ele>2202.7</ele><time>2026-03-02T06:36:56.000Z</time></trkpt>
<trkpt lat="42.179938" lon="23.372615"><ele>2202.7</ele><time>2026-03-02T06:36:57.000Z</time></trkpt>
<trkpt lat="42.179931" lon="23.372618"><ele>2202.7</ele><time>2026-03-02T06:36:58.000Z</time></trkpt>
<trkpt lat="42.179925" lon="23.37262"><ele>2202.7</ele><time>2026-03-02T06:36:59.000Z</time></trkpt>
<trkpt lat="42.179918" lon="23.37262"><ele>2203.9</ele><time>2026-03-02T06:37:00.000Z</time></trkpt>
<trkpt lat="42.179912" lon="23.372619"><ele>2203.9</ele><time>2026-03-02T06:37:01.000Z</time></trkpt>
<trkpt lat="42.179907" lon="23.372617"><ele>2203.9</ele><time>2026-03-02T06:37:02.000Z</time></trkpt>
<trkpt lat="42.179902" lon="23.372616"><ele>2203.9</ele><time>2026-03-02T06:37:03.000Z</time></trkpt>
<trkpt lat="42.179897" lon="23.372614"><ele>2203.9</ele><time>2026-03-02T06:37:04.000Z</time></trkpt>
<trkpt lat="42.179892" lon="23.372615"><ele>2205.2</ele><time>2026-03-02T06:37:05.000Z</time></trkpt>
<trkpt lat="42.179887" lon="23.372616"><ele>2205.2</ele><time>2026-03-02T06:37:06.000Z</time></trkpt>
<trkpt lat="42.179882" lon="23.372617"><ele>2205.2</ele><time>2026-03-02T06:37:07.000Z</time></trkpt>
<trkpt lat="42.179877" lon="23.372618"><ele>2205.2</ele><time>2026-03-02T06:37:08.000Z</time></trkpt>
<trkpt lat="42.179872" lon="23.372619"><ele>2205.2</ele><time>2026-03-02T06:37:09.000Z</time></trkpt>
<trkpt lat="42.179867" lon="23.372619"><ele>2205.9</ele><time>2026-03-02T06:37:10.000Z</time></trkpt>
<trkpt lat="42.179861" lon="23.372618"><ele>2205.9</ele><time>2026-03-02T06:37:11.000Z</time></trkpt>
<trkpt lat="42.179856" lon="23.372618"><ele>2205.9</ele><time>2026-03-02T06:37:12.000Z</time></trkpt>
<trkpt lat="42.179851" lon="23.372617"><ele>2205.9</ele><time>2026-03-02T06:37:13.000Z</time></trkpt>
<trkpt lat="42.179844" lon="23.372617"><ele>2205.9</ele><time>2026-03-02T06:37:14.000Z</time></trkpt>
<trkpt lat="42.179838" lon="23.372618"><ele>2207.2</ele><time>2026-03-02T06:37:15.000Z</time></trkpt>
<trkpt lat="42.179833" lon="23.372619"><ele>2207.2</ele><time>2026-03-02T06:37:16.000Z</time></trkpt>
<trkpt lat="42.179826" lon="23.37262"><ele>2207.2</ele><time>2026-03-02T06:37:17.000Z</time></trkpt>
<trkpt lat="42.179819" lon="23.372623"><ele>2207.2</ele><time>2026-03-02T06:37:18.000Z</time></trkpt>
<trkpt lat="42.179812" lon="23.372624"><ele>2207.2</ele><time>2026-03-02T06:37:19.000Z</time></trkpt>
<trkpt lat="42.179804" lon="23.372625"><ele>2208.5</ele><time>2026-03-02T06:37:20.000Z</time></trkpt>
<trkpt lat="42.179797" lon="23.372625"><ele>2208.5</ele><time>2026-03-02T06:37:21.000Z</time></trkpt>
<trkpt lat="42.17979" lon="23.372625"><ele>2208.5</ele><time>2026-03-02T06:37:22.000Z</time></trkpt>
<trkpt lat="42.179784" lon="23.372626"><ele>2208.5</ele><time>2026-03-02T06:37:23.000Z</time></trkpt>
<trkpt lat="42.179778" lon="23.372627"><ele>2208.5</ele><time>2026-03-02T06:37:24.000Z</time></trkpt>
<trkpt lat="42.179773" lon="23.37263"><ele>2209</ele><time>2026-03-02T06:37:25.000Z</time></trkpt>
<trkpt lat="42.179768" lon="23.372633"><ele>2209</ele><time>2026-03-02T06:37:26.000Z</time></trkpt>
<trkpt lat="42.179763" lon="23.372636"><ele>2209</ele><time>2026-03-02T06:37:27.000Z</time></trkpt>
<trkpt lat="42.179758" lon="23.372639"><ele>2209</ele><time>2026-03-02T06:37:28.000Z</time></trkpt>
<trkpt lat="42.179752" lon="23.372642"><ele>2209</ele><time>2026-03-02T06:37:29.000Z</time></trkpt>
<trkpt lat="42.179745" lon="23.372645"><ele>2210</ele><time>2026-03-02T06:37:30.000Z</time></trkpt>
<trkpt lat="42.179739" lon="23.372649"><ele>2210</ele><time>2026-03-02T06:37:31.000Z</time></trkpt>
<trkpt lat="42.179733" lon="23.372653"><ele>2210</ele><time>2026-03-02T06:37:32.000Z</time></trkpt>
<trkpt lat="42.179726" lon="23.372656"><ele>2210</ele><time>2026-03-02T06:37:33.000Z</time></trkpt>
<trkpt lat="42.179721" lon="23.372659"><ele>2210</ele><time>2026-03-02T06:37:34.000Z</time></trkpt>
<trkpt lat="42.179715" lon="23.372662"><ele>2211</ele><time>2026-03-02T06:37:35.000Z</time></trkpt>
<trkpt lat="42.179709" lon="23.372664"><ele>2211</ele><time>2026-03-02T06:37:36.000Z</time></trkpt>
<trkpt lat="42.179704" lon="23.372667"><ele>2211</ele><time>2026-03-02T06:37:37.000Z</time></trkpt>
<trkpt lat="42.179699" lon="23.372669"><ele>2211</ele><time>2026-03-02T06:37:38.000Z</time></trkpt>
<trkpt lat="42.179694" lon="23.372671"><ele>2211</ele><time>2026-03-02T06:37:39.000Z</time></trkpt>
<trkpt lat="42.179689" lon="23.372672"><ele>2211.5</ele><time>2026-03-02T06:37:40.000Z</time></trkpt>
<trkpt lat="42.179684" lon="23.372672"><ele>2211.5</ele><time>2026-03-02T06:37:41.000Z</time></trkpt>
<trkpt lat="42.17968" lon="23.372671"><ele>2211.5</ele><time>2026-03-02T06:37:42.000Z</time></trkpt>
<trkpt lat="42.179676" lon="23.372671"><ele>2211.5</ele><time>2026-03-02T06:37:43.000Z</time></trkpt>
<trkpt lat="42.179671" lon="23.372671"><ele>2211.5</ele><time>2026-03-02T06:37:44.000Z</time></trkpt>
<trkpt lat="42.179666" lon="23.372671"><ele>2212.5</ele><time>2026-03-02T06:37:45.000Z</time></trkpt>
<trkpt lat="42.17966" lon="23.372674"><ele>2212.5</ele><time>2026-03-02T06:37:46.000Z</time></trkpt>
<trkpt lat="42.179654" lon="23.372675"><ele>2212.5</ele><time>2026-03-02T06:37:47.000Z</time></trkpt>
<trkpt lat="42.179648" lon="23.372676"><ele>2212.5</ele><time>2026-03-02T06:37:48.000Z</time></trkpt>
<trkpt lat="42.179642" lon="23.372677"><ele>2212.5</ele><time>2026-03-02T06:37:49.000Z</time></trkpt>
<trkpt lat="42.179637" lon="23.372677"><ele>2213.5</ele><time>2026-03-02T06:37:50.000Z</time></trkpt>
<trkpt lat="42.179631" lon="23.372674"><ele>2213.5</ele><time>2026-03-02T06:37:51.000Z</time></trkpt>
<trkpt lat="42.179625" lon="23.372671"><ele>2213.5</ele><time>2026-03-02T06:37:52.000Z</time></trkpt>
<trkpt lat="42.17962" lon="23.372668"><ele>2213.5</ele><time>2026-03-02T06:37:53.000Z</time></trkpt>
<trkpt lat="42.179616" lon="23.372666"><ele>2213.5</ele><time>2026-03-02T06:37:54.000Z</time></trkpt>
<trkpt lat="42.179613" lon="23.372664"><ele>2214</ele><time>2026-03-02T06:37:55.000Z</time></trkpt>
<trkpt lat="42.179612" lon="23.372662"><ele>2214</ele><time>2026-03-02T06:37:56.000Z</time></trkpt>
<trkpt lat="42.179612" lon="23.372662"><ele>2214</ele><time>2026-03-02T06:37:57.000Z</time></trkpt>
<trkpt lat="42.179612" lon="23.372662"><ele>2214</ele><time>2026-03-02T06:37:58.000Z</time></trkpt>
<trkpt lat="42.179611" lon="23.372662"><ele>2214</ele><time>2026-03-02T06:37:59.000Z</time></trkpt>
<trkpt lat="42.179611" lon="23.372662"><ele>2214.9</ele><time>2026-03-02T06:38:00.000Z</time></trkpt>
<trkpt lat="42.17961" lon="23.372665"><ele>2214.9</ele><time>2026-03-02T06:38:01.000Z</time></trkpt>
<trkpt lat="42.179608" lon="23.37267"><ele>2214.9</ele><time>2026-03-02T06:38:02.000Z</time></trkpt>
<trkpt lat="42.179604" lon="23.372676"><ele>2214.9</ele><time>2026-03-02T06:38:03.000Z</time></trkpt>
<trkpt lat="42.179598" lon="23.372682"><ele>2214.9</ele><time>2026-03-02T06:38:04.000Z</time></trkpt>
<trkpt lat="42.179591" lon="23.372687"><ele>2215.4</ele><time>2026-03-02T06:38:05.000Z</time></trkpt>
<trkpt lat="42.179584" lon="23.372692"><ele>2215.4</ele><time>2026-03-02T06:38:06.000Z</time></trkpt>
<trkpt lat="42.179576" lon="23.372695"><ele>2215.4</ele><time>2026-03-02T06:38:07.000Z</time></trkpt>
<trkpt lat="42.179569" lon="23.372698"><ele>2215.4</ele><time>2026-03-02T06:38:08.000Z</time></trkpt>
<trkpt lat="42.179563" lon="23.372702"><ele>2215.4</ele><time>2026-03-02T06:38:09.000Z</time></trkpt>
<trkpt lat="42.179557" lon="23.372708"><ele>2215.5</ele><time>2026-03-02T06:38:10.000Z</time></trkpt>
<trkpt lat="42.179551" lon="23.372712"><ele>2215.5</ele><time>2026-03-02T06:38:11.000Z</time></trkpt>
<trkpt lat="42.179544" lon="23.372716"><ele>2215.5</ele><time>2026-03-02T06:38:12.000Z</time></trkpt>
<trkpt lat="42.179538" lon="23.37272"><ele>2215.5</ele><time>2026-03-02T06:38:13.000Z</time></trkpt>
<trkpt lat="42.179533" lon="23.372723"><ele>2215.5</ele><time>2026-03-02T06:38:14.000Z</time></trkpt>
<trkpt lat="42.179529" lon="23.372725"><ele>2215.6</ele><time>2026-03-02T06:38:15.000Z</time></trkpt>
<trkpt lat="42.179525" lon="23.372726"><ele>2215.6</ele><time>2026-03-02T06:38:16.000Z</time></trkpt>
<trkpt lat="42.179522" lon="23.372728"><ele>2215.6</ele><time>2026-03-02T06:38:17.000Z</time></trkpt>
<trkpt lat="42.17952" lon="23.372731"><ele>2215.6</ele><time>2026-03-02T06:38:18.000Z</time></trkpt>
<trkpt lat="42.179518" lon="23.372733"><ele>2215.6</ele><time>2026-03-02T06:38:19.000Z</time></trkpt>
<trkpt lat="42.179515" lon="23.372735"><ele>2215.8</ele><time>2026-03-02T06:38:20.000Z</time></trkpt>
<trkpt lat="42.179512" lon="23.372738"><ele>2215.8</ele><time>2026-03-02T06:38:21.000Z</time></trkpt>
<trkpt lat="42.179509" lon="23.372741"><ele>2215.8</ele><time>2026-03-02T06:38:22.000Z</time></trkpt>
<trkpt lat="42.179504" lon="23.372742"><ele>2215.8</ele><time>2026-03-02T06:38:23.000Z</time></trkpt>
<trkpt lat="42.179499" lon="23.372744"><ele>2215.8</ele><time>2026-03-02T06:38:24.000Z</time></trkpt>
<trkpt lat="42.179493" lon="23.372744"><ele>2216</ele><time>2026-03-02T06:38:25.000Z</time></trkpt>
<trkpt lat="42.179487" lon="23.372746"><ele>2216</ele><time>2026-03-02T06:38:26.000Z</time></trkpt>
<trkpt lat="42.17948" lon="23.372747"><ele>2216</ele><time>2026-03-02T06:38:27.000Z</time></trkpt>
<trkpt lat="42.179474" lon="23.372748"><ele>2216</ele><time>2026-03-02T06:38:28.000Z</time></trkpt>
<trkpt lat="42.179467" lon="23.37275"><ele>2216</ele><time>2026-03-02T06:38:29.000Z</time></trkpt>
<trkpt lat="42.17946" lon="23.372753"><ele>2216.8</ele><time>2026-03-02T06:38:30.000Z</time></trkpt>
<trkpt lat="42.179454" lon="23.372755"><ele>2216.8</ele><time>2026-03-02T06:38:31.000Z</time></trkpt>
<trkpt lat="42.179446" lon="23.372758"><ele>2216.8</ele><time>2026-03-02T06:38:32.000Z</time></trkpt>
<trkpt lat="42.17944" lon="23.372761"><ele>2216.8</ele><time>2026-03-02T06:38:33.000Z</time></trkpt>
<trkpt lat="42.179432" lon="23.372765"><ele>2216.8</ele><time>2026-03-02T06:38:34.000Z</time></trkpt>
<trkpt lat="42.179424" lon="23.372768"><ele>2217.8</ele><time>2026-03-02T06:38:35.000Z</time></trkpt>
<trkpt lat="42.179417" lon="23.372772"><ele>2217.8</ele><time>2026-03-02T06:38:36.000Z</time></trkpt>
<trkpt lat="42.179411" lon="23.372775"><ele>2217.8</ele><time>2026-03-02T06:38:37.000Z</time></trkpt>
<trkpt lat="42.179404" lon="23.372778"><ele>2217.8</ele><time>2026-03-02T06:38:38.000Z</time></trkpt>
<trkpt lat="42.179397" lon="23.372781"><ele>2217.8</ele><time>2026-03-02T06:38:39.000Z</time></trkpt>
<trkpt lat="42.179391" lon="23.372783"><ele>2218.3</ele><time>2026-03-02T06:38:40.000Z</time></trkpt>
<trkpt lat="42.179384" lon="23.372786"><ele>2218.3</ele><time>2026-03-02T06:38:41.000Z</time></trkpt>
<trkpt lat="42.179376" lon="23.37279"><ele>2218.3</ele><time>2026-03-02T06:38:42.000Z</time></trkpt>
<trkpt lat="42.179369" lon="23.372796"><ele>2218.3</ele><time>2026-03-02T06:38:43.000Z</time></trkpt>
<trkpt lat="42.179362" lon="23.372802"><ele>2218.3</ele><time>2026-03-02T06:38:44.000Z</time></trkpt>
<trkpt lat="42.179353" lon="23.372809"><ele>2219.4</ele><time>2026-03-02T06:38:45.000Z</time></trkpt>
<trkpt lat="42.179345" lon="23.372816"><ele>2219.4</ele><time>2026-03-02T06:38:46.000Z</time></trkpt>
<trkpt lat="42.179337" lon="23.372823"><ele>2219.4</ele><time>2026-03-02T06:38:47.000Z</time></trkpt>
<trkpt lat="42.179328" lon="23.372829"><ele>2219.4</ele><time>2026-03-02T06:38:48.000Z</time></trkpt>
<trkpt lat="42.179319" lon="23.372833"><ele>2219.4</ele><time>2026-03-02T06:38:49.000Z</time></trkpt>
<trkpt lat="42.17931" lon="23.372837"><ele>2220.6</ele><time>2026-03-02T06:38:50.000Z</time></trkpt>
<trkpt lat="42.179302" lon="23.372841"><ele>2220.6</ele><time>2026-03-02T06:38:51.000Z</time></trkpt>
<trkpt lat="42.179294" lon="23.372845"><ele>2220.6</ele><time>2026-03-02T06:38:52.000Z</time></trkpt>
<trkpt lat="42.179286" lon="23.372849"><ele>2220.6</ele><time>2026-03-02T06:38:53.000Z</time></trkpt>
<trkpt lat="42.179278" lon="23.372854"><ele>2220.6</ele><time>2026-03-02T06:38:54.000Z</time></trkpt>
<trkpt lat="42.179271" lon="23.37286"><ele>2221.1</ele><time>2026-03-02T06:38:55.000Z</time></trkpt>
<trkpt lat="42.179263" lon="23.372866"><ele>2221.1</ele><time>2026-03-02T06:38:56.000Z</time></trkpt>
<trkpt lat="42.179255" lon="23.372873"><ele>2221.1</ele><time>2026-03-02T06:38:57.000Z</time></trkpt>
<trkpt lat="42.179247" lon="23.372879"><ele>2221.1</ele><time>2026-03-02T06:38:58.000Z</time></trkpt>
<trkpt lat="42.179238" lon="23.372885"><ele>2221.1</ele><time>2026-03-02T06:38:59.000Z</time></trkpt>
<trkpt lat="42.179228" lon="23.372892"><ele>2222</ele><time>2026-03-02T06:39:00.000Z</time></trkpt>
<trkpt lat="42.17922" lon="23.3729"><ele>2222</ele><time>2026-03-02T06:39:01.000Z</time></trkpt>
<trkpt lat="42.179213" lon="23.372905"><ele>2222</ele><time>2026-03-02T06:39:02.000Z</time></trkpt>
<trkpt lat="42.179205" lon="23.37291"><ele>2222</ele><time>2026-03-02T06:39:03.000Z</time></trkpt>
<trkpt lat="42.179198" lon="23.372914"><ele>2222</ele><time>2026-03-02T06:39:04.000Z</time></trkpt>
<trkpt lat="42.179193" lon="23.372919"><ele>2223</ele><time>2026-03-02T06:39:05.000Z</time></trkpt>
<trkpt lat="42.179186" lon="23.372923"><ele>2223</ele><time>2026-03-02T06:39:06.000Z</time></trkpt>
<trkpt lat="42.179179" lon="23.372928"><ele>2223</ele><time>2026-03-02T06:39:07.000Z</time></trkpt>
<trkpt lat="42.179171" lon="23.372935"><ele>2223</ele><time>2026-03-02T06:39:08.000Z</time></trkpt>
<trkpt lat="42.179162" lon="23.372941"><ele>2223</ele><time>2026-03-02T06:39:09.000Z</time></trkpt>
<trkpt lat="42.179152" lon="23.372947"><ele>2223.5</ele><time>2026-03-02T06:39:10.000Z</time></trkpt>
<trkpt lat="42.179143" lon="23.372953"><ele>2223.5</ele><time>2026-03-02T06:39:11.000Z</time></trkpt>
<trkpt lat="42.179136" lon="23.372959"><ele>2223.5</ele><time>2026-03-02T06:39:12.000Z</time></trkpt>
<trkpt lat="42.179129" lon="23.372962"><ele>2223.5</ele><time>2026-03-02T06:39:13.000Z</time></trkpt>
<trkpt lat="42.179122" lon="23.372965"><ele>2223.5</ele><time>2026-03-02T06:39:14.000Z</time></trkpt>
<trkpt lat="42.179114" lon="23.372969"><ele>2224.5</ele><time>2026-03-02T06:39:15.000Z</time></trkpt>
<trkpt lat="42.179106" lon="23.372973"><ele>2224.5</ele><time>2026-03-02T06:39:16.000Z</time></trkpt>
<trkpt lat="42.179097" lon="23.372977"><ele>2224.5</ele><time>2026-03-02T06:39:17.000Z</time></trkpt>
<trkpt lat="42.179087" lon="23.372983"><ele>2224.5</ele><time>2026-03-02T06:39:18.000Z</time></trkpt>
<trkpt lat="42.179078" lon="23.372988"><ele>2224.5</ele><time>2026-03-02T06:39:19.000Z</time></trkpt>
<trkpt lat="42.179069" lon="23.372992"><ele>2225.3</ele><time>2026-03-02T06:39:20.000Z</time></trkpt>
<trkpt lat="42.179061" lon="23.372996"><ele>2225.3</ele><time>2026-03-02T06:39:21.000Z</time></trkpt>
<trkpt lat="42.179053" lon="23.373"><ele>2225.3</ele><time>2026-03-02T06:39:22.000Z</time></trkpt>
<trkpt lat="42.179046" lon="23.373003"><ele>2225.3</ele><time>2026-03-02T06:39:23.000Z</time></trkpt>
<trkpt lat="42.179039" lon="23.373006"><ele>2225.3</ele><time>2026-03-02T06:39:24.000Z</time></trkpt>
<trkpt lat="42.179031" lon="23.37301"><ele>2225.7</ele><time>2026-03-02T06:39:25.000Z</time></trkpt>
<trkpt lat="42.179022" lon="23.373015"><ele>2225.7</ele><time>2026-03-02T06:39:26.000Z</time></trkpt>
<trkpt lat="42.179015" lon="23.373021"><ele>2225.7</ele><time>2026-03-02T06:39:27.000Z</time></trkpt>
<trkpt lat="42.179007" lon="23.373026"><ele>2225.7</ele><time>2026-03-02T06:39:28.000Z</time></trkpt>
<trkpt lat="42.178999" lon="23.373032"><ele>2225.7</ele><time>2026-03-02T06:39:29.000Z</time></trkpt>
<trkpt lat="42.17899" lon="23.373038"><ele>2226.5</ele><time>2026-03-02T06:39:30.000Z</time></trkpt>
<trkpt lat="42.178982" lon="23.373046"><ele>2226.5</ele><time>2026-03-02T06:39:31.000Z</time></trkpt>
<trkpt lat="42.178974" lon="23.373054"><ele>2226.5</ele><time>2026-03-02T06:39:32.000Z</time></trkpt>
<trkpt lat="42.178964" lon="23.373063"><ele>2226.5</ele><time>2026-03-02T06:39:33.000Z</time></trkpt>
<trkpt lat="42.178954" lon="23.373071"><ele>2226.5</ele><time>2026-03-02T06:39:34.000Z</time></trkpt>
<trkpt lat="42.178944" lon="23.373078"><ele>2227.4</ele><time>2026-03-02T06:39:35.000Z</time></trkpt>
<trkpt lat="42.178934" lon="23.373083"><ele>2227.4</ele><time>2026-03-02T06:39:36.000Z</time></trkpt>
<trkpt lat="42.178924" lon="23.373087"><ele>2227.4</ele><time>2026-03-02T06:39:37.000Z</time></trkpt>
<trkpt lat="42.178914" lon="23.373092"><ele>2227.4</ele><time>2026-03-02T06:39:38.000Z</time></trkpt>
<trkpt lat="42.178905" lon="23.373096"><ele>2227.4</ele><time>2026-03-02T06:39:39.000Z</time></trkpt>
<trkpt lat="42.178896" lon="23.373099"><ele>2227.9</ele><time>2026-03-02T06:39:40.000Z</time></trkpt>
<trkpt lat="42.178886" lon="23.373104"><ele>2227.9</ele><time>2026-03-02T06:39:41.000Z</time></trkpt>
<trkpt lat="42.178877" lon="23.373109"><ele>2227.9</ele><time>2026-03-02T06:39:42.000Z</time></trkpt>
<trkpt lat="42.17887" lon="23.373112"><ele>2227.9</ele><time>2026-03-02T06:39:43.000Z</time></trkpt>
<trkpt lat="42.178862" lon="23.373116"><ele>2227.9</ele><time>2026-03-02T06:39:44.000Z</time></trkpt>
<trkpt lat="42.178854" lon="23.37312"><ele>2228.6</ele><time>2026-03-02T06:39:45.000Z</time></trkpt>
<trkpt lat="42.178848" lon="23.373123"><ele>2228.6</ele><time>2026-03-02T06:39:46.000Z</time></trkpt>
<trkpt lat="42.178841" lon="23.373125"><ele>2228.6</ele><time>2026-03-02T06:39:47.000Z</time></trkpt>
<trkpt lat="42.178833" lon="23.373127"><ele>2228.6</ele><time>2026-03-02T06:39:48.000Z</time></trkpt>
<trkpt lat="42.178826" lon="23.373129"><ele>2228.6</ele><time>2026-03-02T06:39:49.000Z</time></trkpt>
<trkpt lat="42.178819" lon="23.373131"><ele>2229.1</ele><time>2026-03-02T06:39:50.000Z</time></trkpt>
<trkpt lat="42.178811" lon="23.373134"><ele>2229.1</ele><time>2026-03-02T06:39:51.000Z</time></trkpt>
<trkpt lat="42.178803" lon="23.373137"><ele>2229.1</ele><time>2026-03-02T06:39:52.000Z</time></trkpt>
<trkpt lat="42.178795" lon="23.373142"><ele>2229.1</ele><time>2026-03-02T06:39:53.000Z</time></trkpt>
<trkpt lat="42.178787" lon="23.373147"><ele>2229.1</ele><time>2026-03-02T06:39:54.000Z</time></trkpt>
<trkpt lat="42.178779" lon="23.373153"><ele>2229.4</ele><time>2026-03-02T06:39:55.000Z</time></trkpt>
<trkpt lat="42.17877" lon="23.373159"><ele>2229.4</ele><time>2026-03-02T06:39:56.000Z</time></trkpt>
<trkpt lat="42.178763" lon="23.373166"><ele>2229.4</ele><time>2026-03-02T06:39:57.000Z</time></trkpt>
<trkpt lat="42.178754" lon="23.373171"><ele>2229.4</ele><time>2026-03-02T06:39:58.000Z</time></trkpt>
<trkpt lat="42.178746" lon="23.373176"><ele>2229.4</ele><time>2026-03-02T06:39:59.000Z</time></trkpt>
<trkpt lat="42.178738" lon="23.373181"><ele>2230.1</ele><time>2026-03-02T06:40:00.000Z</time></trkpt>
<trkpt lat="42.17873" lon="23.373185"><ele>2230.1</ele><time>2026-03-02T06:40:01.000Z</time></trkpt>
<trkpt lat="42.178721" lon="23.373188"><ele>2230.1</ele><time>2026-03-02T06:40:02.000Z</time></trkpt>
<trkpt lat="42.178712" lon="23.373191"><ele>2230.1</ele><time>2026-03-02T06:40:03.000Z</time></trkpt>
<trkpt lat="42.178703" lon="23.373195"><ele>2230.1</ele><time>2026-03-02T06:40:04.000Z</time></trkpt>
<trkpt lat="42.178695" lon="23.373198"><ele>2230.9</ele><time>2026-03-02T06:40:05.000Z</time></trkpt>
<trkpt lat="42.178687" lon="23.373201"><ele>2230.9</ele><time>2026-03-02T06:40:06.000Z</time></trkpt>
<trkpt lat="42.178679" lon="23.373204"><ele>2230.9</ele><time>2026-03-02T06:40:07.000Z</time></trkpt>
<trkpt lat="42.178671" lon="23.373208"><ele>2230.9</ele><time>2026-03-02T06:40:08.000Z</time></trkpt>
<trkpt lat="42.178663" lon="23.373212"><ele>2230.9</ele><time>2026-03-02T06:40:09.000Z</time></trkpt>
<trkpt lat="42.178654" lon="23.373216"><ele>2231.3</ele><time>2026-03-02T06:40:10.000Z</time></trkpt>
<trkpt lat="42.178647" lon="23.373219"><ele>2231.3</ele><time>2026-03-02T06:40:11.000Z</time></trkpt>
<trkpt lat="42.178641" lon="23.373222"><ele>2231.3</ele><time>2026-03-02T06:40:12.000Z</time></trkpt>
<trkpt lat="42.178635" lon="23.373225"><ele>2231.3</ele><time>2026-03-02T06:40:13.000Z</time></trkpt>
<trkpt lat="42.178629" lon="23.373228"><ele>2231.3</ele><time>2026-03-02T06:40:14.000Z</time></trkpt>
<trkpt lat="42.178623" lon="23.373232"><ele>2232.1</ele><time>2026-03-02T06:40:15.000Z</time></trkpt>
<trkpt lat="42.178616" lon="23.373236"><ele>2232.1</ele><time>2026-03-02T06:40:16.000Z</time></trkpt>
<trkpt lat="42.178606" lon="23.37324"><ele>2232.1</ele><time>2026-03-02T06:40:17.000Z</time></trkpt>
<trkpt lat="42.178597" lon="23.373245"><ele>2232.1</ele><time>2026-03-02T06:40:18.000Z</time></trkpt>
<trkpt lat="42.178587" lon="23.373249"><ele>2232.1</ele><time>2026-03-02T06:40:19.000Z</time></trkpt>
<trkpt lat="42.178579" lon="23.373253"><ele>2233</ele><time>2026-03-02T06:40:20.000Z</time></trkpt>
<trkpt lat="42.17857" lon="23.373258"><ele>2233</ele><time>2026-03-02T06:40:21.000Z</time></trkpt>
<trkpt lat="42.178561" lon="23.373264"><ele>2233</ele><time>2026-03-02T06:40:22.000Z</time></trkpt>
<trkpt lat="42.178553" lon="23.373269"><ele>2233</ele><time>2026-03-02T06:40:23.000Z</time></trkpt>
<trkpt lat="42.178545" lon="23.373276"><ele>2233</ele><time>2026-03-02T06:40:24.000Z</time></trkpt>
<trkpt lat="42.178536" lon="23.373282"><ele>2233.4</ele><time>2026-03-02T06:40:25.000Z</time></trkpt>
<trkpt lat="42.178528" lon="23.373287"><ele>2233.4</ele><time>2026-03-02T06:40:26.000Z</time></trkpt>
<trkpt lat="42.178519" lon="23.373293"><ele>2233.4</ele><time>2026-03-02T06:40:27.000Z</time></trkpt>
<trkpt lat="42.17851" lon="23.373298"><ele>2233.4</ele><time>2026-03-02T06:40:28.000Z</time></trkpt>
<trkpt lat="42.178502" lon="23.373302"><ele>2233.4</ele><time>2026-03-02T06:40:29.000Z</time></trkpt>
<trkpt lat="42.178495" lon="23.373305"><ele>2234.3</ele><time>2026-03-02T06:40:30.000Z</time></trkpt>
<trkpt lat="42.178488" lon="23.373311"><ele>2234.3</ele><time>2026-03-02T06:40:31.000Z</time></trkpt>
<trkpt lat="42.178481" lon="23.373317"><ele>2234.3</ele><time>2026-03-02T06:40:32.000Z</time></trkpt>
<trkpt lat="42.178474" lon="23.373323"><ele>2234.3</ele><time>2026-03-02T06:40:33.000Z</time></trkpt>
<trkpt lat="42.178467" lon="23.37333"><ele>2234.3</ele><time>2026-03-02T06:40:34.000Z</time></trkpt>
<trkpt lat="42.178458" lon="23.373338"><ele>2235.3</ele><time>2026-03-02T06:40:35.000Z</time></trkpt>
<trkpt lat="42.178449" lon="23.373344"><ele>2235.3</ele><time>2026-03-02T06:40:36.000Z</time></trkpt>
<trkpt lat="42.17844" lon="23.373349"><ele>2235.3</ele><time>2026-03-02T06:40:37.000Z</time></trkpt>
<trkpt lat="42.178432" lon="23.373354"><ele>2235.3</ele><time>2026-03-02T06:40:38.000Z</time></trkpt>
<trkpt lat="42.178422" lon="23.37336"><ele>2235.3</ele><time>2026-03-02T06:40:39.000Z</time></trkpt>
<trkpt lat="42.178413" lon="23.373366"><ele>2235.7</ele><time>2026-03-02T06:40:40.000Z</time></trkpt>
<trkpt lat="42.178403" lon="23.373371"><ele>2235.7</ele><time>2026-03-02T06:40:41.000Z</time></trkpt>
<trkpt lat="42.178393" lon="23.373376"><ele>2235.7</ele><time>2026-03-02T06:40:42.000Z</time></trkpt>
<trkpt lat="42.178382" lon="23.373381"><ele>2235.7</ele><time>2026-03-02T06:40:43.000Z</time></trkpt>
<trkpt lat="42.178372" lon="23.373385"><ele>2235.7</ele><time>2026-03-02T06:40:44.000Z</time></trkpt>
<trkpt lat="42.178361" lon="23.373388"><ele>2236.6</ele><time>2026-03-02T06:40:45.000Z</time></trkpt>
<trkpt lat="42.17835" lon="23.373392"><ele>2236.6</ele><time>2026-03-02T06:40:46.000Z</time></trkpt>
<trkpt lat="42.178339" lon="23.373396"><ele>2236.6</ele><time>2026-03-02T06:40:47.000Z</time></trkpt>
<trkpt lat="42.178328" lon="23.3734"><ele>2236.6</ele><time>2026-03-02T06:40:48.000Z</time></trkpt>
<trkpt lat="42.178317" lon="23.373403"><ele>2236.6</ele><time>2026-03-02T06:40:49.000Z</time></trkpt>
<trkpt lat="42.178308" lon="23.373407"><ele>2237.3</ele><time>2026-03-02T06:40:50.000Z</time></trkpt>
<trkpt lat="42.178299" lon="23.37341"><ele>2237.3</ele><time>2026-03-02T06:40:51.000Z</time></trkpt>
<trkpt lat="42.178291" lon="23.373413"><ele>2237.3</ele><time>2026-03-02T06:40:52.000Z</time></trkpt>
<trkpt lat="42.178282" lon="23.373415"><ele>2237.3</ele><time>2026-03-02T06:40:53.000Z</time></trkpt>
<trkpt lat="42.178275" lon="23.373417"><ele>2237.3</ele><time>2026-03-02T06:40:54.000Z</time></trkpt>
<trkpt lat="42.178267" lon="23.373418"><ele>2237.6</ele><time>2026-03-02T06:40:55.000Z</time></trkpt>
<trkpt lat="42.178259" lon="23.373418"><ele>2237.6</ele><time>2026-03-02T06:40:56.000Z</time></trkpt>
<trkpt lat="42.178253" lon="23.373418"><ele>2237.6</ele><time>2026-03-02T06:40:57.000Z</time></trkpt>
<trkpt lat="42.178249" lon="23.373418"><ele>2237.6</ele><time>2026-03-02T06:40:58.000Z</time></trkpt>
<trkpt lat="42.178246" lon="23.373419"><ele>2237.6</ele><time>2026-03-02T06:40:59.000Z</time></trkpt>
<trkpt lat="42.178244" lon="23.37342"><ele>2238.2</ele><time>2026-03-02T06:41:00.000Z</time></trkpt>
<trkpt lat="42.178243" lon="23.373421"><ele>2238.2</ele><time>2026-03-02T06:41:01.000Z</time></trkpt>
<trkpt lat="42.178242" lon="23.373422"><ele>2238.2</ele><time>2026-03-02T06:41:02.000Z</time></trkpt>
<trkpt lat="42.178241" lon="23.373424"><ele>2238.2</ele><time>2026-03-02T06:41:03.000Z</time></trkpt>
<trkpt lat="42.178241" lon="23.373425"><ele>2238.2</ele><time>2026-03-02T06:41:04.000Z</time></trkpt>
<trkpt lat="42.178241" lon="23.373426"><ele>2239</ele><time>2026-03-02T06:41:05.000Z</time></trkpt>
<trkpt lat="42.17824" lon="23.373427"><ele>2239</ele><time>2026-03-02T06:41:06.000Z</time></trkpt>
<trkpt lat="42.178239" lon="23.373427"><ele>2239</ele><time>2026-03-02T06:41:07.000Z</time></trkpt>
<trkpt lat="42.178238" lon="23.373428"><ele>2239</ele><time>2026-03-02T06:41:08.000Z</time></trkpt>
<trkpt lat="42.178236" lon="23.373429"><ele>2239</ele><time>2026-03-02T06:41:09.000Z</time></trkpt>
<trkpt lat="42.178234" lon="23.373431"><ele>2239.4</ele><time>2026-03-02T06:41:10.000Z</time></trkpt>
<trkpt lat="42.178231" lon="23.373433"><ele>2239.4</ele><time>2026-03-02T06:41:11.000Z</time></trkpt>
<trkpt lat="42.178228" lon="23.373436"><ele>2239.4</ele><time>2026-03-02T06:41:12.000Z</time></trkpt>
<trkpt lat="42.178226" lon="23.373437"><ele>2239.4</ele><time>2026-03-02T06:41:13.000Z</time></trkpt>
<trkpt lat="42.178224" lon="23.373438"><ele>2239.4</ele><time>2026-03-02T06:41:14.000Z</time></trkpt>
<trkpt lat="42.178221" lon="23.37344"><ele>2240</ele><time>2026-03-02T06:41:15.000Z</time></trkpt>
<trkpt lat="42.178219" lon="23.373442"><ele>2240</ele><time>2026-03-02T06:41:16.000Z</time></trkpt>
<trkpt lat="42.178217" lon="23.373444"><ele>2240</ele><time>2026-03-02T06:41:17.000Z</time></trkpt>
<trkpt lat="42.178215" lon="23.373448"><ele>2240</ele><time>2026-03-02T06:41:18.000Z</time></trkpt>
<trkpt lat="42.178212" lon="23.373452"><ele>2240</ele><time>2026-03-02T06:41:19.000Z</time></trkpt>
<trkpt lat="42.178211" lon="23.373455"><ele>2240.4</ele><time>2026-03-02T06:41:20.000Z</time></trkpt>
<trkpt lat="42.17821" lon="23.373458"><ele>2240.4</ele><time>2026-03-02T06:41:21.000Z</time></trkpt>
<trkpt lat="42.17821" lon="23.37346"><ele>2240.4</ele><time>2026-03-02T06:41:22.000Z</time></trkpt>
<trkpt lat="42.178208" lon="23.373461"><ele>2240.4</ele><time>2026-03-02T06:41:23.000Z</time></trkpt>
<trkpt lat="42.178208" lon="23.37346"><ele>2240.4</ele><time>2026-03-02T06:41:24.000Z</time></trkpt>
<trkpt lat="42.178207" lon="23.37346"><ele>2240.6</ele><time>2026-03-02T06:41:25.000Z</time></trkpt>
<trkpt lat="42.178206" lon="23.37346"><ele>2240.6</ele><time>2026-03-02T06:41:26.000Z</time></trkpt>
<trkpt lat="42.178205" lon="23.373459"><ele>2240.6</ele><time>2026-03-02T06:41:27.000Z</time></trkpt>
<trkpt lat="42.178205" lon="23.373459"><ele>2240.6</ele><time>2026-03-02T06:41:28.000Z</time></trkpt>
<trkpt lat="42.178204" lon="23.373458"><ele>2240.6</ele><time>2026-03-02T06:41:29.000Z</time></trkpt>
<trkpt lat="42.178204" lon="23.373457"><ele>2240.8</ele><time>2026-03-02T06:41:30.000Z</time></trkpt>
<trkpt lat="42.178205" lon="23.373457"><ele>2240.8</ele><time>2026-03-02T06:41:31.000Z</time></trkpt>
<trkpt lat="42.178204" lon="23.373456"><ele>2240.8</ele><time>2026-03-02T06:41:32.000Z</time></trkpt>
<trkpt lat="42.178204" lon="23.373454"><ele>2240.8</ele><time>2026-03-02T06:41:33.000Z</time></trkpt>
<trkpt lat="42.178203" lon="23.373453"><ele>2240.8</ele><time>2026-03-02T06:41:34.000Z</time></trkpt>
<trkpt lat="42.178202" lon="23.373451"><ele>2240.8</ele><time>2026-03-02T06:41:35.000Z</time></trkpt>
<trkpt lat="42.178202" lon="23.373449"><ele>2240.8</ele><time>2026-03-02T06:41:36.000Z</time></trkpt>
<trkpt lat="42.178201" lon="23.373449"><ele>2240.8</ele><time>2026-03-02T06:41:37.000Z</time></trkpt>
<trkpt lat="42.178201" lon="23.373449"><ele>2240.8</ele><time>2026-03-02T06:41:38.000Z</time></trkpt>
<trkpt lat="42.178201" lon="23.373448"><ele>2240.8</ele><time>2026-03-02T06:41:39.000Z</time></trkpt>
<trkpt lat="42.178201" lon="23.373449"><ele>2240.7</ele><time>2026-03-02T06:41:40.000Z</time></trkpt>
<trkpt lat="42.1782" lon="23.373449"><ele>2240.7</ele><time>2026-03-02T06:41:41.000Z</time></trkpt>
<trkpt lat="42.178199" lon="23.373449"><ele>2240.7</ele><time>2026-03-02T06:41:42.000Z</time></trkpt>
<trkpt lat="42.178199" lon="23.373449"><ele>2240.7</ele><time>2026-03-02T06:41:43.000Z</time></trkpt>
<trkpt lat="42.178199" lon="23.373449"><ele>2240.7</ele><time>2026-03-02T06:41:44.000Z</time></trkpt>
<trkpt lat="42.178199" lon="23.373449"><ele>2240.6</ele><time>2026-03-02T06:41:45.000Z</time></trkpt>
<trkpt lat="42.1782" lon="23.373449"><ele>2240.6</ele><time>2026-03-02T06:41:46.000Z</time></trkpt>
<trkpt lat="42.178201" lon="23.37345"><ele>2240.6</ele><time>2026-03-02T06:41:47.000Z</time></trkpt>
<trkpt lat="42.178202" lon="23.37345"><ele>2240.6</ele><time>2026-03-02T06:41:48.000Z</time></trkpt>
<trkpt lat="42.178202" lon="23.37345"><ele>2240.6</ele><time>2026-03-02T06:41:49.000Z</time></trkpt>
<trkpt lat="42.178203" lon="23.37345"><ele>2240.6</ele><time>2026-03-02T06:41:50.000Z</time></trkpt>
<trkpt lat="42.178204" lon="23.373451"><ele>2240.6</ele><time>2026-03-02T06:41:51.000Z</time></trkpt>
<trkpt lat="42.178205" lon="23.373451"><ele>2240.6</ele><time>2026-03-02T06:41:52.000Z</time></trkpt>
<trkpt lat="42.178206" lon="23.373452"><ele>2240.6</ele><time>2026-03-02T06:41:53.000Z</time></trkpt>
<trkpt lat="42.178203" lon="23.373455"><ele>2240.6</ele><time>2026-03-02T06:41:54.000Z</time></trkpt>
<trkpt lat="42.178199" lon="23.373457"><ele>2240.6</ele><time>2026-03-02T06:41:55.000Z</time></trkpt>
<trkpt lat="42.178194" lon="23.373459"><ele>2240.6</ele><time>2026-03-02T06:41:56.000Z</time></trkpt>
<trkpt lat="42.178189" lon="23.373462"><ele>2240.6</ele><time>2026-03-02T06:41:57.000Z</time></trkpt>
<trkpt lat="42.178184" lon="23.373464"><ele>2240.6</ele><time>2026-03-02T06:41:58.000Z</time></trkpt>
<trkpt lat="42.178183" lon="23.373464"><ele>2240.6</ele><time>2026-03-02T06:41:59.000Z</time></trkpt>
<trkpt lat="42.17818" lon="23.373465"><ele>2240.7</ele><time>2026-03-02T06:42:00.000Z</time></trkpt>
<trkpt lat="42.178178" lon="23.373468"><ele>2240.7</ele><time>2026-03-02T06:42:01.000Z</time></trkpt>
<trkpt lat="42.178177" lon="23.373467"><ele>2240.7</ele><time>2026-03-02T06:42:02.000Z</time></trkpt>
<trkpt lat="42.178176" lon="23.373464"><ele>2240.7</ele><time>2026-03-02T06:42:03.000Z</time></trkpt>
<trkpt lat="42.178175" lon="23.373461"><ele>2240.7</ele><time>2026-03-02T06:42:04.000Z</time></trkpt>
<trkpt lat="42.178176" lon="23.373457"><ele>2240.8</ele><time>2026-03-02T06:42:05.000Z</time></trkpt>
<trkpt lat="42.178176" lon="23.373454"><ele>2240.8</ele><time>2026-03-02T06:42:06.000Z</time></trkpt>
<trkpt lat="42.178176" lon="23.373451"><ele>2240.8</ele><time>2026-03-02T06:42:07.000Z</time></trkpt>
<trkpt lat="42.178176" lon="23.37345"><ele>2240.8</ele><time>2026-03-02T06:42:08.000Z</time></trkpt>
<trkpt lat="42.178176" lon="23.37345"><ele>2240.8</ele><time>2026-03-02T06:42:09.000Z</time></trkpt>
<trkpt lat="42.178176" lon="23.37345"><ele>2240.9</ele><time>2026-03-02T06:42:10.000Z</time></trkpt>
<trkpt lat="42.178176" lon="23.37345"><ele>2240.9</ele><time>2026-03-02T06:42:11.000Z</time></trkpt>
<trkpt lat="42.178176" lon="23.37345"><ele>2240.9</ele><time>2026-03-02T06:42:12.000Z</time></trkpt>
<trkpt lat="42.178176" lon="23.37345"><ele>2240.9</ele><time>2026-03-02T06:42:13.000Z</time></trkpt>
<trkpt lat="42.178176" lon="23.37345"><ele>2240.9</ele><time>2026-03-02T06:42:14.000Z</time></trkpt>
<trkpt lat="42.178176" lon="23.373451"><ele>2241.2</ele><time>2026-03-02T06:42:15.000Z</time></trkpt>
<trkpt lat="42.178176" lon="23.373451"><ele>2241.2</ele><time>2026-03-02T06:42:16.000Z</time></trkpt>
<trkpt lat="42.178175" lon="23.373451"><ele>2241.2</ele><time>2026-03-02T06:42:17.000Z</time></trkpt>
<trkpt lat="42.178175" lon="23.373451"><ele>2241.2</ele><time>2026-03-02T06:42:18.000Z</time></trkpt>
<trkpt lat="42.178175" lon="23.373451"><ele>2241.2</ele><time>2026-03-02T06:42:19.000Z</time></trkpt>
<trkpt lat="42.178175" lon="23.37345"><ele>2241.4</ele><time>2026-03-02T06:42:20.000Z</time></trkpt>
<trkpt lat="42.178175" lon="23.37345"><ele>2241.4</ele><time>2026-03-02T06:42:21.000Z</time></trkpt>
<trkpt lat="42.178175" lon="23.373449"><ele>2241.4</ele><time>2026-03-02T06:42:22.000Z</time></trkpt>
<trkpt lat="42.178175" lon="23.373449"><ele>2241.4</ele><time>2026-03-02T06:42:23.000Z</time></trkpt>
<trkpt lat="42.178175" lon="23.373449"><ele>2241.4</ele><time>2026-03-02T06:42:24.000Z</time></trkpt>
<trkpt lat="42.178176" lon="23.373448"><ele>2241.4</ele><time>2026-03-02T06:42:25.000Z</time></trkpt>
<trkpt lat="42.178176" lon="23.373448"><ele>2241.4</ele><time>2026-03-02T06:42:26.000Z</time></trkpt>
<trkpt lat="42.178176" lon="23.373447"><ele>2241.4</ele><time>2026-03-02T06:42:27.000Z</time></trkpt>
<trkpt lat="42.178176" lon="23.373446"><ele>2241.4</ele><time>2026-03-02T06:42:28.000Z</time></trkpt>
<trkpt lat="42.178177" lon="23.373445"><ele>2241.4</ele><time>2026-03-02T06:42:29.000Z</time></trkpt>
<trkpt lat="42.178178" lon="23.373444"><ele>2241.3</ele><time>2026-03-02T06:42:30.000Z</time></trkpt>
<trkpt lat="42.17818" lon="23.373443"><ele>2241.3</ele><time>2026-03-02T06:42:31.000Z</time></trkpt>
<trkpt lat="42.178181" lon="23.373442"><ele>2241.3</ele><time>2026-03-02T06:42:32.000Z</time></trkpt>
<trkpt lat="42.178181" lon="23.373441"><ele>2241.3</ele><time>2026-03-02T06:42:33.000Z</time></trkpt>
<trkpt lat="42.178182" lon="23.373441"><ele>2241.3</ele><time>2026-03-02T06:42:34.000Z</time></trkpt>
<trkpt lat="42.178182" lon="23.373441"><ele>2241.2</ele><time>2026-03-02T06:42:35.000Z</time></trkpt>
<trkpt lat="42.178182" lon="23.373441"><ele>2241.2</ele><time>2026-03-02T06:42:36.000Z</time></trkpt>
<trkpt lat="42.178182" lon="23.373441"><ele>2241.2</ele><time>2026-03-02T06:42:37.000Z</time></trkpt>
<trkpt lat="42.178181" lon="23.373441"><ele>2241.2</ele><time>2026-03-02T06:42:38.000Z</time></trkpt>
<trkpt lat="42.178183" lon="23.373442"><ele>2241.2</ele><time>2026-03-02T06:42:39.000Z</time></trkpt>
<trkpt lat="42.178184" lon="23.373443"><ele>2241.2</ele><time>2026-03-02T06:42:40.000Z</time></trkpt>
<trkpt lat="42.178185" lon="23.373445"><ele>2241.2</ele><time>2026-03-02T06:42:41.000Z</time></trkpt>
<trkpt lat="42.178185" lon="23.373449"><ele>2241.2</ele><time>2026-03-02T06:42:42.000Z</time></trkpt>
<trkpt lat="42.178186" lon="23.373452"><ele>2241.2</ele><time>2026-03-02T06:42:43.000Z</time></trkpt>
<trkpt lat="42.178185" lon="23.373454"><ele>2241.2</ele><time>2026-03-02T06:42:44.000Z</time></trkpt>
<trkpt lat="42.178184" lon="23.373457"><ele>2241.1</ele><time>2026-03-02T06:42:45.000Z</time></trkpt>
<trkpt lat="42.178183" lon="23.373456"><ele>2241.1</ele><time>2026-03-02T06:42:46.000Z</time></trkpt>
<trkpt lat="42.178184" lon="23.373455"><ele>2241.1</ele><time>2026-03-02T06:42:47.000Z</time></trkpt>
<trkpt lat="42.178184" lon="23.373453"><ele>2241.1</ele><time>2026-03-02T06:42:48.000Z</time></trkpt>
<trkpt lat="42.178184" lon="23.373452"><ele>2241.1</ele><time>2026-03-02T06:42:49.000Z</time></trkpt>
<trkpt lat="42.178185" lon="23.373451"><ele>2241</ele><time>2026-03-02T06:42:50.000Z</time></trkpt>
<trkpt lat="42.178186" lon="23.373451"><ele>2241</ele><time>2026-03-02T06:42:51.000Z</time></trkpt>
<trkpt lat="42.178186" lon="23.373451"><ele>2241</ele><time>2026-03-02T06:42:52.000Z</time></trkpt>
<trkpt lat="42.178186" lon="23.373451"><ele>2241</ele><time>2026-03-02T06:42:53.000Z</time></trkpt>
<trkpt lat="42.178187" lon="23.373451"><ele>2241</ele><time>2026-03-02T06:42:54.000Z</time></trkpt>
<trkpt lat="42.178187" lon="23.373451"><ele>2240.9</ele><time>2026-03-02T06:42:55.000Z</time></trkpt>
<trkpt lat="42.178187" lon="23.373451"><ele>2240.9</ele><time>2026-03-02T06:42:56.000Z</time></trkpt>
<trkpt lat="42.178187" lon="23.373451"><ele>2240.9</ele><time>2026-03-02T06:42:57.000Z</time></trkpt>
<trkpt lat="42.178188" lon="23.37345"><ele>2240.9</ele><time>2026-03-02T06:42:58.000Z</time></trkpt>
<trkpt lat="42.178188" lon="23.37345"><ele>2240.9</ele><time>2026-03-02T06:42:59.000Z</time></trkpt>
<trkpt lat="42.178189" lon="23.373449"><ele>2240.7</ele><time>2026-03-02T06:43:00.000Z</time></trkpt>
<trkpt lat="42.17819" lon="23.373449"><ele>2240.7</ele><time>2026-03-02T06:43:01.000Z</time></trkpt>
<trkpt lat="42.17819" lon="23.373448"><ele>2240.7</ele><time>2026-03-02T06:43:02.000Z</time></trkpt>
<trkpt lat="42.178188" lon="23.373448"><ele>2240.7</ele><time>2026-03-02T06:43:03.000Z</time></trkpt>
<trkpt lat="42.178187" lon="23.373449"><ele>2240.7</ele><time>2026-03-02T06:43:04.000Z</time></trkpt>
<trkpt lat="42.178186" lon="23.37345"><ele>2240.6</ele><time>2026-03-02T06:43:05.000Z</time></trkpt>
<trkpt lat="42.178185" lon="23.37345"><ele>2240.6</ele><time>2026-03-02T06:43:06.000Z</time></trkpt>
<trkpt lat="42.178186" lon="23.373448"><ele>2240.6</ele><time>2026-03-02T06:43:07.000Z</time></trkpt>
<trkpt lat="42.178189" lon="23.373446"><ele>2240.6</ele><time>2026-03-02T06:43:08.000Z</time></trkpt>
<trkpt lat="42.17819" lon="23.373444"><ele>2240.6</ele><time>2026-03-02T06:43:09.000Z</time></trkpt>
<trkpt lat="42.178191" lon="23.373442"><ele>2240.6</ele><time>2026-03-02T06:43:10.000Z</time></trkpt>
<trkpt lat="42.178192" lon="23.373441"><ele>2240.6</ele><time>2026-03-02T06:43:11.000Z</time></trkpt>
<trkpt lat="42.178192" lon="23.373441"><ele>2240.6</ele><time>2026-03-02T06:43:12.000Z</time></trkpt>
<trkpt lat="42.178192" lon="23.373441"><ele>2240.6</ele><time>2026-03-02T06:43:13.000Z</time></trkpt>
<trkpt lat="42.178192" lon="23.373441"><ele>2240.6</ele><time>2026-03-02T06:43:14.000Z</time></trkpt>
<trkpt lat="42.178192" lon="23.373441"><ele>2241</ele><time>2026-03-02T06:43:15.000Z</time></trkpt>
<trkpt lat="42.178192" lon="23.373441"><ele>2241</ele><time>2026-03-02T06:43:16.000Z</time></trkpt>
<trkpt lat="42.178192" lon="23.373441"><ele>2241</ele><time>2026-03-02T06:43:17.000Z</time></trkpt>
<trkpt lat="42.178192" lon="23.373441"><ele>2241</ele><time>2026-03-02T06:43:18.000Z</time></trkpt>
<trkpt lat="42.178192" lon="23.373441"><ele>2241</ele><time>2026-03-02T06:43:19.000Z</time></trkpt>
<trkpt lat="42.178192" lon="23.373441"><ele>2241.3</ele><time>2026-03-02T06:43:20.000Z</time></trkpt>
<trkpt lat="42.178192" lon="23.373441"><ele>2241.3</ele><time>2026-03-02T06:43:21.000Z</time></trkpt>
<trkpt lat="42.178192" lon="23.373441"><ele>2241.3</ele><time>2026-03-02T06:43:22.000Z</time></trkpt>
<trkpt lat="42.178192" lon="23.373441"><ele>2241.3</ele><time>2026-03-02T06:43:23.000Z</time></trkpt>
<trkpt lat="42.178192" lon="23.373441"><ele>2241.3</ele><time>2026-03-02T06:43:24.000Z</time></trkpt>
<trkpt lat="42.178192" lon="23.373441"><ele>2241.4</ele><time>2026-03-02T06:43:25.000Z</time></trkpt>
<trkpt lat="42.178192" lon="23.373441"><ele>2241.4</ele><time>2026-03-02T06:43:26.000Z</time></trkpt>
<trkpt lat="42.178192" lon="23.373441"><ele>2241.4</ele><time>2026-03-02T06:43:27.000Z</time></trkpt>
<trkpt lat="42.178192" lon="23.373441"><ele>2241.4</ele><time>2026-03-02T06:43:28.000Z</time></trkpt>
<trkpt lat="42.178192" lon="23.373441"><ele>2241.4</ele><time>2026-03-02T06:43:29.000Z</time></trkpt>
<trkpt lat="42.178192" lon="23.373441"><ele>2241.3</ele><time>2026-03-02T06:43:30.000Z</time></trkpt>
<trkpt lat="42.178192" lon="23.373442"><ele>2241.3</ele><time>2026-03-02T06:43:31.000Z</time></trkpt>
<trkpt lat="42.178192" lon="23.373443"><ele>2241.3</ele><time>2026-03-02T06:43:32.000Z</time></trkpt>
<trkpt lat="42.178192" lon="23.373443"><ele>2241.3</ele><time>2026-03-02T06:43:33.000Z</time></trkpt>
<trkpt lat="42.178192" lon="23.373444"><ele>2241.3</ele><time>2026-03-02T06:43:34.000Z</time></trkpt>
<trkpt lat="42.178191" lon="23.373444"><ele>2241.2</ele><time>2026-03-02T06:43:35.000Z</time></trkpt>
<trkpt lat="42.178186" lon="23.373442"><ele>2241.2</ele><time>2026-03-02T06:43:36.000Z</time></trkpt>
<trkpt lat="42.178182" lon="23.37344"><ele>2241.2</ele><time>2026-03-02T06:43:37.000Z</time></trkpt>
<trkpt lat="42.178178" lon="23.373439"><ele>2241.2</ele><time>2026-03-02T06:43:38.000Z</time></trkpt>
<trkpt lat="42.178175" lon="23.373438"><ele>2241.2</ele><time>2026-03-02T06:43:39.000Z</time></trkpt>
<trkpt lat="42.178175" lon="23.373438"><ele>2241.1</ele><time>2026-03-02T06:43:40.000Z</time></trkpt>
<trkpt lat="42.178178" lon="23.37344"><ele>2241.1</ele><time>2026-03-02T06:43:41.000Z</time></trkpt>
<trkpt lat="42.178181" lon="23.373442"><ele>2241.1</ele><time>2026-03-02T06:43:42.000Z</time></trkpt>
<trkpt lat="42.178183" lon="23.373442"><ele>2241.1</ele><time>2026-03-02T06:43:43.000Z</time></trkpt>
<trkpt lat="42.178184" lon="23.373442"><ele>2241.1</ele><time>2026-03-02T06:43:44.000Z</time></trkpt>
<trkpt lat="42.178186" lon="23.373442"><ele>2241</ele><time>2026-03-02T06:43:45.000Z</time></trkpt>
<trkpt lat="42.178187" lon="23.373442"><ele>2241</ele><time>2026-03-02T06:43:46.000Z</time></trkpt>
<trkpt lat="42.178187" lon="23.373441"><ele>2241</ele><time>2026-03-02T06:43:47.000Z</time></trkpt>
<trkpt lat="42.178187" lon="23.37344"><ele>2241</ele><time>2026-03-02T06:43:48.000Z</time></trkpt>
<trkpt lat="42.17819" lon="23.373438"><ele>2241</ele><time>2026-03-02T06:43:49.000Z</time></trkpt>
<trkpt lat="42.178193" lon="23.373436"><ele>2241.1</ele><time>2026-03-02T06:43:50.000Z</time></trkpt>
<trkpt lat="42.178195" lon="23.373433"><ele>2241.1</ele><time>2026-03-02T06:43:51.000Z</time></trkpt>
<trkpt lat="42.178197" lon="23.373431"><ele>2241.1</ele><time>2026-03-02T06:43:52.000Z</time></trkpt>
<trkpt lat="42.178199" lon="23.373429"><ele>2241.1</ele><time>2026-03-02T06:43:53.000Z</time></trkpt>
<trkpt lat="42.178199" lon="23.373429"><ele>2241.1</ele><time>2026-03-02T06:43:54.000Z</time></trkpt>
<trkpt lat="42.178198" lon="23.373429"><ele>2241.2</ele><time>2026-03-02T06:43:55.000Z</time></trkpt>
<trkpt lat="42.178198" lon="23.373429"><ele>2241.2</ele><time>2026-03-02T06:43:56.000Z</time></trkpt>
<trkpt lat="42.178198" lon="23.373429"><ele>2241.2</ele><time>2026-03-02T06:43:57.000Z</time></trkpt>
<trkpt lat="42.178198" lon="23.37343"><ele>2241.2</ele><time>2026-03-02T06:43:58.000Z</time></trkpt>
<trkpt lat="42.178198" lon="23.37343"><ele>2241.2</ele><time>2026-03-02T06:43:59.000Z</time></trkpt>
<trkpt lat="42.178198" lon="23.37343"><ele>2241.4</ele><time>2026-03-02T06:44:00.000Z</time></trkpt>
<trkpt lat="42.178197" lon="23.373432"><ele>2241.4</ele><time>2026-03-02T06:44:01.000Z</time></trkpt>
<trkpt lat="42.178197" lon="23.373434"><ele>2241.4</ele><time>2026-03-02T06:44:02.000Z</time></trkpt>
<trkpt lat="42.178197" lon="23.373436"><ele>2241.4</ele><time>2026-03-02T06:44:03.000Z</time></trkpt>
<trkpt lat="42.178196" lon="23.373437"><ele>2241.4</ele><time>2026-03-02T06:44:04.000Z</time></trkpt>
<trkpt lat="42.178196" lon="23.373439"><ele>2241.4</ele><time>2026-03-02T06:44:05.000Z</time></trkpt>
<trkpt lat="42.178196" lon="23.37344"><ele>2241.4</ele><time>2026-03-02T06:44:06.000Z</time></trkpt>
<trkpt lat="42.178196" lon="23.37344"><ele>2241.4</ele><time>2026-03-02T06:44:07.000Z</time></trkpt>
<trkpt lat="42.178197" lon="23.373441"><ele>2241.4</ele><time>2026-03-02T06:44:08.000Z</time></trkpt>
<trkpt lat="42.178199" lon="23.373442"><ele>2241.4</ele><time>2026-03-02T06:44:09.000Z</time></trkpt>
<trkpt lat="42.1782" lon="23.373443"><ele>2241.3</ele><time>2026-03-02T06:44:10.000Z</time></trkpt>
<trkpt lat="42.178201" lon="23.373445"><ele>2241.3</ele><time>2026-03-02T06:44:11.000Z</time></trkpt>
<trkpt lat="42.178202" lon="23.373446"><ele>2241.3</ele><time>2026-03-02T06:44:12.000Z</time></trkpt>
<trkpt lat="42.178201" lon="23.373447"><ele>2241.3</ele><time>2026-03-02T06:44:13.000Z</time></trkpt>
<trkpt lat="42.1782" lon="23.373448"><ele>2241.3</ele><time>2026-03-02T06:44:14.000Z</time></trkpt>
<trkpt lat="42.178199" lon="23.373449"><ele>2241.3</ele><time>2026-03-02T06:44:15.000Z</time></trkpt>
<trkpt lat="42.178198" lon="23.37345"><ele>2241.3</ele><time>2026-03-02T06:44:16.000Z</time></trkpt>
<trkpt lat="42.178198" lon="23.37345"><ele>2241.3</ele><time>2026-03-02T06:44:17.000Z</time></trkpt>
<trkpt lat="42.178199" lon="23.37345"><ele>2241.3</ele><time>2026-03-02T06:44:18.000Z</time></trkpt>
<trkpt lat="42.178199" lon="23.373449"><ele>2241.3</ele><time>2026-03-02T06:44:19.000Z</time></trkpt>
<trkpt lat="42.178199" lon="23.373448"><ele>2241.3</ele><time>2026-03-02T06:44:20.000Z</time></trkpt>
<trkpt lat="42.1782" lon="23.373447"><ele>2241.3</ele><time>2026-03-02T06:44:21.000Z</time></trkpt>
<trkpt lat="42.1782" lon="23.373446"><ele>2241.3</ele><time>2026-03-02T06:44:22.000Z</time></trkpt>
<trkpt lat="42.178199" lon="23.373445"><ele>2241.3</ele><time>2026-03-02T06:44:23.000Z</time></trkpt>
<trkpt lat="42.1782" lon="23.373444"><ele>2241.3</ele><time>2026-03-02T06:44:24.000Z</time></trkpt>
<trkpt lat="42.1782" lon="23.373443"><ele>2241.3</ele><time>2026-03-02T06:44:25.000Z</time></trkpt>
<trkpt lat="42.1782" lon="23.373442"><ele>2241.3</ele><time>2026-03-02T06:44:26.000Z</time></trkpt>
<trkpt lat="42.1782" lon="23.373442"><ele>2241.3</ele><time>2026-03-02T06:44:27.000Z</time></trkpt>
<trkpt lat="42.178199" lon="23.373442"><ele>2241.3</ele><time>2026-03-02T06:44:28.000Z</time></trkpt>
<trkpt lat="42.178199" lon="23.373442"><ele>2241.3</ele><time>2026-03-02T06:44:29.000Z</time></trkpt>
<trkpt lat="42.178199" lon="23.373442"><ele>2241.3</ele><time>2026-03-02T06:44:30.000Z</time></trkpt>
<trkpt lat="42.178198" lon="23.373441"><ele>2241.3</ele><time>2026-03-02T06:44:31.000Z</time></trkpt>
<trkpt lat="42.178197" lon="23.37344"><ele>2241.3</ele><time>2026-03-02T06:44:32.000Z</time></trkpt>
<trkpt lat="42.178195" lon="23.37344"><ele>2241.3</ele><time>2026-03-02T06:44:33.000Z</time></trkpt>
<trkpt lat="42.178193" lon="23.373441"><ele>2241.3</ele><time>2026-03-02T06:44:34.000Z</time></trkpt>
<trkpt lat="42.178191" lon="23.373442"><ele>2241.2</ele><time>2026-03-02T06:44:35.000Z</time></trkpt>
<trkpt lat="42.178191" lon="23.373443"><ele>2241.2</ele><time>2026-03-02T06:44:36.000Z</time></trkpt>
<trkpt lat="42.178192" lon="23.373444"><ele>2241.2</ele><time>2026-03-02T06:44:37.000Z</time></trkpt>
<trkpt lat="42.178194" lon="23.373445"><ele>2241.2</ele><time>2026-03-02T06:44:38.000Z</time></trkpt>
<trkpt lat="42.178195" lon="23.373444"><ele>2241.2</ele><time>2026-03-02T06:44:39.000Z</time></trkpt>
<trkpt lat="42.178197" lon="23.373443"><ele>2241.1</ele><time>2026-03-02T06:44:40.000Z</time></trkpt>
<trkpt lat="42.178197" lon="23.373442"><ele>2241.1</ele><time>2026-03-02T06:44:41.000Z</time></trkpt>
<trkpt lat="42.178196" lon="23.373441"><ele>2241.1</ele><time>2026-03-02T06:44:42.000Z</time></trkpt>
<trkpt lat="42.178195" lon="23.373441"><ele>2241.1</ele><time>2026-03-02T06:44:43.000Z</time></trkpt>
<trkpt lat="42.178194" lon="23.373444"><ele>2241.1</ele><time>2026-03-02T06:44:44.000Z</time></trkpt>
<trkpt lat="42.178192" lon="23.373447"><ele>2241.1</ele><time>2026-03-02T06:44:45.000Z</time></trkpt>
<trkpt lat="42.178191" lon="23.373447"><ele>2241.1</ele><time>2026-03-02T06:44:46.000Z</time></trkpt>
<trkpt lat="42.17819" lon="23.373447"><ele>2241.1</ele><time>2026-03-02T06:44:47.000Z</time></trkpt>
<trkpt lat="42.17819" lon="23.373446"><ele>2241.1</ele><time>2026-03-02T06:44:48.000Z</time></trkpt>
<trkpt lat="42.17819" lon="23.373443"><ele>2241.1</ele><time>2026-03-02T06:44:49.000Z</time></trkpt>
<trkpt lat="42.178191" lon="23.37344"><ele>2241.2</ele><time>2026-03-02T06:44:50.000Z</time></trkpt>
<trkpt lat="42.178192" lon="23.373441"><ele>2241.2</ele><time>2026-03-02T06:44:51.000Z</time></trkpt>
<trkpt lat="42.178192" lon="23.373443"><ele>2241.2</ele><time>2026-03-02T06:44:52.000Z</time></trkpt>
<trkpt lat="42.178193" lon="23.373444"><ele>2241.2</ele><time>2026-03-02T06:44:53.000Z</time></trkpt>
<trkpt lat="42.178193" lon="23.373444"><ele>2241.2</ele><time>2026-03-02T06:44:54.000Z</time></trkpt>
<trkpt lat="42.178194" lon="23.373443"><ele>2241.3</ele><time>2026-03-02T06:44:55.000Z</time></trkpt>
<trkpt lat="42.178194" lon="23.373441"><ele>2241.3</ele><time>2026-03-02T06:44:56.000Z</time></trkpt>
<trkpt lat="42.178194" lon="23.37344"><ele>2241.3</ele><time>2026-03-02T06:44:57.000Z</time></trkpt>
<trkpt lat="42.178195" lon="23.373438"><ele>2241.3</ele><time>2026-03-02T06:44:58.000Z</time></trkpt>
<trkpt lat="42.178195" lon="23.373437"><ele>2241.3</ele><time>2026-03-02T06:44:59.000Z</time></trkpt>
<trkpt lat="42.178195" lon="23.373436"><ele>2241.2</ele><time>2026-03-02T06:45:00.000Z</time></trkpt>
<trkpt lat="42.178195" lon="23.373434"><ele>2241.2</ele><time>2026-03-02T06:45:01.000Z</time></trkpt>
<trkpt lat="42.178194" lon="23.373433"><ele>2241.2</ele><time>2026-03-02T06:45:02.000Z</time></trkpt>
<trkpt lat="42.178194" lon="23.373432"><ele>2241.2</ele><time>2026-03-02T06:45:03.000Z</time></trkpt>
<trkpt lat="42.178194" lon="23.373431"><ele>2241.2</ele><time>2026-03-02T06:45:04.000Z</time></trkpt>
<trkpt lat="42.178194" lon="23.373432"><ele>2241.1</ele><time>2026-03-02T06:45:05.000Z</time></trkpt>
<trkpt lat="42.178193" lon="23.373434"><ele>2241.1</ele><time>2026-03-02T06:45:06.000Z</time></trkpt>
<trkpt lat="42.178194" lon="23.373434"><ele>2241.1</ele><time>2026-03-02T06:45:07.000Z</time></trkpt>
<trkpt lat="42.178196" lon="23.373436"><ele>2241.1</ele><time>2026-03-02T06:45:08.000Z</time></trkpt>
<trkpt lat="42.178197" lon="23.373436"><ele>2241.1</ele><time>2026-03-02T06:45:09.000Z</time></trkpt>
<trkpt lat="42.178199" lon="23.373435"><ele>2240.9</ele><time>2026-03-02T06:45:10.000Z</time></trkpt>
<trkpt lat="42.178202" lon="23.373434"><ele>2240.9</ele><time>2026-03-02T06:45:11.000Z</time></trkpt>
<trkpt lat="42.178204" lon="23.373434"><ele>2240.9</ele><time>2026-03-02T06:45:12.000Z</time></trkpt>
<trkpt lat="42.178205" lon="23.373433"><ele>2240.9</ele><time>2026-03-02T06:45:13.000Z</time></trkpt>
<trkpt lat="42.178207" lon="23.373432"><ele>2240.9</ele><time>2026-03-02T06:45:14.000Z</time></trkpt>
<trkpt lat="42.178208" lon="23.373432"><ele>2240.8</ele><time>2026-03-02T06:45:15.000Z</time></trkpt>
<trkpt lat="42.178208" lon="23.373432"><ele>2240.8</ele><time>2026-03-02T06:45:16.000Z</time></trkpt>
<trkpt lat="42.178208" lon="23.373432"><ele>2240.8</ele><time>2026-03-02T06:45:17.000Z</time></trkpt>
<trkpt lat="42.178208" lon="23.373432"><ele>2240.8</ele><time>2026-03-02T06:45:18.000Z</time></trkpt>
<trkpt lat="42.178208" lon="23.373433"><ele>2240.8</ele><time>2026-03-02T06:45:19.000Z</time></trkpt>
<trkpt lat="42.178207" lon="23.373433"><ele>2240.7</ele><time>2026-03-02T06:45:20.000Z</time></trkpt>
<trkpt lat="42.178207" lon="23.373433"><ele>2240.7</ele><time>2026-03-02T06:45:21.000Z</time></trkpt>
<trkpt lat="42.178207" lon="23.373434"><ele>2240.7</ele><time>2026-03-02T06:45:22.000Z</time></trkpt>
<trkpt lat="42.178205" lon="23.373434"><ele>2240.7</ele><time>2026-03-02T06:45:23.000Z</time></trkpt>
<trkpt lat="42.178203" lon="23.373435"><ele>2240.7</ele><time>2026-03-02T06:45:24.000Z</time></trkpt>
<trkpt lat="42.1782" lon="23.373435"><ele>2240.8</ele><time>2026-03-02T06:45:25.000Z</time></trkpt>
<trkpt lat="42.178197" lon="23.373436"><ele>2240.8</ele><time>2026-03-02T06:45:26.000Z</time></trkpt>
<trkpt lat="42.178194" lon="23.373438"><ele>2240.8</ele><time>2026-03-02T06:45:27.000Z</time></trkpt>
<trkpt lat="42.178192" lon="23.373438"><ele>2240.8</ele><time>2026-03-02T06:45:28.000Z</time></trkpt>
<trkpt lat="42.178191" lon="23.373439"><ele>2240.8</ele><time>2026-03-02T06:45:29.000Z</time></trkpt>
<trkpt lat="42.17819" lon="23.373441"><ele>2241</ele><time>2026-03-02T06:45:30.000Z</time></trkpt>
<trkpt lat="42.178188" lon="23.373443"><ele>2241</ele><time>2026-03-02T06:45:31.000Z</time></trkpt>
<trkpt lat="42.178188" lon="23.373444"><ele>2241</ele><time>2026-03-02T06:45:32.000Z</time></trkpt>
<trkpt lat="42.178188" lon="23.373445"><ele>2241</ele><time>2026-03-02T06:45:33.000Z</time></trkpt>
<trkpt lat="42.17819" lon="23.373444"><ele>2241</ele><time>2026-03-02T06:45:34.000Z</time></trkpt>
<trkpt lat="42.178193" lon="23.373444"><ele>2241.2</ele><time>2026-03-02T06:45:35.000Z</time></trkpt>
<trkpt lat="42.178196" lon="23.373444"><ele>2241.2</ele><time>2026-03-02T06:45:36.000Z</time></trkpt>
<trkpt lat="42.178198" lon="23.373445"><ele>2241.2</ele><time>2026-03-02T06:45:37.000Z</time></trkpt>
<trkpt lat="42.178198" lon="23.373446"><ele>2241.2</ele><time>2026-03-02T06:45:38.000Z</time></trkpt>
<trkpt lat="42.178198" lon="23.373447"><ele>2241.2</ele><time>2026-03-02T06:45:39.000Z</time></trkpt>
<trkpt lat="42.178199" lon="23.373447"><ele>2241.4</ele><time>2026-03-02T06:45:40.000Z</time></trkpt>
<trkpt lat="42.1782" lon="23.373448"><ele>2241.4</ele><time>2026-03-02T06:45:41.000Z</time></trkpt>
<trkpt lat="42.178202" lon="23.373448"><ele>2241.4</ele><time>2026-03-02T06:45:42.000Z</time></trkpt>
<trkpt lat="42.178205" lon="23.37345"><ele>2241.4</ele><time>2026-03-02T06:45:43.000Z</time></trkpt>
<trkpt lat="42.178207" lon="23.373451"><ele>2241.4</ele><time>2026-03-02T06:45:44.000Z</time></trkpt>
<trkpt lat="42.178208" lon="23.373453"><ele>2241.5</ele><time>2026-03-02T06:45:45.000Z</time></trkpt>
<trkpt lat="42.178208" lon="23.373454"><ele>2241.5</ele><time>2026-03-02T06:45:46.000Z</time></trkpt>
<trkpt lat="42.178208" lon="23.373454"><ele>2241.5</ele><time>2026-03-02T06:45:47.000Z</time></trkpt>
<trkpt lat="42.178209" lon="23.373454"><ele>2241.5</ele><time>2026-03-02T06:45:48.000Z</time></trkpt>
<trkpt lat="42.178211" lon="23.373455"><ele>2241.5</ele><time>2026-03-02T06:45:49.000Z</time></trkpt>
<trkpt lat="42.178213" lon="23.373456"><ele>2241.3</ele><time>2026-03-02T06:45:50.000Z</time></trkpt>
<trkpt lat="42.178215" lon="23.373456"><ele>2241.3</ele><time>2026-03-02T06:45:51.000Z</time></trkpt>
<trkpt lat="42.178217" lon="23.373457"><ele>2241.3</ele><time>2026-03-02T06:45:52.000Z</time></trkpt>
<trkpt lat="42.178218" lon="23.373457"><ele>2241.3</ele><time>2026-03-02T06:45:53.000Z</time></trkpt>
<trkpt lat="42.178218" lon="23.373455"><ele>2241.3</ele><time>2026-03-02T06:45:54.000Z</time></trkpt>
<trkpt lat="42.178218" lon="23.373455"><ele>2241.2</ele><time>2026-03-02T06:45:55.000Z</time></trkpt>
<trkpt lat="42.178218" lon="23.373454"><ele>2241.2</ele><time>2026-03-02T06:45:56.000Z</time></trkpt>
<trkpt lat="42.178218" lon="23.373453"><ele>2241.2</ele><time>2026-03-02T06:45:57.000Z</time></trkpt>
<trkpt lat="42.178217" lon="23.373453"><ele>2241.2</ele><time>2026-03-02T06:45:58.000Z</time></trkpt>
<trkpt lat="42.178216" lon="23.373452"><ele>2241.2</ele><time>2026-03-02T06:45:59.000Z</time></trkpt>
<trkpt lat="42.178215" lon="23.373451"><ele>2241.2</ele><time>2026-03-02T06:46:00.000Z</time></trkpt>
<trkpt lat="42.178213" lon="23.37345"><ele>2241.2</ele><time>2026-03-02T06:46:01.000Z</time></trkpt>
<trkpt lat="42.178212" lon="23.373449"><ele>2241.2</ele><time>2026-03-02T06:46:02.000Z</time></trkpt>
<trkpt lat="42.17821" lon="23.373448"><ele>2241.2</ele><time>2026-03-02T06:46:03.000Z</time></trkpt>
<trkpt lat="42.178209" lon="23.373446"><ele>2241.2</ele><time>2026-03-02T06:46:04.000Z</time></trkpt>
<trkpt lat="42.178207" lon="23.373444"><ele>2241.2</ele><time>2026-03-02T06:46:05.000Z</time></trkpt>
<trkpt lat="42.178205" lon="23.373443"><ele>2241.2</ele><time>2026-03-02T06:46:06.000Z</time></trkpt>
<trkpt lat="42.178203" lon="23.373441"><ele>2241.2</ele><time>2026-03-02T06:46:07.000Z</time></trkpt>
<trkpt lat="42.1782" lon="23.373439"><ele>2241.2</ele><time>2026-03-02T06:46:08.000Z</time></trkpt>
<trkpt lat="42.178198" lon="23.373437"><ele>2241.2</ele><time>2026-03-02T06:46:09.000Z</time></trkpt>
<trkpt lat="42.178197" lon="23.373435"><ele>2241.2</ele><time>2026-03-02T06:46:10.000Z</time></trkpt>
<trkpt lat="42.178196" lon="23.373433"><ele>2241.2</ele><time>2026-03-02T06:46:11.000Z</time></trkpt>
<trkpt lat="42.178196" lon="23.373432"><ele>2241.2</ele><time>2026-03-02T06:46:12.000Z</time></trkpt>
<trkpt lat="42.178195" lon="23.373431"><ele>2241.2</ele><time>2026-03-02T06:46:13.000Z</time></trkpt>
<trkpt lat="42.178193" lon="23.373429"><ele>2241.2</ele><time>2026-03-02T06:46:14.000Z</time></trkpt>
<trkpt lat="42.17819" lon="23.373427"><ele>2241.2</ele><time>2026-03-02T06:46:15.000Z</time></trkpt>
<trkpt lat="42.178188" lon="23.373426"><ele>2241.2</ele><time>2026-03-02T06:46:16.000Z</time></trkpt>
<trkpt lat="42.178186" lon="23.373425"><ele>2241.2</ele><time>2026-03-02T06:46:17.000Z</time></trkpt>
<trkpt lat="42.178186" lon="23.373425"><ele>2241.2</ele><time>2026-03-02T06:46:18.000Z</time></trkpt>
<trkpt lat="42.178187" lon="23.373426"><ele>2241.2</ele><time>2026-03-02T06:46:19.000Z</time></trkpt>
<trkpt lat="42.178188" lon="23.373428"><ele>2241.1</ele><time>2026-03-02T06:46:20.000Z</time></trkpt>
<trkpt lat="42.178189" lon="23.373431"><ele>2241.1</ele><time>2026-03-02T06:46:21.000Z</time></trkpt>
<trkpt lat="42.17819" lon="23.373432"><ele>2241.1</ele><time>2026-03-02T06:46:22.000Z</time></trkpt>
<trkpt lat="42.17819" lon="23.373434"><ele>2241.1</ele><time>2026-03-02T06:46:23.000Z</time></trkpt>
<trkpt lat="42.17819" lon="23.373435"><ele>2241.1</ele><time>2026-03-02T06:46:24.000Z</time></trkpt>
<trkpt lat="42.17819" lon="23.373436"><ele>2241</ele><time>2026-03-02T06:46:25.000Z</time></trkpt>
<trkpt lat="42.178189" lon="23.373436"><ele>2241</ele><time>2026-03-02T06:46:26.000Z</time></trkpt>
<trkpt lat="42.178189" lon="23.373436"><ele>2241</ele><time>2026-03-02T06:46:27.000Z</time></trkpt>
<trkpt lat="42.178188" lon="23.373436"><ele>2241</ele><time>2026-03-02T06:46:28.000Z</time></trkpt>
<trkpt lat="42.178189" lon="23.373436"><ele>2241</ele><time>2026-03-02T06:46:29.000Z</time></trkpt>
<trkpt lat="42.17819" lon="23.373436"><ele>2240.8</ele><time>2026-03-02T06:46:30.000Z</time></trkpt>
<trkpt lat="42.17819" lon="23.373437"><ele>2240.8</ele><time>2026-03-02T06:46:31.000Z</time></trkpt>
<trkpt lat="42.178191" lon="23.373437"><ele>2240.8</ele><time>2026-03-02T06:46:32.000Z</time></trkpt>
<trkpt lat="42.178192" lon="23.373438"><ele>2240.8</ele><time>2026-03-02T06:46:33.000Z</time></trkpt>
<trkpt lat="42.178193" lon="23.37344"><ele>2240.8</ele><time>2026-03-02T06:46:34.000Z</time></trkpt>
<trkpt lat="42.178195" lon="23.37344"><ele>2240.7</ele><time>2026-03-02T06:46:35.000Z</time></trkpt>
<trkpt lat="42.178196" lon="23.373441"><ele>2240.7</ele><time>2026-03-02T06:46:36.000Z</time></trkpt>
<trkpt lat="42.178197" lon="23.373441"><ele>2240.7</ele><time>2026-03-02T06:46:37.000Z</time></trkpt>
<trkpt lat="42.178199" lon="23.37344"><ele>2240.7</ele><time>2026-03-02T06:46:38.000Z</time></trkpt>
<trkpt lat="42.178199" lon="23.373439"><ele>2240.7</ele><time>2026-03-02T06:46:39.000Z</time></trkpt>
<trkpt lat="42.1782" lon="23.373436"><ele>2240.7</ele><time>2026-03-02T06:46:40.000Z</time></trkpt>
<trkpt lat="42.178199" lon="23.373432"><ele>2240.7</ele><time>2026-03-02T06:46:41.000Z</time></trkpt>
<trkpt lat="42.178198" lon="23.373429"><ele>2240.7</ele><time>2026-03-02T06:46:42.000Z</time></trkpt>
<trkpt lat="42.178197" lon="23.373426"><ele>2240.7</ele><time>2026-03-02T06:46:43.000Z</time></trkpt>
<trkpt lat="42.178196" lon="23.373423"><ele>2240.7</ele><time>2026-03-02T06:46:44.000Z</time></trkpt>
<trkpt lat="42.178195" lon="23.373421"><ele>2240.7</ele><time>2026-03-02T06:46:45.000Z</time></trkpt>
<trkpt lat="42.178195" lon="23.37342"><ele>2240.7</ele><time>2026-03-02T06:46:46.000Z</time></trkpt>
<trkpt lat="42.178195" lon="23.37342"><ele>2240.7</ele><time>2026-03-02T06:46:47.000Z</time></trkpt>
<trkpt lat="42.178194" lon="23.373419"><ele>2240.7</ele><time>2026-03-02T06:46:48.000Z</time></trkpt>
<trkpt lat="42.178193" lon="23.37342"><ele>2240.7</ele><time>2026-03-02T06:46:49.000Z</time></trkpt>
<trkpt lat="42.178192" lon="23.37342"><ele>2240.7</ele><time>2026-03-02T06:46:50.000Z</time></trkpt>
<trkpt lat="42.178192" lon="23.37342"><ele>2240.7</ele><time>2026-03-02T06:46:51.000Z</time></trkpt>
<trkpt lat="42.178192" lon="23.373422"><ele>2240.7</ele><time>2026-03-02T06:46:52.000Z</time></trkpt>
<trkpt lat="42.178192" lon="23.373423"><ele>2240.7</ele><time>2026-03-02T06:46:53.000Z</time></trkpt>
<trkpt lat="42.178192" lon="23.373425"><ele>2240.7</ele><time>2026-03-02T06:46:54.000Z</time></trkpt>
<trkpt lat="42.178192" lon="23.373428"><ele>2240.6</ele><time>2026-03-02T06:46:55.000Z</time></trkpt>
<trkpt lat="42.178192" lon="23.373431"><ele>2240.6</ele><time>2026-03-02T06:46:56.000Z</time></trkpt>
<trkpt lat="42.178193" lon="23.373434"><ele>2240.6</ele><time>2026-03-02T06:46:57.000Z</time></trkpt>
<trkpt lat="42.178192" lon="23.373436"><ele>2240.6</ele><time>2026-03-02T06:46:58.000Z</time></trkpt>
<trkpt lat="42.178192" lon="23.373437"><ele>2240.6</ele><time>2026-03-02T06:46:59.000Z</time></trkpt>
<trkpt lat="42.178192" lon="23.373438"><ele>2240.7</ele><time>2026-03-02T06:47:00.000Z</time></trkpt>
<trkpt lat="42.178192" lon="23.373438"><ele>2240.7</ele><time>2026-03-02T06:47:01.000Z</time></trkpt>
<trkpt lat="42.178192" lon="23.373438"><ele>2240.7</ele><time>2026-03-02T06:47:02.000Z</time></trkpt>
<trkpt lat="42.178192" lon="23.373438"><ele>2240.7</ele><time>2026-03-02T06:47:03.000Z</time></trkpt>
<trkpt lat="42.178193" lon="23.373438"><ele>2240.7</ele><time>2026-03-02T06:47:04.000Z</time></trkpt>
<trkpt lat="42.178193" lon="23.373438"><ele>2241</ele><time>2026-03-02T06:47:05.000Z</time></trkpt>
<trkpt lat="42.178193" lon="23.373438"><ele>2241</ele><time>2026-03-02T06:47:06.000Z</time></trkpt>
<trkpt lat="42.178192" lon="23.373438"><ele>2241</ele><time>2026-03-02T06:47:07.000Z</time></trkpt>
<trkpt lat="42.178192" lon="23.373438"><ele>2241</ele><time>2026-03-02T06:47:08.000Z</time></trkpt>
<trkpt lat="42.178193" lon="23.373438"><ele>2241</ele><time>2026-03-02T06:47:09.000Z</time></trkpt>
<trkpt lat="42.178193" lon="23.373437"><ele>2241.1</ele><time>2026-03-02T06:47:10.000Z</time></trkpt>
<trkpt lat="42.178193" lon="23.373437"><ele>2241.1</ele><time>2026-03-02T06:47:11.000Z</time></trkpt>
<trkpt lat="42.178193" lon="23.373436"><ele>2241.1</ele><time>2026-03-02T06:47:12.000Z</time></trkpt>
<trkpt lat="42.178194" lon="23.373437"><ele>2241.1</ele><time>2026-03-02T06:47:13.000Z</time></trkpt>
<trkpt lat="42.178194" lon="23.373437"><ele>2241.1</ele><time>2026-03-02T06:47:14.000Z</time></trkpt>
<trkpt lat="42.178194" lon="23.373439"><ele>2241.1</ele><time>2026-03-02T06:47:15.000Z</time></trkpt>
<trkpt lat="42.178193" lon="23.37344"><ele>2241.1</ele><time>2026-03-02T06:47:16.000Z</time></trkpt>
<trkpt lat="42.178194" lon="23.37344"><ele>2241.1</ele><time>2026-03-02T06:47:17.000Z</time></trkpt>
<trkpt lat="42.178193" lon="23.373441"><ele>2241.1</ele><time>2026-03-02T06:47:18.000Z</time></trkpt>
<trkpt lat="42.178193" lon="23.37344"><ele>2241.1</ele><time>2026-03-02T06:47:19.000Z</time></trkpt>
<trkpt lat="42.178193" lon="23.373439"><ele>2240.6</ele><time>2026-03-02T06:47:20.000Z</time></trkpt>
<trkpt lat="42.178194" lon="23.373438"><ele>2240.6</ele><time>2026-03-02T06:47:21.000Z</time></trkpt>
<trkpt lat="42.178194" lon="23.373437"><ele>2240.6</ele><time>2026-03-02T06:47:22.000Z</time></trkpt>
<trkpt lat="42.178195" lon="23.373436"><ele>2240.6</ele><time>2026-03-02T06:47:23.000Z</time></trkpt>
<trkpt lat="42.178197" lon="23.373437"><ele>2240.6</ele><time>2026-03-02T06:47:24.000Z</time></trkpt>
<trkpt lat="42.178198" lon="23.373438"><ele>2240.5</ele><time>2026-03-02T06:47:25.000Z</time></trkpt>
<trkpt lat="42.178199" lon="23.37344"><ele>2240.5</ele><time>2026-03-02T06:47:26.000Z</time></trkpt>
<trkpt lat="42.1782" lon="23.373442"><ele>2240.5</ele><time>2026-03-02T06:47:27.000Z</time></trkpt>
<trkpt lat="42.1782" lon="23.373445"><ele>2240.5</ele><time>2026-03-02T06:47:28.000Z</time></trkpt>
<trkpt lat="42.178199" lon="23.373446"><ele>2240.5</ele><time>2026-03-02T06:47:29.000Z</time></trkpt>
<trkpt lat="42.178198" lon="23.373447"><ele>2240.4</ele><time>2026-03-02T06:47:30.000Z</time></trkpt>
<trkpt lat="42.178196" lon="23.373447"><ele>2240.4</ele><time>2026-03-02T06:47:31.000Z</time></trkpt>
<trkpt lat="42.178196" lon="23.373446"><ele>2240.4</ele><time>2026-03-02T06:47:32.000Z</time></trkpt>
<trkpt lat="42.178195" lon="23.373445"><ele>2240.4</ele><time>2026-03-02T06:47:33.000Z</time></trkpt>
<trkpt lat="42.178194" lon="23.373445"><ele>2240.4</ele><time>2026-03-02T06:47:34.000Z</time></trkpt>
<trkpt lat="42.178194" lon="23.373444"><ele>2240.7</ele><time>2026-03-02T06:47:35.000Z</time></trkpt>
<trkpt lat="42.178196" lon="23.373438"><ele>2240.7</ele><time>2026-03-02T06:47:36.000Z</time></trkpt>
<trkpt lat="42.178197" lon="23.373433"><ele>2240.7</ele><time>2026-03-02T06:47:37.000Z</time></trkpt>
<trkpt lat="42.1782" lon="23.373426"><ele>2240.7</ele><time>2026-03-02T06:47:38.000Z</time></trkpt>
<trkpt lat="42.178202" lon="23.373419"><ele>2240.7</ele><time>2026-03-02T06:47:39.000Z</time></trkpt>
<trkpt lat="42.178203" lon="23.373413"><ele>2240.9</ele><time>2026-03-02T06:47:40.000Z</time></trkpt>
<trkpt lat="42.178203" lon="23.373413"><ele>2240.9</ele><time>2026-03-02T06:47:41.000Z</time></trkpt>
<trkpt lat="42.178203" lon="23.373413"><ele>2240.9</ele><time>2026-03-02T06:47:42.000Z</time></trkpt>
<trkpt lat="42.178202" lon="23.373415"><ele>2240.9</ele><time>2026-03-02T06:47:43.000Z</time></trkpt>
<trkpt lat="42.178201" lon="23.373416"><ele>2240.9</ele><time>2026-03-02T06:47:44.000Z</time></trkpt>
<trkpt lat="42.1782" lon="23.373418"><ele>2241.1</ele><time>2026-03-02T06:47:45.000Z</time></trkpt>
<trkpt lat="42.1782" lon="23.373419"><ele>2241.1</ele><time>2026-03-02T06:47:46.000Z</time></trkpt>
<trkpt lat="42.1782" lon="23.373419"><ele>2241.1</ele><time>2026-03-02T06:47:47.000Z</time></trkpt>
<trkpt lat="42.178202" lon="23.373419"><ele>2241.1</ele><time>2026-03-02T06:47:48.000Z</time></trkpt>
<trkpt lat="42.178204" lon="23.373419"><ele>2241.1</ele><time>2026-03-02T06:47:49.000Z</time></trkpt>
<trkpt lat="42.178206" lon="23.37342"><ele>2241.2</ele><time>2026-03-02T06:47:50.000Z</time></trkpt>
<trkpt lat="42.178207" lon="23.37342"><ele>2241.2</ele><time>2026-03-02T06:47:51.000Z</time></trkpt>
<trkpt lat="42.178207" lon="23.373419"><ele>2241.2</ele><time>2026-03-02T06:47:52.000Z</time></trkpt>
<trkpt lat="42.178206" lon="23.37342"><ele>2241.2</ele><time>2026-03-02T06:47:53.000Z</time></trkpt>
<trkpt lat="42.178204" lon="23.37342"><ele>2241.2</ele><time>2026-03-02T06:47:54.000Z</time></trkpt>
<trkpt lat="42.178202" lon="23.373421"><ele>2241.3</ele><time>2026-03-02T06:47:55.000Z</time></trkpt>
<trkpt lat="42.1782" lon="23.373423"><ele>2241.3</ele><time>2026-03-02T06:47:56.000Z</time></trkpt>
<trkpt lat="42.1782" lon="23.373427"><ele>2241.3</ele><time>2026-03-02T06:47:57.000Z</time></trkpt>
<trkpt lat="42.1782" lon="23.373431"><ele>2241.3</ele><time>2026-03-02T06:47:58.000Z</time></trkpt>
<trkpt lat="42.178201" lon="23.373435"><ele>2241.3</ele><time>2026-03-02T06:47:59.000Z</time></trkpt>
<trkpt lat="42.178202" lon="23.373438"><ele>2241.5</ele><time>2026-03-02T06:48:00.000Z</time></trkpt>
<trkpt lat="42.178202" lon="23.373439"><ele>2241.5</ele><time>2026-03-02T06:48:01.000Z</time></trkpt>
<trkpt lat="42.178202" lon="23.373438"><ele>2241.5</ele><time>2026-03-02T06:48:02.000Z</time></trkpt>
<trkpt lat="42.178203" lon="23.373437"><ele>2241.5</ele><time>2026-03-02T06:48:03.000Z</time></trkpt>
<trkpt lat="42.178204" lon="23.373436"><ele>2241.5</ele><time>2026-03-02T06:48:04.000Z</time></trkpt>
<trkpt lat="42.178206" lon="23.373435"><ele>2241.5</ele><time>2026-03-02T06:48:05.000Z</time></trkpt>
<trkpt lat="42.178208" lon="23.373436"><ele>2241.5</ele><time>2026-03-02T06:48:06.000Z</time></trkpt>
<trkpt lat="42.178208" lon="23.373438"><ele>2241.5</ele><time>2026-03-02T06:48:07.000Z</time></trkpt>
<trkpt lat="42.178207" lon="23.373441"><ele>2241.5</ele><time>2026-03-02T06:48:08.000Z</time></trkpt>
<trkpt lat="42.178204" lon="23.373445"><ele>2241.5</ele><time>2026-03-02T06:48:09.000Z</time></trkpt>
<trkpt lat="42.178202" lon="23.373449"><ele>2241.5</ele><time>2026-03-02T06:48:10.000Z</time></trkpt>
<trkpt lat="42.1782" lon="23.373452"><ele>2241.5</ele><time>2026-03-02T06:48:11.000Z</time></trkpt>
<trkpt lat="42.178199" lon="23.373454"><ele>2241.5</ele><time>2026-03-02T06:48:12.000Z</time></trkpt>
<trkpt lat="42.178198" lon="23.373455"><ele>2241.5</ele><time>2026-03-02T06:48:13.000Z</time></trkpt>
<trkpt lat="42.178198" lon="23.373456"><ele>2241.5</ele><time>2026-03-02T06:48:14.000Z</time></trkpt>
<trkpt lat="42.178198" lon="23.373455"><ele>2241.3</ele><time>2026-03-02T06:48:15.000Z</time></trkpt>
<trkpt lat="42.178197" lon="23.373455"><ele>2241.3</ele><time>2026-03-02T06:48:16.000Z</time></trkpt>
<trkpt lat="42.178196" lon="23.373455"><ele>2241.3</ele><time>2026-03-02T06:48:17.000Z</time></trkpt>
<trkpt lat="42.178197" lon="23.373454"><ele>2241.3</ele><time>2026-03-02T06:48:18.000Z</time></trkpt>
<trkpt lat="42.178198" lon="23.373454"><ele>2241.3</ele><time>2026-03-02T06:48:19.000Z</time></trkpt>
<trkpt lat="42.178199" lon="23.373453"><ele>2241.2</ele><time>2026-03-02T06:48:20.000Z</time></trkpt>
<trkpt lat="42.1782" lon="23.373451"><ele>2241.2</ele><time>2026-03-02T06:48:21.000Z</time></trkpt>
<trkpt lat="42.178201" lon="23.37345"><ele>2241.2</ele><time>2026-03-02T06:48:22.000Z</time></trkpt>
<trkpt lat="42.178201" lon="23.373449"><ele>2241.2</ele><time>2026-03-02T06:48:23.000Z</time></trkpt>
<trkpt lat="42.178201" lon="23.373448"><ele>2241.2</ele><time>2026-03-02T06:48:24.000Z</time></trkpt>
<trkpt lat="42.178201" lon="23.373448"><ele>2241.2</ele><time>2026-03-02T06:48:25.000Z</time></trkpt>
<trkpt lat="42.178202" lon="23.373449"><ele>2241.2</ele><time>2026-03-02T06:48:26.000Z</time></trkpt>
<trkpt lat="42.178202" lon="23.37345"><ele>2241.2</ele><time>2026-03-02T06:48:27.000Z</time></trkpt>
<trkpt lat="42.178203" lon="23.373451"><ele>2241.2</ele><time>2026-03-02T06:48:28.000Z</time></trkpt>
<trkpt lat="42.178203" lon="23.373452"><ele>2241.2</ele><time>2026-03-02T06:48:29.000Z</time></trkpt>
<trkpt lat="42.178204" lon="23.373453"><ele>2241.4</ele><time>2026-03-02T06:48:30.000Z</time></trkpt>
<trkpt lat="42.178204" lon="23.373453"><ele>2241.4</ele><time>2026-03-02T06:48:31.000Z</time></trkpt>
<trkpt lat="42.178204" lon="23.373453"><ele>2241.4</ele><time>2026-03-02T06:48:32.000Z</time></trkpt>
<trkpt lat="42.178204" lon="23.373453"><ele>2241.4</ele><time>2026-03-02T06:48:33.000Z</time></trkpt>
<trkpt lat="42.178204" lon="23.373453"><ele>2241.4</ele><time>2026-03-02T06:48:34.000Z</time></trkpt>
<trkpt lat="42.178204" lon="23.373453"><ele>2241.5</ele><time>2026-03-02T06:48:35.000Z</time></trkpt>
<trkpt lat="42.178204" lon="23.373453"><ele>2241.5</ele><time>2026-03-02T06:48:36.000Z</time></trkpt>
<trkpt lat="42.178204" lon="23.373453"><ele>2241.5</ele><time>2026-03-02T06:48:37.000Z</time></trkpt>
<trkpt lat="42.178204" lon="23.373453"><ele>2241.5</ele><time>2026-03-02T06:48:38.000Z</time></trkpt>
<trkpt lat="42.178204" lon="23.373453"><ele>2241.5</ele><time>2026-03-02T06:48:39.000Z</time></trkpt>
<trkpt lat="42.178204" lon="23.373453"><ele>2241.5</ele><time>2026-03-02T06:48:40.000Z</time></trkpt>
<trkpt lat="42.178204" lon="23.373454"><ele>2241.5</ele><time>2026-03-02T06:48:41.000Z</time></trkpt>
<trkpt lat="42.178204" lon="23.373454"><ele>2241.5</ele><time>2026-03-02T06:48:42.000Z</time></trkpt>
<trkpt lat="42.178203" lon="23.373455"><ele>2241.5</ele><time>2026-03-02T06:48:43.000Z</time></trkpt>
<trkpt lat="42.178203" lon="23.373456"><ele>2241.5</ele><time>2026-03-02T06:48:44.000Z</time></trkpt>
<trkpt lat="42.178203" lon="23.373456"><ele>2241.4</ele><time>2026-03-02T06:48:45.000Z</time></trkpt>
<trkpt lat="42.178203" lon="23.373456"><ele>2241.4</ele><time>2026-03-02T06:48:46.000Z</time></trkpt>
<trkpt lat="42.178203" lon="23.373456"><ele>2241.4</ele><time>2026-03-02T06:48:47.000Z</time></trkpt>
<trkpt lat="42.178203" lon="23.373456"><ele>2241.4</ele><time>2026-03-02T06:48:48.000Z</time></trkpt>
<trkpt lat="42.178203" lon="23.373456"><ele>2241.4</ele><time>2026-03-02T06:48:49.000Z</time></trkpt>
<trkpt lat="42.178203" lon="23.373456"><ele>2241.5</ele><time>2026-03-02T06:48:50.000Z</time></trkpt>
<trkpt lat="42.178203" lon="23.373458"><ele>2241.5</ele><time>2026-03-02T06:48:51.000Z</time></trkpt>
<trkpt lat="42.178204" lon="23.373459"><ele>2241.5</ele><time>2026-03-02T06:48:52.000Z</time></trkpt>
<trkpt lat="42.178204" lon="23.37346"><ele>2241.5</ele><time>2026-03-02T06:48:53.000Z</time></trkpt>
<trkpt lat="42.178204" lon="23.373461"><ele>2241.5</ele><time>2026-03-02T06:48:54.000Z</time></trkpt>
<trkpt lat="42.178204" lon="23.373462"><ele>2241.5</ele><time>2026-03-02T06:48:55.000Z</time></trkpt>
<trkpt lat="42.178204" lon="23.373462"><ele>2241.5</ele><time>2026-03-02T06:48:56.000Z</time></trkpt>
<trkpt lat="42.178203" lon="23.373462"><ele>2241.5</ele><time>2026-03-02T06:48:57.000Z</time></trkpt>
<trkpt lat="42.178203" lon="23.373462"><ele>2241.5</ele><time>2026-03-02T06:48:58.000Z</time></trkpt>
<trkpt lat="42.178203" lon="23.373462"><ele>2241.5</ele><time>2026-03-02T06:48:59.000Z</time></trkpt>
<trkpt lat="42.178203" lon="23.373462"><ele>2241.7</ele><time>2026-03-02T06:49:00.000Z</time></trkpt>
<trkpt lat="42.178203" lon="23.373461"><ele>2241.7</ele><time>2026-03-02T06:49:01.000Z</time></trkpt>
<trkpt lat="42.178202" lon="23.373459"><ele>2241.7</ele><time>2026-03-02T06:49:02.000Z</time></trkpt>
<trkpt lat="42.178202" lon="23.373456"><ele>2241.7</ele><time>2026-03-02T06:49:03.000Z</time></trkpt>
<trkpt lat="42.178201" lon="23.373452"><ele>2241.7</ele><time>2026-03-02T06:49:04.000Z</time></trkpt>
<trkpt lat="42.1782" lon="23.373448"><ele>2241.8</ele><time>2026-03-02T06:49:05.000Z</time></trkpt>
<trkpt lat="42.178199" lon="23.373444"><ele>2241.8</ele><time>2026-03-02T06:49:06.000Z</time></trkpt>
<trkpt lat="42.178198" lon="23.373441"><ele>2241.8</ele><time>2026-03-02T06:49:07.000Z</time></trkpt>
<trkpt lat="42.178197" lon="23.37344"><ele>2241.8</ele><time>2026-03-02T06:49:08.000Z</time></trkpt>
<trkpt lat="42.178196" lon="23.373439"><ele>2241.8</ele><time>2026-03-02T06:49:09.000Z</time></trkpt>
<trkpt lat="42.178195" lon="23.373439"><ele>2241.9</ele><time>2026-03-02T06:49:10.000Z</time></trkpt>
<trkpt lat="42.178194" lon="23.373439"><ele>2241.9</ele><time>2026-03-02T06:49:11.000Z</time></trkpt>
<trkpt lat="42.178193" lon="23.373438"><ele>2241.9</ele><time>2026-03-02T06:49:12.000Z</time></trkpt>
<trkpt lat="42.178193" lon="23.373436"><ele>2241.9</ele><time>2026-03-02T06:49:13.000Z</time></trkpt>
<trkpt lat="42.178193" lon="23.373434"><ele>2241.9</ele><time>2026-03-02T06:49:14.000Z</time></trkpt>
<trkpt lat="42.178193" lon="23.373432"><ele>2241.9</ele><time>2026-03-02T06:49:15.000Z</time></trkpt>
<trkpt lat="42.178193" lon="23.373429"><ele>2241.9</ele><time>2026-03-02T06:49:16.000Z</time></trkpt>
<trkpt lat="42.178192" lon="23.373427"><ele>2241.9</ele><time>2026-03-02T06:49:17.000Z</time></trkpt>
<trkpt lat="42.178189" lon="23.373426"><ele>2241.9</ele><time>2026-03-02T06:49:18.000Z</time></trkpt>
<trkpt lat="42.178187" lon="23.373425"><ele>2241.9</ele><time>2026-03-02T06:49:19.000Z</time></trkpt>
<trkpt lat="42.178183" lon="23.373424"><ele>2241.9</ele><time>2026-03-02T06:49:20.000Z</time></trkpt>
<trkpt lat="42.17818" lon="23.373424"><ele>2241.9</ele><time>2026-03-02T06:49:21.000Z</time></trkpt>
<trkpt lat="42.178177" lon="23.373424"><ele>2241.9</ele><time>2026-03-02T06:49:22.000Z</time></trkpt>
<trkpt lat="42.178175" lon="23.373425"><ele>2241.9</ele><time>2026-03-02T06:49:23.000Z</time></trkpt>
<trkpt lat="42.178173" lon="23.373425"><ele>2241.9</ele><time>2026-03-02T06:49:24.000Z</time></trkpt>
<trkpt lat="42.178172" lon="23.373426"><ele>2241.9</ele><time>2026-03-02T06:49:25.000Z</time></trkpt>
<trkpt lat="42.178172" lon="23.373426"><ele>2241.9</ele><time>2026-03-02T06:49:26.000Z</time></trkpt>
<trkpt lat="42.178171" lon="23.373426"><ele>2241.9</ele><time>2026-03-02T06:49:27.000Z</time></trkpt>
<trkpt lat="42.178171" lon="23.373426"><ele>2241.9</ele><time>2026-03-02T06:49:28.000Z</time></trkpt>
<trkpt lat="42.17817" lon="23.373426"><ele>2241.9</ele><time>2026-03-02T06:49:29.000Z</time></trkpt>
<trkpt lat="42.178169" lon="23.373427"><ele>2241.9</ele><time>2026-03-02T06:49:30.000Z</time></trkpt>
<trkpt lat="42.178169" lon="23.373426"><ele>2241.9</ele><time>2026-03-02T06:49:31.000Z</time></trkpt>
<trkpt lat="42.178169" lon="23.373426"><ele>2241.9</ele><time>2026-03-02T06:49:32.000Z</time></trkpt>
<trkpt lat="42.178169" lon="23.373426"><ele>2241.9</ele><time>2026-03-02T06:49:33.000Z</time></trkpt>
<trkpt lat="42.178169" lon="23.373426"><ele>2241.9</ele><time>2026-03-02T06:49:34.000Z</time></trkpt>
<trkpt lat="42.178169" lon="23.373428"><ele>2241.9</ele><time>2026-03-02T06:49:35.000Z</time></trkpt>
<trkpt lat="42.178169" lon="23.37343"><ele>2241.9</ele><time>2026-03-02T06:49:36.000Z</time></trkpt>
<trkpt lat="42.17817" lon="23.373433"><ele>2241.9</ele><time>2026-03-02T06:49:37.000Z</time></trkpt>
<trkpt lat="42.178171" lon="23.373437"><ele>2241.9</ele><time>2026-03-02T06:49:38.000Z</time></trkpt>
<trkpt lat="42.178173" lon="23.373442"><ele>2241.9</ele><time>2026-03-02T06:49:39.000Z</time></trkpt>
<trkpt lat="42.178174" lon="23.373446"><ele>2242</ele><time>2026-03-02T06:49:40.000Z</time></trkpt>
<trkpt lat="42.178174" lon="23.37345"><ele>2242</ele><time>2026-03-02T06:49:41.000Z</time></trkpt>
<trkpt lat="42.178174" lon="23.373453"><ele>2242</ele><time>2026-03-02T06:49:42.000Z</time></trkpt>
<trkpt lat="42.178174" lon="23.373456"><ele>2242</ele><time>2026-03-02T06:49:43.000Z</time></trkpt>
<trkpt lat="42.178175" lon="23.373457"><ele>2242</ele><time>2026-03-02T06:49:44.000Z</time></trkpt>
<trkpt lat="42.178176" lon="23.373457"><ele>2242</ele><time>2026-03-02T06:49:45.000Z</time></trkpt>
<trkpt lat="42.178179" lon="23.373456"><ele>2242</ele><time>2026-03-02T06:49:46.000Z</time></trkpt>
<trkpt lat="42.178183" lon="23.373454"><ele>2242</ele><time>2026-03-02T06:49:47.000Z</time></trkpt>
<trkpt lat="42.178186" lon="23.373453"><ele>2242</ele><time>2026-03-02T06:49:48.000Z</time></trkpt>
<trkpt lat="42.178189" lon="23.37345"><ele>2242</ele><time>2026-03-02T06:49:49.000Z</time></trkpt>
<trkpt lat="42.178192" lon="23.373449"><ele>2241.9</ele><time>2026-03-02T06:49:50.000Z</time></trkpt>
<trkpt lat="42.178194" lon="23.373447"><ele>2241.9</ele><time>2026-03-02T06:49:51.000Z</time></trkpt>
<trkpt lat="42.178195" lon="23.373446"><ele>2241.9</ele><time>2026-03-02T06:49:52.000Z</time></trkpt>
<trkpt lat="42.178195" lon="23.373446"><ele>2241.9</ele><time>2026-03-02T06:49:53.000Z</time></trkpt>
<trkpt lat="42.178195" lon="23.373446"><ele>2241.9</ele><time>2026-03-02T06:49:54.000Z</time></trkpt>
<trkpt lat="42.178195" lon="23.373446"><ele>2241.9</ele><time>2026-03-02T06:49:55.000Z</time></trkpt>
<trkpt lat="42.178195" lon="23.373446"><ele>2241.9</ele><time>2026-03-02T06:49:56.000Z</time></trkpt>
<trkpt lat="42.178195" lon="23.373446"><ele>2241.9</ele><time>2026-03-02T06:49:57.000Z</time></trkpt>
<trkpt lat="42.178195" lon="23.373446"><ele>2241.9</ele><time>2026-03-02T06:49:58.000Z</time></trkpt>
<trkpt lat="42.178195" lon="23.373446"><ele>2241.9</ele><time>2026-03-02T06:49:59.000Z</time></trkpt>
<trkpt lat="42.178195" lon="23.373446"><ele>2241.9</ele><time>2026-03-02T06:50:00.000Z</time></trkpt>
<trkpt lat="42.178195" lon="23.373446"><ele>2241.9</ele><time>2026-03-02T06:50:01.000Z</time></trkpt>
<trkpt lat="42.178196" lon="23.373447"><ele>2241.9</ele><time>2026-03-02T06:50:02.000Z</time></trkpt>
<trkpt lat="42.178196" lon="23.373449"><ele>2241.9</ele><time>2026-03-02T06:50:03.000Z</time></trkpt>
<trkpt lat="42.178197" lon="23.37345"><ele>2241.9</ele><time>2026-03-02T06:50:04.000Z</time></trkpt>
<trkpt lat="42.178197" lon="23.373451"><ele>2242</ele><time>2026-03-02T06:50:05.000Z</time></trkpt>
<trkpt lat="42.178197" lon="23.373451"><ele>2242</ele><time>2026-03-02T06:50:06.000Z</time></trkpt>
<trkpt lat="42.178198" lon="23.373449"><ele>2242</ele><time>2026-03-02T06:50:07.000Z</time></trkpt>
<trkpt lat="42.178198" lon="23.373446"><ele>2242</ele><time>2026-03-02T06:50:08.000Z</time></trkpt>
<trkpt lat="42.178198" lon="23.373441"><ele>2242</ele><time>2026-03-02T06:50:09.000Z</time></trkpt>
<trkpt lat="42.178197" lon="23.373438"><ele>2241.9</ele><time>2026-03-02T06:50:10.000Z</time></trkpt>
<trkpt lat="42.178196" lon="23.373435"><ele>2241.9</ele><time>2026-03-02T06:50:11.000Z</time></trkpt>
<trkpt lat="42.178193" lon="23.373432"><ele>2241.9</ele><time>2026-03-02T06:50:12.000Z</time></trkpt>
<trkpt lat="42.178191" lon="23.373431"><ele>2241.9</ele><time>2026-03-02T06:50:13.000Z</time></trkpt>
<trkpt lat="42.178189" lon="23.373432"><ele>2241.9</ele><time>2026-03-02T06:50:14.000Z</time></trkpt>
<trkpt lat="42.178188" lon="23.37343"><ele>2241.9</ele><time>2026-03-02T06:50:15.000Z</time></trkpt>
<trkpt lat="42.178188" lon="23.373428"><ele>2241.9</ele><time>2026-03-02T06:50:16.000Z</time></trkpt>
<trkpt lat="42.178189" lon="23.373427"><ele>2241.9</ele><time>2026-03-02T06:50:17.000Z</time></trkpt>
<trkpt lat="42.17819" lon="23.373426"><ele>2241.9</ele><time>2026-03-02T06:50:18.000Z</time></trkpt>
<trkpt lat="42.17819" lon="23.373426"><ele>2241.9</ele><time>2026-03-02T06:50:19.000Z</time></trkpt>
<trkpt lat="42.17819" lon="23.373427"><ele>2242</ele><time>2026-03-02T06:50:20.000Z</time></trkpt>
<trkpt lat="42.178189" lon="23.373428"><ele>2242</ele><time>2026-03-02T06:50:21.000Z</time></trkpt>
<trkpt lat="42.178189" lon="23.373429"><ele>2242</ele><time>2026-03-02T06:50:22.000Z</time></trkpt>
<trkpt lat="42.178188" lon="23.37343"><ele>2242</ele><time>2026-03-02T06:50:23.000Z</time></trkpt>
<trkpt lat="42.178188" lon="23.37343"><ele>2242</ele><time>2026-03-02T06:50:24.000Z</time></trkpt>
<trkpt lat="42.178188" lon="23.37343"><ele>2242.1</ele><time>2026-03-02T06:50:25.000Z</time></trkpt>
<trkpt lat="42.178187" lon="23.373429"><ele>2242.1</ele><time>2026-03-02T06:50:26.000Z</time></trkpt>
<trkpt lat="42.178185" lon="23.373429"><ele>2242.1</ele><time>2026-03-02T06:50:27.000Z</time></trkpt>
<trkpt lat="42.178183" lon="23.373428"><ele>2242.1</ele><time>2026-03-02T06:50:28.000Z</time></trkpt>
<trkpt lat="42.178183" lon="23.373428"><ele>2242.1</ele><time>2026-03-02T06:50:29.000Z</time></trkpt>
<trkpt lat="42.178183" lon="23.373429"><ele>2242.2</ele><time>2026-03-02T06:50:30.000Z</time></trkpt>
<trkpt lat="42.178185" lon="23.373431"><ele>2242.2</ele><time>2026-03-02T06:50:31.000Z</time></trkpt>
<trkpt lat="42.178188" lon="23.373432"><ele>2242.2</ele><time>2026-03-02T06:50:32.000Z</time></trkpt>
<trkpt lat="42.17819" lon="23.373433"><ele>2242.2</ele><time>2026-03-02T06:50:33.000Z</time></trkpt>
<trkpt lat="42.178191" lon="23.373435"><ele>2242.2</ele><time>2026-03-02T06:50:34.000Z</time></trkpt>
<trkpt lat="42.178191" lon="23.373436"><ele>2242.2</ele><time>2026-03-02T06:50:35.000Z</time></trkpt>
<trkpt lat="42.178191" lon="23.373436"><ele>2242.2</ele><time>2026-03-02T06:50:36.000Z</time></trkpt>
<trkpt lat="42.17819" lon="23.373436"><ele>2242.2</ele><time>2026-03-02T06:50:37.000Z</time></trkpt>
<trkpt lat="42.178189" lon="23.373436"><ele>2242.2</ele><time>2026-03-02T06:50:38.000Z</time></trkpt>
<trkpt lat="42.178189" lon="23.373435"><ele>2242.2</ele><time>2026-03-02T06:50:39.000Z</time></trkpt>
<trkpt lat="42.178189" lon="23.373435"><ele>2242.1</ele><time>2026-03-02T06:50:40.000Z</time></trkpt>
<trkpt lat="42.178189" lon="23.373435"><ele>2242.1</ele><time>2026-03-02T06:50:41.000Z</time></trkpt>
<trkpt lat="42.178188" lon="23.373436"><ele>2242.1</ele><time>2026-03-02T06:50:42.000Z</time></trkpt>
<trkpt lat="42.178186" lon="23.373436"><ele>2242.1</ele><time>2026-03-02T06:50:43.000Z</time></trkpt>
<trkpt lat="42.178185" lon="23.373435"><ele>2242.1</ele><time>2026-03-02T06:50:44.000Z</time></trkpt>
<trkpt lat="42.178183" lon="23.373434"><ele>2241.9</ele><time>2026-03-02T06:50:45.000Z</time></trkpt>
<trkpt lat="42.178181" lon="23.373433"><ele>2241.9</ele><time>2026-03-02T06:50:46.000Z</time></trkpt>
<trkpt lat="42.178181" lon="23.373433"><ele>2241.9</ele><time>2026-03-02T06:50:47.000Z</time></trkpt>
<trkpt lat="42.17818" lon="23.373432"><ele>2241.9</ele><time>2026-03-02T06:50:48.000Z</time></trkpt>
<trkpt lat="42.17818" lon="23.373433"><ele>2241.9</ele><time>2026-03-02T06:50:49.000Z</time></trkpt>
<trkpt lat="42.17818" lon="23.373434"><ele>2241.7</ele><time>2026-03-02T06:50:50.000Z</time></trkpt>
<trkpt lat="42.178181" lon="23.373435"><ele>2241.7</ele><time>2026-03-02T06:50:51.000Z</time></trkpt>
<trkpt lat="42.178181" lon="23.373436"><ele>2241.7</ele><time>2026-03-02T06:50:52.000Z</time></trkpt>
<trkpt lat="42.178181" lon="23.373437"><ele>2241.7</ele><time>2026-03-02T06:50:53.000Z</time></trkpt>
<trkpt lat="42.178181" lon="23.373438"><ele>2241.7</ele><time>2026-03-02T06:50:54.000Z</time></trkpt>
<trkpt lat="42.178182" lon="23.373439"><ele>2241.6</ele><time>2026-03-02T06:50:55.000Z</time></trkpt>
<trkpt lat="42.178182" lon="23.373439"><ele>2241.6</ele><time>2026-03-02T06:50:56.000Z</time></trkpt>
<trkpt lat="42.178182" lon="23.373439"><ele>2241.6</ele><time>2026-03-02T06:50:57.000Z</time></trkpt>
<trkpt lat="42.178183" lon="23.37344"><ele>2241.6</ele><time>2026-03-02T06:50:58.000Z</time></trkpt>
<trkpt lat="42.178183" lon="23.37344"><ele>2241.6</ele><time>2026-03-02T06:50:59.000Z</time></trkpt>
<trkpt lat="42.178184" lon="23.373441"><ele>2241.5</ele><time>2026-03-02T06:51:00.000Z</time></trkpt>
<trkpt lat="42.178184" lon="23.373441"><ele>2241.5</ele><time>2026-03-02T06:51:01.000Z</time></trkpt>
<trkpt lat="42.178184" lon="23.373441"><ele>2241.5</ele><time>2026-03-02T06:51:02.000Z</time></trkpt>
<trkpt lat="42.178184" lon="23.373441"><ele>2241.5</ele><time>2026-03-02T06:51:03.000Z</time></trkpt>
<trkpt lat="42.178185" lon="23.373441"><ele>2241.5</ele><time>2026-03-02T06:51:04.000Z</time></trkpt>
<trkpt lat="42.178186" lon="23.373441"><ele>2241.6</ele><time>2026-03-02T06:51:05.000Z</time></trkpt>
<trkpt lat="42.178187" lon="23.37344"><ele>2241.6</ele><time>2026-03-02T06:51:06.000Z</time></trkpt>
<trkpt lat="42.178187" lon="23.37344"><ele>2241.6</ele><time>2026-03-02T06:51:07.000Z</time></trkpt>
<trkpt lat="42.178188" lon="23.37344"><ele>2241.6</ele><time>2026-03-02T06:51:08.000Z</time></trkpt>
<trkpt lat="42.178188" lon="23.37344"><ele>2241.6</ele><time>2026-03-02T06:51:09.000Z</time></trkpt>
<trkpt lat="42.178188" lon="23.37344"><ele>2241.7</ele><time>2026-03-02T06:51:10.000Z</time></trkpt>
<trkpt lat="42.178188" lon="23.37344"><ele>2241.7</ele><time>2026-03-02T06:51:11.000Z</time></trkpt>
<trkpt lat="42.178188" lon="23.37344"><ele>2241.7</ele><time>2026-03-02T06:51:12.000Z</time></trkpt>
<trkpt lat="42.178187" lon="23.373441"><ele>2241.7</ele><time>2026-03-02T06:51:13.000Z</time></trkpt>
<trkpt lat="42.178187" lon="23.373442"><ele>2241.7</ele><time>2026-03-02T06:51:14.000Z</time></trkpt>
<trkpt lat="42.178188" lon="23.373443"><ele>2242.1</ele><time>2026-03-02T06:51:15.000Z</time></trkpt>
<trkpt lat="42.178189" lon="23.373444"><ele>2242.1</ele><time>2026-03-02T06:51:16.000Z</time></trkpt>
<trkpt lat="42.178192" lon="23.373445"><ele>2242.1</ele><time>2026-03-02T06:51:17.000Z</time></trkpt>
<trkpt lat="42.178194" lon="23.373446"><ele>2242.1</ele><time>2026-03-02T06:51:18.000Z</time></trkpt>
<trkpt lat="42.178197" lon="23.373446"><ele>2242.1</ele><time>2026-03-02T06:51:19.000Z</time></trkpt>
<trkpt lat="42.178199" lon="23.373446"><ele>2242.5</ele><time>2026-03-02T06:51:20.000Z</time></trkpt>
<trkpt lat="42.178201" lon="23.373446"><ele>2242.5</ele><time>2026-03-02T06:51:21.000Z</time></trkpt>
<trkpt lat="42.178201" lon="23.373446"><ele>2242.5</ele><time>2026-03-02T06:51:22.000Z</time></trkpt>
<trkpt lat="42.178202" lon="23.373446"><ele>2242.5</ele><time>2026-03-02T06:51:23.000Z</time></trkpt>
<trkpt lat="42.178203" lon="23.373446"><ele>2242.5</ele><time>2026-03-02T06:51:24.000Z</time></trkpt>
<trkpt lat="42.178203" lon="23.373445"><ele>2242.7</ele><time>2026-03-02T06:51:25.000Z</time></trkpt>
<trkpt lat="42.178204" lon="23.373444"><ele>2242.7</ele><time>2026-03-02T06:51:26.000Z</time></trkpt>
<trkpt lat="42.178204" lon="23.373444"><ele>2242.7</ele><time>2026-03-02T06:51:27.000Z</time></trkpt>
<trkpt lat="42.178203" lon="23.373443"><ele>2242.7</ele><time>2026-03-02T06:51:28.000Z</time></trkpt>
<trkpt lat="42.178203" lon="23.373441"><ele>2242.7</ele><time>2026-03-02T06:51:29.000Z</time></trkpt>
<trkpt lat="42.178201" lon="23.37344"><ele>2242.8</ele><time>2026-03-02T06:51:30.000Z</time></trkpt>
<trkpt lat="42.178201" lon="23.373438"><ele>2242.8</ele><time>2026-03-02T06:51:31.000Z</time></trkpt>
<trkpt lat="42.1782" lon="23.373437"><ele>2242.8</ele><time>2026-03-02T06:51:32.000Z</time></trkpt>
<trkpt lat="42.178201" lon="23.373436"><ele>2242.8</ele><time>2026-03-02T06:51:33.000Z</time></trkpt>
<trkpt lat="42.178201" lon="23.373437"><ele>2242.8</ele><time>2026-03-02T06:51:34.000Z</time></trkpt>
<trkpt lat="42.1782" lon="23.373438"><ele>2242.6</ele><time>2026-03-02T06:51:35.000Z</time></trkpt>
<trkpt lat="42.1782" lon="23.373439"><ele>2242.6</ele><time>2026-03-02T06:51:36.000Z</time></trkpt>
<trkpt lat="42.178199" lon="23.37344"><ele>2242.6</ele><time>2026-03-02T06:51:37.000Z</time></trkpt>
<trkpt lat="42.178197" lon="23.37344"><ele>2242.6</ele><time>2026-03-02T06:51:38.000Z</time></trkpt>
<trkpt lat="42.178196" lon="23.373439"><ele>2242.6</ele><time>2026-03-02T06:51:39.000Z</time></trkpt>
<trkpt lat="42.178195" lon="23.373437"><ele>2242.5</ele><time>2026-03-02T06:51:40.000Z</time></trkpt>
<trkpt lat="42.178193" lon="23.373435"><ele>2242.5</ele><time>2026-03-02T06:51:41.000Z</time></trkpt>
<trkpt lat="42.178191" lon="23.373433"><ele>2242.5</ele><time>2026-03-02T06:51:42.000Z</time></trkpt>
<trkpt lat="42.178189" lon="23.373432"><ele>2242.5</ele><time>2026-03-02T06:51:43.000Z</time></trkpt>
<trkpt lat="42.178188" lon="23.373431"><ele>2242.5</ele><time>2026-03-02T06:51:44.000Z</time></trkpt>
<trkpt lat="42.178188" lon="23.373432"><ele>2242.3</ele><time>2026-03-02T06:51:45.000Z</time></trkpt>
<trkpt lat="42.178188" lon="23.373433"><ele>2242.3</ele><time>2026-03-02T06:51:46.000Z</time></trkpt>
<trkpt lat="42.178189" lon="23.373434"><ele>2242.3</ele><time>2026-03-02T06:51:47.000Z</time></trkpt>
<trkpt lat="42.178191" lon="23.373436"><ele>2242.3</ele><time>2026-03-02T06:51:48.000Z</time></trkpt>
<trkpt lat="42.178193" lon="23.373437"><ele>2242.3</ele><time>2026-03-02T06:51:49.000Z</time></trkpt>
<trkpt lat="42.178194" lon="23.373437"><ele>2242.4</ele><time>2026-03-02T06:51:50.000Z</time></trkpt>
<trkpt lat="42.178195" lon="23.373438"><ele>2242.4</ele><time>2026-03-02T06:51:51.000Z</time></trkpt>
<trkpt lat="42.178194" lon="23.373438"><ele>2242.4</ele><time>2026-03-02T06:51:52.000Z</time></trkpt>
<trkpt lat="42.178194" lon="23.373438"><ele>2242.4</ele><time>2026-03-02T06:51:53.000Z</time></trkpt>
<trkpt lat="42.178194" lon="23.373439"><ele>2242.4</ele><time>2026-03-02T06:51:54.000Z</time></trkpt>
<trkpt lat="42.178194" lon="23.373439"><ele>2242.5</ele><time>2026-03-02T06:51:55.000Z</time></trkpt>
<trkpt lat="42.178195" lon="23.373439"><ele>2242.5</ele><time>2026-03-02T06:51:56.000Z</time></trkpt>
<trkpt lat="42.178195" lon="23.37344"><ele>2242.5</ele><time>2026-03-02T06:51:57.000Z</time></trkpt>
<trkpt lat="42.178196" lon="23.373442"><ele>2242.5</ele><time>2026-03-02T06:51:58.000Z</time></trkpt>
<trkpt lat="42.178197" lon="23.373443"><ele>2242.5</ele><time>2026-03-02T06:51:59.000Z</time></trkpt>
<trkpt lat="42.178198" lon="23.373444"><ele>2242.4</ele><time>2026-03-02T06:52:00.000Z</time></trkpt>
<trkpt lat="42.178199" lon="23.373446"><ele>2242.4</ele><time>2026-03-02T06:52:01.000Z</time></trkpt>
<trkpt lat="42.178199" lon="23.373446"><ele>2242.4</ele><time>2026-03-02T06:52:02.000Z</time></trkpt>
<trkpt lat="42.178199" lon="23.373446"><ele>2242.4</ele><time>2026-03-02T06:52:03.000Z</time></trkpt>
<trkpt lat="42.178199" lon="23.373446"><ele>2242.4</ele><time>2026-03-02T06:52:04.000Z</time></trkpt>
<trkpt lat="42.1782" lon="23.373445"><ele>2242.2</ele><time>2026-03-02T06:52:05.000Z</time></trkpt>
<trkpt lat="42.1782" lon="23.373444"><ele>2242.2</ele><time>2026-03-02T06:52:06.000Z</time></trkpt>
<trkpt lat="42.178201" lon="23.373441"><ele>2242.2</ele><time>2026-03-02T06:52:07.000Z</time></trkpt>
<trkpt lat="42.178203" lon="23.373437"><ele>2242.2</ele><time>2026-03-02T06:52:08.000Z</time></trkpt>
<trkpt lat="42.178205" lon="23.373434"><ele>2242.2</ele><time>2026-03-02T06:52:09.000Z</time></trkpt>
<trkpt lat="42.178205" lon="23.373433"><ele>2242.2</ele><time>2026-03-02T06:52:10.000Z</time></trkpt>
<trkpt lat="42.178206" lon="23.373433"><ele>2242.2</ele><time>2026-03-02T06:52:11.000Z</time></trkpt>
<trkpt lat="42.178205" lon="23.373434"><ele>2242.2</ele><time>2026-03-02T06:52:12.000Z</time></trkpt>
<trkpt lat="42.178204" lon="23.373435"><ele>2242.2</ele><time>2026-03-02T06:52:13.000Z</time></trkpt>
<trkpt lat="42.178203" lon="23.373436"><ele>2242.2</ele><time>2026-03-02T06:52:14.000Z</time></trkpt>
<trkpt lat="42.178203" lon="23.373436"><ele>2242.4</ele><time>2026-03-02T06:52:15.000Z</time></trkpt>
<trkpt lat="42.178203" lon="23.373436"><ele>2242.4</ele><time>2026-03-02T06:52:16.000Z</time></trkpt>
<trkpt lat="42.178204" lon="23.373436"><ele>2242.4</ele><time>2026-03-02T06:52:17.000Z</time></trkpt>
<trkpt lat="42.178204" lon="23.373435"><ele>2242.4</ele><time>2026-03-02T06:52:18.000Z</time></trkpt>
<trkpt lat="42.178202" lon="23.373434"><ele>2242.4</ele><time>2026-03-02T06:52:19.000Z</time></trkpt>
<trkpt lat="42.178198" lon="23.373434"><ele>2242.6</ele><time>2026-03-02T06:52:20.000Z</time></trkpt>
<trkpt lat="42.178195" lon="23.373434"><ele>2242.6</ele><time>2026-03-02T06:52:21.000Z</time></trkpt>
<trkpt lat="42.178192" lon="23.373435"><ele>2242.6</ele><time>2026-03-02T06:52:22.000Z</time></trkpt>
<trkpt lat="42.178192" lon="23.373436"><ele>2242.6</ele><time>2026-03-02T06:52:23.000Z</time></trkpt>
<trkpt lat="42.178192" lon="23.373438"><ele>2242.6</ele><time>2026-03-02T06:52:24.000Z</time></trkpt>
<trkpt lat="42.178195" lon="23.373439"><ele>2242.7</ele><time>2026-03-02T06:52:25.000Z</time></trkpt>
<trkpt lat="42.178201" lon="23.373439"><ele>2242.7</ele><time>2026-03-02T06:52:26.000Z</time></trkpt>
<trkpt lat="42.178205" lon="23.373439"><ele>2242.7</ele><time>2026-03-02T06:52:27.000Z</time></trkpt>
<trkpt lat="42.17821" lon="23.373438"><ele>2242.7</ele><time>2026-03-02T06:52:28.000Z</time></trkpt>
<trkpt lat="42.178215" lon="23.373436"><ele>2242.7</ele><time>2026-03-02T06:52:29.000Z</time></trkpt>
<trkpt lat="42.178219" lon="23.373435"><ele>2242.7</ele><time>2026-03-02T06:52:30.000Z</time></trkpt>
<trkpt lat="42.17822" lon="23.373436"><ele>2242.7</ele><time>2026-03-02T06:52:31.000Z</time></trkpt>
<trkpt lat="42.17822" lon="23.373438"><ele>2242.7</ele><time>2026-03-02T06:52:32.000Z</time></trkpt>
<trkpt lat="42.178219" lon="23.373441"><ele>2242.7</ele><time>2026-03-02T06:52:33.000Z</time></trkpt>
<trkpt lat="42.178216" lon="23.373442"><ele>2242.7</ele><time>2026-03-02T06:52:34.000Z</time></trkpt>
<trkpt lat="42.178212" lon="23.373442"><ele>2242.6</ele><time>2026-03-02T06:52:35.000Z</time></trkpt>
<trkpt lat="42.17821" lon="23.373442"><ele>2242.6</ele><time>2026-03-02T06:52:36.000Z</time></trkpt>
<trkpt lat="42.178207" lon="23.37344"><ele>2242.6</ele><time>2026-03-02T06:52:37.000Z</time></trkpt>
<trkpt lat="42.178206" lon="23.373438"><ele>2242.6</ele><time>2026-03-02T06:52:38.000Z</time></trkpt>
<trkpt lat="42.178205" lon="23.373438"><ele>2242.6</ele><time>2026-03-02T06:52:39.000Z</time></trkpt>
<trkpt lat="42.178204" lon="23.37344"><ele>2242.5</ele><time>2026-03-02T06:52:40.000Z</time></trkpt>
<trkpt lat="42.178203" lon="23.373441"><ele>2242.5</ele><time>2026-03-02T06:52:41.000Z</time></trkpt>
<trkpt lat="42.178202" lon="23.373442"><ele>2242.5</ele><time>2026-03-02T06:52:42.000Z</time></trkpt>
<trkpt lat="42.178201" lon="23.373443"><ele>2242.5</ele><time>2026-03-02T06:52:43.000Z</time></trkpt>
<trkpt lat="42.178199" lon="23.373444"><ele>2242.5</ele><time>2026-03-02T06:52:44.000Z</time></trkpt>
<trkpt lat="42.178198" lon="23.373443"><ele>2242.3</ele><time>2026-03-02T06:52:45.000Z</time></trkpt>
<trkpt lat="42.178197" lon="23.373443"><ele>2242.3</ele><time>2026-03-02T06:52:46.000Z</time></trkpt>
<trkpt lat="42.178196" lon="23.373443"><ele>2242.3</ele><time>2026-03-02T06:52:47.000Z</time></trkpt>
<trkpt lat="42.178194" lon="23.373444"><ele>2242.3</ele><time>2026-03-02T06:52:48.000Z</time></trkpt>
<trkpt lat="42.178194" lon="23.373444"><ele>2242.3</ele><time>2026-03-02T06:52:49.000Z</time></trkpt>
<trkpt lat="42.178194" lon="23.373444"><ele>2241.9</ele><time>2026-03-02T06:52:50.000Z</time></trkpt>
<trkpt lat="42.178193" lon="23.373444"><ele>2241.9</ele><time>2026-03-02T06:52:51.000Z</time></trkpt>
<trkpt lat="42.178193" lon="23.373444"><ele>2241.9</ele><time>2026-03-02T06:52:52.000Z</time></trkpt>
<trkpt lat="42.178193" lon="23.373444"><ele>2241.9</ele><time>2026-03-02T06:52:53.000Z</time></trkpt>
<trkpt lat="42.178193" lon="23.373444"><ele>2241.9</ele><time>2026-03-02T06:52:54.000Z</time></trkpt>
<trkpt lat="42.178193" lon="23.373443"><ele>2241.7</ele><time>2026-03-02T06:52:55.000Z</time></trkpt>
<trkpt lat="42.178193" lon="23.373443"><ele>2241.7</ele><time>2026-03-02T06:52:56.000Z</time></trkpt>
<trkpt lat="42.178193" lon="23.373442"><ele>2241.7</ele><time>2026-03-02T06:52:57.000Z</time></trkpt>
<trkpt lat="42.178193" lon="23.373442"><ele>2241.7</ele><time>2026-03-02T06:52:58.000Z</time></trkpt>
<trkpt lat="42.178192" lon="23.373441"><ele>2241.7</ele><time>2026-03-02T06:52:59.000Z</time></trkpt>
<trkpt lat="42.178192" lon="23.373441"><ele>2241.6</ele><time>2026-03-02T06:53:00.000Z</time></trkpt>
<trkpt lat="42.178192" lon="23.373442"><ele>2241.6</ele><time>2026-03-02T06:53:01.000Z</time></trkpt>
<trkpt lat="42.178192" lon="23.373442"><ele>2241.6</ele><time>2026-03-02T06:53:02.000Z</time></trkpt>
<trkpt lat="42.178192" lon="23.373443"><ele>2241.6</ele><time>2026-03-02T06:53:03.000Z</time></trkpt>
<trkpt lat="42.17819" lon="23.373445"><ele>2241.6</ele><time>2026-03-02T06:53:04.000Z</time></trkpt>
<trkpt lat="42.178189" lon="23.373447"><ele>2241.7</ele><time>2026-03-02T06:53:05.000Z</time></trkpt>
<trkpt lat="42.178187" lon="23.373448"><ele>2241.7</ele><time>2026-03-02T06:53:06.000Z</time></trkpt>
<trkpt lat="42.178185" lon="23.37345"><ele>2241.7</ele><time>2026-03-02T06:53:07.000Z</time></trkpt>
<trkpt lat="42.178183" lon="23.373451"><ele>2241.7</ele><time>2026-03-02T06:53:08.000Z</time></trkpt>
<trkpt lat="42.178182" lon="23.373452"><ele>2241.7</ele><time>2026-03-02T06:53:09.000Z</time></trkpt>
<trkpt lat="42.178181" lon="23.373451"><ele>2241.9</ele><time>2026-03-02T06:53:10.000Z</time></trkpt>
<trkpt lat="42.17818" lon="23.37345"><ele>2241.9</ele><time>2026-03-02T06:53:11.000Z</time></trkpt>
<trkpt lat="42.178178" lon="23.373448"><ele>2241.9</ele><time>2026-03-02T06:53:12.000Z</time></trkpt>
<trkpt lat="42.178177" lon="23.373445"><ele>2241.9</ele><time>2026-03-02T06:53:13.000Z</time></trkpt>
<trkpt lat="42.178176" lon="23.373443"><ele>2241.9</ele><time>2026-03-02T06:53:14.000Z</time></trkpt>
<trkpt lat="42.178175" lon="23.373441"><ele>2242.2</ele><time>2026-03-02T06:53:15.000Z</time></trkpt>
<trkpt lat="42.178174" lon="23.37344"><ele>2242.2</ele><time>2026-03-02T06:53:16.000Z</time></trkpt>
<trkpt lat="42.178173" lon="23.37344"><ele>2242.2</ele><time>2026-03-02T06:53:17.000Z</time></trkpt>
<trkpt lat="42.178172" lon="23.37344"><ele>2242.2</ele><time>2026-03-02T06:53:18.000Z</time></trkpt>
<trkpt lat="42.17817" lon="23.373441"><ele>2242.2</ele><time>2026-03-02T06:53:19.000Z</time></trkpt>
<trkpt lat="42.178169" lon="23.373441"><ele>2242.3</ele><time>2026-03-02T06:53:20.000Z</time></trkpt>
<trkpt lat="42.178168" lon="23.37344"><ele>2242.3</ele><time>2026-03-02T06:53:21.000Z</time></trkpt>
<trkpt lat="42.178168" lon="23.37344"><ele>2242.3</ele><time>2026-03-02T06:53:22.000Z</time></trkpt>
<trkpt lat="42.178168" lon="23.373439"><ele>2242.3</ele><time>2026-03-02T06:53:23.000Z</time></trkpt>
<trkpt lat="42.178167" lon="23.373438"><ele>2242.3</ele><time>2026-03-02T06:53:24.000Z</time></trkpt>
<trkpt lat="42.178167" lon="23.373437"><ele>2242.3</ele><time>2026-03-02T06:53:25.000Z</time></trkpt>
<trkpt lat="42.178167" lon="23.373436"><ele>2242.3</ele><time>2026-03-02T06:53:26.000Z</time></trkpt>
<trkpt lat="42.178167" lon="23.373435"><ele>2242.3</ele><time>2026-03-02T06:53:27.000Z</time></trkpt>
<trkpt lat="42.178168" lon="23.373435"><ele>2242.3</ele><time>2026-03-02T06:53:28.000Z</time></trkpt>
<trkpt lat="42.178168" lon="23.373435"><ele>2242.3</ele><time>2026-03-02T06:53:29.000Z</time></trkpt>
<trkpt lat="42.178169" lon="23.373435"><ele>2242.2</ele><time>2026-03-02T06:53:30.000Z</time></trkpt>
<trkpt lat="42.17817" lon="23.373435"><ele>2242.2</ele><time>2026-03-02T06:53:31.000Z</time></trkpt>
<trkpt lat="42.17817" lon="23.373437"><ele>2242.2</ele><time>2026-03-02T06:53:32.000Z</time></trkpt>
<trkpt lat="42.17817" lon="23.373436"><ele>2242.2</ele><time>2026-03-02T06:53:33.000Z</time></trkpt>
<trkpt lat="42.178169" lon="23.373436"><ele>2242.2</ele><time>2026-03-02T06:53:34.000Z</time></trkpt>
<trkpt lat="42.178167" lon="23.373436"><ele>2242.3</ele><time>2026-03-02T06:53:35.000Z</time></trkpt>
<trkpt lat="42.178165" lon="23.373436"><ele>2242.3</ele><time>2026-03-02T06:53:36.000Z</time></trkpt>
<trkpt lat="42.178164" lon="23.373435"><ele>2242.3</ele><time>2026-03-02T06:53:37.000Z</time></trkpt>
<trkpt lat="42.178163" lon="23.373434"><ele>2242.3</ele><time>2026-03-02T06:53:38.000Z</time></trkpt>
<trkpt lat="42.178162" lon="23.373434"><ele>2242.3</ele><time>2026-03-02T06:53:39.000Z</time></trkpt>
<trkpt lat="42.178162" lon="23.373435"><ele>2242.3</ele><time>2026-03-02T06:53:40.000Z</time></trkpt>
<trkpt lat="42.178162" lon="23.373435"><ele>2242.3</ele><time>2026-03-02T06:53:41.000Z</time></trkpt>
<trkpt lat="42.178161" lon="23.373435"><ele>2242.3</ele><time>2026-03-02T06:53:42.000Z</time></trkpt>
<trkpt lat="42.178161" lon="23.373435"><ele>2242.3</ele><time>2026-03-02T06:53:43.000Z</time></trkpt>
<trkpt lat="42.178161" lon="23.373433"><ele>2242.3</ele><time>2026-03-02T06:53:44.000Z</time></trkpt>
<trkpt lat="42.178161" lon="23.373431"><ele>2242.3</ele><time>2026-03-02T06:53:45.000Z</time></trkpt>
<trkpt lat="42.178161" lon="23.373427"><ele>2242.3</ele><time>2026-03-02T06:53:46.000Z</time></trkpt>
<trkpt lat="42.178161" lon="23.373424"><ele>2242.3</ele><time>2026-03-02T06:53:47.000Z</time></trkpt>
<trkpt lat="42.178162" lon="23.373421"><ele>2242.3</ele><time>2026-03-02T06:53:48.000Z</time></trkpt>
<trkpt lat="42.178162" lon="23.373419"><ele>2242.3</ele><time>2026-03-02T06:53:49.000Z</time></trkpt>
<trkpt lat="42.178162" lon="23.373418"><ele>2242.3</ele><time>2026-03-02T06:53:50.000Z</time></trkpt>
<trkpt lat="42.178162" lon="23.373418"><ele>2242.3</ele><time>2026-03-02T06:53:51.000Z</time></trkpt>
<trkpt lat="42.178162" lon="23.373418"><ele>2242.3</ele><time>2026-03-02T06:53:52.000Z</time></trkpt>
<trkpt lat="42.178162" lon="23.373418"><ele>2242.3</ele><time>2026-03-02T06:53:53.000Z</time></trkpt>
<trkpt lat="42.178162" lon="23.373419"><ele>2242.3</ele><time>2026-03-02T06:53:54.000Z</time></trkpt>
<trkpt lat="42.178162" lon="23.373421"><ele>2242.2</ele><time>2026-03-02T06:53:55.000Z</time></trkpt>
<trkpt lat="42.178163" lon="23.373422"><ele>2242.2</ele><time>2026-03-02T06:53:56.000Z</time></trkpt>
<trkpt lat="42.178165" lon="23.373425"><ele>2242.2</ele><time>2026-03-02T06:53:57.000Z</time></trkpt>
<trkpt lat="42.178168" lon="23.373428"><ele>2242.2</ele><time>2026-03-02T06:53:58.000Z</time></trkpt>
<trkpt lat="42.17817" lon="23.37343"><ele>2242.2</ele><time>2026-03-02T06:53:59.000Z</time></trkpt>
<trkpt lat="42.178173" lon="23.373432"><ele>2242.2</ele><time>2026-03-02T06:54:00.000Z</time></trkpt>
<trkpt lat="42.178175" lon="23.373433"><ele>2242.2</ele><time>2026-03-02T06:54:01.000Z</time></trkpt>
<trkpt lat="42.178177" lon="23.373434"><ele>2242.2</ele><time>2026-03-02T06:54:02.000Z</time></trkpt>
<trkpt lat="42.178177" lon="23.373434"><ele>2242.2</ele><time>2026-03-02T06:54:03.000Z</time></trkpt>
<trkpt lat="42.178177" lon="23.373434"><ele>2242.2</ele><time>2026-03-02T06:54:04.000Z</time></trkpt>
<trkpt lat="42.178176" lon="23.373432"><ele>2241.9</ele><time>2026-03-02T06:54:05.000Z</time></trkpt>
<trkpt lat="42.178175" lon="23.37343"><ele>2241.9</ele><time>2026-03-02T06:54:06.000Z</time></trkpt>
<trkpt lat="42.178174" lon="23.373428"><ele>2241.9</ele><time>2026-03-02T06:54:07.000Z</time></trkpt>
<trkpt lat="42.178173" lon="23.373427"><ele>2241.9</ele><time>2026-03-02T06:54:08.000Z</time></trkpt>
<trkpt lat="42.178173" lon="23.373425"><ele>2241.9</ele><time>2026-03-02T06:54:09.000Z</time></trkpt>
<trkpt lat="42.178174" lon="23.373426"><ele>2241.8</ele><time>2026-03-02T06:54:10.000Z</time></trkpt>
<trkpt lat="42.178175" lon="23.373427"><ele>2241.8</ele><time>2026-03-02T06:54:11.000Z</time></trkpt>
<trkpt lat="42.178176" lon="23.373427"><ele>2241.8</ele><time>2026-03-02T06:54:12.000Z</time></trkpt>
<trkpt lat="42.178176" lon="23.373427"><ele>2241.8</ele><time>2026-03-02T06:54:13.000Z</time></trkpt>
<trkpt lat="42.178176" lon="23.373427"><ele>2241.8</ele><time>2026-03-02T06:54:14.000Z</time></trkpt>
<trkpt lat="42.178176" lon="23.373427"><ele>2241.7</ele><time>2026-03-02T06:54:15.000Z</time></trkpt>
<trkpt lat="42.178176" lon="23.373426"><ele>2241.7</ele><time>2026-03-02T06:54:16.000Z</time></trkpt>
<trkpt lat="42.178176" lon="23.373425"><ele>2241.7</ele><time>2026-03-02T06:54:17.000Z</time></trkpt>
<trkpt lat="42.178177" lon="23.373424"><ele>2241.7</ele><time>2026-03-02T06:54:18.000Z</time></trkpt>
<trkpt lat="42.178179" lon="23.373421"><ele>2241.7</ele><time>2026-03-02T06:54:19.000Z</time></trkpt>
<trkpt lat="42.17818" lon="23.373419"><ele>2241.8</ele><time>2026-03-02T06:54:20.000Z</time></trkpt>
<trkpt lat="42.178181" lon="23.373417"><ele>2241.8</ele><time>2026-03-02T06:54:21.000Z</time></trkpt>
<trkpt lat="42.178182" lon="23.373414"><ele>2241.8</ele><time>2026-03-02T06:54:22.000Z</time></trkpt>
<trkpt lat="42.178182" lon="23.373413"><ele>2241.8</ele><time>2026-03-02T06:54:23.000Z</time></trkpt>
<trkpt lat="42.178183" lon="23.373413"><ele>2241.8</ele><time>2026-03-02T06:54:24.000Z</time></trkpt>
<trkpt lat="42.178183" lon="23.373413"><ele>2241.9</ele><time>2026-03-02T06:54:25.000Z</time></trkpt>
<trkpt lat="42.178182" lon="23.373413"><ele>2241.9</ele><time>2026-03-02T06:54:26.000Z</time></trkpt>
<trkpt lat="42.178181" lon="23.373414"><ele>2241.9</ele><time>2026-03-02T06:54:27.000Z</time></trkpt>
<trkpt lat="42.178181" lon="23.373414"><ele>2241.9</ele><time>2026-03-02T06:54:28.000Z</time></trkpt>
<trkpt lat="42.17818" lon="23.373415"><ele>2241.9</ele><time>2026-03-02T06:54:29.000Z</time></trkpt>
<trkpt lat="42.17818" lon="23.373415"><ele>2241.9</ele><time>2026-03-02T06:54:30.000Z</time></trkpt>
<trkpt lat="42.17818" lon="23.373415"><ele>2241.9</ele><time>2026-03-02T06:54:31.000Z</time></trkpt>
<trkpt lat="42.17818" lon="23.373415"><ele>2241.9</ele><time>2026-03-02T06:54:32.000Z</time></trkpt>
<trkpt lat="42.17818" lon="23.373415"><ele>2241.9</ele><time>2026-03-02T06:54:33.000Z</time></trkpt>
<trkpt lat="42.17818" lon="23.373415"><ele>2241.9</ele><time>2026-03-02T06:54:34.000Z</time></trkpt>
<trkpt lat="42.17818" lon="23.373416"><ele>2241.7</ele><time>2026-03-02T06:54:35.000Z</time></trkpt>
<trkpt lat="42.17818" lon="23.373418"><ele>2241.7</ele><time>2026-03-02T06:54:36.000Z</time></trkpt>
<trkpt lat="42.178181" lon="23.373423"><ele>2241.7</ele><time>2026-03-02T06:54:37.000Z</time></trkpt>
<trkpt lat="42.178182" lon="23.373427"><ele>2241.7</ele><time>2026-03-02T06:54:38.000Z</time></trkpt>
<trkpt lat="42.178182" lon="23.373432"><ele>2241.7</ele><time>2026-03-02T06:54:39.000Z</time></trkpt>
<trkpt lat="42.178183" lon="23.373437"><ele>2241.7</ele><time>2026-03-02T06:54:40.000Z</time></trkpt>
<trkpt lat="42.178183" lon="23.37344"><ele>2241.7</ele><time>2026-03-02T06:54:41.000Z</time></trkpt>
<trkpt lat="42.178183" lon="23.37344"><ele>2241.7</ele><time>2026-03-02T06:54:42.000Z</time></trkpt>
<trkpt lat="42.178183" lon="23.37344"><ele>2241.7</ele><time>2026-03-02T06:54:43.000Z</time></trkpt>
<trkpt lat="42.178183" lon="23.37344"><ele>2241.7</ele><time>2026-03-02T06:54:44.000Z</time></trkpt>
<trkpt lat="42.178183" lon="23.37344"><ele>2241.6</ele><time>2026-03-02T06:54:45.000Z</time></trkpt>
<trkpt lat="42.178183" lon="23.37344"><ele>2241.6</ele><time>2026-03-02T06:54:46.000Z</time></trkpt>
<trkpt lat="42.178182" lon="23.37344"><ele>2241.6</ele><time>2026-03-02T06:54:47.000Z</time></trkpt>
<trkpt lat="42.178182" lon="23.373439"><ele>2241.6</ele><time>2026-03-02T06:54:48.000Z</time></trkpt>
<trkpt lat="42.178181" lon="23.373438"><ele>2241.6</ele><time>2026-03-02T06:54:49.000Z</time></trkpt>
<trkpt lat="42.17818" lon="23.373436"><ele>2241.5</ele><time>2026-03-02T06:54:50.000Z</time></trkpt>
<trkpt lat="42.178179" lon="23.373435"><ele>2241.5</ele><time>2026-03-02T06:54:51.000Z</time></trkpt>
<trkpt lat="42.178179" lon="23.373433"><ele>2241.5</ele><time>2026-03-02T06:54:52.000Z</time></trkpt>
<trkpt lat="42.17818" lon="23.373433"><ele>2241.5</ele><time>2026-03-02T06:54:53.000Z</time></trkpt>
<trkpt lat="42.178182" lon="23.373433"><ele>2241.5</ele><time>2026-03-02T06:54:54.000Z</time></trkpt>
<trkpt lat="42.178183" lon="23.373433"><ele>2241.5</ele><time>2026-03-02T06:54:55.000Z</time></trkpt>
<trkpt lat="42.178184" lon="23.373434"><ele>2241.5</ele><time>2026-03-02T06:54:56.000Z</time></trkpt>
<trkpt lat="42.178185" lon="23.373436"><ele>2241.5</ele><time>2026-03-02T06:54:57.000Z</time></trkpt>
<trkpt lat="42.178185" lon="23.373436"><ele>2241.5</ele><time>2026-03-02T06:54:58.000Z</time></trkpt>
<trkpt lat="42.178185" lon="23.373436"><ele>2241.5</ele><time>2026-03-02T06:54:59.000Z</time></trkpt>
<trkpt lat="42.178185" lon="23.373438"><ele>2241.5</ele><time>2026-03-02T06:55:00.000Z</time></trkpt>
<trkpt lat="42.178186" lon="23.373439"><ele>2241.5</ele><time>2026-03-02T06:55:01.000Z</time></trkpt>
<trkpt lat="42.178187" lon="23.373439"><ele>2241.5</ele><time>2026-03-02T06:55:02.000Z</time></trkpt>
<trkpt lat="42.178187" lon="23.373443"><ele>2241.5</ele><time>2026-03-02T06:55:03.000Z</time></trkpt>
<trkpt lat="42.178189" lon="23.373448"><ele>2241.5</ele><time>2026-03-02T06:55:04.000Z</time></trkpt>
<trkpt lat="42.178193" lon="23.373452"><ele>2241.6</ele><time>2026-03-02T06:55:05.000Z</time></trkpt>
<trkpt lat="42.178196" lon="23.373457"><ele>2241.6</ele><time>2026-03-02T06:55:06.000Z</time></trkpt>
<trkpt lat="42.178199" lon="23.37346"><ele>2241.6</ele><time>2026-03-02T06:55:07.000Z</time></trkpt>
<trkpt lat="42.1782" lon="23.373461"><ele>2241.6</ele><time>2026-03-02T06:55:08.000Z</time></trkpt>
<trkpt lat="42.178197" lon="23.373461"><ele>2241.6</ele><time>2026-03-02T06:55:09.000Z</time></trkpt>
<trkpt lat="42.178193" lon="23.373459"><ele>2241.6</ele><time>2026-03-02T06:55:10.000Z</time></trkpt>
<trkpt lat="42.178189" lon="23.373457"><ele>2241.6</ele><time>2026-03-02T06:55:11.000Z</time></trkpt>
<trkpt lat="42.178186" lon="23.373456"><ele>2241.6</ele><time>2026-03-02T06:55:12.000Z</time></trkpt>
<trkpt lat="42.178186" lon="23.373455"><ele>2241.6</ele><time>2026-03-02T06:55:13.000Z</time></trkpt>
<trkpt lat="42.178188" lon="23.373455"><ele>2241.6</ele><time>2026-03-02T06:55:14.000Z</time></trkpt>
<trkpt lat="42.178192" lon="23.373455"><ele>2241.6</ele><time>2026-03-02T06:55:15.000Z</time></trkpt>
<trkpt lat="42.178195" lon="23.373455"><ele>2241.6</ele><time>2026-03-02T06:55:16.000Z</time></trkpt>
<trkpt lat="42.178198" lon="23.373455"><ele>2241.6</ele><time>2026-03-02T06:55:17.000Z</time></trkpt>
<trkpt lat="42.178201" lon="23.373456"><ele>2241.6</ele><time>2026-03-02T06:55:18.000Z</time></trkpt>
<trkpt lat="42.178202" lon="23.373455"><ele>2241.6</ele><time>2026-03-02T06:55:19.000Z</time></trkpt>
<trkpt lat="42.178203" lon="23.373454"><ele>2241.7</ele><time>2026-03-02T06:55:20.000Z</time></trkpt>
<trkpt lat="42.178203" lon="23.373454"><ele>2241.7</ele><time>2026-03-02T06:55:21.000Z</time></trkpt>
<trkpt lat="42.178204" lon="23.373453"><ele>2241.7</ele><time>2026-03-02T06:55:22.000Z</time></trkpt>
<trkpt lat="42.178203" lon="23.373451"><ele>2241.7</ele><time>2026-03-02T06:55:23.000Z</time></trkpt>
<trkpt lat="42.178203" lon="23.373451"><ele>2241.7</ele><time>2026-03-02T06:55:24.000Z</time></trkpt>
<trkpt lat="42.178203" lon="23.37345"><ele>2241.9</ele><time>2026-03-02T06:55:25.000Z</time></trkpt>
<trkpt lat="42.178203" lon="23.373448"><ele>2241.9</ele><time>2026-03-02T06:55:26.000Z</time></trkpt>
<trkpt lat="42.178203" lon="23.373447"><ele>2241.9</ele><time>2026-03-02T06:55:27.000Z</time></trkpt>
<trkpt lat="42.178203" lon="23.373447"><ele>2241.9</ele><time>2026-03-02T06:55:28.000Z</time></trkpt>
<trkpt lat="42.178203" lon="23.373447"><ele>2241.9</ele><time>2026-03-02T06:55:29.000Z</time></trkpt>
<trkpt lat="42.178203" lon="23.373448"><ele>2242.5</ele><time>2026-03-02T06:55:30.000Z</time></trkpt>
<trkpt lat="42.178204" lon="23.373451"><ele>2242.5</ele><time>2026-03-02T06:55:31.000Z</time></trkpt>
<trkpt lat="42.178204" lon="23.373457"><ele>2242.5</ele><time>2026-03-02T06:55:32.000Z</time></trkpt>
<trkpt lat="42.178203" lon="23.373463"><ele>2242.5</ele><time>2026-03-02T06:55:33.000Z</time></trkpt>
<trkpt lat="42.178203" lon="23.373469"><ele>2242.5</ele><time>2026-03-02T06:55:34.000Z</time></trkpt>
<trkpt lat="42.178202" lon="23.373473"><ele>2242.6</ele><time>2026-03-02T06:55:35.000Z</time></trkpt>
<trkpt lat="42.178201" lon="23.373475"><ele>2242.6</ele><time>2026-03-02T06:55:36.000Z</time></trkpt>
<trkpt lat="42.178199" lon="23.373474"><ele>2242.6</ele><time>2026-03-02T06:55:37.000Z</time></trkpt>
<trkpt lat="42.178196" lon="23.37347"><ele>2242.6</ele><time>2026-03-02T06:55:38.000Z</time></trkpt>
<trkpt lat="42.178194" lon="23.373467"><ele>2242.6</ele><time>2026-03-02T06:55:39.000Z</time></trkpt>
<trkpt lat="42.17819" lon="23.373465"><ele>2242.5</ele><time>2026-03-02T06:55:40.000Z</time></trkpt>
<trkpt lat="42.178186" lon="23.373464"><ele>2242.5</ele><time>2026-03-02T06:55:41.000Z</time></trkpt>
<trkpt lat="42.178184" lon="23.373464"><ele>2242.5</ele><time>2026-03-02T06:55:42.000Z</time></trkpt>
<trkpt lat="42.178184" lon="23.373465"><ele>2242.5</ele><time>2026-03-02T06:55:43.000Z</time></trkpt>
<trkpt lat="42.178184" lon="23.373465"><ele>2242.5</ele><time>2026-03-02T06:55:44.000Z</time></trkpt>
<trkpt lat="42.178184" lon="23.373465"><ele>2242.3</ele><time>2026-03-02T06:55:45.000Z</time></trkpt>
<trkpt lat="42.178185" lon="23.373466"><ele>2242.3</ele><time>2026-03-02T06:55:46.000Z</time></trkpt>
<trkpt lat="42.178185" lon="23.373466"><ele>2242.3</ele><time>2026-03-02T06:55:47.000Z</time></trkpt>
<trkpt lat="42.178184" lon="23.373467"><ele>2242.3</ele><time>2026-03-02T06:55:48.000Z</time></trkpt>
<trkpt lat="42.178183" lon="23.373467"><ele>2242.3</ele><time>2026-03-02T06:55:49.000Z</time></trkpt>
<trkpt lat="42.178182" lon="23.373467"><ele>2242.3</ele><time>2026-03-02T06:55:50.000Z</time></trkpt>
<trkpt lat="42.178181" lon="23.373466"><ele>2242.3</ele><time>2026-03-02T06:55:51.000Z</time></trkpt>
<trkpt lat="42.178181" lon="23.373466"><ele>2242.3</ele><time>2026-03-02T06:55:52.000Z</time></trkpt>
<trkpt lat="42.17818" lon="23.373466"><ele>2242.3</ele><time>2026-03-02T06:55:53.000Z</time></trkpt>
<trkpt lat="42.17818" lon="23.373465"><ele>2242.3</ele><time>2026-03-02T06:55:54.000Z</time></trkpt>
<trkpt lat="42.178179" lon="23.373465"><ele>2242.4</ele><time>2026-03-02T06:55:55.000Z</time></trkpt>
<trkpt lat="42.178179" lon="23.373465"><ele>2242.4</ele><time>2026-03-02T06:55:56.000Z</time></trkpt>
<trkpt lat="42.178178" lon="23.373464"><ele>2242.4</ele><time>2026-03-02T06:55:57.000Z</time></trkpt>
<trkpt lat="42.178178" lon="23.373463"><ele>2242.4</ele><time>2026-03-02T06:55:58.000Z</time></trkpt>
<trkpt lat="42.178177" lon="23.373462"><ele>2242.4</ele><time>2026-03-02T06:55:59.000Z</time></trkpt>
<trkpt lat="42.178177" lon="23.373461"><ele>2242.5</ele><time>2026-03-02T06:56:00.000Z</time></trkpt>
<trkpt lat="42.178176" lon="23.373461"><ele>2242.5</ele><time>2026-03-02T06:56:01.000Z</time></trkpt>
<trkpt lat="42.178176" lon="23.373461"><ele>2242.5</ele><time>2026-03-02T06:56:02.000Z</time></trkpt>
<trkpt lat="42.178176" lon="23.373461"><ele>2242.5</ele><time>2026-03-02T06:56:03.000Z</time></trkpt>
<trkpt lat="42.178177" lon="23.373461"><ele>2242.5</ele><time>2026-03-02T06:56:04.000Z</time></trkpt>
<trkpt lat="42.17818" lon="23.373462"><ele>2242.6</ele><time>2026-03-02T06:56:05.000Z</time></trkpt>
<trkpt lat="42.178182" lon="23.373463"><ele>2242.6</ele><time>2026-03-02T06:56:06.000Z</time></trkpt>
<trkpt lat="42.178185" lon="23.373465"><ele>2242.6</ele><time>2026-03-02T06:56:07.000Z</time></trkpt>
<trkpt lat="42.178189" lon="23.373467"><ele>2242.6</ele><time>2026-03-02T06:56:08.000Z</time></trkpt>
<trkpt lat="42.178191" lon="23.37347"><ele>2242.6</ele><time>2026-03-02T06:56:09.000Z</time></trkpt>
<trkpt lat="42.178192" lon="23.373471"><ele>2242.6</ele><time>2026-03-02T06:56:10.000Z</time></trkpt>
<trkpt lat="42.178193" lon="23.373473"><ele>2242.6</ele><time>2026-03-02T06:56:11.000Z</time></trkpt>
<trkpt lat="42.178193" lon="23.373473"><ele>2242.6</ele><time>2026-03-02T06:56:12.000Z</time></trkpt>
<trkpt lat="42.178192" lon="23.373474"><ele>2242.6</ele><time>2026-03-02T06:56:13.000Z</time></trkpt>
<trkpt lat="42.178192" lon="23.373474"><ele>2242.6</ele><time>2026-03-02T06:56:14.000Z</time></trkpt>
<trkpt lat="42.178191" lon="23.373474"><ele>2242.7</ele><time>2026-03-02T06:56:15.000Z</time></trkpt>
<trkpt lat="42.178191" lon="23.373474"><ele>2242.7</ele><time>2026-03-02T06:56:16.000Z</time></trkpt>
<trkpt lat="42.178191" lon="23.373474"><ele>2242.7</ele><time>2026-03-02T06:56:17.000Z</time></trkpt>
<trkpt lat="42.178191" lon="23.373474"><ele>2242.7</ele><time>2026-03-02T06:56:18.000Z</time></trkpt>
<trkpt lat="42.178192" lon="23.373474"><ele>2242.7</ele><time>2026-03-02T06:56:19.000Z</time></trkpt>
<trkpt lat="42.178191" lon="23.373473"><ele>2242.6</ele><time>2026-03-02T06:56:20.000Z</time></trkpt>
<trkpt lat="42.178191" lon="23.373472"><ele>2242.6</ele><time>2026-03-02T06:56:21.000Z</time></trkpt>
<trkpt lat="42.178191" lon="23.373471"><ele>2242.6</ele><time>2026-03-02T06:56:22.000Z</time></trkpt>
<trkpt lat="42.17819" lon="23.37347"><ele>2242.6</ele><time>2026-03-02T06:56:23.000Z</time></trkpt>
<trkpt lat="42.17819" lon="23.37347"><ele>2242.6</ele><time>2026-03-02T06:56:24.000Z</time></trkpt>
<trkpt lat="42.178189" lon="23.37347"><ele>2242.6</ele><time>2026-03-02T06:56:25.000Z</time></trkpt>
<trkpt lat="42.178189" lon="23.373469"><ele>2242.6</ele><time>2026-03-02T06:56:26.000Z</time></trkpt>
<trkpt lat="42.178189" lon="23.373469"><ele>2242.6</ele><time>2026-03-02T06:56:27.000Z</time></trkpt>
<trkpt lat="42.178189" lon="23.37347"><ele>2242.6</ele><time>2026-03-02T06:56:28.000Z</time></trkpt>
<trkpt lat="42.178188" lon="23.373471"><ele>2242.6</ele><time>2026-03-02T06:56:29.000Z</time></trkpt>
<trkpt lat="42.178186" lon="23.373473"><ele>2242.5</ele><time>2026-03-02T06:56:30.000Z</time></trkpt>
<trkpt lat="42.178182" lon="23.373474"><ele>2242.5</ele><time>2026-03-02T06:56:31.000Z</time></trkpt>
<trkpt lat="42.178176" lon="23.373475"><ele>2242.5</ele><time>2026-03-02T06:56:32.000Z</time></trkpt>
<trkpt lat="42.178167" lon="23.373477"><ele>2242.5</ele><time>2026-03-02T06:56:33.000Z</time></trkpt>
<trkpt lat="42.178158" lon="23.373477"><ele>2242.5</ele><time>2026-03-02T06:56:34.000Z</time></trkpt>
<trkpt lat="42.178147" lon="23.373476"><ele>2242.5</ele><time>2026-03-02T06:56:35.000Z</time></trkpt>
<trkpt lat="42.178137" lon="23.373473"><ele>2242.5</ele><time>2026-03-02T06:56:36.000Z</time></trkpt>
<trkpt lat="42.178126" lon="23.373471"><ele>2242.5</ele><time>2026-03-02T06:56:37.000Z</time></trkpt>
<trkpt lat="42.178117" lon="23.373468"><ele>2242.5</ele><time>2026-03-02T06:56:38.000Z</time></trkpt>
<trkpt lat="42.178108" lon="23.373466"><ele>2242.5</ele><time>2026-03-02T06:56:39.000Z</time></trkpt>
<trkpt lat="42.1781" lon="23.373464"><ele>2242.5</ele><time>2026-03-02T06:56:40.000Z</time></trkpt>
<trkpt lat="42.178091" lon="23.373464"><ele>2242.5</ele><time>2026-03-02T06:56:41.000Z</time></trkpt>
<trkpt lat="42.178083" lon="23.373463"><ele>2242.5</ele><time>2026-03-02T06:56:42.000Z</time></trkpt>
<trkpt lat="42.178074" lon="23.373463"><ele>2242.5</ele><time>2026-03-02T06:56:43.000Z</time></trkpt>
<trkpt lat="42.178066" lon="23.373464"><ele>2242.5</ele><time>2026-03-02T06:56:44.000Z</time></trkpt>
<trkpt lat="42.178059" lon="23.373466"><ele>2242.8</ele><time>2026-03-02T06:56:45.000Z</time></trkpt>
<trkpt lat="42.178052" lon="23.373469"><ele>2242.8</ele><time>2026-03-02T06:56:46.000Z</time></trkpt>
<trkpt lat="42.178045" lon="23.373473"><ele>2242.8</ele><time>2026-03-02T06:56:47.000Z</time></trkpt>
<trkpt lat="42.178039" lon="23.373477"><ele>2242.8</ele><time>2026-03-02T06:56:48.000Z</time></trkpt>
<trkpt lat="42.178032" lon="23.373481"><ele>2242.8</ele><time>2026-03-02T06:56:49.000Z</time></trkpt>
<trkpt lat="42.178023" lon="23.373485"><ele>2243.3</ele><time>2026-03-02T06:56:50.000Z</time></trkpt>
<trkpt lat="42.178016" lon="23.37349"><ele>2243.3</ele><time>2026-03-02T06:56:51.000Z</time></trkpt>
<trkpt lat="42.178009" lon="23.373496"><ele>2243.3</ele><time>2026-03-02T06:56:52.000Z</time></trkpt>
<trkpt lat="42.178004" lon="23.3735"><ele>2243.3</ele><time>2026-03-02T06:56:53.000Z</time></trkpt>
<trkpt lat="42.178001" lon="23.373504"><ele>2243.3</ele><time>2026-03-02T06:56:54.000Z</time></trkpt>
<trkpt lat="42.177999" lon="23.373508"><ele>2243.7</ele><time>2026-03-02T06:56:55.000Z</time></trkpt>
<trkpt lat="42.177996" lon="23.373512"><ele>2243.7</ele><time>2026-03-02T06:56:56.000Z</time></trkpt>
<trkpt lat="42.177991" lon="23.373517"><ele>2243.7</ele><time>2026-03-02T06:56:57.000Z</time></trkpt>
<trkpt lat="42.177984" lon="23.373524"><ele>2243.7</ele><time>2026-03-02T06:56:58.000Z</time></trkpt>
<trkpt lat="42.177975" lon="23.373531"><ele>2243.7</ele><time>2026-03-02T06:56:59.000Z</time></trkpt>
<trkpt lat="42.177964" lon="23.373539"><ele>2244.2</ele><time>2026-03-02T06:57:00.000Z</time></trkpt>
<trkpt lat="42.177952" lon="23.373547"><ele>2244.2</ele><time>2026-03-02T06:57:01.000Z</time></trkpt>
<trkpt lat="42.17794" lon="23.373555"><ele>2244.2</ele><time>2026-03-02T06:57:02.000Z</time></trkpt>
<trkpt lat="42.177928" lon="23.373563"><ele>2244.2</ele><time>2026-03-02T06:57:03.000Z</time></trkpt>
<trkpt lat="42.177916" lon="23.37357"><ele>2244.2</ele><time>2026-03-02T06:57:04.000Z</time></trkpt>
<trkpt lat="42.177903" lon="23.373577"><ele>2244.3</ele><time>2026-03-02T06:57:05.000Z</time></trkpt>
<trkpt lat="42.177891" lon="23.373584"><ele>2244.3</ele><time>2026-03-02T06:57:06.000Z</time></trkpt>
<trkpt lat="42.177879" lon="23.373591"><ele>2244.3</ele><time>2026-03-02T06:57:07.000Z</time></trkpt>
<trkpt lat="42.177867" lon="23.373597"><ele>2244.3</ele><time>2026-03-02T06:57:08.000Z</time></trkpt>
<trkpt lat="42.177855" lon="23.373603"><ele>2244.3</ele><time>2026-03-02T06:57:09.000Z</time></trkpt>
<trkpt lat="42.177843" lon="23.373609"><ele>2244.4</ele><time>2026-03-02T06:57:10.000Z</time></trkpt>
<trkpt lat="42.177832" lon="23.373615"><ele>2244.4</ele><time>2026-03-02T06:57:11.000Z</time></trkpt>
<trkpt lat="42.177819" lon="23.373621"><ele>2244.4</ele><time>2026-03-02T06:57:12.000Z</time></trkpt>
<trkpt lat="42.177805" lon="23.373628"><ele>2244.4</ele><time>2026-03-02T06:57:13.000Z</time></trkpt>
<trkpt lat="42.177792" lon="23.373635"><ele>2244.4</ele><time>2026-03-02T06:57:14.000Z</time></trkpt>
<trkpt lat="42.177779" lon="23.373644"><ele>2244.5</ele><time>2026-03-02T06:57:15.000Z</time></trkpt>
<trkpt lat="42.177767" lon="23.373652"><ele>2244.5</ele><time>2026-03-02T06:57:16.000Z</time></trkpt>
<trkpt lat="42.177755" lon="23.373662"><ele>2244.5</ele><time>2026-03-02T06:57:17.000Z</time></trkpt>
<trkpt lat="42.177743" lon="23.373671"><ele>2244.5</ele><time>2026-03-02T06:57:18.000Z</time></trkpt>
<trkpt lat="42.177732" lon="23.373679"><ele>2244.5</ele><time>2026-03-02T06:57:19.000Z</time></trkpt>
<trkpt lat="42.17772" lon="23.373687"><ele>2244.6</ele><time>2026-03-02T06:57:20.000Z</time></trkpt>
<trkpt lat="42.177708" lon="23.373695"><ele>2244.6</ele><time>2026-03-02T06:57:21.000Z</time></trkpt>
<trkpt lat="42.177696" lon="23.373702"><ele>2244.6</ele><time>2026-03-02T06:57:22.000Z</time></trkpt>
<trkpt lat="42.177683" lon="23.37371"><ele>2244.6</ele><time>2026-03-02T06:57:23.000Z</time></trkpt>
<trkpt lat="42.177671" lon="23.373718"><ele>2244.6</ele><time>2026-03-02T06:57:24.000Z</time></trkpt>
<trkpt lat="42.177659" lon="23.373726"><ele>2244.7</ele><time>2026-03-02T06:57:25.000Z</time></trkpt>
<trkpt lat="42.177648" lon="23.373735"><ele>2244.7</ele><time>2026-03-02T06:57:26.000Z</time></trkpt>
<trkpt lat="42.177636" lon="23.373742"><ele>2244.7</ele><time>2026-03-02T06:57:27.000Z</time></trkpt>
<trkpt lat="42.177625" lon="23.37375"><ele>2244.7</ele><time>2026-03-02T06:57:28.000Z</time></trkpt>
<trkpt lat="42.177612" lon="23.373757"><ele>2244.7</ele><time>2026-03-02T06:57:29.000Z</time></trkpt>
<trkpt lat="42.177599" lon="23.373764"><ele>2245</ele><time>2026-03-02T06:57:30.000Z</time></trkpt>
<trkpt lat="42.177586" lon="23.373769"><ele>2245</ele><time>2026-03-02T06:57:31.000Z</time></trkpt>
<trkpt lat="42.177573" lon="23.373774"><ele>2245</ele><time>2026-03-02T06:57:32.000Z</time></trkpt>
<trkpt lat="42.17756" lon="23.373778"><ele>2245</ele><time>2026-03-02T06:57:33.000Z</time></trkpt>
<trkpt lat="42.177549" lon="23.373782"><ele>2245</ele><time>2026-03-02T06:57:34.000Z</time></trkpt>
<trkpt lat="42.177536" lon="23.373786"><ele>2245.2</ele><time>2026-03-02T06:57:35.000Z</time></trkpt>
<trkpt lat="42.177523" lon="23.37379"><ele>2245.2</ele><time>2026-03-02T06:57:36.000Z</time></trkpt>
<trkpt lat="42.17751" lon="23.373795"><ele>2245.2</ele><time>2026-03-02T06:57:37.000Z</time></trkpt>
<trkpt lat="42.177496" lon="23.373799"><ele>2245.2</ele><time>2026-03-02T06:57:38.000Z</time></trkpt>
<trkpt lat="42.177481" lon="23.373803"><ele>2245.2</ele><time>2026-03-02T06:57:39.000Z</time></trkpt>
<trkpt lat="42.177466" lon="23.373806"><ele>2245.3</ele><time>2026-03-02T06:57:40.000Z</time></trkpt>
<trkpt lat="42.177452" lon="23.373809"><ele>2245.3</ele><time>2026-03-02T06:57:41.000Z</time></trkpt>
<trkpt lat="42.177439" lon="23.373812"><ele>2245.3</ele><time>2026-03-02T06:57:42.000Z</time></trkpt>
<trkpt lat="42.177426" lon="23.373815"><ele>2245.3</ele><time>2026-03-02T06:57:43.000Z</time></trkpt>
<trkpt lat="42.177413" lon="23.373817"><ele>2245.3</ele><time>2026-03-02T06:57:44.000Z</time></trkpt>
<trkpt lat="42.1774" lon="23.37382"><ele>2245.4</ele><time>2026-03-02T06:57:45.000Z</time></trkpt>
<trkpt lat="42.177386" lon="23.373823"><ele>2245.4</ele><time>2026-03-02T06:57:46.000Z</time></trkpt>
<trkpt lat="42.177372" lon="23.373828"><ele>2245.4</ele><time>2026-03-02T06:57:47.000Z</time></trkpt>
<trkpt lat="42.177359" lon="23.373834"><ele>2245.4</ele><time>2026-03-02T06:57:48.000Z</time></trkpt>
<trkpt lat="42.177343" lon="23.37384"><ele>2245.4</ele><time>2026-03-02T06:57:49.000Z</time></trkpt>
<trkpt lat="42.177328" lon="23.373849"><ele>2245.6</ele><time>2026-03-02T06:57:50.000Z</time></trkpt>
<trkpt lat="42.177313" lon="23.373855"><ele>2245.6</ele><time>2026-03-02T06:57:51.000Z</time></trkpt>
<trkpt lat="42.177298" lon="23.373861"><ele>2245.6</ele><time>2026-03-02T06:57:52.000Z</time></trkpt>
<trkpt lat="42.177286" lon="23.373867"><ele>2245.6</ele><time>2026-03-02T06:57:53.000Z</time></trkpt>
<trkpt lat="42.177274" lon="23.373872"><ele>2245.6</ele><time>2026-03-02T06:57:54.000Z</time></trkpt>
<trkpt lat="42.177262" lon="23.373878"><ele>2245.7</ele><time>2026-03-02T06:57:55.000Z</time></trkpt>
<trkpt lat="42.17725" lon="23.373884"><ele>2245.7</ele><time>2026-03-02T06:57:56.000Z</time></trkpt>
<trkpt lat="42.177237" lon="23.37389"><ele>2245.7</ele><time>2026-03-02T06:57:57.000Z</time></trkpt>
<trkpt lat="42.177223" lon="23.373895"><ele>2245.7</ele><time>2026-03-02T06:57:58.000Z</time></trkpt>
<trkpt lat="42.177207" lon="23.373901"><ele>2245.7</ele><time>2026-03-02T06:57:59.000Z</time></trkpt>
<trkpt lat="42.177192" lon="23.373906"><ele>2245.9</ele><time>2026-03-02T06:58:00.000Z</time></trkpt>
<trkpt lat="42.177176" lon="23.37391"><ele>2245.9</ele><time>2026-03-02T06:58:01.000Z</time></trkpt>
<trkpt lat="42.177161" lon="23.373914"><ele>2245.9</ele><time>2026-03-02T06:58:02.000Z</time></trkpt>
<trkpt lat="42.177145" lon="23.373919"><ele>2245.9</ele><time>2026-03-02T06:58:03.000Z</time></trkpt>
<trkpt lat="42.177129" lon="23.373924"><ele>2245.9</ele><time>2026-03-02T06:58:04.000Z</time></trkpt>
<trkpt lat="42.177112" lon="23.373929"><ele>2246</ele><time>2026-03-02T06:58:05.000Z</time></trkpt>
<trkpt lat="42.177096" lon="23.373935"><ele>2246</ele><time>2026-03-02T06:58:06.000Z</time></trkpt>
<trkpt lat="42.17708" lon="23.373941"><ele>2246</ele><time>2026-03-02T06:58:07.000Z</time></trkpt>
<trkpt lat="42.177064" lon="23.373946"><ele>2246</ele><time>2026-03-02T06:58:08.000Z</time></trkpt>
<trkpt lat="42.177049" lon="23.373951"><ele>2246</ele><time>2026-03-02T06:58:09.000Z</time></trkpt>
<trkpt lat="42.177034" lon="23.373957"><ele>2246</ele><time>2026-03-02T06:58:10.000Z</time></trkpt>
<trkpt lat="42.177019" lon="23.373962"><ele>2246</ele><time>2026-03-02T06:58:11.000Z</time></trkpt>
<trkpt lat="42.177006" lon="23.373966"><ele>2246</ele><time>2026-03-02T06:58:12.000Z</time></trkpt>
<trkpt lat="42.176994" lon="23.37397"><ele>2246</ele><time>2026-03-02T06:58:13.000Z</time></trkpt>
<trkpt lat="42.176981" lon="23.373974"><ele>2246</ele><time>2026-03-02T06:58:14.000Z</time></trkpt>
<trkpt lat="42.176968" lon="23.373977"><ele>2246.1</ele><time>2026-03-02T06:58:15.000Z</time></trkpt>
<trkpt lat="42.176955" lon="23.373979"><ele>2246.1</ele><time>2026-03-02T06:58:16.000Z</time></trkpt>
<trkpt lat="42.17694" lon="23.373983"><ele>2246.1</ele><time>2026-03-02T06:58:17.000Z</time></trkpt>
<trkpt lat="42.176926" lon="23.373987"><ele>2246.1</ele><time>2026-03-02T06:58:18.000Z</time></trkpt>
<trkpt lat="42.176912" lon="23.373991"><ele>2246.1</ele><time>2026-03-02T06:58:19.000Z</time></trkpt>
<trkpt lat="42.176899" lon="23.373996"><ele>2246.4</ele><time>2026-03-02T06:58:20.000Z</time></trkpt>
<trkpt lat="42.176885" lon="23.374001"><ele>2246.4</ele><time>2026-03-02T06:58:21.000Z</time></trkpt>
<trkpt lat="42.176872" lon="23.374005"><ele>2246.4</ele><time>2026-03-02T06:58:22.000Z</time></trkpt>
<trkpt lat="42.176858" lon="23.374009"><ele>2246.4</ele><time>2026-03-02T06:58:23.000Z</time></trkpt>
<trkpt lat="42.176845" lon="23.374013"><ele>2246.4</ele><time>2026-03-02T06:58:24.000Z</time></trkpt>
<trkpt lat="42.176831" lon="23.374016"><ele>2246.5</ele><time>2026-03-02T06:58:25.000Z</time></trkpt>
<trkpt lat="42.176819" lon="23.374019"><ele>2246.5</ele><time>2026-03-02T06:58:26.000Z</time></trkpt>
<trkpt lat="42.176809" lon="23.374021"><ele>2246.5</ele><time>2026-03-02T06:58:27.000Z</time></trkpt>
<trkpt lat="42.176802" lon="23.374022"><ele>2246.5</ele><time>2026-03-02T06:58:28.000Z</time></trkpt>
<trkpt lat="42.176797" lon="23.374022"><ele>2246.5</ele><time>2026-03-02T06:58:29.000Z</time></trkpt>
<trkpt lat="42.176793" lon="23.374023"><ele>2246.6</ele><time>2026-03-02T06:58:30.000Z</time></trkpt>
<trkpt lat="42.176789" lon="23.374023"><ele>2246.6</ele><time>2026-03-02T06:58:31.000Z</time></trkpt>
<trkpt lat="42.176783" lon="23.374024"><ele>2246.6</ele><time>2026-03-02T06:58:32.000Z</time></trkpt>
<trkpt lat="42.176775" lon="23.374026"><ele>2246.6</ele><time>2026-03-02T06:58:33.000Z</time></trkpt>
<trkpt lat="42.176765" lon="23.374029"><ele>2246.6</ele><time>2026-03-02T06:58:34.000Z</time></trkpt>
<trkpt lat="42.176756" lon="23.374032"><ele>2246.7</ele><time>2026-03-02T06:58:35.000Z</time></trkpt>
<trkpt lat="42.176747" lon="23.374035"><ele>2246.7</ele><time>2026-03-02T06:58:36.000Z</time></trkpt>
<trkpt lat="42.176738" lon="23.374039"><ele>2246.7</ele><time>2026-03-02T06:58:37.000Z</time></trkpt>
<trkpt lat="42.176728" lon="23.374042"><ele>2246.7</ele><time>2026-03-02T06:58:38.000Z</time></trkpt>
<trkpt lat="42.176719" lon="23.374047"><ele>2246.7</ele><time>2026-03-02T06:58:39.000Z</time></trkpt>
<trkpt lat="42.176709" lon="23.374051"><ele>2246.7</ele><time>2026-03-02T06:58:40.000Z</time></trkpt>
<trkpt lat="42.176701" lon="23.374055"><ele>2246.7</ele><time>2026-03-02T06:58:41.000Z</time></trkpt>
<trkpt lat="42.176693" lon="23.374058"><ele>2246.7</ele><time>2026-03-02T06:58:42.000Z</time></trkpt>
<trkpt lat="42.176689" lon="23.37406"><ele>2246.7</ele><time>2026-03-02T06:58:43.000Z</time></trkpt>
<trkpt lat="42.176686" lon="23.374061"><ele>2246.7</ele><time>2026-03-02T06:58:44.000Z</time></trkpt>
<trkpt lat="42.176684" lon="23.374062"><ele>2246.8</ele><time>2026-03-02T06:58:45.000Z</time></trkpt>
<trkpt lat="42.176683" lon="23.374063"><ele>2246.8</ele><time>2026-03-02T06:58:46.000Z</time></trkpt>
<trkpt lat="42.176682" lon="23.374065"><ele>2246.8</ele><time>2026-03-02T06:58:47.000Z</time></trkpt>
<trkpt lat="42.176678" lon="23.374067"><ele>2246.8</ele><time>2026-03-02T06:58:48.000Z</time></trkpt>
<trkpt lat="42.176671" lon="23.374071"><ele>2246.8</ele><time>2026-03-02T06:58:49.000Z</time></trkpt>
<trkpt lat="42.176662" lon="23.374075"><ele>2247</ele><time>2026-03-02T06:58:50.000Z</time></trkpt>
<trkpt lat="42.176651" lon="23.37408"><ele>2247</ele><time>2026-03-02T06:58:51.000Z</time></trkpt>
<trkpt lat="42.176639" lon="23.374084"><ele>2247</ele><time>2026-03-02T06:58:52.000Z</time></trkpt>
<trkpt lat="42.176627" lon="23.374088"><ele>2247</ele><time>2026-03-02T06:58:53.000Z</time></trkpt>
<trkpt lat="42.176615" lon="23.374091"><ele>2247</ele><time>2026-03-02T06:58:54.000Z</time></trkpt>
<trkpt lat="42.176603" lon="23.374094"><ele>2247.1</ele><time>2026-03-02T06:58:55.000Z</time></trkpt>
<trkpt lat="42.176592" lon="23.374095"><ele>2247.1</ele><time>2026-03-02T06:58:56.000Z</time></trkpt>
<trkpt lat="42.176583" lon="23.374097"><ele>2247.1</ele><time>2026-03-02T06:58:57.000Z</time></trkpt>
<trkpt lat="42.176576" lon="23.3741"><ele>2247.1</ele><time>2026-03-02T06:58:58.000Z</time></trkpt>
<trkpt lat="42.176569" lon="23.374104"><ele>2247.1</ele><time>2026-03-02T06:58:59.000Z</time></trkpt>
<trkpt lat="42.176563" lon="23.374108"><ele>2247.3</ele><time>2026-03-02T06:59:00.000Z</time></trkpt>
<trkpt lat="42.176556" lon="23.374114"><ele>2247.3</ele><time>2026-03-02T06:59:01.000Z</time></trkpt>
<trkpt lat="42.176546" lon="23.37412"><ele>2247.3</ele><time>2026-03-02T06:59:02.000Z</time></trkpt>
<trkpt lat="42.176534" lon="23.374126"><ele>2247.3</ele><time>2026-03-02T06:59:03.000Z</time></trkpt>
<trkpt lat="42.176522" lon="23.374131"><ele>2247.3</ele><time>2026-03-02T06:59:04.000Z</time></trkpt>
<trkpt lat="42.17651" lon="23.374137"><ele>2247.6</ele><time>2026-03-02T06:59:05.000Z</time></trkpt>
<trkpt lat="42.1765" lon="23.37414"><ele>2247.6</ele><time>2026-03-02T06:59:06.000Z</time></trkpt>
<trkpt lat="42.176492" lon="23.374142"><ele>2247.6</ele><time>2026-03-02T06:59:07.000Z</time></trkpt>
<trkpt lat="42.176487" lon="23.374143"><ele>2247.6</ele><time>2026-03-02T06:59:08.000Z</time></trkpt>
<trkpt lat="42.176483" lon="23.374144"><ele>2247.6</ele><time>2026-03-02T06:59:09.000Z</time></trkpt>
<trkpt lat="42.176478" lon="23.374144"><ele>2247.7</ele><time>2026-03-02T06:59:10.000Z</time></trkpt>
<trkpt lat="42.176475" lon="23.374147"><ele>2247.7</ele><time>2026-03-02T06:59:11.000Z</time></trkpt>
<trkpt lat="42.176469" lon="23.37415"><ele>2247.7</ele><time>2026-03-02T06:59:12.000Z</time></trkpt>
<trkpt lat="42.176462" lon="23.374154"><ele>2247.7</ele><time>2026-03-02T06:59:13.000Z</time></trkpt>
<trkpt lat="42.176454" lon="23.374158"><ele>2247.7</ele><time>2026-03-02T06:59:14.000Z</time></trkpt>
<trkpt lat="42.176446" lon="23.374163"><ele>2247.9</ele><time>2026-03-02T06:59:15.000Z</time></trkpt>
<trkpt lat="42.176436" lon="23.37417"><ele>2247.9</ele><time>2026-03-02T06:59:16.000Z</time></trkpt>
<trkpt lat="42.176426" lon="23.374176"><ele>2247.9</ele><time>2026-03-02T06:59:17.000Z</time></trkpt>
<trkpt lat="42.176416" lon="23.374181"><ele>2247.9</ele><time>2026-03-02T06:59:18.000Z</time></trkpt>
<trkpt lat="42.176407" lon="23.374186"><ele>2247.9</ele><time>2026-03-02T06:59:19.000Z</time></trkpt>
<trkpt lat="42.176397" lon="23.374191"><ele>2248.2</ele><time>2026-03-02T06:59:20.000Z</time></trkpt>
<trkpt lat="42.176387" lon="23.374195"><ele>2248.2</ele><time>2026-03-02T06:59:21.000Z</time></trkpt>
<trkpt lat="42.176377" lon="23.374199"><ele>2248.2</ele><time>2026-03-02T06:59:22.000Z</time></trkpt>
<trkpt lat="42.176367" lon="23.374205"><ele>2248.2</ele><time>2026-03-02T06:59:23.000Z</time></trkpt>
<trkpt lat="42.176356" lon="23.374211"><ele>2248.2</ele><time>2026-03-02T06:59:24.000Z</time></trkpt>
<trkpt lat="42.176345" lon="23.374218"><ele>2248.4</ele><time>2026-03-02T06:59:25.000Z</time></trkpt>
<trkpt lat="42.176334" lon="23.374224"><ele>2248.4</ele><time>2026-03-02T06:59:26.000Z</time></trkpt>
<trkpt lat="42.176325" lon="23.374231"><ele>2248.4</ele><time>2026-03-02T06:59:27.000Z</time></trkpt>
<trkpt lat="42.176316" lon="23.374238"><ele>2248.4</ele><time>2026-03-02T06:59:28.000Z</time></trkpt>
<trkpt lat="42.176307" lon="23.374244"><ele>2248.4</ele><time>2026-03-02T06:59:29.000Z</time></trkpt>
<trkpt lat="42.176298" lon="23.37425"><ele>2248.7</ele><time>2026-03-02T06:59:30.000Z</time></trkpt>
<trkpt lat="42.176288" lon="23.374256"><ele>2248.7</ele><time>2026-03-02T06:59:31.000Z</time></trkpt>
<trkpt lat="42.176277" lon="23.374261"><ele>2248.7</ele><time>2026-03-02T06:59:32.000Z</time></trkpt>
<trkpt lat="42.176266" lon="23.374264"><ele>2248.7</ele><time>2026-03-02T06:59:33.000Z</time></trkpt>
<trkpt lat="42.176254" lon="23.374265"><ele>2248.7</ele><time>2026-03-02T06:59:34.000Z</time></trkpt>
<trkpt lat="42.176244" lon="23.374267"><ele>2249</ele><time>2026-03-02T06:59:35.000Z</time></trkpt>
<trkpt lat="42.176233" lon="23.374267"><ele>2249</ele><time>2026-03-02T06:59:36.000Z</time></trkpt>
<trkpt lat="42.176222" lon="23.374266"><ele>2249</ele><time>2026-03-02T06:59:37.000Z</time></trkpt>
<trkpt lat="42.176212" lon="23.374266"><ele>2249</ele><time>2026-03-02T06:59:38.000Z</time></trkpt>
<trkpt lat="42.176202" lon="23.374265"><ele>2249</ele><time>2026-03-02T06:59:39.000Z</time></trkpt>
<trkpt lat="42.176192" lon="23.374264"><ele>2249.2</ele><time>2026-03-02T06:59:40.000Z</time></trkpt>
<trkpt lat="42.176181" lon="23.374263"><ele>2249.2</ele><time>2026-03-02T06:59:41.000Z</time></trkpt>
<trkpt lat="42.17617" lon="23.374265"><ele>2249.2</ele><time>2026-03-02T06:59:42.000Z</time></trkpt>
<trkpt lat="42.17616" lon="23.37427"><ele>2249.2</ele><time>2026-03-02T06:59:43.000Z</time></trkpt>
<trkpt lat="42.17615" lon="23.374274"><ele>2249.2</ele><time>2026-03-02T06:59:44.000Z</time></trkpt>
<trkpt lat="42.176139" lon="23.374278"><ele>2249.7</ele><time>2026-03-02T06:59:45.000Z</time></trkpt>
<trkpt lat="42.176128" lon="23.374281"><ele>2249.7</ele><time>2026-03-02T06:59:46.000Z</time></trkpt>
<trkpt lat="42.176118" lon="23.374283"><ele>2249.7</ele><time>2026-03-02T06:59:47.000Z</time></trkpt>
<trkpt lat="42.176108" lon="23.374285"><ele>2249.7</ele><time>2026-03-02T06:59:48.000Z</time></trkpt>
<trkpt lat="42.176097" lon="23.374285"><ele>2249.7</ele><time>2026-03-02T06:59:49.000Z</time></trkpt>
<trkpt lat="42.176087" lon="23.374287"><ele>2250.3</ele><time>2026-03-02T06:59:50.000Z</time></trkpt>
<trkpt lat="42.176076" lon="23.374288"><ele>2250.3</ele><time>2026-03-02T06:59:51.000Z</time></trkpt>
<trkpt lat="42.176063" lon="23.374289"><ele>2250.3</ele><time>2026-03-02T06:59:52.000Z</time></trkpt>
<trkpt lat="42.17605" lon="23.374289"><ele>2250.3</ele><time>2026-03-02T06:59:53.000Z</time></trkpt>
<trkpt lat="42.176038" lon="23.374291"><ele>2250.3</ele><time>2026-03-02T06:59:54.000Z</time></trkpt>
<trkpt lat="42.176026" lon="23.374293"><ele>2250.6</ele><time>2026-03-02T06:59:55.000Z</time></trkpt>
<trkpt lat="42.176014" lon="23.374294"><ele>2250.6</ele><time>2026-03-02T06:59:56.000Z</time></trkpt>
<trkpt lat="42.176004" lon="23.374294"><ele>2250.6</ele><time>2026-03-02T06:59:57.000Z</time></trkpt>
<trkpt lat="42.175994" lon="23.374294"><ele>2250.6</ele><time>2026-03-02T06:59:58.000Z</time></trkpt>
<trkpt lat="42.175983" lon="23.374292"><ele>2250.6</ele><time>2026-03-02T06:59:59.000Z</time></trkpt>
<trkpt lat="42.175972" lon="23.374289"><ele>2251.3</ele><time>2026-03-02T07:00:00.000Z</time></trkpt>
<trkpt lat="42.175962" lon="23.374287"><ele>2251.3</ele><time>2026-03-02T07:00:01.000Z</time></trkpt>
<trkpt lat="42.175951" lon="23.374287"><ele>2251.3</ele><time>2026-03-02T07:00:02.000Z</time></trkpt>
<trkpt lat="42.175941" lon="23.374287"><ele>2251.3</ele><time>2026-03-02T07:00:03.000Z</time></trkpt>
<trkpt lat="42.17593" lon="23.374288"><ele>2251.3</ele><time>2026-03-02T07:00:04.000Z</time></trkpt>
<trkpt lat="42.175918" lon="23.37429"><ele>2252</ele><time>2026-03-02T07:00:05.000Z</time></trkpt>
<trkpt lat="42.175907" lon="23.374292"><ele>2252</ele><time>2026-03-02T07:00:06.000Z</time></trkpt>
<trkpt lat="42.175896" lon="23.374295"><ele>2252</ele><time>2026-03-02T07:00:07.000Z</time></trkpt>
<trkpt lat="42.175884" lon="23.374298"><ele>2252</ele><time>2026-03-02T07:00:08.000Z</time></trkpt>
<trkpt lat="42.175872" lon="23.3743"><ele>2252</ele><time>2026-03-02T07:00:09.000Z</time></trkpt>
<trkpt lat="42.175861" lon="23.374304"><ele>2252.4</ele><time>2026-03-02T07:00:10.000Z</time></trkpt>
<trkpt lat="42.175849" lon="23.374307"><ele>2252.4</ele><time>2026-03-02T07:00:11.000Z</time></trkpt>
<trkpt lat="42.175837" lon="23.374308"><ele>2252.4</ele><time>2026-03-02T07:00:12.000Z</time></trkpt>
<trkpt lat="42.175826" lon="23.374311"><ele>2252.4</ele><time>2026-03-02T07:00:13.000Z</time></trkpt>
<trkpt lat="42.175815" lon="23.374314"><ele>2252.4</ele><time>2026-03-02T07:00:14.000Z</time></trkpt>
<trkpt lat="42.175804" lon="23.374317"><ele>2253.4</ele><time>2026-03-02T07:00:15.000Z</time></trkpt>
<trkpt lat="42.175792" lon="23.37432"><ele>2253.4</ele><time>2026-03-02T07:00:16.000Z</time></trkpt>
<trkpt lat="42.175782" lon="23.374324"><ele>2253.4</ele><time>2026-03-02T07:00:17.000Z</time></trkpt>
<trkpt lat="42.175772" lon="23.374327"><ele>2253.4</ele><time>2026-03-02T07:00:18.000Z</time></trkpt>
<trkpt lat="42.175763" lon="23.37433"><ele>2253.4</ele><time>2026-03-02T07:00:19.000Z</time></trkpt>
<trkpt lat="42.175754" lon="23.374333"><ele>2254.3</ele><time>2026-03-02T07:00:20.000Z</time></trkpt>
<trkpt lat="42.175746" lon="23.374337"><ele>2254.3</ele><time>2026-03-02T07:00:21.000Z</time></trkpt>
<trkpt lat="42.175737" lon="23.374341"><ele>2254.3</ele><time>2026-03-02T07:00:22.000Z</time></trkpt>
<trkpt lat="42.175727" lon="23.374346"><ele>2254.3</ele><time>2026-03-02T07:00:23.000Z</time></trkpt>
<trkpt lat="42.175719" lon="23.37435"><ele>2254.3</ele><time>2026-03-02T07:00:24.000Z</time></trkpt>
<trkpt lat="42.175712" lon="23.374353"><ele>2254.7</ele><time>2026-03-02T07:00:25.000Z</time></trkpt>
<trkpt lat="42.175704" lon="23.374357"><ele>2254.7</ele><time>2026-03-02T07:00:26.000Z</time></trkpt>
<trkpt lat="42.175697" lon="23.37436"><ele>2254.7</ele><time>2026-03-02T07:00:27.000Z</time></trkpt>
<trkpt lat="42.175689" lon="23.374363"><ele>2254.7</ele><time>2026-03-02T07:00:28.000Z</time></trkpt>
<trkpt lat="42.175679" lon="23.374368"><ele>2254.7</ele><time>2026-03-02T07:00:29.000Z</time></trkpt>
<trkpt lat="42.175668" lon="23.374373"><ele>2255.2</ele><time>2026-03-02T07:00:30.000Z</time></trkpt>
<trkpt lat="42.175657" lon="23.374377"><ele>2255.2</ele><time>2026-03-02T07:00:31.000Z</time></trkpt>
<trkpt lat="42.175646" lon="23.374381"><ele>2255.2</ele><time>2026-03-02T07:00:32.000Z</time></trkpt>
<trkpt lat="42.175636" lon="23.374385"><ele>2255.2</ele><time>2026-03-02T07:00:33.000Z</time></trkpt>
<trkpt lat="42.175626" lon="23.374388"><ele>2255.2</ele><time>2026-03-02T07:00:34.000Z</time></trkpt>
<trkpt lat="42.175616" lon="23.374391"><ele>2255.5</ele><time>2026-03-02T07:00:35.000Z</time></trkpt>
<trkpt lat="42.175606" lon="23.374395"><ele>2255.5</ele><time>2026-03-02T07:00:36.000Z</time></trkpt>
<trkpt lat="42.175596" lon="23.3744"><ele>2255.5</ele><time>2026-03-02T07:00:37.000Z</time></trkpt>
<trkpt lat="42.175586" lon="23.374404"><ele>2255.5</ele><time>2026-03-02T07:00:38.000Z</time></trkpt>
<trkpt lat="42.175575" lon="23.374408"><ele>2255.5</ele><time>2026-03-02T07:00:39.000Z</time></trkpt>
<trkpt lat="42.175565" lon="23.374413"><ele>2255.6</ele><time>2026-03-02T07:00:40.000Z</time></trkpt>
<trkpt lat="42.175555" lon="23.374418"><ele>2255.6</ele><time>2026-03-02T07:00:41.000Z</time></trkpt>
<trkpt lat="42.175545" lon="23.374423"><ele>2255.6</ele><time>2026-03-02T07:00:42.000Z</time></trkpt>
<trkpt lat="42.175535" lon="23.374431"><ele>2255.6</ele><time>2026-03-02T07:00:43.000Z</time></trkpt>
<trkpt lat="42.175523" lon="23.374439"><ele>2255.6</ele><time>2026-03-02T07:00:44.000Z</time></trkpt>
<trkpt lat="42.175512" lon="23.374448"><ele>2255.8</ele><time>2026-03-02T07:00:45.000Z</time></trkpt>
<trkpt lat="42.175499" lon="23.374458"><ele>2255.8</ele><time>2026-03-02T07:00:46.000Z</time></trkpt>
<trkpt lat="42.175487" lon="23.374467"><ele>2255.8</ele><time>2026-03-02T07:00:47.000Z</time></trkpt>
<trkpt lat="42.175475" lon="23.374474"><ele>2255.8</ele><time>2026-03-02T07:00:48.000Z</time></trkpt>
<trkpt lat="42.175463" lon="23.374482"><ele>2255.8</ele><time>2026-03-02T07:00:49.000Z</time></trkpt>
<trkpt lat="42.175452" lon="23.374489"><ele>2256</ele><time>2026-03-02T07:00:50.000Z</time></trkpt>
<trkpt lat="42.17544" lon="23.374495"><ele>2256</ele><time>2026-03-02T07:00:51.000Z</time></trkpt>
<trkpt lat="42.175428" lon="23.374503"><ele>2256</ele><time>2026-03-02T07:00:52.000Z</time></trkpt>
<trkpt lat="42.175416" lon="23.374511"><ele>2256</ele><time>2026-03-02T07:00:53.000Z</time></trkpt>
<trkpt lat="42.175403" lon="23.374519"><ele>2256</ele><time>2026-03-02T07:00:54.000Z</time></trkpt>
<trkpt lat="42.175389" lon="23.374528"><ele>2256.1</ele><time>2026-03-02T07:00:55.000Z</time></trkpt>
<trkpt lat="42.175375" lon="23.374537"><ele>2256.1</ele><time>2026-03-02T07:00:56.000Z</time></trkpt>
<trkpt lat="42.17536" lon="23.374547"><ele>2256.1</ele><time>2026-03-02T07:00:57.000Z</time></trkpt>
<trkpt lat="42.175345" lon="23.374554"><ele>2256.1</ele><time>2026-03-02T07:00:58.000Z</time></trkpt>
<trkpt lat="42.17533" lon="23.37456"><ele>2256.1</ele><time>2026-03-02T07:00:59.000Z</time></trkpt>
<trkpt lat="42.175316" lon="23.374565"><ele>2256.1</ele><time>2026-03-02T07:01:00.000Z</time></trkpt>
<trkpt lat="42.175304" lon="23.37457"><ele>2256.1</ele><time>2026-03-02T07:01:01.000Z</time></trkpt>
<trkpt lat="42.175293" lon="23.374575"><ele>2256.1</ele><time>2026-03-02T07:01:02.000Z</time></trkpt>
<trkpt lat="42.175283" lon="23.37458"><ele>2256.1</ele><time>2026-03-02T07:01:03.000Z</time></trkpt>
<trkpt lat="42.175272" lon="23.374586"><ele>2256.1</ele><time>2026-03-02T07:01:04.000Z</time></trkpt>
<trkpt lat="42.175261" lon="23.374592"><ele>2255.9</ele><time>2026-03-02T07:01:05.000Z</time></trkpt>
<trkpt lat="42.175251" lon="23.374598"><ele>2255.9</ele><time>2026-03-02T07:01:06.000Z</time></trkpt>
<trkpt lat="42.17524" lon="23.374604"><ele>2255.9</ele><time>2026-03-02T07:01:07.000Z</time></trkpt>
<trkpt lat="42.17523" lon="23.374609"><ele>2255.9</ele><time>2026-03-02T07:01:08.000Z</time></trkpt>
<trkpt lat="42.175221" lon="23.374615"><ele>2255.9</ele><time>2026-03-02T07:01:09.000Z</time></trkpt>
<trkpt lat="42.175211" lon="23.374622"><ele>2255.8</ele><time>2026-03-02T07:01:10.000Z</time></trkpt>
<trkpt lat="42.1752" lon="23.374631"><ele>2255.8</ele><time>2026-03-02T07:01:11.000Z</time></trkpt>
<trkpt lat="42.175189" lon="23.374639"><ele>2255.8</ele><time>2026-03-02T07:01:12.000Z</time></trkpt>
<trkpt lat="42.175178" lon="23.374648"><ele>2255.8</ele><time>2026-03-02T07:01:13.000Z</time></trkpt>
<trkpt lat="42.175168" lon="23.374657"><ele>2255.8</ele><time>2026-03-02T07:01:14.000Z</time></trkpt>
<trkpt lat="42.175157" lon="23.374664"><ele>2256</ele><time>2026-03-02T07:01:15.000Z</time></trkpt>
<trkpt lat="42.175146" lon="23.374672"><ele>2256</ele><time>2026-03-02T07:01:16.000Z</time></trkpt>
<trkpt lat="42.175134" lon="23.374677"><ele>2256</ele><time>2026-03-02T07:01:17.000Z</time></trkpt>
<trkpt lat="42.175123" lon="23.374682"><ele>2256</ele><time>2026-03-02T07:01:18.000Z</time></trkpt>
<trkpt lat="42.175111" lon="23.374688"><ele>2256</ele><time>2026-03-02T07:01:19.000Z</time></trkpt>
<trkpt lat="42.1751" lon="23.374694"><ele>2256.5</ele><time>2026-03-02T07:01:20.000Z</time></trkpt>
<trkpt lat="42.175091" lon="23.374699"><ele>2256.5</ele><time>2026-03-02T07:01:21.000Z</time></trkpt>
<trkpt lat="42.175082" lon="23.374704"><ele>2256.5</ele><time>2026-03-02T07:01:22.000Z</time></trkpt>
<trkpt lat="42.175072" lon="23.37471"><ele>2256.5</ele><time>2026-03-02T07:01:23.000Z</time></trkpt>
<trkpt lat="42.175063" lon="23.374715"><ele>2256.5</ele><time>2026-03-02T07:01:24.000Z</time></trkpt>
<trkpt lat="42.175054" lon="23.37472"><ele>2256.9</ele><time>2026-03-02T07:01:25.000Z</time></trkpt>
<trkpt lat="42.175046" lon="23.374727"><ele>2256.9</ele><time>2026-03-02T07:01:26.000Z</time></trkpt>
<trkpt lat="42.175037" lon="23.374734"><ele>2256.9</ele><time>2026-03-02T07:01:27.000Z</time></trkpt>
<trkpt lat="42.175028" lon="23.37474"><ele>2256.9</ele><time>2026-03-02T07:01:28.000Z</time></trkpt>
<trkpt lat="42.175019" lon="23.374747"><ele>2256.9</ele><time>2026-03-02T07:01:29.000Z</time></trkpt>
<trkpt lat="42.175009" lon="23.374753"><ele>2257.6</ele><time>2026-03-02T07:01:30.000Z</time></trkpt>
<trkpt lat="42.174999" lon="23.374759"><ele>2257.6</ele><time>2026-03-02T07:01:31.000Z</time></trkpt>
<trkpt lat="42.174989" lon="23.374765"><ele>2257.6</ele><time>2026-03-02T07:01:32.000Z</time></trkpt>
<trkpt lat="42.17498" lon="23.374772"><ele>2257.6</ele><time>2026-03-02T07:01:33.000Z</time></trkpt>
<trkpt lat="42.174971" lon="23.374779"><ele>2257.6</ele><time>2026-03-02T07:01:34.000Z</time></trkpt>
<trkpt lat="42.174963" lon="23.374786"><ele>2258.3</ele><time>2026-03-02T07:01:35.000Z</time></trkpt>
<trkpt lat="42.174953" lon="23.374793"><ele>2258.3</ele><time>2026-03-02T07:01:36.000Z</time></trkpt>
<trkpt lat="42.174944" lon="23.3748"><ele>2258.3</ele><time>2026-03-02T07:01:37.000Z</time></trkpt>
<trkpt lat="42.174934" lon="23.374806"><ele>2258.3</ele><time>2026-03-02T07:01:38.000Z</time></trkpt>
<trkpt lat="42.174926" lon="23.374812"><ele>2258.3</ele><time>2026-03-02T07:01:39.000Z</time></trkpt>
<trkpt lat="42.174919" lon="23.374816"><ele>2258.7</ele><time>2026-03-02T07:01:40.000Z</time></trkpt>
<trkpt lat="42.174915" lon="23.37482"><ele>2258.7</ele><time>2026-03-02T07:01:41.000Z</time></trkpt>
<trkpt lat="42.174912" lon="23.374823"><ele>2258.7</ele><time>2026-03-02T07:01:42.000Z</time></trkpt>
<trkpt lat="42.174911" lon="23.374827"><ele>2258.7</ele><time>2026-03-02T07:01:43.000Z</time></trkpt>
<trkpt lat="42.174911" lon="23.374831"><ele>2258.7</ele><time>2026-03-02T07:01:44.000Z</time></trkpt>
<trkpt lat="42.174908" lon="23.374836"><ele>2259.4</ele><time>2026-03-02T07:01:45.000Z</time></trkpt>
<trkpt lat="42.174902" lon="23.374841"><ele>2259.4</ele><time>2026-03-02T07:01:46.000Z</time></trkpt>
<trkpt lat="42.174895" lon="23.374845"><ele>2259.4</ele><time>2026-03-02T07:01:47.000Z</time></trkpt>
<trkpt lat="42.174887" lon="23.374849"><ele>2259.4</ele><time>2026-03-02T07:01:48.000Z</time></trkpt>
<trkpt lat="42.174878" lon="23.374854"><ele>2259.4</ele><time>2026-03-02T07:01:49.000Z</time></trkpt>
<trkpt lat="42.174871" lon="23.374858"><ele>2260.3</ele><time>2026-03-02T07:01:50.000Z</time></trkpt>
<trkpt lat="42.174864" lon="23.374865"><ele>2260.3</ele><time>2026-03-02T07:01:51.000Z</time></trkpt>
<trkpt lat="42.174855" lon="23.374872"><ele>2260.3</ele><time>2026-03-02T07:01:52.000Z</time></trkpt>
<trkpt lat="42.174847" lon="23.374879"><ele>2260.3</ele><time>2026-03-02T07:01:53.000Z</time></trkpt>
<trkpt lat="42.174839" lon="23.374887"><ele>2260.3</ele><time>2026-03-02T07:01:54.000Z</time></trkpt>
<trkpt lat="42.174832" lon="23.374896"><ele>2260.7</ele><time>2026-03-02T07:01:55.000Z</time></trkpt>
<trkpt lat="42.174823" lon="23.374906"><ele>2260.7</ele><time>2026-03-02T07:01:56.000Z</time></trkpt>
<trkpt lat="42.174815" lon="23.374916"><ele>2260.7</ele><time>2026-03-02T07:01:57.000Z</time></trkpt>
<trkpt lat="42.174806" lon="23.374926"><ele>2260.7</ele><time>2026-03-02T07:01:58.000Z</time></trkpt>
<trkpt lat="42.174797" lon="23.374935"><ele>2260.7</ele><time>2026-03-02T07:01:59.000Z</time></trkpt>
<trkpt lat="42.174786" lon="23.374944"><ele>2261.4</ele><time>2026-03-02T07:02:00.000Z</time></trkpt>
<trkpt lat="42.174777" lon="23.374951"><ele>2261.4</ele><time>2026-03-02T07:02:01.000Z</time></trkpt>
<trkpt lat="42.174768" lon="23.374957"><ele>2261.4</ele><time>2026-03-02T07:02:02.000Z</time></trkpt>
<trkpt lat="42.174759" lon="23.374962"><ele>2261.4</ele><time>2026-03-02T07:02:03.000Z</time></trkpt>
<trkpt lat="42.17475" lon="23.374967"><ele>2261.4</ele><time>2026-03-02T07:02:04.000Z</time></trkpt>
<trkpt lat="42.174741" lon="23.374972"><ele>2262</ele><time>2026-03-02T07:02:05.000Z</time></trkpt>
<trkpt lat="42.174732" lon="23.374977"><ele>2262</ele><time>2026-03-02T07:02:06.000Z</time></trkpt>
<trkpt lat="42.174723" lon="23.374983"><ele>2262</ele><time>2026-03-02T07:02:07.000Z</time></trkpt>
<trkpt lat="42.174715" lon="23.374987"><ele>2262</ele><time>2026-03-02T07:02:08.000Z</time></trkpt>
<trkpt lat="42.174709" lon="23.37499"><ele>2262</ele><time>2026-03-02T07:02:09.000Z</time></trkpt>
<trkpt lat="42.174703" lon="23.374993"><ele>2262.5</ele><time>2026-03-02T07:02:10.000Z</time></trkpt>
<trkpt lat="42.174697" lon="23.374997"><ele>2262.5</ele><time>2026-03-02T07:02:11.000Z</time></trkpt>
<trkpt lat="42.174691" lon="23.375002"><ele>2262.5</ele><time>2026-03-02T07:02:12.000Z</time></trkpt>
<trkpt lat="42.174684" lon="23.375009"><ele>2262.5</ele><time>2026-03-02T07:02:13.000Z</time></trkpt>
<trkpt lat="42.174675" lon="23.375016"><ele>2262.5</ele><time>2026-03-02T07:02:14.000Z</time></trkpt>
<trkpt lat="42.174666" lon="23.375023"><ele>2263.6</ele><time>2026-03-02T07:02:15.000Z</time></trkpt>
<trkpt lat="42.174659" lon="23.37503"><ele>2263.6</ele><time>2026-03-02T07:02:16.000Z</time></trkpt>
<trkpt lat="42.174651" lon="23.375036"><ele>2263.6</ele><time>2026-03-02T07:02:17.000Z</time></trkpt>
<trkpt lat="42.174643" lon="23.375042"><ele>2263.6</ele><time>2026-03-02T07:02:18.000Z</time></trkpt>
<trkpt lat="42.174635" lon="23.375047"><ele>2263.6</ele><time>2026-03-02T07:02:19.000Z</time></trkpt>
<trkpt lat="42.174628" lon="23.375051"><ele>2264.8</ele><time>2026-03-02T07:02:20.000Z</time></trkpt>
<trkpt lat="42.174618" lon="23.375055"><ele>2264.8</ele><time>2026-03-02T07:02:21.000Z</time></trkpt>
<trkpt lat="42.17461" lon="23.37506"><ele>2264.8</ele><time>2026-03-02T07:02:22.000Z</time></trkpt>
<trkpt lat="42.174603" lon="23.375065"><ele>2264.8</ele><time>2026-03-02T07:02:23.000Z</time></trkpt>
<trkpt lat="42.174595" lon="23.375072"><ele>2264.8</ele><time>2026-03-02T07:02:24.000Z</time></trkpt>
<trkpt lat="42.174587" lon="23.375078"><ele>2265.3</ele><time>2026-03-02T07:02:25.000Z</time></trkpt>
<trkpt lat="42.17458" lon="23.375086"><ele>2265.3</ele><time>2026-03-02T07:02:26.000Z</time></trkpt>
<trkpt lat="42.174572" lon="23.375093"><ele>2265.3</ele><time>2026-03-02T07:02:27.000Z</time></trkpt>
<trkpt lat="42.174565" lon="23.375099"><ele>2265.3</ele><time>2026-03-02T07:02:28.000Z</time></trkpt>
<trkpt lat="42.174561" lon="23.375104"><ele>2265.3</ele><time>2026-03-02T07:02:29.000Z</time></trkpt>
<trkpt lat="42.174556" lon="23.375107"><ele>2266.3</ele><time>2026-03-02T07:02:30.000Z</time></trkpt>
<trkpt lat="42.174553" lon="23.375107"><ele>2266.3</ele><time>2026-03-02T07:02:31.000Z</time></trkpt>
<trkpt lat="42.174551" lon="23.375107"><ele>2266.3</ele><time>2026-03-02T07:02:32.000Z</time></trkpt>
<trkpt lat="42.17455" lon="23.375106"><ele>2266.3</ele><time>2026-03-02T07:02:33.000Z</time></trkpt>
<trkpt lat="42.174548" lon="23.375105"><ele>2266.3</ele><time>2026-03-02T07:02:34.000Z</time></trkpt>
<trkpt lat="42.174548" lon="23.375106"><ele>2267.3</ele><time>2026-03-02T07:02:35.000Z</time></trkpt>
<trkpt lat="42.174547" lon="23.375106"><ele>2267.3</ele><time>2026-03-02T07:02:36.000Z</time></trkpt>
<trkpt lat="42.174547" lon="23.375107"><ele>2267.3</ele><time>2026-03-02T07:02:37.000Z</time></trkpt>
<trkpt lat="42.174547" lon="23.375107"><ele>2267.3</ele><time>2026-03-02T07:02:38.000Z</time></trkpt>
<trkpt lat="42.174547" lon="23.375108"><ele>2267.3</ele><time>2026-03-02T07:02:39.000Z</time></trkpt>
<trkpt lat="42.174548" lon="23.375108"><ele>2267.8</ele><time>2026-03-02T07:02:40.000Z</time></trkpt>
<trkpt lat="42.174548" lon="23.375108"><ele>2267.8</ele><time>2026-03-02T07:02:41.000Z</time></trkpt>
<trkpt lat="42.174548" lon="23.37511"><ele>2267.8</ele><time>2026-03-02T07:02:42.000Z</time></trkpt>
<trkpt lat="42.174548" lon="23.375112"><ele>2267.8</ele><time>2026-03-02T07:02:43.000Z</time></trkpt>
<trkpt lat="42.174548" lon="23.375113"><ele>2267.8</ele><time>2026-03-02T07:02:44.000Z</time></trkpt>
<trkpt lat="42.174549" lon="23.375118"><ele>2268.3</ele><time>2026-03-02T07:02:45.000Z</time></trkpt>
<trkpt lat="42.174551" lon="23.375124"><ele>2268.3</ele><time>2026-03-02T07:02:46.000Z</time></trkpt>
<trkpt lat="42.174552" lon="23.375129"><ele>2268.3</ele><time>2026-03-02T07:02:47.000Z</time></trkpt>
<trkpt lat="42.174553" lon="23.375134"><ele>2268.3</ele><time>2026-03-02T07:02:48.000Z</time></trkpt>
<trkpt lat="42.174553" lon="23.375139"><ele>2268.3</ele><time>2026-03-02T07:02:49.000Z</time></trkpt>
<trkpt lat="42.174553" lon="23.375141"><ele>2268.6</ele><time>2026-03-02T07:02:50.000Z</time></trkpt>
<trkpt lat="42.174551" lon="23.375144"><ele>2268.6</ele><time>2026-03-02T07:02:51.000Z</time></trkpt>
<trkpt lat="42.174549" lon="23.375146"><ele>2268.6</ele><time>2026-03-02T07:02:52.000Z</time></trkpt>
<trkpt lat="42.174546" lon="23.375148"><ele>2268.6</ele><time>2026-03-02T07:02:53.000Z</time></trkpt>
<trkpt lat="42.174544" lon="23.37515"><ele>2268.6</ele><time>2026-03-02T07:02:54.000Z</time></trkpt>
<trkpt lat="42.174542" lon="23.375151"><ele>2268.7</ele><time>2026-03-02T07:02:55.000Z</time></trkpt>
<trkpt lat="42.17454" lon="23.37515"><ele>2268.7</ele><time>2026-03-02T07:02:56.000Z</time></trkpt>
<trkpt lat="42.17454" lon="23.37515"><ele>2268.7</ele><time>2026-03-02T07:02:57.000Z</time></trkpt>
<trkpt lat="42.17454" lon="23.375149"><ele>2268.7</ele><time>2026-03-02T07:02:58.000Z</time></trkpt>
<trkpt lat="42.17454" lon="23.375148"><ele>2268.7</ele><time>2026-03-02T07:02:59.000Z</time></trkpt>
<trkpt lat="42.17454" lon="23.375148"><ele>2268.9</ele><time>2026-03-02T07:03:00.000Z</time></trkpt>
<trkpt lat="42.174539" lon="23.375147"><ele>2268.9</ele><time>2026-03-02T07:03:01.000Z</time></trkpt>
<trkpt lat="42.174539" lon="23.375148"><ele>2268.9</ele><time>2026-03-02T07:03:02.000Z</time></trkpt>
<trkpt lat="42.174538" lon="23.375149"><ele>2268.9</ele><time>2026-03-02T07:03:03.000Z</time></trkpt>
<trkpt lat="42.174537" lon="23.37515"><ele>2268.9</ele><time>2026-03-02T07:03:04.000Z</time></trkpt>
<trkpt lat="42.174536" lon="23.375152"><ele>2268.7</ele><time>2026-03-02T07:03:05.000Z</time></trkpt>
<trkpt lat="42.174535" lon="23.375152"><ele>2268.7</ele><time>2026-03-02T07:03:06.000Z</time></trkpt>
<trkpt lat="42.174534" lon="23.375152"><ele>2268.7</ele><time>2026-03-02T07:03:07.000Z</time></trkpt>
<trkpt lat="42.174533" lon="23.375153"><ele>2268.7</ele><time>2026-03-02T07:03:08.000Z</time></trkpt>
<trkpt lat="42.174531" lon="23.375153"><ele>2268.7</ele><time>2026-03-02T07:03:09.000Z</time></trkpt>
<trkpt lat="42.17453" lon="23.375152"><ele>2268.4</ele><time>2026-03-02T07:03:10.000Z</time></trkpt>
<trkpt lat="42.174529" lon="23.375152"><ele>2268.4</ele><time>2026-03-02T07:03:11.000Z</time></trkpt>
<trkpt lat="42.174528" lon="23.375152"><ele>2268.4</ele><time>2026-03-02T07:03:12.000Z</time></trkpt>
<trkpt lat="42.174528" lon="23.375151"><ele>2268.4</ele><time>2026-03-02T07:03:13.000Z</time></trkpt>
<trkpt lat="42.174528" lon="23.37515"><ele>2268.4</ele><time>2026-03-02T07:03:14.000Z</time></trkpt>
<trkpt lat="42.174528" lon="23.37515"><ele>2268</ele><time>2026-03-02T07:03:15.000Z</time></trkpt>
<trkpt lat="42.174528" lon="23.375151"><ele>2268</ele><time>2026-03-02T07:03:16.000Z</time></trkpt>
<trkpt lat="42.174527" lon="23.375152"><ele>2268</ele><time>2026-03-02T07:03:17.000Z</time></trkpt>
<trkpt lat="42.174526" lon="23.375154"><ele>2268</ele><time>2026-03-02T07:03:18.000Z</time></trkpt>
<trkpt lat="42.174526" lon="23.375156"><ele>2268</ele><time>2026-03-02T07:03:19.000Z</time></trkpt>
<trkpt lat="42.174525" lon="23.375157"><ele>2267.7</ele><time>2026-03-02T07:03:20.000Z</time></trkpt>
<trkpt lat="42.174525" lon="23.375159"><ele>2267.7</ele><time>2026-03-02T07:03:21.000Z</time></trkpt>
<trkpt lat="42.174525" lon="23.375161"><ele>2267.7</ele><time>2026-03-02T07:03:22.000Z</time></trkpt>
<trkpt lat="42.174525" lon="23.375161"><ele>2267.7</ele><time>2026-03-02T07:03:23.000Z</time></trkpt>
<trkpt lat="42.174525" lon="23.375162"><ele>2267.7</ele><time>2026-03-02T07:03:24.000Z</time></trkpt>
<trkpt lat="42.174525" lon="23.375162"><ele>2267.7</ele><time>2026-03-02T07:03:25.000Z</time></trkpt>
<trkpt lat="42.174525" lon="23.375161"><ele>2267.7</ele><time>2026-03-02T07:03:26.000Z</time></trkpt>
<trkpt lat="42.174525" lon="23.375161"><ele>2267.7</ele><time>2026-03-02T07:03:27.000Z</time></trkpt>
<trkpt lat="42.174525" lon="23.375161"><ele>2267.7</ele><time>2026-03-02T07:03:28.000Z</time></trkpt>
<trkpt lat="42.174524" lon="23.375161"><ele>2267.7</ele><time>2026-03-02T07:03:29.000Z</time></trkpt>
<trkpt lat="42.174524" lon="23.37516"><ele>2267.8</ele><time>2026-03-02T07:03:30.000Z</time></trkpt>
<trkpt lat="42.174524" lon="23.37516"><ele>2267.8</ele><time>2026-03-02T07:03:31.000Z</time></trkpt>
<trkpt lat="42.174524" lon="23.37516"><ele>2267.8</ele><time>2026-03-02T07:03:32.000Z</time></trkpt>
<trkpt lat="42.174524" lon="23.37516"><ele>2267.8</ele><time>2026-03-02T07:03:33.000Z</time></trkpt>
<trkpt lat="42.174524" lon="23.37516"><ele>2267.8</ele><time>2026-03-02T07:03:34.000Z</time></trkpt>
<trkpt lat="42.174524" lon="23.375159"><ele>2268</ele><time>2026-03-02T07:03:35.000Z</time></trkpt>
<trkpt lat="42.174524" lon="23.375159"><ele>2268</ele><time>2026-03-02T07:03:36.000Z</time></trkpt>
<trkpt lat="42.174524" lon="23.375158"><ele>2268</ele><time>2026-03-02T07:03:37.000Z</time></trkpt>
<trkpt lat="42.174523" lon="23.375158"><ele>2268</ele><time>2026-03-02T07:03:38.000Z</time></trkpt>
<trkpt lat="42.174522" lon="23.375159"><ele>2268</ele><time>2026-03-02T07:03:39.000Z</time></trkpt>
<trkpt lat="42.174521" lon="23.37516"><ele>2268</ele><time>2026-03-02T07:03:40.000Z</time></trkpt>
<trkpt lat="42.174522" lon="23.375161"><ele>2268</ele><time>2026-03-02T07:03:41.000Z</time></trkpt>
<trkpt lat="42.174522" lon="23.375163"><ele>2268</ele><time>2026-03-02T07:03:42.000Z</time></trkpt>
<trkpt lat="42.174524" lon="23.375165"><ele>2268</ele><time>2026-03-02T07:03:43.000Z</time></trkpt>
<trkpt lat="42.174525" lon="23.375167"><ele>2268</ele><time>2026-03-02T07:03:44.000Z</time></trkpt>
<trkpt lat="42.174526" lon="23.375168"><ele>2267.8</ele><time>2026-03-02T07:03:45.000Z</time></trkpt>
<trkpt lat="42.174527" lon="23.37517"><ele>2267.8</ele><time>2026-03-02T07:03:46.000Z</time></trkpt>
<trkpt lat="42.174527" lon="23.375171"><ele>2267.8</ele><time>2026-03-02T07:03:47.000Z</time></trkpt>
<trkpt lat="42.174527" lon="23.375171"><ele>2267.8</ele><time>2026-03-02T07:03:48.000Z</time></trkpt>
<trkpt lat="42.174528" lon="23.37517"><ele>2267.8</ele><time>2026-03-02T07:03:49.000Z</time></trkpt>
<trkpt lat="42.174529" lon="23.375168"><ele>2267.6</ele><time>2026-03-02T07:03:50.000Z</time></trkpt>
<trkpt lat="42.17453" lon="23.375168"><ele>2267.6</ele><time>2026-03-02T07:03:51.000Z</time></trkpt>
<trkpt lat="42.174532" lon="23.375167"><ele>2267.6</ele><time>2026-03-02T07:03:52.000Z</time></trkpt>
<trkpt lat="42.174534" lon="23.375168"><ele>2267.6</ele><time>2026-03-02T07:03:53.000Z</time></trkpt>
<trkpt lat="42.174536" lon="23.375169"><ele>2267.6</ele><time>2026-03-02T07:03:54.000Z</time></trkpt>
<trkpt lat="42.174537" lon="23.375171"><ele>2267.7</ele><time>2026-03-02T07:03:55.000Z</time></trkpt>
<trkpt lat="42.174538" lon="23.375173"><ele>2267.7</ele><time>2026-03-02T07:03:56.000Z</time></trkpt>
<trkpt lat="42.174538" lon="23.375174"><ele>2267.7</ele><time>2026-03-02T07:03:57.000Z</time></trkpt>
<trkpt lat="42.174537" lon="23.375174"><ele>2267.7</ele><time>2026-03-02T07:03:58.000Z</time></trkpt>
<trkpt lat="42.174537" lon="23.375174"><ele>2267.7</ele><time>2026-03-02T07:03:59.000Z</time></trkpt>
<trkpt lat="42.174537" lon="23.375173"><ele>2267.8</ele><time>2026-03-02T07:04:00.000Z</time></trkpt>
<trkpt lat="42.174538" lon="23.375173"><ele>2267.8</ele><time>2026-03-02T07:04:01.000Z</time></trkpt>
<trkpt lat="42.174539" lon="23.375172"><ele>2267.8</ele><time>2026-03-02T07:04:02.000Z</time></trkpt>
<trkpt lat="42.17454" lon="23.375172"><ele>2267.8</ele><time>2026-03-02T07:04:03.000Z</time></trkpt>
<trkpt lat="42.17454" lon="23.375171"><ele>2267.8</ele><time>2026-03-02T07:04:04.000Z</time></trkpt>
<trkpt lat="42.17454" lon="23.375171"><ele>2267.9</ele><time>2026-03-02T07:04:05.000Z</time></trkpt>
<trkpt lat="42.17454" lon="23.37517"><ele>2267.9</ele><time>2026-03-02T07:04:06.000Z</time></trkpt>
<trkpt lat="42.17454" lon="23.37517"><ele>2267.9</ele><time>2026-03-02T07:04:07.000Z</time></trkpt>
<trkpt lat="42.174539" lon="23.37517"><ele>2267.9</ele><time>2026-03-02T07:04:08.000Z</time></trkpt>
<trkpt lat="42.174539" lon="23.375171"><ele>2267.9</ele><time>2026-03-02T07:04:09.000Z</time></trkpt>
<trkpt lat="42.174538" lon="23.375172"><ele>2267.8</ele><time>2026-03-02T07:04:10.000Z</time></trkpt>
<trkpt lat="42.174538" lon="23.375173"><ele>2267.8</ele><time>2026-03-02T07:04:11.000Z</time></trkpt>
<trkpt lat="42.174537" lon="23.375174"><ele>2267.8</ele><time>2026-03-02T07:04:12.000Z</time></trkpt>
<trkpt lat="42.174537" lon="23.375175"><ele>2267.8</ele><time>2026-03-02T07:04:13.000Z</time></trkpt>
<trkpt lat="42.174537" lon="23.375177"><ele>2267.8</ele><time>2026-03-02T07:04:14.000Z</time></trkpt>
<trkpt lat="42.174537" lon="23.375179"><ele>2267.6</ele><time>2026-03-02T07:04:15.000Z</time></trkpt>
<trkpt lat="42.174537" lon="23.375181"><ele>2267.6</ele><time>2026-03-02T07:04:16.000Z</time></trkpt>
<trkpt lat="42.174537" lon="23.375182"><ele>2267.6</ele><time>2026-03-02T07:04:17.000Z</time></trkpt>
<trkpt lat="42.174537" lon="23.375183"><ele>2267.6</ele><time>2026-03-02T07:04:18.000Z</time></trkpt>
<trkpt lat="42.174537" lon="23.375184"><ele>2267.6</ele><time>2026-03-02T07:04:19.000Z</time></trkpt>
<trkpt lat="42.174537" lon="23.375184"><ele>2267.5</ele><time>2026-03-02T07:04:20.000Z</time></trkpt>
<trkpt lat="42.174536" lon="23.375185"><ele>2267.5</ele><time>2026-03-02T07:04:21.000Z</time></trkpt>
<trkpt lat="42.174536" lon="23.375186"><ele>2267.5</ele><time>2026-03-02T07:04:22.000Z</time></trkpt>
<trkpt lat="42.174536" lon="23.375186"><ele>2267.5</ele><time>2026-03-02T07:04:23.000Z</time></trkpt>
<trkpt lat="42.174537" lon="23.375185"><ele>2267.5</ele><time>2026-03-02T07:04:24.000Z</time></trkpt>
<trkpt lat="42.174538" lon="23.375185"><ele>2267.4</ele><time>2026-03-02T07:04:25.000Z</time></trkpt>
<trkpt lat="42.174538" lon="23.375184"><ele>2267.4</ele><time>2026-03-02T07:04:26.000Z</time></trkpt>
<trkpt lat="42.174539" lon="23.375184"><ele>2267.4</ele><time>2026-03-02T07:04:27.000Z</time></trkpt>
<trkpt lat="42.174539" lon="23.375184"><ele>2267.4</ele><time>2026-03-02T07:04:28.000Z</time></trkpt>
<trkpt lat="42.174537" lon="23.375184"><ele>2267.4</ele><time>2026-03-02T07:04:29.000Z</time></trkpt>
<trkpt lat="42.174536" lon="23.375185"><ele>2267.5</ele><time>2026-03-02T07:04:30.000Z</time></trkpt>
<trkpt lat="42.174535" lon="23.375186"><ele>2267.5</ele><time>2026-03-02T07:04:31.000Z</time></trkpt>
<trkpt lat="42.174534" lon="23.375188"><ele>2267.5</ele><time>2026-03-02T07:04:32.000Z</time></trkpt>
<trkpt lat="42.174533" lon="23.37519"><ele>2267.5</ele><time>2026-03-02T07:04:33.000Z</time></trkpt>
<trkpt lat="42.174533" lon="23.375191"><ele>2267.5</ele><time>2026-03-02T07:04:34.000Z</time></trkpt>
<trkpt lat="42.174532" lon="23.375191"><ele>2267.6</ele><time>2026-03-02T07:04:35.000Z</time></trkpt>
<trkpt lat="42.174531" lon="23.375189"><ele>2267.6</ele><time>2026-03-02T07:04:36.000Z</time></trkpt>
<trkpt lat="42.174529" lon="23.375187"><ele>2267.6</ele><time>2026-03-02T07:04:37.000Z</time></trkpt>
<trkpt lat="42.174528" lon="23.375185"><ele>2267.6</ele><time>2026-03-02T07:04:38.000Z</time></trkpt>
<trkpt lat="42.174527" lon="23.375183"><ele>2267.6</ele><time>2026-03-02T07:04:39.000Z</time></trkpt>
<trkpt lat="42.174526" lon="23.375182"><ele>2267.6</ele><time>2026-03-02T07:04:40.000Z</time></trkpt>
<trkpt lat="42.174526" lon="23.375183"><ele>2267.6</ele><time>2026-03-02T07:04:41.000Z</time></trkpt>
<trkpt lat="42.174527" lon="23.375184"><ele>2267.6</ele><time>2026-03-02T07:04:42.000Z</time></trkpt>
<trkpt lat="42.174529" lon="23.375185"><ele>2267.6</ele><time>2026-03-02T07:04:43.000Z</time></trkpt>
<trkpt lat="42.174531" lon="23.375186"><ele>2267.6</ele><time>2026-03-02T07:04:44.000Z</time></trkpt>
<trkpt lat="42.174533" lon="23.375187"><ele>2267.6</ele><time>2026-03-02T07:04:45.000Z</time></trkpt>
<trkpt lat="42.174534" lon="23.375188"><ele>2267.6</ele><time>2026-03-02T07:04:46.000Z</time></trkpt>
<trkpt lat="42.174535" lon="23.375187"><ele>2267.6</ele><time>2026-03-02T07:04:47.000Z</time></trkpt>
<trkpt lat="42.174535" lon="23.375185"><ele>2267.6</ele><time>2026-03-02T07:04:48.000Z</time></trkpt>
<trkpt lat="42.174534" lon="23.375183"><ele>2267.6</ele><time>2026-03-02T07:04:49.000Z</time></trkpt>
<trkpt lat="42.174534" lon="23.375181"><ele>2267.7</ele><time>2026-03-02T07:04:50.000Z</time></trkpt>
<trkpt lat="42.174534" lon="23.375179"><ele>2267.7</ele><time>2026-03-02T07:04:51.000Z</time></trkpt>
<trkpt lat="42.174534" lon="23.375179"><ele>2267.7</ele><time>2026-03-02T07:04:52.000Z</time></trkpt>
<trkpt lat="42.174534" lon="23.37518"><ele>2267.7</ele><time>2026-03-02T07:04:53.000Z</time></trkpt>
<trkpt lat="42.174534" lon="23.375181"><ele>2267.7</ele><time>2026-03-02T07:04:54.000Z</time></trkpt>
<trkpt lat="42.174534" lon="23.375181"><ele>2267.9</ele><time>2026-03-02T07:04:55.000Z</time></trkpt>
<trkpt lat="42.174534" lon="23.375184"><ele>2267.9</ele><time>2026-03-02T07:04:56.000Z</time></trkpt>
<trkpt lat="42.174534" lon="23.375186"><ele>2267.9</ele><time>2026-03-02T07:04:57.000Z</time></trkpt>
<trkpt lat="42.174535" lon="23.375187"><ele>2267.9</ele><time>2026-03-02T07:04:58.000Z</time></trkpt>
<trkpt lat="42.174535" lon="23.375186"><ele>2267.9</ele><time>2026-03-02T07:04:59.000Z</time></trkpt>
<trkpt lat="42.174535" lon="23.375185"><ele>2268.3</ele><time>2026-03-02T07:05:00.000Z</time></trkpt>
<trkpt lat="42.174535" lon="23.375182"><ele>2268.3</ele><time>2026-03-02T07:05:01.000Z</time></trkpt>
<trkpt lat="42.174535" lon="23.375179"><ele>2268.3</ele><time>2026-03-02T07:05:02.000Z</time></trkpt>
<trkpt lat="42.174536" lon="23.375175"><ele>2268.3</ele><time>2026-03-02T07:05:03.000Z</time></trkpt>
<trkpt lat="42.174538" lon="23.375174"><ele>2268.3</ele><time>2026-03-02T07:05:04.000Z</time></trkpt>
<trkpt lat="42.174539" lon="23.375173"><ele>2268.2</ele><time>2026-03-02T07:05:05.000Z</time></trkpt>
<trkpt lat="42.17454" lon="23.375171"><ele>2268.2</ele><time>2026-03-02T07:05:06.000Z</time></trkpt>
<trkpt lat="42.174541" lon="23.375171"><ele>2268.2</ele><time>2026-03-02T07:05:07.000Z</time></trkpt>
<trkpt lat="42.17454" lon="23.375171"><ele>2268.2</ele><time>2026-03-02T07:05:08.000Z</time></trkpt>
<trkpt lat="42.174538" lon="23.375172"><ele>2268.2</ele><time>2026-03-02T07:05:09.000Z</time></trkpt>
<trkpt lat="42.174536" lon="23.375171"><ele>2268</ele><time>2026-03-02T07:05:10.000Z</time></trkpt>
<trkpt lat="42.174534" lon="23.375171"><ele>2268</ele><time>2026-03-02T07:05:11.000Z</time></trkpt>
<trkpt lat="42.174531" lon="23.375169"><ele>2268</ele><time>2026-03-02T07:05:12.000Z</time></trkpt>
<trkpt lat="42.17453" lon="23.375168"><ele>2268</ele><time>2026-03-02T07:05:13.000Z</time></trkpt>
<trkpt lat="42.174528" lon="23.375166"><ele>2268</ele><time>2026-03-02T07:05:14.000Z</time></trkpt>
<trkpt lat="42.174526" lon="23.375166"><ele>2267.7</ele><time>2026-03-02T07:05:15.000Z</time></trkpt>
<trkpt lat="42.174525" lon="23.375166"><ele>2267.7</ele><time>2026-03-02T07:05:16.000Z</time></trkpt>
<trkpt lat="42.174523" lon="23.375167"><ele>2267.7</ele><time>2026-03-02T07:05:17.000Z</time></trkpt>
<trkpt lat="42.174522" lon="23.375168"><ele>2267.7</ele><time>2026-03-02T07:05:18.000Z</time></trkpt>
<trkpt lat="42.174521" lon="23.37517"><ele>2267.7</ele><time>2026-03-02T07:05:19.000Z</time></trkpt>
<trkpt lat="42.174522" lon="23.375171"><ele>2267.5</ele><time>2026-03-02T07:05:20.000Z</time></trkpt>
<trkpt lat="42.174523" lon="23.375171"><ele>2267.5</ele><time>2026-03-02T07:05:21.000Z</time></trkpt>
<trkpt lat="42.174523" lon="23.375172"><ele>2267.5</ele><time>2026-03-02T07:05:22.000Z</time></trkpt>
<trkpt lat="42.174524" lon="23.375172"><ele>2267.5</ele><time>2026-03-02T07:05:23.000Z</time></trkpt>
<trkpt lat="42.174525" lon="23.375172"><ele>2267.5</ele><time>2026-03-02T07:05:24.000Z</time></trkpt>
<trkpt lat="42.174525" lon="23.375172"><ele>2267.4</ele><time>2026-03-02T07:05:25.000Z</time></trkpt>
<trkpt lat="42.174525" lon="23.375171"><ele>2267.4</ele><time>2026-03-02T07:05:26.000Z</time></trkpt>
<trkpt lat="42.174525" lon="23.375171"><ele>2267.4</ele><time>2026-03-02T07:05:27.000Z</time></trkpt>
<trkpt lat="42.174525" lon="23.37517"><ele>2267.4</ele><time>2026-03-02T07:05:28.000Z</time></trkpt>
<trkpt lat="42.174525" lon="23.37517"><ele>2267.4</ele><time>2026-03-02T07:05:29.000Z</time></trkpt>
<trkpt lat="42.174525" lon="23.375169"><ele>2267.3</ele><time>2026-03-02T07:05:30.000Z</time></trkpt>
<trkpt lat="42.174525" lon="23.375169"><ele>2267.3</ele><time>2026-03-02T07:05:31.000Z</time></trkpt>
<trkpt lat="42.174525" lon="23.375169"><ele>2267.3</ele><time>2026-03-02T07:05:32.000Z</time></trkpt>
<trkpt lat="42.174525" lon="23.375169"><ele>2267.3</ele><time>2026-03-02T07:05:33.000Z</time></trkpt>
<trkpt lat="42.174525" lon="23.375169"><ele>2267.3</ele><time>2026-03-02T07:05:34.000Z</time></trkpt>
<trkpt lat="42.174525" lon="23.375169"><ele>2267.2</ele><time>2026-03-02T07:05:35.000Z</time></trkpt>
<trkpt lat="42.174526" lon="23.375169"><ele>2267.2</ele><time>2026-03-02T07:05:36.000Z</time></trkpt>
<trkpt lat="42.174526" lon="23.375168"><ele>2267.2</ele><time>2026-03-02T07:05:37.000Z</time></trkpt>
<trkpt lat="42.174526" lon="23.375167"><ele>2267.2</ele><time>2026-03-02T07:05:38.000Z</time></trkpt>
<trkpt lat="42.174526" lon="23.375167"><ele>2267.2</ele><time>2026-03-02T07:05:39.000Z</time></trkpt>
<trkpt lat="42.174527" lon="23.375166"><ele>2267.3</ele><time>2026-03-02T07:05:40.000Z</time></trkpt>
<trkpt lat="42.174527" lon="23.375166"><ele>2267.3</ele><time>2026-03-02T07:05:41.000Z</time></trkpt>
<trkpt lat="42.174527" lon="23.375166"><ele>2267.3</ele><time>2026-03-02T07:05:42.000Z</time></trkpt>
<trkpt lat="42.174528" lon="23.375166"><ele>2267.3</ele><time>2026-03-02T07:05:43.000Z</time></trkpt>
<trkpt lat="42.174528" lon="23.375166"><ele>2267.3</ele><time>2026-03-02T07:05:44.000Z</time></trkpt>
<trkpt lat="42.174528" lon="23.375166"><ele>2267.5</ele><time>2026-03-02T07:05:45.000Z</time></trkpt>
<trkpt lat="42.174528" lon="23.375166"><ele>2267.5</ele><time>2026-03-02T07:05:46.000Z</time></trkpt>
<trkpt lat="42.174528" lon="23.375166"><ele>2267.5</ele><time>2026-03-02T07:05:47.000Z</time></trkpt>
<trkpt lat="42.174527" lon="23.375167"><ele>2267.5</ele><time>2026-03-02T07:05:48.000Z</time></trkpt>
<trkpt lat="42.174527" lon="23.375167"><ele>2267.5</ele><time>2026-03-02T07:05:49.000Z</time></trkpt>
<trkpt lat="42.174526" lon="23.375167"><ele>2267.6</ele><time>2026-03-02T07:05:50.000Z</time></trkpt>
<trkpt lat="42.174526" lon="23.375168"><ele>2267.6</ele><time>2026-03-02T07:05:51.000Z</time></trkpt>
<trkpt lat="42.174526" lon="23.375168"><ele>2267.6</ele><time>2026-03-02T07:05:52.000Z</time></trkpt>
<trkpt lat="42.174527" lon="23.375169"><ele>2267.6</ele><time>2026-03-02T07:05:53.000Z</time></trkpt>
<trkpt lat="42.174528" lon="23.375169"><ele>2267.6</ele><time>2026-03-02T07:05:54.000Z</time></trkpt>
<trkpt lat="42.174529" lon="23.375169"><ele>2267.6</ele><time>2026-03-02T07:05:55.000Z</time></trkpt>
<trkpt lat="42.174531" lon="23.375168"><ele>2267.6</ele><time>2026-03-02T07:05:56.000Z</time></trkpt>
<trkpt lat="42.174532" lon="23.375168"><ele>2267.6</ele><time>2026-03-02T07:05:57.000Z</time></trkpt>
<trkpt lat="42.174533" lon="23.375167"><ele>2267.6</ele><time>2026-03-02T07:05:58.000Z</time></trkpt>
<trkpt lat="42.174533" lon="23.375167"><ele>2267.6</ele><time>2026-03-02T07:05:59.000Z</time></trkpt>
<trkpt lat="42.174534" lon="23.375168"><ele>2267.5</ele><time>2026-03-02T07:06:00.000Z</time></trkpt>
<trkpt lat="42.174534" lon="23.375168"><ele>2267.5</ele><time>2026-03-02T07:06:01.000Z</time></trkpt>
<trkpt lat="42.174533" lon="23.375167"><ele>2267.5</ele><time>2026-03-02T07:06:02.000Z</time></trkpt>
<trkpt lat="42.174532" lon="23.375166"><ele>2267.5</ele><time>2026-03-02T07:06:03.000Z</time></trkpt>
<trkpt lat="42.174532" lon="23.375166"><ele>2267.5</ele><time>2026-03-02T07:06:04.000Z</time></trkpt>
<trkpt lat="42.174531" lon="23.375165"><ele>2267.5</ele><time>2026-03-02T07:06:05.000Z</time></trkpt>
<trkpt lat="42.174531" lon="23.375165"><ele>2267.5</ele><time>2026-03-02T07:06:06.000Z</time></trkpt>
<trkpt lat="42.174531" lon="23.375165"><ele>2267.5</ele><time>2026-03-02T07:06:07.000Z</time></trkpt>
<trkpt lat="42.174531" lon="23.375166"><ele>2267.5</ele><time>2026-03-02T07:06:08.000Z</time></trkpt>
<trkpt lat="42.174531" lon="23.375167"><ele>2267.5</ele><time>2026-03-02T07:06:09.000Z</time></trkpt>
<trkpt lat="42.174531" lon="23.375168"><ele>2267.5</ele><time>2026-03-02T07:06:10.000Z</time></trkpt>
<trkpt lat="42.174531" lon="23.375168"><ele>2267.5</ele><time>2026-03-02T07:06:11.000Z</time></trkpt>
<trkpt lat="42.17453" lon="23.375169"><ele>2267.5</ele><time>2026-03-02T07:06:12.000Z</time></trkpt>
<trkpt lat="42.17453" lon="23.375169"><ele>2267.5</ele><time>2026-03-02T07:06:13.000Z</time></trkpt>
<trkpt lat="42.17453" lon="23.375169"><ele>2267.5</ele><time>2026-03-02T07:06:14.000Z</time></trkpt>
<trkpt lat="42.174531" lon="23.375168"><ele>2267.8</ele><time>2026-03-02T07:06:15.000Z</time></trkpt>
<trkpt lat="42.174532" lon="23.375168"><ele>2267.8</ele><time>2026-03-02T07:06:16.000Z</time></trkpt>
<trkpt lat="42.174534" lon="23.375166"><ele>2267.8</ele><time>2026-03-02T07:06:17.000Z</time></trkpt>
<trkpt lat="42.174535" lon="23.375163"><ele>2267.8</ele><time>2026-03-02T07:06:18.000Z</time></trkpt>
<trkpt lat="42.174536" lon="23.37516"><ele>2267.8</ele><time>2026-03-02T07:06:19.000Z</time></trkpt>
<trkpt lat="42.174537" lon="23.375158"><ele>2268</ele><time>2026-03-02T07:06:20.000Z</time></trkpt>
<trkpt lat="42.174538" lon="23.375155"><ele>2268</ele><time>2026-03-02T07:06:21.000Z</time></trkpt>
<trkpt lat="42.174537" lon="23.375154"><ele>2268</ele><time>2026-03-02T07:06:22.000Z</time></trkpt>
<trkpt lat="42.174537" lon="23.375154"><ele>2268</ele><time>2026-03-02T07:06:23.000Z</time></trkpt>
<trkpt lat="42.174538" lon="23.375155"><ele>2268</ele><time>2026-03-02T07:06:24.000Z</time></trkpt>
<trkpt lat="42.174539" lon="23.375156"><ele>2268.1</ele><time>2026-03-02T07:06:25.000Z</time></trkpt>
<trkpt lat="42.17454" lon="23.375157"><ele>2268.1</ele><time>2026-03-02T07:06:26.000Z</time></trkpt>
<trkpt lat="42.17454" lon="23.375157"><ele>2268.1</ele><time>2026-03-02T07:06:27.000Z</time></trkpt>
<trkpt lat="42.174541" lon="23.375158"><ele>2268.1</ele><time>2026-03-02T07:06:28.000Z</time></trkpt>
<trkpt lat="42.17454" lon="23.375158"><ele>2268.1</ele><time>2026-03-02T07:06:29.000Z</time></trkpt>
<trkpt lat="42.17454" lon="23.375158"><ele>2268.1</ele><time>2026-03-02T07:06:30.000Z</time></trkpt>
<trkpt lat="42.174539" lon="23.375158"><ele>2268.1</ele><time>2026-03-02T07:06:31.000Z</time></trkpt>
<trkpt lat="42.17454" lon="23.375158"><ele>2268.1</ele><time>2026-03-02T07:06:32.000Z</time></trkpt>
<trkpt lat="42.17454" lon="23.375157"><ele>2268.1</ele><time>2026-03-02T07:06:33.000Z</time></trkpt>
<trkpt lat="42.174541" lon="23.375156"><ele>2268.1</ele><time>2026-03-02T07:06:34.000Z</time></trkpt>
<trkpt lat="42.174542" lon="23.375155"><ele>2267.9</ele><time>2026-03-02T07:06:35.000Z</time></trkpt>
<trkpt lat="42.174542" lon="23.375154"><ele>2267.9</ele><time>2026-03-02T07:06:36.000Z</time></trkpt>
<trkpt lat="42.174543" lon="23.375152"><ele>2267.9</ele><time>2026-03-02T07:06:37.000Z</time></trkpt>
<trkpt lat="42.174543" lon="23.375152"><ele>2267.9</ele><time>2026-03-02T07:06:38.000Z</time></trkpt>
<trkpt lat="42.174544" lon="23.375152"><ele>2267.9</ele><time>2026-03-02T07:06:39.000Z</time></trkpt>
<trkpt lat="42.174544" lon="23.375152"><ele>2267.9</ele><time>2026-03-02T07:06:40.000Z</time></trkpt>
<trkpt lat="42.174545" lon="23.375152"><ele>2267.9</ele><time>2026-03-02T07:06:41.000Z</time></trkpt>
<trkpt lat="42.174546" lon="23.375153"><ele>2267.9</ele><time>2026-03-02T07:06:42.000Z</time></trkpt>
<trkpt lat="42.174545" lon="23.375154"><ele>2267.9</ele><time>2026-03-02T07:06:43.000Z</time></trkpt>
<trkpt lat="42.174545" lon="23.375155"><ele>2267.9</ele><time>2026-03-02T07:06:44.000Z</time></trkpt>
<trkpt lat="42.174545" lon="23.375156"><ele>2267.9</ele><time>2026-03-02T07:06:45.000Z</time></trkpt>
<trkpt lat="42.174545" lon="23.375156"><ele>2267.9</ele><time>2026-03-02T07:06:46.000Z</time></trkpt>
<trkpt lat="42.174545" lon="23.375156"><ele>2267.9</ele><time>2026-03-02T07:06:47.000Z</time></trkpt>
<trkpt lat="42.174545" lon="23.375156"><ele>2267.9</ele><time>2026-03-02T07:06:48.000Z</time></trkpt>
<trkpt lat="42.174545" lon="23.375156"><ele>2267.9</ele><time>2026-03-02T07:06:49.000Z</time></trkpt>
<trkpt lat="42.174545" lon="23.375155"><ele>2267.8</ele><time>2026-03-02T07:06:50.000Z</time></trkpt>
<trkpt lat="42.174545" lon="23.375154"><ele>2267.8</ele><time>2026-03-02T07:06:51.000Z</time></trkpt>
<trkpt lat="42.174545" lon="23.375152"><ele>2267.8</ele><time>2026-03-02T07:06:52.000Z</time></trkpt>
<trkpt lat="42.174544" lon="23.37515"><ele>2267.8</ele><time>2026-03-02T07:06:53.000Z</time></trkpt>
<trkpt lat="42.174544" lon="23.375149"><ele>2267.8</ele><time>2026-03-02T07:06:54.000Z</time></trkpt>
<trkpt lat="42.174543" lon="23.375147"><ele>2267.8</ele><time>2026-03-02T07:06:55.000Z</time></trkpt>
<trkpt lat="42.174541" lon="23.375145"><ele>2267.8</ele><time>2026-03-02T07:06:56.000Z</time></trkpt>
<trkpt lat="42.174541" lon="23.375144"><ele>2267.8</ele><time>2026-03-02T07:06:57.000Z</time></trkpt>
<trkpt lat="42.17454" lon="23.375143"><ele>2267.8</ele><time>2026-03-02T07:06:58.000Z</time></trkpt>
<trkpt lat="42.17454" lon="23.375142"><ele>2267.8</ele><time>2026-03-02T07:06:59.000Z</time></trkpt>
<trkpt lat="42.174539" lon="23.375142"><ele>2267.6</ele><time>2026-03-02T07:07:00.000Z</time></trkpt>
<trkpt lat="42.174539" lon="23.375142"><ele>2267.6</ele><time>2026-03-02T07:07:01.000Z</time></trkpt>
<trkpt lat="42.174539" lon="23.375141"><ele>2267.6</ele><time>2026-03-02T07:07:02.000Z</time></trkpt>
<trkpt lat="42.17454" lon="23.375143"><ele>2267.6</ele><time>2026-03-02T07:07:03.000Z</time></trkpt>
<trkpt lat="42.174541" lon="23.375145"><ele>2267.6</ele><time>2026-03-02T07:07:04.000Z</time></trkpt>
<trkpt lat="42.174542" lon="23.375148"><ele>2267.6</ele><time>2026-03-02T07:07:05.000Z</time></trkpt>
<trkpt lat="42.174544" lon="23.37515"><ele>2267.6</ele><time>2026-03-02T07:07:06.000Z</time></trkpt>
<trkpt lat="42.174545" lon="23.375152"><ele>2267.6</ele><time>2026-03-02T07:07:07.000Z</time></trkpt>
<trkpt lat="42.174546" lon="23.375153"><ele>2267.6</ele><time>2026-03-02T07:07:08.000Z</time></trkpt>
<trkpt lat="42.174546" lon="23.375152"><ele>2267.6</ele><time>2026-03-02T07:07:09.000Z</time></trkpt>
<trkpt lat="42.174546" lon="23.375152"><ele>2267.6</ele><time>2026-03-02T07:07:10.000Z</time></trkpt>
<trkpt lat="42.174546" lon="23.375152"><ele>2267.6</ele><time>2026-03-02T07:07:11.000Z</time></trkpt>
<trkpt lat="42.174546" lon="23.375152"><ele>2267.6</ele><time>2026-03-02T07:07:12.000Z</time></trkpt>
<trkpt lat="42.174545" lon="23.375153"><ele>2267.6</ele><time>2026-03-02T07:07:13.000Z</time></trkpt>
<trkpt lat="42.174544" lon="23.375154"><ele>2267.6</ele><time>2026-03-02T07:07:14.000Z</time></trkpt>
<trkpt lat="42.174543" lon="23.375155"><ele>2267.6</ele><time>2026-03-02T07:07:15.000Z</time></trkpt>
<trkpt lat="42.174543" lon="23.375156"><ele>2267.6</ele><time>2026-03-02T07:07:16.000Z</time></trkpt>
<trkpt lat="42.174542" lon="23.375156"><ele>2267.6</ele><time>2026-03-02T07:07:17.000Z</time></trkpt>
<trkpt lat="42.174542" lon="23.375156"><ele>2267.6</ele><time>2026-03-02T07:07:18.000Z</time></trkpt>
<trkpt lat="42.174542" lon="23.375156"><ele>2267.6</ele><time>2026-03-02T07:07:19.000Z</time></trkpt>
<trkpt lat="42.174542" lon="23.375156"><ele>2267.8</ele><time>2026-03-02T07:07:20.000Z</time></trkpt>
<trkpt lat="42.174542" lon="23.375156"><ele>2267.8</ele><time>2026-03-02T07:07:21.000Z</time></trkpt>
<trkpt lat="42.174542" lon="23.375156"><ele>2267.8</ele><time>2026-03-02T07:07:22.000Z</time></trkpt>
<trkpt lat="42.174542" lon="23.375156"><ele>2267.8</ele><time>2026-03-02T07:07:23.000Z</time></trkpt>
<trkpt lat="42.174541" lon="23.375155"><ele>2267.8</ele><time>2026-03-02T07:07:24.000Z</time></trkpt>
<trkpt lat="42.174541" lon="23.375154"><ele>2267.8</ele><time>2026-03-02T07:07:25.000Z</time></trkpt>
<trkpt lat="42.17454" lon="23.375153"><ele>2267.8</ele><time>2026-03-02T07:07:26.000Z</time></trkpt>
<trkpt lat="42.174539" lon="23.375153"><ele>2267.8</ele><time>2026-03-02T07:07:27.000Z</time></trkpt>
<trkpt lat="42.174538" lon="23.375153"><ele>2267.8</ele><time>2026-03-02T07:07:28.000Z</time></trkpt>
<trkpt lat="42.174538" lon="23.375154"><ele>2267.8</ele><time>2026-03-02T07:07:29.000Z</time></trkpt>
<trkpt lat="42.174538" lon="23.375153"><ele>2267.9</ele><time>2026-03-02T07:07:30.000Z</time></trkpt>
<trkpt lat="42.174537" lon="23.375153"><ele>2267.9</ele><time>2026-03-02T07:07:31.000Z</time></trkpt>
<trkpt lat="42.174537" lon="23.375152"><ele>2267.9</ele><time>2026-03-02T07:07:32.000Z</time></trkpt>
<trkpt lat="42.174537" lon="23.375151"><ele>2267.9</ele><time>2026-03-02T07:07:33.000Z</time></trkpt>
<trkpt lat="42.174536" lon="23.375151"><ele>2267.9</ele><time>2026-03-02T07:07:34.000Z</time></trkpt>
<trkpt lat="42.174536" lon="23.375151"><ele>2267.8</ele><time>2026-03-02T07:07:35.000Z</time></trkpt>
<trkpt lat="42.174536" lon="23.375151"><ele>2267.8</ele><time>2026-03-02T07:07:36.000Z</time></trkpt>
<trkpt lat="42.174536" lon="23.375151"><ele>2267.8</ele><time>2026-03-02T07:07:37.000Z</time></trkpt>
<trkpt lat="42.174537" lon="23.37515"><ele>2267.8</ele><time>2026-03-02T07:07:38.000Z</time></trkpt>
<trkpt lat="42.174537" lon="23.37515"><ele>2267.8</ele><time>2026-03-02T07:07:39.000Z</time></trkpt>
<trkpt lat="42.174538" lon="23.375151"><ele>2267.8</ele><time>2026-03-02T07:07:40.000Z</time></trkpt>
<trkpt lat="42.174538" lon="23.375151"><ele>2267.8</ele><time>2026-03-02T07:07:41.000Z</time></trkpt>
<trkpt lat="42.174538" lon="23.375151"><ele>2267.8</ele><time>2026-03-02T07:07:42.000Z</time></trkpt>
<trkpt lat="42.174538" lon="23.375152"><ele>2267.8</ele><time>2026-03-02T07:07:43.000Z</time></trkpt>
<trkpt lat="42.174538" lon="23.375152"><ele>2267.8</ele><time>2026-03-02T07:07:44.000Z</time></trkpt>
<trkpt lat="42.174537" lon="23.375152"><ele>2267.7</ele><time>2026-03-02T07:07:45.000Z</time></trkpt>
<trkpt lat="42.174537" lon="23.375152"><ele>2267.7</ele><time>2026-03-02T07:07:46.000Z</time></trkpt>
<trkpt lat="42.174537" lon="23.375152"><ele>2267.7</ele><time>2026-03-02T07:07:47.000Z</time></trkpt>
<trkpt lat="42.174537" lon="23.375152"><ele>2267.7</ele><time>2026-03-02T07:07:48.000Z</time></trkpt>
<trkpt lat="42.174537" lon="23.375153"><ele>2267.7</ele><time>2026-03-02T07:07:49.000Z</time></trkpt>
<trkpt lat="42.174537" lon="23.375153"><ele>2267.7</ele><time>2026-03-02T07:07:50.000Z</time></trkpt>
<trkpt lat="42.174537" lon="23.375154"><ele>2267.7</ele><time>2026-03-02T07:07:51.000Z</time></trkpt>
<trkpt lat="42.174536" lon="23.375155"><ele>2267.7</ele><time>2026-03-02T07:07:52.000Z</time></trkpt>
<trkpt lat="42.174536" lon="23.375155"><ele>2267.7</ele><time>2026-03-02T07:07:53.000Z</time></trkpt>
<trkpt lat="42.174536" lon="23.375155"><ele>2267.7</ele><time>2026-03-02T07:07:54.000Z</time></trkpt>
<trkpt lat="42.174536" lon="23.375155"><ele>2267.7</ele><time>2026-03-02T07:07:55.000Z</time></trkpt>
<trkpt lat="42.174536" lon="23.375155"><ele>2267.7</ele><time>2026-03-02T07:07:56.000Z</time></trkpt>
<trkpt lat="42.174536" lon="23.375155"><ele>2267.7</ele><time>2026-03-02T07:07:57.000Z</time></trkpt>
<trkpt lat="42.174535" lon="23.375155"><ele>2267.7</ele><time>2026-03-02T07:07:58.000Z</time></trkpt>
<trkpt lat="42.174535" lon="23.375155"><ele>2267.7</ele><time>2026-03-02T07:07:59.000Z</time></trkpt>
<trkpt lat="42.174537" lon="23.375154"><ele>2267.7</ele><time>2026-03-02T07:08:00.000Z</time></trkpt>
<trkpt lat="42.174538" lon="23.375153"><ele>2267.7</ele><time>2026-03-02T07:08:01.000Z</time></trkpt>
<trkpt lat="42.174539" lon="23.375152"><ele>2267.7</ele><time>2026-03-02T07:08:02.000Z</time></trkpt>
<trkpt lat="42.174541" lon="23.375151"><ele>2267.7</ele><time>2026-03-02T07:08:03.000Z</time></trkpt>
<trkpt lat="42.174542" lon="23.37515"><ele>2267.7</ele><time>2026-03-02T07:08:04.000Z</time></trkpt>
<trkpt lat="42.174542" lon="23.37515"><ele>2267.7</ele><time>2026-03-02T07:08:05.000Z</time></trkpt>
<trkpt lat="42.174542" lon="23.37515"><ele>2267.7</ele><time>2026-03-02T07:08:06.000Z</time></trkpt>
<trkpt lat="42.174541" lon="23.375151"><ele>2267.7</ele><time>2026-03-02T07:08:07.000Z</time></trkpt>
<trkpt lat="42.17454" lon="23.375151"><ele>2267.7</ele><time>2026-03-02T07:08:08.000Z</time></trkpt>
<trkpt lat="42.17454" lon="23.375152"><ele>2267.7</ele><time>2026-03-02T07:08:09.000Z</time></trkpt>
<trkpt lat="42.174539" lon="23.375152"><ele>2267.7</ele><time>2026-03-02T07:08:10.000Z</time></trkpt>
<trkpt lat="42.174539" lon="23.375153"><ele>2267.7</ele><time>2026-03-02T07:08:11.000Z</time></trkpt>
<trkpt lat="42.174539" lon="23.375153"><ele>2267.7</ele><time>2026-03-02T07:08:12.000Z</time></trkpt>
<trkpt lat="42.174539" lon="23.375153"><ele>2267.7</ele><time>2026-03-02T07:08:13.000Z</time></trkpt>
<trkpt lat="42.174539" lon="23.375153"><ele>2267.7</ele><time>2026-03-02T07:08:14.000Z</time></trkpt>
<trkpt lat="42.174539" lon="23.375153"><ele>2267.5</ele><time>2026-03-02T07:08:15.000Z</time></trkpt>
<trkpt lat="42.174539" lon="23.375153"><ele>2267.5</ele><time>2026-03-02T07:08:16.000Z</time></trkpt>
<trkpt lat="42.174539" lon="23.375153"><ele>2267.5</ele><time>2026-03-02T07:08:17.000Z</time></trkpt>
<trkpt lat="42.174539" lon="23.375153"><ele>2267.5</ele><time>2026-03-02T07:08:18.000Z</time></trkpt>
<trkpt lat="42.174539" lon="23.375152"><ele>2267.5</ele><time>2026-03-02T07:08:19.000Z</time></trkpt>
<trkpt lat="42.174539" lon="23.375152"><ele>2267.4</ele><time>2026-03-02T07:08:20.000Z</time></trkpt>
<trkpt lat="42.174539" lon="23.375152"><ele>2267.4</ele><time>2026-03-02T07:08:21.000Z</time></trkpt>
<trkpt lat="42.174539" lon="23.375152"><ele>2267.4</ele><time>2026-03-02T07:08:22.000Z</time></trkpt>
<trkpt lat="42.174539" lon="23.375152"><ele>2267.4</ele><time>2026-03-02T07:08:23.000Z</time></trkpt>
<trkpt lat="42.174538" lon="23.375154"><ele>2267.4</ele><time>2026-03-02T07:08:24.000Z</time></trkpt>
<trkpt lat="42.174538" lon="23.375155"><ele>2267.3</ele><time>2026-03-02T07:08:25.000Z</time></trkpt>
<trkpt lat="42.174538" lon="23.375155"><ele>2267.3</ele><time>2026-03-02T07:08:26.000Z</time></trkpt>
<trkpt lat="42.174537" lon="23.375155"><ele>2267.3</ele><time>2026-03-02T07:08:27.000Z</time></trkpt>
<trkpt lat="42.174537" lon="23.375155"><ele>2267.3</ele><time>2026-03-02T07:08:28.000Z</time></trkpt>
<trkpt lat="42.174537" lon="23.375154"><ele>2267.3</ele><time>2026-03-02T07:08:29.000Z</time></trkpt>
<trkpt lat="42.174538" lon="23.375154"><ele>2267.4</ele><time>2026-03-02T07:08:30.000Z</time></trkpt>
<trkpt lat="42.174539" lon="23.375154"><ele>2267.4</ele><time>2026-03-02T07:08:31.000Z</time></trkpt>
<trkpt lat="42.174539" lon="23.375155"><ele>2267.4</ele><time>2026-03-02T07:08:32.000Z</time></trkpt>
<trkpt lat="42.17454" lon="23.375155"><ele>2267.4</ele><time>2026-03-02T07:08:33.000Z</time></trkpt>
<trkpt lat="42.17454" lon="23.375156"><ele>2267.4</ele><time>2026-03-02T07:08:34.000Z</time></trkpt>
<trkpt lat="42.17454" lon="23.375157"><ele>2267.9</ele><time>2026-03-02T07:08:35.000Z</time></trkpt>
<trkpt lat="42.174539" lon="23.375159"><ele>2267.9</ele><time>2026-03-02T07:08:36.000Z</time></trkpt>
<trkpt lat="42.174539" lon="23.375161"><ele>2267.9</ele><time>2026-03-02T07:08:37.000Z</time></trkpt>
<trkpt lat="42.174539" lon="23.375161"><ele>2267.9</ele><time>2026-03-02T07:08:38.000Z</time></trkpt>
<trkpt lat="42.17454" lon="23.37516"><ele>2267.9</ele><time>2026-03-02T07:08:39.000Z</time></trkpt>
<trkpt lat="42.17454" lon="23.37516"><ele>2268.1</ele><time>2026-03-02T07:08:40.000Z</time></trkpt>
<trkpt lat="42.174541" lon="23.375158"><ele>2268.1</ele><time>2026-03-02T07:08:41.000Z</time></trkpt>
<trkpt lat="42.17454" lon="23.375159"><ele>2268.1</ele><time>2026-03-02T07:08:42.000Z</time></trkpt>
<trkpt lat="42.174539" lon="23.375161"><ele>2268.1</ele><time>2026-03-02T07:08:43.000Z</time></trkpt>
<trkpt lat="42.174537" lon="23.375165"><ele>2268.1</ele><time>2026-03-02T07:08:44.000Z</time></trkpt>
<trkpt lat="42.174536" lon="23.375167"><ele>2268.3</ele><time>2026-03-02T07:08:45.000Z</time></trkpt>
<trkpt lat="42.174535" lon="23.375169"><ele>2268.3</ele><time>2026-03-02T07:08:46.000Z</time></trkpt>
<trkpt lat="42.174534" lon="23.375171"><ele>2268.3</ele><time>2026-03-02T07:08:47.000Z</time></trkpt>
<trkpt lat="42.174535" lon="23.375172"><ele>2268.3</ele><time>2026-03-02T07:08:48.000Z</time></trkpt>
<trkpt lat="42.174535" lon="23.375173"><ele>2268.3</ele><time>2026-03-02T07:08:49.000Z</time></trkpt>
<trkpt lat="42.174536" lon="23.375174"><ele>2268.4</ele><time>2026-03-02T07:08:50.000Z</time></trkpt>
<trkpt lat="42.174536" lon="23.375174"><ele>2268.4</ele><time>2026-03-02T07:08:51.000Z</time></trkpt>
<trkpt lat="42.174535" lon="23.375174"><ele>2268.4</ele><time>2026-03-02T07:08:52.000Z</time></trkpt>
<trkpt lat="42.174534" lon="23.375174"><ele>2268.4</ele><time>2026-03-02T07:08:53.000Z</time></trkpt>
<trkpt lat="42.174533" lon="23.375174"><ele>2268.4</ele><time>2026-03-02T07:08:54.000Z</time></trkpt>
<trkpt lat="42.174532" lon="23.375174"><ele>2268.4</ele><time>2026-03-02T07:08:55.000Z</time></trkpt>
<trkpt lat="42.174532" lon="23.375175"><ele>2268.4</ele><time>2026-03-02T07:08:56.000Z</time></trkpt>
<trkpt lat="42.174532" lon="23.375175"><ele>2268.4</ele><time>2026-03-02T07:08:57.000Z</time></trkpt>
<trkpt lat="42.174533" lon="23.375175"><ele>2268.4</ele><time>2026-03-02T07:08:58.000Z</time></trkpt>
<trkpt lat="42.174534" lon="23.375175"><ele>2268.4</ele><time>2026-03-02T07:08:59.000Z</time></trkpt>
<trkpt lat="42.174535" lon="23.375176"><ele>2268.2</ele><time>2026-03-02T07:09:00.000Z</time></trkpt>
<trkpt lat="42.174535" lon="23.375176"><ele>2268.2</ele><time>2026-03-02T07:09:01.000Z</time></trkpt>
<trkpt lat="42.174535" lon="23.375177"><ele>2268.2</ele><time>2026-03-02T07:09:02.000Z</time></trkpt>
<trkpt lat="42.174535" lon="23.375177"><ele>2268.2</ele><time>2026-03-02T07:09:03.000Z</time></trkpt>
<trkpt lat="42.174536" lon="23.375178"><ele>2268.2</ele><time>2026-03-02T07:09:04.000Z</time></trkpt>
<trkpt lat="42.174536" lon="23.375178"><ele>2267.8</ele><time>2026-03-02T07:09:05.000Z</time></trkpt>
<trkpt lat="42.174536" lon="23.375177"><ele>2267.8</ele><time>2026-03-02T07:09:06.000Z</time></trkpt>
<trkpt lat="42.174536" lon="23.375176"><ele>2267.8</ele><time>2026-03-02T07:09:07.000Z</time></trkpt>
<trkpt lat="42.174536" lon="23.375175"><ele>2267.8</ele><time>2026-03-02T07:09:08.000Z</time></trkpt>
<trkpt lat="42.174535" lon="23.375173"><ele>2267.8</ele><time>2026-03-02T07:09:09.000Z</time></trkpt>
<trkpt lat="42.174534" lon="23.375172"><ele>2267.6</ele><time>2026-03-02T07:09:10.000Z</time></trkpt>
<trkpt lat="42.174533" lon="23.375172"><ele>2267.6</ele><time>2026-03-02T07:09:11.000Z</time></trkpt>
<trkpt lat="42.174532" lon="23.375172"><ele>2267.6</ele><time>2026-03-02T07:09:12.000Z</time></trkpt>
<trkpt lat="42.174531" lon="23.375172"><ele>2267.6</ele><time>2026-03-02T07:09:13.000Z</time></trkpt>
<trkpt lat="42.17453" lon="23.375173"><ele>2267.6</ele><time>2026-03-02T07:09:14.000Z</time></trkpt>
<trkpt lat="42.17453" lon="23.375173"><ele>2267.4</ele><time>2026-03-02T07:09:15.000Z</time></trkpt>
<trkpt lat="42.17453" lon="23.375173"><ele>2267.4</ele><time>2026-03-02T07:09:16.000Z</time></trkpt>
<trkpt lat="42.17453" lon="23.375174"><ele>2267.4</ele><time>2026-03-02T07:09:17.000Z</time></trkpt>
<trkpt lat="42.174531" lon="23.375174"><ele>2267.4</ele><time>2026-03-02T07:09:18.000Z</time></trkpt>
<trkpt lat="42.174531" lon="23.375174"><ele>2267.4</ele><time>2026-03-02T07:09:19.000Z</time></trkpt>
<trkpt lat="42.174532" lon="23.375174"><ele>2267.3</ele><time>2026-03-02T07:09:20.000Z</time></trkpt>
<trkpt lat="42.174532" lon="23.375174"><ele>2267.3</ele><time>2026-03-02T07:09:21.000Z</time></trkpt>
<trkpt lat="42.174532" lon="23.375174"><ele>2267.3</ele><time>2026-03-02T07:09:22.000Z</time></trkpt>
<trkpt lat="42.174532" lon="23.375173"><ele>2267.3</ele><time>2026-03-02T07:09:23.000Z</time></trkpt>
<trkpt lat="42.174531" lon="23.375174"><ele>2267.3</ele><time>2026-03-02T07:09:24.000Z</time></trkpt>
<trkpt lat="42.17453" lon="23.375174"><ele>2267.3</ele><time>2026-03-02T07:09:25.000Z</time></trkpt>
<trkpt lat="42.174529" lon="23.375174"><ele>2267.3</ele><time>2026-03-02T07:09:26.000Z</time></trkpt>
<trkpt lat="42.174529" lon="23.375175"><ele>2267.3</ele><time>2026-03-02T07:09:27.000Z</time></trkpt>
<trkpt lat="42.174528" lon="23.375176"><ele>2267.3</ele><time>2026-03-02T07:09:28.000Z</time></trkpt>
<trkpt lat="42.174528" lon="23.375176"><ele>2267.3</ele><time>2026-03-02T07:09:29.000Z</time></trkpt>
<trkpt lat="42.174529" lon="23.375177"><ele>2267.4</ele><time>2026-03-02T07:09:30.000Z</time></trkpt>
<trkpt lat="42.17453" lon="23.375178"><ele>2267.4</ele><time>2026-03-02T07:09:31.000Z</time></trkpt>
<trkpt lat="42.17453" lon="23.375178"><ele>2267.4</ele><time>2026-03-02T07:09:32.000Z</time></trkpt>
<trkpt lat="42.174532" lon="23.37518"><ele>2267.4</ele><time>2026-03-02T07:09:33.000Z</time></trkpt>
<trkpt lat="42.174534" lon="23.375181"><ele>2267.4</ele><time>2026-03-02T07:09:34.000Z</time></trkpt>
<trkpt lat="42.174537" lon="23.375182"><ele>2267.5</ele><time>2026-03-02T07:09:35.000Z</time></trkpt>
<trkpt lat="42.174539" lon="23.375183"><ele>2267.5</ele><time>2026-03-02T07:09:36.000Z</time></trkpt>
<trkpt lat="42.17454" lon="23.375183"><ele>2267.5</ele><time>2026-03-02T07:09:37.000Z</time></trkpt>
<trkpt lat="42.174539" lon="23.375182"><ele>2267.5</ele><time>2026-03-02T07:09:38.000Z</time></trkpt>
<trkpt lat="42.174538" lon="23.375181"><ele>2267.5</ele><time>2026-03-02T07:09:39.000Z</time></trkpt>
<trkpt lat="42.174538" lon="23.375179"><ele>2267.4</ele><time>2026-03-02T07:09:40.000Z</time></trkpt>
<trkpt lat="42.174538" lon="23.375176"><ele>2267.4</ele><time>2026-03-02T07:09:41.000Z</time></trkpt>
<trkpt lat="42.174539" lon="23.375175"><ele>2267.4</ele><time>2026-03-02T07:09:42.000Z</time></trkpt>
<trkpt lat="42.17454" lon="23.375174"><ele>2267.4</ele><time>2026-03-02T07:09:43.000Z</time></trkpt>
<trkpt lat="42.174541" lon="23.375175"><ele>2267.4</ele><time>2026-03-02T07:09:44.000Z</time></trkpt>
<trkpt lat="42.174542" lon="23.375175"><ele>2267.3</ele><time>2026-03-02T07:09:45.000Z</time></trkpt>
<trkpt lat="42.174542" lon="23.375176"><ele>2267.3</ele><time>2026-03-02T07:09:46.000Z</time></trkpt>
<trkpt lat="42.174542" lon="23.375177"><ele>2267.3</ele><time>2026-03-02T07:09:47.000Z</time></trkpt>
<trkpt lat="42.174543" lon="23.375177"><ele>2267.3</ele><time>2026-03-02T07:09:48.000Z</time></trkpt>
<trkpt lat="42.174543" lon="23.375177"><ele>2267.3</ele><time>2026-03-02T07:09:49.000Z</time></trkpt>
<trkpt lat="42.174544" lon="23.375176"><ele>2267.2</ele><time>2026-03-02T07:09:50.000Z</time></trkpt>
<trkpt lat="42.174545" lon="23.375176"><ele>2267.2</ele><time>2026-03-02T07:09:51.000Z</time></trkpt>
<trkpt lat="42.174546" lon="23.375176"><ele>2267.2</ele><time>2026-03-02T07:09:52.000Z</time></trkpt>
<trkpt lat="42.174546" lon="23.375176"><ele>2267.2</ele><time>2026-03-02T07:09:53.000Z</time></trkpt>
<trkpt lat="42.174546" lon="23.375176"><ele>2267.2</ele><time>2026-03-02T07:09:54.000Z</time></trkpt>
<trkpt lat="42.174546" lon="23.375177"><ele>2267.2</ele><time>2026-03-02T07:09:55.000Z</time></trkpt>
<trkpt lat="42.174546" lon="23.375178"><ele>2267.2</ele><time>2026-03-02T07:09:56.000Z</time></trkpt>
<trkpt lat="42.174546" lon="23.375179"><ele>2267.2</ele><time>2026-03-02T07:09:57.000Z</time></trkpt>
<trkpt lat="42.174546" lon="23.375179"><ele>2267.2</ele><time>2026-03-02T07:09:58.000Z</time></trkpt>
<trkpt lat="42.174544" lon="23.37518"><ele>2267.2</ele><time>2026-03-02T07:09:59.000Z</time></trkpt>
<trkpt lat="42.17454" lon="23.37518"><ele>2267.3</ele><time>2026-03-02T07:10:00.000Z</time></trkpt>
<trkpt lat="42.174537" lon="23.37518"><ele>2267.3</ele><time>2026-03-02T07:10:01.000Z</time></trkpt>
<trkpt lat="42.174535" lon="23.375179"><ele>2267.3</ele><time>2026-03-02T07:10:02.000Z</time></trkpt>
<trkpt lat="42.174532" lon="23.375178"><ele>2267.3</ele><time>2026-03-02T07:10:03.000Z</time></trkpt>
<trkpt lat="42.174531" lon="23.375175"><ele>2267.3</ele><time>2026-03-02T07:10:04.000Z</time></trkpt>
<trkpt lat="42.174532" lon="23.375173"><ele>2267.4</ele><time>2026-03-02T07:10:05.000Z</time></trkpt>
<trkpt lat="42.174533" lon="23.375171"><ele>2267.4</ele><time>2026-03-02T07:10:06.000Z</time></trkpt>
<trkpt lat="42.174533" lon="23.37517"><ele>2267.4</ele><time>2026-03-02T07:10:07.000Z</time></trkpt>
<trkpt lat="42.174534" lon="23.375169"><ele>2267.4</ele><time>2026-03-02T07:10:08.000Z</time></trkpt>
<trkpt lat="42.174535" lon="23.37517"><ele>2267.4</ele><time>2026-03-02T07:10:09.000Z</time></trkpt>
<trkpt lat="42.174536" lon="23.375171"><ele>2267.5</ele><time>2026-03-02T07:10:10.000Z</time></trkpt>
<trkpt lat="42.174537" lon="23.375172"><ele>2267.5</ele><time>2026-03-02T07:10:11.000Z</time></trkpt>
<trkpt lat="42.174539" lon="23.375172"><ele>2267.5</ele><time>2026-03-02T07:10:12.000Z</time></trkpt>
<trkpt lat="42.174541" lon="23.375172"><ele>2267.5</ele><time>2026-03-02T07:10:13.000Z</time></trkpt>
<trkpt lat="42.174542" lon="23.375171"><ele>2267.5</ele><time>2026-03-02T07:10:14.000Z</time></trkpt>
<trkpt lat="42.174544" lon="23.375169"><ele>2267.6</ele><time>2026-03-02T07:10:15.000Z</time></trkpt>
<trkpt lat="42.174545" lon="23.375168"><ele>2267.6</ele><time>2026-03-02T07:10:16.000Z</time></trkpt>
<trkpt lat="42.174545" lon="23.375167"><ele>2267.6</ele><time>2026-03-02T07:10:17.000Z</time></trkpt>
<trkpt lat="42.174545" lon="23.375167"><ele>2267.6</ele><time>2026-03-02T07:10:18.000Z</time></trkpt>
<trkpt lat="42.174544" lon="23.375166"><ele>2267.6</ele><time>2026-03-02T07:10:19.000Z</time></trkpt>
<trkpt lat="42.174544" lon="23.375165"><ele>2267.6</ele><time>2026-03-02T07:10:20.000Z</time></trkpt>
<trkpt lat="42.174544" lon="23.375165"><ele>2267.6</ele><time>2026-03-02T07:10:21.000Z</time></trkpt>
<trkpt lat="42.174544" lon="23.375166"><ele>2267.6</ele><time>2026-03-02T07:10:22.000Z</time></trkpt>
<trkpt lat="42.174544" lon="23.375166"><ele>2267.6</ele><time>2026-03-02T07:10:23.000Z</time></trkpt>
<trkpt lat="42.174543" lon="23.375167"><ele>2267.6</ele><time>2026-03-02T07:10:24.000Z</time></trkpt>
<trkpt lat="42.174543" lon="23.375168"><ele>2267.5</ele><time>2026-03-02T07:10:25.000Z</time></trkpt>
<trkpt lat="42.174543" lon="23.375168"><ele>2267.5</ele><time>2026-03-02T07:10:26.000Z</time></trkpt>
<trkpt lat="42.174543" lon="23.375167"><ele>2267.5</ele><time>2026-03-02T07:10:27.000Z</time></trkpt>
<trkpt lat="42.174543" lon="23.375166"><ele>2267.5</ele><time>2026-03-02T07:10:28.000Z</time></trkpt>
<trkpt lat="42.174542" lon="23.375165"><ele>2267.5</ele><time>2026-03-02T07:10:29.000Z</time></trkpt>
<trkpt lat="42.174542" lon="23.375164"><ele>2267.3</ele><time>2026-03-02T07:10:30.000Z</time></trkpt>
<trkpt lat="42.174541" lon="23.375163"><ele>2267.3</ele><time>2026-03-02T07:10:31.000Z</time></trkpt>
<trkpt lat="42.17454" lon="23.37516"><ele>2267.3</ele><time>2026-03-02T07:10:32.000Z</time></trkpt>
<trkpt lat="42.174539" lon="23.375156"><ele>2267.3</ele><time>2026-03-02T07:10:33.000Z</time></trkpt>
<trkpt lat="42.174537" lon="23.375152"><ele>2267.3</ele><time>2026-03-02T07:10:34.000Z</time></trkpt>
<trkpt lat="42.174535" lon="23.375148"><ele>2267.2</ele><time>2026-03-02T07:10:35.000Z</time></trkpt>
<trkpt lat="42.174533" lon="23.375145"><ele>2267.2</ele><time>2026-03-02T07:10:36.000Z</time></trkpt>
<trkpt lat="42.174531" lon="23.375144"><ele>2267.2</ele><time>2026-03-02T07:10:37.000Z</time></trkpt>
<trkpt lat="42.174529" lon="23.375145"><ele>2267.2</ele><time>2026-03-02T07:10:38.000Z</time></trkpt>
<trkpt lat="42.174528" lon="23.375146"><ele>2267.2</ele><time>2026-03-02T07:10:39.000Z</time></trkpt>
<trkpt lat="42.174526" lon="23.375148"><ele>2267.2</ele><time>2026-03-02T07:10:40.000Z</time></trkpt>
<trkpt lat="42.174526" lon="23.375149"><ele>2267.2</ele><time>2026-03-02T07:10:41.000Z</time></trkpt>
<trkpt lat="42.174524" lon="23.37515"><ele>2267.2</ele><time>2026-03-02T07:10:42.000Z</time></trkpt>
<trkpt lat="42.174523" lon="23.375152"><ele>2267.2</ele><time>2026-03-02T07:10:43.000Z</time></trkpt>
<trkpt lat="42.17452" lon="23.375155"><ele>2267.2</ele><time>2026-03-02T07:10:44.000Z</time></trkpt>
<trkpt lat="42.174519" lon="23.375157"><ele>2267.4</ele><time>2026-03-02T07:10:45.000Z</time></trkpt>
<trkpt lat="42.174518" lon="23.375161"><ele>2267.4</ele><time>2026-03-02T07:10:46.000Z</time></trkpt>
<trkpt lat="42.174517" lon="23.375163"><ele>2267.4</ele><time>2026-03-02T07:10:47.000Z</time></trkpt>
<trkpt lat="42.174516" lon="23.375165"><ele>2267.4</ele><time>2026-03-02T07:10:48.000Z</time></trkpt>
<trkpt lat="42.174515" lon="23.375168"><ele>2267.4</ele><time>2026-03-02T07:10:49.000Z</time></trkpt>
<trkpt lat="42.174514" lon="23.37517"><ele>2267.5</ele><time>2026-03-02T07:10:50.000Z</time></trkpt>
<trkpt lat="42.174513" lon="23.375171"><ele>2267.5</ele><time>2026-03-02T07:10:51.000Z</time></trkpt>
<trkpt lat="42.174511" lon="23.375173"><ele>2267.5</ele><time>2026-03-02T07:10:52.000Z</time></trkpt>
<trkpt lat="42.17451" lon="23.375174"><ele>2267.5</ele><time>2026-03-02T07:10:53.000Z</time></trkpt>
<trkpt lat="42.174509" lon="23.375174"><ele>2267.5</ele><time>2026-03-02T07:10:54.000Z</time></trkpt>
<trkpt lat="42.174509" lon="23.375173"><ele>2267.5</ele><time>2026-03-02T07:10:55.000Z</time></trkpt>
<trkpt lat="42.174509" lon="23.375172"><ele>2267.5</ele><time>2026-03-02T07:10:56.000Z</time></trkpt>
<trkpt lat="42.17451" lon="23.375172"><ele>2267.5</ele><time>2026-03-02T07:10:57.000Z</time></trkpt>
<trkpt lat="42.17451" lon="23.375171"><ele>2267.5</ele><time>2026-03-02T07:10:58.000Z</time></trkpt>
<trkpt lat="42.174509" lon="23.37517"><ele>2267.5</ele><time>2026-03-02T07:10:59.000Z</time></trkpt>
<trkpt lat="42.174509" lon="23.375171"><ele>2267.4</ele><time>2026-03-02T07:11:00.000Z</time></trkpt>
<trkpt lat="42.174508" lon="23.375172"><ele>2267.4</ele><time>2026-03-02T07:11:01.000Z</time></trkpt>
<trkpt lat="42.174508" lon="23.375173"><ele>2267.4</ele><time>2026-03-02T07:11:02.000Z</time></trkpt>
<trkpt lat="42.17451" lon="23.375176"><ele>2267.4</ele><time>2026-03-02T07:11:03.000Z</time></trkpt>
<trkpt lat="42.174513" lon="23.375179"><ele>2267.4</ele><time>2026-03-02T07:11:04.000Z</time></trkpt>
<trkpt lat="42.174515" lon="23.375182"><ele>2267.6</ele><time>2026-03-02T07:11:05.000Z</time></trkpt>
<trkpt lat="42.174516" lon="23.375184"><ele>2267.6</ele><time>2026-03-02T07:11:06.000Z</time></trkpt>
<trkpt lat="42.174516" lon="23.375185"><ele>2267.6</ele><time>2026-03-02T07:11:07.000Z</time></trkpt>
<trkpt lat="42.174516" lon="23.375185"><ele>2267.6</ele><time>2026-03-02T07:11:08.000Z</time></trkpt>
<trkpt lat="42.174514" lon="23.375185"><ele>2267.6</ele><time>2026-03-02T07:11:09.000Z</time></trkpt>
<trkpt lat="42.174514" lon="23.375185"><ele>2267.6</ele><time>2026-03-02T07:11:10.000Z</time></trkpt>
<trkpt lat="42.174514" lon="23.375184"><ele>2267.6</ele><time>2026-03-02T07:11:11.000Z</time></trkpt>
<trkpt lat="42.174515" lon="23.375184"><ele>2267.6</ele><time>2026-03-02T07:11:12.000Z</time></trkpt>
<trkpt lat="42.174517" lon="23.375184"><ele>2267.6</ele><time>2026-03-02T07:11:13.000Z</time></trkpt>
<trkpt lat="42.174518" lon="23.375184"><ele>2267.6</ele><time>2026-03-02T07:11:14.000Z</time></trkpt>
<trkpt lat="42.174521" lon="23.375184"><ele>2267.7</ele><time>2026-03-02T07:11:15.000Z</time></trkpt>
<trkpt lat="42.174523" lon="23.375185"><ele>2267.7</ele><time>2026-03-02T07:11:16.000Z</time></trkpt>
<trkpt lat="42.174525" lon="23.375185"><ele>2267.7</ele><time>2026-03-02T07:11:17.000Z</time></trkpt>
<trkpt lat="42.174526" lon="23.375185"><ele>2267.7</ele><time>2026-03-02T07:11:18.000Z</time></trkpt>
<trkpt lat="42.174526" lon="23.375185"><ele>2267.7</ele><time>2026-03-02T07:11:19.000Z</time></trkpt>
<trkpt lat="42.174526" lon="23.375185"><ele>2267.7</ele><time>2026-03-02T07:11:20.000Z</time></trkpt>
<trkpt lat="42.174526" lon="23.375185"><ele>2267.7</ele><time>2026-03-02T07:11:21.000Z</time></trkpt>
<trkpt lat="42.174525" lon="23.375185"><ele>2267.7</ele><time>2026-03-02T07:11:22.000Z</time></trkpt>
<trkpt lat="42.174523" lon="23.375185"><ele>2267.7</ele><time>2026-03-02T07:11:23.000Z</time></trkpt>
<trkpt lat="42.174521" lon="23.375184"><ele>2267.7</ele><time>2026-03-02T07:11:24.000Z</time></trkpt>
<trkpt lat="42.174519" lon="23.375183"><ele>2267.6</ele><time>2026-03-02T07:11:25.000Z</time></trkpt>
<trkpt lat="42.174517" lon="23.375182"><ele>2267.6</ele><time>2026-03-02T07:11:26.000Z</time></trkpt>
<trkpt lat="42.174516" lon="23.375181"><ele>2267.6</ele><time>2026-03-02T07:11:27.000Z</time></trkpt>
<trkpt lat="42.174517" lon="23.37518"><ele>2267.6</ele><time>2026-03-02T07:11:28.000Z</time></trkpt>
<trkpt lat="42.174518" lon="23.375179"><ele>2267.6</ele><time>2026-03-02T07:11:29.000Z</time></trkpt>
<trkpt lat="42.174519" lon="23.375179"><ele>2267.4</ele><time>2026-03-02T07:11:30.000Z</time></trkpt>
<trkpt lat="42.174519" lon="23.375179"><ele>2267.4</ele><time>2026-03-02T07:11:31.000Z</time></trkpt>
<trkpt lat="42.17452" lon="23.375179"><ele>2267.4</ele><time>2026-03-02T07:11:32.000Z</time></trkpt>
<trkpt lat="42.174521" lon="23.375179"><ele>2267.4</ele><time>2026-03-02T07:11:33.000Z</time></trkpt>
<trkpt lat="42.174521" lon="23.375179"><ele>2267.4</ele><time>2026-03-02T07:11:34.000Z</time></trkpt>
<trkpt lat="42.17452" lon="23.37518"><ele>2267.4</ele><time>2026-03-02T07:11:35.000Z</time></trkpt>
<trkpt lat="42.17452" lon="23.375181"><ele>2267.4</ele><time>2026-03-02T07:11:36.000Z</time></trkpt>
<trkpt lat="42.174519" lon="23.375183"><ele>2267.4</ele><time>2026-03-02T07:11:37.000Z</time></trkpt>
<trkpt lat="42.174518" lon="23.375183"><ele>2267.4</ele><time>2026-03-02T07:11:38.000Z</time></trkpt>
<trkpt lat="42.174518" lon="23.375183"><ele>2267.4</ele><time>2026-03-02T07:11:39.000Z</time></trkpt>
<trkpt lat="42.174517" lon="23.375182"><ele>2267.4</ele><time>2026-03-02T07:11:40.000Z</time></trkpt>
<trkpt lat="42.174517" lon="23.375182"><ele>2267.4</ele><time>2026-03-02T07:11:41.000Z</time></trkpt>
<trkpt lat="42.174517" lon="23.375181"><ele>2267.4</ele><time>2026-03-02T07:11:42.000Z</time></trkpt>
<trkpt lat="42.174517" lon="23.375181"><ele>2267.4</ele><time>2026-03-02T07:11:43.000Z</time></trkpt>
<trkpt lat="42.174518" lon="23.375182"><ele>2267.4</ele><time>2026-03-02T07:11:44.000Z</time></trkpt>
<trkpt lat="42.174519" lon="23.375184"><ele>2267.5</ele><time>2026-03-02T07:11:45.000Z</time></trkpt>
<trkpt lat="42.174521" lon="23.375184"><ele>2267.5</ele><time>2026-03-02T07:11:46.000Z</time></trkpt>
<trkpt lat="42.174522" lon="23.375185"><ele>2267.5</ele><time>2026-03-02T07:11:47.000Z</time></trkpt>
<trkpt lat="42.174524" lon="23.375185"><ele>2267.5</ele><time>2026-03-02T07:11:48.000Z</time></trkpt>
<trkpt lat="42.174526" lon="23.375186"><ele>2267.5</ele><time>2026-03-02T07:11:49.000Z</time></trkpt>
<trkpt lat="42.174527" lon="23.375186"><ele>2267.3</ele><time>2026-03-02T07:11:50.000Z</time></trkpt>
<trkpt lat="42.174528" lon="23.375187"><ele>2267.3</ele><time>2026-03-02T07:11:51.000Z</time></trkpt>
<trkpt lat="42.174529" lon="23.375188"><ele>2267.3</ele><time>2026-03-02T07:11:52.000Z</time></trkpt>
<trkpt lat="42.174529" lon="23.375188"><ele>2267.3</ele><time>2026-03-02T07:11:53.000Z</time></trkpt>
<trkpt lat="42.17453" lon="23.375189"><ele>2267.3</ele><time>2026-03-02T07:11:54.000Z</time></trkpt>
<trkpt lat="42.17453" lon="23.375189"><ele>2267.3</ele><time>2026-03-02T07:11:55.000Z</time></trkpt>
<trkpt lat="42.17453" lon="23.375189"><ele>2267.3</ele><time>2026-03-02T07:11:56.000Z</time></trkpt>
<trkpt lat="42.174531" lon="23.375189"><ele>2267.3</ele><time>2026-03-02T07:11:57.000Z</time></trkpt>
<trkpt lat="42.174532" lon="23.375188"><ele>2267.3</ele><time>2026-03-02T07:11:58.000Z</time></trkpt>
<trkpt lat="42.174533" lon="23.375188"><ele>2267.3</ele><time>2026-03-02T07:11:59.000Z</time></trkpt>
<trkpt lat="42.174533" lon="23.375187"><ele>2267.2</ele><time>2026-03-02T07:12:00.000Z</time></trkpt>
<trkpt lat="42.174533" lon="23.375187"><ele>2267.2</ele><time>2026-03-02T07:12:01.000Z</time></trkpt>
<trkpt lat="42.174532" lon="23.375186"><ele>2267.2</ele><time>2026-03-02T07:12:02.000Z</time></trkpt>
<trkpt lat="42.174532" lon="23.375186"><ele>2267.2</ele><time>2026-03-02T07:12:03.000Z</time></trkpt>
<trkpt lat="42.174531" lon="23.375186"><ele>2267.2</ele><time>2026-03-02T07:12:04.000Z</time></trkpt>
<trkpt lat="42.17453" lon="23.375186"><ele>2267.2</ele><time>2026-03-02T07:12:05.000Z</time></trkpt>
<trkpt lat="42.17453" lon="23.375186"><ele>2267.2</ele><time>2026-03-02T07:12:06.000Z</time></trkpt>
<trkpt lat="42.174529" lon="23.375186"><ele>2267.2</ele><time>2026-03-02T07:12:07.000Z</time></trkpt>
<trkpt lat="42.174529" lon="23.375186"><ele>2267.2</ele><time>2026-03-02T07:12:08.000Z</time></trkpt>
<trkpt lat="42.174529" lon="23.375186"><ele>2267.2</ele><time>2026-03-02T07:12:09.000Z</time></trkpt>
<trkpt lat="42.174529" lon="23.375186"><ele>2267.2</ele><time>2026-03-02T07:12:10.000Z</time></trkpt>
<trkpt lat="42.174529" lon="23.375186"><ele>2267.2</ele><time>2026-03-02T07:12:11.000Z</time></trkpt>
<trkpt lat="42.174529" lon="23.375186"><ele>2267.2</ele><time>2026-03-02T07:12:12.000Z</time></trkpt>
<trkpt lat="42.174529" lon="23.375186"><ele>2267.2</ele><time>2026-03-02T07:12:13.000Z</time></trkpt>
<trkpt lat="42.174529" lon="23.375186"><ele>2267.2</ele><time>2026-03-02T07:12:14.000Z</time></trkpt>
<trkpt lat="42.174529" lon="23.375186"><ele>2267.1</ele><time>2026-03-02T07:12:15.000Z</time></trkpt>
<trkpt lat="42.174529" lon="23.375186"><ele>2267.1</ele><time>2026-03-02T07:12:16.000Z</time></trkpt>
<trkpt lat="42.174529" lon="23.375186"><ele>2267.1</ele><time>2026-03-02T07:12:17.000Z</time></trkpt>
<trkpt lat="42.174529" lon="23.375186"><ele>2267.1</ele><time>2026-03-02T07:12:18.000Z</time></trkpt>
<trkpt lat="42.174529" lon="23.375186"><ele>2267.1</ele><time>2026-03-02T07:12:19.000Z</time></trkpt>
<trkpt lat="42.174529" lon="23.375186"><ele>2267</ele><time>2026-03-02T07:12:20.000Z</time></trkpt>
<trkpt lat="42.174529" lon="23.375186"><ele>2267</ele><time>2026-03-02T07:12:21.000Z</time></trkpt>
<trkpt lat="42.174529" lon="23.375186"><ele>2267</ele><time>2026-03-02T07:12:22.000Z</time></trkpt>
<trkpt lat="42.174529" lon="23.375186"><ele>2267</ele><time>2026-03-02T07:12:23.000Z</time></trkpt>
<trkpt lat="42.17453" lon="23.375186"><ele>2267</ele><time>2026-03-02T07:12:24.000Z</time></trkpt>
<trkpt lat="42.17453" lon="23.375187"><ele>2266.9</ele><time>2026-03-02T07:12:25.000Z</time></trkpt>
<trkpt lat="42.17453" lon="23.375187"><ele>2266.9</ele><time>2026-03-02T07:12:26.000Z</time></trkpt>
<trkpt lat="42.17453" lon="23.375188"><ele>2266.9</ele><time>2026-03-02T07:12:27.000Z</time></trkpt>
<trkpt lat="42.17453" lon="23.375188"><ele>2266.9</ele><time>2026-03-02T07:12:28.000Z</time></trkpt>
<trkpt lat="42.174531" lon="23.375189"><ele>2266.9</ele><time>2026-03-02T07:12:29.000Z</time></trkpt>
<trkpt lat="42.174531" lon="23.375189"><ele>2266.8</ele><time>2026-03-02T07:12:30.000Z</time></trkpt>
<trkpt lat="42.174532" lon="23.375189"><ele>2266.8</ele><time>2026-03-02T07:12:31.000Z</time></trkpt>
<trkpt lat="42.174532" lon="23.375188"><ele>2266.8</ele><time>2026-03-02T07:12:32.000Z</time></trkpt>
<trkpt lat="42.174532" lon="23.375187"><ele>2266.8</ele><time>2026-03-02T07:12:33.000Z</time></trkpt>
<trkpt lat="42.174531" lon="23.375186"><ele>2266.8</ele><time>2026-03-02T07:12:34.000Z</time></trkpt>
<trkpt lat="42.17453" lon="23.375186"><ele>2266.7</ele><time>2026-03-02T07:12:35.000Z</time></trkpt>
<trkpt lat="42.174529" lon="23.375185"><ele>2266.7</ele><time>2026-03-02T07:12:36.000Z</time></trkpt>
<trkpt lat="42.174528" lon="23.375186"><ele>2266.7</ele><time>2026-03-02T07:12:37.000Z</time></trkpt>
<trkpt lat="42.174527" lon="23.375186"><ele>2266.7</ele><time>2026-03-02T07:12:38.000Z</time></trkpt>
<trkpt lat="42.174526" lon="23.375187"><ele>2266.7</ele><time>2026-03-02T07:12:39.000Z</time></trkpt>
<trkpt lat="42.174526" lon="23.375188"><ele>2266.7</ele><time>2026-03-02T07:12:40.000Z</time></trkpt>
<trkpt lat="42.174526" lon="23.375189"><ele>2266.7</ele><time>2026-03-02T07:12:41.000Z</time></trkpt>
<trkpt lat="42.174526" lon="23.37519"><ele>2266.7</ele><time>2026-03-02T07:12:42.000Z</time></trkpt>
<trkpt lat="42.174526" lon="23.375191"><ele>2266.7</ele><time>2026-03-02T07:12:43.000Z</time></trkpt>
<trkpt lat="42.174526" lon="23.375192"><ele>2266.7</ele><time>2026-03-02T07:12:44.000Z</time></trkpt>
<trkpt lat="42.174526" lon="23.375192"><ele>2266.8</ele><time>2026-03-02T07:12:45.000Z</time></trkpt>
<trkpt lat="42.174525" lon="23.375192"><ele>2266.8</ele><time>2026-03-02T07:12:46.000Z</time></trkpt>
<trkpt lat="42.174524" lon="23.375192"><ele>2266.8</ele><time>2026-03-02T07:12:47.000Z</time></trkpt>
<trkpt lat="42.174524" lon="23.375192"><ele>2266.8</ele><time>2026-03-02T07:12:48.000Z</time></trkpt>
<trkpt lat="42.174523" lon="23.375193"><ele>2266.8</ele><time>2026-03-02T07:12:49.000Z</time></trkpt>
<trkpt lat="42.174522" lon="23.375195"><ele>2266.9</ele><time>2026-03-02T07:12:50.000Z</time></trkpt>
<trkpt lat="42.174523" lon="23.375196"><ele>2266.9</ele><time>2026-03-02T07:12:51.000Z</time></trkpt>
<trkpt lat="42.174525" lon="23.375198"><ele>2266.9</ele><time>2026-03-02T07:12:52.000Z</time></trkpt>
<trkpt lat="42.174527" lon="23.375199"><ele>2266.9</ele><time>2026-03-02T07:12:53.000Z</time></trkpt>
<trkpt lat="42.174529" lon="23.3752"><ele>2266.9</ele><time>2026-03-02T07:12:54.000Z</time></trkpt>
<trkpt lat="42.17453" lon="23.3752"><ele>2267</ele><time>2026-03-02T07:12:55.000Z</time></trkpt>
<trkpt lat="42.174531" lon="23.3752"><ele>2267</ele><time>2026-03-02T07:12:56.000Z</time></trkpt>
<trkpt lat="42.174532" lon="23.3752"><ele>2267</ele><time>2026-03-02T07:12:57.000Z</time></trkpt>
<trkpt lat="42.174532" lon="23.375199"><ele>2267</ele><time>2026-03-02T07:12:58.000Z</time></trkpt>
<trkpt lat="42.174534" lon="23.375198"><ele>2267</ele><time>2026-03-02T07:12:59.000Z</time></trkpt>
<trkpt lat="42.174535" lon="23.375196"><ele>2267.2</ele><time>2026-03-02T07:13:00.000Z</time></trkpt>
<trkpt lat="42.174537" lon="23.375194"><ele>2267.2</ele><time>2026-03-02T07:13:01.000Z</time></trkpt>
<trkpt lat="42.174537" lon="23.375191"><ele>2267.2</ele><time>2026-03-02T07:13:02.000Z</time></trkpt>
<trkpt lat="42.174537" lon="23.375187"><ele>2267.2</ele><time>2026-03-02T07:13:03.000Z</time></trkpt>
<trkpt lat="42.174537" lon="23.375185"><ele>2267.2</ele><time>2026-03-02T07:13:04.000Z</time></trkpt>
<trkpt lat="42.174535" lon="23.375184"><ele>2267.5</ele><time>2026-03-02T07:13:05.000Z</time></trkpt>
<trkpt lat="42.174534" lon="23.375183"><ele>2267.5</ele><time>2026-03-02T07:13:06.000Z</time></trkpt>
<trkpt lat="42.174532" lon="23.375183"><ele>2267.5</ele><time>2026-03-02T07:13:07.000Z</time></trkpt>
<trkpt lat="42.174531" lon="23.375183"><ele>2267.5</ele><time>2026-03-02T07:13:08.000Z</time></trkpt>
<trkpt lat="42.174529" lon="23.375184"><ele>2267.5</ele><time>2026-03-02T07:13:09.000Z</time></trkpt>
<trkpt lat="42.174528" lon="23.375183"><ele>2267.6</ele><time>2026-03-02T07:13:10.000Z</time></trkpt>
<trkpt lat="42.174528" lon="23.375182"><ele>2267.6</ele><time>2026-03-02T07:13:11.000Z</time></trkpt>
<trkpt lat="42.174528" lon="23.375181"><ele>2267.6</ele><time>2026-03-02T07:13:12.000Z</time></trkpt>
<trkpt lat="42.174528" lon="23.37518"><ele>2267.6</ele><time>2026-03-02T07:13:13.000Z</time></trkpt>
<trkpt lat="42.174528" lon="23.37518"><ele>2267.6</ele><time>2026-03-02T07:13:14.000Z</time></trkpt>
<trkpt lat="42.174528" lon="23.375179"><ele>2267.8</ele><time>2026-03-02T07:13:15.000Z</time></trkpt>
<trkpt lat="42.174528" lon="23.375179"><ele>2267.8</ele><time>2026-03-02T07:13:16.000Z</time></trkpt>
<trkpt lat="42.174528" lon="23.375179"><ele>2267.8</ele><time>2026-03-02T07:13:17.000Z</time></trkpt>
<trkpt lat="42.174527" lon="23.375179"><ele>2267.8</ele><time>2026-03-02T07:13:18.000Z</time></trkpt>
<trkpt lat="42.174527" lon="23.375179"><ele>2267.8</ele><time>2026-03-02T07:13:19.000Z</time></trkpt>
<trkpt lat="42.174527" lon="23.375178"><ele>2267.8</ele><time>2026-03-02T07:13:20.000Z</time></trkpt>
<trkpt lat="42.174529" lon="23.375177"><ele>2267.8</ele><time>2026-03-02T07:13:21.000Z</time></trkpt>
<trkpt lat="42.17453" lon="23.375176"><ele>2267.8</ele><time>2026-03-02T07:13:22.000Z</time></trkpt>
<trkpt lat="42.174531" lon="23.375174"><ele>2267.8</ele><time>2026-03-02T07:13:23.000Z</time></trkpt>
<trkpt lat="42.174532" lon="23.375173"><ele>2267.8</ele><time>2026-03-02T07:13:24.000Z</time></trkpt>
<trkpt lat="42.174532" lon="23.375171"><ele>2267.8</ele><time>2026-03-02T07:13:25.000Z</time></trkpt>
<trkpt lat="42.174529" lon="23.375168"><ele>2267.8</ele><time>2026-03-02T07:13:26.000Z</time></trkpt>
<trkpt lat="42.174526" lon="23.375165"><ele>2267.8</ele><time>2026-03-02T07:13:27.000Z</time></trkpt>
<trkpt lat="42.174523" lon="23.375162"><ele>2267.8</ele><time>2026-03-02T07:13:28.000Z</time></trkpt>
<trkpt lat="42.174522" lon="23.375159"><ele>2267.8</ele><time>2026-03-02T07:13:29.000Z</time></trkpt>
<trkpt lat="42.174521" lon="23.375158"><ele>2267.6</ele><time>2026-03-02T07:13:30.000Z</time></trkpt>
<trkpt lat="42.174523" lon="23.375157"><ele>2267.6</ele><time>2026-03-02T07:13:31.000Z</time></trkpt>
<trkpt lat="42.174527" lon="23.375157"><ele>2267.6</ele><time>2026-03-02T07:13:32.000Z</time></trkpt>
<trkpt lat="42.174529" lon="23.375158"><ele>2267.6</ele><time>2026-03-02T07:13:33.000Z</time></trkpt>
<trkpt lat="42.17453" lon="23.375157"><ele>2267.6</ele><time>2026-03-02T07:13:34.000Z</time></trkpt>
<trkpt lat="42.174531" lon="23.375157"><ele>2267.5</ele><time>2026-03-02T07:13:35.000Z</time></trkpt>
<trkpt lat="42.174532" lon="23.375156"><ele>2267.5</ele><time>2026-03-02T07:13:36.000Z</time></trkpt>
<trkpt lat="42.174532" lon="23.375156"><ele>2267.5</ele><time>2026-03-02T07:13:37.000Z</time></trkpt>
<trkpt lat="42.174534" lon="23.375154"><ele>2267.5</ele><time>2026-03-02T07:13:38.000Z</time></trkpt>
<trkpt lat="42.174535" lon="23.375153"><ele>2267.5</ele><time>2026-03-02T07:13:39.000Z</time></trkpt>
<trkpt lat="42.174536" lon="23.375151"><ele>2267.7</ele><time>2026-03-02T07:13:40.000Z</time></trkpt>
<trkpt lat="42.174537" lon="23.375149"><ele>2267.7</ele><time>2026-03-02T07:13:41.000Z</time></trkpt>
<trkpt lat="42.174539" lon="23.375146"><ele>2267.7</ele><time>2026-03-02T07:13:42.000Z</time></trkpt>
<trkpt lat="42.174541" lon="23.375143"><ele>2267.7</ele><time>2026-03-02T07:13:43.000Z</time></trkpt>
<trkpt lat="42.174544" lon="23.375141"><ele>2267.7</ele><time>2026-03-02T07:13:44.000Z</time></trkpt>
<trkpt lat="42.174546" lon="23.375139"><ele>2268</ele><time>2026-03-02T07:13:45.000Z</time></trkpt>
<trkpt lat="42.174547" lon="23.375138"><ele>2268</ele><time>2026-03-02T07:13:46.000Z</time></trkpt>
<trkpt lat="42.174548" lon="23.375138"><ele>2268</ele><time>2026-03-02T07:13:47.000Z</time></trkpt>
<trkpt lat="42.174548" lon="23.375138"><ele>2268</ele><time>2026-03-02T07:13:48.000Z</time></trkpt>
<trkpt lat="42.174549" lon="23.375139"><ele>2268</ele><time>2026-03-02T07:13:49.000Z</time></trkpt>
<trkpt lat="42.174549" lon="23.37514"><ele>2268.2</ele><time>2026-03-02T07:13:50.000Z</time></trkpt>
<trkpt lat="42.174549" lon="23.375141"><ele>2268.2</ele><time>2026-03-02T07:13:51.000Z</time></trkpt>
<trkpt lat="42.174549" lon="23.375143"><ele>2268.2</ele><time>2026-03-02T07:13:52.000Z</time></trkpt>
<trkpt lat="42.174548" lon="23.375143"><ele>2268.2</ele><time>2026-03-02T07:13:53.000Z</time></trkpt>
<trkpt lat="42.174548" lon="23.375145"><ele>2268.2</ele><time>2026-03-02T07:13:54.000Z</time></trkpt>
<trkpt lat="42.174547" lon="23.375146"><ele>2268.2</ele><time>2026-03-02T07:13:55.000Z</time></trkpt>
<trkpt lat="42.174544" lon="23.375148"><ele>2268.2</ele><time>2026-03-02T07:13:56.000Z</time></trkpt>
<trkpt lat="42.174539" lon="23.375151"><ele>2268.2</ele><time>2026-03-02T07:13:57.000Z</time></trkpt>
<trkpt lat="42.174535" lon="23.375153"><ele>2268.2</ele><time>2026-03-02T07:13:58.000Z</time></trkpt>
<trkpt lat="42.17453" lon="23.375155"><ele>2268.2</ele><time>2026-03-02T07:13:59.000Z</time></trkpt>
<trkpt lat="42.174525" lon="23.375157"><ele>2268.3</ele><time>2026-03-02T07:14:00.000Z</time></trkpt>
<trkpt lat="42.174523" lon="23.375156"><ele>2268.3</ele><time>2026-03-02T07:14:01.000Z</time></trkpt>
<trkpt lat="42.174523" lon="23.375155"><ele>2268.3</ele><time>2026-03-02T07:14:02.000Z</time></trkpt>
<trkpt lat="42.174523" lon="23.375154"><ele>2268.3</ele><time>2026-03-02T07:14:03.000Z</time></trkpt>
<trkpt lat="42.174523" lon="23.375154"><ele>2268.3</ele><time>2026-03-02T07:14:04.000Z</time></trkpt>
<trkpt lat="42.174525" lon="23.375154"><ele>2268.1</ele><time>2026-03-02T07:14:05.000Z</time></trkpt>
<trkpt lat="42.174525" lon="23.375154"><ele>2268.1</ele><time>2026-03-02T07:14:06.000Z</time></trkpt>
<trkpt lat="42.174525" lon="23.375153"><ele>2268.1</ele><time>2026-03-02T07:14:07.000Z</time></trkpt>
<trkpt lat="42.174527" lon="23.375153"><ele>2268.1</ele><time>2026-03-02T07:14:08.000Z</time></trkpt>
<trkpt lat="42.17453" lon="23.375153"><ele>2268.1</ele><time>2026-03-02T07:14:09.000Z</time></trkpt>
<trkpt lat="42.174532" lon="23.375155"><ele>2268</ele><time>2026-03-02T07:14:10.000Z</time></trkpt>
<trkpt lat="42.174535" lon="23.375156"><ele>2268</ele><time>2026-03-02T07:14:11.000Z</time></trkpt>
<trkpt lat="42.174538" lon="23.375159"><ele>2268</ele><time>2026-03-02T07:14:12.000Z</time></trkpt>
<trkpt lat="42.174539" lon="23.375162"><ele>2268</ele><time>2026-03-02T07:14:13.000Z</time></trkpt>
<trkpt lat="42.174539" lon="23.375166"><ele>2268</ele><time>2026-03-02T07:14:14.000Z</time></trkpt>
<trkpt lat="42.17454" lon="23.375168"><ele>2267.8</ele><time>2026-03-02T07:14:15.000Z</time></trkpt>
<trkpt lat="42.174541" lon="23.375169"><ele>2267.8</ele><time>2026-03-02T07:14:16.000Z</time></trkpt>
<trkpt lat="42.174544" lon="23.375168"><ele>2267.8</ele><time>2026-03-02T07:14:17.000Z</time></trkpt>
<trkpt lat="42.174547" lon="23.375167"><ele>2267.8</ele><time>2026-03-02T07:14:18.000Z</time></trkpt>
<trkpt lat="42.174549" lon="23.375164"><ele>2267.8</ele><time>2026-03-02T07:14:19.000Z</time></trkpt>
<trkpt lat="42.17455" lon="23.375162"><ele>2267.6</ele><time>2026-03-02T07:14:20.000Z</time></trkpt>
<trkpt lat="42.174549" lon="23.375162"><ele>2267.6</ele><time>2026-03-02T07:14:21.000Z</time></trkpt>
<trkpt lat="42.174547" lon="23.375162"><ele>2267.6</ele><time>2026-03-02T07:14:22.000Z</time></trkpt>
<trkpt lat="42.174545" lon="23.375163"><ele>2267.6</ele><time>2026-03-02T07:14:23.000Z</time></trkpt>
<trkpt lat="42.174543" lon="23.375164"><ele>2267.6</ele><time>2026-03-02T07:14:24.000Z</time></trkpt>
<trkpt lat="42.174542" lon="23.375166"><ele>2267.7</ele><time>2026-03-02T07:14:25.000Z</time></trkpt>
<trkpt lat="42.174541" lon="23.375169"><ele>2267.7</ele><time>2026-03-02T07:14:26.000Z</time></trkpt>
<trkpt lat="42.174539" lon="23.375172"><ele>2267.7</ele><time>2026-03-02T07:14:27.000Z</time></trkpt>
<trkpt lat="42.174537" lon="23.375174"><ele>2267.7</ele><time>2026-03-02T07:14:28.000Z</time></trkpt>
<trkpt lat="42.174535" lon="23.375174"><ele>2267.7</ele><time>2026-03-02T07:14:29.000Z</time></trkpt>
<trkpt lat="42.174535" lon="23.375174"><ele>2267.9</ele><time>2026-03-02T07:14:30.000Z</time></trkpt>
<trkpt lat="42.174538" lon="23.375172"><ele>2267.9</ele><time>2026-03-02T07:14:31.000Z</time></trkpt>
<trkpt lat="42.174543" lon="23.375168"><ele>2267.9</ele><time>2026-03-02T07:14:32.000Z</time></trkpt>
<trkpt lat="42.174548" lon="23.375166"><ele>2267.9</ele><time>2026-03-02T07:14:33.000Z</time></trkpt>
<trkpt lat="42.174553" lon="23.375165"><ele>2267.9</ele><time>2026-03-02T07:14:34.000Z</time></trkpt>
<trkpt lat="42.174558" lon="23.375163"><ele>2268</ele><time>2026-03-02T07:14:35.000Z</time></trkpt>
<trkpt lat="42.17456" lon="23.375162"><ele>2268</ele><time>2026-03-02T07:14:36.000Z</time></trkpt>
<trkpt lat="42.174562" lon="23.375161"><ele>2268</ele><time>2026-03-02T07:14:37.000Z</time></trkpt>
<trkpt lat="42.174562" lon="23.37516"><ele>2268</ele><time>2026-03-02T07:14:38.000Z</time></trkpt>
<trkpt lat="42.174563" lon="23.375159"><ele>2268</ele><time>2026-03-02T07:14:39.000Z</time></trkpt>
<trkpt lat="42.174563" lon="23.375157"><ele>2268</ele><time>2026-03-02T07:14:40.000Z</time></trkpt>
<trkpt lat="42.174562" lon="23.375156"><ele>2268</ele><time>2026-03-02T07:14:41.000Z</time></trkpt>
<trkpt lat="42.17456" lon="23.375154"><ele>2268</ele><time>2026-03-02T07:14:42.000Z</time></trkpt>
<trkpt lat="42.174558" lon="23.375152"><ele>2268</ele><time>2026-03-02T07:14:43.000Z</time></trkpt>
<trkpt lat="42.174556" lon="23.375149"><ele>2268</ele><time>2026-03-02T07:14:44.000Z</time></trkpt>
<trkpt lat="42.174555" lon="23.375147"><ele>2268.1</ele><time>2026-03-02T07:14:45.000Z</time></trkpt>
<trkpt lat="42.174555" lon="23.375145"><ele>2268.1</ele><time>2026-03-02T07:14:46.000Z</time></trkpt>
<trkpt lat="42.174554" lon="23.375144"><ele>2268.1</ele><time>2026-03-02T07:14:47.000Z</time></trkpt>
<trkpt lat="42.174553" lon="23.375143"><ele>2268.1</ele><time>2026-03-02T07:14:48.000Z</time></trkpt>
<trkpt lat="42.174552" lon="23.375142"><ele>2268.1</ele><time>2026-03-02T07:14:49.000Z</time></trkpt>
<trkpt lat="42.174551" lon="23.375141"><ele>2268.3</ele><time>2026-03-02T07:14:50.000Z</time></trkpt>
<trkpt lat="42.17455" lon="23.375141"><ele>2268.3</ele><time>2026-03-02T07:14:51.000Z</time></trkpt>
<trkpt lat="42.17455" lon="23.375141"><ele>2268.3</ele><time>2026-03-02T07:14:52.000Z</time></trkpt>
<trkpt lat="42.174551" lon="23.375141"><ele>2268.3</ele><time>2026-03-02T07:14:53.000Z</time></trkpt>
<trkpt lat="42.174552" lon="23.375142"><ele>2268.3</ele><time>2026-03-02T07:14:54.000Z</time></trkpt>
<trkpt lat="42.174552" lon="23.375142"><ele>2268.4</ele><time>2026-03-02T07:14:55.000Z</time></trkpt>
<trkpt lat="42.174553" lon="23.375142"><ele>2268.4</ele><time>2026-03-02T07:14:56.000Z</time></trkpt>
<trkpt lat="42.174553" lon="23.375142"><ele>2268.4</ele><time>2026-03-02T07:14:57.000Z</time></trkpt>
<trkpt lat="42.174553" lon="23.375141"><ele>2268.4</ele><time>2026-03-02T07:14:58.000Z</time></trkpt>
<trkpt lat="42.174553" lon="23.375142"><ele>2268.4</ele><time>2026-03-02T07:14:59.000Z</time></trkpt>
<trkpt lat="42.174553" lon="23.375143"><ele>2268.4</ele><time>2026-03-02T07:15:00.000Z</time></trkpt>
<trkpt lat="42.174553" lon="23.375146"><ele>2268.4</ele><time>2026-03-02T07:15:01.000Z</time></trkpt>
<trkpt lat="42.174551" lon="23.375149"><ele>2268.4</ele><time>2026-03-02T07:15:02.000Z</time></trkpt>
<trkpt lat="42.174551" lon="23.375153"><ele>2268.4</ele><time>2026-03-02T07:15:03.000Z</time></trkpt>
<trkpt lat="42.174551" lon="23.375156"><ele>2268.4</ele><time>2026-03-02T07:15:04.000Z</time></trkpt>
<trkpt lat="42.17455" lon="23.375158"><ele>2268.1</ele><time>2026-03-02T07:15:05.000Z</time></trkpt>
<trkpt lat="42.17455" lon="23.375161"><ele>2268.1</ele><time>2026-03-02T07:15:06.000Z</time></trkpt>
<trkpt lat="42.174553" lon="23.375162"><ele>2268.1</ele><time>2026-03-02T07:15:07.000Z</time></trkpt>
<trkpt lat="42.174556" lon="23.375163"><ele>2268.1</ele><time>2026-03-02T07:15:08.000Z</time></trkpt>
<trkpt lat="42.174559" lon="23.375165"><ele>2268.1</ele><time>2026-03-02T07:15:09.000Z</time></trkpt>
<trkpt lat="42.174563" lon="23.375166"><ele>2267.8</ele><time>2026-03-02T07:15:10.000Z</time></trkpt>
<trkpt lat="42.174565" lon="23.375167"><ele>2267.8</ele><time>2026-03-02T07:15:11.000Z</time></trkpt>
<trkpt lat="42.174566" lon="23.375169"><ele>2267.8</ele><time>2026-03-02T07:15:12.000Z</time></trkpt>
<trkpt lat="42.174565" lon="23.37517"><ele>2267.8</ele><time>2026-03-02T07:15:13.000Z</time></trkpt>
<trkpt lat="42.174563" lon="23.375171"><ele>2267.8</ele><time>2026-03-02T07:15:14.000Z</time></trkpt>
<trkpt lat="42.174561" lon="23.375171"><ele>2267.6</ele><time>2026-03-02T07:15:15.000Z</time></trkpt>
<trkpt lat="42.17456" lon="23.375172"><ele>2267.6</ele><time>2026-03-02T07:15:16.000Z</time></trkpt>
<trkpt lat="42.17456" lon="23.375172"><ele>2267.6</ele><time>2026-03-02T07:15:17.000Z</time></trkpt>
<trkpt lat="42.17456" lon="23.375172"><ele>2267.6</ele><time>2026-03-02T07:15:18.000Z</time></trkpt>
<trkpt lat="42.17456" lon="23.375171"><ele>2267.6</ele><time>2026-03-02T07:15:19.000Z</time></trkpt>
<trkpt lat="42.17456" lon="23.375172"><ele>2267.6</ele><time>2026-03-02T07:15:20.000Z</time></trkpt>
<trkpt lat="42.17456" lon="23.375172"><ele>2267.6</ele><time>2026-03-02T07:15:21.000Z</time></trkpt>
<trkpt lat="42.17456" lon="23.375173"><ele>2267.6</ele><time>2026-03-02T07:15:22.000Z</time></trkpt>
<trkpt lat="42.174559" lon="23.375173"><ele>2267.6</ele><time>2026-03-02T07:15:23.000Z</time></trkpt>
<trkpt lat="42.174559" lon="23.375173"><ele>2267.6</ele><time>2026-03-02T07:15:24.000Z</time></trkpt>
<trkpt lat="42.174559" lon="23.375173"><ele>2267.6</ele><time>2026-03-02T07:15:25.000Z</time></trkpt>
<trkpt lat="42.174559" lon="23.375173"><ele>2267.6</ele><time>2026-03-02T07:15:26.000Z</time></trkpt>
<trkpt lat="42.174558" lon="23.375173"><ele>2267.6</ele><time>2026-03-02T07:15:27.000Z</time></trkpt>
<trkpt lat="42.174557" lon="23.375173"><ele>2267.6</ele><time>2026-03-02T07:15:28.000Z</time></trkpt>
<trkpt lat="42.174556" lon="23.375173"><ele>2267.6</ele><time>2026-03-02T07:15:29.000Z</time></trkpt>
<trkpt lat="42.174556" lon="23.375174"><ele>2267.6</ele><time>2026-03-02T07:15:30.000Z</time></trkpt>
<trkpt lat="42.174554" lon="23.375174"><ele>2267.6</ele><time>2026-03-02T07:15:31.000Z</time></trkpt>
<trkpt lat="42.174553" lon="23.375174"><ele>2267.6</ele><time>2026-03-02T07:15:32.000Z</time></trkpt>
<trkpt lat="42.174551" lon="23.375174"><ele>2267.6</ele><time>2026-03-02T07:15:33.000Z</time></trkpt>
<trkpt lat="42.174549" lon="23.375174"><ele>2267.6</ele><time>2026-03-02T07:15:34.000Z</time></trkpt>
<trkpt lat="42.174547" lon="23.375173"><ele>2267.6</ele><time>2026-03-02T07:15:35.000Z</time></trkpt>
<trkpt lat="42.174545" lon="23.375172"><ele>2267.6</ele><time>2026-03-02T07:15:36.000Z</time></trkpt>
<trkpt lat="42.174544" lon="23.375172"><ele>2267.6</ele><time>2026-03-02T07:15:37.000Z</time></trkpt>
<trkpt lat="42.174544" lon="23.375172"><ele>2267.6</ele><time>2026-03-02T07:15:38.000Z</time></trkpt>
<trkpt lat="42.174543" lon="23.375173"><ele>2267.6</ele><time>2026-03-02T07:15:39.000Z</time></trkpt>
<trkpt lat="42.174543" lon="23.375173"><ele>2267.7</ele><time>2026-03-02T07:15:40.000Z</time></trkpt>
<trkpt lat="42.174543" lon="23.375174"><ele>2267.7</ele><time>2026-03-02T07:15:41.000Z</time></trkpt>
<trkpt lat="42.174543" lon="23.375174"><ele>2267.7</ele><time>2026-03-02T07:15:42.000Z</time></trkpt>
<trkpt lat="42.174543" lon="23.375174"><ele>2267.7</ele><time>2026-03-02T07:15:43.000Z</time></trkpt>
<trkpt lat="42.174543" lon="23.375174"><ele>2267.7</ele><time>2026-03-02T07:15:44.000Z</time></trkpt>
<trkpt lat="42.174542" lon="23.375174"><ele>2268</ele><time>2026-03-02T07:15:45.000Z</time></trkpt>
<trkpt lat="42.174539" lon="23.375174"><ele>2268</ele><time>2026-03-02T07:15:46.000Z</time></trkpt>
<trkpt lat="42.174537" lon="23.375174"><ele>2268</ele><time>2026-03-02T07:15:47.000Z</time></trkpt>
<trkpt lat="42.174533" lon="23.375172"><ele>2268</ele><time>2026-03-02T07:15:48.000Z</time></trkpt>
<trkpt lat="42.17453" lon="23.375171"><ele>2268</ele><time>2026-03-02T07:15:49.000Z</time></trkpt>
<trkpt lat="42.174527" lon="23.375171"><ele>2268.1</ele><time>2026-03-02T07:15:50.000Z</time></trkpt>
<trkpt lat="42.174525" lon="23.375171"><ele>2268.1</ele><time>2026-03-02T07:15:51.000Z</time></trkpt>
<trkpt lat="42.174522" lon="23.375172"><ele>2268.1</ele><time>2026-03-02T07:15:52.000Z</time></trkpt>
<trkpt lat="42.174518" lon="23.375173"><ele>2268.1</ele><time>2026-03-02T07:15:53.000Z</time></trkpt>
<trkpt lat="42.174513" lon="23.375175"><ele>2268.1</ele><time>2026-03-02T07:15:54.000Z</time></trkpt>
<trkpt lat="42.174507" lon="23.375176"><ele>2268.1</ele><time>2026-03-02T07:15:55.000Z</time></trkpt>
<trkpt lat="42.1745" lon="23.375176"><ele>2268.1</ele><time>2026-03-02T07:15:56.000Z</time></trkpt>
<trkpt lat="42.174493" lon="23.375178"><ele>2268.1</ele><time>2026-03-02T07:15:57.000Z</time></trkpt>
<trkpt lat="42.174487" lon="23.375181"><ele>2268.1</ele><time>2026-03-02T07:15:58.000Z</time></trkpt>
<trkpt lat="42.17448" lon="23.375184"><ele>2268.1</ele><time>2026-03-02T07:15:59.000Z</time></trkpt>
<trkpt lat="42.174473" lon="23.375187"><ele>2268.3</ele><time>2026-03-02T07:16:00.000Z</time></trkpt>
<trkpt lat="42.174466" lon="23.375191"><ele>2268.3</ele><time>2026-03-02T07:16:01.000Z</time></trkpt>
<trkpt lat="42.174459" lon="23.375193"><ele>2268.3</ele><time>2026-03-02T07:16:02.000Z</time></trkpt>
<trkpt lat="42.174453" lon="23.375195"><ele>2268.3</ele><time>2026-03-02T07:16:03.000Z</time></trkpt>
<trkpt lat="42.174446" lon="23.375198"><ele>2268.3</ele><time>2026-03-02T07:16:04.000Z</time></trkpt>
<trkpt lat="42.17444" lon="23.3752"><ele>2269</ele><time>2026-03-02T07:16:05.000Z</time></trkpt>
<trkpt lat="42.174434" lon="23.375202"><ele>2269</ele><time>2026-03-02T07:16:06.000Z</time></trkpt>
<trkpt lat="42.174428" lon="23.375203"><ele>2269</ele><time>2026-03-02T07:16:07.000Z</time></trkpt>
<trkpt lat="42.174422" lon="23.375205"><ele>2269</ele><time>2026-03-02T07:16:08.000Z</time></trkpt>
<trkpt lat="42.174416" lon="23.375208"><ele>2269</ele><time>2026-03-02T07:16:09.000Z</time></trkpt>
<trkpt lat="42.174409" lon="23.375209"><ele>2269.6</ele><time>2026-03-02T07:16:10.000Z</time></trkpt>
<trkpt lat="42.174403" lon="23.37521"><ele>2269.6</ele><time>2026-03-02T07:16:11.000Z</time></trkpt>
<trkpt lat="42.174398" lon="23.37521"><ele>2269.6</ele><time>2026-03-02T07:16:12.000Z</time></trkpt>
<trkpt lat="42.174392" lon="23.375208"><ele>2269.6</ele><time>2026-03-02T07:16:13.000Z</time></trkpt>
<trkpt lat="42.174386" lon="23.375207"><ele>2269.6</ele><time>2026-03-02T07:16:14.000Z</time></trkpt>
<trkpt lat="42.174381" lon="23.375206"><ele>2271.2</ele><time>2026-03-02T07:16:15.000Z</time></trkpt>
<trkpt lat="42.174376" lon="23.375205"><ele>2271.2</ele><time>2026-03-02T07:16:16.000Z</time></trkpt>
<trkpt lat="42.174371" lon="23.375205"><ele>2271.2</ele><time>2026-03-02T07:16:17.000Z</time></trkpt>
<trkpt lat="42.174367" lon="23.375205"><ele>2271.2</ele><time>2026-03-02T07:16:18.000Z</time></trkpt>
<trkpt lat="42.174364" lon="23.375204"><ele>2271.2</ele><time>2026-03-02T07:16:19.000Z</time></trkpt>
<trkpt lat="42.17436" lon="23.375202"><ele>2273.1</ele><time>2026-03-02T07:16:20.000Z</time></trkpt>
<trkpt lat="42.174356" lon="23.375202"><ele>2273.1</ele><time>2026-03-02T07:16:21.000Z</time></trkpt>
<trkpt lat="42.174352" lon="23.375203"><ele>2273.1</ele><time>2026-03-02T07:16:22.000Z</time></trkpt>
<trkpt lat="42.174348" lon="23.375204"><ele>2273.1</ele><time>2026-03-02T07:16:23.000Z</time></trkpt>
<trkpt lat="42.174344" lon="23.375205"><ele>2273.1</ele><time>2026-03-02T07:16:24.000Z</time></trkpt>
<trkpt lat="42.17434" lon="23.375207"><ele>2274.1</ele><time>2026-03-02T07:16:25.000Z</time></trkpt>
<trkpt lat="42.174336" lon="23.375209"><ele>2274.1</ele><time>2026-03-02T07:16:26.000Z</time></trkpt>
<trkpt lat="42.174331" lon="23.37521"><ele>2274.1</ele><time>2026-03-02T07:16:27.000Z</time></trkpt>
<trkpt lat="42.174329" lon="23.37521"><ele>2274.1</ele><time>2026-03-02T07:16:28.000Z</time></trkpt>
<trkpt lat="42.174327" lon="23.375212"><ele>2274.1</ele><time>2026-03-02T07:16:29.000Z</time></trkpt>
<trkpt lat="42.174324" lon="23.375214"><ele>2275.6</ele><time>2026-03-02T07:16:30.000Z</time></trkpt>
<trkpt lat="42.174321" lon="23.375215"><ele>2275.6</ele><time>2026-03-02T07:16:31.000Z</time></trkpt>
<trkpt lat="42.174319" lon="23.375216"><ele>2275.6</ele><time>2026-03-02T07:16:32.000Z</time></trkpt>
<trkpt lat="42.174314" lon="23.375218"><ele>2275.6</ele><time>2026-03-02T07:16:33.000Z</time></trkpt>
<trkpt lat="42.174309" lon="23.375219"><ele>2275.6</ele><time>2026-03-02T07:16:34.000Z</time></trkpt>
<trkpt lat="42.174304" lon="23.375219"><ele>2276.8</ele><time>2026-03-02T07:16:35.000Z</time></trkpt>
<trkpt lat="42.174298" lon="23.375221"><ele>2276.8</ele><time>2026-03-02T07:16:36.000Z</time></trkpt>
<trkpt lat="42.174293" lon="23.375221"><ele>2276.8</ele><time>2026-03-02T07:16:37.000Z</time></trkpt>
<trkpt lat="42.174289" lon="23.375222"><ele>2276.8</ele><time>2026-03-02T07:16:38.000Z</time></trkpt>
<trkpt lat="42.174285" lon="23.375222"><ele>2276.8</ele><time>2026-03-02T07:16:39.000Z</time></trkpt>
<trkpt lat="42.174282" lon="23.375224"><ele>2277.3</ele><time>2026-03-02T07:16:40.000Z</time></trkpt>
<trkpt lat="42.174279" lon="23.375225"><ele>2277.3</ele><time>2026-03-02T07:16:41.000Z</time></trkpt>
<trkpt lat="42.174276" lon="23.375227"><ele>2277.3</ele><time>2026-03-02T07:16:42.000Z</time></trkpt>
<trkpt lat="42.174272" lon="23.375228"><ele>2277.3</ele><time>2026-03-02T07:16:43.000Z</time></trkpt>
<trkpt lat="42.174269" lon="23.375229"><ele>2277.3</ele><time>2026-03-02T07:16:44.000Z</time></trkpt>
<trkpt lat="42.174265" lon="23.37523"><ele>2278.3</ele><time>2026-03-02T07:16:45.000Z</time></trkpt>
<trkpt lat="42.174261" lon="23.375232"><ele>2278.3</ele><time>2026-03-02T07:16:46.000Z</time></trkpt>
<trkpt lat="42.174258" lon="23.375234"><ele>2278.3</ele><time>2026-03-02T07:16:47.000Z</time></trkpt>
<trkpt lat="42.174255" lon="23.375236"><ele>2278.3</ele><time>2026-03-02T07:16:48.000Z</time></trkpt>
<trkpt lat="42.17425" lon="23.375239"><ele>2278.3</ele><time>2026-03-02T07:16:49.000Z</time></trkpt>
<trkpt lat="42.174247" lon="23.37524"><ele>2279.6</ele><time>2026-03-02T07:16:50.000Z</time></trkpt>
<trkpt lat="42.174243" lon="23.37524"><ele>2279.6</ele><time>2026-03-02T07:16:51.000Z</time></trkpt>
<trkpt lat="42.17424" lon="23.375241"><ele>2279.6</ele><time>2026-03-02T07:16:52.000Z</time></trkpt>
<trkpt lat="42.174235" lon="23.375242"><ele>2279.6</ele><time>2026-03-02T07:16:53.000Z</time></trkpt>
<trkpt lat="42.174231" lon="23.375243"><ele>2279.6</ele><time>2026-03-02T07:16:54.000Z</time></trkpt>
<trkpt lat="42.174227" lon="23.375246"><ele>2280.2</ele><time>2026-03-02T07:16:55.000Z</time></trkpt>
<trkpt lat="42.174221" lon="23.375248"><ele>2280.2</ele><time>2026-03-02T07:16:56.000Z</time></trkpt>
<trkpt lat="42.174214" lon="23.37525"><ele>2280.2</ele><time>2026-03-02T07:16:57.000Z</time></trkpt>
<trkpt lat="42.17421" lon="23.375251"><ele>2280.2</ele><time>2026-03-02T07:16:58.000Z</time></trkpt>
<trkpt lat="42.174205" lon="23.375252"><ele>2280.2</ele><time>2026-03-02T07:16:59.000Z</time></trkpt>
<trkpt lat="42.1742" lon="23.375252"><ele>2281.5</ele><time>2026-03-02T07:17:00.000Z</time></trkpt>
<trkpt lat="42.174196" lon="23.375253"><ele>2281.5</ele><time>2026-03-02T07:17:01.000Z</time></trkpt>
<trkpt lat="42.174193" lon="23.375254"><ele>2281.5</ele><time>2026-03-02T07:17:02.000Z</time></trkpt>
<trkpt lat="42.174189" lon="23.375256"><ele>2281.5</ele><time>2026-03-02T07:17:03.000Z</time></trkpt>
<trkpt lat="42.174186" lon="23.375257"><ele>2281.5</ele><time>2026-03-02T07:17:04.000Z</time></trkpt>
<trkpt lat="42.174184" lon="23.375259"><ele>2282.6</ele><time>2026-03-02T07:17:05.000Z</time></trkpt>
<trkpt lat="42.174183" lon="23.37526"><ele>2282.6</ele><time>2026-03-02T07:17:06.000Z</time></trkpt>
<trkpt lat="42.174182" lon="23.375261"><ele>2282.6</ele><time>2026-03-02T07:17:07.000Z</time></trkpt>
<trkpt lat="42.174179" lon="23.375263"><ele>2282.6</ele><time>2026-03-02T07:17:08.000Z</time></trkpt>
<trkpt lat="42.174176" lon="23.375264"><ele>2282.6</ele><time>2026-03-02T07:17:09.000Z</time></trkpt>
<trkpt lat="42.174171" lon="23.375266"><ele>2283.1</ele><time>2026-03-02T07:17:10.000Z</time></trkpt>
<trkpt lat="42.174167" lon="23.375268"><ele>2283.1</ele><time>2026-03-02T07:17:11.000Z</time></trkpt>
<trkpt lat="42.174163" lon="23.375271"><ele>2283.1</ele><time>2026-03-02T07:17:12.000Z</time></trkpt>
<trkpt lat="42.17416" lon="23.375272"><ele>2283.1</ele><time>2026-03-02T07:17:13.000Z</time></trkpt>
<trkpt lat="42.174157" lon="23.375275"><ele>2283.1</ele><time>2026-03-02T07:17:14.000Z</time></trkpt>
<trkpt lat="42.174153" lon="23.375276"><ele>2284</ele><time>2026-03-02T07:17:15.000Z</time></trkpt>
<trkpt lat="42.174149" lon="23.375278"><ele>2284</ele><time>2026-03-02T07:17:16.000Z</time></trkpt>
<trkpt lat="42.174144" lon="23.37528"><ele>2284</ele><time>2026-03-02T07:17:17.000Z</time></trkpt>
<trkpt lat="42.174139" lon="23.375283"><ele>2284</ele><time>2026-03-02T07:17:18.000Z</time></trkpt>
<trkpt lat="42.174134" lon="23.375286"><ele>2284</ele><time>2026-03-02T07:17:19.000Z</time></trkpt>
<trkpt lat="42.174131" lon="23.375289"><ele>2284.9</ele><time>2026-03-02T07:17:20.000Z</time></trkpt>
<trkpt lat="42.174127" lon="23.375292"><ele>2284.9</ele><time>2026-03-02T07:17:21.000Z</time></trkpt>
<trkpt lat="42.174124" lon="23.375295"><ele>2284.9</ele><time>2026-03-02T07:17:22.000Z</time></trkpt>
<trkpt lat="42.174121" lon="23.375296"><ele>2284.9</ele><time>2026-03-02T07:17:23.000Z</time></trkpt>
<trkpt lat="42.174117" lon="23.375297"><ele>2284.9</ele><time>2026-03-02T07:17:24.000Z</time></trkpt>
<trkpt lat="42.174114" lon="23.375299"><ele>2285.4</ele><time>2026-03-02T07:17:25.000Z</time></trkpt>
<trkpt lat="42.174112" lon="23.375301"><ele>2285.4</ele><time>2026-03-02T07:17:26.000Z</time></trkpt>
<trkpt lat="42.17411" lon="23.375304"><ele>2285.4</ele><time>2026-03-02T07:17:27.000Z</time></trkpt>
<trkpt lat="42.174108" lon="23.375307"><ele>2285.4</ele><time>2026-03-02T07:17:28.000Z</time></trkpt>
<trkpt lat="42.174105" lon="23.375309"><ele>2285.4</ele><time>2026-03-02T07:17:29.000Z</time></trkpt>
<trkpt lat="42.174101" lon="23.375312"><ele>2286.3</ele><time>2026-03-02T07:17:30.000Z</time></trkpt>
<trkpt lat="42.174096" lon="23.375315"><ele>2286.3</ele><time>2026-03-02T07:17:31.000Z</time></trkpt>
<trkpt lat="42.17409" lon="23.37532"><ele>2286.3</ele><time>2026-03-02T07:17:32.000Z</time></trkpt>
<trkpt lat="42.174085" lon="23.375327"><ele>2286.3</ele><time>2026-03-02T07:17:33.000Z</time></trkpt>
<trkpt lat="42.174078" lon="23.375335"><ele>2286.3</ele><time>2026-03-02T07:17:34.000Z</time></trkpt>
<trkpt lat="42.174072" lon="23.375342"><ele>2287.3</ele><time>2026-03-02T07:17:35.000Z</time></trkpt>
<trkpt lat="42.174067" lon="23.375348"><ele>2287.3</ele><time>2026-03-02T07:17:36.000Z</time></trkpt>
<trkpt lat="42.174061" lon="23.375353"><ele>2287.3</ele><time>2026-03-02T07:17:37.000Z</time></trkpt>
<trkpt lat="42.174055" lon="23.375356"><ele>2287.3</ele><time>2026-03-02T07:17:38.000Z</time></trkpt>
<trkpt lat="42.174049" lon="23.375357"><ele>2287.3</ele><time>2026-03-02T07:17:39.000Z</time></trkpt>
<trkpt lat="42.174044" lon="23.375359"><ele>2287.8</ele><time>2026-03-02T07:17:40.000Z</time></trkpt>
<trkpt lat="42.174038" lon="23.375359"><ele>2287.8</ele><time>2026-03-02T07:17:41.000Z</time></trkpt>
<trkpt lat="42.174033" lon="23.375359"><ele>2287.8</ele><time>2026-03-02T07:17:42.000Z</time></trkpt>
<trkpt lat="42.174028" lon="23.375358"><ele>2287.8</ele><time>2026-03-02T07:17:43.000Z</time></trkpt>
<trkpt lat="42.174025" lon="23.375358"><ele>2287.8</ele><time>2026-03-02T07:17:44.000Z</time></trkpt>
<trkpt lat="42.17402" lon="23.375358"><ele>2288.7</ele><time>2026-03-02T07:17:45.000Z</time></trkpt>
<trkpt lat="42.174016" lon="23.375358"><ele>2288.7</ele><time>2026-03-02T07:17:46.000Z</time></trkpt>
<trkpt lat="42.174012" lon="23.37536"><ele>2288.7</ele><time>2026-03-02T07:17:47.000Z</time></trkpt>
<trkpt lat="42.174009" lon="23.375362"><ele>2288.7</ele><time>2026-03-02T07:17:48.000Z</time></trkpt>
<trkpt lat="42.174003" lon="23.375364"><ele>2288.7</ele><time>2026-03-02T07:17:49.000Z</time></trkpt>
<trkpt lat="42.174" lon="23.375365"><ele>2289.7</ele><time>2026-03-02T07:17:50.000Z</time></trkpt>
<trkpt lat="42.173997" lon="23.375368"><ele>2289.7</ele><time>2026-03-02T07:17:51.000Z</time></trkpt>
<trkpt lat="42.173995" lon="23.37537"><ele>2289.7</ele><time>2026-03-02T07:17:52.000Z</time></trkpt>
<trkpt lat="42.173993" lon="23.375372"><ele>2289.7</ele><time>2026-03-02T07:17:53.000Z</time></trkpt>
<trkpt lat="42.173993" lon="23.375374"><ele>2289.7</ele><time>2026-03-02T07:17:54.000Z</time></trkpt>
<trkpt lat="42.173991" lon="23.375377"><ele>2290.2</ele><time>2026-03-02T07:17:55.000Z</time></trkpt>
<trkpt lat="42.17399" lon="23.375378"><ele>2290.2</ele><time>2026-03-02T07:17:56.000Z</time></trkpt>
<trkpt lat="42.173987" lon="23.375379"><ele>2290.2</ele><time>2026-03-02T07:17:57.000Z</time></trkpt>
<trkpt lat="42.173984" lon="23.375379"><ele>2290.2</ele><time>2026-03-02T07:17:58.000Z</time></trkpt>
<trkpt lat="42.173979" lon="23.375379"><ele>2290.2</ele><time>2026-03-02T07:17:59.000Z</time></trkpt>
<trkpt lat="42.173975" lon="23.375379"><ele>2291.3</ele><time>2026-03-02T07:18:00.000Z</time></trkpt>
<trkpt lat="42.173969" lon="23.375378"><ele>2291.3</ele><time>2026-03-02T07:18:01.000Z</time></trkpt>
<trkpt lat="42.173963" lon="23.375377"><ele>2291.3</ele><time>2026-03-02T07:18:02.000Z</time></trkpt>
<trkpt lat="42.173958" lon="23.375376"><ele>2291.3</ele><time>2026-03-02T07:18:03.000Z</time></trkpt>
<trkpt lat="42.173954" lon="23.375375"><ele>2291.3</ele><time>2026-03-02T07:18:04.000Z</time></trkpt>
<trkpt lat="42.173951" lon="23.375373"><ele>2292.3</ele><time>2026-03-02T07:18:05.000Z</time></trkpt>
<trkpt lat="42.173948" lon="23.375369"><ele>2292.3</ele><time>2026-03-02T07:18:06.000Z</time></trkpt>
<trkpt lat="42.173946" lon="23.375365"><ele>2292.3</ele><time>2026-03-02T07:18:07.000Z</time></trkpt>
<trkpt lat="42.173942" lon="23.37536"><ele>2292.3</ele><time>2026-03-02T07:18:08.000Z</time></trkpt>
<trkpt lat="42.173938" lon="23.375356"><ele>2292.3</ele><time>2026-03-02T07:18:09.000Z</time></trkpt>
<trkpt lat="42.173934" lon="23.375351"><ele>2292.9</ele><time>2026-03-02T07:18:10.000Z</time></trkpt>
<trkpt lat="42.17393" lon="23.375349"><ele>2292.9</ele><time>2026-03-02T07:18:11.000Z</time></trkpt>
<trkpt lat="42.173926" lon="23.375347"><ele>2292.9</ele><time>2026-03-02T07:18:12.000Z</time></trkpt>
<trkpt lat="42.173923" lon="23.375346"><ele>2292.9</ele><time>2026-03-02T07:18:13.000Z</time></trkpt>
<trkpt lat="42.173918" lon="23.375344"><ele>2292.9</ele><time>2026-03-02T07:18:14.000Z</time></trkpt>
<trkpt lat="42.173914" lon="23.375344"><ele>2294.2</ele><time>2026-03-02T07:18:15.000Z</time></trkpt>
<trkpt lat="42.17391" lon="23.375343"><ele>2294.2</ele><time>2026-03-02T07:18:16.000Z</time></trkpt>
<trkpt lat="42.173906" lon="23.375342"><ele>2294.2</ele><time>2026-03-02T07:18:17.000Z</time></trkpt>
<trkpt lat="42.173902" lon="23.375342"><ele>2294.2</ele><time>2026-03-02T07:18:18.000Z</time></trkpt>
<trkpt lat="42.1739" lon="23.375343"><ele>2294.2</ele><time>2026-03-02T07:18:19.000Z</time></trkpt>
<trkpt lat="42.173897" lon="23.375343"><ele>2295.3</ele><time>2026-03-02T07:18:20.000Z</time></trkpt>
<trkpt lat="42.173895" lon="23.375344"><ele>2295.3</ele><time>2026-03-02T07:18:21.000Z</time></trkpt>
<trkpt lat="42.173894" lon="23.375345"><ele>2295.3</ele><time>2026-03-02T07:18:22.000Z</time></trkpt>
<trkpt lat="42.173892" lon="23.375345"><ele>2295.3</ele><time>2026-03-02T07:18:23.000Z</time></trkpt>
<trkpt lat="42.173891" lon="23.375346"><ele>2295.3</ele><time>2026-03-02T07:18:24.000Z</time></trkpt>
<trkpt lat="42.173889" lon="23.375348"><ele>2295.8</ele><time>2026-03-02T07:18:25.000Z</time></trkpt>
<trkpt lat="42.173886" lon="23.375352"><ele>2295.8</ele><time>2026-03-02T07:18:26.000Z</time></trkpt>
<trkpt lat="42.17388" lon="23.375356"><ele>2295.8</ele><time>2026-03-02T07:18:27.000Z</time></trkpt>
<trkpt lat="42.173875" lon="23.37536"><ele>2295.8</ele><time>2026-03-02T07:18:28.000Z</time></trkpt>
<trkpt lat="42.173871" lon="23.375364"><ele>2295.8</ele><time>2026-03-02T07:18:29.000Z</time></trkpt>
<trkpt lat="42.173867" lon="23.375365"><ele>2296.8</ele><time>2026-03-02T07:18:30.000Z</time></trkpt>
<trkpt lat="42.173864" lon="23.375364"><ele>2296.8</ele><time>2026-03-02T07:18:31.000Z</time></trkpt>
<trkpt lat="42.173863" lon="23.375361"><ele>2296.8</ele><time>2026-03-02T07:18:32.000Z</time></trkpt>
<trkpt lat="42.173861" lon="23.375358"><ele>2296.8</ele><time>2026-03-02T07:18:33.000Z</time></trkpt>
<trkpt lat="42.173861" lon="23.375355"><ele>2296.8</ele><time>2026-03-02T07:18:34.000Z</time></trkpt>
<trkpt lat="42.17386" lon="23.375352"><ele>2297.9</ele><time>2026-03-02T07:18:35.000Z</time></trkpt>
<trkpt lat="42.17386" lon="23.375348"><ele>2297.9</ele><time>2026-03-02T07:18:36.000Z</time></trkpt>
<trkpt lat="42.173859" lon="23.375344"><ele>2297.9</ele><time>2026-03-02T07:18:37.000Z</time></trkpt>
<trkpt lat="42.173858" lon="23.37534"><ele>2297.9</ele><time>2026-03-02T07:18:38.000Z</time></trkpt>
<trkpt lat="42.173855" lon="23.375337"><ele>2297.9</ele><time>2026-03-02T07:18:39.000Z</time></trkpt>
<trkpt lat="42.173852" lon="23.375334"><ele>2298.6</ele><time>2026-03-02T07:18:40.000Z</time></trkpt>
<trkpt lat="42.173849" lon="23.375332"><ele>2298.6</ele><time>2026-03-02T07:18:41.000Z</time></trkpt>
<trkpt lat="42.173846" lon="23.375331"><ele>2298.6</ele><time>2026-03-02T07:18:42.000Z</time></trkpt>
<trkpt lat="42.173844" lon="23.375327"><ele>2298.6</ele><time>2026-03-02T07:18:43.000Z</time></trkpt>
<trkpt lat="42.173842" lon="23.375324"><ele>2298.6</ele><time>2026-03-02T07:18:44.000Z</time></trkpt>
<trkpt lat="42.173841" lon="23.375319"><ele>2299.8</ele><time>2026-03-02T07:18:45.000Z</time></trkpt>
<trkpt lat="42.173841" lon="23.375315"><ele>2299.8</ele><time>2026-03-02T07:18:46.000Z</time></trkpt>
<trkpt lat="42.17384" lon="23.375309"><ele>2299.8</ele><time>2026-03-02T07:18:47.000Z</time></trkpt>
<trkpt lat="42.173839" lon="23.375305"><ele>2299.8</ele><time>2026-03-02T07:18:48.000Z</time></trkpt>
<trkpt lat="42.173838" lon="23.3753"><ele>2299.8</ele><time>2026-03-02T07:18:49.000Z</time></trkpt>
<trkpt lat="42.173836" lon="23.375294"><ele>2300.8</ele><time>2026-03-02T07:18:50.000Z</time></trkpt>
<trkpt lat="42.173834" lon="23.375288"><ele>2300.8</ele><time>2026-03-02T07:18:51.000Z</time></trkpt>
<trkpt lat="42.173832" lon="23.375282"><ele>2300.8</ele><time>2026-03-02T07:18:52.000Z</time></trkpt>
<trkpt lat="42.173829" lon="23.375277"><ele>2300.8</ele><time>2026-03-02T07:18:53.000Z</time></trkpt>
<trkpt lat="42.173827" lon="23.375271"><ele>2300.8</ele><time>2026-03-02T07:18:54.000Z</time></trkpt>
<trkpt lat="42.173825" lon="23.375267"><ele>2301.3</ele><time>2026-03-02T07:18:55.000Z</time></trkpt>
<trkpt lat="42.173822" lon="23.375264"><ele>2301.3</ele><time>2026-03-02T07:18:56.000Z</time></trkpt>
<trkpt lat="42.173821" lon="23.375262"><ele>2301.3</ele><time>2026-03-02T07:18:57.000Z</time></trkpt>
<trkpt lat="42.173819" lon="23.375261"><ele>2301.3</ele><time>2026-03-02T07:18:58.000Z</time></trkpt>
<trkpt lat="42.173818" lon="23.375262"><ele>2301.3</ele><time>2026-03-02T07:18:59.000Z</time></trkpt>
<trkpt lat="42.173817" lon="23.375262"><ele>2302.3</ele><time>2026-03-02T07:19:00.000Z</time></trkpt>
<trkpt lat="42.173818" lon="23.375262"><ele>2302.3</ele><time>2026-03-02T07:19:01.000Z</time></trkpt>
<trkpt lat="42.173817" lon="23.375262"><ele>2302.3</ele><time>2026-03-02T07:19:02.000Z</time></trkpt>
<trkpt lat="42.173816" lon="23.375262"><ele>2302.3</ele><time>2026-03-02T07:19:03.000Z</time></trkpt>
<trkpt lat="42.173816" lon="23.375261"><ele>2302.3</ele><time>2026-03-02T07:19:04.000Z</time></trkpt>
<trkpt lat="42.173816" lon="23.375259"><ele>2303.3</ele><time>2026-03-02T07:19:05.000Z</time></trkpt>
<trkpt lat="42.173816" lon="23.375259"><ele>2303.3</ele><time>2026-03-02T07:19:06.000Z</time></trkpt>
<trkpt lat="42.173815" lon="23.375258"><ele>2303.3</ele><time>2026-03-02T07:19:07.000Z</time></trkpt>
<trkpt lat="42.173815" lon="23.375258"><ele>2303.3</ele><time>2026-03-02T07:19:08.000Z</time></trkpt>
<trkpt lat="42.173814" lon="23.375258"><ele>2303.3</ele><time>2026-03-02T07:19:09.000Z</time></trkpt>
<trkpt lat="42.173814" lon="23.375259"><ele>2303.8</ele><time>2026-03-02T07:19:10.000Z</time></trkpt>
<trkpt lat="42.173814" lon="23.375259"><ele>2303.8</ele><time>2026-03-02T07:19:11.000Z</time></trkpt>
<trkpt lat="42.173816" lon="23.375259"><ele>2303.8</ele><time>2026-03-02T07:19:12.000Z</time></trkpt>
<trkpt lat="42.173818" lon="23.375259"><ele>2303.8</ele><time>2026-03-02T07:19:13.000Z</time></trkpt>
<trkpt lat="42.17382" lon="23.375259"><ele>2303.8</ele><time>2026-03-02T07:19:14.000Z</time></trkpt>
<trkpt lat="42.173822" lon="23.375258"><ele>2304.3</ele><time>2026-03-02T07:19:15.000Z</time></trkpt>
<trkpt lat="42.173821" lon="23.375257"><ele>2304.3</ele><time>2026-03-02T07:19:16.000Z</time></trkpt>
<trkpt lat="42.173819" lon="23.375256"><ele>2304.3</ele><time>2026-03-02T07:19:17.000Z</time></trkpt>
<trkpt lat="42.173815" lon="23.375255"><ele>2304.3</ele><time>2026-03-02T07:19:18.000Z</time></trkpt>
<trkpt lat="42.173812" lon="23.375255"><ele>2304.3</ele><time>2026-03-02T07:19:19.000Z</time></trkpt>
<trkpt lat="42.173809" lon="23.375254"><ele>2304.5</ele><time>2026-03-02T07:19:20.000Z</time></trkpt>
<trkpt lat="42.173808" lon="23.375255"><ele>2304.5</ele><time>2026-03-02T07:19:21.000Z</time></trkpt>
<trkpt lat="42.173807" lon="23.375255"><ele>2304.5</ele><time>2026-03-02T07:19:22.000Z</time></trkpt>
<trkpt lat="42.173808" lon="23.375255"><ele>2304.5</ele><time>2026-03-02T07:19:23.000Z</time></trkpt>
<trkpt lat="42.173809" lon="23.375253"><ele>2304.5</ele><time>2026-03-02T07:19:24.000Z</time></trkpt>
<trkpt lat="42.17381" lon="23.375252"><ele>2304.6</ele><time>2026-03-02T07:19:25.000Z</time></trkpt>
<trkpt lat="42.173812" lon="23.375251"><ele>2304.6</ele><time>2026-03-02T07:19:26.000Z</time></trkpt>
<trkpt lat="42.173813" lon="23.37525"><ele>2304.6</ele><time>2026-03-02T07:19:27.000Z</time></trkpt>
<trkpt lat="42.173814" lon="23.375249"><ele>2304.6</ele><time>2026-03-02T07:19:28.000Z</time></trkpt>
<trkpt lat="42.173814" lon="23.37525"><ele>2304.6</ele><time>2026-03-02T07:19:29.000Z</time></trkpt>
<trkpt lat="42.173814" lon="23.375251"><ele>2305</ele><time>2026-03-02T07:19:30.000Z</time></trkpt>
<trkpt lat="42.173814" lon="23.375251"><ele>2305</ele><time>2026-03-02T07:19:31.000Z</time></trkpt>
<trkpt lat="42.173813" lon="23.375251"><ele>2305</ele><time>2026-03-02T07:19:32.000Z</time></trkpt>
<trkpt lat="42.173812" lon="23.375252"><ele>2305</ele><time>2026-03-02T07:19:33.000Z</time></trkpt>
<trkpt lat="42.173812" lon="23.375251"><ele>2305</ele><time>2026-03-02T07:19:34.000Z</time></trkpt>
<trkpt lat="42.173811" lon="23.375251"><ele>2305</ele><time>2026-03-02T07:19:35.000Z</time></trkpt>
<trkpt lat="42.17381" lon="23.375252"><ele>2305</ele><time>2026-03-02T07:19:36.000Z</time></trkpt>
<trkpt lat="42.17381" lon="23.375254"><ele>2305</ele><time>2026-03-02T07:19:37.000Z</time></trkpt>
<trkpt lat="42.173811" lon="23.375255"><ele>2305</ele><time>2026-03-02T07:19:38.000Z</time></trkpt>
<trkpt lat="42.173811" lon="23.375257"><ele>2305</ele><time>2026-03-02T07:19:39.000Z</time></trkpt>
<trkpt lat="42.173811" lon="23.375259"><ele>2305</ele><time>2026-03-02T07:19:40.000Z</time></trkpt>
<trkpt lat="42.17381" lon="23.375259"><ele>2305</ele><time>2026-03-02T07:19:41.000Z</time></trkpt>
<trkpt lat="42.173809" lon="23.37526"><ele>2305</ele><time>2026-03-02T07:19:42.000Z</time></trkpt>
<trkpt lat="42.173807" lon="23.37526"><ele>2305</ele><time>2026-03-02T07:19:43.000Z</time></trkpt>
<trkpt lat="42.173805" lon="23.375261"><ele>2305</ele><time>2026-03-02T07:19:44.000Z</time></trkpt>
<trkpt lat="42.173803" lon="23.37526"><ele>2304.9</ele><time>2026-03-02T07:19:45.000Z</time></trkpt>
<trkpt lat="42.173801" lon="23.37526"><ele>2304.9</ele><time>2026-03-02T07:19:46.000Z</time></trkpt>
<trkpt lat="42.1738" lon="23.37526"><ele>2304.9</ele><time>2026-03-02T07:19:47.000Z</time></trkpt>
<trkpt lat="42.173799" lon="23.37526"><ele>2304.9</ele><time>2026-03-02T07:19:48.000Z</time></trkpt>
<trkpt lat="42.173799" lon="23.37526"><ele>2304.9</ele><time>2026-03-02T07:19:49.000Z</time></trkpt>
<trkpt lat="42.1738" lon="23.375261"><ele>2304.9</ele><time>2026-03-02T07:19:50.000Z</time></trkpt>
<trkpt lat="42.1738" lon="23.375261"><ele>2304.9</ele><time>2026-03-02T07:19:51.000Z</time></trkpt>
<trkpt lat="42.1738" lon="23.375261"><ele>2304.9</ele><time>2026-03-02T07:19:52.000Z</time></trkpt>
<trkpt lat="42.1738" lon="23.375261"><ele>2304.9</ele><time>2026-03-02T07:19:53.000Z</time></trkpt>
<trkpt lat="42.1738" lon="23.375261"><ele>2304.9</ele><time>2026-03-02T07:19:54.000Z</time></trkpt>
<trkpt lat="42.173801" lon="23.375261"><ele>2304.8</ele><time>2026-03-02T07:19:55.000Z</time></trkpt>
<trkpt lat="42.173799" lon="23.375261"><ele>2304.8</ele><time>2026-03-02T07:19:56.000Z</time></trkpt>
<trkpt lat="42.173799" lon="23.37526"><ele>2304.8</ele><time>2026-03-02T07:19:57.000Z</time></trkpt>
<trkpt lat="42.173799" lon="23.375258"><ele>2304.8</ele><time>2026-03-02T07:19:58.000Z</time></trkpt>
<trkpt lat="42.173799" lon="23.375257"><ele>2304.8</ele><time>2026-03-02T07:19:59.000Z</time></trkpt>
<trkpt lat="42.173798" lon="23.375256"><ele>2304.7</ele><time>2026-03-02T07:20:00.000Z</time></trkpt>
<trkpt lat="42.173797" lon="23.375255"><ele>2304.7</ele><time>2026-03-02T07:20:01.000Z</time></trkpt>
<trkpt lat="42.173794" lon="23.375255"><ele>2304.7</ele><time>2026-03-02T07:20:02.000Z</time></trkpt>
<trkpt lat="42.173793" lon="23.375254"><ele>2304.7</ele><time>2026-03-02T07:20:03.000Z</time></trkpt>
<trkpt lat="42.173792" lon="23.375254"><ele>2304.7</ele><time>2026-03-02T07:20:04.000Z</time></trkpt>
<trkpt lat="42.173792" lon="23.375253"><ele>2304.8</ele><time>2026-03-02T07:20:05.000Z</time></trkpt>
<trkpt lat="42.173794" lon="23.375253"><ele>2304.8</ele><time>2026-03-02T07:20:06.000Z</time></trkpt>
<trkpt lat="42.173797" lon="23.375252"><ele>2304.8</ele><time>2026-03-02T07:20:07.000Z</time></trkpt>
<trkpt lat="42.173797" lon="23.375252"><ele>2304.8</ele><time>2026-03-02T07:20:08.000Z</time></trkpt>
<trkpt lat="42.173796" lon="23.375252"><ele>2304.8</ele><time>2026-03-02T07:20:09.000Z</time></trkpt>
<trkpt lat="42.173794" lon="23.375251"><ele>2304.9</ele><time>2026-03-02T07:20:10.000Z</time></trkpt>
<trkpt lat="42.173791" lon="23.375249"><ele>2304.9</ele><time>2026-03-02T07:20:11.000Z</time></trkpt>
<trkpt lat="42.173787" lon="23.375247"><ele>2304.9</ele><time>2026-03-02T07:20:12.000Z</time></trkpt>
<trkpt lat="42.173784" lon="23.375243"><ele>2304.9</ele><time>2026-03-02T07:20:13.000Z</time></trkpt>
<trkpt lat="42.17378" lon="23.375239"><ele>2304.9</ele><time>2026-03-02T07:20:14.000Z</time></trkpt>
<trkpt lat="42.173777" lon="23.375235"><ele>2304.9</ele><time>2026-03-02T07:20:15.000Z</time></trkpt>
<trkpt lat="42.173774" lon="23.37523"><ele>2304.9</ele><time>2026-03-02T07:20:16.000Z</time></trkpt>
<trkpt lat="42.173772" lon="23.375224"><ele>2304.9</ele><time>2026-03-02T07:20:17.000Z</time></trkpt>
<trkpt lat="42.173771" lon="23.37522"><ele>2304.9</ele><time>2026-03-02T07:20:18.000Z</time></trkpt>
<trkpt lat="42.17377" lon="23.375215"><ele>2304.9</ele><time>2026-03-02T07:20:19.000Z</time></trkpt>
<trkpt lat="42.173771" lon="23.37521"><ele>2304.9</ele><time>2026-03-02T07:20:20.000Z</time></trkpt>
<trkpt lat="42.173774" lon="23.375205"><ele>2304.9</ele><time>2026-03-02T07:20:21.000Z</time></trkpt>
<trkpt lat="42.173775" lon="23.375201"><ele>2304.9</ele><time>2026-03-02T07:20:22.000Z</time></trkpt>
<trkpt lat="42.173776" lon="23.375195"><ele>2304.9</ele><time>2026-03-02T07:20:23.000Z</time></trkpt>
<trkpt lat="42.173776" lon="23.375188"><ele>2304.9</ele><time>2026-03-02T07:20:24.000Z</time></trkpt>
<trkpt lat="42.173775" lon="23.375181"><ele>2305.1</ele><time>2026-03-02T07:20:25.000Z</time></trkpt>
<trkpt lat="42.173774" lon="23.375174"><ele>2305.1</ele><time>2026-03-02T07:20:26.000Z</time></trkpt>
<trkpt lat="42.173772" lon="23.375168"><ele>2305.1</ele><time>2026-03-02T07:20:27.000Z</time></trkpt>
<trkpt lat="42.173771" lon="23.375162"><ele>2305.1</ele><time>2026-03-02T07:20:28.000Z</time></trkpt>
<trkpt lat="42.173767" lon="23.375156"><ele>2305.1</ele><time>2026-03-02T07:20:29.000Z</time></trkpt>
<trkpt lat="42.173764" lon="23.375151"><ele>2306.1</ele><time>2026-03-02T07:20:30.000Z</time></trkpt>
<trkpt lat="42.173759" lon="23.375145"><ele>2306.1</ele><time>2026-03-02T07:20:31.000Z</time></trkpt>
<trkpt lat="42.173754" lon="23.375139"><ele>2306.1</ele><time>2026-03-02T07:20:32.000Z</time></trkpt>
<trkpt lat="42.17375" lon="23.375134"><ele>2306.1</ele><time>2026-03-02T07:20:33.000Z</time></trkpt>
<trkpt lat="42.173747" lon="23.375128"><ele>2306.1</ele><time>2026-03-02T07:20:34.000Z</time></trkpt>
<trkpt lat="42.173745" lon="23.375122"><ele>2307.6</ele><time>2026-03-02T07:20:35.000Z</time></trkpt>
<trkpt lat="42.173745" lon="23.375115"><ele>2307.6</ele><time>2026-03-02T07:20:36.000Z</time></trkpt>
<trkpt lat="42.173745" lon="23.375108"><ele>2307.6</ele><time>2026-03-02T07:20:37.000Z</time></trkpt>
<trkpt lat="42.173745" lon="23.375101"><ele>2307.6</ele><time>2026-03-02T07:20:38.000Z</time></trkpt>
<trkpt lat="42.173745" lon="23.375094"><ele>2307.6</ele><time>2026-03-02T07:20:39.000Z</time></trkpt>
<trkpt lat="42.173746" lon="23.375086"><ele>2308.4</ele><time>2026-03-02T07:20:40.000Z</time></trkpt>
<trkpt lat="42.173746" lon="23.375079"><ele>2308.4</ele><time>2026-03-02T07:20:41.000Z</time></trkpt>
<trkpt lat="42.173746" lon="23.375069"><ele>2308.4</ele><time>2026-03-02T07:20:42.000Z</time></trkpt>
<trkpt lat="42.173745" lon="23.37506"><ele>2308.4</ele><time>2026-03-02T07:20:43.000Z</time></trkpt>
<trkpt lat="42.173743" lon="23.375051"><ele>2308.4</ele><time>2026-03-02T07:20:44.000Z</time></trkpt>
<trkpt lat="42.173741" lon="23.375044"><ele>2310</ele><time>2026-03-02T07:20:45.000Z</time></trkpt>
<trkpt lat="42.173738" lon="23.375036"><ele>2310</ele><time>2026-03-02T07:20:46.000Z</time></trkpt>
<trkpt lat="42.173735" lon="23.37503"><ele>2310</ele><time>2026-03-02T07:20:47.000Z</time></trkpt>
<trkpt lat="42.173731" lon="23.375025"><ele>2310</ele><time>2026-03-02T07:20:48.000Z</time></trkpt>
<trkpt lat="42.173727" lon="23.37502"><ele>2310</ele><time>2026-03-02T07:20:49.000Z</time></trkpt>
<trkpt lat="42.173723" lon="23.375016"><ele>2311.3</ele><time>2026-03-02T07:20:50.000Z</time></trkpt>
<trkpt lat="42.17372" lon="23.375012"><ele>2311.3</ele><time>2026-03-02T07:20:51.000Z</time></trkpt>
<trkpt lat="42.173717" lon="23.37501"><ele>2311.3</ele><time>2026-03-02T07:20:52.000Z</time></trkpt>
<trkpt lat="42.173714" lon="23.375007"><ele>2311.3</ele><time>2026-03-02T07:20:53.000Z</time></trkpt>
<trkpt lat="42.173711" lon="23.375005"><ele>2311.3</ele><time>2026-03-02T07:20:54.000Z</time></trkpt>
<trkpt lat="42.173708" lon="23.375003"><ele>2311.9</ele><time>2026-03-02T07:20:55.000Z</time></trkpt>
<trkpt lat="42.173705" lon="23.375001"><ele>2311.9</ele><time>2026-03-02T07:20:56.000Z</time></trkpt>
<trkpt lat="42.173701" lon="23.374998"><ele>2311.9</ele><time>2026-03-02T07:20:57.000Z</time></trkpt>
<trkpt lat="42.173699" lon="23.374995"><ele>2311.9</ele><time>2026-03-02T07:20:58.000Z</time></trkpt>
<trkpt lat="42.173697" lon="23.37499"><ele>2311.9</ele><time>2026-03-02T07:20:59.000Z</time></trkpt>
<trkpt lat="42.173695" lon="23.374986"><ele>2313</ele><time>2026-03-02T07:21:00.000Z</time></trkpt>
<trkpt lat="42.173695" lon="23.374982"><ele>2313</ele><time>2026-03-02T07:21:01.000Z</time></trkpt>
<trkpt lat="42.173694" lon="23.374979"><ele>2313</ele><time>2026-03-02T07:21:02.000Z</time></trkpt>
<trkpt lat="42.173693" lon="23.374976"><ele>2313</ele><time>2026-03-02T07:21:03.000Z</time></trkpt>
<trkpt lat="42.173692" lon="23.374973"><ele>2313</ele><time>2026-03-02T07:21:04.000Z</time></trkpt>
<trkpt lat="42.173692" lon="23.374969"><ele>2314.1</ele><time>2026-03-02T07:21:05.000Z</time></trkpt>
<trkpt lat="42.173692" lon="23.374966"><ele>2314.1</ele><time>2026-03-02T07:21:06.000Z</time></trkpt>
<trkpt lat="42.173693" lon="23.374964"><ele>2314.1</ele><time>2026-03-02T07:21:07.000Z</time></trkpt>
<trkpt lat="42.173694" lon="23.374962"><ele>2314.1</ele><time>2026-03-02T07:21:08.000Z</time></trkpt>
<trkpt lat="42.173695" lon="23.374961"><ele>2314.1</ele><time>2026-03-02T07:21:09.000Z</time></trkpt>
<trkpt lat="42.173696" lon="23.374961"><ele>2314.7</ele><time>2026-03-02T07:21:10.000Z</time></trkpt>
<trkpt lat="42.173696" lon="23.374959"><ele>2314.7</ele><time>2026-03-02T07:21:11.000Z</time></trkpt>
<trkpt lat="42.173695" lon="23.374956"><ele>2314.7</ele><time>2026-03-02T07:21:12.000Z</time></trkpt>
<trkpt lat="42.173695" lon="23.374952"><ele>2314.7</ele><time>2026-03-02T07:21:13.000Z</time></trkpt>
<trkpt lat="42.173695" lon="23.374948"><ele>2314.7</ele><time>2026-03-02T07:21:14.000Z</time></trkpt>
<trkpt lat="42.173693" lon="23.374944"><ele>2315.7</ele><time>2026-03-02T07:21:15.000Z</time></trkpt>
<trkpt lat="42.173693" lon="23.374942"><ele>2315.7</ele><time>2026-03-02T07:21:16.000Z</time></trkpt>
<trkpt lat="42.173693" lon="23.374941"><ele>2315.7</ele><time>2026-03-02T07:21:17.000Z</time></trkpt>
<trkpt lat="42.173693" lon="23.374941"><ele>2315.7</ele><time>2026-03-02T07:21:18.000Z</time></trkpt>
<trkpt lat="42.173693" lon="23.374941"><ele>2315.7</ele><time>2026-03-02T07:21:19.000Z</time></trkpt>
<trkpt lat="42.173692" lon="23.374942"><ele>2316.6</ele><time>2026-03-02T07:21:20.000Z</time></trkpt>
<trkpt lat="42.17369" lon="23.374941"><ele>2316.6</ele><time>2026-03-02T07:21:21.000Z</time></trkpt>
<trkpt lat="42.173687" lon="23.374939"><ele>2316.6</ele><time>2026-03-02T07:21:22.000Z</time></trkpt>
<trkpt lat="42.173685" lon="23.374938"><ele>2316.6</ele><time>2026-03-02T07:21:23.000Z</time></trkpt>
<trkpt lat="42.173681" lon="23.374935"><ele>2316.6</ele><time>2026-03-02T07:21:24.000Z</time></trkpt>
<trkpt lat="42.173678" lon="23.374933"><ele>2317</ele><time>2026-03-02T07:21:25.000Z</time></trkpt>
<trkpt lat="42.173675" lon="23.374931"><ele>2317</ele><time>2026-03-02T07:21:26.000Z</time></trkpt>
<trkpt lat="42.173674" lon="23.374927"><ele>2317</ele><time>2026-03-02T07:21:27.000Z</time></trkpt>
<trkpt lat="42.173674" lon="23.374924"><ele>2317</ele><time>2026-03-02T07:21:28.000Z</time></trkpt>
<trkpt lat="42.173674" lon="23.374921"><ele>2317</ele><time>2026-03-02T07:21:29.000Z</time></trkpt>
<trkpt lat="42.173674" lon="23.374919"><ele>2317.8</ele><time>2026-03-02T07:21:30.000Z</time></trkpt>
<trkpt lat="42.173675" lon="23.374919"><ele>2317.8</ele><time>2026-03-02T07:21:31.000Z</time></trkpt>
<trkpt lat="42.173676" lon="23.374919"><ele>2317.8</ele><time>2026-03-02T07:21:32.000Z</time></trkpt>
<trkpt lat="42.173676" lon="23.37492"><ele>2317.8</ele><time>2026-03-02T07:21:33.000Z</time></trkpt>
<trkpt lat="42.173676" lon="23.37492"><ele>2317.8</ele><time>2026-03-02T07:21:34.000Z</time></trkpt>
<trkpt lat="42.173676" lon="23.37492"><ele>2318.5</ele><time>2026-03-02T07:21:35.000Z</time></trkpt>
<trkpt lat="42.173676" lon="23.37492"><ele>2318.5</ele><time>2026-03-02T07:21:36.000Z</time></trkpt>
<trkpt lat="42.173676" lon="23.37492"><ele>2318.5</ele><time>2026-03-02T07:21:37.000Z</time></trkpt>
<trkpt lat="42.173676" lon="23.37492"><ele>2318.5</ele><time>2026-03-02T07:21:38.000Z</time></trkpt>
<trkpt lat="42.173675" lon="23.37492"><ele>2318.5</ele><time>2026-03-02T07:21:39.000Z</time></trkpt>
<trkpt lat="42.173675" lon="23.374921"><ele>2318.8</ele><time>2026-03-02T07:21:40.000Z</time></trkpt>
<trkpt lat="42.173674" lon="23.374919"><ele>2318.8</ele><time>2026-03-02T07:21:41.000Z</time></trkpt>
<trkpt lat="42.173672" lon="23.374915"><ele>2318.8</ele><time>2026-03-02T07:21:42.000Z</time></trkpt>
<trkpt lat="42.173669" lon="23.37491"><ele>2318.8</ele><time>2026-03-02T07:21:43.000Z</time></trkpt>
<trkpt lat="42.173666" lon="23.374903"><ele>2318.8</ele><time>2026-03-02T07:21:44.000Z</time></trkpt>
<trkpt lat="42.173663" lon="23.374895"><ele>2319.2</ele><time>2026-03-02T07:21:45.000Z</time></trkpt>
<trkpt lat="42.173661" lon="23.374887"><ele>2319.2</ele><time>2026-03-02T07:21:46.000Z</time></trkpt>
<trkpt lat="42.173659" lon="23.374881"><ele>2319.2</ele><time>2026-03-02T07:21:47.000Z</time></trkpt>
<trkpt lat="42.173659" lon="23.374876"><ele>2319.2</ele><time>2026-03-02T07:21:48.000Z</time></trkpt>
<trkpt lat="42.173659" lon="23.374871"><ele>2319.2</ele><time>2026-03-02T07:21:49.000Z</time></trkpt>
<trkpt lat="42.173658" lon="23.374868"><ele>2319.6</ele><time>2026-03-02T07:21:50.000Z</time></trkpt>
<trkpt lat="42.173656" lon="23.374867"><ele>2319.6</ele><time>2026-03-02T07:21:51.000Z</time></trkpt>
<trkpt lat="42.173654" lon="23.374868"><ele>2319.6</ele><time>2026-03-02T07:21:52.000Z</time></trkpt>
<trkpt lat="42.173651" lon="23.37487"><ele>2319.6</ele><time>2026-03-02T07:21:53.000Z</time></trkpt>
<trkpt lat="42.173648" lon="23.374873"><ele>2319.6</ele><time>2026-03-02T07:21:54.000Z</time></trkpt>
<trkpt lat="42.173646" lon="23.374874"><ele>2319.9</ele><time>2026-03-02T07:21:55.000Z</time></trkpt>
<trkpt lat="42.173645" lon="23.374874"><ele>2319.9</ele><time>2026-03-02T07:21:56.000Z</time></trkpt>
<trkpt lat="42.173645" lon="23.374873"><ele>2319.9</ele><time>2026-03-02T07:21:57.000Z</time></trkpt>
<trkpt lat="42.173646" lon="23.374872"><ele>2319.9</ele><time>2026-03-02T07:21:58.000Z</time></trkpt>
<trkpt lat="42.173648" lon="23.37487"><ele>2319.9</ele><time>2026-03-02T07:21:59.000Z</time></trkpt>
<trkpt lat="42.173647" lon="23.374868"><ele>2320.6</ele><time>2026-03-02T07:22:00.000Z</time></trkpt>
<trkpt lat="42.173647" lon="23.374866"><ele>2320.6</ele><time>2026-03-02T07:22:01.000Z</time></trkpt>
<trkpt lat="42.173647" lon="23.374865"><ele>2320.6</ele><time>2026-03-02T07:22:02.000Z</time></trkpt>
<trkpt lat="42.173646" lon="23.374863"><ele>2320.6</ele><time>2026-03-02T07:22:03.000Z</time></trkpt>
<trkpt lat="42.173646" lon="23.374862"><ele>2320.6</ele><time>2026-03-02T07:22:04.000Z</time></trkpt>
<trkpt lat="42.173646" lon="23.374862"><ele>2321.3</ele><time>2026-03-02T07:22:05.000Z</time></trkpt>
<trkpt lat="42.173646" lon="23.374862"><ele>2321.3</ele><time>2026-03-02T07:22:06.000Z</time></trkpt>
<trkpt lat="42.173646" lon="23.374862"><ele>2321.3</ele><time>2026-03-02T07:22:07.000Z</time></trkpt>
<trkpt lat="42.173647" lon="23.374862"><ele>2321.3</ele><time>2026-03-02T07:22:08.000Z</time></trkpt>
<trkpt lat="42.173648" lon="23.374861"><ele>2321.3</ele><time>2026-03-02T07:22:09.000Z</time></trkpt>
<trkpt lat="42.173648" lon="23.37486"><ele>2321.5</ele><time>2026-03-02T07:22:10.000Z</time></trkpt>
<trkpt lat="42.173648" lon="23.374858"><ele>2321.5</ele><time>2026-03-02T07:22:11.000Z</time></trkpt>
<trkpt lat="42.173647" lon="23.374858"><ele>2321.5</ele><time>2026-03-02T07:22:12.000Z</time></trkpt>
<trkpt lat="42.173645" lon="23.374857"><ele>2321.5</ele><time>2026-03-02T07:22:13.000Z</time></trkpt>
<trkpt lat="42.173643" lon="23.374857"><ele>2321.5</ele><time>2026-03-02T07:22:14.000Z</time></trkpt>
<trkpt lat="42.173642" lon="23.374855"><ele>2321.6</ele><time>2026-03-02T07:22:15.000Z</time></trkpt>
<trkpt lat="42.173641" lon="23.374852"><ele>2321.6</ele><time>2026-03-02T07:22:16.000Z</time></trkpt>
<trkpt lat="42.17364" lon="23.374848"><ele>2321.6</ele><time>2026-03-02T07:22:17.000Z</time></trkpt>
<trkpt lat="42.173639" lon="23.374842"><ele>2321.6</ele><time>2026-03-02T07:22:18.000Z</time></trkpt>
<trkpt lat="42.173638" lon="23.374833"><ele>2321.6</ele><time>2026-03-02T07:22:19.000Z</time></trkpt>
<trkpt lat="42.173637" lon="23.374825"><ele>2321.6</ele><time>2026-03-02T07:22:20.000Z</time></trkpt>
<trkpt lat="42.173636" lon="23.374815"><ele>2321.6</ele><time>2026-03-02T07:22:21.000Z</time></trkpt>
<trkpt lat="42.173636" lon="23.374805"><ele>2321.6</ele><time>2026-03-02T07:22:22.000Z</time></trkpt>
<trkpt lat="42.173635" lon="23.374795"><ele>2321.6</ele><time>2026-03-02T07:22:23.000Z</time></trkpt>
<trkpt lat="42.173634" lon="23.374787"><ele>2321.6</ele><time>2026-03-02T07:22:24.000Z</time></trkpt>
<trkpt lat="42.173634" lon="23.374778"><ele>2321.6</ele><time>2026-03-02T07:22:25.000Z</time></trkpt>
<trkpt lat="42.173634" lon="23.374769"><ele>2321.6</ele><time>2026-03-02T07:22:26.000Z</time></trkpt>
<trkpt lat="42.173634" lon="23.374762"><ele>2321.6</ele><time>2026-03-02T07:22:27.000Z</time></trkpt>
<trkpt lat="42.173634" lon="23.374754"><ele>2321.6</ele><time>2026-03-02T07:22:28.000Z</time></trkpt>
<trkpt lat="42.173633" lon="23.374748"><ele>2321.6</ele><time>2026-03-02T07:22:29.000Z</time></trkpt>
<trkpt lat="42.173631" lon="23.374742"><ele>2322.1</ele><time>2026-03-02T07:22:30.000Z</time></trkpt>
<trkpt lat="42.173629" lon="23.374736"><ele>2322.1</ele><time>2026-03-02T07:22:31.000Z</time></trkpt>
<trkpt lat="42.173628" lon="23.374729"><ele>2322.1</ele><time>2026-03-02T07:22:32.000Z</time></trkpt>
<trkpt lat="42.173628" lon="23.374723"><ele>2322.1</ele><time>2026-03-02T07:22:33.000Z</time></trkpt>
<trkpt lat="42.173629" lon="23.374715"><ele>2322.1</ele><time>2026-03-02T07:22:34.000Z</time></trkpt>
<trkpt lat="42.17363" lon="23.374708"><ele>2323.1</ele><time>2026-03-02T07:22:35.000Z</time></trkpt>
<trkpt lat="42.173629" lon="23.3747"><ele>2323.1</ele><time>2026-03-02T07:22:36.000Z</time></trkpt>
<trkpt lat="42.173628" lon="23.374693"><ele>2323.1</ele><time>2026-03-02T07:22:37.000Z</time></trkpt>
<trkpt lat="42.173625" lon="23.374686"><ele>2323.1</ele><time>2026-03-02T07:22:38.000Z</time></trkpt>
<trkpt lat="42.173622" lon="23.374681"><ele>2323.1</ele><time>2026-03-02T07:22:39.000Z</time></trkpt>
<trkpt lat="42.173618" lon="23.374676"><ele>2323.7</ele><time>2026-03-02T07:22:40.000Z</time></trkpt>
<trkpt lat="42.173614" lon="23.374674"><ele>2323.7</ele><time>2026-03-02T07:22:41.000Z</time></trkpt>
<trkpt lat="42.17361" lon="23.374671"><ele>2323.7</ele><time>2026-03-02T07:22:42.000Z</time></trkpt>
<trkpt lat="42.173605" lon="23.374668"><ele>2323.7</ele><time>2026-03-02T07:22:43.000Z</time></trkpt>
<trkpt lat="42.1736" lon="23.374664"><ele>2323.7</ele><time>2026-03-02T07:22:44.000Z</time></trkpt>
<trkpt lat="42.173594" lon="23.37466"><ele>2325</ele><time>2026-03-02T07:22:45.000Z</time></trkpt>
<trkpt lat="42.173589" lon="23.374656"><ele>2325</ele><time>2026-03-02T07:22:46.000Z</time></trkpt>
<trkpt lat="42.173584" lon="23.374653"><ele>2325</ele><time>2026-03-02T07:22:47.000Z</time></trkpt>
<trkpt lat="42.173579" lon="23.374652"><ele>2325</ele><time>2026-03-02T07:22:48.000Z</time></trkpt>
<trkpt lat="42.173574" lon="23.374653"><ele>2325</ele><time>2026-03-02T07:22:49.000Z</time></trkpt>
<trkpt lat="42.17357" lon="23.374654"><ele>2326.3</ele><time>2026-03-02T07:22:50.000Z</time></trkpt>
<trkpt lat="42.173565" lon="23.374656"><ele>2326.3</ele><time>2026-03-02T07:22:51.000Z</time></trkpt>
<trkpt lat="42.17356" lon="23.374657"><ele>2326.3</ele><time>2026-03-02T07:22:52.000Z</time></trkpt>
<trkpt lat="42.173556" lon="23.374658"><ele>2326.3</ele><time>2026-03-02T07:22:53.000Z</time></trkpt>
<trkpt lat="42.173551" lon="23.374657"><ele>2326.3</ele><time>2026-03-02T07:22:54.000Z</time></trkpt>
<trkpt lat="42.173546" lon="23.374658"><ele>2326.9</ele><time>2026-03-02T07:22:55.000Z</time></trkpt>
<trkpt lat="42.173541" lon="23.374659"><ele>2326.9</ele><time>2026-03-02T07:22:56.000Z</time></trkpt>
<trkpt lat="42.173535" lon="23.37466"><ele>2326.9</ele><time>2026-03-02T07:22:57.000Z</time></trkpt>
<trkpt lat="42.17353" lon="23.374661"><ele>2326.9</ele><time>2026-03-02T07:22:58.000Z</time></trkpt>
<trkpt lat="42.173524" lon="23.374662"><ele>2326.9</ele><time>2026-03-02T07:22:59.000Z</time></trkpt>
<trkpt lat="42.17352" lon="23.374662"><ele>2328.2</ele><time>2026-03-02T07:23:00.000Z</time></trkpt>
<trkpt lat="42.173516" lon="23.374663"><ele>2328.2</ele><time>2026-03-02T07:23:01.000Z</time></trkpt>
<trkpt lat="42.173512" lon="23.374664"><ele>2328.2</ele><time>2026-03-02T07:23:02.000Z</time></trkpt>
<trkpt lat="42.173508" lon="23.374666"><ele>2328.2</ele><time>2026-03-02T07:23:03.000Z</time></trkpt>
<trkpt lat="42.173504" lon="23.374668"><ele>2328.2</ele><time>2026-03-02T07:23:04.000Z</time></trkpt>
<trkpt lat="42.1735" lon="23.37467"><ele>2329.6</ele><time>2026-03-02T07:23:05.000Z</time></trkpt>
<trkpt lat="42.173496" lon="23.374672"><ele>2329.6</ele><time>2026-03-02T07:23:06.000Z</time></trkpt>
<trkpt lat="42.173492" lon="23.374671"><ele>2329.6</ele><time>2026-03-02T07:23:07.000Z</time></trkpt>
<trkpt lat="42.173488" lon="23.374671"><ele>2329.6</ele><time>2026-03-02T07:23:08.000Z</time></trkpt>
<trkpt lat="42.173485" lon="23.374669"><ele>2329.6</ele><time>2026-03-02T07:23:09.000Z</time></trkpt>
<trkpt lat="42.173482" lon="23.374667"><ele>2330.2</ele><time>2026-03-02T07:23:10.000Z</time></trkpt>
<trkpt lat="42.173479" lon="23.374663"><ele>2330.2</ele><time>2026-03-02T07:23:11.000Z</time></trkpt>
<trkpt lat="42.173476" lon="23.374661"><ele>2330.2</ele><time>2026-03-02T07:23:12.000Z</time></trkpt>
<trkpt lat="42.173472" lon="23.374659"><ele>2330.2</ele><time>2026-03-02T07:23:13.000Z</time></trkpt>
<trkpt lat="42.173468" lon="23.374657"><ele>2330.2</ele><time>2026-03-02T07:23:14.000Z</time></trkpt>
<trkpt lat="42.173465" lon="23.374656"><ele>2331.3</ele><time>2026-03-02T07:23:15.000Z</time></trkpt>
<trkpt lat="42.173463" lon="23.374656"><ele>2331.3</ele><time>2026-03-02T07:23:16.000Z</time></trkpt>
<trkpt lat="42.173462" lon="23.374657"><ele>2331.3</ele><time>2026-03-02T07:23:17.000Z</time></trkpt>
<trkpt lat="42.173463" lon="23.374658"><ele>2331.3</ele><time>2026-03-02T07:23:18.000Z</time></trkpt>
<trkpt lat="42.173464" lon="23.374659"><ele>2331.3</ele><time>2026-03-02T07:23:19.000Z</time></trkpt>
<trkpt lat="42.173464" lon="23.374658"><ele>2332.2</ele><time>2026-03-02T07:23:20.000Z</time></trkpt>
<trkpt lat="42.173465" lon="23.374658"><ele>2332.2</ele><time>2026-03-02T07:23:21.000Z</time></trkpt>
<trkpt lat="42.173465" lon="23.374658"><ele>2332.2</ele><time>2026-03-02T07:23:22.000Z</time></trkpt>
<trkpt lat="42.173463" lon="23.374658"><ele>2332.2</ele><time>2026-03-02T07:23:23.000Z</time></trkpt>
<trkpt lat="42.173462" lon="23.374659"><ele>2332.2</ele><time>2026-03-02T07:23:24.000Z</time></trkpt>
<trkpt lat="42.17346" lon="23.374659"><ele>2332.5</ele><time>2026-03-02T07:23:25.000Z</time></trkpt>
<trkpt lat="42.173459" lon="23.374659"><ele>2332.5</ele><time>2026-03-02T07:23:26.000Z</time></trkpt>
<trkpt lat="42.173458" lon="23.374659"><ele>2332.5</ele><time>2026-03-02T07:23:27.000Z</time></trkpt>
<trkpt lat="42.173458" lon="23.374659"><ele>2332.5</ele><time>2026-03-02T07:23:28.000Z</time></trkpt>
<trkpt lat="42.173458" lon="23.374659"><ele>2332.5</ele><time>2026-03-02T07:23:29.000Z</time></trkpt>
<trkpt lat="42.173458" lon="23.374657"><ele>2332.9</ele><time>2026-03-02T07:23:30.000Z</time></trkpt>
<trkpt lat="42.173457" lon="23.374656"><ele>2332.9</ele><time>2026-03-02T07:23:31.000Z</time></trkpt>
<trkpt lat="42.173456" lon="23.374655"><ele>2332.9</ele><time>2026-03-02T07:23:32.000Z</time></trkpt>
<trkpt lat="42.173456" lon="23.374654"><ele>2332.9</ele><time>2026-03-02T07:23:33.000Z</time></trkpt>
<trkpt lat="42.173455" lon="23.374652"><ele>2332.9</ele><time>2026-03-02T07:23:34.000Z</time></trkpt>
<trkpt lat="42.173455" lon="23.374652"><ele>2333</ele><time>2026-03-02T07:23:35.000Z</time></trkpt>
<trkpt lat="42.173455" lon="23.374652"><ele>2333</ele><time>2026-03-02T07:23:36.000Z</time></trkpt>
<trkpt lat="42.173455" lon="23.374653"><ele>2333</ele><time>2026-03-02T07:23:37.000Z</time></trkpt>
<trkpt lat="42.173456" lon="23.374653"><ele>2333</ele><time>2026-03-02T07:23:38.000Z</time></trkpt>
<trkpt lat="42.173456" lon="23.374653"><ele>2333</ele><time>2026-03-02T07:23:39.000Z</time></trkpt>
<trkpt lat="42.173457" lon="23.374654"><ele>2332.9</ele><time>2026-03-02T07:23:40.000Z</time></trkpt>
<trkpt lat="42.173457" lon="23.374654"><ele>2332.9</ele><time>2026-03-02T07:23:41.000Z</time></trkpt>
<trkpt lat="42.173457" lon="23.374654"><ele>2332.9</ele><time>2026-03-02T07:23:42.000Z</time></trkpt>
<trkpt lat="42.173457" lon="23.374654"><ele>2332.9</ele><time>2026-03-02T07:23:43.000Z</time></trkpt>
<trkpt lat="42.173457" lon="23.374654"><ele>2332.9</ele><time>2026-03-02T07:23:44.000Z</time></trkpt>
<trkpt lat="42.173456" lon="23.374654"><ele>2332.9</ele><time>2026-03-02T07:23:45.000Z</time></trkpt>
<trkpt lat="42.173456" lon="23.374654"><ele>2332.9</ele><time>2026-03-02T07:23:46.000Z</time></trkpt>
<trkpt lat="42.173455" lon="23.374654"><ele>2332.9</ele><time>2026-03-02T07:23:47.000Z</time></trkpt>
<trkpt lat="42.173455" lon="23.374654"><ele>2332.9</ele><time>2026-03-02T07:23:48.000Z</time></trkpt>
<trkpt lat="42.173454" lon="23.374653"><ele>2332.9</ele><time>2026-03-02T07:23:49.000Z</time></trkpt>
<trkpt lat="42.173454" lon="23.374653"><ele>2332.9</ele><time>2026-03-02T07:23:50.000Z</time></trkpt>
<trkpt lat="42.173453" lon="23.37465"><ele>2332.9</ele><time>2026-03-02T07:23:51.000Z</time></trkpt>
<trkpt lat="42.17345" lon="23.374649"><ele>2332.9</ele><time>2026-03-02T07:23:52.000Z</time></trkpt>
<trkpt lat="42.173447" lon="23.374647"><ele>2332.9</ele><time>2026-03-02T07:23:53.000Z</time></trkpt>
<trkpt lat="42.173442" lon="23.374645"><ele>2332.9</ele><time>2026-03-02T07:23:54.000Z</time></trkpt>
<trkpt lat="42.173438" lon="23.374641"><ele>2332.9</ele><time>2026-03-02T07:23:55.000Z</time></trkpt>
<trkpt lat="42.173434" lon="23.374637"><ele>2332.9</ele><time>2026-03-02T07:23:56.000Z</time></trkpt>
<trkpt lat="42.173431" lon="23.374632"><ele>2332.9</ele><time>2026-03-02T07:23:57.000Z</time></trkpt>
<trkpt lat="42.173429" lon="23.374624"><ele>2332.9</ele><time>2026-03-02T07:23:58.000Z</time></trkpt>
<trkpt lat="42.173429" lon="23.374616"><ele>2332.9</ele><time>2026-03-02T07:23:59.000Z</time></trkpt>
<trkpt lat="42.173429" lon="23.374609"><ele>2333.1</ele><time>2026-03-02T07:24:00.000Z</time></trkpt>
<trkpt lat="42.17343" lon="23.374603"><ele>2333.1</ele><time>2026-03-02T07:24:01.000Z</time></trkpt>
<trkpt lat="42.173432" lon="23.374596"><ele>2333.1</ele><time>2026-03-02T07:24:02.000Z</time></trkpt>
<trkpt lat="42.173435" lon="23.374591"><ele>2333.1</ele><time>2026-03-02T07:24:03.000Z</time></trkpt>
<trkpt lat="42.173438" lon="23.374585"><ele>2333.1</ele><time>2026-03-02T07:24:04.000Z</time></trkpt>
<trkpt lat="42.17344" lon="23.374578"><ele>2333.6</ele><time>2026-03-02T07:24:05.000Z</time></trkpt>
<trkpt lat="42.173444" lon="23.374571"><ele>2333.6</ele><time>2026-03-02T07:24:06.000Z</time></trkpt>
<trkpt lat="42.173446" lon="23.374564"><ele>2333.6</ele><time>2026-03-02T07:24:07.000Z</time></trkpt>
<trkpt lat="42.173448" lon="23.374555"><ele>2333.6</ele><time>2026-03-02T07:24:08.000Z</time></trkpt>
<trkpt lat="42.173449" lon="23.374547"><ele>2333.6</ele><time>2026-03-02T07:24:09.000Z</time></trkpt>
<trkpt lat="42.17345" lon="23.374538"><ele>2334</ele><time>2026-03-02T07:24:10.000Z</time></trkpt>
<trkpt lat="42.173451" lon="23.374528"><ele>2334</ele><time>2026-03-02T07:24:11.000Z</time></trkpt>
<trkpt lat="42.173452" lon="23.374519"><ele>2334</ele><time>2026-03-02T07:24:12.000Z</time></trkpt>
<trkpt lat="42.173453" lon="23.374509"><ele>2334</ele><time>2026-03-02T07:24:13.000Z</time></trkpt>
<trkpt lat="42.173452" lon="23.374498"><ele>2334</ele><time>2026-03-02T07:24:14.000Z</time></trkpt>
<trkpt lat="42.173451" lon="23.374487"><ele>2335</ele><time>2026-03-02T07:24:15.000Z</time></trkpt>
<trkpt lat="42.173447" lon="23.374476"><ele>2335</ele><time>2026-03-02T07:24:16.000Z</time></trkpt>
<trkpt lat="42.173442" lon="23.374464"><ele>2335</ele><time>2026-03-02T07:24:17.000Z</time></trkpt>
<trkpt lat="42.173438" lon="23.374452"><ele>2335</ele><time>2026-03-02T07:24:18.000Z</time></trkpt>
<trkpt lat="42.173434" lon="23.374441"><ele>2335</ele><time>2026-03-02T07:24:19.000Z</time></trkpt>
<trkpt lat="42.17343" lon="23.374431"><ele>2336</ele><time>2026-03-02T07:24:20.000Z</time></trkpt>
<trkpt lat="42.173428" lon="23.37442"><ele>2336</ele><time>2026-03-02T07:24:21.000Z</time></trkpt>
<trkpt lat="42.173427" lon="23.37441"><ele>2336</ele><time>2026-03-02T07:24:22.000Z</time></trkpt>
<trkpt lat="42.173426" lon="23.374399"><ele>2336</ele><time>2026-03-02T07:24:23.000Z</time></trkpt>
<trkpt lat="42.173425" lon="23.374388"><ele>2336</ele><time>2026-03-02T07:24:24.000Z</time></trkpt>
<trkpt lat="42.173425" lon="23.374378"><ele>2336.5</ele><time>2026-03-02T07:24:25.000Z</time></trkpt>
<trkpt lat="42.173426" lon="23.374368"><ele>2336.5</ele><time>2026-03-02T07:24:26.000Z</time></trkpt>
<trkpt lat="42.173425" lon="23.374357"><ele>2336.5</ele><time>2026-03-02T07:24:27.000Z</time></trkpt>
<trkpt lat="42.173424" lon="23.374347"><ele>2336.5</ele><time>2026-03-02T07:24:28.000Z</time></trkpt>
<trkpt lat="42.173423" lon="23.374337"><ele>2336.5</ele><time>2026-03-02T07:24:29.000Z</time></trkpt>
<trkpt lat="42.173422" lon="23.374326"><ele>2337.4</ele><time>2026-03-02T07:24:30.000Z</time></trkpt>
<trkpt lat="42.173422" lon="23.374316"><ele>2337.4</ele><time>2026-03-02T07:24:31.000Z</time></trkpt>
<trkpt lat="42.173421" lon="23.374307"><ele>2337.4</ele><time>2026-03-02T07:24:32.000Z</time></trkpt>
<trkpt lat="42.173419" lon="23.374297"><ele>2337.4</ele><time>2026-03-02T07:24:33.000Z</time></trkpt>
<trkpt lat="42.173418" lon="23.374288"><ele>2337.4</ele><time>2026-03-02T07:24:34.000Z</time></trkpt>
<trkpt lat="42.173416" lon="23.37428"><ele>2338.5</ele><time>2026-03-02T07:24:35.000Z</time></trkpt>
<trkpt lat="42.173415" lon="23.374271"><ele>2338.5</ele><time>2026-03-02T07:24:36.000Z</time></trkpt>
<trkpt lat="42.173413" lon="23.374263"><ele>2338.5</ele><time>2026-03-02T07:24:37.000Z</time></trkpt>
<trkpt lat="42.173412" lon="23.374255"><ele>2338.5</ele><time>2026-03-02T07:24:38.000Z</time></trkpt>
<trkpt lat="42.173412" lon="23.374247"><ele>2338.5</ele><time>2026-03-02T07:24:39.000Z</time></trkpt>
<trkpt lat="42.173413" lon="23.374238"><ele>2339</ele><time>2026-03-02T07:24:40.000Z</time></trkpt>
<trkpt lat="42.173413" lon="23.374228"><ele>2339</ele><time>2026-03-02T07:24:41.000Z</time></trkpt>
<trkpt lat="42.173414" lon="23.374219"><ele>2339</ele><time>2026-03-02T07:24:42.000Z</time></trkpt>
<trkpt lat="42.173414" lon="23.37421"><ele>2339</ele><time>2026-03-02T07:24:43.000Z</time></trkpt>
<trkpt lat="42.173413" lon="23.3742"><ele>2339</ele><time>2026-03-02T07:24:44.000Z</time></trkpt>
<trkpt lat="42.173414" lon="23.374192"><ele>2340</ele><time>2026-03-02T07:24:45.000Z</time></trkpt>
<trkpt lat="42.173414" lon="23.374183"><ele>2340</ele><time>2026-03-02T07:24:46.000Z</time></trkpt>
<trkpt lat="42.173413" lon="23.374177"><ele>2340</ele><time>2026-03-02T07:24:47.000Z</time></trkpt>
<trkpt lat="42.173413" lon="23.374169"><ele>2340</ele><time>2026-03-02T07:24:48.000Z</time></trkpt>
<trkpt lat="42.173412" lon="23.374163"><ele>2340</ele><time>2026-03-02T07:24:49.000Z</time></trkpt>
<trkpt lat="42.173411" lon="23.374156"><ele>2341</ele><time>2026-03-02T07:24:50.000Z</time></trkpt>
<trkpt lat="42.17341" lon="23.37415"><ele>2341</ele><time>2026-03-02T07:24:51.000Z</time></trkpt>
<trkpt lat="42.173409" lon="23.374143"><ele>2341</ele><time>2026-03-02T07:24:52.000Z</time></trkpt>
<trkpt lat="42.173407" lon="23.374137"><ele>2341</ele><time>2026-03-02T07:24:53.000Z</time></trkpt>
<trkpt lat="42.173405" lon="23.37413"><ele>2341</ele><time>2026-03-02T07:24:54.000Z</time></trkpt>
<trkpt lat="42.173402" lon="23.374123"><ele>2341.6</ele><time>2026-03-02T07:24:55.000Z</time></trkpt>
<trkpt lat="42.1734" lon="23.374118"><ele>2341.6</ele><time>2026-03-02T07:24:56.000Z</time></trkpt>
<trkpt lat="42.173398" lon="23.374113"><ele>2341.6</ele><time>2026-03-02T07:24:57.000Z</time></trkpt>
<trkpt lat="42.173397" lon="23.374108"><ele>2341.6</ele><time>2026-03-02T07:24:58.000Z</time></trkpt>
<trkpt lat="42.173397" lon="23.374105"><ele>2341.6</ele><time>2026-03-02T07:24:59.000Z</time></trkpt>
<trkpt lat="42.173398" lon="23.374104"><ele>2342.8</ele><time>2026-03-02T07:25:00.000Z</time></trkpt>
<trkpt lat="42.173399" lon="23.374103"><ele>2342.8</ele><time>2026-03-02T07:25:01.000Z</time></trkpt>
<trkpt lat="42.173399" lon="23.374103"><ele>2342.8</ele><time>2026-03-02T07:25:02.000Z</time></trkpt>
<trkpt lat="42.1734" lon="23.374103"><ele>2342.8</ele><time>2026-03-02T07:25:03.000Z</time></trkpt>
<trkpt lat="42.1734" lon="23.374103"><ele>2342.8</ele><time>2026-03-02T07:25:04.000Z</time></trkpt>
<trkpt lat="42.1734" lon="23.374103"><ele>2343.7</ele><time>2026-03-02T07:25:05.000Z</time></trkpt>
<trkpt lat="42.1734" lon="23.374104"><ele>2343.7</ele><time>2026-03-02T07:25:06.000Z</time></trkpt>
<trkpt lat="42.1734" lon="23.374104"><ele>2343.7</ele><time>2026-03-02T07:25:07.000Z</time></trkpt>
<trkpt lat="42.173399" lon="23.374104"><ele>2343.7</ele><time>2026-03-02T07:25:08.000Z</time></trkpt>
<trkpt lat="42.173399" lon="23.374104"><ele>2343.7</ele><time>2026-03-02T07:25:09.000Z</time></trkpt>
<trkpt lat="42.173398" lon="23.374104"><ele>2344</ele><time>2026-03-02T07:25:10.000Z</time></trkpt>
<trkpt lat="42.173398" lon="23.374104"><ele>2344</ele><time>2026-03-02T07:25:11.000Z</time></trkpt>
<trkpt lat="42.173398" lon="23.374104"><ele>2344</ele><time>2026-03-02T07:25:12.000Z</time></trkpt>
<trkpt lat="42.173398" lon="23.374104"><ele>2344</ele><time>2026-03-02T07:25:13.000Z</time></trkpt>
<trkpt lat="42.173398" lon="23.374104"><ele>2344</ele><time>2026-03-02T07:25:14.000Z</time></trkpt>
<trkpt lat="42.173397" lon="23.374104"><ele>2344.4</ele><time>2026-03-02T07:25:15.000Z</time></trkpt>
<trkpt lat="42.173397" lon="23.374104"><ele>2344.4</ele><time>2026-03-02T07:25:16.000Z</time></trkpt>
<trkpt lat="42.173397" lon="23.374104"><ele>2344.4</ele><time>2026-03-02T07:25:17.000Z</time></trkpt>
<trkpt lat="42.173396" lon="23.374104"><ele>2344.4</ele><time>2026-03-02T07:25:18.000Z</time></trkpt>
<trkpt lat="42.173396" lon="23.374104"><ele>2344.4</ele><time>2026-03-02T07:25:19.000Z</time></trkpt>
<trkpt lat="42.173396" lon="23.374104"><ele>2344.4</ele><time>2026-03-02T07:25:20.000Z</time></trkpt>
<trkpt lat="42.173396" lon="23.374104"><ele>2344.4</ele><time>2026-03-02T07:25:21.000Z</time></trkpt>
<trkpt lat="42.173396" lon="23.374104"><ele>2344.4</ele><time>2026-03-02T07:25:22.000Z</time></trkpt>
<trkpt lat="42.173396" lon="23.374104"><ele>2344.4</ele><time>2026-03-02T07:25:23.000Z</time></trkpt>
<trkpt lat="42.173396" lon="23.374104"><ele>2344.4</ele><time>2026-03-02T07:25:24.000Z</time></trkpt>
<trkpt lat="42.173396" lon="23.374104"><ele>2344.4</ele><time>2026-03-02T07:25:25.000Z</time></trkpt>
<trkpt lat="42.173396" lon="23.374104"><ele>2344.4</ele><time>2026-03-02T07:25:26.000Z</time></trkpt>
<trkpt lat="42.173396" lon="23.374104"><ele>2344.4</ele><time>2026-03-02T07:25:27.000Z</time></trkpt>
<trkpt lat="42.173396" lon="23.374104"><ele>2344.4</ele><time>2026-03-02T07:25:28.000Z</time></trkpt>
<trkpt lat="42.173396" lon="23.374104"><ele>2344.4</ele><time>2026-03-02T07:25:29.000Z</time></trkpt>
<trkpt lat="42.173396" lon="23.374104"><ele>2344.4</ele><time>2026-03-02T07:25:30.000Z</time></trkpt>
<trkpt lat="42.173396" lon="23.374104"><ele>2344.4</ele><time>2026-03-02T07:25:31.000Z</time></trkpt>
<trkpt lat="42.173396" lon="23.374104"><ele>2344.4</ele><time>2026-03-02T07:25:32.000Z</time></trkpt>
<trkpt lat="42.173396" lon="23.374104"><ele>2344.4</ele><time>2026-03-02T07:25:33.000Z</time></trkpt>
<trkpt lat="42.173396" lon="23.374105"><ele>2344.4</ele><time>2026-03-02T07:25:34.000Z</time></trkpt>
<trkpt lat="42.173396" lon="23.374105"><ele>2344.4</ele><time>2026-03-02T07:25:35.000Z</time></trkpt>
<trkpt lat="42.173396" lon="23.374105"><ele>2344.4</ele><time>2026-03-02T07:25:36.000Z</time></trkpt>
<trkpt lat="42.173396" lon="23.374105"><ele>2344.4</ele><time>2026-03-02T07:25:37.000Z</time></trkpt>
<trkpt lat="42.173396" lon="23.374105"><ele>2344.4</ele><time>2026-03-02T07:25:38.000Z</time></trkpt>
<trkpt lat="42.173396" lon="23.374105"><ele>2344.4</ele><time>2026-03-02T07:25:39.000Z</time></trkpt>
<trkpt lat="42.173396" lon="23.374105"><ele>2344.3</ele><time>2026-03-02T07:25:40.000Z</time></trkpt>
<trkpt lat="42.173396" lon="23.374105"><ele>2344.3</ele><time>2026-03-02T07:25:41.000Z</time></trkpt>
<trkpt lat="42.173396" lon="23.374105"><ele>2344.3</ele><time>2026-03-02T07:25:42.000Z</time></trkpt>
<trkpt lat="42.173396" lon="23.374105"><ele>2344.3</ele><time>2026-03-02T07:25:43.000Z</time></trkpt>
<trkpt lat="42.173396" lon="23.374105"><ele>2344.3</ele><time>2026-03-02T07:25:44.000Z</time></trkpt>
<trkpt lat="42.173396" lon="23.374105"><ele>2344.2</ele><time>2026-03-02T07:25:45.000Z</time></trkpt>
<trkpt lat="42.173396" lon="23.374105"><ele>2344.2</ele><time>2026-03-02T07:25:46.000Z</time></trkpt>
<trkpt lat="42.173397" lon="23.374105"><ele>2344.2</ele><time>2026-03-02T07:25:47.000Z</time></trkpt>
<trkpt lat="42.173397" lon="23.374105"><ele>2344.2</ele><time>2026-03-02T07:25:48.000Z</time></trkpt>
<trkpt lat="42.173397" lon="23.374105"><ele>2344.2</ele><time>2026-03-02T07:25:49.000Z</time></trkpt>
<trkpt lat="42.173397" lon="23.374105"><ele>2344.2</ele><time>2026-03-02T07:25:50.000Z</time></trkpt>
<trkpt lat="42.173397" lon="23.374105"><ele>2344.2</ele><time>2026-03-02T07:25:51.000Z</time></trkpt>
<trkpt lat="42.173397" lon="23.374105"><ele>2344.2</ele><time>2026-03-02T07:25:52.000Z</time></trkpt>
<trkpt lat="42.173397" lon="23.374104"><ele>2344.2</ele><time>2026-03-02T07:25:53.000Z</time></trkpt>
<trkpt lat="42.173397" lon="23.374104"><ele>2344.2</ele><time>2026-03-02T07:25:54.000Z</time></trkpt>
<trkpt lat="42.173397" lon="23.374104"><ele>2344.2</ele><time>2026-03-02T07:25:55.000Z</time></trkpt>
<trkpt lat="42.173397" lon="23.374104"><ele>2344.2</ele><time>2026-03-02T07:25:56.000Z</time></trkpt>
<trkpt lat="42.173397" lon="23.374104"><ele>2344.2</ele><time>2026-03-02T07:25:57.000Z</time></trkpt>
<trkpt lat="42.173397" lon="23.374104"><ele>2344.2</ele><time>2026-03-02T07:25:58.000Z</time></trkpt>
<trkpt lat="42.173397" lon="23.374104"><ele>2344.2</ele><time>2026-03-02T07:25:59.000Z</time></trkpt>
<trkpt lat="42.173397" lon="23.374103"><ele>2344.3</ele><time>2026-03-02T07:26:00.000Z</time></trkpt>
<trkpt lat="42.173397" lon="23.374103"><ele>2344.3</ele><time>2026-03-02T07:26:01.000Z</time></trkpt>
<trkpt lat="42.173397" lon="23.374103"><ele>2344.3</ele><time>2026-03-02T07:26:02.000Z</time></trkpt>
<trkpt lat="42.173396" lon="23.374102"><ele>2344.3</ele><time>2026-03-02T07:26:03.000Z</time></trkpt>
<trkpt lat="42.173396" lon="23.374102"><ele>2344.3</ele><time>2026-03-02T07:26:04.000Z</time></trkpt>
<trkpt lat="42.173395" lon="23.374102"><ele>2344.3</ele><time>2026-03-02T07:26:05.000Z</time></trkpt>
<trkpt lat="42.173395" lon="23.374102"><ele>2344.3</ele><time>2026-03-02T07:26:06.000Z</time></trkpt>
<trkpt lat="42.173395" lon="23.374102"><ele>2344.3</ele><time>2026-03-02T07:26:07.000Z</time></trkpt>
<trkpt lat="42.173395" lon="23.374102"><ele>2344.3</ele><time>2026-03-02T07:26:08.000Z</time></trkpt>
<trkpt lat="42.173395" lon="23.374102"><ele>2344.3</ele><time>2026-03-02T07:26:09.000Z</time></trkpt>
<trkpt lat="42.173395" lon="23.374102"><ele>2344.2</ele><time>2026-03-02T07:26:10.000Z</time></trkpt>
<trkpt lat="42.173395" lon="23.374102"><ele>2344.2</ele><time>2026-03-02T07:26:11.000Z</time></trkpt>
<trkpt lat="42.173396" lon="23.374101"><ele>2344.2</ele><time>2026-03-02T07:26:12.000Z</time></trkpt>
<trkpt lat="42.173396" lon="23.374101"><ele>2344.2</ele><time>2026-03-02T07:26:13.000Z</time></trkpt>
<trkpt lat="42.173397" lon="23.3741"><ele>2344.2</ele><time>2026-03-02T07:26:14.000Z</time></trkpt>
<trkpt lat="42.173397" lon="23.374099"><ele>2344.3</ele><time>2026-03-02T07:26:15.000Z</time></trkpt>
<trkpt lat="42.173397" lon="23.374099"><ele>2344.3</ele><time>2026-03-02T07:26:16.000Z</time></trkpt>
<trkpt lat="42.173396" lon="23.374099"><ele>2344.3</ele><time>2026-03-02T07:26:17.000Z</time></trkpt>
<trkpt lat="42.173395" lon="23.3741"><ele>2344.3</ele><time>2026-03-02T07:26:18.000Z</time></trkpt>
<trkpt lat="42.173394" lon="23.3741"><ele>2344.3</ele><time>2026-03-02T07:26:19.000Z</time></trkpt>
<trkpt lat="42.173392" lon="23.374101"><ele>2344.4</ele><time>2026-03-02T07:26:20.000Z</time></trkpt>
<trkpt lat="42.173391" lon="23.374102"><ele>2344.4</ele><time>2026-03-02T07:26:21.000Z</time></trkpt>
<trkpt lat="42.17339" lon="23.374102"><ele>2344.4</ele><time>2026-03-02T07:26:22.000Z</time></trkpt>
<trkpt lat="42.173391" lon="23.374102"><ele>2344.4</ele><time>2026-03-02T07:26:23.000Z</time></trkpt>
<trkpt lat="42.17339" lon="23.374102"><ele>2344.4</ele><time>2026-03-02T07:26:24.000Z</time></trkpt>
<trkpt lat="42.173388" lon="23.3741"><ele>2344.4</ele><time>2026-03-02T07:26:25.000Z</time></trkpt>
<trkpt lat="42.173386" lon="23.374097"><ele>2344.4</ele><time>2026-03-02T07:26:26.000Z</time></trkpt>
<trkpt lat="42.173385" lon="23.374094"><ele>2344.4</ele><time>2026-03-02T07:26:27.000Z</time></trkpt>
<trkpt lat="42.173383" lon="23.374091"><ele>2344.4</ele><time>2026-03-02T07:26:28.000Z</time></trkpt>
<trkpt lat="42.17338" lon="23.374089"><ele>2344.4</ele><time>2026-03-02T07:26:29.000Z</time></trkpt>
<trkpt lat="42.173379" lon="23.374089"><ele>2344.4</ele><time>2026-03-02T07:26:30.000Z</time></trkpt>
<trkpt lat="42.173378" lon="23.37409"><ele>2344.4</ele><time>2026-03-02T07:26:31.000Z</time></trkpt>
<trkpt lat="42.173377" lon="23.374091"><ele>2344.4</ele><time>2026-03-02T07:26:32.000Z</time></trkpt>
<trkpt lat="42.173377" lon="23.374091"><ele>2344.4</ele><time>2026-03-02T07:26:33.000Z</time></trkpt>
<trkpt lat="42.173378" lon="23.374091"><ele>2344.4</ele><time>2026-03-02T07:26:34.000Z</time></trkpt>
<trkpt lat="42.173378" lon="23.374091"><ele>2344.5</ele><time>2026-03-02T07:26:35.000Z</time></trkpt>
<trkpt lat="42.173379" lon="23.374092"><ele>2344.5</ele><time>2026-03-02T07:26:36.000Z</time></trkpt>
<trkpt lat="42.173379" lon="23.374092"><ele>2344.5</ele><time>2026-03-02T07:26:37.000Z</time></trkpt>
<trkpt lat="42.17338" lon="23.374093"><ele>2344.5</ele><time>2026-03-02T07:26:38.000Z</time></trkpt>
<trkpt lat="42.17338" lon="23.374093"><ele>2344.5</ele><time>2026-03-02T07:26:39.000Z</time></trkpt>
<trkpt lat="42.173381" lon="23.374093"><ele>2344.6</ele><time>2026-03-02T07:26:40.000Z</time></trkpt>
<trkpt lat="42.173381" lon="23.374093"><ele>2344.6</ele><time>2026-03-02T07:26:41.000Z</time></trkpt>
<trkpt lat="42.173381" lon="23.374093"><ele>2344.6</ele><time>2026-03-02T07:26:42.000Z</time></trkpt>
<trkpt lat="42.173381" lon="23.374093"><ele>2344.6</ele><time>2026-03-02T07:26:43.000Z</time></trkpt>
<trkpt lat="42.173381" lon="23.374093"><ele>2344.6</ele><time>2026-03-02T07:26:44.000Z</time></trkpt>
<trkpt lat="42.173381" lon="23.374093"><ele>2344.7</ele><time>2026-03-02T07:26:45.000Z</time></trkpt>
<trkpt lat="42.17338" lon="23.374093"><ele>2344.7</ele><time>2026-03-02T07:26:46.000Z</time></trkpt>
<trkpt lat="42.173379" lon="23.374094"><ele>2344.7</ele><time>2026-03-02T07:26:47.000Z</time></trkpt>
<trkpt lat="42.173378" lon="23.374094"><ele>2344.7</ele><time>2026-03-02T07:26:48.000Z</time></trkpt>
<trkpt lat="42.173376" lon="23.374095"><ele>2344.7</ele><time>2026-03-02T07:26:49.000Z</time></trkpt>
<trkpt lat="42.173375" lon="23.374095"><ele>2344.7</ele><time>2026-03-02T07:26:50.000Z</time></trkpt>
<trkpt lat="42.173375" lon="23.374095"><ele>2344.7</ele><time>2026-03-02T07:26:51.000Z</time></trkpt>
<trkpt lat="42.173374" lon="23.374095"><ele>2344.7</ele><time>2026-03-02T07:26:52.000Z</time></trkpt>
<trkpt lat="42.173374" lon="23.374095"><ele>2344.7</ele><time>2026-03-02T07:26:53.000Z</time></trkpt>
<trkpt lat="42.173374" lon="23.374095"><ele>2344.7</ele><time>2026-03-02T07:26:54.000Z</time></trkpt>
<trkpt lat="42.173374" lon="23.374095"><ele>2344.7</ele><time>2026-03-02T07:26:55.000Z</time></trkpt>
<trkpt lat="42.173374" lon="23.374095"><ele>2344.7</ele><time>2026-03-02T07:26:56.000Z</time></trkpt>
<trkpt lat="42.173374" lon="23.374095"><ele>2344.7</ele><time>2026-03-02T07:26:57.000Z</time></trkpt>
<trkpt lat="42.173374" lon="23.374095"><ele>2344.7</ele><time>2026-03-02T07:26:58.000Z</time></trkpt>
<trkpt lat="42.173374" lon="23.374095"><ele>2344.7</ele><time>2026-03-02T07:26:59.000Z</time></trkpt>
<trkpt lat="42.173374" lon="23.374095"><ele>2344.8</ele><time>2026-03-02T07:27:00.000Z</time></trkpt>
<trkpt lat="42.173373" lon="23.374095"><ele>2344.8</ele><time>2026-03-02T07:27:01.000Z</time></trkpt>
<trkpt lat="42.173373" lon="23.374094"><ele>2344.8</ele><time>2026-03-02T07:27:02.000Z</time></trkpt>
<trkpt lat="42.173372" lon="23.374092"><ele>2344.8</ele><time>2026-03-02T07:27:03.000Z</time></trkpt>
<trkpt lat="42.173371" lon="23.374089"><ele>2344.8</ele><time>2026-03-02T07:27:04.000Z</time></trkpt>
<trkpt lat="42.173369" lon="23.374085"><ele>2344.8</ele><time>2026-03-02T07:27:05.000Z</time></trkpt>
<trkpt lat="42.173366" lon="23.37408"><ele>2344.8</ele><time>2026-03-02T07:27:06.000Z</time></trkpt>
<trkpt lat="42.173364" lon="23.374074"><ele>2344.8</ele><time>2026-03-02T07:27:07.000Z</time></trkpt>
<trkpt lat="42.173362" lon="23.374068"><ele>2344.8</ele><time>2026-03-02T07:27:08.000Z</time></trkpt>
<trkpt lat="42.17336" lon="23.374062"><ele>2344.8</ele><time>2026-03-02T07:27:09.000Z</time></trkpt>
<trkpt lat="42.17336" lon="23.374055"><ele>2344.9</ele><time>2026-03-02T07:27:10.000Z</time></trkpt>
<trkpt lat="42.17336" lon="23.374048"><ele>2344.9</ele><time>2026-03-02T07:27:11.000Z</time></trkpt>
<trkpt lat="42.173359" lon="23.374042"><ele>2344.9</ele><time>2026-03-02T07:27:12.000Z</time></trkpt>
<trkpt lat="42.173358" lon="23.374037"><ele>2344.9</ele><time>2026-03-02T07:27:13.000Z</time></trkpt>
<trkpt lat="42.173357" lon="23.374031"><ele>2344.9</ele><time>2026-03-02T07:27:14.000Z</time></trkpt>
<trkpt lat="42.173354" lon="23.374025"><ele>2345.2</ele><time>2026-03-02T07:27:15.000Z</time></trkpt>
<trkpt lat="42.173352" lon="23.374018"><ele>2345.2</ele><time>2026-03-02T07:27:16.000Z</time></trkpt>
<trkpt lat="42.173349" lon="23.374012"><ele>2345.2</ele><time>2026-03-02T07:27:17.000Z</time></trkpt>
<trkpt lat="42.173346" lon="23.374005"><ele>2345.2</ele><time>2026-03-02T07:27:18.000Z</time></trkpt>
<trkpt lat="42.173343" lon="23.373998"><ele>2345.2</ele><time>2026-03-02T07:27:19.000Z</time></trkpt>
<trkpt lat="42.173341" lon="23.373992"><ele>2346.1</ele><time>2026-03-02T07:27:20.000Z</time></trkpt>
<trkpt lat="42.173339" lon="23.373987"><ele>2346.1</ele><time>2026-03-02T07:27:21.000Z</time></trkpt>
<trkpt lat="42.173338" lon="23.373982"><ele>2346.1</ele><time>2026-03-02T07:27:22.000Z</time></trkpt>
<trkpt lat="42.173335" lon="23.373979"><ele>2346.1</ele><time>2026-03-02T07:27:23.000Z</time></trkpt>
<trkpt lat="42.173333" lon="23.373976"><ele>2346.1</ele><time>2026-03-02T07:27:24.000Z</time></trkpt>
<trkpt lat="42.173331" lon="23.373973"><ele>2346.8</ele><time>2026-03-02T07:27:25.000Z</time></trkpt>
<trkpt lat="42.173328" lon="23.373969"><ele>2346.8</ele><time>2026-03-02T07:27:26.000Z</time></trkpt>
<trkpt lat="42.173325" lon="23.373966"><ele>2346.8</ele><time>2026-03-02T07:27:27.000Z</time></trkpt>
<trkpt lat="42.173322" lon="23.373963"><ele>2346.8</ele><time>2026-03-02T07:27:28.000Z</time></trkpt>
<trkpt lat="42.17332" lon="23.373959"><ele>2346.8</ele><time>2026-03-02T07:27:29.000Z</time></trkpt>
<trkpt lat="42.173319" lon="23.373956"><ele>2348.4</ele><time>2026-03-02T07:27:30.000Z</time></trkpt>
<trkpt lat="42.173318" lon="23.373954"><ele>2348.4</ele><time>2026-03-02T07:27:31.000Z</time></trkpt>
<trkpt lat="42.173316" lon="23.373952"><ele>2348.4</ele><time>2026-03-02T07:27:32.000Z</time></trkpt>
<trkpt lat="42.173315" lon="23.373951"><ele>2348.4</ele><time>2026-03-02T07:27:33.000Z</time></trkpt>
<trkpt lat="42.173312" lon="23.373949"><ele>2348.4</ele><time>2026-03-02T07:27:34.000Z</time></trkpt>
<trkpt lat="42.17331" lon="23.373946"><ele>2350</ele><time>2026-03-02T07:27:35.000Z</time></trkpt>
<trkpt lat="42.173308" lon="23.373945"><ele>2350</ele><time>2026-03-02T07:27:36.000Z</time></trkpt>
<trkpt lat="42.173306" lon="23.373943"><ele>2350</ele><time>2026-03-02T07:27:37.000Z</time></trkpt>
<trkpt lat="42.173304" lon="23.373941"><ele>2350</ele><time>2026-03-02T07:27:38.000Z</time></trkpt>
<trkpt lat="42.173303" lon="23.373938"><ele>2350</ele><time>2026-03-02T07:27:39.000Z</time></trkpt>
<trkpt lat="42.173302" lon="23.373936"><ele>2350.6</ele><time>2026-03-02T07:27:40.000Z</time></trkpt>
<trkpt lat="42.173301" lon="23.373932"><ele>2350.6</ele><time>2026-03-02T07:27:41.000Z</time></trkpt>
<trkpt lat="42.173299" lon="23.373928"><ele>2350.6</ele><time>2026-03-02T07:27:42.000Z</time></trkpt>
<trkpt lat="42.173299" lon="23.373925"><ele>2350.6</ele><time>2026-03-02T07:27:43.000Z</time></trkpt>
<trkpt lat="42.173299" lon="23.373923"><ele>2350.6</ele><time>2026-03-02T07:27:44.000Z</time></trkpt>
<trkpt lat="42.173299" lon="23.373923"><ele>2351.6</ele><time>2026-03-02T07:27:45.000Z</time></trkpt>
<trkpt lat="42.173301" lon="23.373923"><ele>2351.6</ele><time>2026-03-02T07:27:46.000Z</time></trkpt>
<trkpt lat="42.173303" lon="23.373925"><ele>2351.6</ele><time>2026-03-02T07:27:47.000Z</time></trkpt>
<trkpt lat="42.173305" lon="23.373928"><ele>2351.6</ele><time>2026-03-02T07:27:48.000Z</time></trkpt>
<trkpt lat="42.173307" lon="23.37393"><ele>2351.6</ele><time>2026-03-02T07:27:49.000Z</time></trkpt>
<trkpt lat="42.17331" lon="23.373933"><ele>2352.3</ele><time>2026-03-02T07:27:50.000Z</time></trkpt>
<trkpt lat="42.173311" lon="23.373935"><ele>2352.3</ele><time>2026-03-02T07:27:51.000Z</time></trkpt>
<trkpt lat="42.173312" lon="23.373936"><ele>2352.3</ele><time>2026-03-02T07:27:52.000Z</time></trkpt>
<trkpt lat="42.173313" lon="23.373937"><ele>2352.3</ele><time>2026-03-02T07:27:53.000Z</time></trkpt>
<trkpt lat="42.173313" lon="23.373938"><ele>2352.3</ele><time>2026-03-02T07:27:54.000Z</time></trkpt>
<trkpt lat="42.173313" lon="23.373938"><ele>2352.5</ele><time>2026-03-02T07:27:55.000Z</time></trkpt>
<trkpt lat="42.173313" lon="23.373937"><ele>2352.5</ele><time>2026-03-02T07:27:56.000Z</time></trkpt>
<trkpt lat="42.173313" lon="23.373937"><ele>2352.5</ele><time>2026-03-02T07:27:57.000Z</time></trkpt>
<trkpt lat="42.173313" lon="23.373936"><ele>2352.5</ele><time>2026-03-02T07:27:58.000Z</time></trkpt>
<trkpt lat="42.173313" lon="23.373936"><ele>2352.5</ele><time>2026-03-02T07:27:59.000Z</time></trkpt>
<trkpt lat="42.173313" lon="23.373935"><ele>2352.7</ele><time>2026-03-02T07:28:00.000Z</time></trkpt>
<trkpt lat="42.173313" lon="23.373934"><ele>2352.7</ele><time>2026-03-02T07:28:01.000Z</time></trkpt>
<trkpt lat="42.173313" lon="23.373934"><ele>2352.7</ele><time>2026-03-02T07:28:02.000Z</time></trkpt>
<trkpt lat="42.173312" lon="23.373934"><ele>2352.7</ele><time>2026-03-02T07:28:03.000Z</time></trkpt>
<trkpt lat="42.173312" lon="23.373934"><ele>2352.7</ele><time>2026-03-02T07:28:04.000Z</time></trkpt>
<trkpt lat="42.173312" lon="23.373934"><ele>2352.8</ele><time>2026-03-02T07:28:05.000Z</time></trkpt>
<trkpt lat="42.173312" lon="23.373934"><ele>2352.8</ele><time>2026-03-02T07:28:06.000Z</time></trkpt>
<trkpt lat="42.173311" lon="23.373934"><ele>2352.8</ele><time>2026-03-02T07:28:07.000Z</time></trkpt>
<trkpt lat="42.173311" lon="23.373933"><ele>2352.8</ele><time>2026-03-02T07:28:08.000Z</time></trkpt>
<trkpt lat="42.17331" lon="23.373934"><ele>2352.8</ele><time>2026-03-02T07:28:09.000Z</time></trkpt>
<trkpt lat="42.173308" lon="23.373934"><ele>2352.9</ele><time>2026-03-02T07:28:10.000Z</time></trkpt>
<trkpt lat="42.173305" lon="23.373934"><ele>2352.9</ele><time>2026-03-02T07:28:11.000Z</time></trkpt>
<trkpt lat="42.173303" lon="23.373934"><ele>2352.9</ele><time>2026-03-02T07:28:12.000Z</time></trkpt>
<trkpt lat="42.173301" lon="23.373934"><ele>2352.9</ele><time>2026-03-02T07:28:13.000Z</time></trkpt>
<trkpt lat="42.173297" lon="23.373935"><ele>2352.9</ele><time>2026-03-02T07:28:14.000Z</time></trkpt>
<trkpt lat="42.173295" lon="23.373934"><ele>2353</ele><time>2026-03-02T07:28:15.000Z</time></trkpt>
<trkpt lat="42.173294" lon="23.373932"><ele>2353</ele><time>2026-03-02T07:28:16.000Z</time></trkpt>
<trkpt lat="42.173292" lon="23.37393"><ele>2353</ele><time>2026-03-02T07:28:17.000Z</time></trkpt>
<trkpt lat="42.173291" lon="23.373926"><ele>2353</ele><time>2026-03-02T07:28:18.000Z</time></trkpt>
<trkpt lat="42.17329" lon="23.373923"><ele>2353</ele><time>2026-03-02T07:28:19.000Z</time></trkpt>
<trkpt lat="42.173289" lon="23.373919"><ele>2353</ele><time>2026-03-02T07:28:20.000Z</time></trkpt>
<trkpt lat="42.173289" lon="23.373917"><ele>2353</ele><time>2026-03-02T07:28:21.000Z</time></trkpt>
<trkpt lat="42.173288" lon="23.373915"><ele>2353</ele><time>2026-03-02T07:28:22.000Z</time></trkpt>
<trkpt lat="42.173287" lon="23.373914"><ele>2353</ele><time>2026-03-02T07:28:23.000Z</time></trkpt>
<trkpt lat="42.173285" lon="23.373912"><ele>2353</ele><time>2026-03-02T07:28:24.000Z</time></trkpt>
<trkpt lat="42.173283" lon="23.37391"><ele>2353</ele><time>2026-03-02T07:28:25.000Z</time></trkpt>
<trkpt lat="42.173281" lon="23.373908"><ele>2353</ele><time>2026-03-02T07:28:26.000Z</time></trkpt>
<trkpt lat="42.173278" lon="23.373905"><ele>2353</ele><time>2026-03-02T07:28:27.000Z</time></trkpt>
<trkpt lat="42.173275" lon="23.373903"><ele>2353</ele><time>2026-03-02T07:28:28.000Z</time></trkpt>
<trkpt lat="42.173272" lon="23.3739"><ele>2353</ele><time>2026-03-02T07:28:29.000Z</time></trkpt>
<trkpt lat="42.173269" lon="23.373897"><ele>2353.4</ele><time>2026-03-02T07:28:30.000Z</time></trkpt>
<trkpt lat="42.173266" lon="23.373894"><ele>2353.4</ele><time>2026-03-02T07:28:31.000Z</time></trkpt>
<trkpt lat="42.173263" lon="23.373891"><ele>2353.4</ele><time>2026-03-02T07:28:32.000Z</time></trkpt>
<trkpt lat="42.173261" lon="23.373887"><ele>2353.4</ele><time>2026-03-02T07:28:33.000Z</time></trkpt>
<trkpt lat="42.173258" lon="23.373884"><ele>2353.4</ele><time>2026-03-02T07:28:34.000Z</time></trkpt>
<trkpt lat="42.173257" lon="23.37388"><ele>2354.2</ele><time>2026-03-02T07:28:35.000Z</time></trkpt>
<trkpt lat="42.173256" lon="23.373876"><ele>2354.2</ele><time>2026-03-02T07:28:36.000Z</time></trkpt>
<trkpt lat="42.173254" lon="23.373871"><ele>2354.2</ele><time>2026-03-02T07:28:37.000Z</time></trkpt>
<trkpt lat="42.173253" lon="23.373866"><ele>2354.2</ele><time>2026-03-02T07:28:38.000Z</time></trkpt>
<trkpt lat="42.173251" lon="23.373862"><ele>2354.2</ele><time>2026-03-02T07:28:39.000Z</time></trkpt>
<trkpt lat="42.173248" lon="23.373858"><ele>2354.8</ele><time>2026-03-02T07:28:40.000Z</time></trkpt>
<trkpt lat="42.173244" lon="23.373855"><ele>2354.8</ele><time>2026-03-02T07:28:41.000Z</time></trkpt>
<trkpt lat="42.173241" lon="23.373853"><ele>2354.8</ele><time>2026-03-02T07:28:42.000Z</time></trkpt>
<trkpt lat="42.173238" lon="23.37385"><ele>2354.8</ele><time>2026-03-02T07:28:43.000Z</time></trkpt>
<trkpt lat="42.173236" lon="23.373849"><ele>2354.8</ele><time>2026-03-02T07:28:44.000Z</time></trkpt>
<trkpt lat="42.173234" lon="23.373848"><ele>2355.9</ele><time>2026-03-02T07:28:45.000Z</time></trkpt>
<trkpt lat="42.173232" lon="23.373848"><ele>2355.9</ele><time>2026-03-02T07:28:46.000Z</time></trkpt>
<trkpt lat="42.173231" lon="23.373849"><ele>2355.9</ele><time>2026-03-02T07:28:47.000Z</time></trkpt>
<trkpt lat="42.173229" lon="23.373851"><ele>2355.9</ele><time>2026-03-02T07:28:48.000Z</time></trkpt>
<trkpt lat="42.173227" lon="23.373852"><ele>2355.9</ele><time>2026-03-02T07:28:49.000Z</time></trkpt>
<trkpt lat="42.173226" lon="23.373853"><ele>2357.1</ele><time>2026-03-02T07:28:50.000Z</time></trkpt>
<trkpt lat="42.173226" lon="23.373853"><ele>2357.1</ele><time>2026-03-02T07:28:51.000Z</time></trkpt>
<trkpt lat="42.173226" lon="23.373853"><ele>2357.1</ele><time>2026-03-02T07:28:52.000Z</time></trkpt>
<trkpt lat="42.173226" lon="23.373854"><ele>2357.1</ele><time>2026-03-02T07:28:53.000Z</time></trkpt>
<trkpt lat="42.173226" lon="23.373854"><ele>2357.1</ele><time>2026-03-02T07:28:54.000Z</time></trkpt>
<trkpt lat="42.173226" lon="23.373855"><ele>2357.7</ele><time>2026-03-02T07:28:55.000Z</time></trkpt>
<trkpt lat="42.173226" lon="23.373856"><ele>2357.7</ele><time>2026-03-02T07:28:56.000Z</time></trkpt>
<trkpt lat="42.173227" lon="23.373856"><ele>2357.7</ele><time>2026-03-02T07:28:57.000Z</time></trkpt>
<trkpt lat="42.173229" lon="23.373856"><ele>2357.7</ele><time>2026-03-02T07:28:58.000Z</time></trkpt>
<trkpt lat="42.17323" lon="23.373856"><ele>2357.7</ele><time>2026-03-02T07:28:59.000Z</time></trkpt>
<trkpt lat="42.17323" lon="23.373856"><ele>2358.3</ele><time>2026-03-02T07:29:00.000Z</time></trkpt>
<trkpt lat="42.17323" lon="23.373856"><ele>2358.3</ele><time>2026-03-02T07:29:01.000Z</time></trkpt>
<trkpt lat="42.173227" lon="23.373855"><ele>2358.3</ele><time>2026-03-02T07:29:02.000Z</time></trkpt>
<trkpt lat="42.173224" lon="23.373855"><ele>2358.3</ele><time>2026-03-02T07:29:03.000Z</time></trkpt>
<trkpt lat="42.173221" lon="23.373855"><ele>2358.3</ele><time>2026-03-02T07:29:04.000Z</time></trkpt>
<trkpt lat="42.173219" lon="23.373854"><ele>2358.5</ele><time>2026-03-02T07:29:05.000Z</time></trkpt>
<trkpt lat="42.173217" lon="23.373854"><ele>2358.5</ele><time>2026-03-02T07:29:06.000Z</time></trkpt>
<trkpt lat="42.173217" lon="23.373854"><ele>2358.5</ele><time>2026-03-02T07:29:07.000Z</time></trkpt>
<trkpt lat="42.173217" lon="23.373855"><ele>2358.5</ele><time>2026-03-02T07:29:08.000Z</time></trkpt>
<trkpt lat="42.173217" lon="23.373855"><ele>2358.5</ele><time>2026-03-02T07:29:09.000Z</time></trkpt>
<trkpt lat="42.173217" lon="23.373855"><ele>2358.5</ele><time>2026-03-02T07:29:10.000Z</time></trkpt>
<trkpt lat="42.173217" lon="23.373855"><ele>2358.5</ele><time>2026-03-02T07:29:11.000Z</time></trkpt>
<trkpt lat="42.173217" lon="23.373855"><ele>2358.5</ele><time>2026-03-02T07:29:12.000Z</time></trkpt>
<trkpt lat="42.173217" lon="23.373855"><ele>2358.5</ele><time>2026-03-02T07:29:13.000Z</time></trkpt>
<trkpt lat="42.173217" lon="23.373855"><ele>2358.5</ele><time>2026-03-02T07:29:14.000Z</time></trkpt>
<trkpt lat="42.173218" lon="23.373856"><ele>2358.5</ele><time>2026-03-02T07:29:15.000Z</time></trkpt>
<trkpt lat="42.173218" lon="23.373856"><ele>2358.5</ele><time>2026-03-02T07:29:16.000Z</time></trkpt>
<trkpt lat="42.173219" lon="23.373857"><ele>2358.5</ele><time>2026-03-02T07:29:17.000Z</time></trkpt>
<trkpt lat="42.17322" lon="23.373857"><ele>2358.5</ele><time>2026-03-02T07:29:18.000Z</time></trkpt>
<trkpt lat="42.17322" lon="23.373857"><ele>2358.5</ele><time>2026-03-02T07:29:19.000Z</time></trkpt>
<trkpt lat="42.173221" lon="23.373857"><ele>2358.6</ele><time>2026-03-02T07:29:20.000Z</time></trkpt>
<trkpt lat="42.173221" lon="23.373856"><ele>2358.6</ele><time>2026-03-02T07:29:21.000Z</time></trkpt>
<trkpt lat="42.173221" lon="23.373856"><ele>2358.6</ele><time>2026-03-02T07:29:22.000Z</time></trkpt>
<trkpt lat="42.173221" lon="23.373856"><ele>2358.6</ele><time>2026-03-02T07:29:23.000Z</time></trkpt>
<trkpt lat="42.173222" lon="23.373855"><ele>2358.6</ele><time>2026-03-02T07:29:24.000Z</time></trkpt>
<trkpt lat="42.173223" lon="23.373855"><ele>2358.6</ele><time>2026-03-02T07:29:25.000Z</time></trkpt>
<trkpt lat="42.173223" lon="23.373856"><ele>2358.6</ele><time>2026-03-02T07:29:26.000Z</time></trkpt>
<trkpt lat="42.173224" lon="23.373856"><ele>2358.6</ele><time>2026-03-02T07:29:27.000Z</time></trkpt>
<trkpt lat="42.173224" lon="23.373856"><ele>2358.6</ele><time>2026-03-02T07:29:28.000Z</time></trkpt>
<trkpt lat="42.173225" lon="23.373856"><ele>2358.6</ele><time>2026-03-02T07:29:29.000Z</time></trkpt>
<trkpt lat="42.173226" lon="23.373856"><ele>2358.6</ele><time>2026-03-02T07:29:30.000Z</time></trkpt>
<trkpt lat="42.173226" lon="23.373856"><ele>2358.6</ele><time>2026-03-02T07:29:31.000Z</time></trkpt>
<trkpt lat="42.173227" lon="23.373855"><ele>2358.6</ele><time>2026-03-02T07:29:32.000Z</time></trkpt>
<trkpt lat="42.173228" lon="23.373855"><ele>2358.6</ele><time>2026-03-02T07:29:33.000Z</time></trkpt>
<trkpt lat="42.173228" lon="23.373856"><ele>2358.6</ele><time>2026-03-02T07:29:34.000Z</time></trkpt>
<trkpt lat="42.173228" lon="23.373856"><ele>2358.5</ele><time>2026-03-02T07:29:35.000Z</time></trkpt>
<trkpt lat="42.173228" lon="23.373856"><ele>2358.5</ele><time>2026-03-02T07:29:36.000Z</time></trkpt>
<trkpt lat="42.173228" lon="23.373857"><ele>2358.5</ele><time>2026-03-02T07:29:37.000Z</time></trkpt>
<trkpt lat="42.173228" lon="23.373857"><ele>2358.5</ele><time>2026-03-02T07:29:38.000Z</time></trkpt>
<trkpt lat="42.173229" lon="23.373858"><ele>2358.5</ele><time>2026-03-02T07:29:39.000Z</time></trkpt>
<trkpt lat="42.173229" lon="23.373859"><ele>2358.3</ele><time>2026-03-02T07:29:40.000Z</time></trkpt>
<trkpt lat="42.17323" lon="23.37386"><ele>2358.3</ele><time>2026-03-02T07:29:41.000Z</time></trkpt>
<trkpt lat="42.17323" lon="23.373861"><ele>2358.3</ele><time>2026-03-02T07:29:42.000Z</time></trkpt>
<trkpt lat="42.17323" lon="23.373861"><ele>2358.3</ele><time>2026-03-02T07:29:43.000Z</time></trkpt>
<trkpt lat="42.17323" lon="23.373861"><ele>2358.3</ele><time>2026-03-02T07:29:44.000Z</time></trkpt>
<trkpt lat="42.17323" lon="23.373861"><ele>2358</ele><time>2026-03-02T07:29:45.000Z</time></trkpt>
<trkpt lat="42.17323" lon="23.373861"><ele>2358</ele><time>2026-03-02T07:29:46.000Z</time></trkpt>
<trkpt lat="42.17323" lon="23.373861"><ele>2358</ele><time>2026-03-02T07:29:47.000Z</time></trkpt>
<trkpt lat="42.17323" lon="23.373861"><ele>2358</ele><time>2026-03-02T07:29:48.000Z</time></trkpt>
<trkpt lat="42.173231" lon="23.373861"><ele>2358</ele><time>2026-03-02T07:29:49.000Z</time></trkpt>
<trkpt lat="42.173231" lon="23.37386"><ele>2357.9</ele><time>2026-03-02T07:29:50.000Z</time></trkpt>
<trkpt lat="42.173231" lon="23.37386"><ele>2357.9</ele><time>2026-03-02T07:29:51.000Z</time></trkpt>
<trkpt lat="42.173231" lon="23.37386"><ele>2357.9</ele><time>2026-03-02T07:29:52.000Z</time></trkpt>
<trkpt lat="42.173231" lon="23.37386"><ele>2357.9</ele><time>2026-03-02T07:29:53.000Z</time></trkpt>
<trkpt lat="42.173231" lon="23.37386"><ele>2357.9</ele><time>2026-03-02T07:29:54.000Z</time></trkpt>
<trkpt lat="42.173231" lon="23.37386"><ele>2357.9</ele><time>2026-03-02T07:29:55.000Z</time></trkpt>
<trkpt lat="42.173231" lon="23.37386"><ele>2357.9</ele><time>2026-03-02T07:29:56.000Z</time></trkpt>
<trkpt lat="42.173231" lon="23.37386"><ele>2357.9</ele><time>2026-03-02T07:29:57.000Z</time></trkpt>
<trkpt lat="42.173231" lon="23.37386"><ele>2357.9</ele><time>2026-03-02T07:29:58.000Z</time></trkpt>
<trkpt lat="42.173231" lon="23.37386"><ele>2357.9</ele><time>2026-03-02T07:29:59.000Z</time></trkpt>
<trkpt lat="42.173231" lon="23.37386"><ele>2357.9</ele><time>2026-03-02T07:30:00.000Z</time></trkpt>
<trkpt lat="42.173231" lon="23.37386"><ele>2357.9</ele><time>2026-03-02T07:30:01.000Z</time></trkpt>
<trkpt lat="42.173231" lon="23.37386"><ele>2357.9</ele><time>2026-03-02T07:30:02.000Z</time></trkpt>
<trkpt lat="42.173231" lon="23.37386"><ele>2357.9</ele><time>2026-03-02T07:30:03.000Z</time></trkpt>
<trkpt lat="42.173231" lon="23.37386"><ele>2357.9</ele><time>2026-03-02T07:30:04.000Z</time></trkpt>
<trkpt lat="42.173231" lon="23.37386"><ele>2357.9</ele><time>2026-03-02T07:30:05.000Z</time></trkpt>
<trkpt lat="42.173231" lon="23.37386"><ele>2357.9</ele><time>2026-03-02T07:30:06.000Z</time></trkpt>
<trkpt lat="42.173231" lon="23.37386"><ele>2357.9</ele><time>2026-03-02T07:30:07.000Z</time></trkpt>
<trkpt lat="42.17323" lon="23.37386"><ele>2357.9</ele><time>2026-03-02T07:30:08.000Z</time></trkpt>
<trkpt lat="42.17323" lon="23.373861"><ele>2357.9</ele><time>2026-03-02T07:30:09.000Z</time></trkpt>
<trkpt lat="42.17323" lon="23.373861"><ele>2357.9</ele><time>2026-03-02T07:30:10.000Z</time></trkpt>
<trkpt lat="42.173228" lon="23.37386"><ele>2357.9</ele><time>2026-03-02T07:30:11.000Z</time></trkpt>
<trkpt lat="42.173227" lon="23.373859"><ele>2357.9</ele><time>2026-03-02T07:30:12.000Z</time></trkpt>
<trkpt lat="42.173224" lon="23.373858"><ele>2357.9</ele><time>2026-03-02T07:30:13.000Z</time></trkpt>
<trkpt lat="42.173221" lon="23.373856"><ele>2357.9</ele><time>2026-03-02T07:30:14.000Z</time></trkpt>
<trkpt lat="42.173217" lon="23.373854"><ele>2357.9</ele><time>2026-03-02T07:30:15.000Z</time></trkpt>
<trkpt lat="42.173215" lon="23.373852"><ele>2357.9</ele><time>2026-03-02T07:30:16.000Z</time></trkpt>
<trkpt lat="42.173211" lon="23.37385"><ele>2357.9</ele><time>2026-03-02T07:30:17.000Z</time></trkpt>
<trkpt lat="42.173208" lon="23.373847"><ele>2357.9</ele><time>2026-03-02T07:30:18.000Z</time></trkpt>
<trkpt lat="42.173205" lon="23.373844"><ele>2357.9</ele><time>2026-03-02T07:30:19.000Z</time></trkpt>
<trkpt lat="42.173201" lon="23.373841"><ele>2358</ele><time>2026-03-02T07:30:20.000Z</time></trkpt>
<trkpt lat="42.173197" lon="23.373838"><ele>2358</ele><time>2026-03-02T07:30:21.000Z</time></trkpt>
<trkpt lat="42.173194" lon="23.373835"><ele>2358</ele><time>2026-03-02T07:30:22.000Z</time></trkpt>
<trkpt lat="42.17319" lon="23.373834"><ele>2358</ele><time>2026-03-02T07:30:23.000Z</time></trkpt>
<trkpt lat="42.173188" lon="23.373831"><ele>2358</ele><time>2026-03-02T07:30:24.000Z</time></trkpt>
<trkpt lat="42.173186" lon="23.373828"><ele>2358.3</ele><time>2026-03-02T07:30:25.000Z</time></trkpt>
<trkpt lat="42.173185" lon="23.373825"><ele>2358.3</ele><time>2026-03-02T07:30:26.000Z</time></trkpt>
<trkpt lat="42.173185" lon="23.373822"><ele>2358.3</ele><time>2026-03-02T07:30:27.000Z</time></trkpt>
<trkpt lat="42.173183" lon="23.37382"><ele>2358.3</ele><time>2026-03-02T07:30:28.000Z</time></trkpt>
<trkpt lat="42.17318" lon="23.373818"><ele>2358.3</ele><time>2026-03-02T07:30:29.000Z</time></trkpt>
<trkpt lat="42.173177" lon="23.373817"><ele>2359.2</ele><time>2026-03-02T07:30:30.000Z</time></trkpt>
<trkpt lat="42.173173" lon="23.373818"><ele>2359.2</ele><time>2026-03-02T07:30:31.000Z</time></trkpt>
<trkpt lat="42.173169" lon="23.373817"><ele>2359.2</ele><time>2026-03-02T07:30:32.000Z</time></trkpt>
<trkpt lat="42.173167" lon="23.373816"><ele>2359.2</ele><time>2026-03-02T07:30:33.000Z</time></trkpt>
<trkpt lat="42.173164" lon="23.373815"><ele>2359.2</ele><time>2026-03-02T07:30:34.000Z</time></trkpt>
<trkpt lat="42.173161" lon="23.373814"><ele>2360.3</ele><time>2026-03-02T07:30:35.000Z</time></trkpt>
<trkpt lat="42.173158" lon="23.373812"><ele>2360.3</ele><time>2026-03-02T07:30:36.000Z</time></trkpt>
<trkpt lat="42.173154" lon="23.373811"><ele>2360.3</ele><time>2026-03-02T07:30:37.000Z</time></trkpt>
<trkpt lat="42.17315" lon="23.373809"><ele>2360.3</ele><time>2026-03-02T07:30:38.000Z</time></trkpt>
<trkpt lat="42.173146" lon="23.373808"><ele>2360.3</ele><time>2026-03-02T07:30:39.000Z</time></trkpt>
<trkpt lat="42.173142" lon="23.373804"><ele>2360.9</ele><time>2026-03-02T07:30:40.000Z</time></trkpt>
<trkpt lat="42.17314" lon="23.373801"><ele>2360.9</ele><time>2026-03-02T07:30:41.000Z</time></trkpt>
<trkpt lat="42.173137" lon="23.373797"><ele>2360.9</ele><time>2026-03-02T07:30:42.000Z</time></trkpt>
<trkpt lat="42.173136" lon="23.373793"><ele>2360.9</ele><time>2026-03-02T07:30:43.000Z</time></trkpt>
<trkpt lat="42.173136" lon="23.373787"><ele>2360.9</ele><time>2026-03-02T07:30:44.000Z</time></trkpt>
<trkpt lat="42.173136" lon="23.373784"><ele>2361.9</ele><time>2026-03-02T07:30:45.000Z</time></trkpt>
<trkpt lat="42.173135" lon="23.373781"><ele>2361.9</ele><time>2026-03-02T07:30:46.000Z</time></trkpt>
<trkpt lat="42.173136" lon="23.373778"><ele>2361.9</ele><time>2026-03-02T07:30:47.000Z</time></trkpt>
<trkpt lat="42.173136" lon="23.373776"><ele>2361.9</ele><time>2026-03-02T07:30:48.000Z</time></trkpt>
<trkpt lat="42.173136" lon="23.373774"><ele>2361.9</ele><time>2026-03-02T07:30:49.000Z</time></trkpt>
<trkpt lat="42.173135" lon="23.373772"><ele>2363.2</ele><time>2026-03-02T07:30:50.000Z</time></trkpt>
<trkpt lat="42.173134" lon="23.373771"><ele>2363.2</ele><time>2026-03-02T07:30:51.000Z</time></trkpt>
<trkpt lat="42.173131" lon="23.373771"><ele>2363.2</ele><time>2026-03-02T07:30:52.000Z</time></trkpt>
<trkpt lat="42.173129" lon="23.37377"><ele>2363.2</ele><time>2026-03-02T07:30:53.000Z</time></trkpt>
<trkpt lat="42.173125" lon="23.373771"><ele>2363.2</ele><time>2026-03-02T07:30:54.000Z</time></trkpt>
<trkpt lat="42.173122" lon="23.373771"><ele>2363.8</ele><time>2026-03-02T07:30:55.000Z</time></trkpt>
<trkpt lat="42.173118" lon="23.373771"><ele>2363.8</ele><time>2026-03-02T07:30:56.000Z</time></trkpt>
<trkpt lat="42.173115" lon="23.373771"><ele>2363.8</ele><time>2026-03-02T07:30:57.000Z</time></trkpt>
<trkpt lat="42.173113" lon="23.373771"><ele>2363.8</ele><time>2026-03-02T07:30:58.000Z</time></trkpt>
<trkpt lat="42.173111" lon="23.373771"><ele>2363.8</ele><time>2026-03-02T07:30:59.000Z</time></trkpt>
<trkpt lat="42.17311" lon="23.37377"><ele>2364.9</ele><time>2026-03-02T07:31:00.000Z</time></trkpt>
<trkpt lat="42.17311" lon="23.373771"><ele>2364.9</ele><time>2026-03-02T07:31:01.000Z</time></trkpt>
<trkpt lat="42.17311" lon="23.373771"><ele>2364.9</ele><time>2026-03-02T07:31:02.000Z</time></trkpt>
<trkpt lat="42.173111" lon="23.373771"><ele>2364.9</ele><time>2026-03-02T07:31:03.000Z</time></trkpt>
<trkpt lat="42.173112" lon="23.373771"><ele>2364.9</ele><time>2026-03-02T07:31:04.000Z</time></trkpt>
<trkpt lat="42.173113" lon="23.373772"><ele>2365.8</ele><time>2026-03-02T07:31:05.000Z</time></trkpt>
<trkpt lat="42.173113" lon="23.373772"><ele>2365.8</ele><time>2026-03-02T07:31:06.000Z</time></trkpt>
<trkpt lat="42.173115" lon="23.373772"><ele>2365.8</ele><time>2026-03-02T07:31:07.000Z</time></trkpt>
<trkpt lat="42.173116" lon="23.373772"><ele>2365.8</ele><time>2026-03-02T07:31:08.000Z</time></trkpt>
<trkpt lat="42.173117" lon="23.373772"><ele>2365.8</ele><time>2026-03-02T07:31:09.000Z</time></trkpt>
<trkpt lat="42.173117" lon="23.373772"><ele>2366.2</ele><time>2026-03-02T07:31:10.000Z</time></trkpt>
<trkpt lat="42.173118" lon="23.373773"><ele>2366.2</ele><time>2026-03-02T07:31:11.000Z</time></trkpt>
<trkpt lat="42.173117" lon="23.373773"><ele>2366.2</ele><time>2026-03-02T07:31:12.000Z</time></trkpt>
<trkpt lat="42.173116" lon="23.373774"><ele>2366.2</ele><time>2026-03-02T07:31:13.000Z</time></trkpt>
<trkpt lat="42.173116" lon="23.373774"><ele>2366.2</ele><time>2026-03-02T07:31:14.000Z</time></trkpt>
<trkpt lat="42.173115" lon="23.373774"><ele>2366.7</ele><time>2026-03-02T07:31:15.000Z</time></trkpt>
<trkpt lat="42.173114" lon="23.373774"><ele>2366.7</ele><time>2026-03-02T07:31:16.000Z</time></trkpt>
<trkpt lat="42.173114" lon="23.373774"><ele>2366.7</ele><time>2026-03-02T07:31:17.000Z</time></trkpt>
<trkpt lat="42.173114" lon="23.373774"><ele>2366.7</ele><time>2026-03-02T07:31:18.000Z</time></trkpt>
<trkpt lat="42.173115" lon="23.373774"><ele>2366.7</ele><time>2026-03-02T07:31:19.000Z</time></trkpt>
<trkpt lat="42.173114" lon="23.373773"><ele>2366.8</ele><time>2026-03-02T07:31:20.000Z</time></trkpt>
<trkpt lat="42.173113" lon="23.373773"><ele>2366.8</ele><time>2026-03-02T07:31:21.000Z</time></trkpt>
<trkpt lat="42.173112" lon="23.373773"><ele>2366.8</ele><time>2026-03-02T07:31:22.000Z</time></trkpt>
<trkpt lat="42.173111" lon="23.373773"><ele>2366.8</ele><time>2026-03-02T07:31:23.000Z</time></trkpt>
<trkpt lat="42.173109" lon="23.373773"><ele>2366.8</ele><time>2026-03-02T07:31:24.000Z</time></trkpt>
<trkpt lat="42.173108" lon="23.373773"><ele>2366.8</ele><time>2026-03-02T07:31:25.000Z</time></trkpt>
<trkpt lat="42.173106" lon="23.373772"><ele>2366.8</ele><time>2026-03-02T07:31:26.000Z</time></trkpt>
<trkpt lat="42.173104" lon="23.373771"><ele>2366.8</ele><time>2026-03-02T07:31:27.000Z</time></trkpt>
<trkpt lat="42.173101" lon="23.373768"><ele>2366.8</ele><time>2026-03-02T07:31:28.000Z</time></trkpt>
<trkpt lat="42.173098" lon="23.373766"><ele>2366.8</ele><time>2026-03-02T07:31:29.000Z</time></trkpt>
<trkpt lat="42.173095" lon="23.373763"><ele>2366.7</ele><time>2026-03-02T07:31:30.000Z</time></trkpt>
<trkpt lat="42.173091" lon="23.373759"><ele>2366.7</ele><time>2026-03-02T07:31:31.000Z</time></trkpt>
<trkpt lat="42.173087" lon="23.373757"><ele>2366.7</ele><time>2026-03-02T07:31:32.000Z</time></trkpt>
<trkpt lat="42.173083" lon="23.373754"><ele>2366.7</ele><time>2026-03-02T07:31:33.000Z</time></trkpt>
<trkpt lat="42.173079" lon="23.373752"><ele>2366.7</ele><time>2026-03-02T07:31:34.000Z</time></trkpt>
<trkpt lat="42.173076" lon="23.37375"><ele>2366.8</ele><time>2026-03-02T07:31:35.000Z</time></trkpt>
<trkpt lat="42.173074" lon="23.373749"><ele>2366.8</ele><time>2026-03-02T07:31:36.000Z</time></trkpt>
<trkpt lat="42.173072" lon="23.373747"><ele>2366.8</ele><time>2026-03-02T07:31:37.000Z</time></trkpt>
<trkpt lat="42.173071" lon="23.373745"><ele>2366.8</ele><time>2026-03-02T07:31:38.000Z</time></trkpt>
<trkpt lat="42.173071" lon="23.373743"><ele>2366.8</ele><time>2026-03-02T07:31:39.000Z</time></trkpt>
<trkpt lat="42.17307" lon="23.37374"><ele>2366.9</ele><time>2026-03-02T07:31:40.000Z</time></trkpt>
<trkpt lat="42.173069" lon="23.373737"><ele>2366.9</ele><time>2026-03-02T07:31:41.000Z</time></trkpt>
<trkpt lat="42.173067" lon="23.373734"><ele>2366.9</ele><time>2026-03-02T07:31:42.000Z</time></trkpt>
<trkpt lat="42.173065" lon="23.373731"><ele>2366.9</ele><time>2026-03-02T07:31:43.000Z</time></trkpt>
<trkpt lat="42.173064" lon="23.373729"><ele>2366.9</ele><time>2026-03-02T07:31:44.000Z</time></trkpt>
<trkpt lat="42.173062" lon="23.373727"><ele>2367.5</ele><time>2026-03-02T07:31:45.000Z</time></trkpt>
<trkpt lat="42.17306" lon="23.373728"><ele>2367.5</ele><time>2026-03-02T07:31:46.000Z</time></trkpt>
<trkpt lat="42.173058" lon="23.373728"><ele>2367.5</ele><time>2026-03-02T07:31:47.000Z</time></trkpt>
<trkpt lat="42.173056" lon="23.373728"><ele>2367.5</ele><time>2026-03-02T07:31:48.000Z</time></trkpt>
<trkpt lat="42.173054" lon="23.373728"><ele>2367.5</ele><time>2026-03-02T07:31:49.000Z</time></trkpt>
<trkpt lat="42.173053" lon="23.373726"><ele>2368.7</ele><time>2026-03-02T07:31:50.000Z</time></trkpt>
<trkpt lat="42.173052" lon="23.373722"><ele>2368.7</ele><time>2026-03-02T07:31:51.000Z</time></trkpt>
<trkpt lat="42.173051" lon="23.373719"><ele>2368.7</ele><time>2026-03-02T07:31:52.000Z</time></trkpt>
<trkpt lat="42.17305" lon="23.373715"><ele>2368.7</ele><time>2026-03-02T07:31:53.000Z</time></trkpt>
<trkpt lat="42.173049" lon="23.37371"><ele>2368.7</ele><time>2026-03-02T07:31:54.000Z</time></trkpt>
<trkpt lat="42.173048" lon="23.373707"><ele>2369.4</ele><time>2026-03-02T07:31:55.000Z</time></trkpt>
<trkpt lat="42.173046" lon="23.373704"><ele>2369.4</ele><time>2026-03-02T07:31:56.000Z</time></trkpt>
<trkpt lat="42.173045" lon="23.373701"><ele>2369.4</ele><time>2026-03-02T07:31:57.000Z</time></trkpt>
<trkpt lat="42.173043" lon="23.373699"><ele>2369.4</ele><time>2026-03-02T07:31:58.000Z</time></trkpt>
<trkpt lat="42.173041" lon="23.373698"><ele>2369.4</ele><time>2026-03-02T07:31:59.000Z</time></trkpt>
<trkpt lat="42.173037" lon="23.373696"><ele>2370.7</ele><time>2026-03-02T07:32:00.000Z</time></trkpt>
<trkpt lat="42.173033" lon="23.373694"><ele>2370.7</ele><time>2026-03-02T07:32:01.000Z</time></trkpt>
<trkpt lat="42.17303" lon="23.373692"><ele>2370.7</ele><time>2026-03-02T07:32:02.000Z</time></trkpt>
<trkpt lat="42.173027" lon="23.37369"><ele>2370.7</ele><time>2026-03-02T07:32:03.000Z</time></trkpt>
<trkpt lat="42.173024" lon="23.373687"><ele>2370.7</ele><time>2026-03-02T07:32:04.000Z</time></trkpt>
<trkpt lat="42.173022" lon="23.373685"><ele>2371.6</ele><time>2026-03-02T07:32:05.000Z</time></trkpt>
<trkpt lat="42.17302" lon="23.373683"><ele>2371.6</ele><time>2026-03-02T07:32:06.000Z</time></trkpt>
<trkpt lat="42.173018" lon="23.373679"><ele>2371.6</ele><time>2026-03-02T07:32:07.000Z</time></trkpt>
<trkpt lat="42.173018" lon="23.373676"><ele>2371.6</ele><time>2026-03-02T07:32:08.000Z</time></trkpt>
<trkpt lat="42.173017" lon="23.373672"><ele>2371.6</ele><time>2026-03-02T07:32:09.000Z</time></trkpt>
<trkpt lat="42.173017" lon="23.37367"><ele>2372</ele><time>2026-03-02T07:32:10.000Z</time></trkpt>
<trkpt lat="42.173018" lon="23.373668"><ele>2372</ele><time>2026-03-02T07:32:11.000Z</time></trkpt>
<trkpt lat="42.173019" lon="23.373668"><ele>2372</ele><time>2026-03-02T07:32:12.000Z</time></trkpt>
<trkpt lat="42.173019" lon="23.373669"><ele>2372</ele><time>2026-03-02T07:32:13.000Z</time></trkpt>
<trkpt lat="42.173019" lon="23.37367"><ele>2372</ele><time>2026-03-02T07:32:14.000Z</time></trkpt>
<trkpt lat="42.173018" lon="23.373671"><ele>2372.9</ele><time>2026-03-02T07:32:15.000Z</time></trkpt>
<trkpt lat="42.173017" lon="23.373671"><ele>2372.9</ele><time>2026-03-02T07:32:16.000Z</time></trkpt>
<trkpt lat="42.173016" lon="23.373672"><ele>2372.9</ele><time>2026-03-02T07:32:17.000Z</time></trkpt>
<trkpt lat="42.173016" lon="23.373672"><ele>2372.9</ele><time>2026-03-02T07:32:18.000Z</time></trkpt>
<trkpt lat="42.173015" lon="23.373672"><ele>2372.9</ele><time>2026-03-02T07:32:19.000Z</time></trkpt>
<trkpt lat="42.173015" lon="23.373672"><ele>2373.8</ele><time>2026-03-02T07:32:20.000Z</time></trkpt>
<trkpt lat="42.173015" lon="23.373672"><ele>2373.8</ele><time>2026-03-02T07:32:21.000Z</time></trkpt>
<trkpt lat="42.173015" lon="23.373672"><ele>2373.8</ele><time>2026-03-02T07:32:22.000Z</time></trkpt>
<trkpt lat="42.173015" lon="23.373672"><ele>2373.8</ele><time>2026-03-02T07:32:23.000Z</time></trkpt>
<trkpt lat="42.173015" lon="23.373672"><ele>2373.8</ele><time>2026-03-02T07:32:24.000Z</time></trkpt>
<trkpt lat="42.173015" lon="23.373672"><ele>2374.2</ele><time>2026-03-02T07:32:25.000Z</time></trkpt>
<trkpt lat="42.173015" lon="23.373672"><ele>2374.2</ele><time>2026-03-02T07:32:26.000Z</time></trkpt>
<trkpt lat="42.173016" lon="23.373672"><ele>2374.2</ele><time>2026-03-02T07:32:27.000Z</time></trkpt>
<trkpt lat="42.173017" lon="23.373673"><ele>2374.2</ele><time>2026-03-02T07:32:28.000Z</time></trkpt>
<trkpt lat="42.173017" lon="23.373673"><ele>2374.2</ele><time>2026-03-02T07:32:29.000Z</time></trkpt>
<trkpt lat="42.173018" lon="23.373673"><ele>2374.6</ele><time>2026-03-02T07:32:30.000Z</time></trkpt>
<trkpt lat="42.173019" lon="23.373673"><ele>2374.6</ele><time>2026-03-02T07:32:31.000Z</time></trkpt>
<trkpt lat="42.17302" lon="23.373673"><ele>2374.6</ele><time>2026-03-02T07:32:32.000Z</time></trkpt>
<trkpt lat="42.17302" lon="23.373672"><ele>2374.6</ele><time>2026-03-02T07:32:33.000Z</time></trkpt>
<trkpt lat="42.17302" lon="23.373672"><ele>2374.6</ele><time>2026-03-02T07:32:34.000Z</time></trkpt>
<trkpt lat="42.17302" lon="23.373672"><ele>2374.7</ele><time>2026-03-02T07:32:35.000Z</time></trkpt>
<trkpt lat="42.17302" lon="23.373672"><ele>2374.7</ele><time>2026-03-02T07:32:36.000Z</time></trkpt>
<trkpt lat="42.17302" lon="23.373672"><ele>2374.7</ele><time>2026-03-02T07:32:37.000Z</time></trkpt>
<trkpt lat="42.17302" lon="23.373672"><ele>2374.7</ele><time>2026-03-02T07:32:38.000Z</time></trkpt>
<trkpt lat="42.17302" lon="23.373672"><ele>2374.7</ele><time>2026-03-02T07:32:39.000Z</time></trkpt>
<trkpt lat="42.17302" lon="23.373672"><ele>2374.7</ele><time>2026-03-02T07:32:40.000Z</time></trkpt>
<trkpt lat="42.17302" lon="23.373672"><ele>2374.7</ele><time>2026-03-02T07:32:41.000Z</time></trkpt>
<trkpt lat="42.173019" lon="23.373671"><ele>2374.7</ele><time>2026-03-02T07:32:42.000Z</time></trkpt>
<trkpt lat="42.173018" lon="23.37367"><ele>2374.7</ele><time>2026-03-02T07:32:43.000Z</time></trkpt>
<trkpt lat="42.173017" lon="23.37367"><ele>2374.7</ele><time>2026-03-02T07:32:44.000Z</time></trkpt>
<trkpt lat="42.173016" lon="23.37367"><ele>2375</ele><time>2026-03-02T07:32:45.000Z</time></trkpt>
<trkpt lat="42.173014" lon="23.373671"><ele>2375</ele><time>2026-03-02T07:32:46.000Z</time></trkpt>
<trkpt lat="42.173014" lon="23.373672"><ele>2375</ele><time>2026-03-02T07:32:47.000Z</time></trkpt>
<trkpt lat="42.173013" lon="23.373673"><ele>2375</ele><time>2026-03-02T07:32:48.000Z</time></trkpt>
<trkpt lat="42.173013" lon="23.373673"><ele>2375</ele><time>2026-03-02T07:32:49.000Z</time></trkpt>
<trkpt lat="42.173013" lon="23.373673"><ele>2375.2</ele><time>2026-03-02T07:32:50.000Z</time></trkpt>
<trkpt lat="42.173013" lon="23.373673"><ele>2375.2</ele><time>2026-03-02T07:32:51.000Z</time></trkpt>
<trkpt lat="42.173012" lon="23.373672"><ele>2375.2</ele><time>2026-03-02T07:32:52.000Z</time></trkpt>
<trkpt lat="42.17301" lon="23.373672"><ele>2375.2</ele><time>2026-03-02T07:32:53.000Z</time></trkpt>
<trkpt lat="42.173007" lon="23.373671"><ele>2375.2</ele><time>2026-03-02T07:32:54.000Z</time></trkpt>
<trkpt lat="42.173004" lon="23.373669"><ele>2375.2</ele><time>2026-03-02T07:32:55.000Z</time></trkpt>
<trkpt lat="42.173" lon="23.373666"><ele>2375.2</ele><time>2026-03-02T07:32:56.000Z</time></trkpt>
<trkpt lat="42.172997" lon="23.373663"><ele>2375.2</ele><time>2026-03-02T07:32:57.000Z</time></trkpt>
<trkpt lat="42.172994" lon="23.37366"><ele>2375.2</ele><time>2026-03-02T07:32:58.000Z</time></trkpt>
<trkpt lat="42.172991" lon="23.373656"><ele>2375.2</ele><time>2026-03-02T07:32:59.000Z</time></trkpt>
<trkpt lat="42.172987" lon="23.373653"><ele>2375.3</ele><time>2026-03-02T07:33:00.000Z</time></trkpt>
<trkpt lat="42.172983" lon="23.373651"><ele>2375.3</ele><time>2026-03-02T07:33:01.000Z</time></trkpt>
<trkpt lat="42.172981" lon="23.373648"><ele>2375.3</ele><time>2026-03-02T07:33:02.000Z</time></trkpt>
<trkpt lat="42.172978" lon="23.373645"><ele>2375.3</ele><time>2026-03-02T07:33:03.000Z</time></trkpt>
<trkpt lat="42.172977" lon="23.373643"><ele>2375.3</ele><time>2026-03-02T07:33:04.000Z</time></trkpt>
<trkpt lat="42.172975" lon="23.373639"><ele>2375.9</ele><time>2026-03-02T07:33:05.000Z</time></trkpt>
<trkpt lat="42.172975" lon="23.373636"><ele>2375.9</ele><time>2026-03-02T07:33:06.000Z</time></trkpt>
<trkpt lat="42.172973" lon="23.373632"><ele>2375.9</ele><time>2026-03-02T07:33:07.000Z</time></trkpt>
<trkpt lat="42.172972" lon="23.373629"><ele>2375.9</ele><time>2026-03-02T07:33:08.000Z</time></trkpt>
<trkpt lat="42.172969" lon="23.373626"><ele>2375.9</ele><time>2026-03-02T07:33:09.000Z</time></trkpt>
<trkpt lat="42.172967" lon="23.373622"><ele>2376.4</ele><time>2026-03-02T07:33:10.000Z</time></trkpt>
<trkpt lat="42.172965" lon="23.373618"><ele>2376.4</ele><time>2026-03-02T07:33:11.000Z</time></trkpt>
<trkpt lat="42.172963" lon="23.373613"><ele>2376.4</ele><time>2026-03-02T07:33:12.000Z</time></trkpt>
<trkpt lat="42.172962" lon="23.373608"><ele>2376.4</ele><time>2026-03-02T07:33:13.000Z</time></trkpt>
<trkpt lat="42.17296" lon="23.373603"><ele>2376.4</ele><time>2026-03-02T07:33:14.000Z</time></trkpt>
<trkpt lat="42.172958" lon="23.373599"><ele>2377.4</ele><time>2026-03-02T07:33:15.000Z</time></trkpt>
<trkpt lat="42.172955" lon="23.373595"><ele>2377.4</ele><time>2026-03-02T07:33:16.000Z</time></trkpt>
<trkpt lat="42.172952" lon="23.37359"><ele>2377.4</ele><time>2026-03-02T07:33:17.000Z</time></trkpt>
<trkpt lat="42.172948" lon="23.373584"><ele>2377.4</ele><time>2026-03-02T07:33:18.000Z</time></trkpt>
<trkpt lat="42.172946" lon="23.373577"><ele>2377.4</ele><time>2026-03-02T07:33:19.000Z</time></trkpt>
<trkpt lat="42.172943" lon="23.37357"><ele>2378.6</ele><time>2026-03-02T07:33:20.000Z</time></trkpt>
<trkpt lat="42.172942" lon="23.373563"><ele>2378.6</ele><time>2026-03-02T07:33:21.000Z</time></trkpt>
<trkpt lat="42.172941" lon="23.373557"><ele>2378.6</ele><time>2026-03-02T07:33:22.000Z</time></trkpt>
<trkpt lat="42.17294" lon="23.373552"><ele>2378.6</ele><time>2026-03-02T07:33:23.000Z</time></trkpt>
<trkpt lat="42.172939" lon="23.373547"><ele>2378.6</ele><time>2026-03-02T07:33:24.000Z</time></trkpt>
<trkpt lat="42.172937" lon="23.373543"><ele>2379.2</ele><time>2026-03-02T07:33:25.000Z</time></trkpt>
<trkpt lat="42.172935" lon="23.373539"><ele>2379.2</ele><time>2026-03-02T07:33:26.000Z</time></trkpt>
<trkpt lat="42.172932" lon="23.373536"><ele>2379.2</ele><time>2026-03-02T07:33:27.000Z</time></trkpt>
<trkpt lat="42.17293" lon="23.373532"><ele>2379.2</ele><time>2026-03-02T07:33:28.000Z</time></trkpt>
<trkpt lat="42.172927" lon="23.373528"><ele>2379.2</ele><time>2026-03-02T07:33:29.000Z</time></trkpt>
<trkpt lat="42.172925" lon="23.373525"><ele>2380.6</ele><time>2026-03-02T07:33:30.000Z</time></trkpt>
<trkpt lat="42.172923" lon="23.373522"><ele>2380.6</ele><time>2026-03-02T07:33:31.000Z</time></trkpt>
<trkpt lat="42.172921" lon="23.373519"><ele>2380.6</ele><time>2026-03-02T07:33:32.000Z</time></trkpt>
<trkpt lat="42.172919" lon="23.373516"><ele>2380.6</ele><time>2026-03-02T07:33:33.000Z</time></trkpt>
<trkpt lat="42.172917" lon="23.373513"><ele>2380.6</ele><time>2026-03-02T07:33:34.000Z</time></trkpt>
<trkpt lat="42.172915" lon="23.37351"><ele>2381.9</ele><time>2026-03-02T07:33:35.000Z</time></trkpt>
<trkpt lat="42.172914" lon="23.373507"><ele>2381.9</ele><time>2026-03-02T07:33:36.000Z</time></trkpt>
<trkpt lat="42.172913" lon="23.373504"><ele>2381.9</ele><time>2026-03-02T07:33:37.000Z</time></trkpt>
<trkpt lat="42.172911" lon="23.373501"><ele>2381.9</ele><time>2026-03-02T07:33:38.000Z</time></trkpt>
<trkpt lat="42.17291" lon="23.373498"><ele>2381.9</ele><time>2026-03-02T07:33:39.000Z</time></trkpt>
<trkpt lat="42.172908" lon="23.373494"><ele>2382.6</ele><time>2026-03-02T07:33:40.000Z</time></trkpt>
<trkpt lat="42.172907" lon="23.373491"><ele>2382.6</ele><time>2026-03-02T07:33:41.000Z</time></trkpt>
<trkpt lat="42.172905" lon="23.373487"><ele>2382.6</ele><time>2026-03-02T07:33:42.000Z</time></trkpt>
<trkpt lat="42.172904" lon="23.373484"><ele>2382.6</ele><time>2026-03-02T07:33:43.000Z</time></trkpt>
<trkpt lat="42.172903" lon="23.373483"><ele>2382.6</ele><time>2026-03-02T07:33:44.000Z</time></trkpt>
<trkpt lat="42.172902" lon="23.373482"><ele>2383.7</ele><time>2026-03-02T07:33:45.000Z</time></trkpt>
<trkpt lat="42.172902" lon="23.373482"><ele>2383.7</ele><time>2026-03-02T07:33:46.000Z</time></trkpt>
<trkpt lat="42.172902" lon="23.373482"><ele>2383.7</ele><time>2026-03-02T07:33:47.000Z</time></trkpt>
<trkpt lat="42.172901" lon="23.373481"><ele>2383.7</ele><time>2026-03-02T07:33:48.000Z</time></trkpt>
<trkpt lat="42.172901" lon="23.373481"><ele>2383.7</ele><time>2026-03-02T07:33:49.000Z</time></trkpt>
<trkpt lat="42.172902" lon="23.373481"><ele>2384.7</ele><time>2026-03-02T07:33:50.000Z</time></trkpt>
<trkpt lat="42.172902" lon="23.37348"><ele>2384.7</ele><time>2026-03-02T07:33:51.000Z</time></trkpt>
<trkpt lat="42.172903" lon="23.373479"><ele>2384.7</ele><time>2026-03-02T07:33:52.000Z</time></trkpt>
<trkpt lat="42.172903" lon="23.373478"><ele>2384.7</ele><time>2026-03-02T07:33:53.000Z</time></trkpt>
<trkpt lat="42.172904" lon="23.373478"><ele>2384.7</ele><time>2026-03-02T07:33:54.000Z</time></trkpt>
<trkpt lat="42.172904" lon="23.373476"><ele>2385.1</ele><time>2026-03-02T07:33:55.000Z</time></trkpt>
<trkpt lat="42.172903" lon="23.373473"><ele>2385.1</ele><time>2026-03-02T07:33:56.000Z</time></trkpt>
<trkpt lat="42.172903" lon="23.373469"><ele>2385.1</ele><time>2026-03-02T07:33:57.000Z</time></trkpt>
<trkpt lat="42.172902" lon="23.373464"><ele>2385.1</ele><time>2026-03-02T07:33:58.000Z</time></trkpt>
<trkpt lat="42.1729" lon="23.373458"><ele>2385.1</ele><time>2026-03-02T07:33:59.000Z</time></trkpt>
<trkpt lat="42.172898" lon="23.373453"><ele>2385.6</ele><time>2026-03-02T07:34:00.000Z</time></trkpt>
<trkpt lat="42.172895" lon="23.373449"><ele>2385.6</ele><time>2026-03-02T07:34:01.000Z</time></trkpt>
<trkpt lat="42.172891" lon="23.373447"><ele>2385.6</ele><time>2026-03-02T07:34:02.000Z</time></trkpt>
<trkpt lat="42.172888" lon="23.373444"><ele>2385.6</ele><time>2026-03-02T07:34:03.000Z</time></trkpt>
<trkpt lat="42.172885" lon="23.37344"><ele>2385.6</ele><time>2026-03-02T07:34:04.000Z</time></trkpt>
<trkpt lat="42.172883" lon="23.373435"><ele>2386</ele><time>2026-03-02T07:34:05.000Z</time></trkpt>
<trkpt lat="42.172882" lon="23.373428"><ele>2386</ele><time>2026-03-02T07:34:06.000Z</time></trkpt>
<trkpt lat="42.17288" lon="23.37342"><ele>2386</ele><time>2026-03-02T07:34:07.000Z</time></trkpt>
<trkpt lat="42.172879" lon="23.373413"><ele>2386</ele><time>2026-03-02T07:34:08.000Z</time></trkpt>
<trkpt lat="42.172877" lon="23.373407"><ele>2386</ele><time>2026-03-02T07:34:09.000Z</time></trkpt>
<trkpt lat="42.172874" lon="23.373402"><ele>2386.3</ele><time>2026-03-02T07:34:10.000Z</time></trkpt>
<trkpt lat="42.172871" lon="23.373396"><ele>2386.3</ele><time>2026-03-02T07:34:11.000Z</time></trkpt>
<trkpt lat="42.172869" lon="23.373392"><ele>2386.3</ele><time>2026-03-02T07:34:12.000Z</time></trkpt>
<trkpt lat="42.172866" lon="23.373387"><ele>2386.3</ele><time>2026-03-02T07:34:13.000Z</time></trkpt>
<trkpt lat="42.172865" lon="23.373383"><ele>2386.3</ele><time>2026-03-02T07:34:14.000Z</time></trkpt>
<trkpt lat="42.172864" lon="23.37338"><ele>2387.2</ele><time>2026-03-02T07:34:15.000Z</time></trkpt>
<trkpt lat="42.172864" lon="23.373378"><ele>2387.2</ele><time>2026-03-02T07:34:16.000Z</time></trkpt>
<trkpt lat="42.172864" lon="23.373377"><ele>2387.2</ele><time>2026-03-02T07:34:17.000Z</time></trkpt>
<trkpt lat="42.172864" lon="23.373376"><ele>2387.2</ele><time>2026-03-02T07:34:18.000Z</time></trkpt>
<trkpt lat="42.172863" lon="23.373376"><ele>2387.2</ele><time>2026-03-02T07:34:19.000Z</time></trkpt>
<trkpt lat="42.172862" lon="23.373374"><ele>2388.5</ele><time>2026-03-02T07:34:20.000Z</time></trkpt>
<trkpt lat="42.172859" lon="23.373373"><ele>2388.5</ele><time>2026-03-02T07:34:21.000Z</time></trkpt>
<trkpt lat="42.172857" lon="23.37337"><ele>2388.5</ele><time>2026-03-02T07:34:22.000Z</time></trkpt>
<trkpt lat="42.172854" lon="23.373368"><ele>2388.5</ele><time>2026-03-02T07:34:23.000Z</time></trkpt>
<trkpt lat="42.172852" lon="23.373368"><ele>2388.5</ele><time>2026-03-02T07:34:24.000Z</time></trkpt>
<trkpt lat="42.17285" lon="23.373368"><ele>2389.2</ele><time>2026-03-02T07:34:25.000Z</time></trkpt>
<trkpt lat="42.172848" lon="23.373368"><ele>2389.2</ele><time>2026-03-02T07:34:26.000Z</time></trkpt>
<trkpt lat="42.172848" lon="23.373368"><ele>2389.2</ele><time>2026-03-02T07:34:27.000Z</time></trkpt>
<trkpt lat="42.172847" lon="23.373367"><ele>2389.2</ele><time>2026-03-02T07:34:28.000Z</time></trkpt>
<trkpt lat="42.172848" lon="23.373366"><ele>2389.2</ele><time>2026-03-02T07:34:29.000Z</time></trkpt>
<trkpt lat="42.172847" lon="23.373365"><ele>2390.6</ele><time>2026-03-02T07:34:30.000Z</time></trkpt>
<trkpt lat="42.172847" lon="23.373365"><ele>2390.6</ele><time>2026-03-02T07:34:31.000Z</time></trkpt>
<trkpt lat="42.172847" lon="23.373366"><ele>2390.6</ele><time>2026-03-02T07:34:32.000Z</time></trkpt>
<trkpt lat="42.172847" lon="23.373367"><ele>2390.6</ele><time>2026-03-02T07:34:33.000Z</time></trkpt>
<trkpt lat="42.172846" lon="23.373369"><ele>2390.6</ele><time>2026-03-02T07:34:34.000Z</time></trkpt>
<trkpt lat="42.172846" lon="23.373371"><ele>2391.5</ele><time>2026-03-02T07:34:35.000Z</time></trkpt>
<trkpt lat="42.172847" lon="23.373371"><ele>2391.5</ele><time>2026-03-02T07:34:36.000Z</time></trkpt>
<trkpt lat="42.172846" lon="23.373371"><ele>2391.5</ele><time>2026-03-02T07:34:37.000Z</time></trkpt>
<trkpt lat="42.172846" lon="23.373371"><ele>2391.5</ele><time>2026-03-02T07:34:38.000Z</time></trkpt>
<trkpt lat="42.172845" lon="23.373371"><ele>2391.5</ele><time>2026-03-02T07:34:39.000Z</time></trkpt>
<trkpt lat="42.172845" lon="23.373371"><ele>2391.8</ele><time>2026-03-02T07:34:40.000Z</time></trkpt>
<trkpt lat="42.172844" lon="23.373371"><ele>2391.8</ele><time>2026-03-02T07:34:41.000Z</time></trkpt>
<trkpt lat="42.172844" lon="23.373371"><ele>2391.8</ele><time>2026-03-02T07:34:42.000Z</time></trkpt>
<trkpt lat="42.172844" lon="23.373371"><ele>2391.8</ele><time>2026-03-02T07:34:43.000Z</time></trkpt>
<trkpt lat="42.172844" lon="23.373371"><ele>2391.8</ele><time>2026-03-02T07:34:44.000Z</time></trkpt>
<trkpt lat="42.172844" lon="23.373371"><ele>2392.2</ele><time>2026-03-02T07:34:45.000Z</time></trkpt>
<trkpt lat="42.172844" lon="23.373371"><ele>2392.2</ele><time>2026-03-02T07:34:46.000Z</time></trkpt>
<trkpt lat="42.172844" lon="23.373371"><ele>2392.2</ele><time>2026-03-02T07:34:47.000Z</time></trkpt>
<trkpt lat="42.172844" lon="23.373371"><ele>2392.2</ele><time>2026-03-02T07:34:48.000Z</time></trkpt>
<trkpt lat="42.172844" lon="23.373371"><ele>2392.2</ele><time>2026-03-02T07:34:49.000Z</time></trkpt>
<trkpt lat="42.172844" lon="23.373371"><ele>2392.2</ele><time>2026-03-02T07:34:50.000Z</time></trkpt>
<trkpt lat="42.172844" lon="23.373371"><ele>2392.2</ele><time>2026-03-02T07:34:51.000Z</time></trkpt>
<trkpt lat="42.172844" lon="23.373371"><ele>2392.2</ele><time>2026-03-02T07:34:52.000Z</time></trkpt>
<trkpt lat="42.172844" lon="23.373371"><ele>2392.2</ele><time>2026-03-02T07:34:53.000Z</time></trkpt>
<trkpt lat="42.172844" lon="23.373371"><ele>2392.2</ele><time>2026-03-02T07:34:54.000Z</time></trkpt>
<trkpt lat="42.172843" lon="23.373371"><ele>2392.2</ele><time>2026-03-02T07:34:55.000Z</time></trkpt>
<trkpt lat="42.172843" lon="23.37337"><ele>2392.2</ele><time>2026-03-02T07:34:56.000Z</time></trkpt>
<trkpt lat="42.172843" lon="23.37337"><ele>2392.2</ele><time>2026-03-02T07:34:57.000Z</time></trkpt>
<trkpt lat="42.172843" lon="23.373369"><ele>2392.2</ele><time>2026-03-02T07:34:58.000Z</time></trkpt>
<trkpt lat="42.172842" lon="23.373368"><ele>2392.2</ele><time>2026-03-02T07:34:59.000Z</time></trkpt>
<trkpt lat="42.172842" lon="23.373367"><ele>2392.1</ele><time>2026-03-02T07:35:00.000Z</time></trkpt>
<trkpt lat="42.172841" lon="23.373367"><ele>2392.1</ele><time>2026-03-02T07:35:01.000Z</time></trkpt>
<trkpt lat="42.172841" lon="23.373366"><ele>2392.1</ele><time>2026-03-02T07:35:02.000Z</time></trkpt>
<trkpt lat="42.172841" lon="23.373366"><ele>2392.1</ele><time>2026-03-02T07:35:03.000Z</time></trkpt>
<trkpt lat="42.172841" lon="23.373366"><ele>2392.1</ele><time>2026-03-02T07:35:04.000Z</time></trkpt>
<trkpt lat="42.172841" lon="23.373366"><ele>2392</ele><time>2026-03-02T07:35:05.000Z</time></trkpt>
<trkpt lat="42.172841" lon="23.373366"><ele>2392</ele><time>2026-03-02T07:35:06.000Z</time></trkpt>
<trkpt lat="42.172841" lon="23.373366"><ele>2392</ele><time>2026-03-02T07:35:07.000Z</time></trkpt>
<trkpt lat="42.172841" lon="23.373366"><ele>2392</ele><time>2026-03-02T07:35:08.000Z</time></trkpt>
<trkpt lat="42.172841" lon="23.373366"><ele>2392</ele><time>2026-03-02T07:35:09.000Z</time></trkpt>
<trkpt lat="42.172841" lon="23.373366"><ele>2391.9</ele><time>2026-03-02T07:35:10.000Z</time></trkpt>
<trkpt lat="42.17284" lon="23.373365"><ele>2391.9</ele><time>2026-03-02T07:35:11.000Z</time></trkpt>
<trkpt lat="42.17284" lon="23.373363"><ele>2391.9</ele><time>2026-03-02T07:35:12.000Z</time></trkpt>
<trkpt lat="42.172839" lon="23.373361"><ele>2391.9</ele><time>2026-03-02T07:35:13.000Z</time></trkpt>
<trkpt lat="42.172838" lon="23.373357"><ele>2391.9</ele><time>2026-03-02T07:35:14.000Z</time></trkpt>
<trkpt lat="42.172839" lon="23.373352"><ele>2391.9</ele><time>2026-03-02T07:35:15.000Z</time></trkpt>
<trkpt lat="42.17284" lon="23.373348"><ele>2391.9</ele><time>2026-03-02T07:35:16.000Z</time></trkpt>
<trkpt lat="42.17284" lon="23.373345"><ele>2391.9</ele><time>2026-03-02T07:35:17.000Z</time></trkpt>
<trkpt lat="42.172839" lon="23.373341"><ele>2391.9</ele><time>2026-03-02T07:35:18.000Z</time></trkpt>
<trkpt lat="42.172838" lon="23.373338"><ele>2391.9</ele><time>2026-03-02T07:35:19.000Z</time></trkpt>
<trkpt lat="42.172835" lon="23.373336"><ele>2392</ele><time>2026-03-02T07:35:20.000Z</time></trkpt>
<trkpt lat="42.172833" lon="23.373334"><ele>2392</ele><time>2026-03-02T07:35:21.000Z</time></trkpt>
<trkpt lat="42.17283" lon="23.373332"><ele>2392</ele><time>2026-03-02T07:35:22.000Z</time></trkpt>
<trkpt lat="42.172828" lon="23.373331"><ele>2392</ele><time>2026-03-02T07:35:23.000Z</time></trkpt>
<trkpt lat="42.172827" lon="23.37333"><ele>2392</ele><time>2026-03-02T07:35:24.000Z</time></trkpt>
<trkpt lat="42.172825" lon="23.373329"><ele>2392.4</ele><time>2026-03-02T07:35:25.000Z</time></trkpt>
<trkpt lat="42.172823" lon="23.373328"><ele>2392.4</ele><time>2026-03-02T07:35:26.000Z</time></trkpt>
<trkpt lat="42.172822" lon="23.373327"><ele>2392.4</ele><time>2026-03-02T07:35:27.000Z</time></trkpt>
<trkpt lat="42.172819" lon="23.373324"><ele>2392.4</ele><time>2026-03-02T07:35:28.000Z</time></trkpt>
<trkpt lat="42.172816" lon="23.373321"><ele>2392.4</ele><time>2026-03-02T07:35:29.000Z</time></trkpt>
<trkpt lat="42.172813" lon="23.373318"><ele>2393.4</ele><time>2026-03-02T07:35:30.000Z</time></trkpt>
<trkpt lat="42.172811" lon="23.373314"><ele>2393.4</ele><time>2026-03-02T07:35:31.000Z</time></trkpt>
<trkpt lat="42.172808" lon="23.37331"><ele>2393.4</ele><time>2026-03-02T07:35:32.000Z</time></trkpt>
<trkpt lat="42.172806" lon="23.373307"><ele>2393.4</ele><time>2026-03-02T07:35:33.000Z</time></trkpt>
<trkpt lat="42.172803" lon="23.373303"><ele>2393.4</ele><time>2026-03-02T07:35:34.000Z</time></trkpt>
<trkpt lat="42.172801" lon="23.373299"><ele>2394.6</ele><time>2026-03-02T07:35:35.000Z</time></trkpt>
<trkpt lat="42.172799" lon="23.373295"><ele>2394.6</ele><time>2026-03-02T07:35:36.000Z</time></trkpt>
<trkpt lat="42.172796" lon="23.373291"><ele>2394.6</ele><time>2026-03-02T07:35:37.000Z</time></trkpt>
<trkpt lat="42.172793" lon="23.373286"><ele>2394.6</ele><time>2026-03-02T07:35:38.000Z</time></trkpt>
<trkpt lat="42.172792" lon="23.373282"><ele>2394.6</ele><time>2026-03-02T07:35:39.000Z</time></trkpt>
<trkpt lat="42.17279" lon="23.373277"><ele>2395.2</ele><time>2026-03-02T07:35:40.000Z</time></trkpt>
<trkpt lat="42.172789" lon="23.373273"><ele>2395.2</ele><time>2026-03-02T07:35:41.000Z</time></trkpt>
<trkpt lat="42.172789" lon="23.37327"><ele>2395.2</ele><time>2026-03-02T07:35:42.000Z</time></trkpt>
<trkpt lat="42.172789" lon="23.373267"><ele>2395.2</ele><time>2026-03-02T07:35:43.000Z</time></trkpt>
<trkpt lat="42.172788" lon="23.373267"><ele>2395.2</ele><time>2026-03-02T07:35:44.000Z</time></trkpt>
<trkpt lat="42.172787" lon="23.373266"><ele>2396.2</ele><time>2026-03-02T07:35:45.000Z</time></trkpt>
<trkpt lat="42.172786" lon="23.373265"><ele>2396.2</ele><time>2026-03-02T07:35:46.000Z</time></trkpt>
<trkpt lat="42.172784" lon="23.373264"><ele>2396.2</ele><time>2026-03-02T07:35:47.000Z</time></trkpt>
<trkpt lat="42.172782" lon="23.373263"><ele>2396.2</ele><time>2026-03-02T07:35:48.000Z</time></trkpt>
<trkpt lat="42.172779" lon="23.373262"><ele>2396.2</ele><time>2026-03-02T07:35:49.000Z</time></trkpt>
<trkpt lat="42.172776" lon="23.37326"><ele>2397.3</ele><time>2026-03-02T07:35:50.000Z</time></trkpt>
<trkpt lat="42.172774" lon="23.373259"><ele>2397.3</ele><time>2026-03-02T07:35:51.000Z</time></trkpt>
<trkpt lat="42.17277" lon="23.373256"><ele>2397.3</ele><time>2026-03-02T07:35:52.000Z</time></trkpt>
<trkpt lat="42.172767" lon="23.373252"><ele>2397.3</ele><time>2026-03-02T07:35:53.000Z</time></trkpt>
<trkpt lat="42.172765" lon="23.373249"><ele>2397.3</ele><time>2026-03-02T07:35:54.000Z</time></trkpt>
<trkpt lat="42.172763" lon="23.373246"><ele>2397.8</ele><time>2026-03-02T07:35:55.000Z</time></trkpt>
<trkpt lat="42.172761" lon="23.373243"><ele>2397.8</ele><time>2026-03-02T07:35:56.000Z</time></trkpt>
<trkpt lat="42.172759" lon="23.373242"><ele>2397.8</ele><time>2026-03-02T07:35:57.000Z</time></trkpt>
<trkpt lat="42.172756" lon="23.373241"><ele>2397.8</ele><time>2026-03-02T07:35:58.000Z</time></trkpt>
<trkpt lat="42.172753" lon="23.37324"><ele>2397.8</ele><time>2026-03-02T07:35:59.000Z</time></trkpt>
<trkpt lat="42.172751" lon="23.373237"><ele>2398.9</ele><time>2026-03-02T07:36:00.000Z</time></trkpt>
<trkpt lat="42.172747" lon="23.373235"><ele>2398.9</ele><time>2026-03-02T07:36:01.000Z</time></trkpt>
<trkpt lat="42.172744" lon="23.373231"><ele>2398.9</ele><time>2026-03-02T07:36:02.000Z</time></trkpt>
<trkpt lat="42.172741" lon="23.373229"><ele>2398.9</ele><time>2026-03-02T07:36:03.000Z</time></trkpt>
<trkpt lat="42.172737" lon="23.373224"><ele>2398.9</ele><time>2026-03-02T07:36:04.000Z</time></trkpt>
<trkpt lat="42.172733" lon="23.37322"><ele>2399.8</ele><time>2026-03-02T07:36:05.000Z</time></trkpt>
<trkpt lat="42.17273" lon="23.373214"><ele>2399.8</ele><time>2026-03-02T07:36:06.000Z</time></trkpt>
<trkpt lat="42.172728" lon="23.373209"><ele>2399.8</ele><time>2026-03-02T07:36:07.000Z</time></trkpt>
<trkpt lat="42.172727" lon="23.373204"><ele>2399.8</ele><time>2026-03-02T07:36:08.000Z</time></trkpt>
<trkpt lat="42.172726" lon="23.373203"><ele>2399.8</ele><time>2026-03-02T07:36:09.000Z</time></trkpt>
<trkpt lat="42.172726" lon="23.373203"><ele>2400.3</ele><time>2026-03-02T07:36:10.000Z</time></trkpt>
<trkpt lat="42.172725" lon="23.373205"><ele>2400.3</ele><time>2026-03-02T07:36:11.000Z</time></trkpt>
<trkpt lat="42.172725" lon="23.373208"><ele>2400.3</ele><time>2026-03-02T07:36:12.000Z</time></trkpt>
<trkpt lat="42.172724" lon="23.373211"><ele>2400.3</ele><time>2026-03-02T07:36:13.000Z</time></trkpt>
<trkpt lat="42.172724" lon="23.373213"><ele>2400.3</ele><time>2026-03-02T07:36:14.000Z</time></trkpt>
<trkpt lat="42.172724" lon="23.373214"><ele>2401.4</ele><time>2026-03-02T07:36:15.000Z</time></trkpt>
<trkpt lat="42.172724" lon="23.373215"><ele>2401.4</ele><time>2026-03-02T07:36:16.000Z</time></trkpt>
<trkpt lat="42.172723" lon="23.373214"><ele>2401.4</ele><time>2026-03-02T07:36:17.000Z</time></trkpt>
<trkpt lat="42.172722" lon="23.373211"><ele>2401.4</ele><time>2026-03-02T07:36:18.000Z</time></trkpt>
<trkpt lat="42.17272" lon="23.373208"><ele>2401.4</ele><time>2026-03-02T07:36:19.000Z</time></trkpt>
<trkpt lat="42.172718" lon="23.373204"><ele>2402.3</ele><time>2026-03-02T07:36:20.000Z</time></trkpt>
<trkpt lat="42.172716" lon="23.373199"><ele>2402.3</ele><time>2026-03-02T07:36:21.000Z</time></trkpt>
<trkpt lat="42.172714" lon="23.373195"><ele>2402.3</ele><time>2026-03-02T07:36:22.000Z</time></trkpt>
<trkpt lat="42.172713" lon="23.373192"><ele>2402.3</ele><time>2026-03-02T07:36:23.000Z</time></trkpt>
<trkpt lat="42.172713" lon="23.37319"><ele>2402.3</ele><time>2026-03-02T07:36:24.000Z</time></trkpt>
<trkpt lat="42.172712" lon="23.37319"><ele>2402.6</ele><time>2026-03-02T07:36:25.000Z</time></trkpt>
<trkpt lat="42.172712" lon="23.373191"><ele>2402.6</ele><time>2026-03-02T07:36:26.000Z</time></trkpt>
<trkpt lat="42.172712" lon="23.373192"><ele>2402.6</ele><time>2026-03-02T07:36:27.000Z</time></trkpt>
<trkpt lat="42.172712" lon="23.373194"><ele>2402.6</ele><time>2026-03-02T07:36:28.000Z</time></trkpt>
<trkpt lat="42.172712" lon="23.373194"><ele>2402.6</ele><time>2026-03-02T07:36:29.000Z</time></trkpt>
<trkpt lat="42.172712" lon="23.373195"><ele>2403.1</ele><time>2026-03-02T07:36:30.000Z</time></trkpt>
<trkpt lat="42.172712" lon="23.373195"><ele>2403.1</ele><time>2026-03-02T07:36:31.000Z</time></trkpt>
<trkpt lat="42.172712" lon="23.373195"><ele>2403.1</ele><time>2026-03-02T07:36:32.000Z</time></trkpt>
<trkpt lat="42.172712" lon="23.373196"><ele>2403.1</ele><time>2026-03-02T07:36:33.000Z</time></trkpt>
<trkpt lat="42.172712" lon="23.373196"><ele>2403.1</ele><time>2026-03-02T07:36:34.000Z</time></trkpt>
<trkpt lat="42.172712" lon="23.373197"><ele>2403.8</ele><time>2026-03-02T07:36:35.000Z</time></trkpt>
<trkpt lat="42.172712" lon="23.373197"><ele>2403.8</ele><time>2026-03-02T07:36:36.000Z</time></trkpt>
<trkpt lat="42.172713" lon="23.373198"><ele>2403.8</ele><time>2026-03-02T07:36:37.000Z</time></trkpt>
<trkpt lat="42.172713" lon="23.373198"><ele>2403.8</ele><time>2026-03-02T07:36:38.000Z</time></trkpt>
<trkpt lat="42.172712" lon="23.373198"><ele>2403.8</ele><time>2026-03-02T07:36:39.000Z</time></trkpt>
<trkpt lat="42.17271" lon="23.373198"><ele>2404.2</ele><time>2026-03-02T07:36:40.000Z</time></trkpt>
<trkpt lat="42.172709" lon="23.373199"><ele>2404.2</ele><time>2026-03-02T07:36:41.000Z</time></trkpt>
<trkpt lat="42.172707" lon="23.373199"><ele>2404.2</ele><time>2026-03-02T07:36:42.000Z</time></trkpt>
<trkpt lat="42.172705" lon="23.373199"><ele>2404.2</ele><time>2026-03-02T07:36:43.000Z</time></trkpt>
<trkpt lat="42.172704" lon="23.3732"><ele>2404.2</ele><time>2026-03-02T07:36:44.000Z</time></trkpt>
<trkpt lat="42.172704" lon="23.373199"><ele>2404.6</ele><time>2026-03-02T07:36:45.000Z</time></trkpt>
<trkpt lat="42.172704" lon="23.373199"><ele>2404.6</ele><time>2026-03-02T07:36:46.000Z</time></trkpt>
<trkpt lat="42.172704" lon="23.373199"><ele>2404.6</ele><time>2026-03-02T07:36:47.000Z</time></trkpt>
<trkpt lat="42.172704" lon="23.373198"><ele>2404.6</ele><time>2026-03-02T07:36:48.000Z</time></trkpt>
<trkpt lat="42.172704" lon="23.373198"><ele>2404.6</ele><time>2026-03-02T07:36:49.000Z</time></trkpt>
<trkpt lat="42.172704" lon="23.373198"><ele>2404.7</ele><time>2026-03-02T07:36:50.000Z</time></trkpt>
<trkpt lat="42.172704" lon="23.373198"><ele>2404.7</ele><time>2026-03-02T07:36:51.000Z</time></trkpt>
<trkpt lat="42.172704" lon="23.373198"><ele>2404.7</ele><time>2026-03-02T07:36:52.000Z</time></trkpt>
<trkpt lat="42.172704" lon="23.373197"><ele>2404.7</ele><time>2026-03-02T07:36:53.000Z</time></trkpt>
<trkpt lat="42.172703" lon="23.373194"><ele>2404.7</ele><time>2026-03-02T07:36:54.000Z</time></trkpt>
<trkpt lat="42.172701" lon="23.373191"><ele>2404.7</ele><time>2026-03-02T07:36:55.000Z</time></trkpt>
<trkpt lat="42.172699" lon="23.373186"><ele>2404.7</ele><time>2026-03-02T07:36:56.000Z</time></trkpt>
<trkpt lat="42.172696" lon="23.37318"><ele>2404.7</ele><time>2026-03-02T07:36:57.000Z</time></trkpt>
<trkpt lat="42.172693" lon="23.373174"><ele>2404.7</ele><time>2026-03-02T07:36:58.000Z</time></trkpt>
<trkpt lat="42.172691" lon="23.373168"><ele>2404.7</ele><time>2026-03-02T07:36:59.000Z</time></trkpt>
<trkpt lat="42.172688" lon="23.373163"><ele>2404.7</ele><time>2026-03-02T07:37:00.000Z</time></trkpt>
<trkpt lat="42.172686" lon="23.373158"><ele>2404.7</ele><time>2026-03-02T07:37:01.000Z</time></trkpt>
<trkpt lat="42.172684" lon="23.373154"><ele>2404.7</ele><time>2026-03-02T07:37:02.000Z</time></trkpt>
<trkpt lat="42.172681" lon="23.373151"><ele>2404.7</ele><time>2026-03-02T07:37:03.000Z</time></trkpt>
<trkpt lat="42.172679" lon="23.373148"><ele>2404.7</ele><time>2026-03-02T07:37:04.000Z</time></trkpt>
<trkpt lat="42.172677" lon="23.373143"><ele>2405</ele><time>2026-03-02T07:37:05.000Z</time></trkpt>
<trkpt lat="42.172675" lon="23.373138"><ele>2405</ele><time>2026-03-02T07:37:06.000Z</time></trkpt>
<trkpt lat="42.172672" lon="23.373132"><ele>2405</ele><time>2026-03-02T07:37:07.000Z</time></trkpt>
<trkpt lat="42.172671" lon="23.373126"><ele>2405</ele><time>2026-03-02T07:37:08.000Z</time></trkpt>
<trkpt lat="42.172669" lon="23.37312"><ele>2405</ele><time>2026-03-02T07:37:09.000Z</time></trkpt>
<trkpt lat="42.172668" lon="23.373116"><ele>2405.3</ele><time>2026-03-02T07:37:10.000Z</time></trkpt>
<trkpt lat="42.172667" lon="23.373111"><ele>2405.3</ele><time>2026-03-02T07:37:11.000Z</time></trkpt>
<trkpt lat="42.172666" lon="23.373107"><ele>2405.3</ele><time>2026-03-02T07:37:12.000Z</time></trkpt>
<trkpt lat="42.172664" lon="23.373102"><ele>2405.3</ele><time>2026-03-02T07:37:13.000Z</time></trkpt>
<trkpt lat="42.172662" lon="23.373098"><ele>2405.3</ele><time>2026-03-02T07:37:14.000Z</time></trkpt>
<trkpt lat="42.17266" lon="23.373093"><ele>2406.3</ele><time>2026-03-02T07:37:15.000Z</time></trkpt>
<trkpt lat="42.172659" lon="23.373088"><ele>2406.3</ele><time>2026-03-02T07:37:16.000Z</time></trkpt>
<trkpt lat="42.172657" lon="23.373084"><ele>2406.3</ele><time>2026-03-02T07:37:17.000Z</time></trkpt>
<trkpt lat="42.172656" lon="23.373082"><ele>2406.3</ele><time>2026-03-02T07:37:18.000Z</time></trkpt>
<trkpt lat="42.172655" lon="23.37308"><ele>2406.3</ele><time>2026-03-02T07:37:19.000Z</time></trkpt>
<trkpt lat="42.172655" lon="23.373079"><ele>2407.5</ele><time>2026-03-02T07:37:20.000Z</time></trkpt>
<trkpt lat="42.172653" lon="23.373077"><ele>2407.5</ele><time>2026-03-02T07:37:21.000Z</time></trkpt>
<trkpt lat="42.172653" lon="23.373076"><ele>2407.5</ele><time>2026-03-02T07:37:22.000Z</time></trkpt>
<trkpt lat="42.172653" lon="23.373074"><ele>2407.5</ele><time>2026-03-02T07:37:23.000Z</time></trkpt>
<trkpt lat="42.172653" lon="23.373071"><ele>2407.5</ele><time>2026-03-02T07:37:24.000Z</time></trkpt>
<trkpt lat="42.172653" lon="23.373067"><ele>2408.2</ele><time>2026-03-02T07:37:25.000Z</time></trkpt>
<trkpt lat="42.172653" lon="23.373064"><ele>2408.2</ele><time>2026-03-02T07:37:26.000Z</time></trkpt>
<trkpt lat="42.172651" lon="23.373058"><ele>2408.2</ele><time>2026-03-02T07:37:27.000Z</time></trkpt>
<trkpt lat="42.17265" lon="23.373053"><ele>2408.2</ele><time>2026-03-02T07:37:28.000Z</time></trkpt>
<trkpt lat="42.172649" lon="23.373046"><ele>2408.2</ele><time>2026-03-02T07:37:29.000Z</time></trkpt>
<trkpt lat="42.172648" lon="23.373041"><ele>2409.4</ele><time>2026-03-02T07:37:30.000Z</time></trkpt>
<trkpt lat="42.172646" lon="23.373035"><ele>2409.4</ele><time>2026-03-02T07:37:31.000Z</time></trkpt>
<trkpt lat="42.172645" lon="23.373031"><ele>2409.4</ele><time>2026-03-02T07:37:32.000Z</time></trkpt>
<trkpt lat="42.172643" lon="23.373027"><ele>2409.4</ele><time>2026-03-02T07:37:33.000Z</time></trkpt>
<trkpt lat="42.17264" lon="23.373024"><ele>2409.4</ele><time>2026-03-02T07:37:34.000Z</time></trkpt>
<trkpt lat="42.172637" lon="23.373023"><ele>2410.6</ele><time>2026-03-02T07:37:35.000Z</time></trkpt>
<trkpt lat="42.172634" lon="23.373022"><ele>2410.6</ele><time>2026-03-02T07:37:36.000Z</time></trkpt>
<trkpt lat="42.172632" lon="23.37302"><ele>2410.6</ele><time>2026-03-02T07:37:37.000Z</time></trkpt>
<trkpt lat="42.17263" lon="23.373019"><ele>2410.6</ele><time>2026-03-02T07:37:38.000Z</time></trkpt>
<trkpt lat="42.172629" lon="23.373017"><ele>2410.6</ele><time>2026-03-02T07:37:39.000Z</time></trkpt>
<trkpt lat="42.172627" lon="23.373014"><ele>2411.2</ele><time>2026-03-02T07:37:40.000Z</time></trkpt>
<trkpt lat="42.172625" lon="23.373011"><ele>2411.2</ele><time>2026-03-02T07:37:41.000Z</time></trkpt>
<trkpt lat="42.172623" lon="23.373008"><ele>2411.2</ele><time>2026-03-02T07:37:42.000Z</time></trkpt>
<trkpt lat="42.17262" lon="23.373006"><ele>2411.2</ele><time>2026-03-02T07:37:43.000Z</time></trkpt>
<trkpt lat="42.172617" lon="23.373002"><ele>2411.2</ele><time>2026-03-02T07:37:44.000Z</time></trkpt>
<trkpt lat="42.172614" lon="23.372998"><ele>2412.2</ele><time>2026-03-02T07:37:45.000Z</time></trkpt>
<trkpt lat="42.172612" lon="23.372994"><ele>2412.2</ele><time>2026-03-02T07:37:46.000Z</time></trkpt>
<trkpt lat="42.172609" lon="23.372989"><ele>2412.2</ele><time>2026-03-02T07:37:47.000Z</time></trkpt>
<trkpt lat="42.172606" lon="23.372985"><ele>2412.2</ele><time>2026-03-02T07:37:48.000Z</time></trkpt>
<trkpt lat="42.172603" lon="23.372981"><ele>2412.2</ele><time>2026-03-02T07:37:49.000Z</time></trkpt>
<trkpt lat="42.172601" lon="23.372976"><ele>2413.1</ele><time>2026-03-02T07:37:50.000Z</time></trkpt>
<trkpt lat="42.172599" lon="23.372972"><ele>2413.1</ele><time>2026-03-02T07:37:51.000Z</time></trkpt>
<trkpt lat="42.172597" lon="23.37297"><ele>2413.1</ele><time>2026-03-02T07:37:52.000Z</time></trkpt>
<trkpt lat="42.172596" lon="23.372966"><ele>2413.1</ele><time>2026-03-02T07:37:53.000Z</time></trkpt>
<trkpt lat="42.172595" lon="23.372963"><ele>2413.1</ele><time>2026-03-02T07:37:54.000Z</time></trkpt>
<trkpt lat="42.172594" lon="23.372959"><ele>2413.5</ele><time>2026-03-02T07:37:55.000Z</time></trkpt>
<trkpt lat="42.172593" lon="23.372957"><ele>2413.5</ele><time>2026-03-02T07:37:56.000Z</time></trkpt>
<trkpt lat="42.172592" lon="23.372954"><ele>2413.5</ele><time>2026-03-02T07:37:57.000Z</time></trkpt>
<trkpt lat="42.172591" lon="23.37295"><ele>2413.5</ele><time>2026-03-02T07:37:58.000Z</time></trkpt>
<trkpt lat="42.17259" lon="23.372947"><ele>2413.5</ele><time>2026-03-02T07:37:59.000Z</time></trkpt>
<trkpt lat="42.17259" lon="23.372944"><ele>2414.6</ele><time>2026-03-02T07:38:00.000Z</time></trkpt>
<trkpt lat="42.172588" lon="23.37294"><ele>2414.6</ele><time>2026-03-02T07:38:01.000Z</time></trkpt>
<trkpt lat="42.172587" lon="23.372936"><ele>2414.6</ele><time>2026-03-02T07:38:02.000Z</time></trkpt>
<trkpt lat="42.172585" lon="23.372933"><ele>2414.6</ele><time>2026-03-02T07:38:03.000Z</time></trkpt>
<trkpt lat="42.172584" lon="23.372929"><ele>2414.6</ele><time>2026-03-02T07:38:04.000Z</time></trkpt>
<trkpt lat="42.172582" lon="23.372926"><ele>2415.9</ele><time>2026-03-02T07:38:05.000Z</time></trkpt>
<trkpt lat="42.17258" lon="23.372923"><ele>2415.9</ele><time>2026-03-02T07:38:06.000Z</time></trkpt>
<trkpt lat="42.172579" lon="23.372921"><ele>2415.9</ele><time>2026-03-02T07:38:07.000Z</time></trkpt>
<trkpt lat="42.172578" lon="23.372918"><ele>2415.9</ele><time>2026-03-02T07:38:08.000Z</time></trkpt>
<trkpt lat="42.172577" lon="23.372917"><ele>2415.9</ele><time>2026-03-02T07:38:09.000Z</time></trkpt>
<trkpt lat="42.172576" lon="23.372914"><ele>2416.6</ele><time>2026-03-02T07:38:10.000Z</time></trkpt>
<trkpt lat="42.172575" lon="23.372913"><ele>2416.6</ele><time>2026-03-02T07:38:11.000Z</time></trkpt>
<trkpt lat="42.172573" lon="23.37291"><ele>2416.6</ele><time>2026-03-02T07:38:12.000Z</time></trkpt>
<trkpt lat="42.172572" lon="23.372908"><ele>2416.6</ele><time>2026-03-02T07:38:13.000Z</time></trkpt>
<trkpt lat="42.172571" lon="23.372906"><ele>2416.6</ele><time>2026-03-02T07:38:14.000Z</time></trkpt>
<trkpt lat="42.172571" lon="23.372907"><ele>2417.9</ele><time>2026-03-02T07:38:15.000Z</time></trkpt>
<trkpt lat="42.172571" lon="23.372908"><ele>2417.9</ele><time>2026-03-02T07:38:16.000Z</time></trkpt>
<trkpt lat="42.172571" lon="23.372911"><ele>2417.9</ele><time>2026-03-02T07:38:17.000Z</time></trkpt>
<trkpt lat="42.17257" lon="23.372913"><ele>2417.9</ele><time>2026-03-02T07:38:18.000Z</time></trkpt>
<trkpt lat="42.172569" lon="23.372915"><ele>2417.9</ele><time>2026-03-02T07:38:19.000Z</time></trkpt>
<trkpt lat="42.172569" lon="23.372917"><ele>2419</ele><time>2026-03-02T07:38:20.000Z</time></trkpt>
<trkpt lat="42.172568" lon="23.372918"><ele>2419</ele><time>2026-03-02T07:38:21.000Z</time></trkpt>
<trkpt lat="42.172567" lon="23.372918"><ele>2419</ele><time>2026-03-02T07:38:22.000Z</time></trkpt>
<trkpt lat="42.172567" lon="23.372919"><ele>2419</ele><time>2026-03-02T07:38:23.000Z</time></trkpt>
<trkpt lat="42.172568" lon="23.372919"><ele>2419</ele><time>2026-03-02T07:38:24.000Z</time></trkpt>
<trkpt lat="42.172567" lon="23.372919"><ele>2419.5</ele><time>2026-03-02T07:38:25.000Z</time></trkpt>
<trkpt lat="42.172567" lon="23.372919"><ele>2419.5</ele><time>2026-03-02T07:38:26.000Z</time></trkpt>
<trkpt lat="42.172566" lon="23.372919"><ele>2419.5</ele><time>2026-03-02T07:38:27.000Z</time></trkpt>
<trkpt lat="42.172566" lon="23.372919"><ele>2419.5</ele><time>2026-03-02T07:38:28.000Z</time></trkpt>
<trkpt lat="42.172565" lon="23.372919"><ele>2419.5</ele><time>2026-03-02T07:38:29.000Z</time></trkpt>
<trkpt lat="42.172565" lon="23.372918"><ele>2420.2</ele><time>2026-03-02T07:38:30.000Z</time></trkpt>
<trkpt lat="42.172565" lon="23.372918"><ele>2420.2</ele><time>2026-03-02T07:38:31.000Z</time></trkpt>
<trkpt lat="42.172565" lon="23.372918"><ele>2420.2</ele><time>2026-03-02T07:38:32.000Z</time></trkpt>
<trkpt lat="42.172565" lon="23.372918"><ele>2420.2</ele><time>2026-03-02T07:38:33.000Z</time></trkpt>
<trkpt lat="42.172565" lon="23.372917"><ele>2420.2</ele><time>2026-03-02T07:38:34.000Z</time></trkpt>
<trkpt lat="42.172565" lon="23.372917"><ele>2420.6</ele><time>2026-03-02T07:38:35.000Z</time></trkpt>
<trkpt lat="42.172565" lon="23.372917"><ele>2420.6</ele><time>2026-03-02T07:38:36.000Z</time></trkpt>
<trkpt lat="42.172565" lon="23.372917"><ele>2420.6</ele><time>2026-03-02T07:38:37.000Z</time></trkpt>
<trkpt lat="42.172565" lon="23.372917"><ele>2420.6</ele><time>2026-03-02T07:38:38.000Z</time></trkpt>
<trkpt lat="42.172565" lon="23.372917"><ele>2420.6</ele><time>2026-03-02T07:38:39.000Z</time></trkpt>
<trkpt lat="42.172564" lon="23.372917"><ele>2420.6</ele><time>2026-03-02T07:38:40.000Z</time></trkpt>
<trkpt lat="42.172562" lon="23.372916"><ele>2420.6</ele><time>2026-03-02T07:38:41.000Z</time></trkpt>
<trkpt lat="42.172559" lon="23.372914"><ele>2420.6</ele><time>2026-03-02T07:38:42.000Z</time></trkpt>
<trkpt lat="42.172555" lon="23.372911"><ele>2420.6</ele><time>2026-03-02T07:38:43.000Z</time></trkpt>
<trkpt lat="42.172551" lon="23.372906"><ele>2420.6</ele><time>2026-03-02T07:38:44.000Z</time></trkpt>
<trkpt lat="42.172548" lon="23.372902"><ele>2420.7</ele><time>2026-03-02T07:38:45.000Z</time></trkpt>
<trkpt lat="42.172546" lon="23.372896"><ele>2420.7</ele><time>2026-03-02T07:38:46.000Z</time></trkpt>
<trkpt lat="42.172545" lon="23.372892"><ele>2420.7</ele><time>2026-03-02T07:38:47.000Z</time></trkpt>
<trkpt lat="42.172544" lon="23.37289"><ele>2420.7</ele><time>2026-03-02T07:38:48.000Z</time></trkpt>
<trkpt lat="42.172543" lon="23.372888"><ele>2420.7</ele><time>2026-03-02T07:38:49.000Z</time></trkpt>
<trkpt lat="42.172542" lon="23.372885"><ele>2420.9</ele><time>2026-03-02T07:38:50.000Z</time></trkpt>
<trkpt lat="42.17254" lon="23.372882"><ele>2420.9</ele><time>2026-03-02T07:38:51.000Z</time></trkpt>
<trkpt lat="42.172538" lon="23.372879"><ele>2420.9</ele><time>2026-03-02T07:38:52.000Z</time></trkpt>
<trkpt lat="42.172537" lon="23.372874"><ele>2420.9</ele><time>2026-03-02T07:38:53.000Z</time></trkpt>
<trkpt lat="42.172535" lon="23.372868"><ele>2420.9</ele><time>2026-03-02T07:38:54.000Z</time></trkpt>
<trkpt lat="42.172534" lon="23.372865"><ele>2421.2</ele><time>2026-03-02T07:38:55.000Z</time></trkpt>
<trkpt lat="42.172533" lon="23.37286"><ele>2421.2</ele><time>2026-03-02T07:38:56.000Z</time></trkpt>
<trkpt lat="42.172531" lon="23.372856"><ele>2421.2</ele><time>2026-03-02T07:38:57.000Z</time></trkpt>
<trkpt lat="42.172529" lon="23.372851"><ele>2421.2</ele><time>2026-03-02T07:38:58.000Z</time></trkpt>
<trkpt lat="42.172528" lon="23.372849"><ele>2421.2</ele><time>2026-03-02T07:38:59.000Z</time></trkpt>
<trkpt lat="42.172525" lon="23.372846"><ele>2422.2</ele><time>2026-03-02T07:39:00.000Z</time></trkpt>
<trkpt lat="42.172522" lon="23.372844"><ele>2422.2</ele><time>2026-03-02T07:39:01.000Z</time></trkpt>
<trkpt lat="42.172519" lon="23.372842"><ele>2422.2</ele><time>2026-03-02T07:39:02.000Z</time></trkpt>
<trkpt lat="42.172516" lon="23.37284"><ele>2422.2</ele><time>2026-03-02T07:39:03.000Z</time></trkpt>
<trkpt lat="42.172513" lon="23.372837"><ele>2422.2</ele><time>2026-03-02T07:39:04.000Z</time></trkpt>
<trkpt lat="42.17251" lon="23.372833"><ele>2423.6</ele><time>2026-03-02T07:39:05.000Z</time></trkpt>
<trkpt lat="42.172507" lon="23.37283"><ele>2423.6</ele><time>2026-03-02T07:39:06.000Z</time></trkpt>
<trkpt lat="42.172505" lon="23.372826"><ele>2423.6</ele><time>2026-03-02T07:39:07.000Z</time></trkpt>
<trkpt lat="42.172502" lon="23.372824"><ele>2423.6</ele><time>2026-03-02T07:39:08.000Z</time></trkpt>
<trkpt lat="42.1725" lon="23.372821"><ele>2423.6</ele><time>2026-03-02T07:39:09.000Z</time></trkpt>
<trkpt lat="42.172497" lon="23.372819"><ele>2424.2</ele><time>2026-03-02T07:39:10.000Z</time></trkpt>
<trkpt lat="42.172495" lon="23.372817"><ele>2424.2</ele><time>2026-03-02T07:39:11.000Z</time></trkpt>
<trkpt lat="42.172492" lon="23.372813"><ele>2424.2</ele><time>2026-03-02T07:39:12.000Z</time></trkpt>
<trkpt lat="42.172489" lon="23.37281"><ele>2424.2</ele><time>2026-03-02T07:39:13.000Z</time></trkpt>
<trkpt lat="42.172487" lon="23.372807"><ele>2424.2</ele><time>2026-03-02T07:39:14.000Z</time></trkpt>
<trkpt lat="42.172485" lon="23.372805"><ele>2425.3</ele><time>2026-03-02T07:39:15.000Z</time></trkpt>
<trkpt lat="42.172483" lon="23.372803"><ele>2425.3</ele><time>2026-03-02T07:39:16.000Z</time></trkpt>
<trkpt lat="42.172481" lon="23.372802"><ele>2425.3</ele><time>2026-03-02T07:39:17.000Z</time></trkpt>
<trkpt lat="42.172477" lon="23.3728"><ele>2425.3</ele><time>2026-03-02T07:39:18.000Z</time></trkpt>
<trkpt lat="42.172474" lon="23.372798"><ele>2425.3</ele><time>2026-03-02T07:39:19.000Z</time></trkpt>
<trkpt lat="42.17247" lon="23.372796"><ele>2426.3</ele><time>2026-03-02T07:39:20.000Z</time></trkpt>
<trkpt lat="42.172466" lon="23.372793"><ele>2426.3</ele><time>2026-03-02T07:39:21.000Z</time></trkpt>
<trkpt lat="42.172461" lon="23.37279"><ele>2426.3</ele><time>2026-03-02T07:39:22.000Z</time></trkpt>
<trkpt lat="42.172458" lon="23.372789"><ele>2426.3</ele><time>2026-03-02T07:39:23.000Z</time></trkpt>
<trkpt lat="42.172455" lon="23.372787"><ele>2426.3</ele><time>2026-03-02T07:39:24.000Z</time></trkpt>
<trkpt lat="42.172452" lon="23.372786"><ele>2426.9</ele><time>2026-03-02T07:39:25.000Z</time></trkpt>
<trkpt lat="42.172451" lon="23.372785"><ele>2426.9</ele><time>2026-03-02T07:39:26.000Z</time></trkpt>
<trkpt lat="42.17245" lon="23.372785"><ele>2426.9</ele><time>2026-03-02T07:39:27.000Z</time></trkpt>
<trkpt lat="42.17245" lon="23.372786"><ele>2426.9</ele><time>2026-03-02T07:39:28.000Z</time></trkpt>
<trkpt lat="42.172449" lon="23.372787"><ele>2426.9</ele><time>2026-03-02T07:39:29.000Z</time></trkpt>
<trkpt lat="42.172449" lon="23.372788"><ele>2428</ele><time>2026-03-02T07:39:30.000Z</time></trkpt>
<trkpt lat="42.172449" lon="23.372788"><ele>2428</ele><time>2026-03-02T07:39:31.000Z</time></trkpt>
<trkpt lat="42.172449" lon="23.372788"><ele>2428</ele><time>2026-03-02T07:39:32.000Z</time></trkpt>
<trkpt lat="42.172448" lon="23.372786"><ele>2428</ele><time>2026-03-02T07:39:33.000Z</time></trkpt>
<trkpt lat="42.172447" lon="23.372785"><ele>2428</ele><time>2026-03-02T07:39:34.000Z</time></trkpt>
<trkpt lat="42.172445" lon="23.372783"><ele>2428.9</ele><time>2026-03-02T07:39:35.000Z</time></trkpt>
<trkpt lat="42.172444" lon="23.372782"><ele>2428.9</ele><time>2026-03-02T07:39:36.000Z</time></trkpt>
<trkpt lat="42.172443" lon="23.37278"><ele>2428.9</ele><time>2026-03-02T07:39:37.000Z</time></trkpt>
<trkpt lat="42.172443" lon="23.37278"><ele>2428.9</ele><time>2026-03-02T07:39:38.000Z</time></trkpt>
<trkpt lat="42.172442" lon="23.372781"><ele>2428.9</ele><time>2026-03-02T07:39:39.000Z</time></trkpt>
<trkpt lat="42.172441" lon="23.372783"><ele>2429.2</ele><time>2026-03-02T07:39:40.000Z</time></trkpt>
<trkpt lat="42.172441" lon="23.372787"><ele>2429.2</ele><time>2026-03-02T07:39:41.000Z</time></trkpt>
<trkpt lat="42.17244" lon="23.372791"><ele>2429.2</ele><time>2026-03-02T07:39:42.000Z</time></trkpt>
<trkpt lat="42.17244" lon="23.372794"><ele>2429.2</ele><time>2026-03-02T07:39:43.000Z</time></trkpt>
<trkpt lat="42.17244" lon="23.372795"><ele>2429.2</ele><time>2026-03-02T07:39:44.000Z</time></trkpt>
<trkpt lat="42.17244" lon="23.372796"><ele>2429.7</ele><time>2026-03-02T07:39:45.000Z</time></trkpt>
<trkpt lat="42.172439" lon="23.372795"><ele>2429.7</ele><time>2026-03-02T07:39:46.000Z</time></trkpt>
<trkpt lat="42.172439" lon="23.372795"><ele>2429.7</ele><time>2026-03-02T07:39:47.000Z</time></trkpt>
<trkpt lat="42.172438" lon="23.372794"><ele>2429.7</ele><time>2026-03-02T07:39:48.000Z</time></trkpt>
<trkpt lat="42.172437" lon="23.372792"><ele>2429.7</ele><time>2026-03-02T07:39:49.000Z</time></trkpt>
<trkpt lat="42.172435" lon="23.37279"><ele>2430.3</ele><time>2026-03-02T07:39:50.000Z</time></trkpt>
<trkpt lat="42.172435" lon="23.372787"><ele>2430.3</ele><time>2026-03-02T07:39:51.000Z</time></trkpt>
<trkpt lat="42.172434" lon="23.372782"><ele>2430.3</ele><time>2026-03-02T07:39:52.000Z</time></trkpt>
<trkpt lat="42.172434" lon="23.372779"><ele>2430.3</ele><time>2026-03-02T07:39:53.000Z</time></trkpt>
<trkpt lat="42.172433" lon="23.372775"><ele>2430.3</ele><time>2026-03-02T07:39:54.000Z</time></trkpt>
<trkpt lat="42.172433" lon="23.372771"><ele>2430.6</ele><time>2026-03-02T07:39:55.000Z</time></trkpt>
<trkpt lat="42.172432" lon="23.372767"><ele>2430.6</ele><time>2026-03-02T07:39:56.000Z</time></trkpt>
<trkpt lat="42.172431" lon="23.372763"><ele>2430.6</ele><time>2026-03-02T07:39:57.000Z</time></trkpt>
<trkpt lat="42.172431" lon="23.37276"><ele>2430.6</ele><time>2026-03-02T07:39:58.000Z</time></trkpt>
<trkpt lat="42.172432" lon="23.372756"><ele>2430.6</ele><time>2026-03-02T07:39:59.000Z</time></trkpt>
<trkpt lat="42.172432" lon="23.372753"><ele>2431.3</ele><time>2026-03-02T07:40:00.000Z</time></trkpt>
<trkpt lat="42.172432" lon="23.37275"><ele>2431.3</ele><time>2026-03-02T07:40:01.000Z</time></trkpt>
<trkpt lat="42.172431" lon="23.372747"><ele>2431.3</ele><time>2026-03-02T07:40:02.000Z</time></trkpt>
<trkpt lat="42.17243" lon="23.372742"><ele>2431.3</ele><time>2026-03-02T07:40:03.000Z</time></trkpt>
<trkpt lat="42.172431" lon="23.372738"><ele>2431.3</ele><time>2026-03-02T07:40:04.000Z</time></trkpt>
<trkpt lat="42.172431" lon="23.372734"><ele>2432.2</ele><time>2026-03-02T07:40:05.000Z</time></trkpt>
<trkpt lat="42.172432" lon="23.372731"><ele>2432.2</ele><time>2026-03-02T07:40:06.000Z</time></trkpt>
<trkpt lat="42.172431" lon="23.372728"><ele>2432.2</ele><time>2026-03-02T07:40:07.000Z</time></trkpt>
<trkpt lat="42.172431" lon="23.372726"><ele>2432.2</ele><time>2026-03-02T07:40:08.000Z</time></trkpt>
<trkpt lat="42.172429" lon="23.372724"><ele>2432.2</ele><time>2026-03-02T07:40:09.000Z</time></trkpt>
<trkpt lat="42.172428" lon="23.372722"><ele>2432.6</ele><time>2026-03-02T07:40:10.000Z</time></trkpt>
<trkpt lat="42.172426" lon="23.37272"><ele>2432.6</ele><time>2026-03-02T07:40:11.000Z</time></trkpt>
<trkpt lat="42.172426" lon="23.372718"><ele>2432.6</ele><time>2026-03-02T07:40:12.000Z</time></trkpt>
<trkpt lat="42.172426" lon="23.372716"><ele>2432.6</ele><time>2026-03-02T07:40:13.000Z</time></trkpt>
<trkpt lat="42.172427" lon="23.372714"><ele>2432.6</ele><time>2026-03-02T07:40:14.000Z</time></trkpt>
<trkpt lat="42.172428" lon="23.372712"><ele>2433.4</ele><time>2026-03-02T07:40:15.000Z</time></trkpt>
<trkpt lat="42.172429" lon="23.372711"><ele>2433.4</ele><time>2026-03-02T07:40:16.000Z</time></trkpt>
<trkpt lat="42.17243" lon="23.37271"><ele>2433.4</ele><time>2026-03-02T07:40:17.000Z</time></trkpt>
<trkpt lat="42.17243" lon="23.37271"><ele>2433.4</ele><time>2026-03-02T07:40:18.000Z</time></trkpt>
<trkpt lat="42.17243" lon="23.37271"><ele>2433.4</ele><time>2026-03-02T07:40:19.000Z</time></trkpt>
<trkpt lat="42.17243" lon="23.37271"><ele>2434.1</ele><time>2026-03-02T07:40:20.000Z</time></trkpt>
<trkpt lat="42.172429" lon="23.372709"><ele>2434.1</ele><time>2026-03-02T07:40:21.000Z</time></trkpt>
<trkpt lat="42.172429" lon="23.372709"><ele>2434.1</ele><time>2026-03-02T07:40:22.000Z</time></trkpt>
<trkpt lat="42.172429" lon="23.372709"><ele>2434.1</ele><time>2026-03-02T07:40:23.000Z</time></trkpt>
<trkpt lat="42.172427" lon="23.372707"><ele>2434.1</ele><time>2026-03-02T07:40:24.000Z</time></trkpt>
<trkpt lat="42.172426" lon="23.372703"><ele>2434.4</ele><time>2026-03-02T07:40:25.000Z</time></trkpt>
<trkpt lat="42.172425" lon="23.372698"><ele>2434.4</ele><time>2026-03-02T07:40:26.000Z</time></trkpt>
<trkpt lat="42.172424" lon="23.372691"><ele>2434.4</ele><time>2026-03-02T07:40:27.000Z</time></trkpt>
<trkpt lat="42.172424" lon="23.372683"><ele>2434.4</ele><time>2026-03-02T07:40:28.000Z</time></trkpt>
<trkpt lat="42.172425" lon="23.372676"><ele>2434.4</ele><time>2026-03-02T07:40:29.000Z</time></trkpt>
<trkpt lat="42.172427" lon="23.372671"><ele>2434.9</ele><time>2026-03-02T07:40:30.000Z</time></trkpt>
<trkpt lat="42.172428" lon="23.372667"><ele>2434.9</ele><time>2026-03-02T07:40:31.000Z</time></trkpt>
<trkpt lat="42.172428" lon="23.372664"><ele>2434.9</ele><time>2026-03-02T07:40:32.000Z</time></trkpt>
<trkpt lat="42.172428" lon="23.372663"><ele>2434.9</ele><time>2026-03-02T07:40:33.000Z</time></trkpt>
<trkpt lat="42.172428" lon="23.372662"><ele>2434.9</ele><time>2026-03-02T07:40:34.000Z</time></trkpt>
<trkpt lat="42.172428" lon="23.372662"><ele>2435.4</ele><time>2026-03-02T07:40:35.000Z</time></trkpt>
<trkpt lat="42.172429" lon="23.372664"><ele>2435.4</ele><time>2026-03-02T07:40:36.000Z</time></trkpt>
<trkpt lat="42.17243" lon="23.372667"><ele>2435.4</ele><time>2026-03-02T07:40:37.000Z</time></trkpt>
<trkpt lat="42.172432" lon="23.372669"><ele>2435.4</ele><time>2026-03-02T07:40:38.000Z</time></trkpt>
<trkpt lat="42.172432" lon="23.372671"><ele>2435.4</ele><time>2026-03-02T07:40:39.000Z</time></trkpt>
<trkpt lat="42.172433" lon="23.372671"><ele>2435.7</ele><time>2026-03-02T07:40:40.000Z</time></trkpt>
<trkpt lat="42.172433" lon="23.372668"><ele>2435.7</ele><time>2026-03-02T07:40:41.000Z</time></trkpt>
<trkpt lat="42.172433" lon="23.372664"><ele>2435.7</ele><time>2026-03-02T07:40:42.000Z</time></trkpt>
<trkpt lat="42.172433" lon="23.37266"><ele>2435.7</ele><time>2026-03-02T07:40:43.000Z</time></trkpt>
<trkpt lat="42.172433" lon="23.372656"><ele>2435.7</ele><time>2026-03-02T07:40:44.000Z</time></trkpt>
<trkpt lat="42.172434" lon="23.372654"><ele>2436.4</ele><time>2026-03-02T07:40:45.000Z</time></trkpt>
<trkpt lat="42.172435" lon="23.372654"><ele>2436.4</ele><time>2026-03-02T07:40:46.000Z</time></trkpt>
<trkpt lat="42.172435" lon="23.372654"><ele>2436.4</ele><time>2026-03-02T07:40:47.000Z</time></trkpt>
<trkpt lat="42.172436" lon="23.372654"><ele>2436.4</ele><time>2026-03-02T07:40:48.000Z</time></trkpt>
<trkpt lat="42.172436" lon="23.372654"><ele>2436.4</ele><time>2026-03-02T07:40:49.000Z</time></trkpt>
<trkpt lat="42.172436" lon="23.372654"><ele>2437</ele><time>2026-03-02T07:40:50.000Z</time></trkpt>
<trkpt lat="42.172436" lon="23.372655"><ele>2437</ele><time>2026-03-02T07:40:51.000Z</time></trkpt>
<trkpt lat="42.172436" lon="23.372655"><ele>2437</ele><time>2026-03-02T07:40:52.000Z</time></trkpt>
<trkpt lat="42.172436" lon="23.372656"><ele>2437</ele><time>2026-03-02T07:40:53.000Z</time></trkpt>
<trkpt lat="42.172436" lon="23.372657"><ele>2437</ele><time>2026-03-02T07:40:54.000Z</time></trkpt>
<trkpt lat="42.172435" lon="23.372657"><ele>2437.2</ele><time>2026-03-02T07:40:55.000Z</time></trkpt>
<trkpt lat="42.172435" lon="23.372657"><ele>2437.2</ele><time>2026-03-02T07:40:56.000Z</time></trkpt>
<trkpt lat="42.172434" lon="23.372658"><ele>2437.2</ele><time>2026-03-02T07:40:57.000Z</time></trkpt>
<trkpt lat="42.172433" lon="23.372658"><ele>2437.2</ele><time>2026-03-02T07:40:58.000Z</time></trkpt>
<trkpt lat="42.172432" lon="23.372658"><ele>2437.2</ele><time>2026-03-02T07:40:59.000Z</time></trkpt>
<trkpt lat="42.172431" lon="23.372658"><ele>2437.5</ele><time>2026-03-02T07:41:00.000Z</time></trkpt>
<trkpt lat="42.172429" lon="23.372659"><ele>2437.5</ele><time>2026-03-02T07:41:01.000Z</time></trkpt>
<trkpt lat="42.172429" lon="23.372659"><ele>2437.5</ele><time>2026-03-02T07:41:02.000Z</time></trkpt>
<trkpt lat="42.172428" lon="23.372659"><ele>2437.5</ele><time>2026-03-02T07:41:03.000Z</time></trkpt>
<trkpt lat="42.172428" lon="23.372659"><ele>2437.5</ele><time>2026-03-02T07:41:04.000Z</time></trkpt>
<trkpt lat="42.172428" lon="23.372659"><ele>2437.5</ele><time>2026-03-02T07:41:05.000Z</time></trkpt>
<trkpt lat="42.172428" lon="23.372659"><ele>2437.5</ele><time>2026-03-02T07:41:06.000Z</time></trkpt>
<trkpt lat="42.172427" lon="23.372658"><ele>2437.5</ele><time>2026-03-02T07:41:07.000Z</time></trkpt>
<trkpt lat="42.172427" lon="23.372658"><ele>2437.5</ele><time>2026-03-02T07:41:08.000Z</time></trkpt>
<trkpt lat="42.172427" lon="23.372657"><ele>2437.5</ele><time>2026-03-02T07:41:09.000Z</time></trkpt>
<trkpt lat="42.172427" lon="23.372657"><ele>2437.5</ele><time>2026-03-02T07:41:10.000Z</time></trkpt>
<trkpt lat="42.172427" lon="23.372657"><ele>2437.5</ele><time>2026-03-02T07:41:11.000Z</time></trkpt>
<trkpt lat="42.172427" lon="23.372656"><ele>2437.5</ele><time>2026-03-02T07:41:12.000Z</time></trkpt>
<trkpt lat="42.172427" lon="23.372656"><ele>2437.5</ele><time>2026-03-02T07:41:13.000Z</time></trkpt>
<trkpt lat="42.172427" lon="23.372655"><ele>2437.5</ele><time>2026-03-02T07:41:14.000Z</time></trkpt>
<trkpt lat="42.172427" lon="23.372655"><ele>2437.4</ele><time>2026-03-02T07:41:15.000Z</time></trkpt>
<trkpt lat="42.172426" lon="23.372655"><ele>2437.4</ele><time>2026-03-02T07:41:16.000Z</time></trkpt>
<trkpt lat="42.172426" lon="23.372655"><ele>2437.4</ele><time>2026-03-02T07:41:17.000Z</time></trkpt>
<trkpt lat="42.172425" lon="23.372655"><ele>2437.4</ele><time>2026-03-02T07:41:18.000Z</time></trkpt>
<trkpt lat="42.172425" lon="23.372655"><ele>2437.4</ele><time>2026-03-02T07:41:19.000Z</time></trkpt>
<trkpt lat="42.172426" lon="23.372656"><ele>2437.3</ele><time>2026-03-02T07:41:20.000Z</time></trkpt>
<trkpt lat="42.172427" lon="23.372657"><ele>2437.3</ele><time>2026-03-02T07:41:21.000Z</time></trkpt>
<trkpt lat="42.172428" lon="23.372658"><ele>2437.3</ele><time>2026-03-02T07:41:22.000Z</time></trkpt>
<trkpt lat="42.172429" lon="23.372658"><ele>2437.3</ele><time>2026-03-02T07:41:23.000Z</time></trkpt>
<trkpt lat="42.172429" lon="23.372659"><ele>2437.3</ele><time>2026-03-02T07:41:24.000Z</time></trkpt>
<trkpt lat="42.17243" lon="23.372659"><ele>2437.3</ele><time>2026-03-02T07:41:25.000Z</time></trkpt>
<trkpt lat="42.17243" lon="23.37266"><ele>2437.3</ele><time>2026-03-02T07:41:26.000Z</time></trkpt>
<trkpt lat="42.17243" lon="23.37266"><ele>2437.3</ele><time>2026-03-02T07:41:27.000Z</time></trkpt>
<trkpt lat="42.172431" lon="23.372661"><ele>2437.3</ele><time>2026-03-02T07:41:28.000Z</time></trkpt>
<trkpt lat="42.172431" lon="23.372662"><ele>2437.3</ele><time>2026-03-02T07:41:29.000Z</time></trkpt>
<trkpt lat="42.172432" lon="23.372661"><ele>2437.3</ele><time>2026-03-02T07:41:30.000Z</time></trkpt>
<trkpt lat="42.172432" lon="23.372661"><ele>2437.3</ele><time>2026-03-02T07:41:31.000Z</time></trkpt>
<trkpt lat="42.172434" lon="23.372661"><ele>2437.3</ele><time>2026-03-02T07:41:32.000Z</time></trkpt>
<trkpt lat="42.172437" lon="23.372661"><ele>2437.3</ele><time>2026-03-02T07:41:33.000Z</time></trkpt>
<trkpt lat="42.172439" lon="23.372661"><ele>2437.3</ele><time>2026-03-02T07:41:34.000Z</time></trkpt>
<trkpt lat="42.172441" lon="23.372662"><ele>2437.3</ele><time>2026-03-02T07:41:35.000Z</time></trkpt>
<trkpt lat="42.172443" lon="23.372661"><ele>2437.3</ele><time>2026-03-02T07:41:36.000Z</time></trkpt>
<trkpt lat="42.172443" lon="23.372661"><ele>2437.3</ele><time>2026-03-02T07:41:37.000Z</time></trkpt>
<trkpt lat="42.172442" lon="23.372661"><ele>2437.3</ele><time>2026-03-02T07:41:38.000Z</time></trkpt>
<trkpt lat="42.172442" lon="23.37266"><ele>2437.3</ele><time>2026-03-02T07:41:39.000Z</time></trkpt>
<trkpt lat="42.172441" lon="23.37266"><ele>2437.4</ele><time>2026-03-02T07:41:40.000Z</time></trkpt>
<trkpt lat="42.172441" lon="23.37266"><ele>2437.4</ele><time>2026-03-02T07:41:41.000Z</time></trkpt>
<trkpt lat="42.172441" lon="23.37266"><ele>2437.4</ele><time>2026-03-02T07:41:42.000Z</time></trkpt>
<trkpt lat="42.172441" lon="23.37266"><ele>2437.4</ele><time>2026-03-02T07:41:43.000Z</time></trkpt>
<trkpt lat="42.172441" lon="23.37266"><ele>2437.4</ele><time>2026-03-02T07:41:44.000Z</time></trkpt>
<trkpt lat="42.172441" lon="23.372661"><ele>2437.3</ele><time>2026-03-02T07:41:45.000Z</time></trkpt>
<trkpt lat="42.172441" lon="23.372661"><ele>2437.3</ele><time>2026-03-02T07:41:46.000Z</time></trkpt>
<trkpt lat="42.172441" lon="23.372661"><ele>2437.3</ele><time>2026-03-02T07:41:47.000Z</time></trkpt>
<trkpt lat="42.172442" lon="23.372661"><ele>2437.3</ele><time>2026-03-02T07:41:48.000Z</time></trkpt>
<trkpt lat="42.172442" lon="23.372661"><ele>2437.3</ele><time>2026-03-02T07:41:49.000Z</time></trkpt>
<trkpt lat="42.172442" lon="23.372661"><ele>2437.4</ele><time>2026-03-02T07:41:50.000Z</time></trkpt>
<trkpt lat="42.172442" lon="23.372661"><ele>2437.4</ele><time>2026-03-02T07:41:51.000Z</time></trkpt>
<trkpt lat="42.172442" lon="23.372661"><ele>2437.4</ele><time>2026-03-02T07:41:52.000Z</time></trkpt>
<trkpt lat="42.172442" lon="23.372661"><ele>2437.4</ele><time>2026-03-02T07:41:53.000Z</time></trkpt>
<trkpt lat="42.172442" lon="23.372661"><ele>2437.4</ele><time>2026-03-02T07:41:54.000Z</time></trkpt>
<trkpt lat="42.172442" lon="23.37266"><ele>2437.4</ele><time>2026-03-02T07:41:55.000Z</time></trkpt>
<trkpt lat="42.172442" lon="23.37266"><ele>2437.4</ele><time>2026-03-02T07:41:56.000Z</time></trkpt>
<trkpt lat="42.172442" lon="23.37266"><ele>2437.4</ele><time>2026-03-02T07:41:57.000Z</time></trkpt>
<trkpt lat="42.172443" lon="23.37266"><ele>2437.4</ele><time>2026-03-02T07:41:58.000Z</time></trkpt>
<trkpt lat="42.172443" lon="23.37266"><ele>2437.4</ele><time>2026-03-02T07:41:59.000Z</time></trkpt>
<trkpt lat="42.172443" lon="23.372661"><ele>2437.3</ele><time>2026-03-02T07:42:00.000Z</time></trkpt>
<trkpt lat="42.172443" lon="23.372661"><ele>2437.3</ele><time>2026-03-02T07:42:01.000Z</time></trkpt>
<trkpt lat="42.172443" lon="23.372661"><ele>2437.3</ele><time>2026-03-02T07:42:02.000Z</time></trkpt>
<trkpt lat="42.172443" lon="23.372661"><ele>2437.3</ele><time>2026-03-02T07:42:03.000Z</time></trkpt>
<trkpt lat="42.172443" lon="23.37266"><ele>2437.3</ele><time>2026-03-02T07:42:04.000Z</time></trkpt>
<trkpt lat="42.172443" lon="23.37266"><ele>2437.2</ele><time>2026-03-02T07:42:05.000Z</time></trkpt>
<trkpt lat="42.172442" lon="23.37266"><ele>2437.2</ele><time>2026-03-02T07:42:06.000Z</time></trkpt>
<trkpt lat="42.172442" lon="23.37266"><ele>2437.2</ele><time>2026-03-02T07:42:07.000Z</time></trkpt>
<trkpt lat="42.172442" lon="23.37266"><ele>2437.2</ele><time>2026-03-02T07:42:08.000Z</time></trkpt>
<trkpt lat="42.172442" lon="23.372659"><ele>2437.2</ele><time>2026-03-02T07:42:09.000Z</time></trkpt>
<trkpt lat="42.172442" lon="23.372659"><ele>2437.2</ele><time>2026-03-02T07:42:10.000Z</time></trkpt>
<trkpt lat="42.172442" lon="23.372658"><ele>2437.2</ele><time>2026-03-02T07:42:11.000Z</time></trkpt>
<trkpt lat="42.172441" lon="23.372657"><ele>2437.2</ele><time>2026-03-02T07:42:12.000Z</time></trkpt>
<trkpt lat="42.172441" lon="23.372657"><ele>2437.2</ele><time>2026-03-02T07:42:13.000Z</time></trkpt>
<trkpt lat="42.17244" lon="23.372657"><ele>2437.2</ele><time>2026-03-02T07:42:14.000Z</time></trkpt>
<trkpt lat="42.17244" lon="23.372657"><ele>2437.2</ele><time>2026-03-02T07:42:15.000Z</time></trkpt>
<trkpt lat="42.17244" lon="23.372657"><ele>2437.2</ele><time>2026-03-02T07:42:16.000Z</time></trkpt>
<trkpt lat="42.172439" lon="23.372657"><ele>2437.2</ele><time>2026-03-02T07:42:17.000Z</time></trkpt>
<trkpt lat="42.172439" lon="23.372657"><ele>2437.2</ele><time>2026-03-02T07:42:18.000Z</time></trkpt>
<trkpt lat="42.172439" lon="23.372657"><ele>2437.2</ele><time>2026-03-02T07:42:19.000Z</time></trkpt>
<trkpt lat="42.172439" lon="23.372657"><ele>2437.2</ele><time>2026-03-02T07:42:20.000Z</time></trkpt>
<trkpt lat="42.172439" lon="23.372657"><ele>2437.2</ele><time>2026-03-02T07:42:21.000Z</time></trkpt>
<trkpt lat="42.17244" lon="23.372657"><ele>2437.2</ele><time>2026-03-02T07:42:22.000Z</time></trkpt>
<trkpt lat="42.17244" lon="23.372656"><ele>2437.2</ele><time>2026-03-02T07:42:23.000Z</time></trkpt>
<trkpt lat="42.17244" lon="23.372656"><ele>2437.2</ele><time>2026-03-02T07:42:24.000Z</time></trkpt>
<trkpt lat="42.17244" lon="23.372656"><ele>2437.2</ele><time>2026-03-02T07:42:25.000Z</time></trkpt>
<trkpt lat="42.172441" lon="23.372656"><ele>2437.2</ele><time>2026-03-02T07:42:26.000Z</time></trkpt>
<trkpt lat="42.172441" lon="23.372657"><ele>2437.2</ele><time>2026-03-02T07:42:27.000Z</time></trkpt>
<trkpt lat="42.172441" lon="23.372657"><ele>2437.2</ele><time>2026-03-02T07:42:28.000Z</time></trkpt>
<trkpt lat="42.172441" lon="23.372657"><ele>2437.2</ele><time>2026-03-02T07:42:29.000Z</time></trkpt>
<trkpt lat="42.172441" lon="23.372657"><ele>2437.1</ele><time>2026-03-02T07:42:30.000Z</time></trkpt>
<trkpt lat="42.172441" lon="23.372656"><ele>2437.1</ele><time>2026-03-02T07:42:31.000Z</time></trkpt>
<trkpt lat="42.172441" lon="23.372656"><ele>2437.1</ele><time>2026-03-02T07:42:32.000Z</time></trkpt>
<trkpt lat="42.17244" lon="23.372656"><ele>2437.1</ele><time>2026-03-02T07:42:33.000Z</time></trkpt>
<trkpt lat="42.17244" lon="23.372654"><ele>2437.1</ele><time>2026-03-02T07:42:34.000Z</time></trkpt>
<trkpt lat="42.17244" lon="23.372653"><ele>2437</ele><time>2026-03-02T07:42:35.000Z</time></trkpt>
<trkpt lat="42.17244" lon="23.372652"><ele>2437</ele><time>2026-03-02T07:42:36.000Z</time></trkpt>
<trkpt lat="42.172441" lon="23.372652"><ele>2437</ele><time>2026-03-02T07:42:37.000Z</time></trkpt>
<trkpt lat="42.172441" lon="23.372651"><ele>2437</ele><time>2026-03-02T07:42:38.000Z</time></trkpt>
<trkpt lat="42.172441" lon="23.372651"><ele>2437</ele><time>2026-03-02T07:42:39.000Z</time></trkpt>
<trkpt lat="42.172441" lon="23.372652"><ele>2437</ele><time>2026-03-02T07:42:40.000Z</time></trkpt>
<trkpt lat="42.17244" lon="23.372653"><ele>2437</ele><time>2026-03-02T07:42:41.000Z</time></trkpt>
<trkpt lat="42.172439" lon="23.372654"><ele>2437</ele><time>2026-03-02T07:42:42.000Z</time></trkpt>
<trkpt lat="42.172437" lon="23.372656"><ele>2437</ele><time>2026-03-02T07:42:43.000Z</time></trkpt>
<trkpt lat="42.172437" lon="23.372657"><ele>2437</ele><time>2026-03-02T07:42:44.000Z</time></trkpt>
<trkpt lat="42.172437" lon="23.372658"><ele>2437.3</ele><time>2026-03-02T07:42:45.000Z</time></trkpt>
<trkpt lat="42.172438" lon="23.372659"><ele>2437.3</ele><time>2026-03-02T07:42:46.000Z</time></trkpt>
<trkpt lat="42.172439" lon="23.37266"><ele>2437.3</ele><time>2026-03-02T07:42:47.000Z</time></trkpt>
<trkpt lat="42.17244" lon="23.37266"><ele>2437.3</ele><time>2026-03-02T07:42:48.000Z</time></trkpt>
<trkpt lat="42.17244" lon="23.372661"><ele>2437.3</ele><time>2026-03-02T07:42:49.000Z</time></trkpt>
<trkpt lat="42.17244" lon="23.372661"><ele>2437.4</ele><time>2026-03-02T07:42:50.000Z</time></trkpt>
<trkpt lat="42.17244" lon="23.372661"><ele>2437.4</ele><time>2026-03-02T07:42:51.000Z</time></trkpt>
<trkpt lat="42.17244" lon="23.372661"><ele>2437.4</ele><time>2026-03-02T07:42:52.000Z</time></trkpt>
<trkpt lat="42.17244" lon="23.372661"><ele>2437.4</ele><time>2026-03-02T07:42:53.000Z</time></trkpt>
<trkpt lat="42.17244" lon="23.372661"><ele>2437.4</ele><time>2026-03-02T07:42:54.000Z</time></trkpt>
<trkpt lat="42.17244" lon="23.372661"><ele>2437.3</ele><time>2026-03-02T07:42:55.000Z</time></trkpt>
<trkpt lat="42.17244" lon="23.372661"><ele>2437.3</ele><time>2026-03-02T07:42:56.000Z</time></trkpt>
<trkpt lat="42.17244" lon="23.372661"><ele>2437.3</ele><time>2026-03-02T07:42:57.000Z</time></trkpt>
<trkpt lat="42.17244" lon="23.372661"><ele>2437.3</ele><time>2026-03-02T07:42:58.000Z</time></trkpt>
<trkpt lat="42.17244" lon="23.372661"><ele>2437.3</ele><time>2026-03-02T07:42:59.000Z</time></trkpt>
<trkpt lat="42.17244" lon="23.372661"><ele>2437</ele><time>2026-03-02T07:43:00.000Z</time></trkpt>
<trkpt lat="42.17244" lon="23.372661"><ele>2437</ele><time>2026-03-02T07:43:01.000Z</time></trkpt>
<trkpt lat="42.17244" lon="23.372662"><ele>2437</ele><time>2026-03-02T07:43:02.000Z</time></trkpt>
<trkpt lat="42.17244" lon="23.372662"><ele>2437</ele><time>2026-03-02T07:43:03.000Z</time></trkpt>
<trkpt lat="42.17244" lon="23.372662"><ele>2437</ele><time>2026-03-02T07:43:04.000Z</time></trkpt>
<trkpt lat="42.17244" lon="23.372663"><ele>2436.9</ele><time>2026-03-02T07:43:05.000Z</time></trkpt>
<trkpt lat="42.17244" lon="23.372663"><ele>2436.9</ele><time>2026-03-02T07:43:06.000Z</time></trkpt>
<trkpt lat="42.17244" lon="23.372663"><ele>2436.9</ele><time>2026-03-02T07:43:07.000Z</time></trkpt>
<trkpt lat="42.17244" lon="23.372663"><ele>2436.9</ele><time>2026-03-02T07:43:08.000Z</time></trkpt>
<trkpt lat="42.17244" lon="23.372663"><ele>2436.9</ele><time>2026-03-02T07:43:09.000Z</time></trkpt>
<trkpt lat="42.17244" lon="23.372663"><ele>2436.9</ele><time>2026-03-02T07:43:10.000Z</time></trkpt>
<trkpt lat="42.17244" lon="23.372663"><ele>2436.9</ele><time>2026-03-02T07:43:11.000Z</time></trkpt>
<trkpt lat="42.17244" lon="23.372663"><ele>2436.9</ele><time>2026-03-02T07:43:12.000Z</time></trkpt>
<trkpt lat="42.172439" lon="23.372662"><ele>2436.9</ele><time>2026-03-02T07:43:13.000Z</time></trkpt>
<trkpt lat="42.172437" lon="23.372662"><ele>2436.9</ele><time>2026-03-02T07:43:14.000Z</time></trkpt>
<trkpt lat="42.172434" lon="23.372663"><ele>2437.1</ele><time>2026-03-02T07:43:15.000Z</time></trkpt>
<trkpt lat="42.172431" lon="23.372666"><ele>2437.1</ele><time>2026-03-02T07:43:16.000Z</time></trkpt>
<trkpt lat="42.172427" lon="23.372671"><ele>2437.1</ele><time>2026-03-02T07:43:17.000Z</time></trkpt>
<trkpt lat="42.172425" lon="23.372678"><ele>2437.1</ele><time>2026-03-02T07:43:18.000Z</time></trkpt>
<trkpt lat="42.172422" lon="23.372686"><ele>2437.1</ele><time>2026-03-02T07:43:19.000Z</time></trkpt>
<trkpt lat="42.17242" lon="23.372694"><ele>2437.4</ele><time>2026-03-02T07:43:20.000Z</time></trkpt>
<trkpt lat="42.172419" lon="23.372702"><ele>2437.4</ele><time>2026-03-02T07:43:21.000Z</time></trkpt>
<trkpt lat="42.172417" lon="23.372709"><ele>2437.4</ele><time>2026-03-02T07:43:22.000Z</time></trkpt>
<trkpt lat="42.172416" lon="23.372716"><ele>2437.4</ele><time>2026-03-02T07:43:23.000Z</time></trkpt>
<trkpt lat="42.172415" lon="23.372723"><ele>2437.4</ele><time>2026-03-02T07:43:24.000Z</time></trkpt>
<trkpt lat="42.172415" lon="23.372727"><ele>2437.4</ele><time>2026-03-02T07:43:25.000Z</time></trkpt>
<trkpt lat="42.172415" lon="23.372733"><ele>2437.4</ele><time>2026-03-02T07:43:26.000Z</time></trkpt>
<trkpt lat="42.172416" lon="23.372737"><ele>2437.4</ele><time>2026-03-02T07:43:27.000Z</time></trkpt>
<trkpt lat="42.172417" lon="23.372741"><ele>2437.4</ele><time>2026-03-02T07:43:28.000Z</time></trkpt>
<trkpt lat="42.172418" lon="23.372746"><ele>2437.4</ele><time>2026-03-02T07:43:29.000Z</time></trkpt>
<trkpt lat="42.172421" lon="23.37275"><ele>2437</ele><time>2026-03-02T07:43:30.000Z</time></trkpt>
<trkpt lat="42.172423" lon="23.372754"><ele>2437</ele><time>2026-03-02T07:43:31.000Z</time></trkpt>
<trkpt lat="42.172426" lon="23.372756"><ele>2437</ele><time>2026-03-02T07:43:32.000Z</time></trkpt>
<trkpt lat="42.17243" lon="23.372758"><ele>2437</ele><time>2026-03-02T07:43:33.000Z</time></trkpt>
<trkpt lat="42.172434" lon="23.372762"><ele>2437</ele><time>2026-03-02T07:43:34.000Z</time></trkpt>
<trkpt lat="42.172437" lon="23.372768"><ele>2435.9</ele><time>2026-03-02T07:43:35.000Z</time></trkpt>
<trkpt lat="42.17244" lon="23.372776"><ele>2435.9</ele><time>2026-03-02T07:43:36.000Z</time></trkpt>
<trkpt lat="42.172442" lon="23.372785"><ele>2435.9</ele><time>2026-03-02T07:43:37.000Z</time></trkpt>
<trkpt lat="42.172445" lon="23.372795"><ele>2435.9</ele><time>2026-03-02T07:43:38.000Z</time></trkpt>
<trkpt lat="42.172446" lon="23.372804"><ele>2435.9</ele><time>2026-03-02T07:43:39.000Z</time></trkpt>
<trkpt lat="42.172447" lon="23.372813"><ele>2435.2</ele><time>2026-03-02T07:43:40.000Z</time></trkpt>
<trkpt lat="42.172449" lon="23.37282"><ele>2435.2</ele><time>2026-03-02T07:43:41.000Z</time></trkpt>
<trkpt lat="42.17245" lon="23.372826"><ele>2435.2</ele><time>2026-03-02T07:43:42.000Z</time></trkpt>
<trkpt lat="42.172451" lon="23.37283"><ele>2435.2</ele><time>2026-03-02T07:43:43.000Z</time></trkpt>
<trkpt lat="42.172453" lon="23.372833"><ele>2435.2</ele><time>2026-03-02T07:43:44.000Z</time></trkpt>
<trkpt lat="42.172455" lon="23.372835"><ele>2433.7</ele><time>2026-03-02T07:43:45.000Z</time></trkpt>
<trkpt lat="42.172457" lon="23.372836"><ele>2433.7</ele><time>2026-03-02T07:43:46.000Z</time></trkpt>
<trkpt lat="42.17246" lon="23.372837"><ele>2433.7</ele><time>2026-03-02T07:43:47.000Z</time></trkpt>
<trkpt lat="42.172463" lon="23.37284"><ele>2433.7</ele><time>2026-03-02T07:43:48.000Z</time></trkpt>
<trkpt lat="42.172467" lon="23.372842"><ele>2433.7</ele><time>2026-03-02T07:43:49.000Z</time></trkpt>
<trkpt lat="42.17247" lon="23.372845"><ele>2432</ele><time>2026-03-02T07:43:50.000Z</time></trkpt>
<trkpt lat="42.172472" lon="23.372849"><ele>2432</ele><time>2026-03-02T07:43:51.000Z</time></trkpt>
<trkpt lat="42.172475" lon="23.372851"><ele>2432</ele><time>2026-03-02T07:43:52.000Z</time></trkpt>
<trkpt lat="42.172477" lon="23.372853"><ele>2432</ele><time>2026-03-02T07:43:53.000Z</time></trkpt>
<trkpt lat="42.172478" lon="23.372855"><ele>2432</ele><time>2026-03-02T07:43:54.000Z</time></trkpt>
<trkpt lat="42.172479" lon="23.372855"><ele>2431.2</ele><time>2026-03-02T07:43:55.000Z</time></trkpt>
<trkpt lat="42.172479" lon="23.372855"><ele>2431.2</ele><time>2026-03-02T07:43:56.000Z</time></trkpt>
<trkpt lat="42.172479" lon="23.372854"><ele>2431.2</ele><time>2026-03-02T07:43:57.000Z</time></trkpt>
<trkpt lat="42.172479" lon="23.372853"><ele>2431.2</ele><time>2026-03-02T07:43:58.000Z</time></trkpt>
<trkpt lat="42.172479" lon="23.372851"><ele>2431.2</ele><time>2026-03-02T07:43:59.000Z</time></trkpt>
<trkpt lat="42.172479" lon="23.37285"><ele>2429.7</ele><time>2026-03-02T07:44:00.000Z</time></trkpt>
<trkpt lat="42.17248" lon="23.372848"><ele>2429.7</ele><time>2026-03-02T07:44:01.000Z</time></trkpt>
<trkpt lat="42.17248" lon="23.372848"><ele>2429.7</ele><time>2026-03-02T07:44:02.000Z</time></trkpt>
<trkpt lat="42.17248" lon="23.372848"><ele>2429.7</ele><time>2026-03-02T07:44:03.000Z</time></trkpt>
<trkpt lat="42.17248" lon="23.372848"><ele>2429.7</ele><time>2026-03-02T07:44:04.000Z</time></trkpt>
<trkpt lat="42.17248" lon="23.372848"><ele>2428.9</ele><time>2026-03-02T07:44:05.000Z</time></trkpt>
<trkpt lat="42.172479" lon="23.372848"><ele>2428.9</ele><time>2026-03-02T07:44:06.000Z</time></trkpt>
<trkpt lat="42.172478" lon="23.372848"><ele>2428.9</ele><time>2026-03-02T07:44:07.000Z</time></trkpt>
<trkpt lat="42.172477" lon="23.372848"><ele>2428.9</ele><time>2026-03-02T07:44:08.000Z</time></trkpt>
<trkpt lat="42.172475" lon="23.372847"><ele>2428.9</ele><time>2026-03-02T07:44:09.000Z</time></trkpt>
<trkpt lat="42.172474" lon="23.372847"><ele>2428.7</ele><time>2026-03-02T07:44:10.000Z</time></trkpt>
<trkpt lat="42.172474" lon="23.372846"><ele>2428.7</ele><time>2026-03-02T07:44:11.000Z</time></trkpt>
<trkpt lat="42.172473" lon="23.372845"><ele>2428.7</ele><time>2026-03-02T07:44:12.000Z</time></trkpt>
<trkpt lat="42.172472" lon="23.372844"><ele>2428.7</ele><time>2026-03-02T07:44:13.000Z</time></trkpt>
<trkpt lat="42.172471" lon="23.372842"><ele>2428.7</ele><time>2026-03-02T07:44:14.000Z</time></trkpt>
<trkpt lat="42.172469" lon="23.372842"><ele>2428.6</ele><time>2026-03-02T07:44:15.000Z</time></trkpt>
<trkpt lat="42.172468" lon="23.372842"><ele>2428.6</ele><time>2026-03-02T07:44:16.000Z</time></trkpt>
<trkpt lat="42.172466" lon="23.372842"><ele>2428.6</ele><time>2026-03-02T07:44:17.000Z</time></trkpt>
<trkpt lat="42.172465" lon="23.372842"><ele>2428.6</ele><time>2026-03-02T07:44:18.000Z</time></trkpt>
<trkpt lat="42.172463" lon="23.372843"><ele>2428.6</ele><time>2026-03-02T07:44:19.000Z</time></trkpt>
<trkpt lat="42.172461" lon="23.372845"><ele>2428.8</ele><time>2026-03-02T07:44:20.000Z</time></trkpt>
<trkpt lat="42.17246" lon="23.372846"><ele>2428.8</ele><time>2026-03-02T07:44:21.000Z</time></trkpt>
<trkpt lat="42.17246" lon="23.372847"><ele>2428.8</ele><time>2026-03-02T07:44:22.000Z</time></trkpt>
<trkpt lat="42.172461" lon="23.372847"><ele>2428.8</ele><time>2026-03-02T07:44:23.000Z</time></trkpt>
<trkpt lat="42.172463" lon="23.372846"><ele>2428.8</ele><time>2026-03-02T07:44:24.000Z</time></trkpt>
<trkpt lat="42.172465" lon="23.372845"><ele>2428.9</ele><time>2026-03-02T07:44:25.000Z</time></trkpt>
<trkpt lat="42.172467" lon="23.372844"><ele>2428.9</ele><time>2026-03-02T07:44:26.000Z</time></trkpt>
<trkpt lat="42.172468" lon="23.372842"><ele>2428.9</ele><time>2026-03-02T07:44:27.000Z</time></trkpt>
<trkpt lat="42.172468" lon="23.372842"><ele>2428.9</ele><time>2026-03-02T07:44:28.000Z</time></trkpt>
<trkpt lat="42.172467" lon="23.372842"><ele>2428.9</ele><time>2026-03-02T07:44:29.000Z</time></trkpt>
<trkpt lat="42.172467" lon="23.372842"><ele>2428.9</ele><time>2026-03-02T07:44:30.000Z</time></trkpt>
<trkpt lat="42.172467" lon="23.372842"><ele>2428.9</ele><time>2026-03-02T07:44:31.000Z</time></trkpt>
<trkpt lat="42.172467" lon="23.372842"><ele>2428.9</ele><time>2026-03-02T07:44:32.000Z</time></trkpt>
<trkpt lat="42.172467" lon="23.372842"><ele>2428.9</ele><time>2026-03-02T07:44:33.000Z</time></trkpt>
<trkpt lat="42.172466" lon="23.372842"><ele>2428.9</ele><time>2026-03-02T07:44:34.000Z</time></trkpt>
<trkpt lat="42.172467" lon="23.372843"><ele>2428.9</ele><time>2026-03-02T07:44:35.000Z</time></trkpt>
<trkpt lat="42.172467" lon="23.372843"><ele>2428.9</ele><time>2026-03-02T07:44:36.000Z</time></trkpt>
<trkpt lat="42.172467" lon="23.372843"><ele>2428.9</ele><time>2026-03-02T07:44:37.000Z</time></trkpt>
<trkpt lat="42.172468" lon="23.372842"><ele>2428.9</ele><time>2026-03-02T07:44:38.000Z</time></trkpt>
<trkpt lat="42.172468" lon="23.372842"><ele>2428.9</ele><time>2026-03-02T07:44:39.000Z</time></trkpt>
<trkpt lat="42.172469" lon="23.372842"><ele>2428.9</ele><time>2026-03-02T07:44:40.000Z</time></trkpt>
<trkpt lat="42.172469" lon="23.372842"><ele>2428.9</ele><time>2026-03-02T07:44:41.000Z</time></trkpt>
<trkpt lat="42.172469" lon="23.372842"><ele>2428.9</ele><time>2026-03-02T07:44:42.000Z</time></trkpt>
<trkpt lat="42.172469" lon="23.372842"><ele>2428.9</ele><time>2026-03-02T07:44:43.000Z</time></trkpt>
<trkpt lat="42.172469" lon="23.372842"><ele>2428.9</ele><time>2026-03-02T07:44:44.000Z</time></trkpt>
<trkpt lat="42.172469" lon="23.372842"><ele>2429</ele><time>2026-03-02T07:44:45.000Z</time></trkpt>
<trkpt lat="42.172469" lon="23.372842"><ele>2429</ele><time>2026-03-02T07:44:46.000Z</time></trkpt>
<trkpt lat="42.172469" lon="23.372842"><ele>2429</ele><time>2026-03-02T07:44:47.000Z</time></trkpt>
<trkpt lat="42.172468" lon="23.372842"><ele>2429</ele><time>2026-03-02T07:44:48.000Z</time></trkpt>
<trkpt lat="42.172468" lon="23.372842"><ele>2429</ele><time>2026-03-02T07:44:49.000Z</time></trkpt>
<trkpt lat="42.172468" lon="23.372843"><ele>2429.2</ele><time>2026-03-02T07:44:50.000Z</time></trkpt>
<trkpt lat="42.172469" lon="23.372843"><ele>2429.2</ele><time>2026-03-02T07:44:51.000Z</time></trkpt>
<trkpt lat="42.172469" lon="23.372844"><ele>2429.2</ele><time>2026-03-02T07:44:52.000Z</time></trkpt>
<trkpt lat="42.172469" lon="23.372845"><ele>2429.2</ele><time>2026-03-02T07:44:53.000Z</time></trkpt>
<trkpt lat="42.17247" lon="23.372845"><ele>2429.2</ele><time>2026-03-02T07:44:54.000Z</time></trkpt>
<trkpt lat="42.17247" lon="23.372846"><ele>2429.3</ele><time>2026-03-02T07:44:55.000Z</time></trkpt>
<trkpt lat="42.17247" lon="23.372846"><ele>2429.3</ele><time>2026-03-02T07:44:56.000Z</time></trkpt>
<trkpt lat="42.17247" lon="23.372846"><ele>2429.3</ele><time>2026-03-02T07:44:57.000Z</time></trkpt>
<trkpt lat="42.172469" lon="23.372846"><ele>2429.3</ele><time>2026-03-02T07:44:58.000Z</time></trkpt>
<trkpt lat="42.172469" lon="23.372846"><ele>2429.3</ele><time>2026-03-02T07:44:59.000Z</time></trkpt>
<trkpt lat="42.172469" lon="23.372846"><ele>2429.3</ele><time>2026-03-02T07:45:00.000Z</time></trkpt>
<trkpt lat="42.172469" lon="23.372846"><ele>2429.3</ele><time>2026-03-02T07:45:01.000Z</time></trkpt>
<trkpt lat="42.172468" lon="23.372846"><ele>2429.3</ele><time>2026-03-02T07:45:02.000Z</time></trkpt>
<trkpt lat="42.172468" lon="23.372846"><ele>2429.3</ele><time>2026-03-02T07:45:03.000Z</time></trkpt>
<trkpt lat="42.172469" lon="23.372846"><ele>2429.3</ele><time>2026-03-02T07:45:04.000Z</time></trkpt>
<trkpt lat="42.17247" lon="23.372845"><ele>2429.4</ele><time>2026-03-02T07:45:05.000Z</time></trkpt>
<trkpt lat="42.172471" lon="23.372844"><ele>2429.4</ele><time>2026-03-02T07:45:06.000Z</time></trkpt>
<trkpt lat="42.172472" lon="23.372844"><ele>2429.4</ele><time>2026-03-02T07:45:07.000Z</time></trkpt>
<trkpt lat="42.172472" lon="23.372843"><ele>2429.4</ele><time>2026-03-02T07:45:08.000Z</time></trkpt>
<trkpt lat="42.172472" lon="23.372843"><ele>2429.4</ele><time>2026-03-02T07:45:09.000Z</time></trkpt>
<trkpt lat="42.172473" lon="23.372843"><ele>2429.4</ele><time>2026-03-02T07:45:10.000Z</time></trkpt>
<trkpt lat="42.172473" lon="23.372843"><ele>2429.4</ele><time>2026-03-02T07:45:11.000Z</time></trkpt>
<trkpt lat="42.172473" lon="23.372843"><ele>2429.4</ele><time>2026-03-02T07:45:12.000Z</time></trkpt>
<trkpt lat="42.172474" lon="23.372843"><ele>2429.4</ele><time>2026-03-02T07:45:13.000Z</time></trkpt>
<trkpt lat="42.172475" lon="23.372842"><ele>2429.4</ele><time>2026-03-02T07:45:14.000Z</time></trkpt>
<trkpt lat="42.172476" lon="23.372843"><ele>2429.3</ele><time>2026-03-02T07:45:15.000Z</time></trkpt>
<trkpt lat="42.172477" lon="23.372843"><ele>2429.3</ele><time>2026-03-02T07:45:16.000Z</time></trkpt>
<trkpt lat="42.172477" lon="23.372843"><ele>2429.3</ele><time>2026-03-02T07:45:17.000Z</time></trkpt>
<trkpt lat="42.172478" lon="23.372842"><ele>2429.3</ele><time>2026-03-02T07:45:18.000Z</time></trkpt>
<trkpt lat="42.172478" lon="23.372842"><ele>2429.3</ele><time>2026-03-02T07:45:19.000Z</time></trkpt>
<trkpt lat="42.172478" lon="23.372842"><ele>2429</ele><time>2026-03-02T07:45:20.000Z</time></trkpt>
<trkpt lat="42.172478" lon="23.372842"><ele>2429</ele><time>2026-03-02T07:45:21.000Z</time></trkpt>
<trkpt lat="42.172478" lon="23.372842"><ele>2429</ele><time>2026-03-02T07:45:22.000Z</time></trkpt>
<trkpt lat="42.172478" lon="23.372842"><ele>2429</ele><time>2026-03-02T07:45:23.000Z</time></trkpt>
<trkpt lat="42.172478" lon="23.372842"><ele>2429</ele><time>2026-03-02T07:45:24.000Z</time></trkpt>
<trkpt lat="42.172478" lon="23.372842"><ele>2428.9</ele><time>2026-03-02T07:45:25.000Z</time></trkpt>
<trkpt lat="42.172478" lon="23.372842"><ele>2428.9</ele><time>2026-03-02T07:45:26.000Z</time></trkpt>
<trkpt lat="42.172478" lon="23.372842"><ele>2428.9</ele><time>2026-03-02T07:45:27.000Z</time></trkpt>
<trkpt lat="42.172479" lon="23.372842"><ele>2428.9</ele><time>2026-03-02T07:45:28.000Z</time></trkpt>
<trkpt lat="42.172479" lon="23.372843"><ele>2428.9</ele><time>2026-03-02T07:45:29.000Z</time></trkpt>
<trkpt lat="42.172479" lon="23.372843"><ele>2428.7</ele><time>2026-03-02T07:45:30.000Z</time></trkpt>
<trkpt lat="42.17248" lon="23.372843"><ele>2428.7</ele><time>2026-03-02T07:45:31.000Z</time></trkpt>
<trkpt lat="42.17248" lon="23.372843"><ele>2428.7</ele><time>2026-03-02T07:45:32.000Z</time></trkpt>
<trkpt lat="42.17248" lon="23.372843"><ele>2428.7</ele><time>2026-03-02T07:45:33.000Z</time></trkpt>
<trkpt lat="42.17248" lon="23.372843"><ele>2428.7</ele><time>2026-03-02T07:45:34.000Z</time></trkpt>
<trkpt lat="42.172481" lon="23.372843"><ele>2428.6</ele><time>2026-03-02T07:45:35.000Z</time></trkpt>
<trkpt lat="42.172481" lon="23.372844"><ele>2428.6</ele><time>2026-03-02T07:45:36.000Z</time></trkpt>
<trkpt lat="42.172482" lon="23.372844"><ele>2428.6</ele><time>2026-03-02T07:45:37.000Z</time></trkpt>
<trkpt lat="42.172483" lon="23.372843"><ele>2428.6</ele><time>2026-03-02T07:45:38.000Z</time></trkpt>
<trkpt lat="42.172484" lon="23.372843"><ele>2428.6</ele><time>2026-03-02T07:45:39.000Z</time></trkpt>
<trkpt lat="42.172485" lon="23.372842"><ele>2428.7</ele><time>2026-03-02T07:45:40.000Z</time></trkpt>
<trkpt lat="42.172486" lon="23.372842"><ele>2428.7</ele><time>2026-03-02T07:45:41.000Z</time></trkpt>
<trkpt lat="42.172486" lon="23.372842"><ele>2428.7</ele><time>2026-03-02T07:45:42.000Z</time></trkpt>
<trkpt lat="42.172486" lon="23.372841"><ele>2428.7</ele><time>2026-03-02T07:45:43.000Z</time></trkpt>
<trkpt lat="42.172485" lon="23.37284"><ele>2428.7</ele><time>2026-03-02T07:45:44.000Z</time></trkpt>
<trkpt lat="42.172484" lon="23.372839"><ele>2429</ele><time>2026-03-02T07:45:45.000Z</time></trkpt>
<trkpt lat="42.172482" lon="23.372838"><ele>2429</ele><time>2026-03-02T07:45:46.000Z</time></trkpt>
<trkpt lat="42.17248" lon="23.372837"><ele>2429</ele><time>2026-03-02T07:45:47.000Z</time></trkpt>
<trkpt lat="42.172478" lon="23.372835"><ele>2429</ele><time>2026-03-02T07:45:48.000Z</time></trkpt>
<trkpt lat="42.172478" lon="23.372835"><ele>2429</ele><time>2026-03-02T07:45:49.000Z</time></trkpt>
<trkpt lat="42.172478" lon="23.372835"><ele>2429.2</ele><time>2026-03-02T07:45:50.000Z</time></trkpt>
<trkpt lat="42.172477" lon="23.372834"><ele>2429.2</ele><time>2026-03-02T07:45:51.000Z</time></trkpt>
<trkpt lat="42.172477" lon="23.372834"><ele>2429.2</ele><time>2026-03-02T07:45:52.000Z</time></trkpt>
<trkpt lat="42.172477" lon="23.372834"><ele>2429.2</ele><time>2026-03-02T07:45:53.000Z</time></trkpt>
<trkpt lat="42.172476" lon="23.372834"><ele>2429.2</ele><time>2026-03-02T07:45:54.000Z</time></trkpt>
<trkpt lat="42.172475" lon="23.372833"><ele>2429.3</ele><time>2026-03-02T07:45:55.000Z</time></trkpt>
<trkpt lat="42.172473" lon="23.372832"><ele>2429.3</ele><time>2026-03-02T07:45:56.000Z</time></trkpt>
<trkpt lat="42.172473" lon="23.37283"><ele>2429.3</ele><time>2026-03-02T07:45:57.000Z</time></trkpt>
<trkpt lat="42.172472" lon="23.372829"><ele>2429.3</ele><time>2026-03-02T07:45:58.000Z</time></trkpt>
<trkpt lat="42.172471" lon="23.372828"><ele>2429.3</ele><time>2026-03-02T07:45:59.000Z</time></trkpt>
<trkpt lat="42.17247" lon="23.372827"><ele>2429.3</ele><time>2026-03-02T07:46:00.000Z</time></trkpt>
<trkpt lat="42.17247" lon="23.372827"><ele>2429.3</ele><time>2026-03-02T07:46:01.000Z</time></trkpt>
<trkpt lat="42.172469" lon="23.372826"><ele>2429.3</ele><time>2026-03-02T07:46:02.000Z</time></trkpt>
<trkpt lat="42.172468" lon="23.372825"><ele>2429.3</ele><time>2026-03-02T07:46:03.000Z</time></trkpt>
<trkpt lat="42.172468" lon="23.372825"><ele>2429.3</ele><time>2026-03-02T07:46:04.000Z</time></trkpt>
<trkpt lat="42.172468" lon="23.372825"><ele>2429.1</ele><time>2026-03-02T07:46:05.000Z</time></trkpt>
<trkpt lat="42.172467" lon="23.372824"><ele>2429.1</ele><time>2026-03-02T07:46:06.000Z</time></trkpt>
<trkpt lat="42.172467" lon="23.372824"><ele>2429.1</ele><time>2026-03-02T07:46:07.000Z</time></trkpt>
<trkpt lat="42.172467" lon="23.372824"><ele>2429.1</ele><time>2026-03-02T07:46:08.000Z</time></trkpt>
<trkpt lat="42.172467" lon="23.372823"><ele>2429.1</ele><time>2026-03-02T07:46:09.000Z</time></trkpt>
<trkpt lat="42.172466" lon="23.372823"><ele>2429</ele><time>2026-03-02T07:46:10.000Z</time></trkpt>
<trkpt lat="42.172466" lon="23.372823"><ele>2429</ele><time>2026-03-02T07:46:11.000Z</time></trkpt>
<trkpt lat="42.172466" lon="23.372824"><ele>2429</ele><time>2026-03-02T07:46:12.000Z</time></trkpt>
<trkpt lat="42.172467" lon="23.372825"><ele>2429</ele><time>2026-03-02T07:46:13.000Z</time></trkpt>
<trkpt lat="42.172469" lon="23.372827"><ele>2429</ele><time>2026-03-02T07:46:14.000Z</time></trkpt>
<trkpt lat="42.172471" lon="23.372828"><ele>2428.8</ele><time>2026-03-02T07:46:15.000Z</time></trkpt>
<trkpt lat="42.172475" lon="23.372831"><ele>2428.8</ele><time>2026-03-02T07:46:16.000Z</time></trkpt>
<trkpt lat="42.172478" lon="23.372833"><ele>2428.8</ele><time>2026-03-02T07:46:17.000Z</time></trkpt>
<trkpt lat="42.17248" lon="23.372834"><ele>2428.8</ele><time>2026-03-02T07:46:18.000Z</time></trkpt>
<trkpt lat="42.172483" lon="23.372835"><ele>2428.8</ele><time>2026-03-02T07:46:19.000Z</time></trkpt>
<trkpt lat="42.172483" lon="23.372837"><ele>2428.7</ele><time>2026-03-02T07:46:20.000Z</time></trkpt>
<trkpt lat="42.172483" lon="23.372838"><ele>2428.7</ele><time>2026-03-02T07:46:21.000Z</time></trkpt>
<trkpt lat="42.172481" lon="23.372838"><ele>2428.7</ele><time>2026-03-02T07:46:22.000Z</time></trkpt>
<trkpt lat="42.172479" lon="23.372838"><ele>2428.7</ele><time>2026-03-02T07:46:23.000Z</time></trkpt>
<trkpt lat="42.172476" lon="23.372838"><ele>2428.7</ele><time>2026-03-02T07:46:24.000Z</time></trkpt>
<trkpt lat="42.172474" lon="23.372838"><ele>2428.6</ele><time>2026-03-02T07:46:25.000Z</time></trkpt>
<trkpt lat="42.172473" lon="23.372838"><ele>2428.6</ele><time>2026-03-02T07:46:26.000Z</time></trkpt>
<trkpt lat="42.172473" lon="23.372838"><ele>2428.6</ele><time>2026-03-02T07:46:27.000Z</time></trkpt>
<trkpt lat="42.172474" lon="23.372839"><ele>2428.6</ele><time>2026-03-02T07:46:28.000Z</time></trkpt>
<trkpt lat="42.172475" lon="23.372839"><ele>2428.6</ele><time>2026-03-02T07:46:29.000Z</time></trkpt>
<trkpt lat="42.172475" lon="23.372839"><ele>2428.5</ele><time>2026-03-02T07:46:30.000Z</time></trkpt>
<trkpt lat="42.172474" lon="23.372837"><ele>2428.5</ele><time>2026-03-02T07:46:31.000Z</time></trkpt>
<trkpt lat="42.172474" lon="23.372836"><ele>2428.5</ele><time>2026-03-02T07:46:32.000Z</time></trkpt>
<trkpt lat="42.172473" lon="23.372835"><ele>2428.5</ele><time>2026-03-02T07:46:33.000Z</time></trkpt>
<trkpt lat="42.172472" lon="23.372834"><ele>2428.5</ele><time>2026-03-02T07:46:34.000Z</time></trkpt>
<trkpt lat="42.172472" lon="23.372833"><ele>2428.5</ele><time>2026-03-02T07:46:35.000Z</time></trkpt>
<trkpt lat="42.172473" lon="23.372833"><ele>2428.5</ele><time>2026-03-02T07:46:36.000Z</time></trkpt>
<trkpt lat="42.172474" lon="23.372832"><ele>2428.5</ele><time>2026-03-02T07:46:37.000Z</time></trkpt>
<trkpt lat="42.172474" lon="23.372832"><ele>2428.5</ele><time>2026-03-02T07:46:38.000Z</time></trkpt>
<trkpt lat="42.172475" lon="23.372832"><ele>2428.5</ele><time>2026-03-02T07:46:39.000Z</time></trkpt>
<trkpt lat="42.172475" lon="23.372832"><ele>2428.6</ele><time>2026-03-02T07:46:40.000Z</time></trkpt>
<trkpt lat="42.172475" lon="23.372832"><ele>2428.6</ele><time>2026-03-02T07:46:41.000Z</time></trkpt>
<trkpt lat="42.172475" lon="23.372832"><ele>2428.6</ele><time>2026-03-02T07:46:42.000Z</time></trkpt>
<trkpt lat="42.172475" lon="23.372831"><ele>2428.6</ele><time>2026-03-02T07:46:43.000Z</time></trkpt>
<trkpt lat="42.172475" lon="23.372831"><ele>2428.6</ele><time>2026-03-02T07:46:44.000Z</time></trkpt>
<trkpt lat="42.172474" lon="23.37283"><ele>2428.7</ele><time>2026-03-02T07:46:45.000Z</time></trkpt>
<trkpt lat="42.172474" lon="23.37283"><ele>2428.7</ele><time>2026-03-02T07:46:46.000Z</time></trkpt>
<trkpt lat="42.172474" lon="23.37283"><ele>2428.7</ele><time>2026-03-02T07:46:47.000Z</time></trkpt>
<trkpt lat="42.172473" lon="23.372831"><ele>2428.7</ele><time>2026-03-02T07:46:48.000Z</time></trkpt>
<trkpt lat="42.172473" lon="23.372832"><ele>2428.7</ele><time>2026-03-02T07:46:49.000Z</time></trkpt>
<trkpt lat="42.172474" lon="23.372833"><ele>2428.9</ele><time>2026-03-02T07:46:50.000Z</time></trkpt>
<trkpt lat="42.172474" lon="23.372834"><ele>2428.9</ele><time>2026-03-02T07:46:51.000Z</time></trkpt>
<trkpt lat="42.172475" lon="23.372833"><ele>2428.9</ele><time>2026-03-02T07:46:52.000Z</time></trkpt>
<trkpt lat="42.172475" lon="23.372832"><ele>2428.9</ele><time>2026-03-02T07:46:53.000Z</time></trkpt>
<trkpt lat="42.172476" lon="23.372831"><ele>2428.9</ele><time>2026-03-02T07:46:54.000Z</time></trkpt>
<trkpt lat="42.172475" lon="23.37283"><ele>2429</ele><time>2026-03-02T07:46:55.000Z</time></trkpt>
<trkpt lat="42.172474" lon="23.372829"><ele>2429</ele><time>2026-03-02T07:46:56.000Z</time></trkpt>
<trkpt lat="42.172473" lon="23.372828"><ele>2429</ele><time>2026-03-02T07:46:57.000Z</time></trkpt>
<trkpt lat="42.172471" lon="23.372828"><ele>2429</ele><time>2026-03-02T07:46:58.000Z</time></trkpt>
<trkpt lat="42.17247" lon="23.372828"><ele>2429</ele><time>2026-03-02T07:46:59.000Z</time></trkpt>
<trkpt lat="42.172468" lon="23.372827"><ele>2429</ele><time>2026-03-02T07:47:00.000Z</time></trkpt>
<trkpt lat="42.172467" lon="23.372827"><ele>2429</ele><time>2026-03-02T07:47:01.000Z</time></trkpt>
<trkpt lat="42.172466" lon="23.372827"><ele>2429</ele><time>2026-03-02T07:47:02.000Z</time></trkpt>
<trkpt lat="42.172464" lon="23.372827"><ele>2429</ele><time>2026-03-02T07:47:03.000Z</time></trkpt>
<trkpt lat="42.172463" lon="23.372826"><ele>2429</ele><time>2026-03-02T07:47:04.000Z</time></trkpt>
<trkpt lat="42.172462" lon="23.372826"><ele>2428.9</ele><time>2026-03-02T07:47:05.000Z</time></trkpt>
<trkpt lat="42.172462" lon="23.372827"><ele>2428.9</ele><time>2026-03-02T07:47:06.000Z</time></trkpt>
<trkpt lat="42.172462" lon="23.372828"><ele>2428.9</ele><time>2026-03-02T07:47:07.000Z</time></trkpt>
<trkpt lat="42.172461" lon="23.37283"><ele>2428.9</ele><time>2026-03-02T07:47:08.000Z</time></trkpt>
<trkpt lat="42.172459" lon="23.372831"><ele>2428.9</ele><time>2026-03-02T07:47:09.000Z</time></trkpt>
<trkpt lat="42.172457" lon="23.372832"><ele>2428.9</ele><time>2026-03-02T07:47:10.000Z</time></trkpt>
<trkpt lat="42.172456" lon="23.372831"><ele>2428.9</ele><time>2026-03-02T07:47:11.000Z</time></trkpt>
<trkpt lat="42.172455" lon="23.37283"><ele>2428.9</ele><time>2026-03-02T07:47:12.000Z</time></trkpt>
<trkpt lat="42.172454" lon="23.372829"><ele>2428.9</ele><time>2026-03-02T07:47:13.000Z</time></trkpt>
<trkpt lat="42.172454" lon="23.372827"><ele>2428.9</ele><time>2026-03-02T07:47:14.000Z</time></trkpt>
<trkpt lat="42.172453" lon="23.372826"><ele>2429.1</ele><time>2026-03-02T07:47:15.000Z</time></trkpt>
<trkpt lat="42.172453" lon="23.372825"><ele>2429.1</ele><time>2026-03-02T07:47:16.000Z</time></trkpt>
<trkpt lat="42.172452" lon="23.372825"><ele>2429.1</ele><time>2026-03-02T07:47:17.000Z</time></trkpt>
<trkpt lat="42.172452" lon="23.372825"><ele>2429.1</ele><time>2026-03-02T07:47:18.000Z</time></trkpt>
<trkpt lat="42.172452" lon="23.372825"><ele>2429.1</ele><time>2026-03-02T07:47:19.000Z</time></trkpt>
<trkpt lat="42.172453" lon="23.372825"><ele>2429.4</ele><time>2026-03-02T07:47:20.000Z</time></trkpt>
<trkpt lat="42.172454" lon="23.372825"><ele>2429.4</ele><time>2026-03-02T07:47:21.000Z</time></trkpt>
<trkpt lat="42.172455" lon="23.372825"><ele>2429.4</ele><time>2026-03-02T07:47:22.000Z</time></trkpt>
<trkpt lat="42.172456" lon="23.372825"><ele>2429.4</ele><time>2026-03-02T07:47:23.000Z</time></trkpt>
<trkpt lat="42.172457" lon="23.372824"><ele>2429.4</ele><time>2026-03-02T07:47:24.000Z</time></trkpt>
<trkpt lat="42.172458" lon="23.372824"><ele>2429.4</ele><time>2026-03-02T07:47:25.000Z</time></trkpt>
<trkpt lat="42.172459" lon="23.372823"><ele>2429.4</ele><time>2026-03-02T07:47:26.000Z</time></trkpt>
<trkpt lat="42.172461" lon="23.372823"><ele>2429.4</ele><time>2026-03-02T07:47:27.000Z</time></trkpt>
<trkpt lat="42.172461" lon="23.372824"><ele>2429.4</ele><time>2026-03-02T07:47:28.000Z</time></trkpt>
<trkpt lat="42.172462" lon="23.372825"><ele>2429.4</ele><time>2026-03-02T07:47:29.000Z</time></trkpt>
<trkpt lat="42.172462" lon="23.372825"><ele>2429.4</ele><time>2026-03-02T07:47:30.000Z</time></trkpt>
<trkpt lat="42.172463" lon="23.372825"><ele>2429.4</ele><time>2026-03-02T07:47:31.000Z</time></trkpt>
<trkpt lat="42.172463" lon="23.372825"><ele>2429.4</ele><time>2026-03-02T07:47:32.000Z</time></trkpt>
<trkpt lat="42.172465" lon="23.372824"><ele>2429.4</ele><time>2026-03-02T07:47:33.000Z</time></trkpt>
<trkpt lat="42.172466" lon="23.372824"><ele>2429.4</ele><time>2026-03-02T07:47:34.000Z</time></trkpt>
<trkpt lat="42.172467" lon="23.372824"><ele>2429.3</ele><time>2026-03-02T07:47:35.000Z</time></trkpt>
<trkpt lat="42.172469" lon="23.372825"><ele>2429.3</ele><time>2026-03-02T07:47:36.000Z</time></trkpt>
<trkpt lat="42.172469" lon="23.372826"><ele>2429.3</ele><time>2026-03-02T07:47:37.000Z</time></trkpt>
<trkpt lat="42.17247" lon="23.372826"><ele>2429.3</ele><time>2026-03-02T07:47:38.000Z</time></trkpt>
<trkpt lat="42.17247" lon="23.372826"><ele>2429.3</ele><time>2026-03-02T07:47:39.000Z</time></trkpt>
<trkpt lat="42.17247" lon="23.372826"><ele>2429.3</ele><time>2026-03-02T07:47:40.000Z</time></trkpt>
<trkpt lat="42.172471" lon="23.372826"><ele>2429.3</ele><time>2026-03-02T07:47:41.000Z</time></trkpt>
<trkpt lat="42.172472" lon="23.372827"><ele>2429.3</ele><time>2026-03-02T07:47:42.000Z</time></trkpt>
<trkpt lat="42.172472" lon="23.372827"><ele>2429.3</ele><time>2026-03-02T07:47:43.000Z</time></trkpt>
<trkpt lat="42.172473" lon="23.372828"><ele>2429.3</ele><time>2026-03-02T07:47:44.000Z</time></trkpt>
<trkpt lat="42.172473" lon="23.372828"><ele>2429.4</ele><time>2026-03-02T07:47:45.000Z</time></trkpt>
<trkpt lat="42.172474" lon="23.372829"><ele>2429.4</ele><time>2026-03-02T07:47:46.000Z</time></trkpt>
<trkpt lat="42.172474" lon="23.372829"><ele>2429.4</ele><time>2026-03-02T07:47:47.000Z</time></trkpt>
<trkpt lat="42.172475" lon="23.372829"><ele>2429.4</ele><time>2026-03-02T07:47:48.000Z</time></trkpt>
<trkpt lat="42.172475" lon="23.372829"><ele>2429.4</ele><time>2026-03-02T07:47:49.000Z</time></trkpt>
<trkpt lat="42.172475" lon="23.372828"><ele>2429.4</ele><time>2026-03-02T07:47:50.000Z</time></trkpt>
<trkpt lat="42.172475" lon="23.372828"><ele>2429.4</ele><time>2026-03-02T07:47:51.000Z</time></trkpt>
<trkpt lat="42.172475" lon="23.372828"><ele>2429.4</ele><time>2026-03-02T07:47:52.000Z</time></trkpt>
<trkpt lat="42.172475" lon="23.372828"><ele>2429.4</ele><time>2026-03-02T07:47:53.000Z</time></trkpt>
<trkpt lat="42.172474" lon="23.372829"><ele>2429.4</ele><time>2026-03-02T07:47:54.000Z</time></trkpt>
<trkpt lat="42.172471" lon="23.372829"><ele>2429.3</ele><time>2026-03-02T07:47:55.000Z</time></trkpt>
<trkpt lat="42.172468" lon="23.37283"><ele>2429.3</ele><time>2026-03-02T07:47:56.000Z</time></trkpt>
<trkpt lat="42.172463" lon="23.372831"><ele>2429.3</ele><time>2026-03-02T07:47:57.000Z</time></trkpt>
<trkpt lat="42.172457" lon="23.372831"><ele>2429.3</ele><time>2026-03-02T07:47:58.000Z</time></trkpt>
<trkpt lat="42.172452" lon="23.37283"><ele>2429.3</ele><time>2026-03-02T07:47:59.000Z</time></trkpt>
<trkpt lat="42.172449" lon="23.37283"><ele>2429.1</ele><time>2026-03-02T07:48:00.000Z</time></trkpt>
<trkpt lat="42.172444" lon="23.372829"><ele>2429.1</ele><time>2026-03-02T07:48:01.000Z</time></trkpt>
<trkpt lat="42.17244" lon="23.372827"><ele>2429.1</ele><time>2026-03-02T07:48:02.000Z</time></trkpt>
<trkpt lat="42.172436" lon="23.372826"><ele>2429.1</ele><time>2026-03-02T07:48:03.000Z</time></trkpt>
<trkpt lat="42.172433" lon="23.372823"><ele>2429.1</ele><time>2026-03-02T07:48:04.000Z</time></trkpt>
<trkpt lat="42.172429" lon="23.372819"><ele>2429.2</ele><time>2026-03-02T07:48:05.000Z</time></trkpt>
<trkpt lat="42.172426" lon="23.372816"><ele>2429.2</ele><time>2026-03-02T07:48:06.000Z</time></trkpt>
<trkpt lat="42.172425" lon="23.372813"><ele>2429.2</ele><time>2026-03-02T07:48:07.000Z</time></trkpt>
<trkpt lat="42.172423" lon="23.372807"><ele>2429.2</ele><time>2026-03-02T07:48:08.000Z</time></trkpt>
<trkpt lat="42.172421" lon="23.372802"><ele>2429.2</ele><time>2026-03-02T07:48:09.000Z</time></trkpt>
<trkpt lat="42.17242" lon="23.372796"><ele>2429.5</ele><time>2026-03-02T07:48:10.000Z</time></trkpt>
<trkpt lat="42.172417" lon="23.37279"><ele>2429.5</ele><time>2026-03-02T07:48:11.000Z</time></trkpt>
<trkpt lat="42.172415" lon="23.372784"><ele>2429.5</ele><time>2026-03-02T07:48:12.000Z</time></trkpt>
<trkpt lat="42.172414" lon="23.372781"><ele>2429.5</ele><time>2026-03-02T07:48:13.000Z</time></trkpt>
<trkpt lat="42.172412" lon="23.372776"><ele>2429.5</ele><time>2026-03-02T07:48:14.000Z</time></trkpt>
<trkpt lat="42.172412" lon="23.372773"><ele>2430.6</ele><time>2026-03-02T07:48:15.000Z</time></trkpt>
<trkpt lat="42.172413" lon="23.372769"><ele>2430.6</ele><time>2026-03-02T07:48:16.000Z</time></trkpt>
<trkpt lat="42.172414" lon="23.372765"><ele>2430.6</ele><time>2026-03-02T07:48:17.000Z</time></trkpt>
<trkpt lat="42.172416" lon="23.372759"><ele>2430.6</ele><time>2026-03-02T07:48:18.000Z</time></trkpt>
<trkpt lat="42.172417" lon="23.372753"><ele>2430.6</ele><time>2026-03-02T07:48:19.000Z</time></trkpt>
<trkpt lat="42.172419" lon="23.372747"><ele>2432.1</ele><time>2026-03-02T07:48:20.000Z</time></trkpt>
<trkpt lat="42.172419" lon="23.37274"><ele>2432.1</ele><time>2026-03-02T07:48:21.000Z</time></trkpt>
<trkpt lat="42.172418" lon="23.372735"><ele>2432.1</ele><time>2026-03-02T07:48:22.000Z</time></trkpt>
<trkpt lat="42.172418" lon="23.37273"><ele>2432.1</ele><time>2026-03-02T07:48:23.000Z</time></trkpt>
<trkpt lat="42.172417" lon="23.372727"><ele>2432.1</ele><time>2026-03-02T07:48:24.000Z</time></trkpt>
<trkpt lat="42.172417" lon="23.372723"><ele>2432.8</ele><time>2026-03-02T07:48:25.000Z</time></trkpt>
<trkpt lat="42.172418" lon="23.372719"><ele>2432.8</ele><time>2026-03-02T07:48:26.000Z</time></trkpt>
<trkpt lat="42.172418" lon="23.372715"><ele>2432.8</ele><time>2026-03-02T07:48:27.000Z</time></trkpt>
<trkpt lat="42.172419" lon="23.372711"><ele>2432.8</ele><time>2026-03-02T07:48:28.000Z</time></trkpt>
<trkpt lat="42.172418" lon="23.372707"><ele>2432.8</ele><time>2026-03-02T07:48:29.000Z</time></trkpt>
<trkpt lat="42.172418" lon="23.372704"><ele>2434.1</ele><time>2026-03-02T07:48:30.000Z</time></trkpt>
<trkpt lat="42.172418" lon="23.372701"><ele>2434.1</ele><time>2026-03-02T07:48:31.000Z</time></trkpt>
<trkpt lat="42.172417" lon="23.372698"><ele>2434.1</ele><time>2026-03-02T07:48:32.000Z</time></trkpt>
<trkpt lat="42.172416" lon="23.372694"><ele>2434.1</ele><time>2026-03-02T07:48:33.000Z</time></trkpt>
<trkpt lat="42.172417" lon="23.372689"><ele>2434.1</ele><time>2026-03-02T07:48:34.000Z</time></trkpt>
<trkpt lat="42.172417" lon="23.372685"><ele>2435.1</ele><time>2026-03-02T07:48:35.000Z</time></trkpt>
<trkpt lat="42.172419" lon="23.372681"><ele>2435.1</ele><time>2026-03-02T07:48:36.000Z</time></trkpt>
<trkpt lat="42.17242" lon="23.372679"><ele>2435.1</ele><time>2026-03-02T07:48:37.000Z</time></trkpt>
<trkpt lat="42.172422" lon="23.372677"><ele>2435.1</ele><time>2026-03-02T07:48:38.000Z</time></trkpt>
<trkpt lat="42.172424" lon="23.372678"><ele>2435.1</ele><time>2026-03-02T07:48:39.000Z</time></trkpt>
<trkpt lat="42.172425" lon="23.372679"><ele>2435.5</ele><time>2026-03-02T07:48:40.000Z</time></trkpt>
<trkpt lat="42.172426" lon="23.372681"><ele>2435.5</ele><time>2026-03-02T07:48:41.000Z</time></trkpt>
<trkpt lat="42.172427" lon="23.37268"><ele>2435.5</ele><time>2026-03-02T07:48:42.000Z</time></trkpt>
<trkpt lat="42.172428" lon="23.372678"><ele>2435.5</ele><time>2026-03-02T07:48:43.000Z</time></trkpt>
<trkpt lat="42.172428" lon="23.372675"><ele>2435.5</ele><time>2026-03-02T07:48:44.000Z</time></trkpt>
<trkpt lat="42.172429" lon="23.37267"><ele>2436.2</ele><time>2026-03-02T07:48:45.000Z</time></trkpt>
<trkpt lat="42.172429" lon="23.372665"><ele>2436.2</ele><time>2026-03-02T07:48:46.000Z</time></trkpt>
<trkpt lat="42.17243" lon="23.372659"><ele>2436.2</ele><time>2026-03-02T07:48:47.000Z</time></trkpt>
<trkpt lat="42.17243" lon="23.372654"><ele>2436.2</ele><time>2026-03-02T07:48:48.000Z</time></trkpt>
<trkpt lat="42.17243" lon="23.372649"><ele>2436.2</ele><time>2026-03-02T07:48:49.000Z</time></trkpt>
<trkpt lat="42.17243" lon="23.372643"><ele>2436.8</ele><time>2026-03-02T07:48:50.000Z</time></trkpt>
<trkpt lat="42.172432" lon="23.372637"><ele>2436.8</ele><time>2026-03-02T07:48:51.000Z</time></trkpt>
<trkpt lat="42.172433" lon="23.372633"><ele>2436.8</ele><time>2026-03-02T07:48:52.000Z</time></trkpt>
<trkpt lat="42.172434" lon="23.372629"><ele>2436.8</ele><time>2026-03-02T07:48:53.000Z</time></trkpt>
<trkpt lat="42.172435" lon="23.372628"><ele>2436.8</ele><time>2026-03-02T07:48:54.000Z</time></trkpt>
<trkpt lat="42.172436" lon="23.372627"><ele>2437.1</ele><time>2026-03-02T07:48:55.000Z</time></trkpt>
<trkpt lat="42.172435" lon="23.372628"><ele>2437.1</ele><time>2026-03-02T07:48:56.000Z</time></trkpt>
<trkpt lat="42.172436" lon="23.37263"><ele>2437.1</ele><time>2026-03-02T07:48:57.000Z</time></trkpt>
<trkpt lat="42.172436" lon="23.372631"><ele>2437.1</ele><time>2026-03-02T07:48:58.000Z</time></trkpt>
<trkpt lat="42.172436" lon="23.372633"><ele>2437.1</ele><time>2026-03-02T07:48:59.000Z</time></trkpt>
<trkpt lat="42.172436" lon="23.372634"><ele>2437.9</ele><time>2026-03-02T07:49:00.000Z</time></trkpt>
<trkpt lat="42.172436" lon="23.372634"><ele>2437.9</ele><time>2026-03-02T07:49:01.000Z</time></trkpt>
<trkpt lat="42.172435" lon="23.372634"><ele>2437.9</ele><time>2026-03-02T07:49:02.000Z</time></trkpt>
<trkpt lat="42.172434" lon="23.372633"><ele>2437.9</ele><time>2026-03-02T07:49:03.000Z</time></trkpt>
<trkpt lat="42.172433" lon="23.372633"><ele>2437.9</ele><time>2026-03-02T07:49:04.000Z</time></trkpt>
<trkpt lat="42.172433" lon="23.372632"><ele>2438.6</ele><time>2026-03-02T07:49:05.000Z</time></trkpt>
<trkpt lat="42.172433" lon="23.372632"><ele>2438.6</ele><time>2026-03-02T07:49:06.000Z</time></trkpt>
<trkpt lat="42.172433" lon="23.372632"><ele>2438.6</ele><time>2026-03-02T07:49:07.000Z</time></trkpt>
<trkpt lat="42.172433" lon="23.372632"><ele>2438.6</ele><time>2026-03-02T07:49:08.000Z</time></trkpt>
<trkpt lat="42.172433" lon="23.372632"><ele>2438.6</ele><time>2026-03-02T07:49:09.000Z</time></trkpt>
<trkpt lat="42.172433" lon="23.372632"><ele>2438.7</ele><time>2026-03-02T07:49:10.000Z</time></trkpt>
<trkpt lat="42.172434" lon="23.372632"><ele>2438.7</ele><time>2026-03-02T07:49:11.000Z</time></trkpt>
<trkpt lat="42.172434" lon="23.372632"><ele>2438.7</ele><time>2026-03-02T07:49:12.000Z</time></trkpt>
<trkpt lat="42.172434" lon="23.372633"><ele>2438.7</ele><time>2026-03-02T07:49:13.000Z</time></trkpt>
<trkpt lat="42.172434" lon="23.372634"><ele>2438.7</ele><time>2026-03-02T07:49:14.000Z</time></trkpt>
<trkpt lat="42.172433" lon="23.372637"><ele>2438.7</ele><time>2026-03-02T07:49:15.000Z</time></trkpt>
<trkpt lat="42.172431" lon="23.372641"><ele>2438.7</ele><time>2026-03-02T07:49:16.000Z</time></trkpt>
<trkpt lat="42.172429" lon="23.372644"><ele>2438.7</ele><time>2026-03-02T07:49:17.000Z</time></trkpt>
<trkpt lat="42.172426" lon="23.372646"><ele>2438.7</ele><time>2026-03-02T07:49:18.000Z</time></trkpt>
<trkpt lat="42.172424" lon="23.372648"><ele>2438.7</ele><time>2026-03-02T07:49:19.000Z</time></trkpt>
<trkpt lat="42.172423" lon="23.372648"><ele>2438.5</ele><time>2026-03-02T07:49:20.000Z</time></trkpt>
<trkpt lat="42.172422" lon="23.372647"><ele>2438.5</ele><time>2026-03-02T07:49:21.000Z</time></trkpt>
<trkpt lat="42.172421" lon="23.372646"><ele>2438.5</ele><time>2026-03-02T07:49:22.000Z</time></trkpt>
<trkpt lat="42.172422" lon="23.372645"><ele>2438.5</ele><time>2026-03-02T07:49:23.000Z</time></trkpt>
<trkpt lat="42.172421" lon="23.372644"><ele>2438.5</ele><time>2026-03-02T07:49:24.000Z</time></trkpt>
<trkpt lat="42.172422" lon="23.372642"><ele>2438.3</ele><time>2026-03-02T07:49:25.000Z</time></trkpt>
<trkpt lat="42.172421" lon="23.372641"><ele>2438.3</ele><time>2026-03-02T07:49:26.000Z</time></trkpt>
<trkpt lat="42.172421" lon="23.37264"><ele>2438.3</ele><time>2026-03-02T07:49:27.000Z</time></trkpt>
<trkpt lat="42.172421" lon="23.37264"><ele>2438.3</ele><time>2026-03-02T07:49:28.000Z</time></trkpt>
<trkpt lat="42.172421" lon="23.37264"><ele>2438.3</ele><time>2026-03-02T07:49:29.000Z</time></trkpt>
<trkpt lat="42.172421" lon="23.372641"><ele>2438.1</ele><time>2026-03-02T07:49:30.000Z</time></trkpt>
<trkpt lat="42.172421" lon="23.372642"><ele>2438.1</ele><time>2026-03-02T07:49:31.000Z</time></trkpt>
<trkpt lat="42.172421" lon="23.372643"><ele>2438.1</ele><time>2026-03-02T07:49:32.000Z</time></trkpt>
<trkpt lat="42.172421" lon="23.372645"><ele>2438.1</ele><time>2026-03-02T07:49:33.000Z</time></trkpt>
<trkpt lat="42.172421" lon="23.372645"><ele>2438.1</ele><time>2026-03-02T07:49:34.000Z</time></trkpt>
<trkpt lat="42.172421" lon="23.372646"><ele>2438.1</ele><time>2026-03-02T07:49:35.000Z</time></trkpt>
<trkpt lat="42.172421" lon="23.372646"><ele>2438.1</ele><time>2026-03-02T07:49:36.000Z</time></trkpt>
<trkpt lat="42.172421" lon="23.372646"><ele>2438.1</ele><time>2026-03-02T07:49:37.000Z</time></trkpt>
<trkpt lat="42.172422" lon="23.372647"><ele>2438.1</ele><time>2026-03-02T07:49:38.000Z</time></trkpt>
<trkpt lat="42.172422" lon="23.372647"><ele>2438.1</ele><time>2026-03-02T07:49:39.000Z</time></trkpt>
<trkpt lat="42.172422" lon="23.372647"><ele>2438.2</ele><time>2026-03-02T07:49:40.000Z</time></trkpt>
<trkpt lat="42.172423" lon="23.372647"><ele>2438.2</ele><time>2026-03-02T07:49:41.000Z</time></trkpt>
<trkpt lat="42.172424" lon="23.372647"><ele>2438.2</ele><time>2026-03-02T07:49:42.000Z</time></trkpt>
<trkpt lat="42.172425" lon="23.372646"><ele>2438.2</ele><time>2026-03-02T07:49:43.000Z</time></trkpt>
<trkpt lat="42.172426" lon="23.372646"><ele>2438.2</ele><time>2026-03-02T07:49:44.000Z</time></trkpt>
<trkpt lat="42.172426" lon="23.372646"><ele>2438.3</ele><time>2026-03-02T07:49:45.000Z</time></trkpt>
<trkpt lat="42.172426" lon="23.372646"><ele>2438.3</ele><time>2026-03-02T07:49:46.000Z</time></trkpt>
<trkpt lat="42.172426" lon="23.372646"><ele>2438.3</ele><time>2026-03-02T07:49:47.000Z</time></trkpt>
<trkpt lat="42.172426" lon="23.372646"><ele>2438.3</ele><time>2026-03-02T07:49:48.000Z</time></trkpt>
<trkpt lat="42.172426" lon="23.372646"><ele>2438.3</ele><time>2026-03-02T07:49:49.000Z</time></trkpt>
<trkpt lat="42.172427" lon="23.372646"><ele>2438.4</ele><time>2026-03-02T07:49:50.000Z</time></trkpt>
<trkpt lat="42.172428" lon="23.372646"><ele>2438.4</ele><time>2026-03-02T07:49:51.000Z</time></trkpt>
<trkpt lat="42.172428" lon="23.372646"><ele>2438.4</ele><time>2026-03-02T07:49:52.000Z</time></trkpt>
<trkpt lat="42.172429" lon="23.372646"><ele>2438.4</ele><time>2026-03-02T07:49:53.000Z</time></trkpt>
<trkpt lat="42.172429" lon="23.372646"><ele>2438.4</ele><time>2026-03-02T07:49:54.000Z</time></trkpt>
<trkpt lat="42.172428" lon="23.372645"><ele>2438.5</ele><time>2026-03-02T07:49:55.000Z</time></trkpt>
<trkpt lat="42.172428" lon="23.372645"><ele>2438.5</ele><time>2026-03-02T07:49:56.000Z</time></trkpt>
<trkpt lat="42.172427" lon="23.372645"><ele>2438.5</ele><time>2026-03-02T07:49:57.000Z</time></trkpt>
<trkpt lat="42.172426" lon="23.372645"><ele>2438.5</ele><time>2026-03-02T07:49:58.000Z</time></trkpt>
<trkpt lat="42.172426" lon="23.372646"><ele>2438.5</ele><time>2026-03-02T07:49:59.000Z</time></trkpt>
<trkpt lat="42.172427" lon="23.372646"><ele>2438.6</ele><time>2026-03-02T07:50:00.000Z</time></trkpt>
<trkpt lat="42.172427" lon="23.372647"><ele>2438.6</ele><time>2026-03-02T07:50:01.000Z</time></trkpt>
<trkpt lat="42.172427" lon="23.372648"><ele>2438.6</ele><time>2026-03-02T07:50:02.000Z</time></trkpt>
<trkpt lat="42.172427" lon="23.372648"><ele>2438.6</ele><time>2026-03-02T07:50:03.000Z</time></trkpt>
<trkpt lat="42.172427" lon="23.372649"><ele>2438.6</ele><time>2026-03-02T07:50:04.000Z</time></trkpt>
<trkpt lat="42.172427" lon="23.372648"><ele>2438.6</ele><time>2026-03-02T07:50:05.000Z</time></trkpt>
<trkpt lat="42.172428" lon="23.372647"><ele>2438.6</ele><time>2026-03-02T07:50:06.000Z</time></trkpt>
<trkpt lat="42.172428" lon="23.372646"><ele>2438.6</ele><time>2026-03-02T07:50:07.000Z</time></trkpt>
<trkpt lat="42.172429" lon="23.372644"><ele>2438.6</ele><time>2026-03-02T07:50:08.000Z</time></trkpt>
<trkpt lat="42.17243" lon="23.372643"><ele>2438.6</ele><time>2026-03-02T07:50:09.000Z</time></trkpt>
<trkpt lat="42.17243" lon="23.372641"><ele>2438.6</ele><time>2026-03-02T07:50:10.000Z</time></trkpt>
<trkpt lat="42.17243" lon="23.37264"><ele>2438.6</ele><time>2026-03-02T07:50:11.000Z</time></trkpt>
<trkpt lat="42.172431" lon="23.372639"><ele>2438.6</ele><time>2026-03-02T07:50:12.000Z</time></trkpt>
<trkpt lat="42.172431" lon="23.372638"><ele>2438.6</ele><time>2026-03-02T07:50:13.000Z</time></trkpt>
<trkpt lat="42.172432" lon="23.372637"><ele>2438.6</ele><time>2026-03-02T07:50:14.000Z</time></trkpt>
<trkpt lat="42.172433" lon="23.372637"><ele>2438.6</ele><time>2026-03-02T07:50:15.000Z</time></trkpt>
<trkpt lat="42.172433" lon="23.372637"><ele>2438.6</ele><time>2026-03-02T07:50:16.000Z</time></trkpt>
<trkpt lat="42.172433" lon="23.372637"><ele>2438.6</ele><time>2026-03-02T07:50:17.000Z</time></trkpt>
<trkpt lat="42.172433" lon="23.372637"><ele>2438.6</ele><time>2026-03-02T07:50:18.000Z</time></trkpt>
<trkpt lat="42.172433" lon="23.372637"><ele>2438.6</ele><time>2026-03-02T07:50:19.000Z</time></trkpt>
<trkpt lat="42.172433" lon="23.372637"><ele>2438.5</ele><time>2026-03-02T07:50:20.000Z</time></trkpt>
<trkpt lat="42.172433" lon="23.372637"><ele>2438.5</ele><time>2026-03-02T07:50:21.000Z</time></trkpt>
<trkpt lat="42.172434" lon="23.372638"><ele>2438.5</ele><time>2026-03-02T07:50:22.000Z</time></trkpt>
<trkpt lat="42.172435" lon="23.372638"><ele>2438.5</ele><time>2026-03-02T07:50:23.000Z</time></trkpt>
<trkpt lat="42.172434" lon="23.372638"><ele>2438.5</ele><time>2026-03-02T07:50:24.000Z</time></trkpt>
<trkpt lat="42.172433" lon="23.372637"><ele>2438.4</ele><time>2026-03-02T07:50:25.000Z</time></trkpt>
<trkpt lat="42.172431" lon="23.372636"><ele>2438.4</ele><time>2026-03-02T07:50:26.000Z</time></trkpt>
<trkpt lat="42.172429" lon="23.372634"><ele>2438.4</ele><time>2026-03-02T07:50:27.000Z</time></trkpt>
<trkpt lat="42.172425" lon="23.372632"><ele>2438.4</ele><time>2026-03-02T07:50:28.000Z</time></trkpt>
<trkpt lat="42.172422" lon="23.37263"><ele>2438.4</ele><time>2026-03-02T07:50:29.000Z</time></trkpt>
<trkpt lat="42.17242" lon="23.372628"><ele>2438.2</ele><time>2026-03-02T07:50:30.000Z</time></trkpt>
<trkpt lat="42.172417" lon="23.372626"><ele>2438.2</ele><time>2026-03-02T07:50:31.000Z</time></trkpt>
<trkpt lat="42.172414" lon="23.372624"><ele>2438.2</ele><time>2026-03-02T07:50:32.000Z</time></trkpt>
<trkpt lat="42.172411" lon="23.372622"><ele>2438.2</ele><time>2026-03-02T07:50:33.000Z</time></trkpt>
<trkpt lat="42.172409" lon="23.372621"><ele>2438.2</ele><time>2026-03-02T07:50:34.000Z</time></trkpt>
<trkpt lat="42.172407" lon="23.372621"><ele>2438.1</ele><time>2026-03-02T07:50:35.000Z</time></trkpt>
<trkpt lat="42.172404" lon="23.37262"><ele>2438.1</ele><time>2026-03-02T07:50:36.000Z</time></trkpt>
<trkpt lat="42.172402" lon="23.37262"><ele>2438.1</ele><time>2026-03-02T07:50:37.000Z</time></trkpt>
<trkpt lat="42.1724" lon="23.372618"><ele>2438.1</ele><time>2026-03-02T07:50:38.000Z</time></trkpt>
<trkpt lat="42.172397" lon="23.372616"><ele>2438.1</ele><time>2026-03-02T07:50:39.000Z</time></trkpt>
<trkpt lat="42.172394" lon="23.372613"><ele>2438.1</ele><time>2026-03-02T07:50:40.000Z</time></trkpt>
<trkpt lat="42.172393" lon="23.372611"><ele>2438.1</ele><time>2026-03-02T07:50:41.000Z</time></trkpt>
<trkpt lat="42.172391" lon="23.37261"><ele>2438.1</ele><time>2026-03-02T07:50:42.000Z</time></trkpt>
<trkpt lat="42.17239" lon="23.37261"><ele>2438.1</ele><time>2026-03-02T07:50:43.000Z</time></trkpt>
<trkpt lat="42.17239" lon="23.372612"><ele>2438.1</ele><time>2026-03-02T07:50:44.000Z</time></trkpt>
<trkpt lat="42.17239" lon="23.372613"><ele>2438.2</ele><time>2026-03-02T07:50:45.000Z</time></trkpt>
<trkpt lat="42.172389" lon="23.372614"><ele>2438.2</ele><time>2026-03-02T07:50:46.000Z</time></trkpt>
<trkpt lat="42.17239" lon="23.372616"><ele>2438.2</ele><time>2026-03-02T07:50:47.000Z</time></trkpt>
<trkpt lat="42.172393" lon="23.372618"><ele>2438.2</ele><time>2026-03-02T07:50:48.000Z</time></trkpt>
<trkpt lat="42.172398" lon="23.372619"><ele>2438.2</ele><time>2026-03-02T07:50:49.000Z</time></trkpt>
<trkpt lat="42.172403" lon="23.372621"><ele>2438.4</ele><time>2026-03-02T07:50:50.000Z</time></trkpt>
<trkpt lat="42.17241" lon="23.372623"><ele>2438.4</ele><time>2026-03-02T07:50:51.000Z</time></trkpt>
<trkpt lat="42.172415" lon="23.372623"><ele>2438.4</ele><time>2026-03-02T07:50:52.000Z</time></trkpt>
<trkpt lat="42.172418" lon="23.372621"><ele>2438.4</ele><time>2026-03-02T07:50:53.000Z</time></trkpt>
<trkpt lat="42.17242" lon="23.372618"><ele>2438.4</ele><time>2026-03-02T07:50:54.000Z</time></trkpt>
<trkpt lat="42.172422" lon="23.372614"><ele>2438.5</ele><time>2026-03-02T07:50:55.000Z</time></trkpt>
<trkpt lat="42.172422" lon="23.37261"><ele>2438.5</ele><time>2026-03-02T07:50:56.000Z</time></trkpt>
<trkpt lat="42.172422" lon="23.372608"><ele>2438.5</ele><time>2026-03-02T07:50:57.000Z</time></trkpt>
<trkpt lat="42.172423" lon="23.372607"><ele>2438.5</ele><time>2026-03-02T07:50:58.000Z</time></trkpt>
<trkpt lat="42.172425" lon="23.372607"><ele>2438.5</ele><time>2026-03-02T07:50:59.000Z</time></trkpt>
<trkpt lat="42.172425" lon="23.372607"><ele>2438.6</ele><time>2026-03-02T07:51:00.000Z</time></trkpt>
<trkpt lat="42.172426" lon="23.372607"><ele>2438.6</ele><time>2026-03-02T07:51:01.000Z</time></trkpt>
<trkpt lat="42.172427" lon="23.372608"><ele>2438.6</ele><time>2026-03-02T07:51:02.000Z</time></trkpt>
<trkpt lat="42.172427" lon="23.372608"><ele>2438.6</ele><time>2026-03-02T07:51:03.000Z</time></trkpt>
<trkpt lat="42.172428" lon="23.372608"><ele>2438.6</ele><time>2026-03-02T07:51:04.000Z</time></trkpt>
<trkpt lat="42.17243" lon="23.372608"><ele>2438.6</ele><time>2026-03-02T07:51:05.000Z</time></trkpt>
<trkpt lat="42.172431" lon="23.372608"><ele>2438.6</ele><time>2026-03-02T07:51:06.000Z</time></trkpt>
<trkpt lat="42.172433" lon="23.372608"><ele>2438.6</ele><time>2026-03-02T07:51:07.000Z</time></trkpt>
<trkpt lat="42.172433" lon="23.372607"><ele>2438.6</ele><time>2026-03-02T07:51:08.000Z</time></trkpt>
<trkpt lat="42.172434" lon="23.372607"><ele>2438.6</ele><time>2026-03-02T07:51:09.000Z</time></trkpt>
<trkpt lat="42.172434" lon="23.372605"><ele>2438.6</ele><time>2026-03-02T07:51:10.000Z</time></trkpt>
<trkpt lat="42.172436" lon="23.372601"><ele>2438.6</ele><time>2026-03-02T07:51:11.000Z</time></trkpt>
<trkpt lat="42.172438" lon="23.372594"><ele>2438.6</ele><time>2026-03-02T07:51:12.000Z</time></trkpt>
<trkpt lat="42.17244" lon="23.372584"><ele>2438.6</ele><time>2026-03-02T07:51:13.000Z</time></trkpt>
<trkpt lat="42.172443" lon="23.372571"><ele>2438.6</ele><time>2026-03-02T07:51:14.000Z</time></trkpt>
<trkpt lat="42.172445" lon="23.37256"><ele>2438.7</ele><time>2026-03-02T07:51:15.000Z</time></trkpt>
<trkpt lat="42.172446" lon="23.372547"><ele>2438.7</ele><time>2026-03-02T07:51:16.000Z</time></trkpt>
<trkpt lat="42.172447" lon="23.372536"><ele>2438.7</ele><time>2026-03-02T07:51:17.000Z</time></trkpt>
<trkpt lat="42.172449" lon="23.372526"><ele>2438.7</ele><time>2026-03-02T07:51:18.000Z</time></trkpt>
<trkpt lat="42.172452" lon="23.372517"><ele>2438.7</ele><time>2026-03-02T07:51:19.000Z</time></trkpt>
<trkpt lat="42.172456" lon="23.372507"><ele>2438.8</ele><time>2026-03-02T07:51:20.000Z</time></trkpt>
<trkpt lat="42.172461" lon="23.372499"><ele>2438.8</ele><time>2026-03-02T07:51:21.000Z</time></trkpt>
<trkpt lat="42.172465" lon="23.372491"><ele>2438.8</ele><time>2026-03-02T07:51:22.000Z</time></trkpt>
<trkpt lat="42.172468" lon="23.372483"><ele>2438.8</ele><time>2026-03-02T07:51:23.000Z</time></trkpt>
<trkpt lat="42.17247" lon="23.372474"><ele>2438.8</ele><time>2026-03-02T07:51:24.000Z</time></trkpt>
<trkpt lat="42.172472" lon="23.372466"><ele>2439.1</ele><time>2026-03-02T07:51:25.000Z</time></trkpt>
<trkpt lat="42.172474" lon="23.372456"><ele>2439.1</ele><time>2026-03-02T07:51:26.000Z</time></trkpt>
<trkpt lat="42.172477" lon="23.372448"><ele>2439.1</ele><time>2026-03-02T07:51:27.000Z</time></trkpt>
<trkpt lat="42.172479" lon="23.372439"><ele>2439.1</ele><time>2026-03-02T07:51:28.000Z</time></trkpt>
<trkpt lat="42.172482" lon="23.372431"><ele>2439.1</ele><time>2026-03-02T07:51:29.000Z</time></trkpt>
<trkpt lat="42.172485" lon="23.372423"><ele>2439.9</ele><time>2026-03-02T07:51:30.000Z</time></trkpt>
<trkpt lat="42.172488" lon="23.372416"><ele>2439.9</ele><time>2026-03-02T07:51:31.000Z</time></trkpt>
<trkpt lat="42.172491" lon="23.372408"><ele>2439.9</ele><time>2026-03-02T07:51:32.000Z</time></trkpt>
<trkpt lat="42.172493" lon="23.372402"><ele>2439.9</ele><time>2026-03-02T07:51:33.000Z</time></trkpt>
<trkpt lat="42.172495" lon="23.372395"><ele>2439.9</ele><time>2026-03-02T07:51:34.000Z</time></trkpt>
<trkpt lat="42.172499" lon="23.372389"><ele>2441.3</ele><time>2026-03-02T07:51:35.000Z</time></trkpt>
<trkpt lat="42.172502" lon="23.372384"><ele>2441.3</ele><time>2026-03-02T07:51:36.000Z</time></trkpt>
<trkpt lat="42.172506" lon="23.372378"><ele>2441.3</ele><time>2026-03-02T07:51:37.000Z</time></trkpt>
<trkpt lat="42.17251" lon="23.37237"><ele>2441.3</ele><time>2026-03-02T07:51:38.000Z</time></trkpt>
<trkpt lat="42.172513" lon="23.372363"><ele>2441.3</ele><time>2026-03-02T07:51:39.000Z</time></trkpt>
<trkpt lat="42.172516" lon="23.372355"><ele>2442.1</ele><time>2026-03-02T07:51:40.000Z</time></trkpt>
<trkpt lat="42.172518" lon="23.372347"><ele>2442.1</ele><time>2026-03-02T07:51:41.000Z</time></trkpt>
<trkpt lat="42.172521" lon="23.37234"><ele>2442.1</ele><time>2026-03-02T07:51:42.000Z</time></trkpt>
<trkpt lat="42.172523" lon="23.372332"><ele>2442.1</ele><time>2026-03-02T07:51:43.000Z</time></trkpt>
<trkpt lat="42.172524" lon="23.372323"><ele>2442.1</ele><time>2026-03-02T07:51:44.000Z</time></trkpt>
<trkpt lat="42.172524" lon="23.372312"><ele>2443.6</ele><time>2026-03-02T07:51:45.000Z</time></trkpt>
<trkpt lat="42.172523" lon="23.372301"><ele>2443.6</ele><time>2026-03-02T07:51:46.000Z</time></trkpt>
<trkpt lat="42.172521" lon="23.37229"><ele>2443.6</ele><time>2026-03-02T07:51:47.000Z</time></trkpt>
<trkpt lat="42.17252" lon="23.372279"><ele>2443.6</ele><time>2026-03-02T07:51:48.000Z</time></trkpt>
<trkpt lat="42.17252" lon="23.372269"><ele>2443.6</ele><time>2026-03-02T07:51:49.000Z</time></trkpt>
<trkpt lat="42.172521" lon="23.372261"><ele>2445</ele><time>2026-03-02T07:51:50.000Z</time></trkpt>
<trkpt lat="42.172523" lon="23.372251"><ele>2445</ele><time>2026-03-02T07:51:51.000Z</time></trkpt>
<trkpt lat="42.172525" lon="23.372241"><ele>2445</ele><time>2026-03-02T07:51:52.000Z</time></trkpt>
<trkpt lat="42.172527" lon="23.37223"><ele>2445</ele><time>2026-03-02T07:51:53.000Z</time></trkpt>
<trkpt lat="42.17253" lon="23.37222"><ele>2445</ele><time>2026-03-02T07:51:54.000Z</time></trkpt>
<trkpt lat="42.17253" lon="23.37221"><ele>2445.5</ele><time>2026-03-02T07:51:55.000Z</time></trkpt>
<trkpt lat="42.172531" lon="23.372202"><ele>2445.5</ele><time>2026-03-02T07:51:56.000Z</time></trkpt>
<trkpt lat="42.172531" lon="23.372196"><ele>2445.5</ele><time>2026-03-02T07:51:57.000Z</time></trkpt>
<trkpt lat="42.172531" lon="23.372192"><ele>2445.5</ele><time>2026-03-02T07:51:58.000Z</time></trkpt>
<trkpt lat="42.17253" lon="23.372191"><ele>2445.5</ele><time>2026-03-02T07:51:59.000Z</time></trkpt>
<trkpt lat="42.17253" lon="23.372191"><ele>2446.1</ele><time>2026-03-02T07:52:00.000Z</time></trkpt>
<trkpt lat="42.17253" lon="23.372192"><ele>2446.1</ele><time>2026-03-02T07:52:01.000Z</time></trkpt>
<trkpt lat="42.172531" lon="23.372193"><ele>2446.1</ele><time>2026-03-02T07:52:02.000Z</time></trkpt>
<trkpt lat="42.172531" lon="23.372193"><ele>2446.1</ele><time>2026-03-02T07:52:03.000Z</time></trkpt>
<trkpt lat="42.172531" lon="23.372193"><ele>2446.1</ele><time>2026-03-02T07:52:04.000Z</time></trkpt>
<trkpt lat="42.172531" lon="23.372194"><ele>2446.6</ele><time>2026-03-02T07:52:05.000Z</time></trkpt>
<trkpt lat="42.172531" lon="23.372194"><ele>2446.6</ele><time>2026-03-02T07:52:06.000Z</time></trkpt>
<trkpt lat="42.172531" lon="23.372194"><ele>2446.6</ele><time>2026-03-02T07:52:07.000Z</time></trkpt>
<trkpt lat="42.172531" lon="23.372194"><ele>2446.6</ele><time>2026-03-02T07:52:08.000Z</time></trkpt>
<trkpt lat="42.172531" lon="23.372194"><ele>2446.6</ele><time>2026-03-02T07:52:09.000Z</time></trkpt>
<trkpt lat="42.172531" lon="23.372194"><ele>2446.8</ele><time>2026-03-02T07:52:10.000Z</time></trkpt>
<trkpt lat="42.172531" lon="23.372194"><ele>2446.8</ele><time>2026-03-02T07:52:11.000Z</time></trkpt>
<trkpt lat="42.172531" lon="23.372194"><ele>2446.8</ele><time>2026-03-02T07:52:12.000Z</time></trkpt>
<trkpt lat="42.172531" lon="23.372195"><ele>2446.8</ele><time>2026-03-02T07:52:13.000Z</time></trkpt>
<trkpt lat="42.172532" lon="23.372197"><ele>2446.8</ele><time>2026-03-02T07:52:14.000Z</time></trkpt>
<trkpt lat="42.172532" lon="23.372198"><ele>2447</ele><time>2026-03-02T07:52:15.000Z</time></trkpt>
<trkpt lat="42.172533" lon="23.3722"><ele>2447</ele><time>2026-03-02T07:52:16.000Z</time></trkpt>
<trkpt lat="42.172533" lon="23.372201"><ele>2447</ele><time>2026-03-02T07:52:17.000Z</time></trkpt>
<trkpt lat="42.172532" lon="23.372202"><ele>2447</ele><time>2026-03-02T07:52:18.000Z</time></trkpt>
<trkpt lat="42.172532" lon="23.372201"><ele>2447</ele><time>2026-03-02T07:52:19.000Z</time></trkpt>
<trkpt lat="42.172532" lon="23.372201"><ele>2447.1</ele><time>2026-03-02T07:52:20.000Z</time></trkpt>
<trkpt lat="42.172532" lon="23.372201"><ele>2447.1</ele><time>2026-03-02T07:52:21.000Z</time></trkpt>
<trkpt lat="42.172531" lon="23.3722"><ele>2447.1</ele><time>2026-03-02T07:52:22.000Z</time></trkpt>
<trkpt lat="42.172531" lon="23.3722"><ele>2447.1</ele><time>2026-03-02T07:52:23.000Z</time></trkpt>
<trkpt lat="42.172532" lon="23.3722"><ele>2447.1</ele><time>2026-03-02T07:52:24.000Z</time></trkpt>
<trkpt lat="42.172532" lon="23.3722"><ele>2447.2</ele><time>2026-03-02T07:52:25.000Z</time></trkpt>
<trkpt lat="42.172533" lon="23.3722"><ele>2447.2</ele><time>2026-03-02T07:52:26.000Z</time></trkpt>
<trkpt lat="42.172533" lon="23.3722"><ele>2447.2</ele><time>2026-03-02T07:52:27.000Z</time></trkpt>
<trkpt lat="42.172534" lon="23.3722"><ele>2447.2</ele><time>2026-03-02T07:52:28.000Z</time></trkpt>
<trkpt lat="42.172534" lon="23.372199"><ele>2447.2</ele><time>2026-03-02T07:52:29.000Z</time></trkpt>
<trkpt lat="42.172534" lon="23.372199"><ele>2447.2</ele><time>2026-03-02T07:52:30.000Z</time></trkpt>
<trkpt lat="42.172534" lon="23.3722"><ele>2447.2</ele><time>2026-03-02T07:52:31.000Z</time></trkpt>
<trkpt lat="42.172535" lon="23.3722"><ele>2447.2</ele><time>2026-03-02T07:52:32.000Z</time></trkpt>
<trkpt lat="42.172536" lon="23.372201"><ele>2447.2</ele><time>2026-03-02T07:52:33.000Z</time></trkpt>
<trkpt lat="42.172537" lon="23.372202"><ele>2447.2</ele><time>2026-03-02T07:52:34.000Z</time></trkpt>
<trkpt lat="42.172538" lon="23.372203"><ele>2447.1</ele><time>2026-03-02T07:52:35.000Z</time></trkpt>
<trkpt lat="42.172538" lon="23.372204"><ele>2447.1</ele><time>2026-03-02T07:52:36.000Z</time></trkpt>
<trkpt lat="42.172539" lon="23.372204"><ele>2447.1</ele><time>2026-03-02T07:52:37.000Z</time></trkpt>
<trkpt lat="42.172539" lon="23.372204"><ele>2447.1</ele><time>2026-03-02T07:52:38.000Z</time></trkpt>
<trkpt lat="42.172539" lon="23.372204"><ele>2447.1</ele><time>2026-03-02T07:52:39.000Z</time></trkpt>
<trkpt lat="42.172539" lon="23.372204"><ele>2447</ele><time>2026-03-02T07:52:40.000Z</time></trkpt>
<trkpt lat="42.172539" lon="23.372204"><ele>2447</ele><time>2026-03-02T07:52:41.000Z</time></trkpt>
<trkpt lat="42.172539" lon="23.372204"><ele>2447</ele><time>2026-03-02T07:52:42.000Z</time></trkpt>
<trkpt lat="42.172539" lon="23.372204"><ele>2447</ele><time>2026-03-02T07:52:43.000Z</time></trkpt>
<trkpt lat="42.172539" lon="23.372204"><ele>2447</ele><time>2026-03-02T07:52:44.000Z</time></trkpt>
<trkpt lat="42.172539" lon="23.372204"><ele>2446.9</ele><time>2026-03-02T07:52:45.000Z</time></trkpt>
<trkpt lat="42.172539" lon="23.372203"><ele>2446.9</ele><time>2026-03-02T07:52:46.000Z</time></trkpt>
<trkpt lat="42.172539" lon="23.372203"><ele>2446.9</ele><time>2026-03-02T07:52:47.000Z</time></trkpt>
<trkpt lat="42.172539" lon="23.372203"><ele>2446.9</ele><time>2026-03-02T07:52:48.000Z</time></trkpt>
<trkpt lat="42.172539" lon="23.372202"><ele>2446.9</ele><time>2026-03-02T07:52:49.000Z</time></trkpt>
<trkpt lat="42.172539" lon="23.372202"><ele>2446.8</ele><time>2026-03-02T07:52:50.000Z</time></trkpt>
<trkpt lat="42.17254" lon="23.372202"><ele>2446.8</ele><time>2026-03-02T07:52:51.000Z</time></trkpt>
<trkpt lat="42.17254" lon="23.372203"><ele>2446.8</ele><time>2026-03-02T07:52:52.000Z</time></trkpt>
<trkpt lat="42.172541" lon="23.372204"><ele>2446.8</ele><time>2026-03-02T07:52:53.000Z</time></trkpt>
<trkpt lat="42.172541" lon="23.372205"><ele>2446.8</ele><time>2026-03-02T07:52:54.000Z</time></trkpt>
<trkpt lat="42.172541" lon="23.372205"><ele>2446.8</ele><time>2026-03-02T07:52:55.000Z</time></trkpt>
<trkpt lat="42.172541" lon="23.372205"><ele>2446.8</ele><time>2026-03-02T07:52:56.000Z</time></trkpt>
<trkpt lat="42.172541" lon="23.372205"><ele>2446.8</ele><time>2026-03-02T07:52:57.000Z</time></trkpt>
<trkpt lat="42.17254" lon="23.372205"><ele>2446.8</ele><time>2026-03-02T07:52:58.000Z</time></trkpt>
<trkpt lat="42.17254" lon="23.372204"><ele>2446.8</ele><time>2026-03-02T07:52:59.000Z</time></trkpt>
<trkpt lat="42.172541" lon="23.372205"><ele>2446.8</ele><time>2026-03-02T07:53:00.000Z</time></trkpt>
<trkpt lat="42.172542" lon="23.372205"><ele>2446.8</ele><time>2026-03-02T07:53:01.000Z</time></trkpt>
<trkpt lat="42.172544" lon="23.372206"><ele>2446.8</ele><time>2026-03-02T07:53:02.000Z</time></trkpt>
<trkpt lat="42.172545" lon="23.372206"><ele>2446.8</ele><time>2026-03-02T07:53:03.000Z</time></trkpt>
<trkpt lat="42.172547" lon="23.372207"><ele>2446.8</ele><time>2026-03-02T07:53:04.000Z</time></trkpt>
<trkpt lat="42.172548" lon="23.372207"><ele>2446.9</ele><time>2026-03-02T07:53:05.000Z</time></trkpt>
<trkpt lat="42.17255" lon="23.372207"><ele>2446.9</ele><time>2026-03-02T07:53:06.000Z</time></trkpt>
<trkpt lat="42.17255" lon="23.372207"><ele>2446.9</ele><time>2026-03-02T07:53:07.000Z</time></trkpt>
<trkpt lat="42.172551" lon="23.372207"><ele>2446.9</ele><time>2026-03-02T07:53:08.000Z</time></trkpt>
<trkpt lat="42.172551" lon="23.372208"><ele>2446.9</ele><time>2026-03-02T07:53:09.000Z</time></trkpt>
<trkpt lat="42.172551" lon="23.372208"><ele>2446.9</ele><time>2026-03-02T07:53:10.000Z</time></trkpt>
<trkpt lat="42.172551" lon="23.372208"><ele>2446.9</ele><time>2026-03-02T07:53:11.000Z</time></trkpt>
<trkpt lat="42.172551" lon="23.372208"><ele>2446.9</ele><time>2026-03-02T07:53:12.000Z</time></trkpt>
<trkpt lat="42.172551" lon="23.372208"><ele>2446.9</ele><time>2026-03-02T07:53:13.000Z</time></trkpt>
<trkpt lat="42.172551" lon="23.372208"><ele>2446.9</ele><time>2026-03-02T07:53:14.000Z</time></trkpt>
<trkpt lat="42.172551" lon="23.372207"><ele>2446.7</ele><time>2026-03-02T07:53:15.000Z</time></trkpt>
<trkpt lat="42.172549" lon="23.372207"><ele>2446.7</ele><time>2026-03-02T07:53:16.000Z</time></trkpt>
<trkpt lat="42.172548" lon="23.372207"><ele>2446.7</ele><time>2026-03-02T07:53:17.000Z</time></trkpt>
<trkpt lat="42.172547" lon="23.372207"><ele>2446.7</ele><time>2026-03-02T07:53:18.000Z</time></trkpt>
<trkpt lat="42.172546" lon="23.372208"><ele>2446.7</ele><time>2026-03-02T07:53:19.000Z</time></trkpt>
<trkpt lat="42.172546" lon="23.372208"><ele>2446.5</ele><time>2026-03-02T07:53:20.000Z</time></trkpt>
<trkpt lat="42.172546" lon="23.372209"><ele>2446.5</ele><time>2026-03-02T07:53:21.000Z</time></trkpt>
<trkpt lat="42.172545" lon="23.372209"><ele>2446.5</ele><time>2026-03-02T07:53:22.000Z</time></trkpt>
<trkpt lat="42.172545" lon="23.372209"><ele>2446.5</ele><time>2026-03-02T07:53:23.000Z</time></trkpt>
<trkpt lat="42.172546" lon="23.372209"><ele>2446.5</ele><time>2026-03-02T07:53:24.000Z</time></trkpt>
<trkpt lat="42.172546" lon="23.372209"><ele>2446.5</ele><time>2026-03-02T07:53:25.000Z</time></trkpt>
<trkpt lat="42.172546" lon="23.372209"><ele>2446.5</ele><time>2026-03-02T07:53:26.000Z</time></trkpt>
<trkpt lat="42.172546" lon="23.372209"><ele>2446.5</ele><time>2026-03-02T07:53:27.000Z</time></trkpt>
<trkpt lat="42.172546" lon="23.372209"><ele>2446.5</ele><time>2026-03-02T07:53:28.000Z</time></trkpt>
<trkpt lat="42.172546" lon="23.372209"><ele>2446.5</ele><time>2026-03-02T07:53:29.000Z</time></trkpt>
<trkpt lat="42.172546" lon="23.372209"><ele>2446.6</ele><time>2026-03-02T07:53:30.000Z</time></trkpt>
<trkpt lat="42.172546" lon="23.372209"><ele>2446.6</ele><time>2026-03-02T07:53:31.000Z</time></trkpt>
<trkpt lat="42.172546" lon="23.372209"><ele>2446.6</ele><time>2026-03-02T07:53:32.000Z</time></trkpt>
<trkpt lat="42.172546" lon="23.372209"><ele>2446.6</ele><time>2026-03-02T07:53:33.000Z</time></trkpt>
<trkpt lat="42.172547" lon="23.372209"><ele>2446.6</ele><time>2026-03-02T07:53:34.000Z</time></trkpt>
<trkpt lat="42.172547" lon="23.372209"><ele>2446.7</ele><time>2026-03-02T07:53:35.000Z</time></trkpt>
<trkpt lat="42.172548" lon="23.37221"><ele>2446.7</ele><time>2026-03-02T07:53:36.000Z</time></trkpt>
<trkpt lat="42.172549" lon="23.37221"><ele>2446.7</ele><time>2026-03-02T07:53:37.000Z</time></trkpt>
<trkpt lat="42.172549" lon="23.372209"><ele>2446.7</ele><time>2026-03-02T07:53:38.000Z</time></trkpt>
<trkpt lat="42.17255" lon="23.372209"><ele>2446.7</ele><time>2026-03-02T07:53:39.000Z</time></trkpt>
<trkpt lat="42.17255" lon="23.372208"><ele>2446.7</ele><time>2026-03-02T07:53:40.000Z</time></trkpt>
<trkpt lat="42.172551" lon="23.372207"><ele>2446.7</ele><time>2026-03-02T07:53:41.000Z</time></trkpt>
<trkpt lat="42.172551" lon="23.372206"><ele>2446.7</ele><time>2026-03-02T07:53:42.000Z</time></trkpt>
<trkpt lat="42.172552" lon="23.372206"><ele>2446.7</ele><time>2026-03-02T07:53:43.000Z</time></trkpt>
<trkpt lat="42.172552" lon="23.372206"><ele>2446.7</ele><time>2026-03-02T07:53:44.000Z</time></trkpt>
<trkpt lat="42.172551" lon="23.372205"><ele>2446.7</ele><time>2026-03-02T07:53:45.000Z</time></trkpt>
<trkpt lat="42.17255" lon="23.372204"><ele>2446.7</ele><time>2026-03-02T07:53:46.000Z</time></trkpt>
<trkpt lat="42.17255" lon="23.372202"><ele>2446.7</ele><time>2026-03-02T07:53:47.000Z</time></trkpt>
<trkpt lat="42.172548" lon="23.372198"><ele>2446.7</ele><time>2026-03-02T07:53:48.000Z</time></trkpt>
<trkpt lat="42.172548" lon="23.372193"><ele>2446.7</ele><time>2026-03-02T07:53:49.000Z</time></trkpt>
<trkpt lat="42.172549" lon="23.372186"><ele>2446.6</ele><time>2026-03-02T07:53:50.000Z</time></trkpt>
<trkpt lat="42.172549" lon="23.372177"><ele>2446.6</ele><time>2026-03-02T07:53:51.000Z</time></trkpt>
<trkpt lat="42.172551" lon="23.372168"><ele>2446.6</ele><time>2026-03-02T07:53:52.000Z</time></trkpt>
<trkpt lat="42.172554" lon="23.372159"><ele>2446.6</ele><time>2026-03-02T07:53:53.000Z</time></trkpt>
<trkpt lat="42.172556" lon="23.372148"><ele>2446.6</ele><time>2026-03-02T07:53:54.000Z</time></trkpt>
<trkpt lat="42.172558" lon="23.372138"><ele>2446.6</ele><time>2026-03-02T07:53:55.000Z</time></trkpt>
<trkpt lat="42.172559" lon="23.372127"><ele>2446.6</ele><time>2026-03-02T07:53:56.000Z</time></trkpt>
<trkpt lat="42.17256" lon="23.372115"><ele>2446.6</ele><time>2026-03-02T07:53:57.000Z</time></trkpt>
<trkpt lat="42.172561" lon="23.372103"><ele>2446.6</ele><time>2026-03-02T07:53:58.000Z</time></trkpt>
<trkpt lat="42.172563" lon="23.372092"><ele>2446.6</ele><time>2026-03-02T07:53:59.000Z</time></trkpt>
<trkpt lat="42.172565" lon="23.372081"><ele>2446.6</ele><time>2026-03-02T07:54:00.000Z</time></trkpt>
<trkpt lat="42.172567" lon="23.372071"><ele>2446.6</ele><time>2026-03-02T07:54:01.000Z</time></trkpt>
<trkpt lat="42.17257" lon="23.372062"><ele>2446.6</ele><time>2026-03-02T07:54:02.000Z</time></trkpt>
<trkpt lat="42.172572" lon="23.372052"><ele>2446.6</ele><time>2026-03-02T07:54:03.000Z</time></trkpt>
<trkpt lat="42.172573" lon="23.372042"><ele>2446.6</ele><time>2026-03-02T07:54:04.000Z</time></trkpt>
<trkpt lat="42.172573" lon="23.372033"><ele>2446.9</ele><time>2026-03-02T07:54:05.000Z</time></trkpt>
<trkpt lat="42.17257" lon="23.37202"><ele>2446.9</ele><time>2026-03-02T07:54:06.000Z</time></trkpt>
<trkpt lat="42.172567" lon="23.372008"><ele>2446.9</ele><time>2026-03-02T07:54:07.000Z</time></trkpt>
<trkpt lat="42.172565" lon="23.371995"><ele>2446.9</ele><time>2026-03-02T07:54:08.000Z</time></trkpt>
<trkpt lat="42.172563" lon="23.371982"><ele>2446.9</ele><time>2026-03-02T07:54:09.000Z</time></trkpt>
<trkpt lat="42.172561" lon="23.371969"><ele>2447.1</ele><time>2026-03-02T07:54:10.000Z</time></trkpt>
<trkpt lat="42.172561" lon="23.371958"><ele>2447.1</ele><time>2026-03-02T07:54:11.000Z</time></trkpt>
<trkpt lat="42.172562" lon="23.371946"><ele>2447.1</ele><time>2026-03-02T07:54:12.000Z</time></trkpt>
<trkpt lat="42.172562" lon="23.371933"><ele>2447.1</ele><time>2026-03-02T07:54:13.000Z</time></trkpt>
<trkpt lat="42.172563" lon="23.371922"><ele>2447.1</ele><time>2026-03-02T07:54:14.000Z</time></trkpt>
<trkpt lat="42.172563" lon="23.371909"><ele>2447.8</ele><time>2026-03-02T07:54:15.000Z</time></trkpt>
<trkpt lat="42.172564" lon="23.371897"><ele>2447.8</ele><time>2026-03-02T07:54:16.000Z</time></trkpt>
<trkpt lat="42.172565" lon="23.371884"><ele>2447.8</ele><time>2026-03-02T07:54:17.000Z</time></trkpt>
<trkpt lat="42.172567" lon="23.371871"><ele>2447.8</ele><time>2026-03-02T07:54:18.000Z</time></trkpt>
<trkpt lat="42.172568" lon="23.371858"><ele>2447.8</ele><time>2026-03-02T07:54:19.000Z</time></trkpt>
<trkpt lat="42.172569" lon="23.371845"><ele>2448.5</ele><time>2026-03-02T07:54:20.000Z</time></trkpt>
<trkpt lat="42.17257" lon="23.371832"><ele>2448.5</ele><time>2026-03-02T07:54:21.000Z</time></trkpt>
<trkpt lat="42.17257" lon="23.371818"><ele>2448.5</ele><time>2026-03-02T07:54:22.000Z</time></trkpt>
<trkpt lat="42.17257" lon="23.371806"><ele>2448.5</ele><time>2026-03-02T07:54:23.000Z</time></trkpt>
<trkpt lat="42.17257" lon="23.371793"><ele>2448.5</ele><time>2026-03-02T07:54:24.000Z</time></trkpt>
<trkpt lat="42.172571" lon="23.371781"><ele>2448.9</ele><time>2026-03-02T07:54:25.000Z</time></trkpt>
<trkpt lat="42.172573" lon="23.371769"><ele>2448.9</ele><time>2026-03-02T07:54:26.000Z</time></trkpt>
<trkpt lat="42.172574" lon="23.371757"><ele>2448.9</ele><time>2026-03-02T07:54:27.000Z</time></trkpt>
<trkpt lat="42.172576" lon="23.371744"><ele>2448.9</ele><time>2026-03-02T07:54:28.000Z</time></trkpt>
<trkpt lat="42.172577" lon="23.371732"><ele>2448.9</ele><time>2026-03-02T07:54:29.000Z</time></trkpt>
<trkpt lat="42.172577" lon="23.371721"><ele>2449.7</ele><time>2026-03-02T07:54:30.000Z</time></trkpt>
<trkpt lat="42.172576" lon="23.371713"><ele>2449.7</ele><time>2026-03-02T07:54:31.000Z</time></trkpt>
<trkpt lat="42.172575" lon="23.371708"><ele>2449.7</ele><time>2026-03-02T07:54:32.000Z</time></trkpt>
<trkpt lat="42.172575" lon="23.371706"><ele>2449.7</ele><time>2026-03-02T07:54:33.000Z</time></trkpt>
<trkpt lat="42.172576" lon="23.371706"><ele>2449.7</ele><time>2026-03-02T07:54:34.000Z</time></trkpt>
<trkpt lat="42.172576" lon="23.371706"><ele>2450.2</ele><time>2026-03-02T07:54:35.000Z</time></trkpt>
<trkpt lat="42.172576" lon="23.371705"><ele>2450.2</ele><time>2026-03-02T07:54:36.000Z</time></trkpt>
<trkpt lat="42.172577" lon="23.371705"><ele>2450.2</ele><time>2026-03-02T07:54:37.000Z</time></trkpt>
<trkpt lat="42.172577" lon="23.371705"><ele>2450.2</ele><time>2026-03-02T07:54:38.000Z</time></trkpt>
<trkpt lat="42.172577" lon="23.371705"><ele>2450.2</ele><time>2026-03-02T07:54:39.000Z</time></trkpt>
<trkpt lat="42.172577" lon="23.371705"><ele>2450.4</ele><time>2026-03-02T07:54:40.000Z</time></trkpt>
<trkpt lat="42.172577" lon="23.371705"><ele>2450.4</ele><time>2026-03-02T07:54:41.000Z</time></trkpt>
<trkpt lat="42.172577" lon="23.371705"><ele>2450.4</ele><time>2026-03-02T07:54:42.000Z</time></trkpt>
<trkpt lat="42.172577" lon="23.371705"><ele>2450.4</ele><time>2026-03-02T07:54:43.000Z</time></trkpt>
<trkpt lat="42.172577" lon="23.371705"><ele>2450.4</ele><time>2026-03-02T07:54:44.000Z</time></trkpt>
<trkpt lat="42.172577" lon="23.371705"><ele>2450.5</ele><time>2026-03-02T07:54:45.000Z</time></trkpt>
<trkpt lat="42.172577" lon="23.371705"><ele>2450.5</ele><time>2026-03-02T07:54:46.000Z</time></trkpt>
<trkpt lat="42.172577" lon="23.371705"><ele>2450.5</ele><time>2026-03-02T07:54:47.000Z</time></trkpt>
<trkpt lat="42.172577" lon="23.371705"><ele>2450.5</ele><time>2026-03-02T07:54:48.000Z</time></trkpt>
<trkpt lat="42.172577" lon="23.371705"><ele>2450.5</ele><time>2026-03-02T07:54:49.000Z</time></trkpt>
<trkpt lat="42.172577" lon="23.371705"><ele>2450.5</ele><time>2026-03-02T07:54:50.000Z</time></trkpt>
<trkpt lat="42.172577" lon="23.371705"><ele>2450.5</ele><time>2026-03-02T07:54:51.000Z</time></trkpt>
<trkpt lat="42.172577" lon="23.371705"><ele>2450.5</ele><time>2026-03-02T07:54:52.000Z</time></trkpt>
<trkpt lat="42.172578" lon="23.371706"><ele>2450.5</ele><time>2026-03-02T07:54:53.000Z</time></trkpt>
<trkpt lat="42.172578" lon="23.371706"><ele>2450.5</ele><time>2026-03-02T07:54:54.000Z</time></trkpt>
<trkpt lat="42.172577" lon="23.371707"><ele>2450.5</ele><time>2026-03-02T07:54:55.000Z</time></trkpt>
<trkpt lat="42.172578" lon="23.371707"><ele>2450.5</ele><time>2026-03-02T07:54:56.000Z</time></trkpt>
<trkpt lat="42.172578" lon="23.371708"><ele>2450.5</ele><time>2026-03-02T07:54:57.000Z</time></trkpt>
<trkpt lat="42.172578" lon="23.371709"><ele>2450.5</ele><time>2026-03-02T07:54:58.000Z</time></trkpt>
<trkpt lat="42.172578" lon="23.371709"><ele>2450.5</ele><time>2026-03-02T07:54:59.000Z</time></trkpt>
<trkpt lat="42.172578" lon="23.371709"><ele>2450.5</ele><time>2026-03-02T07:55:00.000Z</time></trkpt>
<trkpt lat="42.172578" lon="23.371709"><ele>2450.5</ele><time>2026-03-02T07:55:01.000Z</time></trkpt>
<trkpt lat="42.172579" lon="23.371709"><ele>2450.5</ele><time>2026-03-02T07:55:02.000Z</time></trkpt>
<trkpt lat="42.172579" lon="23.371709"><ele>2450.5</ele><time>2026-03-02T07:55:03.000Z</time></trkpt>
<trkpt lat="42.172579" lon="23.371709"><ele>2450.5</ele><time>2026-03-02T07:55:04.000Z</time></trkpt>
<trkpt lat="42.172578" lon="23.37171"><ele>2450.4</ele><time>2026-03-02T07:55:05.000Z</time></trkpt>
<trkpt lat="42.172578" lon="23.37171"><ele>2450.4</ele><time>2026-03-02T07:55:06.000Z</time></trkpt>
<trkpt lat="42.172578" lon="23.37171"><ele>2450.4</ele><time>2026-03-02T07:55:07.000Z</time></trkpt>
<trkpt lat="42.172578" lon="23.37171"><ele>2450.4</ele><time>2026-03-02T07:55:08.000Z</time></trkpt>
<trkpt lat="42.172579" lon="23.37171"><ele>2450.4</ele><time>2026-03-02T07:55:09.000Z</time></trkpt>
<trkpt lat="42.172579" lon="23.37171"><ele>2450.5</ele><time>2026-03-02T07:55:10.000Z</time></trkpt>
<trkpt lat="42.172579" lon="23.37171"><ele>2450.5</ele><time>2026-03-02T07:55:11.000Z</time></trkpt>
<trkpt lat="42.172579" lon="23.37171"><ele>2450.5</ele><time>2026-03-02T07:55:12.000Z</time></trkpt>
<trkpt lat="42.172579" lon="23.37171"><ele>2450.5</ele><time>2026-03-02T07:55:13.000Z</time></trkpt>
<trkpt lat="42.17258" lon="23.37171"><ele>2450.5</ele><time>2026-03-02T07:55:14.000Z</time></trkpt>
<trkpt lat="42.17258" lon="23.371711"><ele>2450.7</ele><time>2026-03-02T07:55:15.000Z</time></trkpt>
<trkpt lat="42.17258" lon="23.37171"><ele>2450.7</ele><time>2026-03-02T07:55:16.000Z</time></trkpt>
<trkpt lat="42.17258" lon="23.37171"><ele>2450.7</ele><time>2026-03-02T07:55:17.000Z</time></trkpt>
<trkpt lat="42.172581" lon="23.37171"><ele>2450.7</ele><time>2026-03-02T07:55:18.000Z</time></trkpt>
<trkpt lat="42.172581" lon="23.37171"><ele>2450.7</ele><time>2026-03-02T07:55:19.000Z</time></trkpt>
<trkpt lat="42.172581" lon="23.371709"><ele>2450.9</ele><time>2026-03-02T07:55:20.000Z</time></trkpt>
<trkpt lat="42.172581" lon="23.371709"><ele>2450.9</ele><time>2026-03-02T07:55:21.000Z</time></trkpt>
<trkpt lat="42.172581" lon="23.371709"><ele>2450.9</ele><time>2026-03-02T07:55:22.000Z</time></trkpt>
<trkpt lat="42.172581" lon="23.371709"><ele>2450.9</ele><time>2026-03-02T07:55:23.000Z</time></trkpt>
<trkpt lat="42.172581" lon="23.371709"><ele>2450.9</ele><time>2026-03-02T07:55:24.000Z</time></trkpt>
<trkpt lat="42.172581" lon="23.371709"><ele>2450.8</ele><time>2026-03-02T07:55:25.000Z</time></trkpt>
<trkpt lat="42.172581" lon="23.371709"><ele>2450.8</ele><time>2026-03-02T07:55:26.000Z</time></trkpt>
<trkpt lat="42.172581" lon="23.371707"><ele>2450.8</ele><time>2026-03-02T07:55:27.000Z</time></trkpt>
<trkpt lat="42.172581" lon="23.371702"><ele>2450.8</ele><time>2026-03-02T07:55:28.000Z</time></trkpt>
<trkpt lat="42.172581" lon="23.371695"><ele>2450.8</ele><time>2026-03-02T07:55:29.000Z</time></trkpt>
<trkpt lat="42.17258" lon="23.371686"><ele>2450.7</ele><time>2026-03-02T07:55:30.000Z</time></trkpt>
<trkpt lat="42.17258" lon="23.371674"><ele>2450.7</ele><time>2026-03-02T07:55:31.000Z</time></trkpt>
<trkpt lat="42.172579" lon="23.371662"><ele>2450.7</ele><time>2026-03-02T07:55:32.000Z</time></trkpt>
<trkpt lat="42.172578" lon="23.371651"><ele>2450.7</ele><time>2026-03-02T07:55:33.000Z</time></trkpt>
<trkpt lat="42.172576" lon="23.37164"><ele>2450.7</ele><time>2026-03-02T07:55:34.000Z</time></trkpt>
<trkpt lat="42.172574" lon="23.371628"><ele>2450.8</ele><time>2026-03-02T07:55:35.000Z</time></trkpt>
<trkpt lat="42.172572" lon="23.371618"><ele>2450.8</ele><time>2026-03-02T07:55:36.000Z</time></trkpt>
<trkpt lat="42.172568" lon="23.371607"><ele>2450.8</ele><time>2026-03-02T07:55:37.000Z</time></trkpt>
<trkpt lat="42.172565" lon="23.371597"><ele>2450.8</ele><time>2026-03-02T07:55:38.000Z</time></trkpt>
<trkpt lat="42.172563" lon="23.37159"><ele>2450.8</ele><time>2026-03-02T07:55:39.000Z</time></trkpt>
<trkpt lat="42.172561" lon="23.371582"><ele>2450.9</ele><time>2026-03-02T07:55:40.000Z</time></trkpt>
<trkpt lat="42.17256" lon="23.371574"><ele>2450.9</ele><time>2026-03-02T07:55:41.000Z</time></trkpt>
<trkpt lat="42.172559" lon="23.37157"><ele>2450.9</ele><time>2026-03-02T07:55:42.000Z</time></trkpt>
<trkpt lat="42.17256" lon="23.371567"><ele>2450.9</ele><time>2026-03-02T07:55:43.000Z</time></trkpt>
<trkpt lat="42.17256" lon="23.371563"><ele>2450.9</ele><time>2026-03-02T07:55:44.000Z</time></trkpt>
<trkpt lat="42.17256" lon="23.371561"><ele>2451.3</ele><time>2026-03-02T07:55:45.000Z</time></trkpt>
<trkpt lat="42.172559" lon="23.371557"><ele>2451.3</ele><time>2026-03-02T07:55:46.000Z</time></trkpt>
<trkpt lat="42.172558" lon="23.371551"><ele>2451.3</ele><time>2026-03-02T07:55:47.000Z</time></trkpt>
<trkpt lat="42.172555" lon="23.371544"><ele>2451.3</ele><time>2026-03-02T07:55:48.000Z</time></trkpt>
<trkpt lat="42.172551" lon="23.371536"><ele>2451.3</ele><time>2026-03-02T07:55:49.000Z</time></trkpt>
<trkpt lat="42.172547" lon="23.371527"><ele>2451.7</ele><time>2026-03-02T07:55:50.000Z</time></trkpt>
<trkpt lat="42.172542" lon="23.371517"><ele>2451.7</ele><time>2026-03-02T07:55:51.000Z</time></trkpt>
<trkpt lat="42.172538" lon="23.371508"><ele>2451.7</ele><time>2026-03-02T07:55:52.000Z</time></trkpt>
<trkpt lat="42.172535" lon="23.371497"><ele>2451.7</ele><time>2026-03-02T07:55:53.000Z</time></trkpt>
<trkpt lat="42.172532" lon="23.371485"><ele>2451.7</ele><time>2026-03-02T07:55:54.000Z</time></trkpt>
<trkpt lat="42.172529" lon="23.371474"><ele>2451.9</ele><time>2026-03-02T07:55:55.000Z</time></trkpt>
<trkpt lat="42.172527" lon="23.371462"><ele>2451.9</ele><time>2026-03-02T07:55:56.000Z</time></trkpt>
<trkpt lat="42.172525" lon="23.37145"><ele>2451.9</ele><time>2026-03-02T07:55:57.000Z</time></trkpt>
<trkpt lat="42.172524" lon="23.371439"><ele>2451.9</ele><time>2026-03-02T07:55:58.000Z</time></trkpt>
<trkpt lat="42.172523" lon="23.371428"><ele>2451.9</ele><time>2026-03-02T07:55:59.000Z</time></trkpt>
<trkpt lat="42.172522" lon="23.371418"><ele>2452.3</ele><time>2026-03-02T07:56:00.000Z</time></trkpt>
<trkpt lat="42.172521" lon="23.371409"><ele>2452.3</ele><time>2026-03-02T07:56:01.000Z</time></trkpt>
<trkpt lat="42.17252" lon="23.371399"><ele>2452.3</ele><time>2026-03-02T07:56:02.000Z</time></trkpt>
<trkpt lat="42.172518" lon="23.371388"><ele>2452.3</ele><time>2026-03-02T07:56:03.000Z</time></trkpt>
<trkpt lat="42.172517" lon="23.371376"><ele>2452.3</ele><time>2026-03-02T07:56:04.000Z</time></trkpt>
<trkpt lat="42.172516" lon="23.371364"><ele>2452.7</ele><time>2026-03-02T07:56:05.000Z</time></trkpt>
<trkpt lat="42.172515" lon="23.371353"><ele>2452.7</ele><time>2026-03-02T07:56:06.000Z</time></trkpt>
<trkpt lat="42.172515" lon="23.371342"><ele>2452.7</ele><time>2026-03-02T07:56:07.000Z</time></trkpt>
<trkpt lat="42.172516" lon="23.371332"><ele>2452.7</ele><time>2026-03-02T07:56:08.000Z</time></trkpt>
<trkpt lat="42.172516" lon="23.371323"><ele>2452.7</ele><time>2026-03-02T07:56:09.000Z</time></trkpt>
<trkpt lat="42.172515" lon="23.371315"><ele>2453</ele><time>2026-03-02T07:56:10.000Z</time></trkpt>
<trkpt lat="42.172514" lon="23.371307"><ele>2453</ele><time>2026-03-02T07:56:11.000Z</time></trkpt>
<trkpt lat="42.172513" lon="23.371297"><ele>2453</ele><time>2026-03-02T07:56:12.000Z</time></trkpt>
<trkpt lat="42.172511" lon="23.371289"><ele>2453</ele><time>2026-03-02T07:56:13.000Z</time></trkpt>
<trkpt lat="42.172509" lon="23.371279"><ele>2453</ele><time>2026-03-02T07:56:14.000Z</time></trkpt>
<trkpt lat="42.172507" lon="23.371271"><ele>2453.6</ele><time>2026-03-02T07:56:15.000Z</time></trkpt>
<trkpt lat="42.172506" lon="23.371262"><ele>2453.6</ele><time>2026-03-02T07:56:16.000Z</time></trkpt>
<trkpt lat="42.172505" lon="23.371255"><ele>2453.6</ele><time>2026-03-02T07:56:17.000Z</time></trkpt>
<trkpt lat="42.172505" lon="23.371247"><ele>2453.6</ele><time>2026-03-02T07:56:18.000Z</time></trkpt>
<trkpt lat="42.172506" lon="23.371242"><ele>2453.6</ele><time>2026-03-02T07:56:19.000Z</time></trkpt>
<trkpt lat="42.172506" lon="23.371236"><ele>2454.6</ele><time>2026-03-02T07:56:20.000Z</time></trkpt>
<trkpt lat="42.172508" lon="23.371232"><ele>2454.6</ele><time>2026-03-02T07:56:21.000Z</time></trkpt>
<trkpt lat="42.172509" lon="23.371229"><ele>2454.6</ele><time>2026-03-02T07:56:22.000Z</time></trkpt>
<trkpt lat="42.17251" lon="23.371225"><ele>2454.6</ele><time>2026-03-02T07:56:23.000Z</time></trkpt>
<trkpt lat="42.172511" lon="23.37122"><ele>2454.6</ele><time>2026-03-02T07:56:24.000Z</time></trkpt>
<trkpt lat="42.172512" lon="23.371215"><ele>2455.2</ele><time>2026-03-02T07:56:25.000Z</time></trkpt>
<trkpt lat="42.172513" lon="23.37121"><ele>2455.2</ele><time>2026-03-02T07:56:26.000Z</time></trkpt>
<trkpt lat="42.172516" lon="23.371206"><ele>2455.2</ele><time>2026-03-02T07:56:27.000Z</time></trkpt>
<trkpt lat="42.172517" lon="23.371203"><ele>2455.2</ele><time>2026-03-02T07:56:28.000Z</time></trkpt>
<trkpt lat="42.172519" lon="23.371201"><ele>2455.2</ele><time>2026-03-02T07:56:29.000Z</time></trkpt>
<trkpt lat="42.17252" lon="23.371198"><ele>2456.5</ele><time>2026-03-02T07:56:30.000Z</time></trkpt>
<trkpt lat="42.17252" lon="23.371195"><ele>2456.5</ele><time>2026-03-02T07:56:31.000Z</time></trkpt>
<trkpt lat="42.172519" lon="23.37119"><ele>2456.5</ele><time>2026-03-02T07:56:32.000Z</time></trkpt>
<trkpt lat="42.172517" lon="23.371185"><ele>2456.5</ele><time>2026-03-02T07:56:33.000Z</time></trkpt>
<trkpt lat="42.172515" lon="23.371181"><ele>2456.5</ele><time>2026-03-02T07:56:34.000Z</time></trkpt>
<trkpt lat="42.172512" lon="23.371174"><ele>2457.9</ele><time>2026-03-02T07:56:35.000Z</time></trkpt>
<trkpt lat="42.17251" lon="23.371168"><ele>2457.9</ele><time>2026-03-02T07:56:36.000Z</time></trkpt>
<trkpt lat="42.172507" lon="23.37116"><ele>2457.9</ele><time>2026-03-02T07:56:37.000Z</time></trkpt>
<trkpt lat="42.172507" lon="23.371152"><ele>2457.9</ele><time>2026-03-02T07:56:38.000Z</time></trkpt>
<trkpt lat="42.172506" lon="23.371143"><ele>2457.9</ele><time>2026-03-02T07:56:39.000Z</time></trkpt>
<trkpt lat="42.172506" lon="23.371135"><ele>2458.4</ele><time>2026-03-02T07:56:40.000Z</time></trkpt>
<trkpt lat="42.172507" lon="23.371128"><ele>2458.4</ele><time>2026-03-02T07:56:41.000Z</time></trkpt>
<trkpt lat="42.172509" lon="23.371124"><ele>2458.4</ele><time>2026-03-02T07:56:42.000Z</time></trkpt>
<trkpt lat="42.17251" lon="23.371122"><ele>2458.4</ele><time>2026-03-02T07:56:43.000Z</time></trkpt>
<trkpt lat="42.17251" lon="23.37112"><ele>2458.4</ele><time>2026-03-02T07:56:44.000Z</time></trkpt>
<trkpt lat="42.17251" lon="23.371119"><ele>2459.4</ele><time>2026-03-02T07:56:45.000Z</time></trkpt>
<trkpt lat="42.172509" lon="23.371118"><ele>2459.4</ele><time>2026-03-02T07:56:46.000Z</time></trkpt>
<trkpt lat="42.172509" lon="23.371116"><ele>2459.4</ele><time>2026-03-02T07:56:47.000Z</time></trkpt>
<trkpt lat="42.172509" lon="23.371114"><ele>2459.4</ele><time>2026-03-02T07:56:48.000Z</time></trkpt>
<trkpt lat="42.17251" lon="23.371111"><ele>2459.4</ele><time>2026-03-02T07:56:49.000Z</time></trkpt>
<trkpt lat="42.172511" lon="23.37111"><ele>2460.2</ele><time>2026-03-02T07:56:50.000Z</time></trkpt>
<trkpt lat="42.172512" lon="23.371108"><ele>2460.2</ele><time>2026-03-02T07:56:51.000Z</time></trkpt>
<trkpt lat="42.172512" lon="23.371108"><ele>2460.2</ele><time>2026-03-02T07:56:52.000Z</time></trkpt>
<trkpt lat="42.172512" lon="23.371108"><ele>2460.2</ele><time>2026-03-02T07:56:53.000Z</time></trkpt>
<trkpt lat="42.172512" lon="23.371108"><ele>2460.2</ele><time>2026-03-02T07:56:54.000Z</time></trkpt>
<trkpt lat="42.172511" lon="23.371107"><ele>2460.5</ele><time>2026-03-02T07:56:55.000Z</time></trkpt>
<trkpt lat="42.172512" lon="23.371107"><ele>2460.5</ele><time>2026-03-02T07:56:56.000Z</time></trkpt>
<trkpt lat="42.172512" lon="23.371107"><ele>2460.5</ele><time>2026-03-02T07:56:57.000Z</time></trkpt>
<trkpt lat="42.172512" lon="23.371105"><ele>2460.5</ele><time>2026-03-02T07:56:58.000Z</time></trkpt>
<trkpt lat="42.172511" lon="23.371101"><ele>2460.5</ele><time>2026-03-02T07:56:59.000Z</time></trkpt>
<trkpt lat="42.17251" lon="23.371095"><ele>2460.9</ele><time>2026-03-02T07:57:00.000Z</time></trkpt>
<trkpt lat="42.172508" lon="23.371089"><ele>2460.9</ele><time>2026-03-02T07:57:01.000Z</time></trkpt>
<trkpt lat="42.172506" lon="23.371081"><ele>2460.9</ele><time>2026-03-02T07:57:02.000Z</time></trkpt>
<trkpt lat="42.172504" lon="23.371074"><ele>2460.9</ele><time>2026-03-02T07:57:03.000Z</time></trkpt>
<trkpt lat="42.172504" lon="23.37107"><ele>2460.9</ele><time>2026-03-02T07:57:04.000Z</time></trkpt>
<trkpt lat="42.172504" lon="23.371068"><ele>2461.2</ele><time>2026-03-02T07:57:05.000Z</time></trkpt>
<trkpt lat="42.172504" lon="23.371067"><ele>2461.2</ele><time>2026-03-02T07:57:06.000Z</time></trkpt>
<trkpt lat="42.172506" lon="23.371069"><ele>2461.2</ele><time>2026-03-02T07:57:07.000Z</time></trkpt>
<trkpt lat="42.172507" lon="23.37107"><ele>2461.2</ele><time>2026-03-02T07:57:08.000Z</time></trkpt>
<trkpt lat="42.172508" lon="23.371072"><ele>2461.2</ele><time>2026-03-02T07:57:09.000Z</time></trkpt>
<trkpt lat="42.172509" lon="23.371073"><ele>2461.3</ele><time>2026-03-02T07:57:10.000Z</time></trkpt>
<trkpt lat="42.17251" lon="23.371074"><ele>2461.3</ele><time>2026-03-02T07:57:11.000Z</time></trkpt>
<trkpt lat="42.17251" lon="23.371075"><ele>2461.3</ele><time>2026-03-02T07:57:12.000Z</time></trkpt>
<trkpt lat="42.17251" lon="23.371075"><ele>2461.3</ele><time>2026-03-02T07:57:13.000Z</time></trkpt>
<trkpt lat="42.17251" lon="23.371075"><ele>2461.3</ele><time>2026-03-02T07:57:14.000Z</time></trkpt>
<trkpt lat="42.172509" lon="23.371075"><ele>2461.6</ele><time>2026-03-02T07:57:15.000Z</time></trkpt>
<trkpt lat="42.172509" lon="23.371076"><ele>2461.6</ele><time>2026-03-02T07:57:16.000Z</time></trkpt>
<trkpt lat="42.172509" lon="23.371076"><ele>2461.6</ele><time>2026-03-02T07:57:17.000Z</time></trkpt>
<trkpt lat="42.172509" lon="23.371076"><ele>2461.6</ele><time>2026-03-02T07:57:18.000Z</time></trkpt>
<trkpt lat="42.172509" lon="23.371076"><ele>2461.6</ele><time>2026-03-02T07:57:19.000Z</time></trkpt>
<trkpt lat="42.17251" lon="23.371076"><ele>2461.9</ele><time>2026-03-02T07:57:20.000Z</time></trkpt>
<trkpt lat="42.172511" lon="23.371076"><ele>2461.9</ele><time>2026-03-02T07:57:21.000Z</time></trkpt>
<trkpt lat="42.172511" lon="23.371076"><ele>2461.9</ele><time>2026-03-02T07:57:22.000Z</time></trkpt>
<trkpt lat="42.172511" lon="23.371076"><ele>2461.9</ele><time>2026-03-02T07:57:23.000Z</time></trkpt>
<trkpt lat="42.172511" lon="23.371075"><ele>2461.9</ele><time>2026-03-02T07:57:24.000Z</time></trkpt>
<trkpt lat="42.172511" lon="23.371075"><ele>2462</ele><time>2026-03-02T07:57:25.000Z</time></trkpt>
<trkpt lat="42.172512" lon="23.371075"><ele>2462</ele><time>2026-03-02T07:57:26.000Z</time></trkpt>
<trkpt lat="42.172512" lon="23.371075"><ele>2462</ele><time>2026-03-02T07:57:27.000Z</time></trkpt>
<trkpt lat="42.172513" lon="23.371075"><ele>2462</ele><time>2026-03-02T07:57:28.000Z</time></trkpt>
<trkpt lat="42.172513" lon="23.371075"><ele>2462</ele><time>2026-03-02T07:57:29.000Z</time></trkpt>
<trkpt lat="42.172514" lon="23.371075"><ele>2462</ele><time>2026-03-02T07:57:30.000Z</time></trkpt>
<trkpt lat="42.172515" lon="23.371075"><ele>2462</ele><time>2026-03-02T07:57:31.000Z</time></trkpt>
<trkpt lat="42.172515" lon="23.371075"><ele>2462</ele><time>2026-03-02T07:57:32.000Z</time></trkpt>
<trkpt lat="42.172515" lon="23.371075"><ele>2462</ele><time>2026-03-02T07:57:33.000Z</time></trkpt>
<trkpt lat="42.172515" lon="23.371075"><ele>2462</ele><time>2026-03-02T07:57:34.000Z</time></trkpt>
<trkpt lat="42.172515" lon="23.371075"><ele>2461.7</ele><time>2026-03-02T07:57:35.000Z</time></trkpt>
<trkpt lat="42.172515" lon="23.371075"><ele>2461.7</ele><time>2026-03-02T07:57:36.000Z</time></trkpt>
<trkpt lat="42.172516" lon="23.371074"><ele>2461.7</ele><time>2026-03-02T07:57:37.000Z</time></trkpt>
<trkpt lat="42.172516" lon="23.371074"><ele>2461.7</ele><time>2026-03-02T07:57:38.000Z</time></trkpt>
<trkpt lat="42.172516" lon="23.371073"><ele>2461.7</ele><time>2026-03-02T07:57:39.000Z</time></trkpt>
<trkpt lat="42.172516" lon="23.371073"><ele>2461.6</ele><time>2026-03-02T07:57:40.000Z</time></trkpt>
<trkpt lat="42.172517" lon="23.371072"><ele>2461.6</ele><time>2026-03-02T07:57:41.000Z</time></trkpt>
<trkpt lat="42.172517" lon="23.371072"><ele>2461.6</ele><time>2026-03-02T07:57:42.000Z</time></trkpt>
<trkpt lat="42.172517" lon="23.371071"><ele>2461.6</ele><time>2026-03-02T07:57:43.000Z</time></trkpt>
<trkpt lat="42.172517" lon="23.371071"><ele>2461.6</ele><time>2026-03-02T07:57:44.000Z</time></trkpt>
<trkpt lat="42.172517" lon="23.371069"><ele>2461.5</ele><time>2026-03-02T07:57:45.000Z</time></trkpt>
<trkpt lat="42.172518" lon="23.371067"><ele>2461.5</ele><time>2026-03-02T07:57:46.000Z</time></trkpt>
<trkpt lat="42.17252" lon="23.371065"><ele>2461.5</ele><time>2026-03-02T07:57:47.000Z</time></trkpt>
<trkpt lat="42.17252" lon="23.371064"><ele>2461.5</ele><time>2026-03-02T07:57:48.000Z</time></trkpt>
<trkpt lat="42.172521" lon="23.371062"><ele>2461.5</ele><time>2026-03-02T07:57:49.000Z</time></trkpt>
<trkpt lat="42.172522" lon="23.371062"><ele>2461.8</ele><time>2026-03-02T07:57:50.000Z</time></trkpt>
<trkpt lat="42.172523" lon="23.371061"><ele>2461.8</ele><time>2026-03-02T07:57:51.000Z</time></trkpt>
<trkpt lat="42.172523" lon="23.371062"><ele>2461.8</ele><time>2026-03-02T07:57:52.000Z</time></trkpt>
<trkpt lat="42.172524" lon="23.371063"><ele>2461.8</ele><time>2026-03-02T07:57:53.000Z</time></trkpt>
<trkpt lat="42.172523" lon="23.371064"><ele>2461.8</ele><time>2026-03-02T07:57:54.000Z</time></trkpt>
<trkpt lat="42.172521" lon="23.371063"><ele>2461.9</ele><time>2026-03-02T07:57:55.000Z</time></trkpt>
<trkpt lat="42.17252" lon="23.37106"><ele>2461.9</ele><time>2026-03-02T07:57:56.000Z</time></trkpt>
<trkpt lat="42.172519" lon="23.371056"><ele>2461.9</ele><time>2026-03-02T07:57:57.000Z</time></trkpt>
<trkpt lat="42.172517" lon="23.371049"><ele>2461.9</ele><time>2026-03-02T07:57:58.000Z</time></trkpt>
<trkpt lat="42.172517" lon="23.371041"><ele>2461.9</ele><time>2026-03-02T07:57:59.000Z</time></trkpt>
<trkpt lat="42.172516" lon="23.371032"><ele>2461.9</ele><time>2026-03-02T07:58:00.000Z</time></trkpt>
<trkpt lat="42.172515" lon="23.371026"><ele>2461.9</ele><time>2026-03-02T07:58:01.000Z</time></trkpt>
<trkpt lat="42.172513" lon="23.371019"><ele>2461.9</ele><time>2026-03-02T07:58:02.000Z</time></trkpt>
<trkpt lat="42.172511" lon="23.371012"><ele>2461.9</ele><time>2026-03-02T07:58:03.000Z</time></trkpt>
<trkpt lat="42.172509" lon="23.371005"><ele>2461.9</ele><time>2026-03-02T07:58:04.000Z</time></trkpt>
<trkpt lat="42.172507" lon="23.370998"><ele>2462</ele><time>2026-03-02T07:58:05.000Z</time></trkpt>
<trkpt lat="42.172503" lon="23.370989"><ele>2462</ele><time>2026-03-02T07:58:06.000Z</time></trkpt>
<trkpt lat="42.172499" lon="23.37098"><ele>2462</ele><time>2026-03-02T07:58:07.000Z</time></trkpt>
<trkpt lat="42.172496" lon="23.370971"><ele>2462</ele><time>2026-03-02T07:58:08.000Z</time></trkpt>
<trkpt lat="42.172493" lon="23.370961"><ele>2462</ele><time>2026-03-02T07:58:09.000Z</time></trkpt>
<trkpt lat="42.172492" lon="23.370951"><ele>2462.1</ele><time>2026-03-02T07:58:10.000Z</time></trkpt>
<trkpt lat="42.172491" lon="23.370943"><ele>2462.1</ele><time>2026-03-02T07:58:11.000Z</time></trkpt>
<trkpt lat="42.172493" lon="23.370936"><ele>2462.1</ele><time>2026-03-02T07:58:12.000Z</time></trkpt>
<trkpt lat="42.172493" lon="23.370933"><ele>2462.1</ele><time>2026-03-02T07:58:13.000Z</time></trkpt>
<trkpt lat="42.172495" lon="23.370933"><ele>2462.1</ele><time>2026-03-02T07:58:14.000Z</time></trkpt>
<trkpt lat="42.172495" lon="23.370933"><ele>2463</ele><time>2026-03-02T07:58:15.000Z</time></trkpt>
<trkpt lat="42.172495" lon="23.370932"><ele>2463</ele><time>2026-03-02T07:58:16.000Z</time></trkpt>
<trkpt lat="42.172497" lon="23.370928"><ele>2463</ele><time>2026-03-02T07:58:17.000Z</time></trkpt>
<trkpt lat="42.172498" lon="23.370921"><ele>2463</ele><time>2026-03-02T07:58:18.000Z</time></trkpt>
<trkpt lat="42.172499" lon="23.370911"><ele>2463</ele><time>2026-03-02T07:58:19.000Z</time></trkpt>
<trkpt lat="42.172501" lon="23.3709"><ele>2464.2</ele><time>2026-03-02T07:58:20.000Z</time></trkpt>
<trkpt lat="42.172503" lon="23.370887"><ele>2464.2</ele><time>2026-03-02T07:58:21.000Z</time></trkpt>
<trkpt lat="42.172503" lon="23.370876"><ele>2464.2</ele><time>2026-03-02T07:58:22.000Z</time></trkpt>
<trkpt lat="42.172504" lon="23.370864"><ele>2464.2</ele><time>2026-03-02T07:58:23.000Z</time></trkpt>
<trkpt lat="42.172504" lon="23.370851"><ele>2464.2</ele><time>2026-03-02T07:58:24.000Z</time></trkpt>
<trkpt lat="42.172504" lon="23.370841"><ele>2464.6</ele><time>2026-03-02T07:58:25.000Z</time></trkpt>
<trkpt lat="42.172504" lon="23.370831"><ele>2464.6</ele><time>2026-03-02T07:58:26.000Z</time></trkpt>
<trkpt lat="42.172504" lon="23.370821"><ele>2464.6</ele><time>2026-03-02T07:58:27.000Z</time></trkpt>
<trkpt lat="42.172504" lon="23.37081"><ele>2464.6</ele><time>2026-03-02T07:58:28.000Z</time></trkpt>
<trkpt lat="42.172505" lon="23.370801"><ele>2464.6</ele><time>2026-03-02T07:58:29.000Z</time></trkpt>
<trkpt lat="42.172506" lon="23.370791"><ele>2465.4</ele><time>2026-03-02T07:58:30.000Z</time></trkpt>
<trkpt lat="42.172506" lon="23.370782"><ele>2465.4</ele><time>2026-03-02T07:58:31.000Z</time></trkpt>
<trkpt lat="42.172505" lon="23.370774"><ele>2465.4</ele><time>2026-03-02T07:58:32.000Z</time></trkpt>
<trkpt lat="42.172504" lon="23.370766"><ele>2465.4</ele><time>2026-03-02T07:58:33.000Z</time></trkpt>
<trkpt lat="42.172503" lon="23.37076"><ele>2465.4</ele><time>2026-03-02T07:58:34.000Z</time></trkpt>
<trkpt lat="42.172502" lon="23.370753"><ele>2466.2</ele><time>2026-03-02T07:58:35.000Z</time></trkpt>
<trkpt lat="42.172501" lon="23.370747"><ele>2466.2</ele><time>2026-03-02T07:58:36.000Z</time></trkpt>
<trkpt lat="42.172501" lon="23.370741"><ele>2466.2</ele><time>2026-03-02T07:58:37.000Z</time></trkpt>
<trkpt lat="42.172502" lon="23.370735"><ele>2466.2</ele><time>2026-03-02T07:58:38.000Z</time></trkpt>
<trkpt lat="42.172502" lon="23.370727"><ele>2466.2</ele><time>2026-03-02T07:58:39.000Z</time></trkpt>
<trkpt lat="42.172503" lon="23.37072"><ele>2466.8</ele><time>2026-03-02T07:58:40.000Z</time></trkpt>
<trkpt lat="42.172504" lon="23.370712"><ele>2466.8</ele><time>2026-03-02T07:58:41.000Z</time></trkpt>
<trkpt lat="42.172504" lon="23.370705"><ele>2466.8</ele><time>2026-03-02T07:58:42.000Z</time></trkpt>
<trkpt lat="42.172504" lon="23.370698"><ele>2466.8</ele><time>2026-03-02T07:58:43.000Z</time></trkpt>
<trkpt lat="42.172504" lon="23.370693"><ele>2466.8</ele><time>2026-03-02T07:58:44.000Z</time></trkpt>
<trkpt lat="42.172504" lon="23.370686"><ele>2467.9</ele><time>2026-03-02T07:58:45.000Z</time></trkpt>
<trkpt lat="42.172504" lon="23.370682"><ele>2467.9</ele><time>2026-03-02T07:58:46.000Z</time></trkpt>
<trkpt lat="42.172503" lon="23.370676"><ele>2467.9</ele><time>2026-03-02T07:58:47.000Z</time></trkpt>
<trkpt lat="42.172502" lon="23.370671"><ele>2467.9</ele><time>2026-03-02T07:58:48.000Z</time></trkpt>
<trkpt lat="42.1725" lon="23.370665"><ele>2467.9</ele><time>2026-03-02T07:58:49.000Z</time></trkpt>
<trkpt lat="42.172498" lon="23.370659"><ele>2469.1</ele><time>2026-03-02T07:58:50.000Z</time></trkpt>
<trkpt lat="42.172496" lon="23.370653"><ele>2469.1</ele><time>2026-03-02T07:58:51.000Z</time></trkpt>
<trkpt lat="42.172494" lon="23.370648"><ele>2469.1</ele><time>2026-03-02T07:58:52.000Z</time></trkpt>
<trkpt lat="42.172493" lon="23.370642"><ele>2469.1</ele><time>2026-03-02T07:58:53.000Z</time></trkpt>
<trkpt lat="42.172491" lon="23.370636"><ele>2469.1</ele><time>2026-03-02T07:58:54.000Z</time></trkpt>
<trkpt lat="42.17249" lon="23.370631"><ele>2469.6</ele><time>2026-03-02T07:58:55.000Z</time></trkpt>
<trkpt lat="42.17249" lon="23.370624"><ele>2469.6</ele><time>2026-03-02T07:58:56.000Z</time></trkpt>
<trkpt lat="42.17249" lon="23.370618"><ele>2469.6</ele><time>2026-03-02T07:58:57.000Z</time></trkpt>
<trkpt lat="42.17249" lon="23.370612"><ele>2469.6</ele><time>2026-03-02T07:58:58.000Z</time></trkpt>
<trkpt lat="42.17249" lon="23.370606"><ele>2469.6</ele><time>2026-03-02T07:58:59.000Z</time></trkpt>
<trkpt lat="42.172489" lon="23.370599"><ele>2470.6</ele><time>2026-03-02T07:59:00.000Z</time></trkpt>
<trkpt lat="42.172488" lon="23.370595"><ele>2470.6</ele><time>2026-03-02T07:59:01.000Z</time></trkpt>
<trkpt lat="42.172487" lon="23.37059"><ele>2470.6</ele><time>2026-03-02T07:59:02.000Z</time></trkpt>
<trkpt lat="42.172485" lon="23.370585"><ele>2470.6</ele><time>2026-03-02T07:59:03.000Z</time></trkpt>
<trkpt lat="42.172484" lon="23.37058"><ele>2470.6</ele><time>2026-03-02T07:59:04.000Z</time></trkpt>
<trkpt lat="42.172482" lon="23.370575"><ele>2471.5</ele><time>2026-03-02T07:59:05.000Z</time></trkpt>
<trkpt lat="42.17248" lon="23.37057"><ele>2471.5</ele><time>2026-03-02T07:59:06.000Z</time></trkpt>
<trkpt lat="42.172477" lon="23.370565"><ele>2471.5</ele><time>2026-03-02T07:59:07.000Z</time></trkpt>
<trkpt lat="42.172475" lon="23.370561"><ele>2471.5</ele><time>2026-03-02T07:59:08.000Z</time></trkpt>
<trkpt lat="42.172471" lon="23.370555"><ele>2471.5</ele><time>2026-03-02T07:59:09.000Z</time></trkpt>
<trkpt lat="42.172468" lon="23.370549"><ele>2471.9</ele><time>2026-03-02T07:59:10.000Z</time></trkpt>
<trkpt lat="42.172464" lon="23.370543"><ele>2471.9</ele><time>2026-03-02T07:59:11.000Z</time></trkpt>
<trkpt lat="42.172461" lon="23.370538"><ele>2471.9</ele><time>2026-03-02T07:59:12.000Z</time></trkpt>
<trkpt lat="42.172458" lon="23.370533"><ele>2471.9</ele><time>2026-03-02T07:59:13.000Z</time></trkpt>
<trkpt lat="42.172456" lon="23.370529"><ele>2471.9</ele><time>2026-03-02T07:59:14.000Z</time></trkpt>
<trkpt lat="42.172454" lon="23.370527"><ele>2472.7</ele><time>2026-03-02T07:59:15.000Z</time></trkpt>
<trkpt lat="42.172452" lon="23.370525"><ele>2472.7</ele><time>2026-03-02T07:59:16.000Z</time></trkpt>
<trkpt lat="42.172451" lon="23.370525"><ele>2472.7</ele><time>2026-03-02T07:59:17.000Z</time></trkpt>
<trkpt lat="42.17245" lon="23.370524"><ele>2472.7</ele><time>2026-03-02T07:59:18.000Z</time></trkpt>
<trkpt lat="42.172448" lon="23.370524"><ele>2472.7</ele><time>2026-03-02T07:59:19.000Z</time></trkpt>
<trkpt lat="42.172448" lon="23.370524"><ele>2473.6</ele><time>2026-03-02T07:59:20.000Z</time></trkpt>
<trkpt lat="42.172447" lon="23.370523"><ele>2473.6</ele><time>2026-03-02T07:59:21.000Z</time></trkpt>
<trkpt lat="42.172444" lon="23.370522"><ele>2473.6</ele><time>2026-03-02T07:59:22.000Z</time></trkpt>
<trkpt lat="42.172439" lon="23.370519"><ele>2473.6</ele><time>2026-03-02T07:59:23.000Z</time></trkpt>
<trkpt lat="42.172434" lon="23.370516"><ele>2473.6</ele><time>2026-03-02T07:59:24.000Z</time></trkpt>
<trkpt lat="42.172428" lon="23.370513"><ele>2474</ele><time>2026-03-02T07:59:25.000Z</time></trkpt>
<trkpt lat="42.172421" lon="23.370509"><ele>2474</ele><time>2026-03-02T07:59:26.000Z</time></trkpt>
<trkpt lat="42.172415" lon="23.370504"><ele>2474</ele><time>2026-03-02T07:59:27.000Z</time></trkpt>
<trkpt lat="42.172408" lon="23.3705"><ele>2474</ele><time>2026-03-02T07:59:28.000Z</time></trkpt>
<trkpt lat="42.172402" lon="23.370495"><ele>2474</ele><time>2026-03-02T07:59:29.000Z</time></trkpt>
<trkpt lat="42.172395" lon="23.37049"><ele>2474.6</ele><time>2026-03-02T07:59:30.000Z</time></trkpt>
<trkpt lat="42.172388" lon="23.370486"><ele>2474.6</ele><time>2026-03-02T07:59:31.000Z</time></trkpt>
<trkpt lat="42.17238" lon="23.370483"><ele>2474.6</ele><time>2026-03-02T07:59:32.000Z</time></trkpt>
<trkpt lat="42.172374" lon="23.37048"><ele>2474.6</ele><time>2026-03-02T07:59:33.000Z</time></trkpt>
<trkpt lat="42.172367" lon="23.370477"><ele>2474.6</ele><time>2026-03-02T07:59:34.000Z</time></trkpt>
<trkpt lat="42.172361" lon="23.370474"><ele>2474.9</ele><time>2026-03-02T07:59:35.000Z</time></trkpt>
<trkpt lat="42.172355" lon="23.370471"><ele>2474.9</ele><time>2026-03-02T07:59:36.000Z</time></trkpt>
<trkpt lat="42.17235" lon="23.370467"><ele>2474.9</ele><time>2026-03-02T07:59:37.000Z</time></trkpt>
<trkpt lat="42.172344" lon="23.370462"><ele>2474.9</ele><time>2026-03-02T07:59:38.000Z</time></trkpt>
<trkpt lat="42.172338" lon="23.370457"><ele>2474.9</ele><time>2026-03-02T07:59:39.000Z</time></trkpt>
<trkpt lat="42.172334" lon="23.370453"><ele>2475.1</ele><time>2026-03-02T07:59:40.000Z</time></trkpt>
<trkpt lat="42.17233" lon="23.370448"><ele>2475.1</ele><time>2026-03-02T07:59:41.000Z</time></trkpt>
<trkpt lat="42.172326" lon="23.370443"><ele>2475.1</ele><time>2026-03-02T07:59:42.000Z</time></trkpt>
<trkpt lat="42.172321" lon="23.370435"><ele>2475.1</ele><time>2026-03-02T07:59:43.000Z</time></trkpt>
<trkpt lat="42.172317" lon="23.370426"><ele>2475.1</ele><time>2026-03-02T07:59:44.000Z</time></trkpt>
<trkpt lat="42.172311" lon="23.370416"><ele>2475.3</ele><time>2026-03-02T07:59:45.000Z</time></trkpt>
<trkpt lat="42.172305" lon="23.370405"><ele>2475.3</ele><time>2026-03-02T07:59:46.000Z</time></trkpt>
<trkpt lat="42.172298" lon="23.370396"><ele>2475.3</ele><time>2026-03-02T07:59:47.000Z</time></trkpt>
<trkpt lat="42.172293" lon="23.370389"><ele>2475.3</ele><time>2026-03-02T07:59:48.000Z</time></trkpt>
<trkpt lat="42.172287" lon="23.370381"><ele>2475.3</ele><time>2026-03-02T07:59:49.000Z</time></trkpt>
<trkpt lat="42.17228" lon="23.370375"><ele>2475.4</ele><time>2026-03-02T07:59:50.000Z</time></trkpt>
<trkpt lat="42.172275" lon="23.370368"><ele>2475.4</ele><time>2026-03-02T07:59:51.000Z</time></trkpt>
<trkpt lat="42.172271" lon="23.370361"><ele>2475.4</ele><time>2026-03-02T07:59:52.000Z</time></trkpt>
<trkpt lat="42.172268" lon="23.370355"><ele>2475.4</ele><time>2026-03-02T07:59:53.000Z</time></trkpt>
<trkpt lat="42.172267" lon="23.370351"><ele>2475.4</ele><time>2026-03-02T07:59:54.000Z</time></trkpt>
<trkpt lat="42.172266" lon="23.370348"><ele>2475.5</ele><time>2026-03-02T07:59:55.000Z</time></trkpt>
<trkpt lat="42.172265" lon="23.370346"><ele>2475.5</ele><time>2026-03-02T07:59:56.000Z</time></trkpt>
<trkpt lat="42.172265" lon="23.370346"><ele>2475.5</ele><time>2026-03-02T07:59:57.000Z</time></trkpt>
<trkpt lat="42.172264" lon="23.370346"><ele>2475.5</ele><time>2026-03-02T07:59:58.000Z</time></trkpt>
<trkpt lat="42.172263" lon="23.370346"><ele>2475.5</ele><time>2026-03-02T07:59:59.000Z</time></trkpt>
<trkpt lat="42.172262" lon="23.370346"><ele>2476.1</ele><time>2026-03-02T08:00:00.000Z</time></trkpt>
<trkpt lat="42.172261" lon="23.370345"><ele>2476.1</ele><time>2026-03-02T08:00:01.000Z</time></trkpt>
<trkpt lat="42.172261" lon="23.370345"><ele>2476.1</ele><time>2026-03-02T08:00:02.000Z</time></trkpt>
<trkpt lat="42.172261" lon="23.370345"><ele>2476.1</ele><time>2026-03-02T08:00:03.000Z</time></trkpt>
<trkpt lat="42.17226" lon="23.370346"><ele>2476.1</ele><time>2026-03-02T08:00:04.000Z</time></trkpt>
<trkpt lat="42.172261" lon="23.370347"><ele>2476.7</ele><time>2026-03-02T08:00:05.000Z</time></trkpt>
<trkpt lat="42.172261" lon="23.370347"><ele>2476.7</ele><time>2026-03-02T08:00:06.000Z</time></trkpt>
<trkpt lat="42.172262" lon="23.370347"><ele>2476.7</ele><time>2026-03-02T08:00:07.000Z</time></trkpt>
<trkpt lat="42.172262" lon="23.370348"><ele>2476.7</ele><time>2026-03-02T08:00:08.000Z</time></trkpt>
<trkpt lat="42.172262" lon="23.370347"><ele>2476.7</ele><time>2026-03-02T08:00:09.000Z</time></trkpt>
<trkpt lat="42.172262" lon="23.370347"><ele>2477</ele><time>2026-03-02T08:00:10.000Z</time></trkpt>
<trkpt lat="42.172261" lon="23.370347"><ele>2477</ele><time>2026-03-02T08:00:11.000Z</time></trkpt>
<trkpt lat="42.172261" lon="23.370346"><ele>2477</ele><time>2026-03-02T08:00:12.000Z</time></trkpt>
<trkpt lat="42.172261" lon="23.370346"><ele>2477</ele><time>2026-03-02T08:00:13.000Z</time></trkpt>
<trkpt lat="42.172261" lon="23.370346"><ele>2477</ele><time>2026-03-02T08:00:14.000Z</time></trkpt>
<trkpt lat="42.172262" lon="23.370346"><ele>2477.3</ele><time>2026-03-02T08:00:15.000Z</time></trkpt>
<trkpt lat="42.172261" lon="23.370346"><ele>2477.3</ele><time>2026-03-02T08:00:16.000Z</time></trkpt>
<trkpt lat="42.172259" lon="23.370346"><ele>2477.3</ele><time>2026-03-02T08:00:17.000Z</time></trkpt>
<trkpt lat="42.172255" lon="23.370345"><ele>2477.3</ele><time>2026-03-02T08:00:18.000Z</time></trkpt>
<trkpt lat="42.17225" lon="23.370343"><ele>2477.3</ele><time>2026-03-02T08:00:19.000Z</time></trkpt>
<trkpt lat="42.172242" lon="23.37034"><ele>2477.3</ele><time>2026-03-02T08:00:20.000Z</time></trkpt>
<trkpt lat="42.172233" lon="23.370336"><ele>2477.3</ele><time>2026-03-02T08:00:21.000Z</time></trkpt>
<trkpt lat="42.172225" lon="23.370332"><ele>2477.3</ele><time>2026-03-02T08:00:22.000Z</time></trkpt>
<trkpt lat="42.172218" lon="23.370327"><ele>2477.3</ele><time>2026-03-02T08:00:23.000Z</time></trkpt>
<trkpt lat="42.172212" lon="23.370323"><ele>2477.3</ele><time>2026-03-02T08:00:24.000Z</time></trkpt>
<trkpt lat="42.172206" lon="23.370317"><ele>2477.4</ele><time>2026-03-02T08:00:25.000Z</time></trkpt>
<trkpt lat="42.172202" lon="23.370312"><ele>2477.4</ele><time>2026-03-02T08:00:26.000Z</time></trkpt>
<trkpt lat="42.172199" lon="23.37031"><ele>2477.4</ele><time>2026-03-02T08:00:27.000Z</time></trkpt>
<trkpt lat="42.172198" lon="23.37031"><ele>2477.4</ele><time>2026-03-02T08:00:28.000Z</time></trkpt>
<trkpt lat="42.172196" lon="23.37031"><ele>2477.4</ele><time>2026-03-02T08:00:29.000Z</time></trkpt>
<trkpt lat="42.172195" lon="23.370312"><ele>2477.2</ele><time>2026-03-02T08:00:30.000Z</time></trkpt>
<trkpt lat="42.172195" lon="23.370313"><ele>2477.2</ele><time>2026-03-02T08:00:31.000Z</time></trkpt>
<trkpt lat="42.172195" lon="23.370313"><ele>2477.2</ele><time>2026-03-02T08:00:32.000Z</time></trkpt>
<trkpt lat="42.172195" lon="23.370312"><ele>2477.2</ele><time>2026-03-02T08:00:33.000Z</time></trkpt>
<trkpt lat="42.172196" lon="23.37031"><ele>2477.2</ele><time>2026-03-02T08:00:34.000Z</time></trkpt>
<trkpt lat="42.172196" lon="23.370309"><ele>2477.2</ele><time>2026-03-02T08:00:35.000Z</time></trkpt>
<trkpt lat="42.172195" lon="23.370306"><ele>2477.2</ele><time>2026-03-02T08:00:36.000Z</time></trkpt>
<trkpt lat="42.172193" lon="23.370304"><ele>2477.2</ele><time>2026-03-02T08:00:37.000Z</time></trkpt>
<trkpt lat="42.17219" lon="23.370302"><ele>2477.2</ele><time>2026-03-02T08:00:38.000Z</time></trkpt>
<trkpt lat="42.172187" lon="23.370301"><ele>2477.2</ele><time>2026-03-02T08:00:39.000Z</time></trkpt>
<trkpt lat="42.172184" lon="23.3703"><ele>2477.2</ele><time>2026-03-02T08:00:40.000Z</time></trkpt>
<trkpt lat="42.172183" lon="23.370299"><ele>2477.2</ele><time>2026-03-02T08:00:41.000Z</time></trkpt>
<trkpt lat="42.172182" lon="23.3703"><ele>2477.2</ele><time>2026-03-02T08:00:42.000Z</time></trkpt>
<trkpt lat="42.172182" lon="23.370299"><ele>2477.2</ele><time>2026-03-02T08:00:43.000Z</time></trkpt>
<trkpt lat="42.172182" lon="23.3703"><ele>2477.2</ele><time>2026-03-02T08:00:44.000Z</time></trkpt>
<trkpt lat="42.172182" lon="23.3703"><ele>2477.4</ele><time>2026-03-02T08:00:45.000Z</time></trkpt>
<trkpt lat="42.172182" lon="23.3703"><ele>2477.4</ele><time>2026-03-02T08:00:46.000Z</time></trkpt>
<trkpt lat="42.172182" lon="23.3703"><ele>2477.4</ele><time>2026-03-02T08:00:47.000Z</time></trkpt>
<trkpt lat="42.172181" lon="23.370299"><ele>2477.4</ele><time>2026-03-02T08:00:48.000Z</time></trkpt>
<trkpt lat="42.17218" lon="23.370297"><ele>2477.4</ele><time>2026-03-02T08:00:49.000Z</time></trkpt>
<trkpt lat="42.172179" lon="23.370296"><ele>2477.5</ele><time>2026-03-02T08:00:50.000Z</time></trkpt>
<trkpt lat="42.172179" lon="23.370294"><ele>2477.5</ele><time>2026-03-02T08:00:51.000Z</time></trkpt>
<trkpt lat="42.172178" lon="23.370293"><ele>2477.5</ele><time>2026-03-02T08:00:52.000Z</time></trkpt>
<trkpt lat="42.172179" lon="23.370293"><ele>2477.5</ele><time>2026-03-02T08:00:53.000Z</time></trkpt>
<trkpt lat="42.172179" lon="23.370293"><ele>2477.5</ele><time>2026-03-02T08:00:54.000Z</time></trkpt>
<trkpt lat="42.172181" lon="23.370293"><ele>2477.4</ele><time>2026-03-02T08:00:55.000Z</time></trkpt>
<trkpt lat="42.172183" lon="23.370293"><ele>2477.4</ele><time>2026-03-02T08:00:56.000Z</time></trkpt>
<trkpt lat="42.172186" lon="23.370292"><ele>2477.4</ele><time>2026-03-02T08:00:57.000Z</time></trkpt>
<trkpt lat="42.172189" lon="23.37029"><ele>2477.4</ele><time>2026-03-02T08:00:58.000Z</time></trkpt>
<trkpt lat="42.172192" lon="23.370289"><ele>2477.4</ele><time>2026-03-02T08:00:59.000Z</time></trkpt>
<trkpt lat="42.172194" lon="23.370286"><ele>2477.5</ele><time>2026-03-02T08:01:00.000Z</time></trkpt>
<trkpt lat="42.172195" lon="23.370282"><ele>2477.5</ele><time>2026-03-02T08:01:01.000Z</time></trkpt>
<trkpt lat="42.172196" lon="23.370276"><ele>2477.5</ele><time>2026-03-02T08:01:02.000Z</time></trkpt>
<trkpt lat="42.172196" lon="23.37027"><ele>2477.5</ele><time>2026-03-02T08:01:03.000Z</time></trkpt>
<trkpt lat="42.172195" lon="23.370263"><ele>2477.5</ele><time>2026-03-02T08:01:04.000Z</time></trkpt>
<trkpt lat="42.172194" lon="23.370256"><ele>2477.7</ele><time>2026-03-02T08:01:05.000Z</time></trkpt>
<trkpt lat="42.172193" lon="23.370249"><ele>2477.7</ele><time>2026-03-02T08:01:06.000Z</time></trkpt>
<trkpt lat="42.172192" lon="23.370243"><ele>2477.7</ele><time>2026-03-02T08:01:07.000Z</time></trkpt>
<trkpt lat="42.172192" lon="23.370236"><ele>2477.7</ele><time>2026-03-02T08:01:08.000Z</time></trkpt>
<trkpt lat="42.172192" lon="23.370228"><ele>2477.7</ele><time>2026-03-02T08:01:09.000Z</time></trkpt>
<trkpt lat="42.172192" lon="23.370221"><ele>2478</ele><time>2026-03-02T08:01:10.000Z</time></trkpt>
<trkpt lat="42.172193" lon="23.370214"><ele>2478</ele><time>2026-03-02T08:01:11.000Z</time></trkpt>
<trkpt lat="42.172194" lon="23.370206"><ele>2478</ele><time>2026-03-02T08:01:12.000Z</time></trkpt>
<trkpt lat="42.172195" lon="23.370199"><ele>2478</ele><time>2026-03-02T08:01:13.000Z</time></trkpt>
<trkpt lat="42.172197" lon="23.370192"><ele>2478</ele><time>2026-03-02T08:01:14.000Z</time></trkpt>
<trkpt lat="42.172199" lon="23.370185"><ele>2478.8</ele><time>2026-03-02T08:01:15.000Z</time></trkpt>
<trkpt lat="42.172202" lon="23.370178"><ele>2478.8</ele><time>2026-03-02T08:01:16.000Z</time></trkpt>
<trkpt lat="42.172206" lon="23.370171"><ele>2478.8</ele><time>2026-03-02T08:01:17.000Z</time></trkpt>
<trkpt lat="42.172211" lon="23.370165"><ele>2478.8</ele><time>2026-03-02T08:01:18.000Z</time></trkpt>
<trkpt lat="42.172216" lon="23.370159"><ele>2478.8</ele><time>2026-03-02T08:01:19.000Z</time></trkpt>
<trkpt lat="42.172222" lon="23.370152"><ele>2479.7</ele><time>2026-03-02T08:01:20.000Z</time></trkpt>
<trkpt lat="42.172225" lon="23.370143"><ele>2479.7</ele><time>2026-03-02T08:01:21.000Z</time></trkpt>
<trkpt lat="42.172228" lon="23.370134"><ele>2479.7</ele><time>2026-03-02T08:01:22.000Z</time></trkpt>
<trkpt lat="42.172228" lon="23.370123"><ele>2479.7</ele><time>2026-03-02T08:01:23.000Z</time></trkpt>
<trkpt lat="42.172227" lon="23.370111"><ele>2479.7</ele><time>2026-03-02T08:01:24.000Z</time></trkpt>
<trkpt lat="42.172224" lon="23.370098"><ele>2480.2</ele><time>2026-03-02T08:01:25.000Z</time></trkpt>
<trkpt lat="42.172222" lon="23.370086"><ele>2480.2</ele><time>2026-03-02T08:01:26.000Z</time></trkpt>
<trkpt lat="42.17222" lon="23.370075"><ele>2480.2</ele><time>2026-03-02T08:01:27.000Z</time></trkpt>
<trkpt lat="42.172217" lon="23.370062"><ele>2480.2</ele><time>2026-03-02T08:01:28.000Z</time></trkpt>
<trkpt lat="42.172215" lon="23.370049"><ele>2480.2</ele><time>2026-03-02T08:01:29.000Z</time></trkpt>
<trkpt lat="42.172213" lon="23.370037"><ele>2481.2</ele><time>2026-03-02T08:01:30.000Z</time></trkpt>
<trkpt lat="42.17221" lon="23.370023"><ele>2481.2</ele><time>2026-03-02T08:01:31.000Z</time></trkpt>
<trkpt lat="42.172206" lon="23.370009"><ele>2481.2</ele><time>2026-03-02T08:01:32.000Z</time></trkpt>
<trkpt lat="42.172203" lon="23.369996"><ele>2481.2</ele><time>2026-03-02T08:01:33.000Z</time></trkpt>
<trkpt lat="42.1722" lon="23.369983"><ele>2481.2</ele><time>2026-03-02T08:01:34.000Z</time></trkpt>
<trkpt lat="42.172196" lon="23.36997"><ele>2482.1</ele><time>2026-03-02T08:01:35.000Z</time></trkpt>
<trkpt lat="42.172192" lon="23.369958"><ele>2482.1</ele><time>2026-03-02T08:01:36.000Z</time></trkpt>
<trkpt lat="42.172189" lon="23.369946"><ele>2482.1</ele><time>2026-03-02T08:01:37.000Z</time></trkpt>
<trkpt lat="42.172187" lon="23.369933"><ele>2482.1</ele><time>2026-03-02T08:01:38.000Z</time></trkpt>
<trkpt lat="42.172184" lon="23.369922"><ele>2482.1</ele><time>2026-03-02T08:01:39.000Z</time></trkpt>
<trkpt lat="42.172182" lon="23.369911"><ele>2482.5</ele><time>2026-03-02T08:01:40.000Z</time></trkpt>
<trkpt lat="42.17218" lon="23.369898"><ele>2482.5</ele><time>2026-03-02T08:01:41.000Z</time></trkpt>
<trkpt lat="42.172177" lon="23.369886"><ele>2482.5</ele><time>2026-03-02T08:01:42.000Z</time></trkpt>
<trkpt lat="42.172175" lon="23.369874"><ele>2482.5</ele><time>2026-03-02T08:01:43.000Z</time></trkpt>
<trkpt lat="42.172173" lon="23.36986"><ele>2482.5</ele><time>2026-03-02T08:01:44.000Z</time></trkpt>
<trkpt lat="42.172173" lon="23.369847"><ele>2483.1</ele><time>2026-03-02T08:01:45.000Z</time></trkpt>
<trkpt lat="42.172173" lon="23.369835"><ele>2483.1</ele><time>2026-03-02T08:01:46.000Z</time></trkpt>
<trkpt lat="42.172174" lon="23.369823"><ele>2483.1</ele><time>2026-03-02T08:01:47.000Z</time></trkpt>
<trkpt lat="42.172175" lon="23.369812"><ele>2483.1</ele><time>2026-03-02T08:01:48.000Z</time></trkpt>
<trkpt lat="42.172177" lon="23.369801"><ele>2483.1</ele><time>2026-03-02T08:01:49.000Z</time></trkpt>
<trkpt lat="42.172178" lon="23.36979"><ele>2483.4</ele><time>2026-03-02T08:01:50.000Z</time></trkpt>
<trkpt lat="42.172179" lon="23.36978"><ele>2483.4</ele><time>2026-03-02T08:01:51.000Z</time></trkpt>
<trkpt lat="42.172181" lon="23.36977"><ele>2483.4</ele><time>2026-03-02T08:01:52.000Z</time></trkpt>
<trkpt lat="42.172182" lon="23.369762"><ele>2483.4</ele><time>2026-03-02T08:01:53.000Z</time></trkpt>
<trkpt lat="42.172184" lon="23.369755"><ele>2483.4</ele><time>2026-03-02T08:01:54.000Z</time></trkpt>
<trkpt lat="42.172185" lon="23.369751"><ele>2483.5</ele><time>2026-03-02T08:01:55.000Z</time></trkpt>
<trkpt lat="42.172186" lon="23.369748"><ele>2483.5</ele><time>2026-03-02T08:01:56.000Z</time></trkpt>
<trkpt lat="42.172187" lon="23.369748"><ele>2483.5</ele><time>2026-03-02T08:01:57.000Z</time></trkpt>
<trkpt lat="42.172188" lon="23.369748"><ele>2483.5</ele><time>2026-03-02T08:01:58.000Z</time></trkpt>
<trkpt lat="42.17219" lon="23.369748"><ele>2483.5</ele><time>2026-03-02T08:01:59.000Z</time></trkpt>
<trkpt lat="42.172191" lon="23.369748"><ele>2483.7</ele><time>2026-03-02T08:02:00.000Z</time></trkpt>
<trkpt lat="42.172193" lon="23.369749"><ele>2483.7</ele><time>2026-03-02T08:02:01.000Z</time></trkpt>
<trkpt lat="42.172193" lon="23.369749"><ele>2483.7</ele><time>2026-03-02T08:02:02.000Z</time></trkpt>
<trkpt lat="42.172194" lon="23.369749"><ele>2483.7</ele><time>2026-03-02T08:02:03.000Z</time></trkpt>
<trkpt lat="42.172193" lon="23.369749"><ele>2483.7</ele><time>2026-03-02T08:02:04.000Z</time></trkpt>
<trkpt lat="42.172193" lon="23.369749"><ele>2484.1</ele><time>2026-03-02T08:02:05.000Z</time></trkpt>
<trkpt lat="42.172193" lon="23.36975"><ele>2484.1</ele><time>2026-03-02T08:02:06.000Z</time></trkpt>
<trkpt lat="42.172193" lon="23.36975"><ele>2484.1</ele><time>2026-03-02T08:02:07.000Z</time></trkpt>
<trkpt lat="42.172193" lon="23.36975"><ele>2484.1</ele><time>2026-03-02T08:02:08.000Z</time></trkpt>
<trkpt lat="42.172194" lon="23.369751"><ele>2484.1</ele><time>2026-03-02T08:02:09.000Z</time></trkpt>
<trkpt lat="42.172194" lon="23.369751"><ele>2484.3</ele><time>2026-03-02T08:02:10.000Z</time></trkpt>
<trkpt lat="42.172195" lon="23.369751"><ele>2484.3</ele><time>2026-03-02T08:02:11.000Z</time></trkpt>
<trkpt lat="42.172195" lon="23.369751"><ele>2484.3</ele><time>2026-03-02T08:02:12.000Z</time></trkpt>
<trkpt lat="42.172195" lon="23.369751"><ele>2484.3</ele><time>2026-03-02T08:02:13.000Z</time></trkpt>
<trkpt lat="42.172194" lon="23.369752"><ele>2484.3</ele><time>2026-03-02T08:02:14.000Z</time></trkpt>
<trkpt lat="42.172194" lon="23.369752"><ele>2484.4</ele><time>2026-03-02T08:02:15.000Z</time></trkpt>
<trkpt lat="42.172194" lon="23.369754"><ele>2484.4</ele><time>2026-03-02T08:02:16.000Z</time></trkpt>
<trkpt lat="42.172194" lon="23.369755"><ele>2484.4</ele><time>2026-03-02T08:02:17.000Z</time></trkpt>
<trkpt lat="42.172194" lon="23.369756"><ele>2484.4</ele><time>2026-03-02T08:02:18.000Z</time></trkpt>
<trkpt lat="42.172194" lon="23.369757"><ele>2484.4</ele><time>2026-03-02T08:02:19.000Z</time></trkpt>
<trkpt lat="42.172194" lon="23.369759"><ele>2484.3</ele><time>2026-03-02T08:02:20.000Z</time></trkpt>
<trkpt lat="42.172194" lon="23.36976"><ele>2484.3</ele><time>2026-03-02T08:02:21.000Z</time></trkpt>
<trkpt lat="42.172193" lon="23.369761"><ele>2484.3</ele><time>2026-03-02T08:02:22.000Z</time></trkpt>
<trkpt lat="42.172194" lon="23.369762"><ele>2484.3</ele><time>2026-03-02T08:02:23.000Z</time></trkpt>
<trkpt lat="42.172194" lon="23.369763"><ele>2484.3</ele><time>2026-03-02T08:02:24.000Z</time></trkpt>
<trkpt lat="42.172195" lon="23.369763"><ele>2484.3</ele><time>2026-03-02T08:02:25.000Z</time></trkpt>
<trkpt lat="42.172196" lon="23.369764"><ele>2484.3</ele><time>2026-03-02T08:02:26.000Z</time></trkpt>
<trkpt lat="42.172196" lon="23.369764"><ele>2484.3</ele><time>2026-03-02T08:02:27.000Z</time></trkpt>
<trkpt lat="42.172195" lon="23.369765"><ele>2484.3</ele><time>2026-03-02T08:02:28.000Z</time></trkpt>
<trkpt lat="42.172194" lon="23.369765"><ele>2484.3</ele><time>2026-03-02T08:02:29.000Z</time></trkpt>
<trkpt lat="42.172194" lon="23.369765"><ele>2484.3</ele><time>2026-03-02T08:02:30.000Z</time></trkpt>
<trkpt lat="42.172193" lon="23.369765"><ele>2484.3</ele><time>2026-03-02T08:02:31.000Z</time></trkpt>
<trkpt lat="42.172193" lon="23.369765"><ele>2484.3</ele><time>2026-03-02T08:02:32.000Z</time></trkpt>
<trkpt lat="42.172194" lon="23.369764"><ele>2484.3</ele><time>2026-03-02T08:02:33.000Z</time></trkpt>
<trkpt lat="42.172195" lon="23.369763"><ele>2484.3</ele><time>2026-03-02T08:02:34.000Z</time></trkpt>
<trkpt lat="42.172195" lon="23.369762"><ele>2484.4</ele><time>2026-03-02T08:02:35.000Z</time></trkpt>
<trkpt lat="42.172196" lon="23.369761"><ele>2484.4</ele><time>2026-03-02T08:02:36.000Z</time></trkpt>
<trkpt lat="42.172196" lon="23.36976"><ele>2484.4</ele><time>2026-03-02T08:02:37.000Z</time></trkpt>
<trkpt lat="42.172196" lon="23.36976"><ele>2484.4</ele><time>2026-03-02T08:02:38.000Z</time></trkpt>
<trkpt lat="42.172196" lon="23.36976"><ele>2484.4</ele><time>2026-03-02T08:02:39.000Z</time></trkpt>
<trkpt lat="42.172196" lon="23.369759"><ele>2484.4</ele><time>2026-03-02T08:02:40.000Z</time></trkpt>
<trkpt lat="42.172196" lon="23.369759"><ele>2484.4</ele><time>2026-03-02T08:02:41.000Z</time></trkpt>
<trkpt lat="42.172196" lon="23.36976"><ele>2484.4</ele><time>2026-03-02T08:02:42.000Z</time></trkpt>
<trkpt lat="42.172196" lon="23.36976"><ele>2484.4</ele><time>2026-03-02T08:02:43.000Z</time></trkpt>
<trkpt lat="42.172196" lon="23.36976"><ele>2484.4</ele><time>2026-03-02T08:02:44.000Z</time></trkpt>
<trkpt lat="42.172195" lon="23.36976"><ele>2484.5</ele><time>2026-03-02T08:02:45.000Z</time></trkpt>
<trkpt lat="42.172195" lon="23.36976"><ele>2484.5</ele><time>2026-03-02T08:02:46.000Z</time></trkpt>
<trkpt lat="42.172195" lon="23.36976"><ele>2484.5</ele><time>2026-03-02T08:02:47.000Z</time></trkpt>
<trkpt lat="42.172195" lon="23.36976"><ele>2484.5</ele><time>2026-03-02T08:02:48.000Z</time></trkpt>
<trkpt lat="42.172196" lon="23.369761"><ele>2484.5</ele><time>2026-03-02T08:02:49.000Z</time></trkpt>
<trkpt lat="42.172198" lon="23.369763"><ele>2484.5</ele><time>2026-03-02T08:02:50.000Z</time></trkpt>
<trkpt lat="42.172199" lon="23.369764"><ele>2484.5</ele><time>2026-03-02T08:02:51.000Z</time></trkpt>
<trkpt lat="42.1722" lon="23.369765"><ele>2484.5</ele><time>2026-03-02T08:02:52.000Z</time></trkpt>
<trkpt lat="42.172201" lon="23.369766"><ele>2484.5</ele><time>2026-03-02T08:02:53.000Z</time></trkpt>
<trkpt lat="42.172201" lon="23.369765"><ele>2484.5</ele><time>2026-03-02T08:02:54.000Z</time></trkpt>
<trkpt lat="42.1722" lon="23.369764"><ele>2484.6</ele><time>2026-03-02T08:02:55.000Z</time></trkpt>
<trkpt lat="42.1722" lon="23.369762"><ele>2484.6</ele><time>2026-03-02T08:02:56.000Z</time></trkpt>
<trkpt lat="42.1722" lon="23.369761"><ele>2484.6</ele><time>2026-03-02T08:02:57.000Z</time></trkpt>
<trkpt lat="42.1722" lon="23.369761"><ele>2484.6</ele><time>2026-03-02T08:02:58.000Z</time></trkpt>
<trkpt lat="42.172201" lon="23.369761"><ele>2484.6</ele><time>2026-03-02T08:02:59.000Z</time></trkpt>
<trkpt lat="42.172201" lon="23.36976"><ele>2484.7</ele><time>2026-03-02T08:03:00.000Z</time></trkpt>
<trkpt lat="42.172202" lon="23.36976"><ele>2484.7</ele><time>2026-03-02T08:03:01.000Z</time></trkpt>
<trkpt lat="42.172202" lon="23.36976"><ele>2484.7</ele><time>2026-03-02T08:03:02.000Z</time></trkpt>
<trkpt lat="42.172201" lon="23.36976"><ele>2484.7</ele><time>2026-03-02T08:03:03.000Z</time></trkpt>
<trkpt lat="42.172201" lon="23.36976"><ele>2484.7</ele><time>2026-03-02T08:03:04.000Z</time></trkpt>
<trkpt lat="42.1722" lon="23.36976"><ele>2484.7</ele><time>2026-03-02T08:03:05.000Z</time></trkpt>
<trkpt lat="42.1722" lon="23.369759"><ele>2484.7</ele><time>2026-03-02T08:03:06.000Z</time></trkpt>
<trkpt lat="42.1722" lon="23.369758"><ele>2484.7</ele><time>2026-03-02T08:03:07.000Z</time></trkpt>
<trkpt lat="42.1722" lon="23.369758"><ele>2484.7</ele><time>2026-03-02T08:03:08.000Z</time></trkpt>
<trkpt lat="42.172201" lon="23.369758"><ele>2484.7</ele><time>2026-03-02T08:03:09.000Z</time></trkpt>
<trkpt lat="42.172201" lon="23.369757"><ele>2484.7</ele><time>2026-03-02T08:03:10.000Z</time></trkpt>
<trkpt lat="42.172201" lon="23.369757"><ele>2484.7</ele><time>2026-03-02T08:03:11.000Z</time></trkpt>
<trkpt lat="42.172201" lon="23.369757"><ele>2484.7</ele><time>2026-03-02T08:03:12.000Z</time></trkpt>
<trkpt lat="42.1722" lon="23.369757"><ele>2484.7</ele><time>2026-03-02T08:03:13.000Z</time></trkpt>
<trkpt lat="42.172198" lon="23.369758"><ele>2484.7</ele><time>2026-03-02T08:03:14.000Z</time></trkpt>
<trkpt lat="42.172196" lon="23.369758"><ele>2484.7</ele><time>2026-03-02T08:03:15.000Z</time></trkpt>
<trkpt lat="42.172195" lon="23.369759"><ele>2484.7</ele><time>2026-03-02T08:03:16.000Z</time></trkpt>
<trkpt lat="42.172195" lon="23.36976"><ele>2484.7</ele><time>2026-03-02T08:03:17.000Z</time></trkpt>
<trkpt lat="42.172196" lon="23.369761"><ele>2484.7</ele><time>2026-03-02T08:03:18.000Z</time></trkpt>
<trkpt lat="42.172198" lon="23.369762"><ele>2484.7</ele><time>2026-03-02T08:03:19.000Z</time></trkpt>
<trkpt lat="42.172199" lon="23.369764"><ele>2484.8</ele><time>2026-03-02T08:03:20.000Z</time></trkpt>
<trkpt lat="42.1722" lon="23.369765"><ele>2484.8</ele><time>2026-03-02T08:03:21.000Z</time></trkpt>
<trkpt lat="42.1722" lon="23.369764"><ele>2484.8</ele><time>2026-03-02T08:03:22.000Z</time></trkpt>
<trkpt lat="42.1722" lon="23.369764"><ele>2484.8</ele><time>2026-03-02T08:03:23.000Z</time></trkpt>
<trkpt lat="42.172201" lon="23.369762"><ele>2484.8</ele><time>2026-03-02T08:03:24.000Z</time></trkpt>
<trkpt lat="42.172202" lon="23.369761"><ele>2484.7</ele><time>2026-03-02T08:03:25.000Z</time></trkpt>
<trkpt lat="42.172203" lon="23.36976"><ele>2484.7</ele><time>2026-03-02T08:03:26.000Z</time></trkpt>
<trkpt lat="42.172205" lon="23.36976"><ele>2484.7</ele><time>2026-03-02T08:03:27.000Z</time></trkpt>
<trkpt lat="42.172206" lon="23.369762"><ele>2484.7</ele><time>2026-03-02T08:03:28.000Z</time></trkpt>
<trkpt lat="42.172207" lon="23.369764"><ele>2484.7</ele><time>2026-03-02T08:03:29.000Z</time></trkpt>
<trkpt lat="42.172208" lon="23.369766"><ele>2484.7</ele><time>2026-03-02T08:03:30.000Z</time></trkpt>
<trkpt lat="42.172209" lon="23.369769"><ele>2484.7</ele><time>2026-03-02T08:03:31.000Z</time></trkpt>
<trkpt lat="42.172211" lon="23.369772"><ele>2484.7</ele><time>2026-03-02T08:03:32.000Z</time></trkpt>
<trkpt lat="42.172212" lon="23.369772"><ele>2484.7</ele><time>2026-03-02T08:03:33.000Z</time></trkpt>
<trkpt lat="42.172214" lon="23.369771"><ele>2484.7</ele><time>2026-03-02T08:03:34.000Z</time></trkpt>
<trkpt lat="42.172217" lon="23.369771"><ele>2484.7</ele><time>2026-03-02T08:03:35.000Z</time></trkpt>
<trkpt lat="42.172219" lon="23.36977"><ele>2484.7</ele><time>2026-03-02T08:03:36.000Z</time></trkpt>
<trkpt lat="42.17222" lon="23.369768"><ele>2484.7</ele><time>2026-03-02T08:03:37.000Z</time></trkpt>
<trkpt lat="42.17222" lon="23.369765"><ele>2484.7</ele><time>2026-03-02T08:03:38.000Z</time></trkpt>
<trkpt lat="42.17222" lon="23.369763"><ele>2484.7</ele><time>2026-03-02T08:03:39.000Z</time></trkpt>
<trkpt lat="42.17222" lon="23.369761"><ele>2484.8</ele><time>2026-03-02T08:03:40.000Z</time></trkpt>
<trkpt lat="42.172219" lon="23.369759"><ele>2484.8</ele><time>2026-03-02T08:03:41.000Z</time></trkpt>
<trkpt lat="42.172219" lon="23.369759"><ele>2484.8</ele><time>2026-03-02T08:03:42.000Z</time></trkpt>
<trkpt lat="42.172219" lon="23.369761"><ele>2484.8</ele><time>2026-03-02T08:03:43.000Z</time></trkpt>
<trkpt lat="42.172219" lon="23.369762"><ele>2484.8</ele><time>2026-03-02T08:03:44.000Z</time></trkpt>
<trkpt lat="42.17222" lon="23.369763"><ele>2484.8</ele><time>2026-03-02T08:03:45.000Z</time></trkpt>
<trkpt lat="42.17222" lon="23.369765"><ele>2484.8</ele><time>2026-03-02T08:03:46.000Z</time></trkpt>
<trkpt lat="42.17222" lon="23.369765"><ele>2484.8</ele><time>2026-03-02T08:03:47.000Z</time></trkpt>
<trkpt lat="42.172219" lon="23.369766"><ele>2484.8</ele><time>2026-03-02T08:03:48.000Z</time></trkpt>
<trkpt lat="42.17222" lon="23.369768"><ele>2484.8</ele><time>2026-03-02T08:03:49.000Z</time></trkpt>
<trkpt lat="42.172219" lon="23.369771"><ele>2484.7</ele><time>2026-03-02T08:03:50.000Z</time></trkpt>
<trkpt lat="42.172219" lon="23.369774"><ele>2484.7</ele><time>2026-03-02T08:03:51.000Z</time></trkpt>
<trkpt lat="42.17222" lon="23.369777"><ele>2484.7</ele><time>2026-03-02T08:03:52.000Z</time></trkpt>
<trkpt lat="42.17222" lon="23.369779"><ele>2484.7</ele><time>2026-03-02T08:03:53.000Z</time></trkpt>
<trkpt lat="42.172219" lon="23.36978"><ele>2484.7</ele><time>2026-03-02T08:03:54.000Z</time></trkpt>
<trkpt lat="42.172219" lon="23.36978"><ele>2484.6</ele><time>2026-03-02T08:03:55.000Z</time></trkpt>
<trkpt lat="42.172218" lon="23.369781"><ele>2484.6</ele><time>2026-03-02T08:03:56.000Z</time></trkpt>
<trkpt lat="42.172217" lon="23.369781"><ele>2484.6</ele><time>2026-03-02T08:03:57.000Z</time></trkpt>
<trkpt lat="42.172216" lon="23.369781"><ele>2484.6</ele><time>2026-03-02T08:03:58.000Z</time></trkpt>
<trkpt lat="42.172215" lon="23.369781"><ele>2484.6</ele><time>2026-03-02T08:03:59.000Z</time></trkpt>
<trkpt lat="42.172215" lon="23.369781"><ele>2484.7</ele><time>2026-03-02T08:04:00.000Z</time></trkpt>
<trkpt lat="42.172215" lon="23.36978"><ele>2484.7</ele><time>2026-03-02T08:04:01.000Z</time></trkpt>
<trkpt lat="42.172214" lon="23.36978"><ele>2484.7</ele><time>2026-03-02T08:04:02.000Z</time></trkpt>
<trkpt lat="42.172213" lon="23.369781"><ele>2484.7</ele><time>2026-03-02T08:04:03.000Z</time></trkpt>
<trkpt lat="42.172212" lon="23.369781"><ele>2484.7</ele><time>2026-03-02T08:04:04.000Z</time></trkpt>
<trkpt lat="42.17221" lon="23.369782"><ele>2484.9</ele><time>2026-03-02T08:04:05.000Z</time></trkpt>
<trkpt lat="42.172208" lon="23.369782"><ele>2484.9</ele><time>2026-03-02T08:04:06.000Z</time></trkpt>
<trkpt lat="42.172206" lon="23.369782"><ele>2484.9</ele><time>2026-03-02T08:04:07.000Z</time></trkpt>
<trkpt lat="42.172203" lon="23.369781"><ele>2484.9</ele><time>2026-03-02T08:04:08.000Z</time></trkpt>
<trkpt lat="42.172202" lon="23.36978"><ele>2484.9</ele><time>2026-03-02T08:04:09.000Z</time></trkpt>
<trkpt lat="42.1722" lon="23.369779"><ele>2484.9</ele><time>2026-03-02T08:04:10.000Z</time></trkpt>
<trkpt lat="42.172198" lon="23.369778"><ele>2484.9</ele><time>2026-03-02T08:04:11.000Z</time></trkpt>
<trkpt lat="42.172197" lon="23.369777"><ele>2484.9</ele><time>2026-03-02T08:04:12.000Z</time></trkpt>
<trkpt lat="42.172196" lon="23.369777"><ele>2484.9</ele><time>2026-03-02T08:04:13.000Z</time></trkpt>
<trkpt lat="42.172195" lon="23.369777"><ele>2484.9</ele><time>2026-03-02T08:04:14.000Z</time></trkpt>
<trkpt lat="42.172196" lon="23.369778"><ele>2485</ele><time>2026-03-02T08:04:15.000Z</time></trkpt>
<trkpt lat="42.172196" lon="23.369778"><ele>2485</ele><time>2026-03-02T08:04:16.000Z</time></trkpt>
<trkpt lat="42.172197" lon="23.369778"><ele>2485</ele><time>2026-03-02T08:04:17.000Z</time></trkpt>
<trkpt lat="42.172197" lon="23.369779"><ele>2485</ele><time>2026-03-02T08:04:18.000Z</time></trkpt>
<trkpt lat="42.172197" lon="23.369779"><ele>2485</ele><time>2026-03-02T08:04:19.000Z</time></trkpt>
<trkpt lat="42.172196" lon="23.369778"><ele>2485.1</ele><time>2026-03-02T08:04:20.000Z</time></trkpt>
<trkpt lat="42.172194" lon="23.369777"><ele>2485.1</ele><time>2026-03-02T08:04:21.000Z</time></trkpt>
<trkpt lat="42.172193" lon="23.369777"><ele>2485.1</ele><time>2026-03-02T08:04:22.000Z</time></trkpt>
<trkpt lat="42.172191" lon="23.369776"><ele>2485.1</ele><time>2026-03-02T08:04:23.000Z</time></trkpt>
<trkpt lat="42.172191" lon="23.369776"><ele>2485.1</ele><time>2026-03-02T08:04:24.000Z</time></trkpt>
<trkpt lat="42.172192" lon="23.369776"><ele>2485</ele><time>2026-03-02T08:04:25.000Z</time></trkpt>
<trkpt lat="42.172194" lon="23.369776"><ele>2485</ele><time>2026-03-02T08:04:26.000Z</time></trkpt>
<trkpt lat="42.172195" lon="23.369776"><ele>2485</ele><time>2026-03-02T08:04:27.000Z</time></trkpt>
<trkpt lat="42.172197" lon="23.369776"><ele>2485</ele><time>2026-03-02T08:04:28.000Z</time></trkpt>
<trkpt lat="42.172197" lon="23.369776"><ele>2485</ele><time>2026-03-02T08:04:29.000Z</time></trkpt>
<trkpt lat="42.172197" lon="23.369775"><ele>2484.9</ele><time>2026-03-02T08:04:30.000Z</time></trkpt>
<trkpt lat="42.172197" lon="23.369775"><ele>2484.9</ele><time>2026-03-02T08:04:31.000Z</time></trkpt>
<trkpt lat="42.172197" lon="23.369775"><ele>2484.9</ele><time>2026-03-02T08:04:32.000Z</time></trkpt>
<trkpt lat="42.172197" lon="23.369775"><ele>2484.9</ele><time>2026-03-02T08:04:33.000Z</time></trkpt>
<trkpt lat="42.172197" lon="23.369774"><ele>2484.9</ele><time>2026-03-02T08:04:34.000Z</time></trkpt>
<trkpt lat="42.172197" lon="23.369772"><ele>2484.7</ele><time>2026-03-02T08:04:35.000Z</time></trkpt>
<trkpt lat="42.172197" lon="23.36977"><ele>2484.7</ele><time>2026-03-02T08:04:36.000Z</time></trkpt>
<trkpt lat="42.172196" lon="23.369769"><ele>2484.7</ele><time>2026-03-02T08:04:37.000Z</time></trkpt>
<trkpt lat="42.172196" lon="23.369768"><ele>2484.7</ele><time>2026-03-02T08:04:38.000Z</time></trkpt>
<trkpt lat="42.172197" lon="23.369771"><ele>2484.7</ele><time>2026-03-02T08:04:39.000Z</time></trkpt>
<trkpt lat="42.172197" lon="23.369773"><ele>2484.7</ele><time>2026-03-02T08:04:40.000Z</time></trkpt>
<trkpt lat="42.172198" lon="23.369776"><ele>2484.7</ele><time>2026-03-02T08:04:41.000Z</time></trkpt>
<trkpt lat="42.172199" lon="23.369778"><ele>2484.7</ele><time>2026-03-02T08:04:42.000Z</time></trkpt>
<trkpt lat="42.1722" lon="23.36978"><ele>2484.7</ele><time>2026-03-02T08:04:43.000Z</time></trkpt>
<trkpt lat="42.172202" lon="23.369781"><ele>2484.7</ele><time>2026-03-02T08:04:44.000Z</time></trkpt>
<trkpt lat="42.172203" lon="23.369783"><ele>2484.8</ele><time>2026-03-02T08:04:45.000Z</time></trkpt>
<trkpt lat="42.172205" lon="23.369785"><ele>2484.8</ele><time>2026-03-02T08:04:46.000Z</time></trkpt>
<trkpt lat="42.172207" lon="23.369787"><ele>2484.8</ele><time>2026-03-02T08:04:47.000Z</time></trkpt>
<trkpt lat="42.172208" lon="23.369788"><ele>2484.8</ele><time>2026-03-02T08:04:48.000Z</time></trkpt>
<trkpt lat="42.172209" lon="23.369789"><ele>2484.8</ele><time>2026-03-02T08:04:49.000Z</time></trkpt>
<trkpt lat="42.172209" lon="23.36979"><ele>2485</ele><time>2026-03-02T08:04:50.000Z</time></trkpt>
<trkpt lat="42.17221" lon="23.36979"><ele>2485</ele><time>2026-03-02T08:04:51.000Z</time></trkpt>
<trkpt lat="42.17221" lon="23.36979"><ele>2485</ele><time>2026-03-02T08:04:52.000Z</time></trkpt>
<trkpt lat="42.17221" lon="23.36979"><ele>2485</ele><time>2026-03-02T08:04:53.000Z</time></trkpt>
<trkpt lat="42.17221" lon="23.369789"><ele>2485</ele><time>2026-03-02T08:04:54.000Z</time></trkpt>
<trkpt lat="42.17221" lon="23.369788"><ele>2485</ele><time>2026-03-02T08:04:55.000Z</time></trkpt>
<trkpt lat="42.17221" lon="23.369787"><ele>2485</ele><time>2026-03-02T08:04:56.000Z</time></trkpt>
<trkpt lat="42.172211" lon="23.369785"><ele>2485</ele><time>2026-03-02T08:04:57.000Z</time></trkpt>
<trkpt lat="42.172211" lon="23.369784"><ele>2485</ele><time>2026-03-02T08:04:58.000Z</time></trkpt>
<trkpt lat="42.172212" lon="23.369783"><ele>2485</ele><time>2026-03-02T08:04:59.000Z</time></trkpt>
<trkpt lat="42.172211" lon="23.369783"><ele>2484.9</ele><time>2026-03-02T08:05:00.000Z</time></trkpt>
<trkpt lat="42.172211" lon="23.369783"><ele>2484.9</ele><time>2026-03-02T08:05:01.000Z</time></trkpt>
<trkpt lat="42.172211" lon="23.369783"><ele>2484.9</ele><time>2026-03-02T08:05:02.000Z</time></trkpt>
<trkpt lat="42.172211" lon="23.369782"><ele>2484.9</ele><time>2026-03-02T08:05:03.000Z</time></trkpt>
<trkpt lat="42.17221" lon="23.369782"><ele>2484.9</ele><time>2026-03-02T08:05:04.000Z</time></trkpt>
<trkpt lat="42.172209" lon="23.36978"><ele>2485</ele><time>2026-03-02T08:05:05.000Z</time></trkpt>
<trkpt lat="42.172207" lon="23.369779"><ele>2485</ele><time>2026-03-02T08:05:06.000Z</time></trkpt>
<trkpt lat="42.172205" lon="23.369778"><ele>2485</ele><time>2026-03-02T08:05:07.000Z</time></trkpt>
<trkpt lat="42.172203" lon="23.369777"><ele>2485</ele><time>2026-03-02T08:05:08.000Z</time></trkpt>
<trkpt lat="42.172201" lon="23.369777"><ele>2485</ele><time>2026-03-02T08:05:09.000Z</time></trkpt>
<trkpt lat="42.172201" lon="23.369779"><ele>2485</ele><time>2026-03-02T08:05:10.000Z</time></trkpt>
<trkpt lat="42.1722" lon="23.36978"><ele>2485</ele><time>2026-03-02T08:05:11.000Z</time></trkpt>
<trkpt lat="42.172199" lon="23.369783"><ele>2485</ele><time>2026-03-02T08:05:12.000Z</time></trkpt>
<trkpt lat="42.172199" lon="23.369784"><ele>2485</ele><time>2026-03-02T08:05:13.000Z</time></trkpt>
<trkpt lat="42.172198" lon="23.369785"><ele>2485</ele><time>2026-03-02T08:05:14.000Z</time></trkpt>
<trkpt lat="42.172198" lon="23.369786"><ele>2485.1</ele><time>2026-03-02T08:05:15.000Z</time></trkpt>
<trkpt lat="42.172197" lon="23.369786"><ele>2485.1</ele><time>2026-03-02T08:05:16.000Z</time></trkpt>
<trkpt lat="42.172197" lon="23.369785"><ele>2485.1</ele><time>2026-03-02T08:05:17.000Z</time></trkpt>
<trkpt lat="42.172197" lon="23.369785"><ele>2485.1</ele><time>2026-03-02T08:05:18.000Z</time></trkpt>
<trkpt lat="42.172197" lon="23.369785"><ele>2485.1</ele><time>2026-03-02T08:05:19.000Z</time></trkpt>
<trkpt lat="42.172197" lon="23.369785"><ele>2484.8</ele><time>2026-03-02T08:05:20.000Z</time></trkpt>
<trkpt lat="42.172197" lon="23.369785"><ele>2484.8</ele><time>2026-03-02T08:05:21.000Z</time></trkpt>
<trkpt lat="42.172197" lon="23.369785"><ele>2484.8</ele><time>2026-03-02T08:05:22.000Z</time></trkpt>
<trkpt lat="42.172197" lon="23.369785"><ele>2484.8</ele><time>2026-03-02T08:05:23.000Z</time></trkpt>
<trkpt lat="42.172197" lon="23.369785"><ele>2484.8</ele><time>2026-03-02T08:05:24.000Z</time></trkpt>
<trkpt lat="42.172197" lon="23.369785"><ele>2484.6</ele><time>2026-03-02T08:05:25.000Z</time></trkpt>
<trkpt lat="42.172196" lon="23.369785"><ele>2484.6</ele><time>2026-03-02T08:05:26.000Z</time></trkpt>
<trkpt lat="42.172197" lon="23.369784"><ele>2484.6</ele><time>2026-03-02T08:05:27.000Z</time></trkpt>
<trkpt lat="42.172197" lon="23.369783"><ele>2484.6</ele><time>2026-03-02T08:05:28.000Z</time></trkpt>
<trkpt lat="42.172197" lon="23.369782"><ele>2484.6</ele><time>2026-03-02T08:05:29.000Z</time></trkpt>
<trkpt lat="42.172198" lon="23.369781"><ele>2484.3</ele><time>2026-03-02T08:05:30.000Z</time></trkpt>
<trkpt lat="42.172198" lon="23.36978"><ele>2484.3</ele><time>2026-03-02T08:05:31.000Z</time></trkpt>
<trkpt lat="42.172198" lon="23.36978"><ele>2484.3</ele><time>2026-03-02T08:05:32.000Z</time></trkpt>
<trkpt lat="42.172198" lon="23.36978"><ele>2484.3</ele><time>2026-03-02T08:05:33.000Z</time></trkpt>
<trkpt lat="42.172198" lon="23.36978"><ele>2484.3</ele><time>2026-03-02T08:05:34.000Z</time></trkpt>
<trkpt lat="42.172198" lon="23.36978"><ele>2484.2</ele><time>2026-03-02T08:05:35.000Z</time></trkpt>
<trkpt lat="42.172198" lon="23.36978"><ele>2484.2</ele><time>2026-03-02T08:05:36.000Z</time></trkpt>
<trkpt lat="42.172198" lon="23.36978"><ele>2484.2</ele><time>2026-03-02T08:05:37.000Z</time></trkpt>
<trkpt lat="42.172198" lon="23.36978"><ele>2484.2</ele><time>2026-03-02T08:05:38.000Z</time></trkpt>
<trkpt lat="42.172198" lon="23.36978"><ele>2484.2</ele><time>2026-03-02T08:05:39.000Z</time></trkpt>
<trkpt lat="42.172198" lon="23.36978"><ele>2484.2</ele><time>2026-03-02T08:05:40.000Z</time></trkpt>
<trkpt lat="42.172198" lon="23.36978"><ele>2484.2</ele><time>2026-03-02T08:05:41.000Z</time></trkpt>
<trkpt lat="42.172198" lon="23.36978"><ele>2484.2</ele><time>2026-03-02T08:05:42.000Z</time></trkpt>
<trkpt lat="42.172198" lon="23.36978"><ele>2484.2</ele><time>2026-03-02T08:05:43.000Z</time></trkpt>
<trkpt lat="42.172198" lon="23.36978"><ele>2484.2</ele><time>2026-03-02T08:05:44.000Z</time></trkpt>
<trkpt lat="42.172198" lon="23.36978"><ele>2484.3</ele><time>2026-03-02T08:05:45.000Z</time></trkpt>
<trkpt lat="42.172198" lon="23.36978"><ele>2484.3</ele><time>2026-03-02T08:05:46.000Z</time></trkpt>
<trkpt lat="42.172198" lon="23.36978"><ele>2484.3</ele><time>2026-03-02T08:05:47.000Z</time></trkpt>
<trkpt lat="42.172198" lon="23.36978"><ele>2484.3</ele><time>2026-03-02T08:05:48.000Z</time></trkpt>
<trkpt lat="42.172198" lon="23.36978"><ele>2484.3</ele><time>2026-03-02T08:05:49.000Z</time></trkpt>
<trkpt lat="42.172198" lon="23.36978"><ele>2484.3</ele><time>2026-03-02T08:05:50.000Z</time></trkpt>
<trkpt lat="42.172198" lon="23.36978"><ele>2484.3</ele><time>2026-03-02T08:05:51.000Z</time></trkpt>
<trkpt lat="42.172198" lon="23.36978"><ele>2484.3</ele><time>2026-03-02T08:05:52.000Z</time></trkpt>
<trkpt lat="42.172198" lon="23.36978"><ele>2484.3</ele><time>2026-03-02T08:05:53.000Z</time></trkpt>
<trkpt lat="42.172198" lon="23.36978"><ele>2484.3</ele><time>2026-03-02T08:05:54.000Z</time></trkpt>
<trkpt lat="42.172198" lon="23.36978"><ele>2484.2</ele><time>2026-03-02T08:05:55.000Z</time></trkpt>
<trkpt lat="42.172198" lon="23.36978"><ele>2484.2</ele><time>2026-03-02T08:05:56.000Z</time></trkpt>
<trkpt lat="42.172198" lon="23.36978"><ele>2484.2</ele><time>2026-03-02T08:05:57.000Z</time></trkpt>
<trkpt lat="42.172198" lon="23.36978"><ele>2484.2</ele><time>2026-03-02T08:05:58.000Z</time></trkpt>
<trkpt lat="42.172198" lon="23.36978"><ele>2484.2</ele><time>2026-03-02T08:05:59.000Z</time></trkpt>
<trkpt lat="42.172198" lon="23.36978"><ele>2483.9</ele><time>2026-03-02T08:06:00.000Z</time></trkpt>
<trkpt lat="42.172198" lon="23.36978"><ele>2483.9</ele><time>2026-03-02T08:06:01.000Z</time></trkpt>
<trkpt lat="42.172198" lon="23.36978"><ele>2483.9</ele><time>2026-03-02T08:06:02.000Z</time></trkpt>
<trkpt lat="42.172198" lon="23.36978"><ele>2483.9</ele><time>2026-03-02T08:06:03.000Z</time></trkpt>
<trkpt lat="42.172198" lon="23.36978"><ele>2483.9</ele><time>2026-03-02T08:06:04.000Z</time></trkpt>
<trkpt lat="42.172198" lon="23.36978"><ele>2483.9</ele><time>2026-03-02T08:06:05.000Z</time></trkpt>
<trkpt lat="42.172198" lon="23.36978"><ele>2483.9</ele><time>2026-03-02T08:06:06.000Z</time></trkpt>
<trkpt lat="42.172198" lon="23.36978"><ele>2483.9</ele><time>2026-03-02T08:06:07.000Z</time></trkpt>
<trkpt lat="42.172198" lon="23.36978"><ele>2483.9</ele><time>2026-03-02T08:06:08.000Z</time></trkpt>
<trkpt lat="42.172198" lon="23.36978"><ele>2483.9</ele><time>2026-03-02T08:06:09.000Z</time></trkpt>
<trkpt lat="42.172198" lon="23.36978"><ele>2483.9</ele><time>2026-03-02T08:06:10.000Z</time></trkpt>
<trkpt lat="42.172198" lon="23.36978"><ele>2483.9</ele><time>2026-03-02T08:06:11.000Z</time></trkpt>
<trkpt lat="42.172198" lon="23.36978"><ele>2483.9</ele><time>2026-03-02T08:06:12.000Z</time></trkpt>
<trkpt lat="42.172198" lon="23.36978"><ele>2483.9</ele><time>2026-03-02T08:06:13.000Z</time></trkpt>
<trkpt lat="42.172198" lon="23.36978"><ele>2483.9</ele><time>2026-03-02T08:06:14.000Z</time></trkpt>
<trkpt lat="42.172198" lon="23.36978"><ele>2483.9</ele><time>2026-03-02T08:06:15.000Z</time></trkpt>
<trkpt lat="42.172198" lon="23.36978"><ele>2483.9</ele><time>2026-03-02T08:06:16.000Z</time></trkpt>
<trkpt lat="42.172197" lon="23.369781"><ele>2483.9</ele><time>2026-03-02T08:06:17.000Z</time></trkpt>
<trkpt lat="42.172197" lon="23.369781"><ele>2483.9</ele><time>2026-03-02T08:06:18.000Z</time></trkpt>
<trkpt lat="42.172197" lon="23.369781"><ele>2483.9</ele><time>2026-03-02T08:06:19.000Z</time></trkpt>
<trkpt lat="42.172197" lon="23.369781"><ele>2483.9</ele><time>2026-03-02T08:06:20.000Z</time></trkpt>
<trkpt lat="42.172197" lon="23.369781"><ele>2483.9</ele><time>2026-03-02T08:06:21.000Z</time></trkpt>
<trkpt lat="42.172197" lon="23.369781"><ele>2483.9</ele><time>2026-03-02T08:06:22.000Z</time></trkpt>
<trkpt lat="42.172197" lon="23.369781"><ele>2483.9</ele><time>2026-03-02T08:06:23.000Z</time></trkpt>
<trkpt lat="42.172197" lon="23.36978"><ele>2483.9</ele><time>2026-03-02T08:06:24.000Z</time></trkpt>
<trkpt lat="42.172197" lon="23.36978"><ele>2484</ele><time>2026-03-02T08:06:25.000Z</time></trkpt>
<trkpt lat="42.172196" lon="23.369779"><ele>2484</ele><time>2026-03-02T08:06:26.000Z</time></trkpt>
<trkpt lat="42.172196" lon="23.369779"><ele>2484</ele><time>2026-03-02T08:06:27.000Z</time></trkpt>
<trkpt lat="42.172196" lon="23.369779"><ele>2484</ele><time>2026-03-02T08:06:28.000Z</time></trkpt>
<trkpt lat="42.172197" lon="23.369779"><ele>2484</ele><time>2026-03-02T08:06:29.000Z</time></trkpt>
<trkpt lat="42.172197" lon="23.369779"><ele>2484.2</ele><time>2026-03-02T08:06:30.000Z</time></trkpt>
<trkpt lat="42.172197" lon="23.369779"><ele>2484.2</ele><time>2026-03-02T08:06:31.000Z</time></trkpt>
<trkpt lat="42.172198" lon="23.369779"><ele>2484.2</ele><time>2026-03-02T08:06:32.000Z</time></trkpt>
<trkpt lat="42.172198" lon="23.369778"><ele>2484.2</ele><time>2026-03-02T08:06:33.000Z</time></trkpt>
<trkpt lat="42.172198" lon="23.369778"><ele>2484.2</ele><time>2026-03-02T08:06:34.000Z</time></trkpt>
<trkpt lat="42.172198" lon="23.369778"><ele>2484.4</ele><time>2026-03-02T08:06:35.000Z</time></trkpt>
<trkpt lat="42.172198" lon="23.369777"><ele>2484.4</ele><time>2026-03-02T08:06:36.000Z</time></trkpt>
<trkpt lat="42.172198" lon="23.369777"><ele>2484.4</ele><time>2026-03-02T08:06:37.000Z</time></trkpt>
<trkpt lat="42.172198" lon="23.369777"><ele>2484.4</ele><time>2026-03-02T08:06:38.000Z</time></trkpt>
<trkpt lat="42.172198" lon="23.369777"><ele>2484.4</ele><time>2026-03-02T08:06:39.000Z</time></trkpt>
<trkpt lat="42.172198" lon="23.369777"><ele>2484.5</ele><time>2026-03-02T08:06:40.000Z</time></trkpt>
<trkpt lat="42.172198" lon="23.369776"><ele>2484.5</ele><time>2026-03-02T08:06:41.000Z</time></trkpt>
<trkpt lat="42.172197" lon="23.369775"><ele>2484.5</ele><time>2026-03-02T08:06:42.000Z</time></trkpt>
<trkpt lat="42.172197" lon="23.369773"><ele>2484.5</ele><time>2026-03-02T08:06:43.000Z</time></trkpt>
<trkpt lat="42.172197" lon="23.369773"><ele>2484.5</ele><time>2026-03-02T08:06:44.000Z</time></trkpt>
<trkpt lat="42.172197" lon="23.369772"><ele>2484.6</ele><time>2026-03-02T08:06:45.000Z</time></trkpt>
<trkpt lat="42.172197" lon="23.369772"><ele>2484.6</ele><time>2026-03-02T08:06:46.000Z</time></trkpt>
<trkpt lat="42.172197" lon="23.369773"><ele>2484.6</ele><time>2026-03-02T08:06:47.000Z</time></trkpt>
<trkpt lat="42.172197" lon="23.369773"><ele>2484.6</ele><time>2026-03-02T08:06:48.000Z</time></trkpt>
<trkpt lat="42.172197" lon="23.369773"><ele>2484.6</ele><time>2026-03-02T08:06:49.000Z</time></trkpt>
<trkpt lat="42.172196" lon="23.369773"><ele>2484.4</ele><time>2026-03-02T08:06:50.000Z</time></trkpt>
<trkpt lat="42.172196" lon="23.369773"><ele>2484.4</ele><time>2026-03-02T08:06:51.000Z</time></trkpt>
<trkpt lat="42.172195" lon="23.369774"><ele>2484.4</ele><time>2026-03-02T08:06:52.000Z</time></trkpt>
<trkpt lat="42.172194" lon="23.369773"><ele>2484.4</ele><time>2026-03-02T08:06:53.000Z</time></trkpt>
<trkpt lat="42.172193" lon="23.369773"><ele>2484.4</ele><time>2026-03-02T08:06:54.000Z</time></trkpt>
<trkpt lat="42.172193" lon="23.369772"><ele>2484.3</ele><time>2026-03-02T08:06:55.000Z</time></trkpt>
<trkpt lat="42.172193" lon="23.369771"><ele>2484.3</ele><time>2026-03-02T08:06:56.000Z</time></trkpt>
<trkpt lat="42.172193" lon="23.369769"><ele>2484.3</ele><time>2026-03-02T08:06:57.000Z</time></trkpt>
<trkpt lat="42.172194" lon="23.369769"><ele>2484.3</ele><time>2026-03-02T08:06:58.000Z</time></trkpt>
<trkpt lat="42.172194" lon="23.369768"><ele>2484.3</ele><time>2026-03-02T08:06:59.000Z</time></trkpt>
<trkpt lat="42.172194" lon="23.369768"><ele>2484.1</ele><time>2026-03-02T08:07:00.000Z</time></trkpt>
<trkpt lat="42.172194" lon="23.369768"><ele>2484.1</ele><time>2026-03-02T08:07:01.000Z</time></trkpt>
<trkpt lat="42.172194" lon="23.369768"><ele>2484.1</ele><time>2026-03-02T08:07:02.000Z</time></trkpt>
<trkpt lat="42.172194" lon="23.369768"><ele>2484.1</ele><time>2026-03-02T08:07:03.000Z</time></trkpt>
<trkpt lat="42.172194" lon="23.369768"><ele>2484.1</ele><time>2026-03-02T08:07:04.000Z</time></trkpt>
<trkpt lat="42.172194" lon="23.369768"><ele>2484.1</ele><time>2026-03-02T08:07:05.000Z</time></trkpt>
<trkpt lat="42.172194" lon="23.369768"><ele>2484.1</ele><time>2026-03-02T08:07:06.000Z</time></trkpt>
<trkpt lat="42.172194" lon="23.369768"><ele>2484.1</ele><time>2026-03-02T08:07:07.000Z</time></trkpt>
<trkpt lat="42.172194" lon="23.369768"><ele>2484.1</ele><time>2026-03-02T08:07:08.000Z</time></trkpt>
<trkpt lat="42.172194" lon="23.369768"><ele>2484.1</ele><time>2026-03-02T08:07:09.000Z</time></trkpt>
<trkpt lat="42.172194" lon="23.369767"><ele>2484.1</ele><time>2026-03-02T08:07:10.000Z</time></trkpt>
<trkpt lat="42.172195" lon="23.369765"><ele>2484.1</ele><time>2026-03-02T08:07:11.000Z</time></trkpt>
<trkpt lat="42.172197" lon="23.369764"><ele>2484.1</ele><time>2026-03-02T08:07:12.000Z</time></trkpt>
<trkpt lat="42.172199" lon="23.369762"><ele>2484.1</ele><time>2026-03-02T08:07:13.000Z</time></trkpt>
<trkpt lat="42.172201" lon="23.369761"><ele>2484.1</ele><time>2026-03-02T08:07:14.000Z</time></trkpt>
<trkpt lat="42.172203" lon="23.369762"><ele>2484.1</ele><time>2026-03-02T08:07:15.000Z</time></trkpt>
<trkpt lat="42.172203" lon="23.369763"><ele>2484.1</ele><time>2026-03-02T08:07:16.000Z</time></trkpt>
<trkpt lat="42.172203" lon="23.369765"><ele>2484.1</ele><time>2026-03-02T08:07:17.000Z</time></trkpt>
<trkpt lat="42.172204" lon="23.369767"><ele>2484.1</ele><time>2026-03-02T08:07:18.000Z</time></trkpt>
<trkpt lat="42.172204" lon="23.36977"><ele>2484.1</ele><time>2026-03-02T08:07:19.000Z</time></trkpt>
<trkpt lat="42.172205" lon="23.369773"><ele>2484.3</ele><time>2026-03-02T08:07:20.000Z</time></trkpt>
<trkpt lat="42.172207" lon="23.369777"><ele>2484.3</ele><time>2026-03-02T08:07:21.000Z</time></trkpt>
<trkpt lat="42.17221" lon="23.369781"><ele>2484.3</ele><time>2026-03-02T08:07:22.000Z</time></trkpt>
<trkpt lat="42.172212" lon="23.369785"><ele>2484.3</ele><time>2026-03-02T08:07:23.000Z</time></trkpt>
<trkpt lat="42.172213" lon="23.369789"><ele>2484.3</ele><time>2026-03-02T08:07:24.000Z</time></trkpt>
<trkpt lat="42.172215" lon="23.369791"><ele>2484.5</ele><time>2026-03-02T08:07:25.000Z</time></trkpt>
<trkpt lat="42.172217" lon="23.369791"><ele>2484.5</ele><time>2026-03-02T08:07:26.000Z</time></trkpt>
<trkpt lat="42.172216" lon="23.369792"><ele>2484.5</ele><time>2026-03-02T08:07:27.000Z</time></trkpt>
<trkpt lat="42.172217" lon="23.369791"><ele>2484.5</ele><time>2026-03-02T08:07:28.000Z</time></trkpt>
<trkpt lat="42.172217" lon="23.369791"><ele>2484.5</ele><time>2026-03-02T08:07:29.000Z</time></trkpt>
<trkpt lat="42.172217" lon="23.369792"><ele>2484.8</ele><time>2026-03-02T08:07:30.000Z</time></trkpt>
<trkpt lat="42.172216" lon="23.369792"><ele>2484.8</ele><time>2026-03-02T08:07:31.000Z</time></trkpt>
<trkpt lat="42.172217" lon="23.369792"><ele>2484.8</ele><time>2026-03-02T08:07:32.000Z</time></trkpt>
<trkpt lat="42.172217" lon="23.369792"><ele>2484.8</ele><time>2026-03-02T08:07:33.000Z</time></trkpt>
<trkpt lat="42.172217" lon="23.369792"><ele>2484.8</ele><time>2026-03-02T08:07:34.000Z</time></trkpt>
<trkpt lat="42.172217" lon="23.369792"><ele>2485.3</ele><time>2026-03-02T08:07:35.000Z</time></trkpt>
<trkpt lat="42.172217" lon="23.369792"><ele>2485.3</ele><time>2026-03-02T08:07:36.000Z</time></trkpt>
<trkpt lat="42.172216" lon="23.369792"><ele>2485.3</ele><time>2026-03-02T08:07:37.000Z</time></trkpt>
<trkpt lat="42.172216" lon="23.369792"><ele>2485.3</ele><time>2026-03-02T08:07:38.000Z</time></trkpt>
<trkpt lat="42.172216" lon="23.369793"><ele>2485.3</ele><time>2026-03-02T08:07:39.000Z</time></trkpt>
<trkpt lat="42.172216" lon="23.369793"><ele>2485.5</ele><time>2026-03-02T08:07:40.000Z</time></trkpt>
<trkpt lat="42.172216" lon="23.369794"><ele>2485.5</ele><time>2026-03-02T08:07:41.000Z</time></trkpt>
<trkpt lat="42.172216" lon="23.369795"><ele>2485.5</ele><time>2026-03-02T08:07:42.000Z</time></trkpt>
<trkpt lat="42.172215" lon="23.369795"><ele>2485.5</ele><time>2026-03-02T08:07:43.000Z</time></trkpt>
<trkpt lat="42.172215" lon="23.369795"><ele>2485.5</ele><time>2026-03-02T08:07:44.000Z</time></trkpt>
<trkpt lat="42.172215" lon="23.369795"><ele>2485.8</ele><time>2026-03-02T08:07:45.000Z</time></trkpt>
<trkpt lat="42.172215" lon="23.369795"><ele>2485.8</ele><time>2026-03-02T08:07:46.000Z</time></trkpt>
<trkpt lat="42.172215" lon="23.369795"><ele>2485.8</ele><time>2026-03-02T08:07:47.000Z</time></trkpt>
<trkpt lat="42.172215" lon="23.369794"><ele>2485.8</ele><time>2026-03-02T08:07:48.000Z</time></trkpt>
<trkpt lat="42.172215" lon="23.369793"><ele>2485.8</ele><time>2026-03-02T08:07:49.000Z</time></trkpt>
<trkpt lat="42.172215" lon="23.369792"><ele>2485.8</ele><time>2026-03-02T08:07:50.000Z</time></trkpt>
<trkpt lat="42.172214" lon="23.369792"><ele>2485.8</ele><time>2026-03-02T08:07:51.000Z</time></trkpt>
<trkpt lat="42.172214" lon="23.369791"><ele>2485.8</ele><time>2026-03-02T08:07:52.000Z</time></trkpt>
<trkpt lat="42.172213" lon="23.369792"><ele>2485.8</ele><time>2026-03-02T08:07:53.000Z</time></trkpt>
<trkpt lat="42.172212" lon="23.369793"><ele>2485.8</ele><time>2026-03-02T08:07:54.000Z</time></trkpt>
<trkpt lat="42.172212" lon="23.369793"><ele>2485.8</ele><time>2026-03-02T08:07:55.000Z</time></trkpt>
<trkpt lat="42.172212" lon="23.369793"><ele>2485.8</ele><time>2026-03-02T08:07:56.000Z</time></trkpt>
<trkpt lat="42.172212" lon="23.369793"><ele>2485.8</ele><time>2026-03-02T08:07:57.000Z</time></trkpt>
<trkpt lat="42.172212" lon="23.369793"><ele>2485.8</ele><time>2026-03-02T08:07:58.000Z</time></trkpt>
<trkpt lat="42.172211" lon="23.369792"><ele>2485.8</ele><time>2026-03-02T08:07:59.000Z</time></trkpt>
<trkpt lat="42.172211" lon="23.36979"><ele>2485.7</ele><time>2026-03-02T08:08:00.000Z</time></trkpt>
<trkpt lat="42.172211" lon="23.369789"><ele>2485.7</ele><time>2026-03-02T08:08:01.000Z</time></trkpt>
<trkpt lat="42.172211" lon="23.369788"><ele>2485.7</ele><time>2026-03-02T08:08:02.000Z</time></trkpt>
<trkpt lat="42.172211" lon="23.369787"><ele>2485.7</ele><time>2026-03-02T08:08:03.000Z</time></trkpt>
<trkpt lat="42.172212" lon="23.369787"><ele>2485.7</ele><time>2026-03-02T08:08:04.000Z</time></trkpt>
<trkpt lat="42.172212" lon="23.369787"><ele>2485.6</ele><time>2026-03-02T08:08:05.000Z</time></trkpt>
<trkpt lat="42.172212" lon="23.369787"><ele>2485.6</ele><time>2026-03-02T08:08:06.000Z</time></trkpt>
<trkpt lat="42.172212" lon="23.369787"><ele>2485.6</ele><time>2026-03-02T08:08:07.000Z</time></trkpt>
<trkpt lat="42.172212" lon="23.369786"><ele>2485.6</ele><time>2026-03-02T08:08:08.000Z</time></trkpt>
<trkpt lat="42.172212" lon="23.369786"><ele>2485.6</ele><time>2026-03-02T08:08:09.000Z</time></trkpt>
<trkpt lat="42.172212" lon="23.369786"><ele>2485.5</ele><time>2026-03-02T08:08:10.000Z</time></trkpt>
<trkpt lat="42.172212" lon="23.369786"><ele>2485.5</ele><time>2026-03-02T08:08:11.000Z</time></trkpt>
<trkpt lat="42.172212" lon="23.369785"><ele>2485.5</ele><time>2026-03-02T08:08:12.000Z</time></trkpt>
<trkpt lat="42.172211" lon="23.369784"><ele>2485.5</ele><time>2026-03-02T08:08:13.000Z</time></trkpt>
<trkpt lat="42.172211" lon="23.369784"><ele>2485.5</ele><time>2026-03-02T08:08:14.000Z</time></trkpt>
<trkpt lat="42.172212" lon="23.369783"><ele>2485.5</ele><time>2026-03-02T08:08:15.000Z</time></trkpt>
<trkpt lat="42.172212" lon="23.369783"><ele>2485.5</ele><time>2026-03-02T08:08:16.000Z</time></trkpt>
<trkpt lat="42.172212" lon="23.369783"><ele>2485.5</ele><time>2026-03-02T08:08:17.000Z</time></trkpt>
<trkpt lat="42.172213" lon="23.369784"><ele>2485.5</ele><time>2026-03-02T08:08:18.000Z</time></trkpt>
<trkpt lat="42.172213" lon="23.369784"><ele>2485.5</ele><time>2026-03-02T08:08:19.000Z</time></trkpt>
<trkpt lat="42.172213" lon="23.369785"><ele>2485.6</ele><time>2026-03-02T08:08:20.000Z</time></trkpt>
<trkpt lat="42.172213" lon="23.369785"><ele>2485.6</ele><time>2026-03-02T08:08:21.000Z</time></trkpt>
<trkpt lat="42.172213" lon="23.369785"><ele>2485.6</ele><time>2026-03-02T08:08:22.000Z</time></trkpt>
<trkpt lat="42.172213" lon="23.369785"><ele>2485.6</ele><time>2026-03-02T08:08:23.000Z</time></trkpt>
<trkpt lat="42.172213" lon="23.369785"><ele>2485.6</ele><time>2026-03-02T08:08:24.000Z</time></trkpt>
<trkpt lat="42.172213" lon="23.369785"><ele>2485.6</ele><time>2026-03-02T08:08:25.000Z</time></trkpt>
<trkpt lat="42.172213" lon="23.369785"><ele>2485.6</ele><time>2026-03-02T08:08:26.000Z</time></trkpt>
<trkpt lat="42.172213" lon="23.369785"><ele>2485.6</ele><time>2026-03-02T08:08:27.000Z</time></trkpt>
<trkpt lat="42.172214" lon="23.369785"><ele>2485.6</ele><time>2026-03-02T08:08:28.000Z</time></trkpt>
<trkpt lat="42.172214" lon="23.369786"><ele>2485.6</ele><time>2026-03-02T08:08:29.000Z</time></trkpt>
<trkpt lat="42.172215" lon="23.369786"><ele>2485.5</ele><time>2026-03-02T08:08:30.000Z</time></trkpt>
<trkpt lat="42.172215" lon="23.369786"><ele>2485.5</ele><time>2026-03-02T08:08:31.000Z</time></trkpt>
<trkpt lat="42.172215" lon="23.369786"><ele>2485.5</ele><time>2026-03-02T08:08:32.000Z</time></trkpt>
<trkpt lat="42.172215" lon="23.369786"><ele>2485.5</ele><time>2026-03-02T08:08:33.000Z</time></trkpt>
<trkpt lat="42.172216" lon="23.369786"><ele>2485.5</ele><time>2026-03-02T08:08:34.000Z</time></trkpt>
<trkpt lat="42.172216" lon="23.369785"><ele>2485.4</ele><time>2026-03-02T08:08:35.000Z</time></trkpt>
<trkpt lat="42.172216" lon="23.369785"><ele>2485.4</ele><time>2026-03-02T08:08:36.000Z</time></trkpt>
<trkpt lat="42.172215" lon="23.369783"><ele>2485.4</ele><time>2026-03-02T08:08:37.000Z</time></trkpt>
<trkpt lat="42.172215" lon="23.369782"><ele>2485.4</ele><time>2026-03-02T08:08:38.000Z</time></trkpt>
<trkpt lat="42.172215" lon="23.369782"><ele>2485.4</ele><time>2026-03-02T08:08:39.000Z</time></trkpt>
<trkpt lat="42.172214" lon="23.369781"><ele>2485.4</ele><time>2026-03-02T08:08:40.000Z</time></trkpt>
<trkpt lat="42.172214" lon="23.369781"><ele>2485.4</ele><time>2026-03-02T08:08:41.000Z</time></trkpt>
<trkpt lat="42.172216" lon="23.36978"><ele>2485.4</ele><time>2026-03-02T08:08:42.000Z</time></trkpt>
<trkpt lat="42.172217" lon="23.36978"><ele>2485.4</ele><time>2026-03-02T08:08:43.000Z</time></trkpt>
<trkpt lat="42.172217" lon="23.36978"><ele>2485.4</ele><time>2026-03-02T08:08:44.000Z</time></trkpt>
<trkpt lat="42.172218" lon="23.36978"><ele>2485.6</ele><time>2026-03-02T08:08:45.000Z</time></trkpt>
<trkpt lat="42.172218" lon="23.369781"><ele>2485.6</ele><time>2026-03-02T08:08:46.000Z</time></trkpt>
<trkpt lat="42.172218" lon="23.369782"><ele>2485.6</ele><time>2026-03-02T08:08:47.000Z</time></trkpt>
<trkpt lat="42.172218" lon="23.369782"><ele>2485.6</ele><time>2026-03-02T08:08:48.000Z</time></trkpt>
<trkpt lat="42.172218" lon="23.369783"><ele>2485.6</ele><time>2026-03-02T08:08:49.000Z</time></trkpt>
<trkpt lat="42.172218" lon="23.369783"><ele>2485.9</ele><time>2026-03-02T08:08:50.000Z</time></trkpt>
<trkpt lat="42.172219" lon="23.369784"><ele>2485.9</ele><time>2026-03-02T08:08:51.000Z</time></trkpt>
<trkpt lat="42.172219" lon="23.369784"><ele>2485.9</ele><time>2026-03-02T08:08:52.000Z</time></trkpt>
<trkpt lat="42.172219" lon="23.369784"><ele>2485.9</ele><time>2026-03-02T08:08:53.000Z</time></trkpt>
<trkpt lat="42.172219" lon="23.369784"><ele>2485.9</ele><time>2026-03-02T08:08:54.000Z</time></trkpt>
<trkpt lat="42.17222" lon="23.369785"><ele>2485.9</ele><time>2026-03-02T08:08:55.000Z</time></trkpt>
<trkpt lat="42.17222" lon="23.369785"><ele>2485.9</ele><time>2026-03-02T08:08:56.000Z</time></trkpt>
<trkpt lat="42.17222" lon="23.369785"><ele>2485.9</ele><time>2026-03-02T08:08:57.000Z</time></trkpt>
<trkpt lat="42.17222" lon="23.369785"><ele>2485.9</ele><time>2026-03-02T08:08:58.000Z</time></trkpt>
<trkpt lat="42.17222" lon="23.369785"><ele>2485.9</ele><time>2026-03-02T08:08:59.000Z</time></trkpt>
<trkpt lat="42.17222" lon="23.369785"><ele>2485.7</ele><time>2026-03-02T08:09:00.000Z</time></trkpt>
<trkpt lat="42.17222" lon="23.369785"><ele>2485.7</ele><time>2026-03-02T08:09:01.000Z</time></trkpt>
<trkpt lat="42.17222" lon="23.369785"><ele>2485.7</ele><time>2026-03-02T08:09:02.000Z</time></trkpt>
<trkpt lat="42.17222" lon="23.369785"><ele>2485.7</ele><time>2026-03-02T08:09:03.000Z</time></trkpt>
<trkpt lat="42.17222" lon="23.369785"><ele>2485.7</ele><time>2026-03-02T08:09:04.000Z</time></trkpt>
<trkpt lat="42.17222" lon="23.369784"><ele>2485.5</ele><time>2026-03-02T08:09:05.000Z</time></trkpt>
<trkpt lat="42.172219" lon="23.369784"><ele>2485.5</ele><time>2026-03-02T08:09:06.000Z</time></trkpt>
<trkpt lat="42.172219" lon="23.369783"><ele>2485.5</ele><time>2026-03-02T08:09:07.000Z</time></trkpt>
<trkpt lat="42.172219" lon="23.369783"><ele>2485.5</ele><time>2026-03-02T08:09:08.000Z</time></trkpt>
<trkpt lat="42.172219" lon="23.369782"><ele>2485.5</ele><time>2026-03-02T08:09:09.000Z</time></trkpt>
<trkpt lat="42.172219" lon="23.369782"><ele>2485.5</ele><time>2026-03-02T08:09:10.000Z</time></trkpt>
<trkpt lat="42.172219" lon="23.369782"><ele>2485.5</ele><time>2026-03-02T08:09:11.000Z</time></trkpt>
<trkpt lat="42.172219" lon="23.369782"><ele>2485.5</ele><time>2026-03-02T08:09:12.000Z</time></trkpt>
<trkpt lat="42.172219" lon="23.369782"><ele>2485.5</ele><time>2026-03-02T08:09:13.000Z</time></trkpt>
<trkpt lat="42.172219" lon="23.369782"><ele>2485.5</ele><time>2026-03-02T08:09:14.000Z</time></trkpt>
<trkpt lat="42.172219" lon="23.369782"><ele>2485.7</ele><time>2026-03-02T08:09:15.000Z</time></trkpt>
<trkpt lat="42.172219" lon="23.369782"><ele>2485.7</ele><time>2026-03-02T08:09:16.000Z</time></trkpt>
<trkpt lat="42.17222" lon="23.369783"><ele>2485.7</ele><time>2026-03-02T08:09:17.000Z</time></trkpt>
<trkpt lat="42.17222" lon="23.369783"><ele>2485.7</ele><time>2026-03-02T08:09:18.000Z</time></trkpt>
<trkpt lat="42.17222" lon="23.369783"><ele>2485.7</ele><time>2026-03-02T08:09:19.000Z</time></trkpt>
<trkpt lat="42.17222" lon="23.369783"><ele>2485.8</ele><time>2026-03-02T08:09:20.000Z</time></trkpt>
<trkpt lat="42.17222" lon="23.369783"><ele>2485.8</ele><time>2026-03-02T08:09:21.000Z</time></trkpt>
<trkpt lat="42.17222" lon="23.369783"><ele>2485.8</ele><time>2026-03-02T08:09:22.000Z</time></trkpt>
<trkpt lat="42.172218" lon="23.369782"><ele>2485.8</ele><time>2026-03-02T08:09:23.000Z</time></trkpt>
<trkpt lat="42.172217" lon="23.369782"><ele>2485.8</ele><time>2026-03-02T08:09:24.000Z</time></trkpt>
<trkpt lat="42.172216" lon="23.369782"><ele>2485.6</ele><time>2026-03-02T08:09:25.000Z</time></trkpt>
<trkpt lat="42.172214" lon="23.369781"><ele>2485.6</ele><time>2026-03-02T08:09:26.000Z</time></trkpt>
<trkpt lat="42.172213" lon="23.369781"><ele>2485.6</ele><time>2026-03-02T08:09:27.000Z</time></trkpt>
<trkpt lat="42.172213" lon="23.369781"><ele>2485.6</ele><time>2026-03-02T08:09:28.000Z</time></trkpt>
<trkpt lat="42.172213" lon="23.369781"><ele>2485.6</ele><time>2026-03-02T08:09:29.000Z</time></trkpt>
<trkpt lat="42.172213" lon="23.369781"><ele>2485.3</ele><time>2026-03-02T08:09:30.000Z</time></trkpt>
<trkpt lat="42.172213" lon="23.36978"><ele>2485.3</ele><time>2026-03-02T08:09:31.000Z</time></trkpt>
<trkpt lat="42.172213" lon="23.36978"><ele>2485.3</ele><time>2026-03-02T08:09:32.000Z</time></trkpt>
<trkpt lat="42.172212" lon="23.369777"><ele>2485.3</ele><time>2026-03-02T08:09:33.000Z</time></trkpt>
<trkpt lat="42.172211" lon="23.369773"><ele>2485.3</ele><time>2026-03-02T08:09:34.000Z</time></trkpt>
<trkpt lat="42.172211" lon="23.369769"><ele>2485.4</ele><time>2026-03-02T08:09:35.000Z</time></trkpt>
<trkpt lat="42.172209" lon="23.369765"><ele>2485.4</ele><time>2026-03-02T08:09:36.000Z</time></trkpt>
<trkpt lat="42.172207" lon="23.36976"><ele>2485.4</ele><time>2026-03-02T08:09:37.000Z</time></trkpt>
<trkpt lat="42.172205" lon="23.369758"><ele>2485.4</ele><time>2026-03-02T08:09:38.000Z</time></trkpt>
<trkpt lat="42.172203" lon="23.369757"><ele>2485.4</ele><time>2026-03-02T08:09:39.000Z</time></trkpt>
<trkpt lat="42.1722" lon="23.369756"><ele>2485.5</ele><time>2026-03-02T08:09:40.000Z</time></trkpt>
<trkpt lat="42.172197" lon="23.369756"><ele>2485.5</ele><time>2026-03-02T08:09:41.000Z</time></trkpt>
<trkpt lat="42.172196" lon="23.369756"><ele>2485.5</ele><time>2026-03-02T08:09:42.000Z</time></trkpt>
<trkpt lat="42.172195" lon="23.369757"><ele>2485.5</ele><time>2026-03-02T08:09:43.000Z</time></trkpt>
<trkpt lat="42.172194" lon="23.369757"><ele>2485.5</ele><time>2026-03-02T08:09:44.000Z</time></trkpt>
<trkpt lat="42.172194" lon="23.369757"><ele>2485.5</ele><time>2026-03-02T08:09:45.000Z</time></trkpt>
<trkpt lat="42.172194" lon="23.369757"><ele>2485.5</ele><time>2026-03-02T08:09:46.000Z</time></trkpt>
<trkpt lat="42.172194" lon="23.369757"><ele>2485.5</ele><time>2026-03-02T08:09:47.000Z</time></trkpt>
<trkpt lat="42.172194" lon="23.369757"><ele>2485.5</ele><time>2026-03-02T08:09:48.000Z</time></trkpt>
<trkpt lat="42.172194" lon="23.369757"><ele>2485.5</ele><time>2026-03-02T08:09:49.000Z</time></trkpt>
<trkpt lat="42.172194" lon="23.369757"><ele>2485.4</ele><time>2026-03-02T08:09:50.000Z</time></trkpt>
<trkpt lat="42.172194" lon="23.369757"><ele>2485.4</ele><time>2026-03-02T08:09:51.000Z</time></trkpt>
<trkpt lat="42.172194" lon="23.369757"><ele>2485.4</ele><time>2026-03-02T08:09:52.000Z</time></trkpt>
<trkpt lat="42.172194" lon="23.369757"><ele>2485.4</ele><time>2026-03-02T08:09:53.000Z</time></trkpt>
<trkpt lat="42.172194" lon="23.369757"><ele>2485.4</ele><time>2026-03-02T08:09:54.000Z</time></trkpt>
<trkpt lat="42.172194" lon="23.369757"><ele>2485.3</ele><time>2026-03-02T08:09:55.000Z</time></trkpt>
<trkpt lat="42.172194" lon="23.369757"><ele>2485.3</ele><time>2026-03-02T08:09:56.000Z</time></trkpt>
<trkpt lat="42.172194" lon="23.369757"><ele>2485.3</ele><time>2026-03-02T08:09:57.000Z</time></trkpt>
<trkpt lat="42.172194" lon="23.369757"><ele>2485.3</ele><time>2026-03-02T08:09:58.000Z</time></trkpt>
<trkpt lat="42.172193" lon="23.369757"><ele>2485.3</ele><time>2026-03-02T08:09:59.000Z</time></trkpt>
<trkpt lat="42.172193" lon="23.369756"><ele>2485.3</ele><time>2026-03-02T08:10:00.000Z</time></trkpt>
<trkpt lat="42.172193" lon="23.369756"><ele>2485.3</ele><time>2026-03-02T08:10:01.000Z</time></trkpt>
<trkpt lat="42.172193" lon="23.369756"><ele>2485.3</ele><time>2026-03-02T08:10:02.000Z</time></trkpt>
<trkpt lat="42.172194" lon="23.369756"><ele>2485.3</ele><time>2026-03-02T08:10:03.000Z</time></trkpt>
<trkpt lat="42.172194" lon="23.369756"><ele>2485.3</ele><time>2026-03-02T08:10:04.000Z</time></trkpt>
<trkpt lat="42.172194" lon="23.369756"><ele>2485.4</ele><time>2026-03-02T08:10:05.000Z</time></trkpt>
<trkpt lat="42.172194" lon="23.369757"><ele>2485.4</ele><time>2026-03-02T08:10:06.000Z</time></trkpt>
<trkpt lat="42.172194" lon="23.369758"><ele>2485.4</ele><time>2026-03-02T08:10:07.000Z</time></trkpt>
<trkpt lat="42.172194" lon="23.369759"><ele>2485.4</ele><time>2026-03-02T08:10:08.000Z</time></trkpt>
<trkpt lat="42.172194" lon="23.369758"><ele>2485.4</ele><time>2026-03-02T08:10:09.000Z</time></trkpt>
<trkpt lat="42.172195" lon="23.369758"><ele>2485.5</ele><time>2026-03-02T08:10:10.000Z</time></trkpt>
<trkpt lat="42.172196" lon="23.369758"><ele>2485.5</ele><time>2026-03-02T08:10:11.000Z</time></trkpt>
<trkpt lat="42.172197" lon="23.369757"><ele>2485.5</ele><time>2026-03-02T08:10:12.000Z</time></trkpt>
<trkpt lat="42.172198" lon="23.369757"><ele>2485.5</ele><time>2026-03-02T08:10:13.000Z</time></trkpt>
<trkpt lat="42.172199" lon="23.369758"><ele>2485.5</ele><time>2026-03-02T08:10:14.000Z</time></trkpt>
<trkpt lat="42.172199" lon="23.369759"><ele>2485.6</ele><time>2026-03-02T08:10:15.000Z</time></trkpt>
<trkpt lat="42.172199" lon="23.369759"><ele>2485.6</ele><time>2026-03-02T08:10:16.000Z</time></trkpt>
<trkpt lat="42.172199" lon="23.369759"><ele>2485.6</ele><time>2026-03-02T08:10:17.000Z</time></trkpt>
<trkpt lat="42.172199" lon="23.36976"><ele>2485.6</ele><time>2026-03-02T08:10:18.000Z</time></trkpt>
<trkpt lat="42.172199" lon="23.36976"><ele>2485.6</ele><time>2026-03-02T08:10:19.000Z</time></trkpt>
<trkpt lat="42.172199" lon="23.36976"><ele>2485.5</ele><time>2026-03-02T08:10:20.000Z</time></trkpt>
<trkpt lat="42.172199" lon="23.369761"><ele>2485.5</ele><time>2026-03-02T08:10:21.000Z</time></trkpt>
<trkpt lat="42.172199" lon="23.369761"><ele>2485.5</ele><time>2026-03-02T08:10:22.000Z</time></trkpt>
<trkpt lat="42.172199" lon="23.369761"><ele>2485.5</ele><time>2026-03-02T08:10:23.000Z</time></trkpt>
<trkpt lat="42.172199" lon="23.369761"><ele>2485.5</ele><time>2026-03-02T08:10:24.000Z</time></trkpt>
<trkpt lat="42.172199" lon="23.369761"><ele>2485.4</ele><time>2026-03-02T08:10:25.000Z</time></trkpt>
<trkpt lat="42.172199" lon="23.369762"><ele>2485.4</ele><time>2026-03-02T08:10:26.000Z</time></trkpt>
<trkpt lat="42.1722" lon="23.369765"><ele>2485.4</ele><time>2026-03-02T08:10:27.000Z</time></trkpt>
<trkpt lat="42.172199" lon="23.369767"><ele>2485.4</ele><time>2026-03-02T08:10:28.000Z</time></trkpt>
<trkpt lat="42.172198" lon="23.369769"><ele>2485.4</ele><time>2026-03-02T08:10:29.000Z</time></trkpt>
<trkpt lat="42.172197" lon="23.369771"><ele>2485.1</ele><time>2026-03-02T08:10:30.000Z</time></trkpt>
<trkpt lat="42.172196" lon="23.369772"><ele>2485.1</ele><time>2026-03-02T08:10:31.000Z</time></trkpt>
<trkpt lat="42.172194" lon="23.369772"><ele>2485.1</ele><time>2026-03-02T08:10:32.000Z</time></trkpt>
<trkpt lat="42.172193" lon="23.369772"><ele>2485.1</ele><time>2026-03-02T08:10:33.000Z</time></trkpt>
<trkpt lat="42.172192" lon="23.369773"><ele>2485.1</ele><time>2026-03-02T08:10:34.000Z</time></trkpt>
<trkpt lat="42.172192" lon="23.369774"><ele>2484.9</ele><time>2026-03-02T08:10:35.000Z</time></trkpt>
<trkpt lat="42.172192" lon="23.369774"><ele>2484.9</ele><time>2026-03-02T08:10:36.000Z</time></trkpt>
<trkpt lat="42.172192" lon="23.369775"><ele>2484.9</ele><time>2026-03-02T08:10:37.000Z</time></trkpt>
<trkpt lat="42.172192" lon="23.369775"><ele>2484.9</ele><time>2026-03-02T08:10:38.000Z</time></trkpt>
<trkpt lat="42.172192" lon="23.369775"><ele>2484.9</ele><time>2026-03-02T08:10:39.000Z</time></trkpt>
<trkpt lat="42.172192" lon="23.369775"><ele>2484.9</ele><time>2026-03-02T08:10:40.000Z</time></trkpt>
<trkpt lat="42.172192" lon="23.369775"><ele>2484.9</ele><time>2026-03-02T08:10:41.000Z</time></trkpt>
<trkpt lat="42.172192" lon="23.369775"><ele>2484.9</ele><time>2026-03-02T08:10:42.000Z</time></trkpt>
<trkpt lat="42.172192" lon="23.369774"><ele>2484.9</ele><time>2026-03-02T08:10:43.000Z</time></trkpt>
<trkpt lat="42.172192" lon="23.369774"><ele>2484.9</ele><time>2026-03-02T08:10:44.000Z</time></trkpt>
<trkpt lat="42.172193" lon="23.369774"><ele>2484.9</ele><time>2026-03-02T08:10:45.000Z</time></trkpt>
<trkpt lat="42.172193" lon="23.369773"><ele>2484.9</ele><time>2026-03-02T08:10:46.000Z</time></trkpt>
<trkpt lat="42.172193" lon="23.369773"><ele>2484.9</ele><time>2026-03-02T08:10:47.000Z</time></trkpt>
<trkpt lat="42.172193" lon="23.369773"><ele>2484.9</ele><time>2026-03-02T08:10:48.000Z</time></trkpt>
<trkpt lat="42.172193" lon="23.369773"><ele>2484.9</ele><time>2026-03-02T08:10:49.000Z</time></trkpt>
<trkpt lat="42.172193" lon="23.369773"><ele>2484.9</ele><time>2026-03-02T08:10:50.000Z</time></trkpt>
<trkpt lat="42.172193" lon="23.369773"><ele>2484.9</ele><time>2026-03-02T08:10:51.000Z</time></trkpt>
<trkpt lat="42.172193" lon="23.369773"><ele>2484.9</ele><time>2026-03-02T08:10:52.000Z</time></trkpt>
<trkpt lat="42.172193" lon="23.369773"><ele>2484.9</ele><time>2026-03-02T08:10:53.000Z</time></trkpt>
<trkpt lat="42.172195" lon="23.369772"><ele>2484.9</ele><time>2026-03-02T08:10:54.000Z</time></trkpt>
<trkpt lat="42.172196" lon="23.36977"><ele>2484.9</ele><time>2026-03-02T08:10:55.000Z</time></trkpt>
<trkpt lat="42.172199" lon="23.369767"><ele>2484.9</ele><time>2026-03-02T08:10:56.000Z</time></trkpt>
<trkpt lat="42.172201" lon="23.369764"><ele>2484.9</ele><time>2026-03-02T08:10:57.000Z</time></trkpt>
<trkpt lat="42.172203" lon="23.369761"><ele>2484.9</ele><time>2026-03-02T08:10:58.000Z</time></trkpt>
<trkpt lat="42.172204" lon="23.369761"><ele>2484.9</ele><time>2026-03-02T08:10:59.000Z</time></trkpt>
<trkpt lat="42.172204" lon="23.369762"><ele>2484.9</ele><time>2026-03-02T08:11:00.000Z</time></trkpt>
<trkpt lat="42.172204" lon="23.369763"><ele>2484.9</ele><time>2026-03-02T08:11:01.000Z</time></trkpt>
<trkpt lat="42.172204" lon="23.369765"><ele>2484.9</ele><time>2026-03-02T08:11:02.000Z</time></trkpt>
<trkpt lat="42.172203" lon="23.369767"><ele>2484.9</ele><time>2026-03-02T08:11:03.000Z</time></trkpt>
<trkpt lat="42.172204" lon="23.369767"><ele>2484.9</ele><time>2026-03-02T08:11:04.000Z</time></trkpt>
<trkpt lat="42.172204" lon="23.369767"><ele>2485.1</ele><time>2026-03-02T08:11:05.000Z</time></trkpt>
<trkpt lat="42.172204" lon="23.369766"><ele>2485.1</ele><time>2026-03-02T08:11:06.000Z</time></trkpt>
<trkpt lat="42.172205" lon="23.369766"><ele>2485.1</ele><time>2026-03-02T08:11:07.000Z</time></trkpt>
<trkpt lat="42.172205" lon="23.369766"><ele>2485.1</ele><time>2026-03-02T08:11:08.000Z</time></trkpt>
<trkpt lat="42.172205" lon="23.369766"><ele>2485.1</ele><time>2026-03-02T08:11:09.000Z</time></trkpt>
<trkpt lat="42.172205" lon="23.369766"><ele>2485.2</ele><time>2026-03-02T08:11:10.000Z</time></trkpt>
<trkpt lat="42.172205" lon="23.369766"><ele>2485.2</ele><time>2026-03-02T08:11:11.000Z</time></trkpt>
<trkpt lat="42.172205" lon="23.369766"><ele>2485.2</ele><time>2026-03-02T08:11:12.000Z</time></trkpt>
<trkpt lat="42.172205" lon="23.369766"><ele>2485.2</ele><time>2026-03-02T08:11:13.000Z</time></trkpt>
<trkpt lat="42.172205" lon="23.369767"><ele>2485.2</ele><time>2026-03-02T08:11:14.000Z</time></trkpt>
<trkpt lat="42.172205" lon="23.369767"><ele>2485.4</ele><time>2026-03-02T08:11:15.000Z</time></trkpt>
<trkpt lat="42.172205" lon="23.369767"><ele>2485.4</ele><time>2026-03-02T08:11:16.000Z</time></trkpt>
<trkpt lat="42.172205" lon="23.369768"><ele>2485.4</ele><time>2026-03-02T08:11:17.000Z</time></trkpt>
<trkpt lat="42.172205" lon="23.369769"><ele>2485.4</ele><time>2026-03-02T08:11:18.000Z</time></trkpt>
<trkpt lat="42.172205" lon="23.369769"><ele>2485.4</ele><time>2026-03-02T08:11:19.000Z</time></trkpt>
<trkpt lat="42.172204" lon="23.36977"><ele>2485.4</ele><time>2026-03-02T08:11:20.000Z</time></trkpt>
<trkpt lat="42.172205" lon="23.369771"><ele>2485.4</ele><time>2026-03-02T08:11:21.000Z</time></trkpt>
<trkpt lat="42.172205" lon="23.369772"><ele>2485.4</ele><time>2026-03-02T08:11:22.000Z</time></trkpt>
<trkpt lat="42.172206" lon="23.369772"><ele>2485.4</ele><time>2026-03-02T08:11:23.000Z</time></trkpt>
<trkpt lat="42.172207" lon="23.369773"><ele>2485.4</ele><time>2026-03-02T08:11:24.000Z</time></trkpt>
<trkpt lat="42.172208" lon="23.369773"><ele>2485.4</ele><time>2026-03-02T08:11:25.000Z</time></trkpt>
<trkpt lat="42.172208" lon="23.369772"><ele>2485.4</ele><time>2026-03-02T08:11:26.000Z</time></trkpt>
<trkpt lat="42.172209" lon="23.36977"><ele>2485.4</ele><time>2026-03-02T08:11:27.000Z</time></trkpt>
<trkpt lat="42.17221" lon="23.369768"><ele>2485.4</ele><time>2026-03-02T08:11:28.000Z</time></trkpt>
<trkpt lat="42.172211" lon="23.369766"><ele>2485.4</ele><time>2026-03-02T08:11:29.000Z</time></trkpt>
<trkpt lat="42.172212" lon="23.369765"><ele>2485.3</ele><time>2026-03-02T08:11:30.000Z</time></trkpt>
<trkpt lat="42.172212" lon="23.369764"><ele>2485.3</ele><time>2026-03-02T08:11:31.000Z</time></trkpt>
<trkpt lat="42.172212" lon="23.369764"><ele>2485.3</ele><time>2026-03-02T08:11:32.000Z</time></trkpt>
<trkpt lat="42.172212" lon="23.369764"><ele>2485.3</ele><time>2026-03-02T08:11:33.000Z</time></trkpt>
<trkpt lat="42.172211" lon="23.369764"><ele>2485.3</ele><time>2026-03-02T08:11:34.000Z</time></trkpt>
<trkpt lat="42.17221" lon="23.369765"><ele>2485.1</ele><time>2026-03-02T08:11:35.000Z</time></trkpt>
<trkpt lat="42.17221" lon="23.369765"><ele>2485.1</ele><time>2026-03-02T08:11:36.000Z</time></trkpt>
<trkpt lat="42.17221" lon="23.369765"><ele>2485.1</ele><time>2026-03-02T08:11:37.000Z</time></trkpt>
<trkpt lat="42.172211" lon="23.369765"><ele>2485.1</ele><time>2026-03-02T08:11:38.000Z</time></trkpt>
<trkpt lat="42.172212" lon="23.369765"><ele>2485.1</ele><time>2026-03-02T08:11:39.000Z</time></trkpt>
<trkpt lat="42.172213" lon="23.369765"><ele>2484.9</ele><time>2026-03-02T08:11:40.000Z</time></trkpt>
<trkpt lat="42.172213" lon="23.369766"><ele>2484.9</ele><time>2026-03-02T08:11:41.000Z</time></trkpt>
<trkpt lat="42.172213" lon="23.369766"><ele>2484.9</ele><time>2026-03-02T08:11:42.000Z</time></trkpt>
<trkpt lat="42.172213" lon="23.369765"><ele>2484.9</ele><time>2026-03-02T08:11:43.000Z</time></trkpt>
<trkpt lat="42.172212" lon="23.369766"><ele>2484.9</ele><time>2026-03-02T08:11:44.000Z</time></trkpt>
<trkpt lat="42.172211" lon="23.369765"><ele>2484.7</ele><time>2026-03-02T08:11:45.000Z</time></trkpt>
<trkpt lat="42.172209" lon="23.369764"><ele>2484.7</ele><time>2026-03-02T08:11:46.000Z</time></trkpt>
<trkpt lat="42.172208" lon="23.369764"><ele>2484.7</ele><time>2026-03-02T08:11:47.000Z</time></trkpt>
<trkpt lat="42.172206" lon="23.369763"><ele>2484.7</ele><time>2026-03-02T08:11:48.000Z</time></trkpt>
<trkpt lat="42.172204" lon="23.369761"><ele>2484.7</ele><time>2026-03-02T08:11:49.000Z</time></trkpt>
<trkpt lat="42.172204" lon="23.369761"><ele>2484.9</ele><time>2026-03-02T08:11:50.000Z</time></trkpt>
<trkpt lat="42.172203" lon="23.36976"><ele>2484.9</ele><time>2026-03-02T08:11:51.000Z</time></trkpt>
<trkpt lat="42.172203" lon="23.36976"><ele>2484.9</ele><time>2026-03-02T08:11:52.000Z</time></trkpt>
<trkpt lat="42.172202" lon="23.36976"><ele>2484.9</ele><time>2026-03-02T08:11:53.000Z</time></trkpt>
<trkpt lat="42.172202" lon="23.369761"><ele>2484.9</ele><time>2026-03-02T08:11:54.000Z</time></trkpt>
<trkpt lat="42.172201" lon="23.369761"><ele>2485</ele><time>2026-03-02T08:11:55.000Z</time></trkpt>
<trkpt lat="42.172201" lon="23.369762"><ele>2485</ele><time>2026-03-02T08:11:56.000Z</time></trkpt>
<trkpt lat="42.172201" lon="23.369763"><ele>2485</ele><time>2026-03-02T08:11:57.000Z</time></trkpt>
<trkpt lat="42.172201" lon="23.369764"><ele>2485</ele><time>2026-03-02T08:11:58.000Z</time></trkpt>
<trkpt lat="42.172201" lon="23.369765"><ele>2485</ele><time>2026-03-02T08:11:59.000Z</time></trkpt>
<trkpt lat="42.1722" lon="23.369765"><ele>2485.4</ele><time>2026-03-02T08:12:00.000Z</time></trkpt>
<trkpt lat="42.1722" lon="23.369766"><ele>2485.4</ele><time>2026-03-02T08:12:01.000Z</time></trkpt>
<trkpt lat="42.1722" lon="23.369766"><ele>2485.4</ele><time>2026-03-02T08:12:02.000Z</time></trkpt>
<trkpt lat="42.1722" lon="23.369767"><ele>2485.4</ele><time>2026-03-02T08:12:03.000Z</time></trkpt>
<trkpt lat="42.1722" lon="23.369768"><ele>2485.4</ele><time>2026-03-02T08:12:04.000Z</time></trkpt>
<trkpt lat="42.1722" lon="23.369768"><ele>2485.4</ele><time>2026-03-02T08:12:05.000Z</time></trkpt>
<trkpt lat="42.1722" lon="23.369768"><ele>2485.4</ele><time>2026-03-02T08:12:06.000Z</time></trkpt>
<trkpt lat="42.1722" lon="23.369769"><ele>2485.4</ele><time>2026-03-02T08:12:07.000Z</time></trkpt>
<trkpt lat="42.172201" lon="23.369769"><ele>2485.4</ele><time>2026-03-02T08:12:08.000Z</time></trkpt>
<trkpt lat="42.172202" lon="23.369769"><ele>2485.4</ele><time>2026-03-02T08:12:09.000Z</time></trkpt>
<trkpt lat="42.172202" lon="23.36977"><ele>2485.3</ele><time>2026-03-02T08:12:10.000Z</time></trkpt>
<trkpt lat="42.172204" lon="23.369771"><ele>2485.3</ele><time>2026-03-02T08:12:11.000Z</time></trkpt>
<trkpt lat="42.172204" lon="23.369772"><ele>2485.3</ele><time>2026-03-02T08:12:12.000Z</time></trkpt>
<trkpt lat="42.172206" lon="23.369773"><ele>2485.3</ele><time>2026-03-02T08:12:13.000Z</time></trkpt>
<trkpt lat="42.172208" lon="23.369774"><ele>2485.3</ele><time>2026-03-02T08:12:14.000Z</time></trkpt>
<trkpt lat="42.17221" lon="23.369774"><ele>2485.2</ele><time>2026-03-02T08:12:15.000Z</time></trkpt>
<trkpt lat="42.172211" lon="23.369774"><ele>2485.2</ele><time>2026-03-02T08:12:16.000Z</time></trkpt>
<trkpt lat="42.172213" lon="23.369774"><ele>2485.2</ele><time>2026-03-02T08:12:17.000Z</time></trkpt>
<trkpt lat="42.172214" lon="23.369775"><ele>2485.2</ele><time>2026-03-02T08:12:18.000Z</time></trkpt>
<trkpt lat="42.172215" lon="23.369775"><ele>2485.2</ele><time>2026-03-02T08:12:19.000Z</time></trkpt>
<trkpt lat="42.172214" lon="23.369776"><ele>2485.1</ele><time>2026-03-02T08:12:20.000Z</time></trkpt>
<trkpt lat="42.172212" lon="23.369778"><ele>2485.1</ele><time>2026-03-02T08:12:21.000Z</time></trkpt>
<trkpt lat="42.17221" lon="23.369778"><ele>2485.1</ele><time>2026-03-02T08:12:22.000Z</time></trkpt>
<trkpt lat="42.172208" lon="23.369778"><ele>2485.1</ele><time>2026-03-02T08:12:23.000Z</time></trkpt>
<trkpt lat="42.172206" lon="23.369778"><ele>2485.1</ele><time>2026-03-02T08:12:24.000Z</time></trkpt>
<trkpt lat="42.172204" lon="23.369777"><ele>2485.1</ele><time>2026-03-02T08:12:25.000Z</time></trkpt>
<trkpt lat="42.172204" lon="23.369775"><ele>2485.1</ele><time>2026-03-02T08:12:26.000Z</time></trkpt>
<trkpt lat="42.172203" lon="23.369774"><ele>2485.1</ele><time>2026-03-02T08:12:27.000Z</time></trkpt>
<trkpt lat="42.172203" lon="23.369772"><ele>2485.1</ele><time>2026-03-02T08:12:28.000Z</time></trkpt>
<trkpt lat="42.172204" lon="23.369771"><ele>2485.1</ele><time>2026-03-02T08:12:29.000Z</time></trkpt>
<trkpt lat="42.172205" lon="23.36977"><ele>2485</ele><time>2026-03-02T08:12:30.000Z</time></trkpt>
<trkpt lat="42.172206" lon="23.36977"><ele>2485</ele><time>2026-03-02T08:12:31.000Z</time></trkpt>
<trkpt lat="42.172207" lon="23.369768"><ele>2485</ele><time>2026-03-02T08:12:32.000Z</time></trkpt>
<trkpt lat="42.172207" lon="23.369767"><ele>2485</ele><time>2026-03-02T08:12:33.000Z</time></trkpt>
<trkpt lat="42.172207" lon="23.369766"><ele>2485</ele><time>2026-03-02T08:12:34.000Z</time></trkpt>
<trkpt lat="42.172206" lon="23.369765"><ele>2485</ele><time>2026-03-02T08:12:35.000Z</time></trkpt>
<trkpt lat="42.172206" lon="23.369764"><ele>2485</ele><time>2026-03-02T08:12:36.000Z</time></trkpt>
<trkpt lat="42.172205" lon="23.369763"><ele>2485</ele><time>2026-03-02T08:12:37.000Z</time></trkpt>
<trkpt lat="42.172205" lon="23.369763"><ele>2485</ele><time>2026-03-02T08:12:38.000Z</time></trkpt>
<trkpt lat="42.172205" lon="23.369762"><ele>2485</ele><time>2026-03-02T08:12:39.000Z</time></trkpt>
<trkpt lat="42.172205" lon="23.369762"><ele>2485</ele><time>2026-03-02T08:12:40.000Z</time></trkpt>
<trkpt lat="42.172205" lon="23.369762"><ele>2485</ele><time>2026-03-02T08:12:41.000Z</time></trkpt>
<trkpt lat="42.172205" lon="23.369762"><ele>2485</ele><time>2026-03-02T08:12:42.000Z</time></trkpt>
<trkpt lat="42.172205" lon="23.369762"><ele>2485</ele><time>2026-03-02T08:12:43.000Z</time></trkpt>
<trkpt lat="42.172205" lon="23.369762"><ele>2485</ele><time>2026-03-02T08:12:44.000Z</time></trkpt>
<trkpt lat="42.172205" lon="23.369761"><ele>2485</ele><time>2026-03-02T08:12:45.000Z</time></trkpt>
<trkpt lat="42.172205" lon="23.36976"><ele>2485</ele><time>2026-03-02T08:12:46.000Z</time></trkpt>
<trkpt lat="42.172206" lon="23.369759"><ele>2485</ele><time>2026-03-02T08:12:47.000Z</time></trkpt>
<trkpt lat="42.172206" lon="23.369758"><ele>2485</ele><time>2026-03-02T08:12:48.000Z</time></trkpt>
<trkpt lat="42.172207" lon="23.369757"><ele>2485</ele><time>2026-03-02T08:12:49.000Z</time></trkpt>
<trkpt lat="42.172207" lon="23.369757"><ele>2484.9</ele><time>2026-03-02T08:12:50.000Z</time></trkpt>
<trkpt lat="42.172207" lon="23.369756"><ele>2484.9</ele><time>2026-03-02T08:12:51.000Z</time></trkpt>
<trkpt lat="42.172207" lon="23.369756"><ele>2484.9</ele><time>2026-03-02T08:12:52.000Z</time></trkpt>
<trkpt lat="42.172207" lon="23.369756"><ele>2484.9</ele><time>2026-03-02T08:12:53.000Z</time></trkpt>
<trkpt lat="42.172207" lon="23.369756"><ele>2484.9</ele><time>2026-03-02T08:12:54.000Z</time></trkpt>
<trkpt lat="42.172207" lon="23.369757"><ele>2484.9</ele><time>2026-03-02T08:12:55.000Z</time></trkpt>
<trkpt lat="42.172208" lon="23.369757"><ele>2484.9</ele><time>2026-03-02T08:12:56.000Z</time></trkpt>
<trkpt lat="42.172208" lon="23.369757"><ele>2484.9</ele><time>2026-03-02T08:12:57.000Z</time></trkpt>
<trkpt lat="42.172208" lon="23.369758"><ele>2484.9</ele><time>2026-03-02T08:12:58.000Z</time></trkpt>
<trkpt lat="42.172209" lon="23.369759"><ele>2484.9</ele><time>2026-03-02T08:12:59.000Z</time></trkpt>
<trkpt lat="42.172209" lon="23.369759"><ele>2485</ele><time>2026-03-02T08:13:00.000Z</time></trkpt>
<trkpt lat="42.172209" lon="23.369759"><ele>2485</ele><time>2026-03-02T08:13:01.000Z</time></trkpt>
<trkpt lat="42.172209" lon="23.369759"><ele>2485</ele><time>2026-03-02T08:13:02.000Z</time></trkpt>
<trkpt lat="42.172209" lon="23.369759"><ele>2485</ele><time>2026-03-02T08:13:03.000Z</time></trkpt>
<trkpt lat="42.172209" lon="23.369759"><ele>2485</ele><time>2026-03-02T08:13:04.000Z</time></trkpt>
<trkpt lat="42.172209" lon="23.369759"><ele>2485.1</ele><time>2026-03-02T08:13:05.000Z</time></trkpt>
<trkpt lat="42.172209" lon="23.369759"><ele>2485.1</ele><time>2026-03-02T08:13:06.000Z</time></trkpt>
<trkpt lat="42.172209" lon="23.369759"><ele>2485.1</ele><time>2026-03-02T08:13:07.000Z</time></trkpt>
<trkpt lat="42.172209" lon="23.369759"><ele>2485.1</ele><time>2026-03-02T08:13:08.000Z</time></trkpt>
<trkpt lat="42.172209" lon="23.369759"><ele>2485.1</ele><time>2026-03-02T08:13:09.000Z</time></trkpt>
<trkpt lat="42.172209" lon="23.369758"><ele>2485.2</ele><time>2026-03-02T08:13:10.000Z</time></trkpt>
<trkpt lat="42.172209" lon="23.369758"><ele>2485.2</ele><time>2026-03-02T08:13:11.000Z</time></trkpt>
<trkpt lat="42.172209" lon="23.369758"><ele>2485.2</ele><time>2026-03-02T08:13:12.000Z</time></trkpt>
<trkpt lat="42.172209" lon="23.369758"><ele>2485.2</ele><time>2026-03-02T08:13:13.000Z</time></trkpt>
<trkpt lat="42.172209" lon="23.369758"><ele>2485.2</ele><time>2026-03-02T08:13:14.000Z</time></trkpt>
<trkpt lat="42.172209" lon="23.369758"><ele>2485.1</ele><time>2026-03-02T08:13:15.000Z</time></trkpt>
<trkpt lat="42.172209" lon="23.369758"><ele>2485.1</ele><time>2026-03-02T08:13:16.000Z</time></trkpt>
<trkpt lat="42.172209" lon="23.369758"><ele>2485.1</ele><time>2026-03-02T08:13:17.000Z</time></trkpt>
<trkpt lat="42.172209" lon="23.369758"><ele>2485.1</ele><time>2026-03-02T08:13:18.000Z</time></trkpt>
<trkpt lat="42.172209" lon="23.369758"><ele>2485.1</ele><time>2026-03-02T08:13:19.000Z</time></trkpt>
<trkpt lat="42.172209" lon="23.369758"><ele>2485</ele><time>2026-03-02T08:13:20.000Z</time></trkpt>
<trkpt lat="42.172208" lon="23.369758"><ele>2485</ele><time>2026-03-02T08:13:21.000Z</time></trkpt>
<trkpt lat="42.172207" lon="23.369758"><ele>2485</ele><time>2026-03-02T08:13:22.000Z</time></trkpt>
<trkpt lat="42.172207" lon="23.369757"><ele>2485</ele><time>2026-03-02T08:13:23.000Z</time></trkpt>
<trkpt lat="42.172206" lon="23.369757"><ele>2485</ele><time>2026-03-02T08:13:24.000Z</time></trkpt>
<trkpt lat="42.172206" lon="23.369757"><ele>2484.9</ele><time>2026-03-02T08:13:25.000Z</time></trkpt>
<trkpt lat="42.172206" lon="23.369758"><ele>2484.9</ele><time>2026-03-02T08:13:26.000Z</time></trkpt>
<trkpt lat="42.172206" lon="23.369759"><ele>2484.9</ele><time>2026-03-02T08:13:27.000Z</time></trkpt>
<trkpt lat="42.172206" lon="23.369759"><ele>2484.9</ele><time>2026-03-02T08:13:28.000Z</time></trkpt>
<trkpt lat="42.172205" lon="23.369761"><ele>2484.9</ele><time>2026-03-02T08:13:29.000Z</time></trkpt>
<trkpt lat="42.172205" lon="23.369761"><ele>2484.8</ele><time>2026-03-02T08:13:30.000Z</time></trkpt>
<trkpt lat="42.172204" lon="23.369762"><ele>2484.8</ele><time>2026-03-02T08:13:31.000Z</time></trkpt>
<trkpt lat="42.172203" lon="23.369762"><ele>2484.8</ele><time>2026-03-02T08:13:32.000Z</time></trkpt>
<trkpt lat="42.172203" lon="23.369763"><ele>2484.8</ele><time>2026-03-02T08:13:33.000Z</time></trkpt>
<trkpt lat="42.172203" lon="23.369763"><ele>2484.8</ele><time>2026-03-02T08:13:34.000Z</time></trkpt>
<trkpt lat="42.172203" lon="23.369763"><ele>2484.7</ele><time>2026-03-02T08:13:35.000Z</time></trkpt>
<trkpt lat="42.172203" lon="23.369763"><ele>2484.7</ele><time>2026-03-02T08:13:36.000Z</time></trkpt>
<trkpt lat="42.172203" lon="23.369763"><ele>2484.7</ele><time>2026-03-02T08:13:37.000Z</time></trkpt>
<trkpt lat="42.172203" lon="23.369763"><ele>2484.7</ele><time>2026-03-02T08:13:38.000Z</time></trkpt>
<trkpt lat="42.172203" lon="23.369763"><ele>2484.7</ele><time>2026-03-02T08:13:39.000Z</time></trkpt>
<trkpt lat="42.172203" lon="23.369763"><ele>2484.7</ele><time>2026-03-02T08:13:40.000Z</time></trkpt>
<trkpt lat="42.172203" lon="23.369763"><ele>2484.7</ele><time>2026-03-02T08:13:41.000Z</time></trkpt>
<trkpt lat="42.172203" lon="23.369763"><ele>2484.7</ele><time>2026-03-02T08:13:42.000Z</time></trkpt>
<trkpt lat="42.172203" lon="23.369763"><ele>2484.7</ele><time>2026-03-02T08:13:43.000Z</time></trkpt>
<trkpt lat="42.172202" lon="23.369763"><ele>2484.7</ele><time>2026-03-02T08:13:44.000Z</time></trkpt>
<trkpt lat="42.172202" lon="23.369763"><ele>2484.6</ele><time>2026-03-02T08:13:45.000Z</time></trkpt>
<trkpt lat="42.172202" lon="23.369762"><ele>2484.6</ele><time>2026-03-02T08:13:46.000Z</time></trkpt>
<trkpt lat="42.172201" lon="23.369762"><ele>2484.6</ele><time>2026-03-02T08:13:47.000Z</time></trkpt>
<trkpt lat="42.1722" lon="23.369762"><ele>2484.6</ele><time>2026-03-02T08:13:48.000Z</time></trkpt>
<trkpt lat="42.1722" lon="23.369763"><ele>2484.6</ele><time>2026-03-02T08:13:49.000Z</time></trkpt>
<trkpt lat="42.1722" lon="23.369763"><ele>2484.8</ele><time>2026-03-02T08:13:50.000Z</time></trkpt>
<trkpt lat="42.1722" lon="23.369764"><ele>2484.8</ele><time>2026-03-02T08:13:51.000Z</time></trkpt>
<trkpt lat="42.1722" lon="23.369765"><ele>2484.8</ele><time>2026-03-02T08:13:52.000Z</time></trkpt>
<trkpt lat="42.172201" lon="23.369766"><ele>2484.8</ele><time>2026-03-02T08:13:53.000Z</time></trkpt>
<trkpt lat="42.172201" lon="23.369766"><ele>2484.8</ele><time>2026-03-02T08:13:54.000Z</time></trkpt>
<trkpt lat="42.172201" lon="23.369766"><ele>2484.9</ele><time>2026-03-02T08:13:55.000Z</time></trkpt>
<trkpt lat="42.172202" lon="23.369766"><ele>2484.9</ele><time>2026-03-02T08:13:56.000Z</time></trkpt>
<trkpt lat="42.172202" lon="23.369766"><ele>2484.9</ele><time>2026-03-02T08:13:57.000Z</time></trkpt>
<trkpt lat="42.172203" lon="23.369766"><ele>2484.9</ele><time>2026-03-02T08:13:58.000Z</time></trkpt>
<trkpt lat="42.172203" lon="23.369766"><ele>2484.9</ele><time>2026-03-02T08:13:59.000Z</time></trkpt>
<trkpt lat="42.172203" lon="23.369766"><ele>2484.9</ele><time>2026-03-02T08:14:00.000Z</time></trkpt>
<trkpt lat="42.172204" lon="23.369767"><ele>2484.9</ele><time>2026-03-02T08:14:01.000Z</time></trkpt>
<trkpt lat="42.172205" lon="23.369767"><ele>2484.9</ele><time>2026-03-02T08:14:02.000Z</time></trkpt>
<trkpt lat="42.172205" lon="23.369767"><ele>2484.9</ele><time>2026-03-02T08:14:03.000Z</time></trkpt>
<trkpt lat="42.172206" lon="23.369768"><ele>2484.9</ele><time>2026-03-02T08:14:04.000Z</time></trkpt>
<trkpt lat="42.172207" lon="23.369768"><ele>2484.9</ele><time>2026-03-02T08:14:05.000Z</time></trkpt>
<trkpt lat="42.172209" lon="23.369769"><ele>2484.9</ele><time>2026-03-02T08:14:06.000Z</time></trkpt>
<trkpt lat="42.172211" lon="23.36977"><ele>2484.9</ele><time>2026-03-02T08:14:07.000Z</time></trkpt>
<trkpt lat="42.172212" lon="23.36977"><ele>2484.9</ele><time>2026-03-02T08:14:08.000Z</time></trkpt>
<trkpt lat="42.172213" lon="23.36977"><ele>2484.9</ele><time>2026-03-02T08:14:09.000Z</time></trkpt>
<trkpt lat="42.172214" lon="23.36977"><ele>2484.9</ele><time>2026-03-02T08:14:10.000Z</time></trkpt>
<trkpt lat="42.172214" lon="23.369768"><ele>2484.9</ele><time>2026-03-02T08:14:11.000Z</time></trkpt>
<trkpt lat="42.172213" lon="23.369766"><ele>2484.9</ele><time>2026-03-02T08:14:12.000Z</time></trkpt>
<trkpt lat="42.172213" lon="23.369765"><ele>2484.9</ele><time>2026-03-02T08:14:13.000Z</time></trkpt>
<trkpt lat="42.172213" lon="23.369765"><ele>2484.9</ele><time>2026-03-02T08:14:14.000Z</time></trkpt>
<trkpt lat="42.172212" lon="23.369764"><ele>2484.9</ele><time>2026-03-02T08:14:15.000Z</time></trkpt>
<trkpt lat="42.172211" lon="23.369764"><ele>2484.9</ele><time>2026-03-02T08:14:16.000Z</time></trkpt>
<trkpt lat="42.172211" lon="23.369765"><ele>2484.9</ele><time>2026-03-02T08:14:17.000Z</time></trkpt>
<trkpt lat="42.172211" lon="23.369765"><ele>2484.9</ele><time>2026-03-02T08:14:18.000Z</time></trkpt>
<trkpt lat="42.172211" lon="23.369765"><ele>2484.9</ele><time>2026-03-02T08:14:19.000Z</time></trkpt>
<trkpt lat="42.172211" lon="23.369764"><ele>2485</ele><time>2026-03-02T08:14:20.000Z</time></trkpt>
<trkpt lat="42.172212" lon="23.369763"><ele>2485</ele><time>2026-03-02T08:14:21.000Z</time></trkpt>
<trkpt lat="42.172211" lon="23.369762"><ele>2485</ele><time>2026-03-02T08:14:22.000Z</time></trkpt>
<trkpt lat="42.172211" lon="23.369761"><ele>2485</ele><time>2026-03-02T08:14:23.000Z</time></trkpt>
<trkpt lat="42.172211" lon="23.36976"><ele>2485</ele><time>2026-03-02T08:14:24.000Z</time></trkpt>
<trkpt lat="42.17221" lon="23.369759"><ele>2485</ele><time>2026-03-02T08:14:25.000Z</time></trkpt>
<trkpt lat="42.172209" lon="23.369759"><ele>2485</ele><time>2026-03-02T08:14:26.000Z</time></trkpt>
<trkpt lat="42.172209" lon="23.369759"><ele>2485</ele><time>2026-03-02T08:14:27.000Z</time></trkpt>
<trkpt lat="42.17221" lon="23.369759"><ele>2485</ele><time>2026-03-02T08:14:28.000Z</time></trkpt>
<trkpt lat="42.172211" lon="23.369761"><ele>2485</ele><time>2026-03-02T08:14:29.000Z</time></trkpt>
<trkpt lat="42.172212" lon="23.369762"><ele>2484.9</ele><time>2026-03-02T08:14:30.000Z</time></trkpt>
<trkpt lat="42.172213" lon="23.369764"><ele>2484.9</ele><time>2026-03-02T08:14:31.000Z</time></trkpt>
<trkpt lat="42.172213" lon="23.369764"><ele>2484.9</ele><time>2026-03-02T08:14:32.000Z</time></trkpt>
<trkpt lat="42.172212" lon="23.369764"><ele>2484.9</ele><time>2026-03-02T08:14:33.000Z</time></trkpt>
<trkpt lat="42.172211" lon="23.369764"><ele>2484.9</ele><time>2026-03-02T08:14:34.000Z</time></trkpt>
<trkpt lat="42.172211" lon="23.369765"><ele>2485</ele><time>2026-03-02T08:14:35.000Z</time></trkpt>
<trkpt lat="42.172211" lon="23.369765"><ele>2485</ele><time>2026-03-02T08:14:36.000Z</time></trkpt>
<trkpt lat="42.17221" lon="23.369767"><ele>2485</ele><time>2026-03-02T08:14:37.000Z</time></trkpt>
<trkpt lat="42.172209" lon="23.369769"><ele>2485</ele><time>2026-03-02T08:14:38.000Z</time></trkpt>
<trkpt lat="42.172208" lon="23.36977"><ele>2485</ele><time>2026-03-02T08:14:39.000Z</time></trkpt>
<trkpt lat="42.172208" lon="23.36977"><ele>2485.1</ele><time>2026-03-02T08:14:40.000Z</time></trkpt>
<trkpt lat="42.172208" lon="23.369771"><ele>2485.1</ele><time>2026-03-02T08:14:41.000Z</time></trkpt>
<trkpt lat="42.172208" lon="23.369771"><ele>2485.1</ele><time>2026-03-02T08:14:42.000Z</time></trkpt>
<trkpt lat="42.172208" lon="23.369772"><ele>2485.1</ele><time>2026-03-02T08:14:43.000Z</time></trkpt>
<trkpt lat="42.172209" lon="23.369773"><ele>2485.1</ele><time>2026-03-02T08:14:44.000Z</time></trkpt>
<trkpt lat="42.172209" lon="23.369773"><ele>2485.1</ele><time>2026-03-02T08:14:45.000Z</time></trkpt>
<trkpt lat="42.172209" lon="23.369773"><ele>2485.1</ele><time>2026-03-02T08:14:46.000Z</time></trkpt>
<trkpt lat="42.172209" lon="23.369773"><ele>2485.1</ele><time>2026-03-02T08:14:47.000Z</time></trkpt>
<trkpt lat="42.172209" lon="23.369773"><ele>2485.1</ele><time>2026-03-02T08:14:48.000Z</time></trkpt>
<trkpt lat="42.172209" lon="23.369772"><ele>2485.1</ele><time>2026-03-02T08:14:49.000Z</time></trkpt>
<trkpt lat="42.172209" lon="23.369772"><ele>2484.9</ele><time>2026-03-02T08:14:50.000Z</time></trkpt>
<trkpt lat="42.172209" lon="23.369771"><ele>2484.9</ele><time>2026-03-02T08:14:51.000Z</time></trkpt>
<trkpt lat="42.172208" lon="23.36977"><ele>2484.9</ele><time>2026-03-02T08:14:52.000Z</time></trkpt>
<trkpt lat="42.172208" lon="23.36977"><ele>2484.9</ele><time>2026-03-02T08:14:53.000Z</time></trkpt>
<trkpt lat="42.172208" lon="23.369769"><ele>2484.9</ele><time>2026-03-02T08:14:54.000Z</time></trkpt>
<trkpt lat="42.172207" lon="23.369769"><ele>2484.9</ele><time>2026-03-02T08:14:55.000Z</time></trkpt>
<trkpt lat="42.172207" lon="23.369769"><ele>2484.9</ele><time>2026-03-02T08:14:56.000Z</time></trkpt>
<trkpt lat="42.172207" lon="23.369769"><ele>2484.9</ele><time>2026-03-02T08:14:57.000Z</time></trkpt>
<trkpt lat="42.172207" lon="23.369768"><ele>2484.9</ele><time>2026-03-02T08:14:58.000Z</time></trkpt>
<trkpt lat="42.172207" lon="23.369766"><ele>2484.9</ele><time>2026-03-02T08:14:59.000Z</time></trkpt>
<trkpt lat="42.172208" lon="23.369765"><ele>2484.9</ele><time>2026-03-02T08:15:00.000Z</time></trkpt>
<trkpt lat="42.172208" lon="23.369764"><ele>2484.9</ele><time>2026-03-02T08:15:01.000Z</time></trkpt>
<trkpt lat="42.172208" lon="23.369762"><ele>2484.9</ele><time>2026-03-02T08:15:02.000Z</time></trkpt>
<trkpt lat="42.172208" lon="23.369762"><ele>2484.9</ele><time>2026-03-02T08:15:03.000Z</time></trkpt>
<trkpt lat="42.172209" lon="23.369762"><ele>2484.9</ele><time>2026-03-02T08:15:04.000Z</time></trkpt>
<trkpt lat="42.172209" lon="23.369762"><ele>2484.9</ele><time>2026-03-02T08:15:05.000Z</time></trkpt>
<trkpt lat="42.172209" lon="23.369762"><ele>2484.9</ele><time>2026-03-02T08:15:06.000Z</time></trkpt>
<trkpt lat="42.172209" lon="23.369762"><ele>2484.9</ele><time>2026-03-02T08:15:07.000Z</time></trkpt>
<trkpt lat="42.172209" lon="23.369763"><ele>2484.9</ele><time>2026-03-02T08:15:08.000Z</time></trkpt>
<trkpt lat="42.172208" lon="23.369763"><ele>2484.9</ele><time>2026-03-02T08:15:09.000Z</time></trkpt>
<trkpt lat="42.172207" lon="23.369764"><ele>2484.9</ele><time>2026-03-02T08:15:10.000Z</time></trkpt>
<trkpt lat="42.172205" lon="23.369764"><ele>2484.9</ele><time>2026-03-02T08:15:11.000Z</time></trkpt>
<trkpt lat="42.172204" lon="23.369764"><ele>2484.9</ele><time>2026-03-02T08:15:12.000Z</time></trkpt>
<trkpt lat="42.172203" lon="23.369764"><ele>2484.9</ele><time>2026-03-02T08:15:13.000Z</time></trkpt>
<trkpt lat="42.172203" lon="23.369765"><ele>2484.9</ele><time>2026-03-02T08:15:14.000Z</time></trkpt>
<trkpt lat="42.172204" lon="23.369765"><ele>2484.8</ele><time>2026-03-02T08:15:15.000Z</time></trkpt>
<trkpt lat="42.172204" lon="23.369766"><ele>2484.8</ele><time>2026-03-02T08:15:16.000Z</time></trkpt>
<trkpt lat="42.172204" lon="23.369766"><ele>2484.8</ele><time>2026-03-02T08:15:17.000Z</time></trkpt>
<trkpt lat="42.172204" lon="23.369766"><ele>2484.8</ele><time>2026-03-02T08:15:18.000Z</time></trkpt>
<trkpt lat="42.172204" lon="23.369766"><ele>2484.8</ele><time>2026-03-02T08:15:19.000Z</time></trkpt>
<trkpt lat="42.172204" lon="23.369766"><ele>2484.8</ele><time>2026-03-02T08:15:20.000Z</time></trkpt>
<trkpt lat="42.172204" lon="23.369766"><ele>2484.8</ele><time>2026-03-02T08:15:21.000Z</time></trkpt>
<trkpt lat="42.172204" lon="23.369766"><ele>2484.8</ele><time>2026-03-02T08:15:22.000Z</time></trkpt>
<trkpt lat="42.172204" lon="23.369766"><ele>2484.8</ele><time>2026-03-02T08:15:23.000Z</time></trkpt>
<trkpt lat="42.172204" lon="23.369766"><ele>2484.8</ele><time>2026-03-02T08:15:24.000Z</time></trkpt>
<trkpt lat="42.172204" lon="23.369766"><ele>2484.8</ele><time>2026-03-02T08:15:25.000Z</time></trkpt>
<trkpt lat="42.172204" lon="23.369766"><ele>2484.8</ele><time>2026-03-02T08:15:26.000Z</time></trkpt>
<trkpt lat="42.172204" lon="23.369766"><ele>2484.8</ele><time>2026-03-02T08:15:27.000Z</time></trkpt>
<trkpt lat="42.172205" lon="23.369766"><ele>2484.8</ele><time>2026-03-02T08:15:28.000Z</time></trkpt>
<trkpt lat="42.172205" lon="23.369765"><ele>2484.8</ele><time>2026-03-02T08:15:29.000Z</time></trkpt>
<trkpt lat="42.172205" lon="23.369765"><ele>2484.9</ele><time>2026-03-02T08:15:30.000Z</time></trkpt>
<trkpt lat="42.172206" lon="23.369765"><ele>2484.9</ele><time>2026-03-02T08:15:31.000Z</time></trkpt>
<trkpt lat="42.172206" lon="23.369764"><ele>2484.9</ele><time>2026-03-02T08:15:32.000Z</time></trkpt>
<trkpt lat="42.172206" lon="23.369764"><ele>2484.9</ele><time>2026-03-02T08:15:33.000Z</time></trkpt>
<trkpt lat="42.172206" lon="23.369764"><ele>2484.9</ele><time>2026-03-02T08:15:34.000Z</time></trkpt>
<trkpt lat="42.172206" lon="23.369765"><ele>2485</ele><time>2026-03-02T08:15:35.000Z</time></trkpt>
<trkpt lat="42.172206" lon="23.369767"><ele>2485</ele><time>2026-03-02T08:15:36.000Z</time></trkpt>
<trkpt lat="42.172206" lon="23.369768"><ele>2485</ele><time>2026-03-02T08:15:37.000Z</time></trkpt>
<trkpt lat="42.172207" lon="23.369769"><ele>2485</ele><time>2026-03-02T08:15:38.000Z</time></trkpt>
<trkpt lat="42.172208" lon="23.369771"><ele>2485</ele><time>2026-03-02T08:15:39.000Z</time></trkpt>
<trkpt lat="42.172208" lon="23.369772"><ele>2485</ele><time>2026-03-02T08:15:40.000Z</time></trkpt>
<trkpt lat="42.172209" lon="23.369772"><ele>2485</ele><time>2026-03-02T08:15:41.000Z</time></trkpt>
<trkpt lat="42.172209" lon="23.369772"><ele>2485</ele><time>2026-03-02T08:15:42.000Z</time></trkpt>
<trkpt lat="42.172209" lon="23.369772"><ele>2485</ele><time>2026-03-02T08:15:43.000Z</time></trkpt>
<trkpt lat="42.17221" lon="23.369772"><ele>2485</ele><time>2026-03-02T08:15:44.000Z</time></trkpt>
<trkpt lat="42.172209" lon="23.369772"><ele>2485</ele><time>2026-03-02T08:15:45.000Z</time></trkpt>
<trkpt lat="42.172209" lon="23.369772"><ele>2485</ele><time>2026-03-02T08:15:46.000Z</time></trkpt>
<trkpt lat="42.172208" lon="23.369773"><ele>2485</ele><time>2026-03-02T08:15:47.000Z</time></trkpt>
<trkpt lat="42.172207" lon="23.369773"><ele>2485</ele><time>2026-03-02T08:15:48.000Z</time></trkpt>
<trkpt lat="42.172206" lon="23.369773"><ele>2485</ele><time>2026-03-02T08:15:49.000Z</time></trkpt>
<trkpt lat="42.172205" lon="23.369772"><ele>2485.1</ele><time>2026-03-02T08:15:50.000Z</time></trkpt>
<trkpt lat="42.172203" lon="23.369772"><ele>2485.1</ele><time>2026-03-02T08:15:51.000Z</time></trkpt>
<trkpt lat="42.172202" lon="23.369771"><ele>2485.1</ele><time>2026-03-02T08:15:52.000Z</time></trkpt>
<trkpt lat="42.172202" lon="23.369771"><ele>2485.1</ele><time>2026-03-02T08:15:53.000Z</time></trkpt>
<trkpt lat="42.172201" lon="23.369771"><ele>2485.1</ele><time>2026-03-02T08:15:54.000Z</time></trkpt>
<trkpt lat="42.172201" lon="23.36977"><ele>2485.1</ele><time>2026-03-02T08:15:55.000Z</time></trkpt>
<trkpt lat="42.172201" lon="23.36977"><ele>2485.1</ele><time>2026-03-02T08:15:56.000Z</time></trkpt>
<trkpt lat="42.172201" lon="23.36977"><ele>2485.1</ele><time>2026-03-02T08:15:57.000Z</time></trkpt>
<trkpt lat="42.172201" lon="23.369769"><ele>2485.1</ele><time>2026-03-02T08:15:58.000Z</time></trkpt>
<trkpt lat="42.172201" lon="23.369768"><ele>2485.1</ele><time>2026-03-02T08:15:59.000Z</time></trkpt>
<trkpt lat="42.172202" lon="23.369767"><ele>2485</ele><time>2026-03-02T08:16:00.000Z</time></trkpt>
<trkpt lat="42.172202" lon="23.369766"><ele>2485</ele><time>2026-03-02T08:16:01.000Z</time></trkpt>
<trkpt lat="42.172202" lon="23.369766"><ele>2485</ele><time>2026-03-02T08:16:02.000Z</time></trkpt>
<trkpt lat="42.172202" lon="23.369766"><ele>2485</ele><time>2026-03-02T08:16:03.000Z</time></trkpt>
<trkpt lat="42.172201" lon="23.369765"><ele>2485</ele><time>2026-03-02T08:16:04.000Z</time></trkpt>
<trkpt lat="42.172201" lon="23.369765"><ele>2484.7</ele><time>2026-03-02T08:16:05.000Z</time></trkpt>
<trkpt lat="42.1722" lon="23.369765"><ele>2484.7</ele><time>2026-03-02T08:16:06.000Z</time></trkpt>
<trkpt lat="42.172199" lon="23.369765"><ele>2484.7</ele><time>2026-03-02T08:16:07.000Z</time></trkpt>
<trkpt lat="42.172199" lon="23.369764"><ele>2484.7</ele><time>2026-03-02T08:16:08.000Z</time></trkpt>
<trkpt lat="42.172198" lon="23.369764"><ele>2484.7</ele><time>2026-03-02T08:16:09.000Z</time></trkpt>
<trkpt lat="42.172197" lon="23.369764"><ele>2484.5</ele><time>2026-03-02T08:16:10.000Z</time></trkpt>
<trkpt lat="42.172196" lon="23.369764"><ele>2484.5</ele><time>2026-03-02T08:16:11.000Z</time></trkpt>
<trkpt lat="42.172196" lon="23.369765"><ele>2484.5</ele><time>2026-03-02T08:16:12.000Z</time></trkpt>
<trkpt lat="42.172196" lon="23.369766"><ele>2484.5</ele><time>2026-03-02T08:16:13.000Z</time></trkpt>
<trkpt lat="42.172196" lon="23.369767"><ele>2484.5</ele><time>2026-03-02T08:16:14.000Z</time></trkpt>
<trkpt lat="42.172197" lon="23.369768"><ele>2484.4</ele><time>2026-03-02T08:16:15.000Z</time></trkpt>
<trkpt lat="42.172197" lon="23.369767"><ele>2484.4</ele><time>2026-03-02T08:16:16.000Z</time></trkpt>
<trkpt lat="42.172196" lon="23.369767"><ele>2484.4</ele><time>2026-03-02T08:16:17.000Z</time></trkpt>
<trkpt lat="42.172196" lon="23.369766"><ele>2484.4</ele><time>2026-03-02T08:16:18.000Z</time></trkpt>
<trkpt lat="42.172196" lon="23.369765"><ele>2484.4</ele><time>2026-03-02T08:16:19.000Z</time></trkpt>
<trkpt lat="42.172196" lon="23.369765"><ele>2484.4</ele><time>2026-03-02T08:16:20.000Z</time></trkpt>
<trkpt lat="42.172197" lon="23.369765"><ele>2484.4</ele><time>2026-03-02T08:16:21.000Z</time></trkpt>
<trkpt lat="42.172198" lon="23.369765"><ele>2484.4</ele><time>2026-03-02T08:16:22.000Z</time></trkpt>
<trkpt lat="42.172199" lon="23.369765"><ele>2484.4</ele><time>2026-03-02T08:16:23.000Z</time></trkpt>
<trkpt lat="42.1722" lon="23.369764"><ele>2484.4</ele><time>2026-03-02T08:16:24.000Z</time></trkpt>
<trkpt lat="42.172201" lon="23.369764"><ele>2484.4</ele><time>2026-03-02T08:16:25.000Z</time></trkpt>
<trkpt lat="42.1722" lon="23.369764"><ele>2484.4</ele><time>2026-03-02T08:16:26.000Z</time></trkpt>
<trkpt lat="42.1722" lon="23.369763"><ele>2484.4</ele><time>2026-03-02T08:16:27.000Z</time></trkpt>
<trkpt lat="42.1722" lon="23.369763"><ele>2484.4</ele><time>2026-03-02T08:16:28.000Z</time></trkpt>
<trkpt lat="42.172201" lon="23.369763"><ele>2484.4</ele><time>2026-03-02T08:16:29.000Z</time></trkpt>
<trkpt lat="42.172201" lon="23.369763"><ele>2484.2</ele><time>2026-03-02T08:16:30.000Z</time></trkpt>
<trkpt lat="42.172202" lon="23.369763"><ele>2484.2</ele><time>2026-03-02T08:16:31.000Z</time></trkpt>
<trkpt lat="42.172203" lon="23.369763"><ele>2484.2</ele><time>2026-03-02T08:16:32.000Z</time></trkpt>
<trkpt lat="42.172203" lon="23.369763"><ele>2484.2</ele><time>2026-03-02T08:16:33.000Z</time></trkpt>
<trkpt lat="42.172203" lon="23.369763"><ele>2484.2</ele><time>2026-03-02T08:16:34.000Z</time></trkpt>
<trkpt lat="42.172203" lon="23.369763"><ele>2484</ele><time>2026-03-02T08:16:35.000Z</time></trkpt>
<trkpt lat="42.172203" lon="23.369763"><ele>2484</ele><time>2026-03-02T08:16:36.000Z</time></trkpt>
<trkpt lat="42.172203" lon="23.369763"><ele>2484</ele><time>2026-03-02T08:16:37.000Z</time></trkpt>
<trkpt lat="42.172203" lon="23.369763"><ele>2484</ele><time>2026-03-02T08:16:38.000Z</time></trkpt>
<trkpt lat="42.172203" lon="23.369762"><ele>2484</ele><time>2026-03-02T08:16:39.000Z</time></trkpt>
<trkpt lat="42.172204" lon="23.369762"><ele>2484</ele><time>2026-03-02T08:16:40.000Z</time></trkpt>
<trkpt lat="42.172204" lon="23.369761"><ele>2484</ele><time>2026-03-02T08:16:41.000Z</time></trkpt>
<trkpt lat="42.172205" lon="23.36976"><ele>2484</ele><time>2026-03-02T08:16:42.000Z</time></trkpt>
<trkpt lat="42.172205" lon="23.36976"><ele>2484</ele><time>2026-03-02T08:16:43.000Z</time></trkpt>
<trkpt lat="42.172206" lon="23.369759"><ele>2484</ele><time>2026-03-02T08:16:44.000Z</time></trkpt>
<trkpt lat="42.172206" lon="23.369759"><ele>2483.9</ele><time>2026-03-02T08:16:45.000Z</time></trkpt>
<trkpt lat="42.172206" lon="23.369759"><ele>2483.9</ele><time>2026-03-02T08:16:46.000Z</time></trkpt>
<trkpt lat="42.172206" lon="23.369759"><ele>2483.9</ele><time>2026-03-02T08:16:47.000Z</time></trkpt>
<trkpt lat="42.172205" lon="23.36976"><ele>2483.9</ele><time>2026-03-02T08:16:48.000Z</time></trkpt>
<trkpt lat="42.172206" lon="23.369761"><ele>2483.9</ele><time>2026-03-02T08:16:49.000Z</time></trkpt>
<trkpt lat="42.172206" lon="23.369761"><ele>2484</ele><time>2026-03-02T08:16:50.000Z</time></trkpt>
<trkpt lat="42.172206" lon="23.369762"><ele>2484</ele><time>2026-03-02T08:16:51.000Z</time></trkpt>
<trkpt lat="42.172207" lon="23.369763"><ele>2484</ele><time>2026-03-02T08:16:52.000Z</time></trkpt>
<trkpt lat="42.172208" lon="23.369764"><ele>2484</ele><time>2026-03-02T08:16:53.000Z</time></trkpt>
<trkpt lat="42.172208" lon="23.369764"><ele>2484</ele><time>2026-03-02T08:16:54.000Z</time></trkpt>
<trkpt lat="42.172208" lon="23.369765"><ele>2484.1</ele><time>2026-03-02T08:16:55.000Z</time></trkpt>
<trkpt lat="42.172209" lon="23.369766"><ele>2484.1</ele><time>2026-03-02T08:16:56.000Z</time></trkpt>
<trkpt lat="42.172209" lon="23.369767"><ele>2484.1</ele><time>2026-03-02T08:16:57.000Z</time></trkpt>
<trkpt lat="42.172209" lon="23.369768"><ele>2484.1</ele><time>2026-03-02T08:16:58.000Z</time></trkpt>
<trkpt lat="42.172209" lon="23.369769"><ele>2484.1</ele><time>2026-03-02T08:16:59.000Z</time></trkpt>
<trkpt lat="42.17221" lon="23.36977"><ele>2484.2</ele><time>2026-03-02T08:17:00.000Z</time></trkpt>
<trkpt lat="42.17221" lon="23.369769"><ele>2484.2</ele><time>2026-03-02T08:17:01.000Z</time></trkpt>
<trkpt lat="42.17221" lon="23.369769"><ele>2484.2</ele><time>2026-03-02T08:17:02.000Z</time></trkpt>
<trkpt lat="42.17221" lon="23.369768"><ele>2484.2</ele><time>2026-03-02T08:17:03.000Z</time></trkpt>
<trkpt lat="42.17221" lon="23.369768"><ele>2484.2</ele><time>2026-03-02T08:17:04.000Z</time></trkpt>
<trkpt lat="42.17221" lon="23.369767"><ele>2484.1</ele><time>2026-03-02T08:17:05.000Z</time></trkpt>
<trkpt lat="42.17221" lon="23.369767"><ele>2484.1</ele><time>2026-03-02T08:17:06.000Z</time></trkpt>
<trkpt lat="42.17221" lon="23.369767"><ele>2484.1</ele><time>2026-03-02T08:17:07.000Z</time></trkpt>
<trkpt lat="42.17221" lon="23.369767"><ele>2484.1</ele><time>2026-03-02T08:17:08.000Z</time></trkpt>
<trkpt lat="42.17221" lon="23.369767"><ele>2484.1</ele><time>2026-03-02T08:17:09.000Z</time></trkpt>
<trkpt lat="42.17221" lon="23.369767"><ele>2484.1</ele><time>2026-03-02T08:17:10.000Z</time></trkpt>
<trkpt lat="42.17221" lon="23.369768"><ele>2484.1</ele><time>2026-03-02T08:17:11.000Z</time></trkpt>
<trkpt lat="42.17221" lon="23.369768"><ele>2484.1</ele><time>2026-03-02T08:17:12.000Z</time></trkpt>
<trkpt lat="42.17221" lon="23.369768"><ele>2484.1</ele><time>2026-03-02T08:17:13.000Z</time></trkpt>
<trkpt lat="42.17221" lon="23.369768"><ele>2484.1</ele><time>2026-03-02T08:17:14.000Z</time></trkpt>
<trkpt lat="42.17221" lon="23.369768"><ele>2484</ele><time>2026-03-02T08:17:15.000Z</time></trkpt>
<trkpt lat="42.17221" lon="23.369768"><ele>2484</ele><time>2026-03-02T08:17:16.000Z</time></trkpt>
<trkpt lat="42.172211" lon="23.369768"><ele>2484</ele><time>2026-03-02T08:17:17.000Z</time></trkpt>
<trkpt lat="42.172211" lon="23.369768"><ele>2484</ele><time>2026-03-02T08:17:18.000Z</time></trkpt>
<trkpt lat="42.172212" lon="23.369768"><ele>2484</ele><time>2026-03-02T08:17:19.000Z</time></trkpt>
<trkpt lat="42.172212" lon="23.369768"><ele>2484</ele><time>2026-03-02T08:17:20.000Z</time></trkpt>
<trkpt lat="42.172212" lon="23.369767"><ele>2484</ele><time>2026-03-02T08:17:21.000Z</time></trkpt>
<trkpt lat="42.172213" lon="23.369766"><ele>2484</ele><time>2026-03-02T08:17:22.000Z</time></trkpt>
<trkpt lat="42.172213" lon="23.369765"><ele>2484</ele><time>2026-03-02T08:17:23.000Z</time></trkpt>
<trkpt lat="42.172213" lon="23.369764"><ele>2484</ele><time>2026-03-02T08:17:24.000Z</time></trkpt>
<trkpt lat="42.172213" lon="23.369764"><ele>2484.2</ele><time>2026-03-02T08:17:25.000Z</time></trkpt>
<trkpt lat="42.172213" lon="23.369763"><ele>2484.2</ele><time>2026-03-02T08:17:26.000Z</time></trkpt>
<trkpt lat="42.172213" lon="23.369763"><ele>2484.2</ele><time>2026-03-02T08:17:27.000Z</time></trkpt>
<trkpt lat="42.172213" lon="23.369763"><ele>2484.2</ele><time>2026-03-02T08:17:28.000Z</time></trkpt>
<trkpt lat="42.172213" lon="23.369763"><ele>2484.2</ele><time>2026-03-02T08:17:29.000Z</time></trkpt>
<trkpt lat="42.172213" lon="23.369763"><ele>2484.5</ele><time>2026-03-02T08:17:30.000Z</time></trkpt>
<trkpt lat="42.172213" lon="23.369763"><ele>2484.5</ele><time>2026-03-02T08:17:31.000Z</time></trkpt>
<trkpt lat="42.172213" lon="23.369763"><ele>2484.5</ele><time>2026-03-02T08:17:32.000Z</time></trkpt>
<trkpt lat="42.172212" lon="23.369763"><ele>2484.5</ele><time>2026-03-02T08:17:33.000Z</time></trkpt>
<trkpt lat="42.172211" lon="23.369763"><ele>2484.5</ele><time>2026-03-02T08:17:34.000Z</time></trkpt>
<trkpt lat="42.172211" lon="23.369763"><ele>2484.7</ele><time>2026-03-02T08:17:35.000Z</time></trkpt>
<trkpt lat="42.17221" lon="23.369763"><ele>2484.7</ele><time>2026-03-02T08:17:36.000Z</time></trkpt>
<trkpt lat="42.172209" lon="23.369763"><ele>2484.7</ele><time>2026-03-02T08:17:37.000Z</time></trkpt>
<trkpt lat="42.172209" lon="23.369763"><ele>2484.7</ele><time>2026-03-02T08:17:38.000Z</time></trkpt>
<trkpt lat="42.172209" lon="23.369762"><ele>2484.7</ele><time>2026-03-02T08:17:39.000Z</time></trkpt>
<trkpt lat="42.172209" lon="23.369762"><ele>2484.8</ele><time>2026-03-02T08:17:40.000Z</time></trkpt>
<trkpt lat="42.172209" lon="23.369762"><ele>2484.8</ele><time>2026-03-02T08:17:41.000Z</time></trkpt>
<trkpt lat="42.172209" lon="23.369761"><ele>2484.8</ele><time>2026-03-02T08:17:42.000Z</time></trkpt>
<trkpt lat="42.172209" lon="23.369761"><ele>2484.8</ele><time>2026-03-02T08:17:43.000Z</time></trkpt>
<trkpt lat="42.172209" lon="23.369761"><ele>2484.8</ele><time>2026-03-02T08:17:44.000Z</time></trkpt>
<trkpt lat="42.17221" lon="23.369761"><ele>2484.8</ele><time>2026-03-02T08:17:45.000Z</time></trkpt>
<trkpt lat="42.17221" lon="23.369761"><ele>2484.8</ele><time>2026-03-02T08:17:46.000Z</time></trkpt>
<trkpt lat="42.17221" lon="23.369761"><ele>2484.8</ele><time>2026-03-02T08:17:47.000Z</time></trkpt>
<trkpt lat="42.17221" lon="23.36976"><ele>2484.8</ele><time>2026-03-02T08:17:48.000Z</time></trkpt>
<trkpt lat="42.17221" lon="23.36976"><ele>2484.8</ele><time>2026-03-02T08:17:49.000Z</time></trkpt>
<trkpt lat="42.17221" lon="23.369759"><ele>2484.8</ele><time>2026-03-02T08:17:50.000Z</time></trkpt>
<trkpt lat="42.17221" lon="23.369759"><ele>2484.8</ele><time>2026-03-02T08:17:51.000Z</time></trkpt>
<trkpt lat="42.172209" lon="23.369758"><ele>2484.8</ele><time>2026-03-02T08:17:52.000Z</time></trkpt>
<trkpt lat="42.172209" lon="23.369758"><ele>2484.8</ele><time>2026-03-02T08:17:53.000Z</time></trkpt>
<trkpt lat="42.172208" lon="23.369759"><ele>2484.8</ele><time>2026-03-02T08:17:54.000Z</time></trkpt>
<trkpt lat="42.172208" lon="23.369759"><ele>2484.9</ele><time>2026-03-02T08:17:55.000Z</time></trkpt>
<trkpt lat="42.172207" lon="23.369759"><ele>2484.9</ele><time>2026-03-02T08:17:56.000Z</time></trkpt>
<trkpt lat="42.172207" lon="23.369759"><ele>2484.9</ele><time>2026-03-02T08:17:57.000Z</time></trkpt>
<trkpt lat="42.172207" lon="23.369759"><ele>2484.9</ele><time>2026-03-02T08:17:58.000Z</time></trkpt>
<trkpt lat="42.172207" lon="23.369759"><ele>2484.9</ele><time>2026-03-02T08:17:59.000Z</time></trkpt>
<trkpt lat="42.172207" lon="23.369759"><ele>2485</ele><time>2026-03-02T08:18:00.000Z</time></trkpt>
<trkpt lat="42.172207" lon="23.369759"><ele>2485</ele><time>2026-03-02T08:18:01.000Z</time></trkpt>
<trkpt lat="42.172207" lon="23.369759"><ele>2485</ele><time>2026-03-02T08:18:02.000Z</time></trkpt>
<trkpt lat="42.172207" lon="23.369759"><ele>2485</ele><time>2026-03-02T08:18:03.000Z</time></trkpt>
<trkpt lat="42.172207" lon="23.369759"><ele>2485</ele><time>2026-03-02T08:18:04.000Z</time></trkpt>
<trkpt lat="42.172207" lon="23.369759"><ele>2485</ele><time>2026-03-02T08:18:05.000Z</time></trkpt>
<trkpt lat="42.172207" lon="23.369759"><ele>2485</ele><time>2026-03-02T08:18:06.000Z</time></trkpt>
<trkpt lat="42.172206" lon="23.369759"><ele>2485</ele><time>2026-03-02T08:18:07.000Z</time></trkpt>
<trkpt lat="42.172205" lon="23.369759"><ele>2485</ele><time>2026-03-02T08:18:08.000Z</time></trkpt>
<trkpt lat="42.172205" lon="23.369759"><ele>2485</ele><time>2026-03-02T08:18:09.000Z</time></trkpt>
<trkpt lat="42.172204" lon="23.369759"><ele>2485</ele><time>2026-03-02T08:18:10.000Z</time></trkpt>
<trkpt lat="42.172204" lon="23.369759"><ele>2485</ele><time>2026-03-02T08:18:11.000Z</time></trkpt>
<trkpt lat="42.172204" lon="23.369759"><ele>2485</ele><time>2026-03-02T08:18:12.000Z</time></trkpt>
<trkpt lat="42.172204" lon="23.369758"><ele>2485</ele><time>2026-03-02T08:18:13.000Z</time></trkpt>
<trkpt lat="42.172204" lon="23.369758"><ele>2485</ele><time>2026-03-02T08:18:14.000Z</time></trkpt>
<trkpt lat="42.172203" lon="23.369758"><ele>2484.8</ele><time>2026-03-02T08:18:15.000Z</time></trkpt>
<trkpt lat="42.172203" lon="23.369757"><ele>2484.8</ele><time>2026-03-02T08:18:16.000Z</time></trkpt>
<trkpt lat="42.172203" lon="23.369757"><ele>2484.8</ele><time>2026-03-02T08:18:17.000Z</time></trkpt>
<trkpt lat="42.172203" lon="23.369757"><ele>2484.8</ele><time>2026-03-02T08:18:18.000Z</time></trkpt>
<trkpt lat="42.172203" lon="23.369757"><ele>2484.8</ele><time>2026-03-02T08:18:19.000Z</time></trkpt>
<trkpt lat="42.172203" lon="23.369757"><ele>2484.6</ele><time>2026-03-02T08:18:20.000Z</time></trkpt>
<trkpt lat="42.172203" lon="23.369757"><ele>2484.6</ele><time>2026-03-02T08:18:21.000Z</time></trkpt>
<trkpt lat="42.172203" lon="23.369757"><ele>2484.6</ele><time>2026-03-02T08:18:22.000Z</time></trkpt>
<trkpt lat="42.172204" lon="23.369757"><ele>2484.6</ele><time>2026-03-02T08:18:23.000Z</time></trkpt>
<trkpt lat="42.172204" lon="23.369757"><ele>2484.6</ele><time>2026-03-02T08:18:24.000Z</time></trkpt>
<trkpt lat="42.172205" lon="23.369757"><ele>2484.6</ele><time>2026-03-02T08:18:25.000Z</time></trkpt>
<trkpt lat="42.172205" lon="23.369757"><ele>2484.6</ele><time>2026-03-02T08:18:26.000Z</time></trkpt>
<trkpt lat="42.172205" lon="23.369757"><ele>2484.6</ele><time>2026-03-02T08:18:27.000Z</time></trkpt>
<trkpt lat="42.172205" lon="23.369757"><ele>2484.6</ele><time>2026-03-02T08:18:28.000Z</time></trkpt>
<trkpt lat="42.172205" lon="23.369757"><ele>2484.6</ele><time>2026-03-02T08:18:29.000Z</time></trkpt>
<trkpt lat="42.172205" lon="23.369757"><ele>2484.6</ele><time>2026-03-02T08:18:30.000Z</time></trkpt>
<trkpt lat="42.172205" lon="23.369757"><ele>2484.6</ele><time>2026-03-02T08:18:31.000Z</time></trkpt>
<trkpt lat="42.172205" lon="23.369757"><ele>2484.6</ele><time>2026-03-02T08:18:32.000Z</time></trkpt>
<trkpt lat="42.172205" lon="23.369757"><ele>2484.6</ele><time>2026-03-02T08:18:33.000Z</time></trkpt>
<trkpt lat="42.172205" lon="23.369757"><ele>2484.6</ele><time>2026-03-02T08:18:34.000Z</time></trkpt>
<trkpt lat="42.172205" lon="23.369757"><ele>2484.7</ele><time>2026-03-02T08:18:35.000Z</time></trkpt>
<trkpt lat="42.172204" lon="23.369757"><ele>2484.7</ele><time>2026-03-02T08:18:36.000Z</time></trkpt>
<trkpt lat="42.172204" lon="23.369756"><ele>2484.7</ele><time>2026-03-02T08:18:37.000Z</time></trkpt>
<trkpt lat="42.172203" lon="23.369756"><ele>2484.7</ele><time>2026-03-02T08:18:38.000Z</time></trkpt>
<trkpt lat="42.172202" lon="23.369755"><ele>2484.7</ele><time>2026-03-02T08:18:39.000Z</time></trkpt>
<trkpt lat="42.172201" lon="23.369755"><ele>2484.7</ele><time>2026-03-02T08:18:40.000Z</time></trkpt>
<trkpt lat="42.172201" lon="23.369756"><ele>2484.7</ele><time>2026-03-02T08:18:41.000Z</time></trkpt>
<trkpt lat="42.172202" lon="23.369758"><ele>2484.7</ele><time>2026-03-02T08:18:42.000Z</time></trkpt>
<trkpt lat="42.172202" lon="23.369759"><ele>2484.7</ele><time>2026-03-02T08:18:43.000Z</time></trkpt>
<trkpt lat="42.172203" lon="23.36976"><ele>2484.7</ele><time>2026-03-02T08:18:44.000Z</time></trkpt>
<trkpt lat="42.172203" lon="23.369761"><ele>2484.8</ele><time>2026-03-02T08:18:45.000Z</time></trkpt>
<trkpt lat="42.172203" lon="23.369761"><ele>2484.8</ele><time>2026-03-02T08:18:46.000Z</time></trkpt>
<trkpt lat="42.172203" lon="23.369761"><ele>2484.8</ele><time>2026-03-02T08:18:47.000Z</time></trkpt>
<trkpt lat="42.172203" lon="23.369761"><ele>2484.8</ele><time>2026-03-02T08:18:48.000Z</time></trkpt>
<trkpt lat="42.172203" lon="23.369762"><ele>2484.8</ele><time>2026-03-02T08:18:49.000Z</time></trkpt>
<trkpt lat="42.172204" lon="23.369763"><ele>2484.6</ele><time>2026-03-02T08:18:50.000Z</time></trkpt>
<trkpt lat="42.172205" lon="23.369765"><ele>2484.6</ele><time>2026-03-02T08:18:51.000Z</time></trkpt>
<trkpt lat="42.172208" lon="23.369765"><ele>2484.6</ele><time>2026-03-02T08:18:52.000Z</time></trkpt>
<trkpt lat="42.172209" lon="23.369765"><ele>2484.6</ele><time>2026-03-02T08:18:53.000Z</time></trkpt>
<trkpt lat="42.17221" lon="23.369765"><ele>2484.6</ele><time>2026-03-02T08:18:54.000Z</time></trkpt>
<trkpt lat="42.172211" lon="23.369763"><ele>2484.4</ele><time>2026-03-02T08:18:55.000Z</time></trkpt>
<trkpt lat="42.172211" lon="23.369763"><ele>2484.4</ele><time>2026-03-02T08:18:56.000Z</time></trkpt>
<trkpt lat="42.17221" lon="23.369764"><ele>2484.4</ele><time>2026-03-02T08:18:57.000Z</time></trkpt>
<trkpt lat="42.17221" lon="23.369764"><ele>2484.4</ele><time>2026-03-02T08:18:58.000Z</time></trkpt>
<trkpt lat="42.17221" lon="23.369765"><ele>2484.4</ele><time>2026-03-02T08:18:59.000Z</time></trkpt>
<trkpt lat="42.172211" lon="23.369765"><ele>2484.3</ele><time>2026-03-02T08:19:00.000Z</time></trkpt>
<trkpt lat="42.172212" lon="23.369764"><ele>2484.3</ele><time>2026-03-02T08:19:01.000Z</time></trkpt>
<trkpt lat="42.172213" lon="23.369763"><ele>2484.3</ele><time>2026-03-02T08:19:02.000Z</time></trkpt>
<trkpt lat="42.172213" lon="23.369763"><ele>2484.3</ele><time>2026-03-02T08:19:03.000Z</time></trkpt>
<trkpt lat="42.172213" lon="23.369763"><ele>2484.3</ele><time>2026-03-02T08:19:04.000Z</time></trkpt>
<trkpt lat="42.172213" lon="23.369763"><ele>2484.4</ele><time>2026-03-02T08:19:05.000Z</time></trkpt>
<trkpt lat="42.172213" lon="23.369762"><ele>2484.4</ele><time>2026-03-02T08:19:06.000Z</time></trkpt>
<trkpt lat="42.172213" lon="23.369762"><ele>2484.4</ele><time>2026-03-02T08:19:07.000Z</time></trkpt>
<trkpt lat="42.172213" lon="23.369763"><ele>2484.4</ele><time>2026-03-02T08:19:08.000Z</time></trkpt>
<trkpt lat="42.172213" lon="23.369763"><ele>2484.4</ele><time>2026-03-02T08:19:09.000Z</time></trkpt>
<trkpt lat="42.172213" lon="23.369764"><ele>2484.4</ele><time>2026-03-02T08:19:10.000Z</time></trkpt>
<trkpt lat="42.172214" lon="23.369765"><ele>2484.4</ele><time>2026-03-02T08:19:11.000Z</time></trkpt>
<trkpt lat="42.172214" lon="23.369766"><ele>2484.4</ele><time>2026-03-02T08:19:12.000Z</time></trkpt>
<trkpt lat="42.172215" lon="23.369766"><ele>2484.4</ele><time>2026-03-02T08:19:13.000Z</time></trkpt>
<trkpt lat="42.172215" lon="23.369767"><ele>2484.4</ele><time>2026-03-02T08:19:14.000Z</time></trkpt>
<trkpt lat="42.172215" lon="23.369767"><ele>2484.5</ele><time>2026-03-02T08:19:15.000Z</time></trkpt>
<trkpt lat="42.172215" lon="23.369768"><ele>2484.5</ele><time>2026-03-02T08:19:16.000Z</time></trkpt>
<trkpt lat="42.172215" lon="23.369768"><ele>2484.5</ele><time>2026-03-02T08:19:17.000Z</time></trkpt>
<trkpt lat="42.172215" lon="23.369769"><ele>2484.5</ele><time>2026-03-02T08:19:18.000Z</time></trkpt>
<trkpt lat="42.172215" lon="23.369769"><ele>2484.5</ele><time>2026-03-02T08:19:19.000Z</time></trkpt>
<trkpt lat="42.172216" lon="23.369769"><ele>2484.6</ele><time>2026-03-02T08:19:20.000Z</time></trkpt>
<trkpt lat="42.172216" lon="23.369769"><ele>2484.6</ele><time>2026-03-02T08:19:21.000Z</time></trkpt>
<trkpt lat="42.172215" lon="23.369768"><ele>2484.6</ele><time>2026-03-02T08:19:22.000Z</time></trkpt>
<trkpt lat="42.172215" lon="23.369768"><ele>2484.6</ele><time>2026-03-02T08:19:23.000Z</time></trkpt>
<trkpt lat="42.172214" lon="23.369767"><ele>2484.6</ele><time>2026-03-02T08:19:24.000Z</time></trkpt>
<trkpt lat="42.172212" lon="23.369767"><ele>2484.6</ele><time>2026-03-02T08:19:25.000Z</time></trkpt>
<trkpt lat="42.172209" lon="23.369767"><ele>2484.6</ele><time>2026-03-02T08:19:26.000Z</time></trkpt>
<trkpt lat="42.172208" lon="23.369767"><ele>2484.6</ele><time>2026-03-02T08:19:27.000Z</time></trkpt>
<trkpt lat="42.172206" lon="23.369767"><ele>2484.6</ele><time>2026-03-02T08:19:28.000Z</time></trkpt>
<trkpt lat="42.172204" lon="23.369767"><ele>2484.6</ele><time>2026-03-02T08:19:29.000Z</time></trkpt>
<trkpt lat="42.172203" lon="23.369768"><ele>2484.7</ele><time>2026-03-02T08:19:30.000Z</time></trkpt>
<trkpt lat="42.172203" lon="23.369768"><ele>2484.7</ele><time>2026-03-02T08:19:31.000Z</time></trkpt>
<trkpt lat="42.172202" lon="23.369769"><ele>2484.7</ele><time>2026-03-02T08:19:32.000Z</time></trkpt>
<trkpt lat="42.172202" lon="23.369769"><ele>2484.7</ele><time>2026-03-02T08:19:33.000Z</time></trkpt>
<trkpt lat="42.172203" lon="23.369769"><ele>2484.7</ele><time>2026-03-02T08:19:34.000Z</time></trkpt>
<trkpt lat="42.172203" lon="23.369769"><ele>2484.8</ele><time>2026-03-02T08:19:35.000Z</time></trkpt>
<trkpt lat="42.172204" lon="23.369769"><ele>2484.8</ele><time>2026-03-02T08:19:36.000Z</time></trkpt>
<trkpt lat="42.172204" lon="23.369769"><ele>2484.8</ele><time>2026-03-02T08:19:37.000Z</time></trkpt>
<trkpt lat="42.172204" lon="23.369769"><ele>2484.8</ele><time>2026-03-02T08:19:38.000Z</time></trkpt>
<trkpt lat="42.172204" lon="23.369769"><ele>2484.8</ele><time>2026-03-02T08:19:39.000Z</time></trkpt>
<trkpt lat="42.172204" lon="23.369769"><ele>2484.8</ele><time>2026-03-02T08:19:40.000Z</time></trkpt>
<trkpt lat="42.172203" lon="23.369769"><ele>2484.8</ele><time>2026-03-02T08:19:41.000Z</time></trkpt>
<trkpt lat="42.172203" lon="23.369768"><ele>2484.8</ele><time>2026-03-02T08:19:42.000Z</time></trkpt>
<trkpt lat="42.172202" lon="23.369768"><ele>2484.8</ele><time>2026-03-02T08:19:43.000Z</time></trkpt>
<trkpt lat="42.172202" lon="23.369768"><ele>2484.8</ele><time>2026-03-02T08:19:44.000Z</time></trkpt>
<trkpt lat="42.172201" lon="23.369768"><ele>2484.8</ele><time>2026-03-02T08:19:45.000Z</time></trkpt>
<trkpt lat="42.172201" lon="23.369768"><ele>2484.8</ele><time>2026-03-02T08:19:46.000Z</time></trkpt>
<trkpt lat="42.172201" lon="23.369768"><ele>2484.8</ele><time>2026-03-02T08:19:47.000Z</time></trkpt>
<trkpt lat="42.172201" lon="23.369768"><ele>2484.8</ele><time>2026-03-02T08:19:48.000Z</time></trkpt>
<trkpt lat="42.172201" lon="23.369768"><ele>2484.8</ele><time>2026-03-02T08:19:49.000Z</time></trkpt>
<trkpt lat="42.172201" lon="23.369768"><ele>2484.7</ele><time>2026-03-02T08:19:50.000Z</time></trkpt>
<trkpt lat="42.172201" lon="23.369768"><ele>2484.7</ele><time>2026-03-02T08:19:51.000Z</time></trkpt>
<trkpt lat="42.172201" lon="23.369767"><ele>2484.7</ele><time>2026-03-02T08:19:52.000Z</time></trkpt>
<trkpt lat="42.172201" lon="23.369767"><ele>2484.7</ele><time>2026-03-02T08:19:53.000Z</time></trkpt>
<trkpt lat="42.172201" lon="23.369767"><ele>2484.7</ele><time>2026-03-02T08:19:54.000Z</time></trkpt>
<trkpt lat="42.172201" lon="23.369766"><ele>2484.7</ele><time>2026-03-02T08:19:55.000Z</time></trkpt>
<trkpt lat="42.172201" lon="23.369766"><ele>2484.7</ele><time>2026-03-02T08:19:56.000Z</time></trkpt>
<trkpt lat="42.172201" lon="23.369766"><ele>2484.7</ele><time>2026-03-02T08:19:57.000Z</time></trkpt>
<trkpt lat="42.172201" lon="23.369766"><ele>2484.7</ele><time>2026-03-02T08:19:58.000Z</time></trkpt>
<trkpt lat="42.172201" lon="23.369766"><ele>2484.7</ele><time>2026-03-02T08:19:59.000Z</time></trkpt>
<trkpt lat="42.172201" lon="23.369766"><ele>2484.6</ele><time>2026-03-02T08:20:00.000Z</time></trkpt>
<trkpt lat="42.172201" lon="23.369765"><ele>2484.6</ele><time>2026-03-02T08:20:01.000Z</time></trkpt>
<trkpt lat="42.172201" lon="23.369765"><ele>2484.6</ele><time>2026-03-02T08:20:02.000Z</time></trkpt>
<trkpt lat="42.172201" lon="23.369764"><ele>2484.6</ele><time>2026-03-02T08:20:03.000Z</time></trkpt>
<trkpt lat="42.1722" lon="23.369764"><ele>2484.6</ele><time>2026-03-02T08:20:04.000Z</time></trkpt>
<trkpt lat="42.1722" lon="23.369764"><ele>2484.5</ele><time>2026-03-02T08:20:05.000Z</time></trkpt>
<trkpt lat="42.1722" lon="23.369764"><ele>2484.5</ele><time>2026-03-02T08:20:06.000Z</time></trkpt>
<trkpt lat="42.1722" lon="23.369764"><ele>2484.5</ele><time>2026-03-02T08:20:07.000Z</time></trkpt>
<trkpt lat="42.1722" lon="23.369763"><ele>2484.5</ele><time>2026-03-02T08:20:08.000Z</time></trkpt>
<trkpt lat="42.172201" lon="23.369763"><ele>2484.5</ele><time>2026-03-02T08:20:09.000Z</time></trkpt>
<trkpt lat="42.172201" lon="23.369762"><ele>2484.5</ele><time>2026-03-02T08:20:10.000Z</time></trkpt>
<trkpt lat="42.172201" lon="23.369762"><ele>2484.5</ele><time>2026-03-02T08:20:11.000Z</time></trkpt>
<trkpt lat="42.172201" lon="23.369761"><ele>2484.5</ele><time>2026-03-02T08:20:12.000Z</time></trkpt>
<trkpt lat="42.172201" lon="23.369761"><ele>2484.5</ele><time>2026-03-02T08:20:13.000Z</time></trkpt>
<trkpt lat="42.172202" lon="23.369762"><ele>2484.5</ele><time>2026-03-02T08:20:14.000Z</time></trkpt>
<trkpt lat="42.172202" lon="23.369763"><ele>2484.5</ele><time>2026-03-02T08:20:15.000Z</time></trkpt>
<trkpt lat="42.172203" lon="23.369763"><ele>2484.5</ele><time>2026-03-02T08:20:16.000Z</time></trkpt>
<trkpt lat="42.172203" lon="23.369764"><ele>2484.5</ele><time>2026-03-02T08:20:17.000Z</time></trkpt>
<trkpt lat="42.172205" lon="23.369764"><ele>2484.5</ele><time>2026-03-02T08:20:18.000Z</time></trkpt>
<trkpt lat="42.172206" lon="23.369764"><ele>2484.5</ele><time>2026-03-02T08:20:19.000Z</time></trkpt>
<trkpt lat="42.172207" lon="23.369765"><ele>2484.4</ele><time>2026-03-02T08:20:20.000Z</time></trkpt>
<trkpt lat="42.172208" lon="23.369765"><ele>2484.4</ele><time>2026-03-02T08:20:21.000Z</time></trkpt>
<trkpt lat="42.172209" lon="23.369765"><ele>2484.4</ele><time>2026-03-02T08:20:22.000Z</time></trkpt>
<trkpt lat="42.172209" lon="23.369765"><ele>2484.4</ele><time>2026-03-02T08:20:23.000Z</time></trkpt>
<trkpt lat="42.172209" lon="23.369765"><ele>2484.4</ele><time>2026-03-02T08:20:24.000Z</time></trkpt>
<trkpt lat="42.172209" lon="23.369765"><ele>2484.3</ele><time>2026-03-02T08:20:25.000Z</time></trkpt>
<trkpt lat="42.17221" lon="23.369765"><ele>2484.3</ele><time>2026-03-02T08:20:26.000Z</time></trkpt>
<trkpt lat="42.17221" lon="23.369765"><ele>2484.3</ele><time>2026-03-02T08:20:27.000Z</time></trkpt>
<trkpt lat="42.17221" lon="23.369765"><ele>2484.3</ele><time>2026-03-02T08:20:28.000Z</time></trkpt>
<trkpt lat="42.17221" lon="23.369765"><ele>2484.3</ele><time>2026-03-02T08:20:29.000Z</time></trkpt>
<trkpt lat="42.17221" lon="23.369765"><ele>2484.1</ele><time>2026-03-02T08:20:30.000Z</time></trkpt>
<trkpt lat="42.17221" lon="23.369765"><ele>2484.1</ele><time>2026-03-02T08:20:31.000Z</time></trkpt>
<trkpt lat="42.172211" lon="23.369764"><ele>2484.1</ele><time>2026-03-02T08:20:32.000Z</time></trkpt>
<trkpt lat="42.172213" lon="23.369764"><ele>2484.1</ele><time>2026-03-02T08:20:33.000Z</time></trkpt>
<trkpt lat="42.172213" lon="23.369764"><ele>2484.1</ele><time>2026-03-02T08:20:34.000Z</time></trkpt>
<trkpt lat="42.172214" lon="23.369763"><ele>2484</ele><time>2026-03-02T08:20:35.000Z</time></trkpt>
<trkpt lat="42.172214" lon="23.369763"><ele>2484</ele><time>2026-03-02T08:20:36.000Z</time></trkpt>
<trkpt lat="42.172214" lon="23.369762"><ele>2484</ele><time>2026-03-02T08:20:37.000Z</time></trkpt>
<trkpt lat="42.172214" lon="23.369761"><ele>2484</ele><time>2026-03-02T08:20:38.000Z</time></trkpt>
<trkpt lat="42.172214" lon="23.36976"><ele>2484</ele><time>2026-03-02T08:20:39.000Z</time></trkpt>
<trkpt lat="42.172213" lon="23.369758"><ele>2483.9</ele><time>2026-03-02T08:20:40.000Z</time></trkpt>
<trkpt lat="42.172212" lon="23.369757"><ele>2483.9</ele><time>2026-03-02T08:20:41.000Z</time></trkpt>
<trkpt lat="42.17221" lon="23.369757"><ele>2483.9</ele><time>2026-03-02T08:20:42.000Z</time></trkpt>
<trkpt lat="42.172209" lon="23.369758"><ele>2483.9</ele><time>2026-03-02T08:20:43.000Z</time></trkpt>
<trkpt lat="42.172208" lon="23.369758"><ele>2483.9</ele><time>2026-03-02T08:20:44.000Z</time></trkpt>
<trkpt lat="42.172209" lon="23.369759"><ele>2484</ele><time>2026-03-02T08:20:45.000Z</time></trkpt>
<trkpt lat="42.172209" lon="23.36976"><ele>2484</ele><time>2026-03-02T08:20:46.000Z</time></trkpt>
<trkpt lat="42.172211" lon="23.36976"><ele>2484</ele><time>2026-03-02T08:20:47.000Z</time></trkpt>
<trkpt lat="42.172212" lon="23.36976"><ele>2484</ele><time>2026-03-02T08:20:48.000Z</time></trkpt>
<trkpt lat="42.172212" lon="23.36976"><ele>2484</ele><time>2026-03-02T08:20:49.000Z</time></trkpt>
<trkpt lat="42.172213" lon="23.36976"><ele>2484.2</ele><time>2026-03-02T08:20:50.000Z</time></trkpt>
<trkpt lat="42.172214" lon="23.36976"><ele>2484.2</ele><time>2026-03-02T08:20:51.000Z</time></trkpt>
<trkpt lat="42.172214" lon="23.36976"><ele>2484.2</ele><time>2026-03-02T08:20:52.000Z</time></trkpt>
<trkpt lat="42.172214" lon="23.36976"><ele>2484.2</ele><time>2026-03-02T08:20:53.000Z</time></trkpt>
<trkpt lat="42.172214" lon="23.36976"><ele>2484.2</ele><time>2026-03-02T08:20:54.000Z</time></trkpt>
<trkpt lat="42.172214" lon="23.36976"><ele>2484.3</ele><time>2026-03-02T08:20:55.000Z</time></trkpt>
<trkpt lat="42.172214" lon="23.36976"><ele>2484.3</ele><time>2026-03-02T08:20:56.000Z</time></trkpt>
<trkpt lat="42.172215" lon="23.369761"><ele>2484.3</ele><time>2026-03-02T08:20:57.000Z</time></trkpt>
<trkpt lat="42.172215" lon="23.369761"><ele>2484.3</ele><time>2026-03-02T08:20:58.000Z</time></trkpt>
<trkpt lat="42.172216" lon="23.369763"><ele>2484.3</ele><time>2026-03-02T08:20:59.000Z</time></trkpt>
<trkpt lat="42.172216" lon="23.369764"><ele>2484.3</ele><time>2026-03-02T08:21:00.000Z</time></trkpt>
<trkpt lat="42.172216" lon="23.369766"><ele>2484.3</ele><time>2026-03-02T08:21:01.000Z</time></trkpt>
<trkpt lat="42.172215" lon="23.369767"><ele>2484.3</ele><time>2026-03-02T08:21:02.000Z</time></trkpt>
<trkpt lat="42.172215" lon="23.369768"><ele>2484.3</ele><time>2026-03-02T08:21:03.000Z</time></trkpt>
<trkpt lat="42.172214" lon="23.36977"><ele>2484.3</ele><time>2026-03-02T08:21:04.000Z</time></trkpt>
<trkpt lat="42.172214" lon="23.369771"><ele>2484.1</ele><time>2026-03-02T08:21:05.000Z</time></trkpt>
<trkpt lat="42.172214" lon="23.369772"><ele>2484.1</ele><time>2026-03-02T08:21:06.000Z</time></trkpt>
<trkpt lat="42.172213" lon="23.369771"><ele>2484.1</ele><time>2026-03-02T08:21:07.000Z</time></trkpt>
<trkpt lat="42.172212" lon="23.36977"><ele>2484.1</ele><time>2026-03-02T08:21:08.000Z</time></trkpt>
<trkpt lat="42.172211" lon="23.369769"><ele>2484.1</ele><time>2026-03-02T08:21:09.000Z</time></trkpt>
<trkpt lat="42.172211" lon="23.369768"><ele>2484.1</ele><time>2026-03-02T08:21:10.000Z</time></trkpt>
<trkpt lat="42.172211" lon="23.369766"><ele>2484.1</ele><time>2026-03-02T08:21:11.000Z</time></trkpt>
<trkpt lat="42.172212" lon="23.369765"><ele>2484.1</ele><time>2026-03-02T08:21:12.000Z</time></trkpt>
<trkpt lat="42.172213" lon="23.369765"><ele>2484.1</ele><time>2026-03-02T08:21:13.000Z</time></trkpt>
<trkpt lat="42.172213" lon="23.369766"><ele>2484.1</ele><time>2026-03-02T08:21:14.000Z</time></trkpt>
<trkpt lat="42.172213" lon="23.369767"><ele>2484.2</ele><time>2026-03-02T08:21:15.000Z</time></trkpt>
<trkpt lat="42.172213" lon="23.369768"><ele>2484.2</ele><time>2026-03-02T08:21:16.000Z</time></trkpt>
<trkpt lat="42.172212" lon="23.369767"><ele>2484.2</ele><time>2026-03-02T08:21:17.000Z</time></trkpt>
<trkpt lat="42.172211" lon="23.369766"><ele>2484.2</ele><time>2026-03-02T08:21:18.000Z</time></trkpt>
<trkpt lat="42.172212" lon="23.369764"><ele>2484.2</ele><time>2026-03-02T08:21:19.000Z</time></trkpt>
<trkpt lat="42.172211" lon="23.369761"><ele>2484.4</ele><time>2026-03-02T08:21:20.000Z</time></trkpt>
<trkpt lat="42.172211" lon="23.369759"><ele>2484.4</ele><time>2026-03-02T08:21:21.000Z</time></trkpt>
<trkpt lat="42.172211" lon="23.369757"><ele>2484.4</ele><time>2026-03-02T08:21:22.000Z</time></trkpt>
<trkpt lat="42.172211" lon="23.369757"><ele>2484.4</ele><time>2026-03-02T08:21:23.000Z</time></trkpt>
<trkpt lat="42.172211" lon="23.369758"><ele>2484.4</ele><time>2026-03-02T08:21:24.000Z</time></trkpt>
<trkpt lat="42.172211" lon="23.369759"><ele>2484.4</ele><time>2026-03-02T08:21:25.000Z</time></trkpt>
<trkpt lat="42.172211" lon="23.36976"><ele>2484.4</ele><time>2026-03-02T08:21:26.000Z</time></trkpt>
<trkpt lat="42.172211" lon="23.369761"><ele>2484.4</ele><time>2026-03-02T08:21:27.000Z</time></trkpt>
<trkpt lat="42.17221" lon="23.369761"><ele>2484.4</ele><time>2026-03-02T08:21:28.000Z</time></trkpt>
<trkpt lat="42.17221" lon="23.369761"><ele>2484.4</ele><time>2026-03-02T08:21:29.000Z</time></trkpt>
<trkpt lat="42.17221" lon="23.36976"><ele>2484.4</ele><time>2026-03-02T08:21:30.000Z</time></trkpt>
<trkpt lat="42.172209" lon="23.36976"><ele>2484.4</ele><time>2026-03-02T08:21:31.000Z</time></trkpt>
<trkpt lat="42.172208" lon="23.369759"><ele>2484.4</ele><time>2026-03-02T08:21:32.000Z</time></trkpt>
<trkpt lat="42.172208" lon="23.369759"><ele>2484.4</ele><time>2026-03-02T08:21:33.000Z</time></trkpt>
<trkpt lat="42.172207" lon="23.369759"><ele>2484.4</ele><time>2026-03-02T08:21:34.000Z</time></trkpt>
<trkpt lat="42.172207" lon="23.369759"><ele>2484.2</ele><time>2026-03-02T08:21:35.000Z</time></trkpt>
<trkpt lat="42.172206" lon="23.369759"><ele>2484.2</ele><time>2026-03-02T08:21:36.000Z</time></trkpt>
<trkpt lat="42.172206" lon="23.369759"><ele>2484.2</ele><time>2026-03-02T08:21:37.000Z</time></trkpt>
<trkpt lat="42.172206" lon="23.369759"><ele>2484.2</ele><time>2026-03-02T08:21:38.000Z</time></trkpt>
<trkpt lat="42.172206" lon="23.369759"><ele>2484.2</ele><time>2026-03-02T08:21:39.000Z</time></trkpt>
<trkpt lat="42.172206" lon="23.369759"><ele>2484.2</ele><time>2026-03-02T08:21:40.000Z</time></trkpt>
<trkpt lat="42.172206" lon="23.369759"><ele>2484.2</ele><time>2026-03-02T08:21:41.000Z</time></trkpt>
<trkpt lat="42.172206" lon="23.369759"><ele>2484.2</ele><time>2026-03-02T08:21:42.000Z</time></trkpt>
<trkpt lat="42.172205" lon="23.369759"><ele>2484.2</ele><time>2026-03-02T08:21:43.000Z</time></trkpt>
<trkpt lat="42.172205" lon="23.369759"><ele>2484.2</ele><time>2026-03-02T08:21:44.000Z</time></trkpt>
<trkpt lat="42.172205" lon="23.369759"><ele>2484.2</ele><time>2026-03-02T08:21:45.000Z</time></trkpt>
<trkpt lat="42.172204" lon="23.369759"><ele>2484.2</ele><time>2026-03-02T08:21:46.000Z</time></trkpt>
<trkpt lat="42.172204" lon="23.369759"><ele>2484.2</ele><time>2026-03-02T08:21:47.000Z</time></trkpt>
<trkpt lat="42.172204" lon="23.369759"><ele>2484.2</ele><time>2026-03-02T08:21:48.000Z</time></trkpt>
<trkpt lat="42.172205" lon="23.369757"><ele>2484.2</ele><time>2026-03-02T08:21:49.000Z</time></trkpt>
<trkpt lat="42.172206" lon="23.369752"><ele>2484.3</ele><time>2026-03-02T08:21:50.000Z</time></trkpt>
<trkpt lat="42.172207" lon="23.369745"><ele>2484.3</ele><time>2026-03-02T08:21:51.000Z</time></trkpt>
<trkpt lat="42.172209" lon="23.369735"><ele>2484.3</ele><time>2026-03-02T08:21:52.000Z</time></trkpt>
<trkpt lat="42.17221" lon="23.369722"><ele>2484.3</ele><time>2026-03-02T08:21:53.000Z</time></trkpt>
<trkpt lat="42.172211" lon="23.369709"><ele>2484.3</ele><time>2026-03-02T08:21:54.000Z</time></trkpt>
<trkpt lat="42.172212" lon="23.369694"><ele>2484.3</ele><time>2026-03-02T08:21:55.000Z</time></trkpt>
<trkpt lat="42.172213" lon="23.369679"><ele>2484.3</ele><time>2026-03-02T08:21:56.000Z</time></trkpt>
<trkpt lat="42.172214" lon="23.369664"><ele>2484.3</ele><time>2026-03-02T08:21:57.000Z</time></trkpt>
<trkpt lat="42.172215" lon="23.369649"><ele>2484.3</ele><time>2026-03-02T08:21:58.000Z</time></trkpt>
<trkpt lat="42.172217" lon="23.369634"><ele>2484.3</ele><time>2026-03-02T08:21:59.000Z</time></trkpt>
<trkpt lat="42.172219" lon="23.36962"><ele>2484.1</ele><time>2026-03-02T08:22:00.000Z</time></trkpt>
<trkpt lat="42.172221" lon="23.369606"><ele>2484.1</ele><time>2026-03-02T08:22:01.000Z</time></trkpt>
<trkpt lat="42.172224" lon="23.369592"><ele>2484.1</ele><time>2026-03-02T08:22:02.000Z</time></trkpt>
<trkpt lat="42.172227" lon="23.369578"><ele>2484.1</ele><time>2026-03-02T08:22:03.000Z</time></trkpt>
<trkpt lat="42.172229" lon="23.369566"><ele>2484.1</ele><time>2026-03-02T08:22:04.000Z</time></trkpt>
<trkpt lat="42.172233" lon="23.369553"><ele>2484</ele><time>2026-03-02T08:22:05.000Z</time></trkpt>
<trkpt lat="42.172236" lon="23.369541"><ele>2484</ele><time>2026-03-02T08:22:06.000Z</time></trkpt>
<trkpt lat="42.172238" lon="23.369531"><ele>2484</ele><time>2026-03-02T08:22:07.000Z</time></trkpt>
<trkpt lat="42.172241" lon="23.369523"><ele>2484</ele><time>2026-03-02T08:22:08.000Z</time></trkpt>
<trkpt lat="42.172244" lon="23.369517"><ele>2484</ele><time>2026-03-02T08:22:09.000Z</time></trkpt>
<trkpt lat="42.172245" lon="23.369514"><ele>2484.1</ele><time>2026-03-02T08:22:10.000Z</time></trkpt>
<trkpt lat="42.172246" lon="23.369513"><ele>2484.1</ele><time>2026-03-02T08:22:11.000Z</time></trkpt>
<trkpt lat="42.172247" lon="23.369512"><ele>2484.1</ele><time>2026-03-02T08:22:12.000Z</time></trkpt>
<trkpt lat="42.172247" lon="23.369512"><ele>2484.1</ele><time>2026-03-02T08:22:13.000Z</time></trkpt>
<trkpt lat="42.172247" lon="23.369511"><ele>2484.1</ele><time>2026-03-02T08:22:14.000Z</time></trkpt>
<trkpt lat="42.172248" lon="23.36951"><ele>2484.2</ele><time>2026-03-02T08:22:15.000Z</time></trkpt>
<trkpt lat="42.172248" lon="23.36951"><ele>2484.2</ele><time>2026-03-02T08:22:16.000Z</time></trkpt>
<trkpt lat="42.172248" lon="23.36951"><ele>2484.2</ele><time>2026-03-02T08:22:17.000Z</time></trkpt>
<trkpt lat="42.172248" lon="23.36951"><ele>2484.2</ele><time>2026-03-02T08:22:18.000Z</time></trkpt>
<trkpt lat="42.172248" lon="23.36951"><ele>2484.2</ele><time>2026-03-02T08:22:19.000Z</time></trkpt>
<trkpt lat="42.172248" lon="23.36951"><ele>2484.2</ele><time>2026-03-02T08:22:20.000Z</time></trkpt>
<trkpt lat="42.172248" lon="23.36951"><ele>2484.2</ele><time>2026-03-02T08:22:21.000Z</time></trkpt>
<trkpt lat="42.172248" lon="23.369511"><ele>2484.2</ele><time>2026-03-02T08:22:22.000Z</time></trkpt>
<trkpt lat="42.172247" lon="23.369512"><ele>2484.2</ele><time>2026-03-02T08:22:23.000Z</time></trkpt>
<trkpt lat="42.172246" lon="23.369513"><ele>2484.2</ele><time>2026-03-02T08:22:24.000Z</time></trkpt>
<trkpt lat="42.172245" lon="23.369514"><ele>2484.3</ele><time>2026-03-02T08:22:25.000Z</time></trkpt>
<trkpt lat="42.172245" lon="23.369514"><ele>2484.3</ele><time>2026-03-02T08:22:26.000Z</time></trkpt>
<trkpt lat="42.172245" lon="23.369515"><ele>2484.3</ele><time>2026-03-02T08:22:27.000Z</time></trkpt>
<trkpt lat="42.172245" lon="23.369515"><ele>2484.3</ele><time>2026-03-02T08:22:28.000Z</time></trkpt>
<trkpt lat="42.172245" lon="23.369515"><ele>2484.3</ele><time>2026-03-02T08:22:29.000Z</time></trkpt>
<trkpt lat="42.172245" lon="23.369515"><ele>2484.4</ele><time>2026-03-02T08:22:30.000Z</time></trkpt>
<trkpt lat="42.172245" lon="23.369515"><ele>2484.4</ele><time>2026-03-02T08:22:31.000Z</time></trkpt>
<trkpt lat="42.172245" lon="23.369515"><ele>2484.4</ele><time>2026-03-02T08:22:32.000Z</time></trkpt>
<trkpt lat="42.172246" lon="23.369515"><ele>2484.4</ele><time>2026-03-02T08:22:33.000Z</time></trkpt>
<trkpt lat="42.172246" lon="23.369515"><ele>2484.4</ele><time>2026-03-02T08:22:34.000Z</time></trkpt>
<trkpt lat="42.172246" lon="23.369515"><ele>2484.5</ele><time>2026-03-02T08:22:35.000Z</time></trkpt>
<trkpt lat="42.172246" lon="23.369515"><ele>2484.5</ele><time>2026-03-02T08:22:36.000Z</time></trkpt>
<trkpt lat="42.172246" lon="23.369515"><ele>2484.5</ele><time>2026-03-02T08:22:37.000Z</time></trkpt>
<trkpt lat="42.172246" lon="23.369515"><ele>2484.5</ele><time>2026-03-02T08:22:38.000Z</time></trkpt>
<trkpt lat="42.172246" lon="23.369515"><ele>2484.5</ele><time>2026-03-02T08:22:39.000Z</time></trkpt>
<trkpt lat="42.172246" lon="23.369515"><ele>2484.5</ele><time>2026-03-02T08:22:40.000Z</time></trkpt>
<trkpt lat="42.172246" lon="23.369515"><ele>2484.5</ele><time>2026-03-02T08:22:41.000Z</time></trkpt>
<trkpt lat="42.172246" lon="23.369515"><ele>2484.5</ele><time>2026-03-02T08:22:42.000Z</time></trkpt>
<trkpt lat="42.172247" lon="23.369514"><ele>2484.5</ele><time>2026-03-02T08:22:43.000Z</time></trkpt>
<trkpt lat="42.172249" lon="23.369513"><ele>2484.5</ele><time>2026-03-02T08:22:44.000Z</time></trkpt>
<trkpt lat="42.172251" lon="23.369512"><ele>2484.3</ele><time>2026-03-02T08:22:45.000Z</time></trkpt>
<trkpt lat="42.172253" lon="23.369511"><ele>2484.3</ele><time>2026-03-02T08:22:46.000Z</time></trkpt>
<trkpt lat="42.172255" lon="23.36951"><ele>2484.3</ele><time>2026-03-02T08:22:47.000Z</time></trkpt>
<trkpt lat="42.172255" lon="23.369511"><ele>2484.3</ele><time>2026-03-02T08:22:48.000Z</time></trkpt>
<trkpt lat="42.172255" lon="23.369511"><ele>2484.3</ele><time>2026-03-02T08:22:49.000Z</time></trkpt>
<trkpt lat="42.172255" lon="23.369511"><ele>2484.1</ele><time>2026-03-02T08:22:50.000Z</time></trkpt>
<trkpt lat="42.172255" lon="23.369512"><ele>2484.1</ele><time>2026-03-02T08:22:51.000Z</time></trkpt>
<trkpt lat="42.172254" lon="23.369512"><ele>2484.1</ele><time>2026-03-02T08:22:52.000Z</time></trkpt>
<trkpt lat="42.172254" lon="23.369512"><ele>2484.1</ele><time>2026-03-02T08:22:53.000Z</time></trkpt>
<trkpt lat="42.172254" lon="23.369513"><ele>2484.1</ele><time>2026-03-02T08:22:54.000Z</time></trkpt>
<trkpt lat="42.172253" lon="23.369513"><ele>2484.1</ele><time>2026-03-02T08:22:55.000Z</time></trkpt>
<trkpt lat="42.172253" lon="23.369513"><ele>2484.1</ele><time>2026-03-02T08:22:56.000Z</time></trkpt>
<trkpt lat="42.172253" lon="23.369513"><ele>2484.1</ele><time>2026-03-02T08:22:57.000Z</time></trkpt>
<trkpt lat="42.172253" lon="23.369513"><ele>2484.1</ele><time>2026-03-02T08:22:58.000Z</time></trkpt>
<trkpt lat="42.172253" lon="23.369513"><ele>2484.1</ele><time>2026-03-02T08:22:59.000Z</time></trkpt>
<trkpt lat="42.172253" lon="23.369513"><ele>2484.3</ele><time>2026-03-02T08:23:00.000Z</time></trkpt>
<trkpt lat="42.172253" lon="23.369513"><ele>2484.3</ele><time>2026-03-02T08:23:01.000Z</time></trkpt>
<trkpt lat="42.172253" lon="23.369513"><ele>2484.3</ele><time>2026-03-02T08:23:02.000Z</time></trkpt>
<trkpt lat="42.172253" lon="23.369513"><ele>2484.3</ele><time>2026-03-02T08:23:03.000Z</time></trkpt>
<trkpt lat="42.172253" lon="23.369513"><ele>2484.3</ele><time>2026-03-02T08:23:04.000Z</time></trkpt>
<trkpt lat="42.172253" lon="23.369513"><ele>2484.5</ele><time>2026-03-02T08:23:05.000Z</time></trkpt>
<trkpt lat="42.172253" lon="23.369513"><ele>2484.5</ele><time>2026-03-02T08:23:06.000Z</time></trkpt>
<trkpt lat="42.172253" lon="23.369513"><ele>2484.5</ele><time>2026-03-02T08:23:07.000Z</time></trkpt>
<trkpt lat="42.172253" lon="23.369513"><ele>2484.5</ele><time>2026-03-02T08:23:08.000Z</time></trkpt>
<trkpt lat="42.172253" lon="23.369513"><ele>2484.5</ele><time>2026-03-02T08:23:09.000Z</time></trkpt>
<trkpt lat="42.172253" lon="23.369513"><ele>2484.5</ele><time>2026-03-02T08:23:10.000Z</time></trkpt>
<trkpt lat="42.172253" lon="23.369512"><ele>2484.5</ele><time>2026-03-02T08:23:11.000Z</time></trkpt>
<trkpt lat="42.172254" lon="23.36951"><ele>2484.5</ele><time>2026-03-02T08:23:12.000Z</time></trkpt>
<trkpt lat="42.172256" lon="23.369508"><ele>2484.5</ele><time>2026-03-02T08:23:13.000Z</time></trkpt>
<trkpt lat="42.172259" lon="23.369506"><ele>2484.5</ele><time>2026-03-02T08:23:14.000Z</time></trkpt>
<trkpt lat="42.172261" lon="23.369503"><ele>2484.5</ele><time>2026-03-02T08:23:15.000Z</time></trkpt>
<trkpt lat="42.172263" lon="23.369502"><ele>2484.5</ele><time>2026-03-02T08:23:16.000Z</time></trkpt>
<trkpt lat="42.172265" lon="23.369502"><ele>2484.5</ele><time>2026-03-02T08:23:17.000Z</time></trkpt>
<trkpt lat="42.172265" lon="23.369503"><ele>2484.5</ele><time>2026-03-02T08:23:18.000Z</time></trkpt>
<trkpt lat="42.172264" lon="23.369503"><ele>2484.5</ele><time>2026-03-02T08:23:19.000Z</time></trkpt>
<trkpt lat="42.172264" lon="23.369504"><ele>2484.5</ele><time>2026-03-02T08:23:20.000Z</time></trkpt>
<trkpt lat="42.172263" lon="23.369504"><ele>2484.5</ele><time>2026-03-02T08:23:21.000Z</time></trkpt>
<trkpt lat="42.172263" lon="23.369503"><ele>2484.5</ele><time>2026-03-02T08:23:22.000Z</time></trkpt>
<trkpt lat="42.172262" lon="23.369501"><ele>2484.5</ele><time>2026-03-02T08:23:23.000Z</time></trkpt>
<trkpt lat="42.172263" lon="23.369498"><ele>2484.5</ele><time>2026-03-02T08:23:24.000Z</time></trkpt>
<trkpt lat="42.172265" lon="23.369493"><ele>2484.5</ele><time>2026-03-02T08:23:25.000Z</time></trkpt>
<trkpt lat="42.172267" lon="23.369486"><ele>2484.5</ele><time>2026-03-02T08:23:26.000Z</time></trkpt>
<trkpt lat="42.172269" lon="23.369479"><ele>2484.5</ele><time>2026-03-02T08:23:27.000Z</time></trkpt>
<trkpt lat="42.172272" lon="23.36947"><ele>2484.5</ele><time>2026-03-02T08:23:28.000Z</time></trkpt>
<trkpt lat="42.172275" lon="23.369461"><ele>2484.5</ele><time>2026-03-02T08:23:29.000Z</time></trkpt>
<trkpt lat="42.172277" lon="23.369452"><ele>2484.6</ele><time>2026-03-02T08:23:30.000Z</time></trkpt>
<trkpt lat="42.172278" lon="23.369443"><ele>2484.6</ele><time>2026-03-02T08:23:31.000Z</time></trkpt>
<trkpt lat="42.172279" lon="23.369436"><ele>2484.6</ele><time>2026-03-02T08:23:32.000Z</time></trkpt>
<trkpt lat="42.17228" lon="23.369431"><ele>2484.6</ele><time>2026-03-02T08:23:33.000Z</time></trkpt>
<trkpt lat="42.17228" lon="23.369428"><ele>2484.6</ele><time>2026-03-02T08:23:34.000Z</time></trkpt>
<trkpt lat="42.172279" lon="23.369427"><ele>2484.8</ele><time>2026-03-02T08:23:35.000Z</time></trkpt>
<trkpt lat="42.172279" lon="23.369427"><ele>2484.8</ele><time>2026-03-02T08:23:36.000Z</time></trkpt>
<trkpt lat="42.172279" lon="23.369427"><ele>2484.8</ele><time>2026-03-02T08:23:37.000Z</time></trkpt>
<trkpt lat="42.172279" lon="23.369427"><ele>2484.8</ele><time>2026-03-02T08:23:38.000Z</time></trkpt>
<trkpt lat="42.172278" lon="23.369427"><ele>2484.8</ele><time>2026-03-02T08:23:39.000Z</time></trkpt>
<trkpt lat="42.172278" lon="23.369427"><ele>2484.8</ele><time>2026-03-02T08:23:40.000Z</time></trkpt>
<trkpt lat="42.172277" lon="23.369427"><ele>2484.8</ele><time>2026-03-02T08:23:41.000Z</time></trkpt>
<trkpt lat="42.172277" lon="23.369427"><ele>2484.8</ele><time>2026-03-02T08:23:42.000Z</time></trkpt>
<trkpt lat="42.172277" lon="23.369427"><ele>2484.8</ele><time>2026-03-02T08:23:43.000Z</time></trkpt>
<trkpt lat="42.172277" lon="23.369427"><ele>2484.8</ele><time>2026-03-02T08:23:44.000Z</time></trkpt>
<trkpt lat="42.172277" lon="23.369427"><ele>2484.8</ele><time>2026-03-02T08:23:45.000Z</time></trkpt>
<trkpt lat="42.172277" lon="23.369427"><ele>2484.8</ele><time>2026-03-02T08:23:46.000Z</time></trkpt>
<trkpt lat="42.172277" lon="23.369427"><ele>2484.8</ele><time>2026-03-02T08:23:47.000Z</time></trkpt>
<trkpt lat="42.172277" lon="23.369428"><ele>2484.8</ele><time>2026-03-02T08:23:48.000Z</time></trkpt>
<trkpt lat="42.172277" lon="23.369428"><ele>2484.8</ele><time>2026-03-02T08:23:49.000Z</time></trkpt>
<trkpt lat="42.172277" lon="23.369427"><ele>2484.7</ele><time>2026-03-02T08:23:50.000Z</time></trkpt>
<trkpt lat="42.172278" lon="23.369424"><ele>2484.7</ele><time>2026-03-02T08:23:51.000Z</time></trkpt>
<trkpt lat="42.172279" lon="23.369419"><ele>2484.7</ele><time>2026-03-02T08:23:52.000Z</time></trkpt>
<trkpt lat="42.172281" lon="23.369412"><ele>2484.7</ele><time>2026-03-02T08:23:53.000Z</time></trkpt>
<trkpt lat="42.172283" lon="23.369402"><ele>2484.7</ele><time>2026-03-02T08:23:54.000Z</time></trkpt>
<trkpt lat="42.172286" lon="23.36939"><ele>2484.8</ele><time>2026-03-02T08:23:55.000Z</time></trkpt>
<trkpt lat="42.172289" lon="23.369377"><ele>2484.8</ele><time>2026-03-02T08:23:56.000Z</time></trkpt>
<trkpt lat="42.172292" lon="23.369364"><ele>2484.8</ele><time>2026-03-02T08:23:57.000Z</time></trkpt>
<trkpt lat="42.172295" lon="23.36935"><ele>2484.8</ele><time>2026-03-02T08:23:58.000Z</time></trkpt>
<trkpt lat="42.172298" lon="23.369337"><ele>2484.8</ele><time>2026-03-02T08:23:59.000Z</time></trkpt>
<trkpt lat="42.172301" lon="23.369324"><ele>2485.1</ele><time>2026-03-02T08:24:00.000Z</time></trkpt>
<trkpt lat="42.172304" lon="23.369312"><ele>2485.1</ele><time>2026-03-02T08:24:01.000Z</time></trkpt>
<trkpt lat="42.172307" lon="23.369299"><ele>2485.1</ele><time>2026-03-02T08:24:02.000Z</time></trkpt>
<trkpt lat="42.172311" lon="23.369287"><ele>2485.1</ele><time>2026-03-02T08:24:03.000Z</time></trkpt>
<trkpt lat="42.172315" lon="23.369275"><ele>2485.1</ele><time>2026-03-02T08:24:04.000Z</time></trkpt>
<trkpt lat="42.17232" lon="23.369262"><ele>2485.3</ele><time>2026-03-02T08:24:05.000Z</time></trkpt>
<trkpt lat="42.172324" lon="23.36925"><ele>2485.3</ele><time>2026-03-02T08:24:06.000Z</time></trkpt>
<trkpt lat="42.172329" lon="23.369237"><ele>2485.3</ele><time>2026-03-02T08:24:07.000Z</time></trkpt>
<trkpt lat="42.172335" lon="23.369224"><ele>2485.3</ele><time>2026-03-02T08:24:08.000Z</time></trkpt>
<trkpt lat="42.172339" lon="23.369211"><ele>2485.3</ele><time>2026-03-02T08:24:09.000Z</time></trkpt>
<trkpt lat="42.172344" lon="23.369198"><ele>2485.2</ele><time>2026-03-02T08:24:10.000Z</time></trkpt>
<trkpt lat="42.172348" lon="23.369185"><ele>2485.2</ele><time>2026-03-02T08:24:11.000Z</time></trkpt>
<trkpt lat="42.172351" lon="23.369171"><ele>2485.2</ele><time>2026-03-02T08:24:12.000Z</time></trkpt>
<trkpt lat="42.172354" lon="23.369157"><ele>2485.2</ele><time>2026-03-02T08:24:13.000Z</time></trkpt>
<trkpt lat="42.172357" lon="23.369143"><ele>2485.2</ele><time>2026-03-02T08:24:14.000Z</time></trkpt>
<trkpt lat="42.172359" lon="23.369129"><ele>2485</ele><time>2026-03-02T08:24:15.000Z</time></trkpt>
<trkpt lat="42.172362" lon="23.369116"><ele>2485</ele><time>2026-03-02T08:24:16.000Z</time></trkpt>
<trkpt lat="42.172365" lon="23.369103"><ele>2485</ele><time>2026-03-02T08:24:17.000Z</time></trkpt>
<trkpt lat="42.172367" lon="23.36909"><ele>2485</ele><time>2026-03-02T08:24:18.000Z</time></trkpt>
<trkpt lat="42.17237" lon="23.369078"><ele>2485</ele><time>2026-03-02T08:24:19.000Z</time></trkpt>
<trkpt lat="42.172372" lon="23.369067"><ele>2484.7</ele><time>2026-03-02T08:24:20.000Z</time></trkpt>
<trkpt lat="42.172375" lon="23.369055"><ele>2484.7</ele><time>2026-03-02T08:24:21.000Z</time></trkpt>
<trkpt lat="42.172378" lon="23.369043"><ele>2484.7</ele><time>2026-03-02T08:24:22.000Z</time></trkpt>
<trkpt lat="42.172382" lon="23.36903"><ele>2484.7</ele><time>2026-03-02T08:24:23.000Z</time></trkpt>
<trkpt lat="42.172386" lon="23.369017"><ele>2484.7</ele><time>2026-03-02T08:24:24.000Z</time></trkpt>
<trkpt lat="42.172391" lon="23.369003"><ele>2484.7</ele><time>2026-03-02T08:24:25.000Z</time></trkpt>
<trkpt lat="42.172396" lon="23.368989"><ele>2484.7</ele><time>2026-03-02T08:24:26.000Z</time></trkpt>
<trkpt lat="42.172402" lon="23.368974"><ele>2484.7</ele><time>2026-03-02T08:24:27.000Z</time></trkpt>
<trkpt lat="42.172408" lon="23.36896"><ele>2484.7</ele><time>2026-03-02T08:24:28.000Z</time></trkpt>
<trkpt lat="42.172413" lon="23.368947"><ele>2484.7</ele><time>2026-03-02T08:24:29.000Z</time></trkpt>
<trkpt lat="42.172419" lon="23.368935"><ele>2484.6</ele><time>2026-03-02T08:24:30.000Z</time></trkpt>
<trkpt lat="42.172423" lon="23.368922"><ele>2484.6</ele><time>2026-03-02T08:24:31.000Z</time></trkpt>
<trkpt lat="42.172429" lon="23.368909"><ele>2484.6</ele><time>2026-03-02T08:24:32.000Z</time></trkpt>
<trkpt lat="42.172433" lon="23.368898"><ele>2484.6</ele><time>2026-03-02T08:24:33.000Z</time></trkpt>
<trkpt lat="42.172438" lon="23.368886"><ele>2484.6</ele><time>2026-03-02T08:24:34.000Z</time></trkpt>
<trkpt lat="42.172444" lon="23.368873"><ele>2484.5</ele><time>2026-03-02T08:24:35.000Z</time></trkpt>
<trkpt lat="42.172449" lon="23.36886"><ele>2484.5</ele><time>2026-03-02T08:24:36.000Z</time></trkpt>
<trkpt lat="42.172453" lon="23.368848"><ele>2484.5</ele><time>2026-03-02T08:24:37.000Z</time></trkpt>
<trkpt lat="42.172456" lon="23.368835"><ele>2484.5</ele><time>2026-03-02T08:24:38.000Z</time></trkpt>
<trkpt lat="42.172461" lon="23.368822"><ele>2484.5</ele><time>2026-03-02T08:24:39.000Z</time></trkpt>
<trkpt lat="42.172466" lon="23.368811"><ele>2484.4</ele><time>2026-03-02T08:24:40.000Z</time></trkpt>
<trkpt lat="42.172471" lon="23.368801"><ele>2484.4</ele><time>2026-03-02T08:24:41.000Z</time></trkpt>
<trkpt lat="42.172477" lon="23.368791"><ele>2484.4</ele><time>2026-03-02T08:24:42.000Z</time></trkpt>
<trkpt lat="42.172484" lon="23.368782"><ele>2484.4</ele><time>2026-03-02T08:24:43.000Z</time></trkpt>
<trkpt lat="42.17249" lon="23.368774"><ele>2484.4</ele><time>2026-03-02T08:24:44.000Z</time></trkpt>
<trkpt lat="42.172496" lon="23.368765"><ele>2484.5</ele><time>2026-03-02T08:24:45.000Z</time></trkpt>
<trkpt lat="42.172502" lon="23.368755"><ele>2484.5</ele><time>2026-03-02T08:24:46.000Z</time></trkpt>
<trkpt lat="42.172509" lon="23.368745"><ele>2484.5</ele><time>2026-03-02T08:24:47.000Z</time></trkpt>
<trkpt lat="42.172516" lon="23.368735"><ele>2484.5</ele><time>2026-03-02T08:24:48.000Z</time></trkpt>
<trkpt lat="42.172524" lon="23.368724"><ele>2484.5</ele><time>2026-03-02T08:24:49.000Z</time></trkpt>
<trkpt lat="42.172532" lon="23.368714"><ele>2484.9</ele><time>2026-03-02T08:24:50.000Z</time></trkpt>
<trkpt lat="42.17254" lon="23.368703"><ele>2484.9</ele><time>2026-03-02T08:24:51.000Z</time></trkpt>
<trkpt lat="42.172548" lon="23.368693"><ele>2484.9</ele><time>2026-03-02T08:24:52.000Z</time></trkpt>
<trkpt lat="42.172555" lon="23.368683"><ele>2484.9</ele><time>2026-03-02T08:24:53.000Z</time></trkpt>
<trkpt lat="42.172563" lon="23.368673"><ele>2484.9</ele><time>2026-03-02T08:24:54.000Z</time></trkpt>
<trkpt lat="42.172569" lon="23.368662"><ele>2485.3</ele><time>2026-03-02T08:24:55.000Z</time></trkpt>
<trkpt lat="42.172576" lon="23.36865"><ele>2485.3</ele><time>2026-03-02T08:24:56.000Z</time></trkpt>
<trkpt lat="42.172582" lon="23.368638"><ele>2485.3</ele><time>2026-03-02T08:24:57.000Z</time></trkpt>
<trkpt lat="42.172587" lon="23.368626"><ele>2485.3</ele><time>2026-03-02T08:24:58.000Z</time></trkpt>
<trkpt lat="42.172592" lon="23.368614"><ele>2485.3</ele><time>2026-03-02T08:24:59.000Z</time></trkpt>
<trkpt lat="42.172598" lon="23.368602"><ele>2486</ele><time>2026-03-02T08:25:00.000Z</time></trkpt>
<trkpt lat="42.172604" lon="23.368592"><ele>2486</ele><time>2026-03-02T08:25:01.000Z</time></trkpt>
<trkpt lat="42.172611" lon="23.368582"><ele>2486</ele><time>2026-03-02T08:25:02.000Z</time></trkpt>
<trkpt lat="42.172618" lon="23.368572"><ele>2486</ele><time>2026-03-02T08:25:03.000Z</time></trkpt>
<trkpt lat="42.172625" lon="23.368561"><ele>2486</ele><time>2026-03-02T08:25:04.000Z</time></trkpt>
<trkpt lat="42.172633" lon="23.368551"><ele>2486.4</ele><time>2026-03-02T08:25:05.000Z</time></trkpt>
<trkpt lat="42.17264" lon="23.36854"><ele>2486.4</ele><time>2026-03-02T08:25:06.000Z</time></trkpt>
<trkpt lat="42.172646" lon="23.368528"><ele>2486.4</ele><time>2026-03-02T08:25:07.000Z</time></trkpt>
<trkpt lat="42.172653" lon="23.368518"><ele>2486.4</ele><time>2026-03-02T08:25:08.000Z</time></trkpt>
<trkpt lat="42.172658" lon="23.368508"><ele>2486.4</ele><time>2026-03-02T08:25:09.000Z</time></trkpt>
<trkpt lat="42.172664" lon="23.368497"><ele>2486.4</ele><time>2026-03-02T08:25:10.000Z</time></trkpt>
<trkpt lat="42.17267" lon="23.368485"><ele>2486.4</ele><time>2026-03-02T08:25:11.000Z</time></trkpt>
<trkpt lat="42.172677" lon="23.368474"><ele>2486.4</ele><time>2026-03-02T08:25:12.000Z</time></trkpt>
<trkpt lat="42.172684" lon="23.368462"><ele>2486.4</ele><time>2026-03-02T08:25:13.000Z</time></trkpt>
<trkpt lat="42.172692" lon="23.36845"><ele>2486.4</ele><time>2026-03-02T08:25:14.000Z</time></trkpt>
<trkpt lat="42.1727" lon="23.368437"><ele>2486</ele><time>2026-03-02T08:25:15.000Z</time></trkpt>
<trkpt lat="42.172707" lon="23.368424"><ele>2486</ele><time>2026-03-02T08:25:16.000Z</time></trkpt>
<trkpt lat="42.172715" lon="23.368411"><ele>2486</ele><time>2026-03-02T08:25:17.000Z</time></trkpt>
<trkpt lat="42.172721" lon="23.368399"><ele>2486</ele><time>2026-03-02T08:25:18.000Z</time></trkpt>
<trkpt lat="42.172729" lon="23.368386"><ele>2486</ele><time>2026-03-02T08:25:19.000Z</time></trkpt>
<trkpt lat="42.172735" lon="23.368374"><ele>2485.7</ele><time>2026-03-02T08:25:20.000Z</time></trkpt>
<trkpt lat="42.172743" lon="23.368362"><ele>2485.7</ele><time>2026-03-02T08:25:21.000Z</time></trkpt>
<trkpt lat="42.172751" lon="23.36835"><ele>2485.7</ele><time>2026-03-02T08:25:22.000Z</time></trkpt>
<trkpt lat="42.172759" lon="23.368338"><ele>2485.7</ele><time>2026-03-02T08:25:23.000Z</time></trkpt>
<trkpt lat="42.172767" lon="23.368326"><ele>2485.7</ele><time>2026-03-02T08:25:24.000Z</time></trkpt>
<trkpt lat="42.172776" lon="23.368315"><ele>2485.6</ele><time>2026-03-02T08:25:25.000Z</time></trkpt>
<trkpt lat="42.172783" lon="23.368302"><ele>2485.6</ele><time>2026-03-02T08:25:26.000Z</time></trkpt>
<trkpt lat="42.172789" lon="23.368289"><ele>2485.6</ele><time>2026-03-02T08:25:27.000Z</time></trkpt>
<trkpt lat="42.172796" lon="23.368276"><ele>2485.6</ele><time>2026-03-02T08:25:28.000Z</time></trkpt>
<trkpt lat="42.172802" lon="23.368264"><ele>2485.6</ele><time>2026-03-02T08:25:29.000Z</time></trkpt>
<trkpt lat="42.172809" lon="23.368253"><ele>2485.4</ele><time>2026-03-02T08:25:30.000Z</time></trkpt>
<trkpt lat="42.172816" lon="23.368243"><ele>2485.4</ele><time>2026-03-02T08:25:31.000Z</time></trkpt>
<trkpt lat="42.172824" lon="23.368234"><ele>2485.4</ele><time>2026-03-02T08:25:32.000Z</time></trkpt>
<trkpt lat="42.172831" lon="23.368225"><ele>2485.4</ele><time>2026-03-02T08:25:33.000Z</time></trkpt>
<trkpt lat="42.172836" lon="23.368215"><ele>2485.4</ele><time>2026-03-02T08:25:34.000Z</time></trkpt>
<trkpt lat="42.172841" lon="23.368205"><ele>2485.6</ele><time>2026-03-02T08:25:35.000Z</time></trkpt>
<trkpt lat="42.172845" lon="23.368196"><ele>2485.6</ele><time>2026-03-02T08:25:36.000Z</time></trkpt>
<trkpt lat="42.172849" lon="23.368186"><ele>2485.6</ele><time>2026-03-02T08:25:37.000Z</time></trkpt>
<trkpt lat="42.172852" lon="23.368175"><ele>2485.6</ele><time>2026-03-02T08:25:38.000Z</time></trkpt>
<trkpt lat="42.172856" lon="23.368166"><ele>2485.6</ele><time>2026-03-02T08:25:39.000Z</time></trkpt>
<trkpt lat="42.172861" lon="23.368156"><ele>2485.8</ele><time>2026-03-02T08:25:40.000Z</time></trkpt>
<trkpt lat="42.172866" lon="23.368145"><ele>2485.8</ele><time>2026-03-02T08:25:41.000Z</time></trkpt>
<trkpt lat="42.172872" lon="23.368137"><ele>2485.8</ele><time>2026-03-02T08:25:42.000Z</time></trkpt>
<trkpt lat="42.172878" lon="23.368129"><ele>2485.8</ele><time>2026-03-02T08:25:43.000Z</time></trkpt>
<trkpt lat="42.172884" lon="23.36812"><ele>2485.8</ele><time>2026-03-02T08:25:44.000Z</time></trkpt>
<trkpt lat="42.17289" lon="23.368112"><ele>2486.5</ele><time>2026-03-02T08:25:45.000Z</time></trkpt>
<trkpt lat="42.172896" lon="23.368104"><ele>2486.5</ele><time>2026-03-02T08:25:46.000Z</time></trkpt>
<trkpt lat="42.1729" lon="23.368097"><ele>2486.5</ele><time>2026-03-02T08:25:47.000Z</time></trkpt>
<trkpt lat="42.172906" lon="23.368089"><ele>2486.5</ele><time>2026-03-02T08:25:48.000Z</time></trkpt>
<trkpt lat="42.172912" lon="23.368083"><ele>2486.5</ele><time>2026-03-02T08:25:49.000Z</time></trkpt>
<trkpt lat="42.172916" lon="23.368076"><ele>2487.4</ele><time>2026-03-02T08:25:50.000Z</time></trkpt>
<trkpt lat="42.172922" lon="23.368069"><ele>2487.4</ele><time>2026-03-02T08:25:51.000Z</time></trkpt>
<trkpt lat="42.172927" lon="23.368062"><ele>2487.4</ele><time>2026-03-02T08:25:52.000Z</time></trkpt>
<trkpt lat="42.172931" lon="23.368055"><ele>2487.4</ele><time>2026-03-02T08:25:53.000Z</time></trkpt>
<trkpt lat="42.172935" lon="23.368048"><ele>2487.4</ele><time>2026-03-02T08:25:54.000Z</time></trkpt>
<trkpt lat="42.17294" lon="23.368043"><ele>2487.9</ele><time>2026-03-02T08:25:55.000Z</time></trkpt>
<trkpt lat="42.172945" lon="23.368038"><ele>2487.9</ele><time>2026-03-02T08:25:56.000Z</time></trkpt>
<trkpt lat="42.17295" lon="23.368033"><ele>2487.9</ele><time>2026-03-02T08:25:57.000Z</time></trkpt>
<trkpt lat="42.172956" lon="23.368028"><ele>2487.9</ele><time>2026-03-02T08:25:58.000Z</time></trkpt>
<trkpt lat="42.172961" lon="23.368023"><ele>2487.9</ele><time>2026-03-02T08:25:59.000Z</time></trkpt>
<trkpt lat="42.172966" lon="23.368018"><ele>2489.1</ele><time>2026-03-02T08:26:00.000Z</time></trkpt>
<trkpt lat="42.17297" lon="23.368012"><ele>2489.1</ele><time>2026-03-02T08:26:01.000Z</time></trkpt>
<trkpt lat="42.172974" lon="23.368006"><ele>2489.1</ele><time>2026-03-02T08:26:02.000Z</time></trkpt>
<trkpt lat="42.172977" lon="23.367999"><ele>2489.1</ele><time>2026-03-02T08:26:03.000Z</time></trkpt>
<trkpt lat="42.17298" lon="23.367993"><ele>2489.1</ele><time>2026-03-02T08:26:04.000Z</time></trkpt>
<trkpt lat="42.172983" lon="23.367986"><ele>2490.4</ele><time>2026-03-02T08:26:05.000Z</time></trkpt>
<trkpt lat="42.172985" lon="23.367979"><ele>2490.4</ele><time>2026-03-02T08:26:06.000Z</time></trkpt>
<trkpt lat="42.172987" lon="23.367971"><ele>2490.4</ele><time>2026-03-02T08:26:07.000Z</time></trkpt>
<trkpt lat="42.172988" lon="23.367964"><ele>2490.4</ele><time>2026-03-02T08:26:08.000Z</time></trkpt>
<trkpt lat="42.172987" lon="23.367955"><ele>2490.4</ele><time>2026-03-02T08:26:09.000Z</time></trkpt>
<trkpt lat="42.172986" lon="23.367948"><ele>2491</ele><time>2026-03-02T08:26:10.000Z</time></trkpt>
<trkpt lat="42.172984" lon="23.367942"><ele>2491</ele><time>2026-03-02T08:26:11.000Z</time></trkpt>
<trkpt lat="42.172983" lon="23.367939"><ele>2491</ele><time>2026-03-02T08:26:12.000Z</time></trkpt>
<trkpt lat="42.172982" lon="23.367935"><ele>2491</ele><time>2026-03-02T08:26:13.000Z</time></trkpt>
<trkpt lat="42.172982" lon="23.367934"><ele>2491</ele><time>2026-03-02T08:26:14.000Z</time></trkpt>
<trkpt lat="42.172981" lon="23.367933"><ele>2492.2</ele><time>2026-03-02T08:26:15.000Z</time></trkpt>
<trkpt lat="42.172981" lon="23.367932"><ele>2492.2</ele><time>2026-03-02T08:26:16.000Z</time></trkpt>
<trkpt lat="42.172981" lon="23.367931"><ele>2492.2</ele><time>2026-03-02T08:26:17.000Z</time></trkpt>
<trkpt lat="42.17298" lon="23.367931"><ele>2492.2</ele><time>2026-03-02T08:26:18.000Z</time></trkpt>
<trkpt lat="42.17298" lon="23.36793"><ele>2492.2</ele><time>2026-03-02T08:26:19.000Z</time></trkpt>
<trkpt lat="42.17298" lon="23.36793"><ele>2493.2</ele><time>2026-03-02T08:26:20.000Z</time></trkpt>
<trkpt lat="42.17298" lon="23.36793"><ele>2493.2</ele><time>2026-03-02T08:26:21.000Z</time></trkpt>
<trkpt lat="42.17298" lon="23.367931"><ele>2493.2</ele><time>2026-03-02T08:26:22.000Z</time></trkpt>
<trkpt lat="42.17298" lon="23.367931"><ele>2493.2</ele><time>2026-03-02T08:26:23.000Z</time></trkpt>
<trkpt lat="42.172979" lon="23.367931"><ele>2493.2</ele><time>2026-03-02T08:26:24.000Z</time></trkpt>
<trkpt lat="42.172979" lon="23.367931"><ele>2493.5</ele><time>2026-03-02T08:26:25.000Z</time></trkpt>
<trkpt lat="42.172979" lon="23.367931"><ele>2493.5</ele><time>2026-03-02T08:26:26.000Z</time></trkpt>
<trkpt lat="42.172979" lon="23.367931"><ele>2493.5</ele><time>2026-03-02T08:26:27.000Z</time></trkpt>
<trkpt lat="42.172979" lon="23.367931"><ele>2493.5</ele><time>2026-03-02T08:26:28.000Z</time></trkpt>
<trkpt lat="42.172978" lon="23.367931"><ele>2493.5</ele><time>2026-03-02T08:26:29.000Z</time></trkpt>
<trkpt lat="42.172978" lon="23.367931"><ele>2493.7</ele><time>2026-03-02T08:26:30.000Z</time></trkpt>
<trkpt lat="42.172977" lon="23.367931"><ele>2493.7</ele><time>2026-03-02T08:26:31.000Z</time></trkpt>
<trkpt lat="42.172977" lon="23.367931"><ele>2493.7</ele><time>2026-03-02T08:26:32.000Z</time></trkpt>
<trkpt lat="42.172977" lon="23.367931"><ele>2493.7</ele><time>2026-03-02T08:26:33.000Z</time></trkpt>
<trkpt lat="42.172977" lon="23.367931"><ele>2493.7</ele><time>2026-03-02T08:26:34.000Z</time></trkpt>
<trkpt lat="42.172977" lon="23.367931"><ele>2493.6</ele><time>2026-03-02T08:26:35.000Z</time></trkpt>
<trkpt lat="42.172977" lon="23.367931"><ele>2493.6</ele><time>2026-03-02T08:26:36.000Z</time></trkpt>
<trkpt lat="42.172977" lon="23.367931"><ele>2493.6</ele><time>2026-03-02T08:26:37.000Z</time></trkpt>
<trkpt lat="42.172977" lon="23.367931"><ele>2493.6</ele><time>2026-03-02T08:26:38.000Z</time></trkpt>
<trkpt lat="42.172978" lon="23.36793"><ele>2493.6</ele><time>2026-03-02T08:26:39.000Z</time></trkpt>
<trkpt lat="42.172981" lon="23.367927"><ele>2493.5</ele><time>2026-03-02T08:26:40.000Z</time></trkpt>
<trkpt lat="42.172983" lon="23.367923"><ele>2493.5</ele><time>2026-03-02T08:26:41.000Z</time></trkpt>
<trkpt lat="42.172986" lon="23.367917"><ele>2493.5</ele><time>2026-03-02T08:26:42.000Z</time></trkpt>
<trkpt lat="42.17299" lon="23.36791"><ele>2493.5</ele><time>2026-03-02T08:26:43.000Z</time></trkpt>
<trkpt lat="42.172992" lon="23.367903"><ele>2493.5</ele><time>2026-03-02T08:26:44.000Z</time></trkpt>
<trkpt lat="42.172994" lon="23.367898"><ele>2493.5</ele><time>2026-03-02T08:26:45.000Z</time></trkpt>
<trkpt lat="42.172995" lon="23.367893"><ele>2493.5</ele><time>2026-03-02T08:26:46.000Z</time></trkpt>
<trkpt lat="42.172996" lon="23.367891"><ele>2493.5</ele><time>2026-03-02T08:26:47.000Z</time></trkpt>
<trkpt lat="42.172996" lon="23.36789"><ele>2493.5</ele><time>2026-03-02T08:26:48.000Z</time></trkpt>
<trkpt lat="42.172996" lon="23.36789"><ele>2493.5</ele><time>2026-03-02T08:26:49.000Z</time></trkpt>
<trkpt lat="42.172995" lon="23.36789"><ele>2493.7</ele><time>2026-03-02T08:26:50.000Z</time></trkpt>
<trkpt lat="42.172995" lon="23.36789"><ele>2493.7</ele><time>2026-03-02T08:26:51.000Z</time></trkpt>
<trkpt lat="42.172995" lon="23.36789"><ele>2493.7</ele><time>2026-03-02T08:26:52.000Z</time></trkpt>
<trkpt lat="42.172995" lon="23.36789"><ele>2493.7</ele><time>2026-03-02T08:26:53.000Z</time></trkpt>
<trkpt lat="42.172996" lon="23.36789"><ele>2493.7</ele><time>2026-03-02T08:26:54.000Z</time></trkpt>
<trkpt lat="42.172996" lon="23.36789"><ele>2494</ele><time>2026-03-02T08:26:55.000Z</time></trkpt>
<trkpt lat="42.172997" lon="23.367891"><ele>2494</ele><time>2026-03-02T08:26:56.000Z</time></trkpt>
<trkpt lat="42.172998" lon="23.367891"><ele>2494</ele><time>2026-03-02T08:26:57.000Z</time></trkpt>
<trkpt lat="42.172998" lon="23.367892"><ele>2494</ele><time>2026-03-02T08:26:58.000Z</time></trkpt>
<trkpt lat="42.172999" lon="23.367892"><ele>2494</ele><time>2026-03-02T08:26:59.000Z</time></trkpt>
<trkpt lat="42.172999" lon="23.367892"><ele>2494.5</ele><time>2026-03-02T08:27:00.000Z</time></trkpt>
<trkpt lat="42.172999" lon="23.367892"><ele>2494.5</ele><time>2026-03-02T08:27:01.000Z</time></trkpt>
<trkpt lat="42.172999" lon="23.367892"><ele>2494.5</ele><time>2026-03-02T08:27:02.000Z</time></trkpt>
<trkpt lat="42.172999" lon="23.367892"><ele>2494.5</ele><time>2026-03-02T08:27:03.000Z</time></trkpt>
<trkpt lat="42.172999" lon="23.367892"><ele>2494.5</ele><time>2026-03-02T08:27:04.000Z</time></trkpt>
<trkpt lat="42.172999" lon="23.367892"><ele>2494.8</ele><time>2026-03-02T08:27:05.000Z</time></trkpt>
<trkpt lat="42.172999" lon="23.367891"><ele>2494.8</ele><time>2026-03-02T08:27:06.000Z</time></trkpt>
<trkpt lat="42.173" lon="23.36789"><ele>2494.8</ele><time>2026-03-02T08:27:07.000Z</time></trkpt>
<trkpt lat="42.173002" lon="23.367888"><ele>2494.8</ele><time>2026-03-02T08:27:08.000Z</time></trkpt>
<trkpt lat="42.173003" lon="23.367883"><ele>2494.8</ele><time>2026-03-02T08:27:09.000Z</time></trkpt>
<trkpt lat="42.173005" lon="23.367877"><ele>2495</ele><time>2026-03-02T08:27:10.000Z</time></trkpt>
<trkpt lat="42.173008" lon="23.36787"><ele>2495</ele><time>2026-03-02T08:27:11.000Z</time></trkpt>
<trkpt lat="42.17301" lon="23.367863"><ele>2495</ele><time>2026-03-02T08:27:12.000Z</time></trkpt>
<trkpt lat="42.173013" lon="23.367854"><ele>2495</ele><time>2026-03-02T08:27:13.000Z</time></trkpt>
<trkpt lat="42.173017" lon="23.367846"><ele>2495</ele><time>2026-03-02T08:27:14.000Z</time></trkpt>
<trkpt lat="42.17302" lon="23.367837"><ele>2495.1</ele><time>2026-03-02T08:27:15.000Z</time></trkpt>
<trkpt lat="42.173024" lon="23.367827"><ele>2495.1</ele><time>2026-03-02T08:27:16.000Z</time></trkpt>
<trkpt lat="42.173028" lon="23.367817"><ele>2495.1</ele><time>2026-03-02T08:27:17.000Z</time></trkpt>
<trkpt lat="42.173032" lon="23.367807"><ele>2495.1</ele><time>2026-03-02T08:27:18.000Z</time></trkpt>
<trkpt lat="42.173037" lon="23.367796"><ele>2495.1</ele><time>2026-03-02T08:27:19.000Z</time></trkpt>
<trkpt lat="42.173043" lon="23.367785"><ele>2495.3</ele><time>2026-03-02T08:27:20.000Z</time></trkpt>
<trkpt lat="42.173048" lon="23.367775"><ele>2495.3</ele><time>2026-03-02T08:27:21.000Z</time></trkpt>
<trkpt lat="42.173054" lon="23.367767"><ele>2495.3</ele><time>2026-03-02T08:27:22.000Z</time></trkpt>
<trkpt lat="42.17306" lon="23.367759"><ele>2495.3</ele><time>2026-03-02T08:27:23.000Z</time></trkpt>
<trkpt lat="42.173066" lon="23.367752"><ele>2495.3</ele><time>2026-03-02T08:27:24.000Z</time></trkpt>
<trkpt lat="42.173072" lon="23.367745"><ele>2495.4</ele><time>2026-03-02T08:27:25.000Z</time></trkpt>
<trkpt lat="42.173079" lon="23.367738"><ele>2495.4</ele><time>2026-03-02T08:27:26.000Z</time></trkpt>
<trkpt lat="42.173085" lon="23.367731"><ele>2495.4</ele><time>2026-03-02T08:27:27.000Z</time></trkpt>
<trkpt lat="42.173091" lon="23.367723"><ele>2495.4</ele><time>2026-03-02T08:27:28.000Z</time></trkpt>
<trkpt lat="42.173098" lon="23.367714"><ele>2495.4</ele><time>2026-03-02T08:27:29.000Z</time></trkpt>
<trkpt lat="42.173104" lon="23.367704"><ele>2496.3</ele><time>2026-03-02T08:27:30.000Z</time></trkpt>
<trkpt lat="42.17311" lon="23.367693"><ele>2496.3</ele><time>2026-03-02T08:27:31.000Z</time></trkpt>
<trkpt lat="42.173116" lon="23.367682"><ele>2496.3</ele><time>2026-03-02T08:27:32.000Z</time></trkpt>
<trkpt lat="42.173122" lon="23.367672"><ele>2496.3</ele><time>2026-03-02T08:27:33.000Z</time></trkpt>
<trkpt lat="42.173129" lon="23.367664"><ele>2496.3</ele><time>2026-03-02T08:27:34.000Z</time></trkpt>
<trkpt lat="42.173135" lon="23.367656"><ele>2497.5</ele><time>2026-03-02T08:27:35.000Z</time></trkpt>
<trkpt lat="42.173142" lon="23.367649"><ele>2497.5</ele><time>2026-03-02T08:27:36.000Z</time></trkpt>
<trkpt lat="42.173148" lon="23.367642"><ele>2497.5</ele><time>2026-03-02T08:27:37.000Z</time></trkpt>
<trkpt lat="42.173154" lon="23.367635"><ele>2497.5</ele><time>2026-03-02T08:27:38.000Z</time></trkpt>
<trkpt lat="42.17316" lon="23.367627"><ele>2497.5</ele><time>2026-03-02T08:27:39.000Z</time></trkpt>
<trkpt lat="42.173164" lon="23.367619"><ele>2498.1</ele><time>2026-03-02T08:27:40.000Z</time></trkpt>
<trkpt lat="42.173168" lon="23.367611"><ele>2498.1</ele><time>2026-03-02T08:27:41.000Z</time></trkpt>
<trkpt lat="42.173171" lon="23.367602"><ele>2498.1</ele><time>2026-03-02T08:27:42.000Z</time></trkpt>
<trkpt lat="42.173174" lon="23.367593"><ele>2498.1</ele><time>2026-03-02T08:27:43.000Z</time></trkpt>
<trkpt lat="42.173178" lon="23.367584"><ele>2498.1</ele><time>2026-03-02T08:27:44.000Z</time></trkpt>
<trkpt lat="42.173182" lon="23.367575"><ele>2499.2</ele><time>2026-03-02T08:27:45.000Z</time></trkpt>
<trkpt lat="42.173186" lon="23.367565"><ele>2499.2</ele><time>2026-03-02T08:27:46.000Z</time></trkpt>
<trkpt lat="42.17319" lon="23.367555"><ele>2499.2</ele><time>2026-03-02T08:27:47.000Z</time></trkpt>
<trkpt lat="42.173194" lon="23.367543"><ele>2499.2</ele><time>2026-03-02T08:27:48.000Z</time></trkpt>
<trkpt lat="42.173197" lon="23.367533"><ele>2499.2</ele><time>2026-03-02T08:27:49.000Z</time></trkpt>
<trkpt lat="42.1732" lon="23.367522"><ele>2500.3</ele><time>2026-03-02T08:27:50.000Z</time></trkpt>
<trkpt lat="42.173204" lon="23.367512"><ele>2500.3</ele><time>2026-03-02T08:27:51.000Z</time></trkpt>
<trkpt lat="42.173207" lon="23.367502"><ele>2500.3</ele><time>2026-03-02T08:27:52.000Z</time></trkpt>
<trkpt lat="42.173211" lon="23.367491"><ele>2500.3</ele><time>2026-03-02T08:27:53.000Z</time></trkpt>
<trkpt lat="42.173215" lon="23.36748"><ele>2500.3</ele><time>2026-03-02T08:27:54.000Z</time></trkpt>
<trkpt lat="42.173218" lon="23.367469"><ele>2500.8</ele><time>2026-03-02T08:27:55.000Z</time></trkpt>
<trkpt lat="42.173223" lon="23.367455"><ele>2500.8</ele><time>2026-03-02T08:27:56.000Z</time></trkpt>
<trkpt lat="42.173228" lon="23.367444"><ele>2500.8</ele><time>2026-03-02T08:27:57.000Z</time></trkpt>
<trkpt lat="42.173232" lon="23.367434"><ele>2500.8</ele><time>2026-03-02T08:27:58.000Z</time></trkpt>
<trkpt lat="42.173236" lon="23.367427"><ele>2500.8</ele><time>2026-03-02T08:27:59.000Z</time></trkpt>
<trkpt lat="42.173239" lon="23.367423"><ele>2501.7</ele><time>2026-03-02T08:28:00.000Z</time></trkpt>
<trkpt lat="42.173241" lon="23.367421"><ele>2501.7</ele><time>2026-03-02T08:28:01.000Z</time></trkpt>
<trkpt lat="42.173241" lon="23.367422"><ele>2501.7</ele><time>2026-03-02T08:28:02.000Z</time></trkpt>
<trkpt lat="42.173241" lon="23.367423"><ele>2501.7</ele><time>2026-03-02T08:28:03.000Z</time></trkpt>
<trkpt lat="42.173239" lon="23.367425"><ele>2501.7</ele><time>2026-03-02T08:28:04.000Z</time></trkpt>
<trkpt lat="42.173238" lon="23.367426"><ele>2502.6</ele><time>2026-03-02T08:28:05.000Z</time></trkpt>
<trkpt lat="42.173237" lon="23.367427"><ele>2502.6</ele><time>2026-03-02T08:28:06.000Z</time></trkpt>
<trkpt lat="42.173236" lon="23.367428"><ele>2502.6</ele><time>2026-03-02T08:28:07.000Z</time></trkpt>
<trkpt lat="42.173236" lon="23.367429"><ele>2502.6</ele><time>2026-03-02T08:28:08.000Z</time></trkpt>
<trkpt lat="42.173236" lon="23.367429"><ele>2502.6</ele><time>2026-03-02T08:28:09.000Z</time></trkpt>
<trkpt lat="42.173235" lon="23.367429"><ele>2503.1</ele><time>2026-03-02T08:28:10.000Z</time></trkpt>
<trkpt lat="42.173235" lon="23.36743"><ele>2503.1</ele><time>2026-03-02T08:28:11.000Z</time></trkpt>
<trkpt lat="42.173234" lon="23.367431"><ele>2503.1</ele><time>2026-03-02T08:28:12.000Z</time></trkpt>
<trkpt lat="42.173234" lon="23.367432"><ele>2503.1</ele><time>2026-03-02T08:28:13.000Z</time></trkpt>
<trkpt lat="42.173233" lon="23.367432"><ele>2503.1</ele><time>2026-03-02T08:28:14.000Z</time></trkpt>
<trkpt lat="42.173233" lon="23.367432"><ele>2503.7</ele><time>2026-03-02T08:28:15.000Z</time></trkpt>
<trkpt lat="42.173233" lon="23.367432"><ele>2503.7</ele><time>2026-03-02T08:28:16.000Z</time></trkpt>
<trkpt lat="42.173233" lon="23.367432"><ele>2503.7</ele><time>2026-03-02T08:28:17.000Z</time></trkpt>
<trkpt lat="42.173234" lon="23.367432"><ele>2503.7</ele><time>2026-03-02T08:28:18.000Z</time></trkpt>
<trkpt lat="42.173234" lon="23.367432"><ele>2503.7</ele><time>2026-03-02T08:28:19.000Z</time></trkpt>
<trkpt lat="42.173234" lon="23.367431"><ele>2503.8</ele><time>2026-03-02T08:28:20.000Z</time></trkpt>
<trkpt lat="42.173235" lon="23.36743"><ele>2503.8</ele><time>2026-03-02T08:28:21.000Z</time></trkpt>
<trkpt lat="42.173235" lon="23.367429"><ele>2503.8</ele><time>2026-03-02T08:28:22.000Z</time></trkpt>
<trkpt lat="42.173236" lon="23.367429"><ele>2503.8</ele><time>2026-03-02T08:28:23.000Z</time></trkpt>
<trkpt lat="42.173236" lon="23.367429"><ele>2503.8</ele><time>2026-03-02T08:28:24.000Z</time></trkpt>
<trkpt lat="42.173236" lon="23.367429"><ele>2503.8</ele><time>2026-03-02T08:28:25.000Z</time></trkpt>
<trkpt lat="42.173237" lon="23.367428"><ele>2503.8</ele><time>2026-03-02T08:28:26.000Z</time></trkpt>
<trkpt lat="42.173239" lon="23.367427"><ele>2503.8</ele><time>2026-03-02T08:28:27.000Z</time></trkpt>
<trkpt lat="42.17324" lon="23.367427"><ele>2503.8</ele><time>2026-03-02T08:28:28.000Z</time></trkpt>
<trkpt lat="42.173242" lon="23.367425"><ele>2503.8</ele><time>2026-03-02T08:28:29.000Z</time></trkpt>
<trkpt lat="42.173243" lon="23.367424"><ele>2503.9</ele><time>2026-03-02T08:28:30.000Z</time></trkpt>
<trkpt lat="42.173245" lon="23.367423"><ele>2503.9</ele><time>2026-03-02T08:28:31.000Z</time></trkpt>
<trkpt lat="42.173245" lon="23.367423"><ele>2503.9</ele><time>2026-03-02T08:28:32.000Z</time></trkpt>
<trkpt lat="42.173245" lon="23.367422"><ele>2503.9</ele><time>2026-03-02T08:28:33.000Z</time></trkpt>
<trkpt lat="42.173245" lon="23.367421"><ele>2503.9</ele><time>2026-03-02T08:28:34.000Z</time></trkpt>
<trkpt lat="42.173245" lon="23.367421"><ele>2504</ele><time>2026-03-02T08:28:35.000Z</time></trkpt>
<trkpt lat="42.173245" lon="23.36742"><ele>2504</ele><time>2026-03-02T08:28:36.000Z</time></trkpt>
<trkpt lat="42.173244" lon="23.367421"><ele>2504</ele><time>2026-03-02T08:28:37.000Z</time></trkpt>
<trkpt lat="42.173244" lon="23.367421"><ele>2504</ele><time>2026-03-02T08:28:38.000Z</time></trkpt>
<trkpt lat="42.173243" lon="23.367422"><ele>2504</ele><time>2026-03-02T08:28:39.000Z</time></trkpt>
<trkpt lat="42.173243" lon="23.367422"><ele>2504</ele><time>2026-03-02T08:28:40.000Z</time></trkpt>
<trkpt lat="42.173243" lon="23.367422"><ele>2504</ele><time>2026-03-02T08:28:41.000Z</time></trkpt>
<trkpt lat="42.173244" lon="23.367421"><ele>2504</ele><time>2026-03-02T08:28:42.000Z</time></trkpt>
<trkpt lat="42.173245" lon="23.36742"><ele>2504</ele><time>2026-03-02T08:28:43.000Z</time></trkpt>
<trkpt lat="42.173246" lon="23.367419"><ele>2504</ele><time>2026-03-02T08:28:44.000Z</time></trkpt>
<trkpt lat="42.173247" lon="23.367419"><ele>2504.1</ele><time>2026-03-02T08:28:45.000Z</time></trkpt>
<trkpt lat="42.173248" lon="23.367419"><ele>2504.1</ele><time>2026-03-02T08:28:46.000Z</time></trkpt>
<trkpt lat="42.173248" lon="23.367419"><ele>2504.1</ele><time>2026-03-02T08:28:47.000Z</time></trkpt>
<trkpt lat="42.173249" lon="23.36742"><ele>2504.1</ele><time>2026-03-02T08:28:48.000Z</time></trkpt>
<trkpt lat="42.173249" lon="23.36742"><ele>2504.1</ele><time>2026-03-02T08:28:49.000Z</time></trkpt>
<trkpt lat="42.173249" lon="23.36742"><ele>2504.2</ele><time>2026-03-02T08:28:50.000Z</time></trkpt>
<trkpt lat="42.173249" lon="23.367421"><ele>2504.2</ele><time>2026-03-02T08:28:51.000Z</time></trkpt>
<trkpt lat="42.173249" lon="23.367422"><ele>2504.2</ele><time>2026-03-02T08:28:52.000Z</time></trkpt>
<trkpt lat="42.173249" lon="23.367424"><ele>2504.2</ele><time>2026-03-02T08:28:53.000Z</time></trkpt>
<trkpt lat="42.173249" lon="23.367426"><ele>2504.2</ele><time>2026-03-02T08:28:54.000Z</time></trkpt>
<trkpt lat="42.173249" lon="23.367428"><ele>2504.2</ele><time>2026-03-02T08:28:55.000Z</time></trkpt>
<trkpt lat="42.173249" lon="23.36743"><ele>2504.2</ele><time>2026-03-02T08:28:56.000Z</time></trkpt>
<trkpt lat="42.173249" lon="23.367431"><ele>2504.2</ele><time>2026-03-02T08:28:57.000Z</time></trkpt>
<trkpt lat="42.17325" lon="23.367432"><ele>2504.2</ele><time>2026-03-02T08:28:58.000Z</time></trkpt>
<trkpt lat="42.17325" lon="23.367433"><ele>2504.2</ele><time>2026-03-02T08:28:59.000Z</time></trkpt>
<trkpt lat="42.17325" lon="23.367433"><ele>2504.1</ele><time>2026-03-02T08:29:00.000Z</time></trkpt>
<trkpt lat="42.17325" lon="23.367433"><ele>2504.1</ele><time>2026-03-02T08:29:01.000Z</time></trkpt>
<trkpt lat="42.173251" lon="23.367434"><ele>2504.1</ele><time>2026-03-02T08:29:02.000Z</time></trkpt>
<trkpt lat="42.173251" lon="23.367434"><ele>2504.1</ele><time>2026-03-02T08:29:03.000Z</time></trkpt>
<trkpt lat="42.173252" lon="23.367435"><ele>2504.1</ele><time>2026-03-02T08:29:04.000Z</time></trkpt>
<trkpt lat="42.173252" lon="23.367435"><ele>2504.1</ele><time>2026-03-02T08:29:05.000Z</time></trkpt>
<trkpt lat="42.173253" lon="23.367435"><ele>2504.1</ele><time>2026-03-02T08:29:06.000Z</time></trkpt>
<trkpt lat="42.173253" lon="23.367435"><ele>2504.1</ele><time>2026-03-02T08:29:07.000Z</time></trkpt>
<trkpt lat="42.173253" lon="23.367436"><ele>2504.1</ele><time>2026-03-02T08:29:08.000Z</time></trkpt>
<trkpt lat="42.173253" lon="23.367436"><ele>2504.1</ele><time>2026-03-02T08:29:09.000Z</time></trkpt>
<trkpt lat="42.173253" lon="23.367436"><ele>2504.1</ele><time>2026-03-02T08:29:10.000Z</time></trkpt>
<trkpt lat="42.173253" lon="23.367436"><ele>2504.1</ele><time>2026-03-02T08:29:11.000Z</time></trkpt>
<trkpt lat="42.173253" lon="23.367436"><ele>2504.1</ele><time>2026-03-02T08:29:12.000Z</time></trkpt>
<trkpt lat="42.173253" lon="23.367436"><ele>2504.1</ele><time>2026-03-02T08:29:13.000Z</time></trkpt>
<trkpt lat="42.173253" lon="23.367436"><ele>2504.1</ele><time>2026-03-02T08:29:14.000Z</time></trkpt>
<trkpt lat="42.173254" lon="23.367436"><ele>2504.1</ele><time>2026-03-02T08:29:15.000Z</time></trkpt>
<trkpt lat="42.173255" lon="23.367436"><ele>2504.1</ele><time>2026-03-02T08:29:16.000Z</time></trkpt>
<trkpt lat="42.173255" lon="23.367436"><ele>2504.1</ele><time>2026-03-02T08:29:17.000Z</time></trkpt>
<trkpt lat="42.173256" lon="23.367436"><ele>2504.1</ele><time>2026-03-02T08:29:18.000Z</time></trkpt>
<trkpt lat="42.173256" lon="23.367436"><ele>2504.1</ele><time>2026-03-02T08:29:19.000Z</time></trkpt>
<trkpt lat="42.173256" lon="23.367436"><ele>2504.1</ele><time>2026-03-02T08:29:20.000Z</time></trkpt>
<trkpt lat="42.173256" lon="23.367436"><ele>2504.1</ele><time>2026-03-02T08:29:21.000Z</time></trkpt>
<trkpt lat="42.173256" lon="23.367436"><ele>2504.1</ele><time>2026-03-02T08:29:22.000Z</time></trkpt>
<trkpt lat="42.173257" lon="23.367436"><ele>2504.1</ele><time>2026-03-02T08:29:23.000Z</time></trkpt>
<trkpt lat="42.173257" lon="23.367436"><ele>2504.1</ele><time>2026-03-02T08:29:24.000Z</time></trkpt>
<trkpt lat="42.173257" lon="23.367436"><ele>2504.1</ele><time>2026-03-02T08:29:25.000Z</time></trkpt>
<trkpt lat="42.173257" lon="23.367436"><ele>2504.1</ele><time>2026-03-02T08:29:26.000Z</time></trkpt>
<trkpt lat="42.173258" lon="23.367437"><ele>2504.1</ele><time>2026-03-02T08:29:27.000Z</time></trkpt>
<trkpt lat="42.173258" lon="23.367437"><ele>2504.1</ele><time>2026-03-02T08:29:28.000Z</time></trkpt>
<trkpt lat="42.173258" lon="23.367437"><ele>2504.1</ele><time>2026-03-02T08:29:29.000Z</time></trkpt>
<trkpt lat="42.173258" lon="23.367437"><ele>2504.1</ele><time>2026-03-02T08:29:30.000Z</time></trkpt>
<trkpt lat="42.173258" lon="23.367437"><ele>2504.1</ele><time>2026-03-02T08:29:31.000Z</time></trkpt>
<trkpt lat="42.173258" lon="23.367437"><ele>2504.1</ele><time>2026-03-02T08:29:32.000Z</time></trkpt>
<trkpt lat="42.173258" lon="23.367437"><ele>2504.1</ele><time>2026-03-02T08:29:33.000Z</time></trkpt>
<trkpt lat="42.173258" lon="23.367436"><ele>2504.1</ele><time>2026-03-02T08:29:34.000Z</time></trkpt>
<trkpt lat="42.173258" lon="23.367435"><ele>2504</ele><time>2026-03-02T08:29:35.000Z</time></trkpt>
<trkpt lat="42.173258" lon="23.367433"><ele>2504</ele><time>2026-03-02T08:29:36.000Z</time></trkpt>
<trkpt lat="42.173258" lon="23.367432"><ele>2504</ele><time>2026-03-02T08:29:37.000Z</time></trkpt>
<trkpt lat="42.173258" lon="23.367432"><ele>2504</ele><time>2026-03-02T08:29:38.000Z</time></trkpt>
<trkpt lat="42.173257" lon="23.367432"><ele>2504</ele><time>2026-03-02T08:29:39.000Z</time></trkpt>
<trkpt lat="42.173257" lon="23.367432"><ele>2504</ele><time>2026-03-02T08:29:40.000Z</time></trkpt>
<trkpt lat="42.173255" lon="23.367432"><ele>2504</ele><time>2026-03-02T08:29:41.000Z</time></trkpt>
<trkpt lat="42.173254" lon="23.367432"><ele>2504</ele><time>2026-03-02T08:29:42.000Z</time></trkpt>
<trkpt lat="42.173254" lon="23.367431"><ele>2504</ele><time>2026-03-02T08:29:43.000Z</time></trkpt>
<trkpt lat="42.173253" lon="23.36743"><ele>2504</ele><time>2026-03-02T08:29:44.000Z</time></trkpt>
<trkpt lat="42.173253" lon="23.367429"><ele>2504</ele><time>2026-03-02T08:29:45.000Z</time></trkpt>
<trkpt lat="42.173253" lon="23.367428"><ele>2504</ele><time>2026-03-02T08:29:46.000Z</time></trkpt>
<trkpt lat="42.173253" lon="23.367427"><ele>2504</ele><time>2026-03-02T08:29:47.000Z</time></trkpt>
<trkpt lat="42.173253" lon="23.367427"><ele>2504</ele><time>2026-03-02T08:29:48.000Z</time></trkpt>
<trkpt lat="42.173253" lon="23.367427"><ele>2504</ele><time>2026-03-02T08:29:49.000Z</time></trkpt>
<trkpt lat="42.173253" lon="23.367427"><ele>2503.9</ele><time>2026-03-02T08:29:50.000Z</time></trkpt>
<trkpt lat="42.173253" lon="23.367428"><ele>2503.9</ele><time>2026-03-02T08:29:51.000Z</time></trkpt>
<trkpt lat="42.173254" lon="23.36743"><ele>2503.9</ele><time>2026-03-02T08:29:52.000Z</time></trkpt>
<trkpt lat="42.173253" lon="23.367431"><ele>2503.9</ele><time>2026-03-02T08:29:53.000Z</time></trkpt>
<trkpt lat="42.173253" lon="23.367433"><ele>2503.9</ele><time>2026-03-02T08:29:54.000Z</time></trkpt>
<trkpt lat="42.173252" lon="23.367435"><ele>2503.8</ele><time>2026-03-02T08:29:55.000Z</time></trkpt>
<trkpt lat="42.173252" lon="23.367436"><ele>2503.8</ele><time>2026-03-02T08:29:56.000Z</time></trkpt>
<trkpt lat="42.173251" lon="23.367438"><ele>2503.8</ele><time>2026-03-02T08:29:57.000Z</time></trkpt>
<trkpt lat="42.17325" lon="23.367439"><ele>2503.8</ele><time>2026-03-02T08:29:58.000Z</time></trkpt>
<trkpt lat="42.173249" lon="23.367441"><ele>2503.8</ele><time>2026-03-02T08:29:59.000Z</time></trkpt>
<trkpt lat="42.173248" lon="23.367442"><ele>2503.6</ele><time>2026-03-02T08:30:00.000Z</time></trkpt>
<trkpt lat="42.173247" lon="23.367442"><ele>2503.6</ele><time>2026-03-02T08:30:01.000Z</time></trkpt>
<trkpt lat="42.173247" lon="23.367441"><ele>2503.6</ele><time>2026-03-02T08:30:02.000Z</time></trkpt>
<trkpt lat="42.173246" lon="23.367442"><ele>2503.6</ele><time>2026-03-02T08:30:03.000Z</time></trkpt>
<trkpt lat="42.173246" lon="23.367442"><ele>2503.6</ele><time>2026-03-02T08:30:04.000Z</time></trkpt>
<trkpt lat="42.173245" lon="23.367444"><ele>2503.5</ele><time>2026-03-02T08:30:05.000Z</time></trkpt>
<trkpt lat="42.173244" lon="23.367445"><ele>2503.5</ele><time>2026-03-02T08:30:06.000Z</time></trkpt>
<trkpt lat="42.173243" lon="23.367446"><ele>2503.5</ele><time>2026-03-02T08:30:07.000Z</time></trkpt>
<trkpt lat="42.173242" lon="23.367447"><ele>2503.5</ele><time>2026-03-02T08:30:08.000Z</time></trkpt>
<trkpt lat="42.173242" lon="23.367448"><ele>2503.5</ele><time>2026-03-02T08:30:09.000Z</time></trkpt>
<trkpt lat="42.173241" lon="23.367448"><ele>2503.5</ele><time>2026-03-02T08:30:10.000Z</time></trkpt>
<trkpt lat="42.173241" lon="23.367448"><ele>2503.5</ele><time>2026-03-02T08:30:11.000Z</time></trkpt>
<trkpt lat="42.173241" lon="23.367448"><ele>2503.5</ele><time>2026-03-02T08:30:12.000Z</time></trkpt>
<trkpt lat="42.173241" lon="23.367448"><ele>2503.5</ele><time>2026-03-02T08:30:13.000Z</time></trkpt>
<trkpt lat="42.173241" lon="23.367448"><ele>2503.5</ele><time>2026-03-02T08:30:14.000Z</time></trkpt>
<trkpt lat="42.173241" lon="23.367448"><ele>2503.6</ele><time>2026-03-02T08:30:15.000Z</time></trkpt>
<trkpt lat="42.173241" lon="23.367448"><ele>2503.6</ele><time>2026-03-02T08:30:16.000Z</time></trkpt>
<trkpt lat="42.173241" lon="23.367448"><ele>2503.6</ele><time>2026-03-02T08:30:17.000Z</time></trkpt>
<trkpt lat="42.173241" lon="23.367448"><ele>2503.6</ele><time>2026-03-02T08:30:18.000Z</time></trkpt>
<trkpt lat="42.173241" lon="23.367448"><ele>2503.6</ele><time>2026-03-02T08:30:19.000Z</time></trkpt>
<trkpt lat="42.173241" lon="23.367448"><ele>2503.5</ele><time>2026-03-02T08:30:20.000Z</time></trkpt>
<trkpt lat="42.173241" lon="23.367448"><ele>2503.5</ele><time>2026-03-02T08:30:21.000Z</time></trkpt>
<trkpt lat="42.173241" lon="23.367448"><ele>2503.5</ele><time>2026-03-02T08:30:22.000Z</time></trkpt>
<trkpt lat="42.173241" lon="23.367448"><ele>2503.5</ele><time>2026-03-02T08:30:23.000Z</time></trkpt>
<trkpt lat="42.173241" lon="23.367448"><ele>2503.5</ele><time>2026-03-02T08:30:24.000Z</time></trkpt>
<trkpt lat="42.173241" lon="23.367448"><ele>2503.5</ele><time>2026-03-02T08:30:25.000Z</time></trkpt>
<trkpt lat="42.173241" lon="23.367448"><ele>2503.5</ele><time>2026-03-02T08:30:26.000Z</time></trkpt>
<trkpt lat="42.173241" lon="23.367448"><ele>2503.5</ele><time>2026-03-02T08:30:27.000Z</time></trkpt>
<trkpt lat="42.173241" lon="23.367448"><ele>2503.5</ele><time>2026-03-02T08:30:28.000Z</time></trkpt>
<trkpt lat="42.173242" lon="23.367448"><ele>2503.5</ele><time>2026-03-02T08:30:29.000Z</time></trkpt>
<trkpt lat="42.173242" lon="23.367448"><ele>2503.5</ele><time>2026-03-02T08:30:30.000Z</time></trkpt>
<trkpt lat="42.173243" lon="23.367449"><ele>2503.5</ele><time>2026-03-02T08:30:31.000Z</time></trkpt>
<trkpt lat="42.173244" lon="23.36745"><ele>2503.5</ele><time>2026-03-02T08:30:32.000Z</time></trkpt>
<trkpt lat="42.173245" lon="23.36745"><ele>2503.5</ele><time>2026-03-02T08:30:33.000Z</time></trkpt>
<trkpt lat="42.173245" lon="23.367451"><ele>2503.5</ele><time>2026-03-02T08:30:34.000Z</time></trkpt>
<trkpt lat="42.173245" lon="23.367451"><ele>2503.5</ele><time>2026-03-02T08:30:35.000Z</time></trkpt>
<trkpt lat="42.173246" lon="23.367451"><ele>2503.5</ele><time>2026-03-02T08:30:36.000Z</time></trkpt>
<trkpt lat="42.173246" lon="23.367451"><ele>2503.5</ele><time>2026-03-02T08:30:37.000Z</time></trkpt>
<trkpt lat="42.173246" lon="23.367451"><ele>2503.5</ele><time>2026-03-02T08:30:38.000Z</time></trkpt>
<trkpt lat="42.173246" lon="23.36745"><ele>2503.5</ele><time>2026-03-02T08:30:39.000Z</time></trkpt>
<trkpt lat="42.173246" lon="23.367449"><ele>2503.5</ele><time>2026-03-02T08:30:40.000Z</time></trkpt>
<trkpt lat="42.173247" lon="23.367449"><ele>2503.5</ele><time>2026-03-02T08:30:41.000Z</time></trkpt>
<trkpt lat="42.173246" lon="23.367448"><ele>2503.5</ele><time>2026-03-02T08:30:42.000Z</time></trkpt>
<trkpt lat="42.173246" lon="23.367448"><ele>2503.5</ele><time>2026-03-02T08:30:43.000Z</time></trkpt>
<trkpt lat="42.173246" lon="23.367448"><ele>2503.5</ele><time>2026-03-02T08:30:44.000Z</time></trkpt>
<trkpt lat="42.173246" lon="23.367448"><ele>2503.5</ele><time>2026-03-02T08:30:45.000Z</time></trkpt>
<trkpt lat="42.173247" lon="23.367448"><ele>2503.5</ele><time>2026-03-02T08:30:46.000Z</time></trkpt>
<trkpt lat="42.173247" lon="23.367448"><ele>2503.5</ele><time>2026-03-02T08:30:47.000Z</time></trkpt>
<trkpt lat="42.173248" lon="23.367448"><ele>2503.5</ele><time>2026-03-02T08:30:48.000Z</time></trkpt>
<trkpt lat="42.173248" lon="23.367447"><ele>2503.5</ele><time>2026-03-02T08:30:49.000Z</time></trkpt>
<trkpt lat="42.173249" lon="23.367447"><ele>2503.7</ele><time>2026-03-02T08:30:50.000Z</time></trkpt>
<trkpt lat="42.173249" lon="23.367447"><ele>2503.7</ele><time>2026-03-02T08:30:51.000Z</time></trkpt>
<trkpt lat="42.173249" lon="23.367447"><ele>2503.7</ele><time>2026-03-02T08:30:52.000Z</time></trkpt>
<trkpt lat="42.173249" lon="23.367447"><ele>2503.7</ele><time>2026-03-02T08:30:53.000Z</time></trkpt>
<trkpt lat="42.173249" lon="23.367447"><ele>2503.7</ele><time>2026-03-02T08:30:54.000Z</time></trkpt>
<trkpt lat="42.173249" lon="23.367447"><ele>2503.7</ele><time>2026-03-02T08:30:55.000Z</time></trkpt>
<trkpt lat="42.173249" lon="23.367447"><ele>2503.7</ele><time>2026-03-02T08:30:56.000Z</time></trkpt>
<trkpt lat="42.173251" lon="23.367448"><ele>2503.7</ele><time>2026-03-02T08:30:57.000Z</time></trkpt>
<trkpt lat="42.173252" lon="23.367449"><ele>2503.7</ele><time>2026-03-02T08:30:58.000Z</time></trkpt>
<trkpt lat="42.173253" lon="23.36745"><ele>2503.7</ele><time>2026-03-02T08:30:59.000Z</time></trkpt>
<trkpt lat="42.173254" lon="23.36745"><ele>2503.8</ele><time>2026-03-02T08:31:00.000Z</time></trkpt>
<trkpt lat="42.173255" lon="23.367452"><ele>2503.8</ele><time>2026-03-02T08:31:01.000Z</time></trkpt>
<trkpt lat="42.173255" lon="23.367452"><ele>2503.8</ele><time>2026-03-02T08:31:02.000Z</time></trkpt>
<trkpt lat="42.173256" lon="23.367452"><ele>2503.8</ele><time>2026-03-02T08:31:03.000Z</time></trkpt>
<trkpt lat="42.173257" lon="23.367454"><ele>2503.8</ele><time>2026-03-02T08:31:04.000Z</time></trkpt>
<trkpt lat="42.173258" lon="23.367455"><ele>2504</ele><time>2026-03-02T08:31:05.000Z</time></trkpt>
<trkpt lat="42.17326" lon="23.367456"><ele>2504</ele><time>2026-03-02T08:31:06.000Z</time></trkpt>
<trkpt lat="42.173263" lon="23.367457"><ele>2504</ele><time>2026-03-02T08:31:07.000Z</time></trkpt>
<trkpt lat="42.173265" lon="23.367457"><ele>2504</ele><time>2026-03-02T08:31:08.000Z</time></trkpt>
<trkpt lat="42.173267" lon="23.367458"><ele>2504</ele><time>2026-03-02T08:31:09.000Z</time></trkpt>
<trkpt lat="42.173268" lon="23.367458"><ele>2504</ele><time>2026-03-02T08:31:10.000Z</time></trkpt>
<trkpt lat="42.173269" lon="23.367458"><ele>2504</ele><time>2026-03-02T08:31:11.000Z</time></trkpt>
<trkpt lat="42.173269" lon="23.367458"><ele>2504</ele><time>2026-03-02T08:31:12.000Z</time></trkpt>
<trkpt lat="42.173269" lon="23.367458"><ele>2504</ele><time>2026-03-02T08:31:13.000Z</time></trkpt>
<trkpt lat="42.173269" lon="23.367458"><ele>2504</ele><time>2026-03-02T08:31:14.000Z</time></trkpt>
<trkpt lat="42.173269" lon="23.367458"><ele>2504.1</ele><time>2026-03-02T08:31:15.000Z</time></trkpt>
<trkpt lat="42.173269" lon="23.367458"><ele>2504.1</ele><time>2026-03-02T08:31:16.000Z</time></trkpt>
<trkpt lat="42.173269" lon="23.367458"><ele>2504.1</ele><time>2026-03-02T08:31:17.000Z</time></trkpt>
<trkpt lat="42.173269" lon="23.367458"><ele>2504.1</ele><time>2026-03-02T08:31:18.000Z</time></trkpt>
<trkpt lat="42.173269" lon="23.367458"><ele>2504.1</ele><time>2026-03-02T08:31:19.000Z</time></trkpt>
<trkpt lat="42.173269" lon="23.367458"><ele>2504.1</ele><time>2026-03-02T08:31:20.000Z</time></trkpt>
<trkpt lat="42.173269" lon="23.367458"><ele>2504.1</ele><time>2026-03-02T08:31:21.000Z</time></trkpt>
<trkpt lat="42.173269" lon="23.367458"><ele>2504.1</ele><time>2026-03-02T08:31:22.000Z</time></trkpt>
<trkpt lat="42.173269" lon="23.367458"><ele>2504.1</ele><time>2026-03-02T08:31:23.000Z</time></trkpt>
<trkpt lat="42.173269" lon="23.367458"><ele>2504.1</ele><time>2026-03-02T08:31:24.000Z</time></trkpt>
<trkpt lat="42.173269" lon="23.367458"><ele>2504.1</ele><time>2026-03-02T08:31:25.000Z</time></trkpt>
<trkpt lat="42.173269" lon="23.367458"><ele>2504.1</ele><time>2026-03-02T08:31:26.000Z</time></trkpt>
<trkpt lat="42.173269" lon="23.367458"><ele>2504.1</ele><time>2026-03-02T08:31:27.000Z</time></trkpt>
<trkpt lat="42.173269" lon="23.367458"><ele>2504.1</ele><time>2026-03-02T08:31:28.000Z</time></trkpt>
<trkpt lat="42.173269" lon="23.367458"><ele>2504.1</ele><time>2026-03-02T08:31:29.000Z</time></trkpt>
<trkpt lat="42.173269" lon="23.367458"><ele>2504.1</ele><time>2026-03-02T08:31:30.000Z</time></trkpt>
<trkpt lat="42.173269" lon="23.367458"><ele>2504.1</ele><time>2026-03-02T08:31:31.000Z</time></trkpt>
<trkpt lat="42.173269" lon="23.367459"><ele>2504.1</ele><time>2026-03-02T08:31:32.000Z</time></trkpt>
<trkpt lat="42.173268" lon="23.367459"><ele>2504.1</ele><time>2026-03-02T08:31:33.000Z</time></trkpt>
<trkpt lat="42.173268" lon="23.367459"><ele>2504.1</ele><time>2026-03-02T08:31:34.000Z</time></trkpt>
<trkpt lat="42.173268" lon="23.36746"><ele>2504.1</ele><time>2026-03-02T08:31:35.000Z</time></trkpt>
<trkpt lat="42.173268" lon="23.36746"><ele>2504.1</ele><time>2026-03-02T08:31:36.000Z</time></trkpt>
<trkpt lat="42.173267" lon="23.36746"><ele>2504.1</ele><time>2026-03-02T08:31:37.000Z</time></trkpt>
<trkpt lat="42.173266" lon="23.36746"><ele>2504.1</ele><time>2026-03-02T08:31:38.000Z</time></trkpt>
<trkpt lat="42.173266" lon="23.36746"><ele>2504.1</ele><time>2026-03-02T08:31:39.000Z</time></trkpt>
<trkpt lat="42.173266" lon="23.36746"><ele>2504.1</ele><time>2026-03-02T08:31:40.000Z</time></trkpt>
<trkpt lat="42.173266" lon="23.36746"><ele>2504.1</ele><time>2026-03-02T08:31:41.000Z</time></trkpt>
<trkpt lat="42.173266" lon="23.367459"><ele>2504.1</ele><time>2026-03-02T08:31:42.000Z</time></trkpt>
<trkpt lat="42.173266" lon="23.367459"><ele>2504.1</ele><time>2026-03-02T08:31:43.000Z</time></trkpt>
<trkpt lat="42.173266" lon="23.367459"><ele>2504.1</ele><time>2026-03-02T08:31:44.000Z</time></trkpt>
<trkpt lat="42.173265" lon="23.367459"><ele>2504.2</ele><time>2026-03-02T08:31:45.000Z</time></trkpt>
<trkpt lat="42.173265" lon="23.367459"><ele>2504.2</ele><time>2026-03-02T08:31:46.000Z</time></trkpt>
<trkpt lat="42.173265" lon="23.367458"><ele>2504.2</ele><time>2026-03-02T08:31:47.000Z</time></trkpt>
<trkpt lat="42.173265" lon="23.367457"><ele>2504.2</ele><time>2026-03-02T08:31:48.000Z</time></trkpt>
<trkpt lat="42.173265" lon="23.367457"><ele>2504.2</ele><time>2026-03-02T08:31:49.000Z</time></trkpt>
<trkpt lat="42.173265" lon="23.367456"><ele>2504.2</ele><time>2026-03-02T08:31:50.000Z</time></trkpt>
<trkpt lat="42.173265" lon="23.367455"><ele>2504.2</ele><time>2026-03-02T08:31:51.000Z</time></trkpt>
<trkpt lat="42.173265" lon="23.367455"><ele>2504.2</ele><time>2026-03-02T08:31:52.000Z</time></trkpt>
<trkpt lat="42.173265" lon="23.367455"><ele>2504.2</ele><time>2026-03-02T08:31:53.000Z</time></trkpt>
<trkpt lat="42.173265" lon="23.367455"><ele>2504.2</ele><time>2026-03-02T08:31:54.000Z</time></trkpt>
<trkpt lat="42.173265" lon="23.367456"><ele>2504.2</ele><time>2026-03-02T08:31:55.000Z</time></trkpt>
<trkpt lat="42.173264" lon="23.367456"><ele>2504.2</ele><time>2026-03-02T08:31:56.000Z</time></trkpt>
<trkpt lat="42.173264" lon="23.367456"><ele>2504.2</ele><time>2026-03-02T08:31:57.000Z</time></trkpt>
<trkpt lat="42.173264" lon="23.367457"><ele>2504.2</ele><time>2026-03-02T08:31:58.000Z</time></trkpt>
<trkpt lat="42.173264" lon="23.367458"><ele>2504.2</ele><time>2026-03-02T08:31:59.000Z</time></trkpt>
<trkpt lat="42.173264" lon="23.367458"><ele>2504.2</ele><time>2026-03-02T08:32:00.000Z</time></trkpt>
<trkpt lat="42.173264" lon="23.367459"><ele>2504.2</ele><time>2026-03-02T08:32:01.000Z</time></trkpt>
<trkpt lat="42.173265" lon="23.367459"><ele>2504.2</ele><time>2026-03-02T08:32:02.000Z</time></trkpt>
<trkpt lat="42.173265" lon="23.367458"><ele>2504.2</ele><time>2026-03-02T08:32:03.000Z</time></trkpt>
<trkpt lat="42.173265" lon="23.367458"><ele>2504.2</ele><time>2026-03-02T08:32:04.000Z</time></trkpt>
<trkpt lat="42.173265" lon="23.367458"><ele>2504.3</ele><time>2026-03-02T08:32:05.000Z</time></trkpt>
<trkpt lat="42.173264" lon="23.367459"><ele>2504.3</ele><time>2026-03-02T08:32:06.000Z</time></trkpt>
<trkpt lat="42.173264" lon="23.367459"><ele>2504.3</ele><time>2026-03-02T08:32:07.000Z</time></trkpt>
<trkpt lat="42.173264" lon="23.367459"><ele>2504.3</ele><time>2026-03-02T08:32:08.000Z</time></trkpt>
<trkpt lat="42.173264" lon="23.367459"><ele>2504.3</ele><time>2026-03-02T08:32:09.000Z</time></trkpt>
<trkpt lat="42.173264" lon="23.367459"><ele>2504.4</ele><time>2026-03-02T08:32:10.000Z</time></trkpt>
<trkpt lat="42.173264" lon="23.367459"><ele>2504.4</ele><time>2026-03-02T08:32:11.000Z</time></trkpt>
<trkpt lat="42.173264" lon="23.367459"><ele>2504.4</ele><time>2026-03-02T08:32:12.000Z</time></trkpt>
<trkpt lat="42.173264" lon="23.367459"><ele>2504.4</ele><time>2026-03-02T08:32:13.000Z</time></trkpt>
<trkpt lat="42.173264" lon="23.367459"><ele>2504.4</ele><time>2026-03-02T08:32:14.000Z</time></trkpt>
<trkpt lat="42.173264" lon="23.36746"><ele>2504.4</ele><time>2026-03-02T08:32:15.000Z</time></trkpt>
<trkpt lat="42.173264" lon="23.36746"><ele>2504.4</ele><time>2026-03-02T08:32:16.000Z</time></trkpt>
<trkpt lat="42.173264" lon="23.36746"><ele>2504.4</ele><time>2026-03-02T08:32:17.000Z</time></trkpt>
<trkpt lat="42.173264" lon="23.367461"><ele>2504.4</ele><time>2026-03-02T08:32:18.000Z</time></trkpt>
<trkpt lat="42.173264" lon="23.367461"><ele>2504.4</ele><time>2026-03-02T08:32:19.000Z</time></trkpt>
<trkpt lat="42.173264" lon="23.367461"><ele>2504.3</ele><time>2026-03-02T08:32:20.000Z</time></trkpt>
<trkpt lat="42.173264" lon="23.367461"><ele>2504.3</ele><time>2026-03-02T08:32:21.000Z</time></trkpt>
<trkpt lat="42.173263" lon="23.367462"><ele>2504.3</ele><time>2026-03-02T08:32:22.000Z</time></trkpt>
<trkpt lat="42.173263" lon="23.367462"><ele>2504.3</ele><time>2026-03-02T08:32:23.000Z</time></trkpt>
<trkpt lat="42.173262" lon="23.367462"><ele>2504.3</ele><time>2026-03-02T08:32:24.000Z</time></trkpt>
<trkpt lat="42.173262" lon="23.367462"><ele>2504.3</ele><time>2026-03-02T08:32:25.000Z</time></trkpt>
<trkpt lat="42.173262" lon="23.367461"><ele>2504.3</ele><time>2026-03-02T08:32:26.000Z</time></trkpt>
<trkpt lat="42.173262" lon="23.367461"><ele>2504.3</ele><time>2026-03-02T08:32:27.000Z</time></trkpt>
<trkpt lat="42.173262" lon="23.367461"><ele>2504.3</ele><time>2026-03-02T08:32:28.000Z</time></trkpt>
<trkpt lat="42.173262" lon="23.367461"><ele>2504.3</ele><time>2026-03-02T08:32:29.000Z</time></trkpt>
<trkpt lat="42.173262" lon="23.367461"><ele>2504.3</ele><time>2026-03-02T08:32:30.000Z</time></trkpt>
<trkpt lat="42.173262" lon="23.367461"><ele>2504.3</ele><time>2026-03-02T08:32:31.000Z</time></trkpt>
<trkpt lat="42.173262" lon="23.367462"><ele>2504.3</ele><time>2026-03-02T08:32:32.000Z</time></trkpt>
<trkpt lat="42.173261" lon="23.367462"><ele>2504.3</ele><time>2026-03-02T08:32:33.000Z</time></trkpt>
<trkpt lat="42.173261" lon="23.367463"><ele>2504.3</ele><time>2026-03-02T08:32:34.000Z</time></trkpt>
<trkpt lat="42.173261" lon="23.367463"><ele>2504.4</ele><time>2026-03-02T08:32:35.000Z</time></trkpt>
<trkpt lat="42.17326" lon="23.367464"><ele>2504.4</ele><time>2026-03-02T08:32:36.000Z</time></trkpt>
<trkpt lat="42.17326" lon="23.367464"><ele>2504.4</ele><time>2026-03-02T08:32:37.000Z</time></trkpt>
<trkpt lat="42.17326" lon="23.367464"><ele>2504.4</ele><time>2026-03-02T08:32:38.000Z</time></trkpt>
<trkpt lat="42.17326" lon="23.367464"><ele>2504.4</ele><time>2026-03-02T08:32:39.000Z</time></trkpt>
<trkpt lat="42.17326" lon="23.367465"><ele>2504.3</ele><time>2026-03-02T08:32:40.000Z</time></trkpt>
<trkpt lat="42.17326" lon="23.367465"><ele>2504.3</ele><time>2026-03-02T08:32:41.000Z</time></trkpt>
<trkpt lat="42.173259" lon="23.367465"><ele>2504.3</ele><time>2026-03-02T08:32:42.000Z</time></trkpt>
<trkpt lat="42.173259" lon="23.367465"><ele>2504.3</ele><time>2026-03-02T08:32:43.000Z</time></trkpt>
<trkpt lat="42.173259" lon="23.367465"><ele>2504.3</ele><time>2026-03-02T08:32:44.000Z</time></trkpt>
<trkpt lat="42.173259" lon="23.367465"><ele>2504.2</ele><time>2026-03-02T08:32:45.000Z</time></trkpt>
<trkpt lat="42.173259" lon="23.367465"><ele>2504.2</ele><time>2026-03-02T08:32:46.000Z</time></trkpt>
<trkpt lat="42.173259" lon="23.367465"><ele>2504.2</ele><time>2026-03-02T08:32:47.000Z</time></trkpt>
<trkpt lat="42.173259" lon="23.367465"><ele>2504.2</ele><time>2026-03-02T08:32:48.000Z</time></trkpt>
<trkpt lat="42.173259" lon="23.367466"><ele>2504.2</ele><time>2026-03-02T08:32:49.000Z</time></trkpt>
<trkpt lat="42.173259" lon="23.367466"><ele>2504</ele><time>2026-03-02T08:32:50.000Z</time></trkpt>
<trkpt lat="42.173259" lon="23.367466"><ele>2504</ele><time>2026-03-02T08:32:51.000Z</time></trkpt>
<trkpt lat="42.173259" lon="23.367466"><ele>2504</ele><time>2026-03-02T08:32:52.000Z</time></trkpt>
<trkpt lat="42.173258" lon="23.367467"><ele>2504</ele><time>2026-03-02T08:32:53.000Z</time></trkpt>
<trkpt lat="42.173258" lon="23.367467"><ele>2504</ele><time>2026-03-02T08:32:54.000Z</time></trkpt>
<trkpt lat="42.173258" lon="23.367467"><ele>2503.9</ele><time>2026-03-02T08:32:55.000Z</time></trkpt>
<trkpt lat="42.173258" lon="23.367467"><ele>2503.9</ele><time>2026-03-02T08:32:56.000Z</time></trkpt>
<trkpt lat="42.173258" lon="23.367467"><ele>2503.9</ele><time>2026-03-02T08:32:57.000Z</time></trkpt>
<trkpt lat="42.173258" lon="23.367467"><ele>2503.9</ele><time>2026-03-02T08:32:58.000Z</time></trkpt>
<trkpt lat="42.173258" lon="23.367467"><ele>2503.9</ele><time>2026-03-02T08:32:59.000Z</time></trkpt>
<trkpt lat="42.173258" lon="23.367467"><ele>2503.7</ele><time>2026-03-02T08:33:00.000Z</time></trkpt>
<trkpt lat="42.173258" lon="23.367467"><ele>2503.7</ele><time>2026-03-02T08:33:01.000Z</time></trkpt>
<trkpt lat="42.173259" lon="23.367466"><ele>2503.7</ele><time>2026-03-02T08:33:02.000Z</time></trkpt>
<trkpt lat="42.173259" lon="23.367466"><ele>2503.7</ele><time>2026-03-02T08:33:03.000Z</time></trkpt>
<trkpt lat="42.17326" lon="23.367466"><ele>2503.7</ele><time>2026-03-02T08:33:04.000Z</time></trkpt>
<trkpt lat="42.173261" lon="23.367467"><ele>2503.8</ele><time>2026-03-02T08:33:05.000Z</time></trkpt>
<trkpt lat="42.173262" lon="23.367467"><ele>2503.8</ele><time>2026-03-02T08:33:06.000Z</time></trkpt>
<trkpt lat="42.173263" lon="23.367468"><ele>2503.8</ele><time>2026-03-02T08:33:07.000Z</time></trkpt>
<trkpt lat="42.173264" lon="23.367468"><ele>2503.8</ele><time>2026-03-02T08:33:08.000Z</time></trkpt>
<trkpt lat="42.173265" lon="23.367465"><ele>2503.8</ele><time>2026-03-02T08:33:09.000Z</time></trkpt>
<trkpt lat="42.173267" lon="23.367463"><ele>2503.8</ele><time>2026-03-02T08:33:10.000Z</time></trkpt>
<trkpt lat="42.173268" lon="23.367461"><ele>2503.8</ele><time>2026-03-02T08:33:11.000Z</time></trkpt>
<trkpt lat="42.173269" lon="23.36746"><ele>2503.8</ele><time>2026-03-02T08:33:12.000Z</time></trkpt>
<trkpt lat="42.173269" lon="23.367459"><ele>2503.8</ele><time>2026-03-02T08:33:13.000Z</time></trkpt>
<trkpt lat="42.173269" lon="23.36746"><ele>2503.8</ele><time>2026-03-02T08:33:14.000Z</time></trkpt>
<trkpt lat="42.173269" lon="23.367461"><ele>2503.8</ele><time>2026-03-02T08:33:15.000Z</time></trkpt>
<trkpt lat="42.173268" lon="23.367462"><ele>2503.8</ele><time>2026-03-02T08:33:16.000Z</time></trkpt>
<trkpt lat="42.173268" lon="23.367461"><ele>2503.8</ele><time>2026-03-02T08:33:17.000Z</time></trkpt>
<trkpt lat="42.173269" lon="23.367461"><ele>2503.8</ele><time>2026-03-02T08:33:18.000Z</time></trkpt>
<trkpt lat="42.173269" lon="23.367461"><ele>2503.8</ele><time>2026-03-02T08:33:19.000Z</time></trkpt>
<trkpt lat="42.173268" lon="23.367461"><ele>2503.8</ele><time>2026-03-02T08:33:20.000Z</time></trkpt>
<trkpt lat="42.173268" lon="23.367462"><ele>2503.8</ele><time>2026-03-02T08:33:21.000Z</time></trkpt>
<trkpt lat="42.173268" lon="23.367463"><ele>2503.8</ele><time>2026-03-02T08:33:22.000Z</time></trkpt>
<trkpt lat="42.173267" lon="23.367463"><ele>2503.8</ele><time>2026-03-02T08:33:23.000Z</time></trkpt>
<trkpt lat="42.173267" lon="23.367463"><ele>2503.8</ele><time>2026-03-02T08:33:24.000Z</time></trkpt>
<trkpt lat="42.173266" lon="23.367462"><ele>2503.9</ele><time>2026-03-02T08:33:25.000Z</time></trkpt>
<trkpt lat="42.173265" lon="23.367462"><ele>2503.9</ele><time>2026-03-02T08:33:26.000Z</time></trkpt>
<trkpt lat="42.173264" lon="23.367461"><ele>2503.9</ele><time>2026-03-02T08:33:27.000Z</time></trkpt>
<trkpt lat="42.173264" lon="23.36746"><ele>2503.9</ele><time>2026-03-02T08:33:28.000Z</time></trkpt>
<trkpt lat="42.173263" lon="23.367459"><ele>2503.9</ele><time>2026-03-02T08:33:29.000Z</time></trkpt>
<trkpt lat="42.173263" lon="23.367459"><ele>2504</ele><time>2026-03-02T08:33:30.000Z</time></trkpt>
<trkpt lat="42.173263" lon="23.367459"><ele>2504</ele><time>2026-03-02T08:33:31.000Z</time></trkpt>
<trkpt lat="42.173263" lon="23.367458"><ele>2504</ele><time>2026-03-02T08:33:32.000Z</time></trkpt>
<trkpt lat="42.173263" lon="23.367459"><ele>2504</ele><time>2026-03-02T08:33:33.000Z</time></trkpt>
<trkpt lat="42.173263" lon="23.367459"><ele>2504</ele><time>2026-03-02T08:33:34.000Z</time></trkpt>
<trkpt lat="42.173263" lon="23.367459"><ele>2504.2</ele><time>2026-03-02T08:33:35.000Z</time></trkpt>
<trkpt lat="42.173263" lon="23.367459"><ele>2504.2</ele><time>2026-03-02T08:33:36.000Z</time></trkpt>
<trkpt lat="42.173263" lon="23.367459"><ele>2504.2</ele><time>2026-03-02T08:33:37.000Z</time></trkpt>
<trkpt lat="42.173263" lon="23.367459"><ele>2504.2</ele><time>2026-03-02T08:33:38.000Z</time></trkpt>
<trkpt lat="42.173263" lon="23.367459"><ele>2504.2</ele><time>2026-03-02T08:33:39.000Z</time></trkpt>
<trkpt lat="42.173263" lon="23.36746"><ele>2504.2</ele><time>2026-03-02T08:33:40.000Z</time></trkpt>
<trkpt lat="42.173263" lon="23.36746"><ele>2504.2</ele><time>2026-03-02T08:33:41.000Z</time></trkpt>
<trkpt lat="42.173263" lon="23.36746"><ele>2504.2</ele><time>2026-03-02T08:33:42.000Z</time></trkpt>
<trkpt lat="42.173262" lon="23.367461"><ele>2504.2</ele><time>2026-03-02T08:33:43.000Z</time></trkpt>
<trkpt lat="42.173262" lon="23.367462"><ele>2504.2</ele><time>2026-03-02T08:33:44.000Z</time></trkpt>
<trkpt lat="42.173261" lon="23.367462"><ele>2504.1</ele><time>2026-03-02T08:33:45.000Z</time></trkpt>
<trkpt lat="42.173261" lon="23.367463"><ele>2504.1</ele><time>2026-03-02T08:33:46.000Z</time></trkpt>
<trkpt lat="42.173261" lon="23.367463"><ele>2504.1</ele><time>2026-03-02T08:33:47.000Z</time></trkpt>
<trkpt lat="42.173261" lon="23.367463"><ele>2504.1</ele><time>2026-03-02T08:33:48.000Z</time></trkpt>
<trkpt lat="42.173261" lon="23.367462"><ele>2504.1</ele><time>2026-03-02T08:33:49.000Z</time></trkpt>
<trkpt lat="42.173261" lon="23.367461"><ele>2504.1</ele><time>2026-03-02T08:33:50.000Z</time></trkpt>
<trkpt lat="42.173262" lon="23.367459"><ele>2504.1</ele><time>2026-03-02T08:33:51.000Z</time></trkpt>
<trkpt lat="42.173262" lon="23.367458"><ele>2504.1</ele><time>2026-03-02T08:33:52.000Z</time></trkpt>
<trkpt lat="42.173262" lon="23.367456"><ele>2504.1</ele><time>2026-03-02T08:33:53.000Z</time></trkpt>
<trkpt lat="42.173262" lon="23.367455"><ele>2504.1</ele><time>2026-03-02T08:33:54.000Z</time></trkpt>
<trkpt lat="42.173262" lon="23.367454"><ele>2504.1</ele><time>2026-03-02T08:33:55.000Z</time></trkpt>
<trkpt lat="42.173262" lon="23.367454"><ele>2504.1</ele><time>2026-03-02T08:33:56.000Z</time></trkpt>
<trkpt lat="42.173262" lon="23.367454"><ele>2504.1</ele><time>2026-03-02T08:33:57.000Z</time></trkpt>
<trkpt lat="42.173262" lon="23.367453"><ele>2504.1</ele><time>2026-03-02T08:33:58.000Z</time></trkpt>
<trkpt lat="42.173261" lon="23.367453"><ele>2504.1</ele><time>2026-03-02T08:33:59.000Z</time></trkpt>
<trkpt lat="42.173261" lon="23.367453"><ele>2504.1</ele><time>2026-03-02T08:34:00.000Z</time></trkpt>
<trkpt lat="42.173261" lon="23.367454"><ele>2504.1</ele><time>2026-03-02T08:34:01.000Z</time></trkpt>
<trkpt lat="42.17326" lon="23.367454"><ele>2504.1</ele><time>2026-03-02T08:34:02.000Z</time></trkpt>
<trkpt lat="42.17326" lon="23.367455"><ele>2504.1</ele><time>2026-03-02T08:34:03.000Z</time></trkpt>
<trkpt lat="42.173259" lon="23.367456"><ele>2504.1</ele><time>2026-03-02T08:34:04.000Z</time></trkpt>
<trkpt lat="42.173259" lon="23.367456"><ele>2504</ele><time>2026-03-02T08:34:05.000Z</time></trkpt>
<trkpt lat="42.173258" lon="23.367457"><ele>2504</ele><time>2026-03-02T08:34:06.000Z</time></trkpt>
<trkpt lat="42.173258" lon="23.367457"><ele>2504</ele><time>2026-03-02T08:34:07.000Z</time></trkpt>
<trkpt lat="42.173258" lon="23.367457"><ele>2504</ele><time>2026-03-02T08:34:08.000Z</time></trkpt>
<trkpt lat="42.173258" lon="23.367457"><ele>2504</ele><time>2026-03-02T08:34:09.000Z</time></trkpt>
<trkpt lat="42.173258" lon="23.367458"><ele>2503.9</ele><time>2026-03-02T08:34:10.000Z</time></trkpt>
<trkpt lat="42.173258" lon="23.367458"><ele>2503.9</ele><time>2026-03-02T08:34:11.000Z</time></trkpt>
<trkpt lat="42.173258" lon="23.367458"><ele>2503.9</ele><time>2026-03-02T08:34:12.000Z</time></trkpt>
<trkpt lat="42.173258" lon="23.367459"><ele>2503.9</ele><time>2026-03-02T08:34:13.000Z</time></trkpt>
<trkpt lat="42.173258" lon="23.367459"><ele>2503.9</ele><time>2026-03-02T08:34:14.000Z</time></trkpt>
<trkpt lat="42.173258" lon="23.367459"><ele>2503.8</ele><time>2026-03-02T08:34:15.000Z</time></trkpt>
<trkpt lat="42.173258" lon="23.367458"><ele>2503.8</ele><time>2026-03-02T08:34:16.000Z</time></trkpt>
<trkpt lat="42.173258" lon="23.367457"><ele>2503.8</ele><time>2026-03-02T08:34:17.000Z</time></trkpt>
<trkpt lat="42.173258" lon="23.367456"><ele>2503.8</ele><time>2026-03-02T08:34:18.000Z</time></trkpt>
<trkpt lat="42.173259" lon="23.367455"><ele>2503.8</ele><time>2026-03-02T08:34:19.000Z</time></trkpt>
<trkpt lat="42.173259" lon="23.367454"><ele>2503.9</ele><time>2026-03-02T08:34:20.000Z</time></trkpt>
<trkpt lat="42.17326" lon="23.367454"><ele>2503.9</ele><time>2026-03-02T08:34:21.000Z</time></trkpt>
<trkpt lat="42.17326" lon="23.367454"><ele>2503.9</ele><time>2026-03-02T08:34:22.000Z</time></trkpt>
<trkpt lat="42.17326" lon="23.367454"><ele>2503.9</ele><time>2026-03-02T08:34:23.000Z</time></trkpt>
<trkpt lat="42.17326" lon="23.367454"><ele>2503.9</ele><time>2026-03-02T08:34:24.000Z</time></trkpt>
<trkpt lat="42.17326" lon="23.367454"><ele>2504</ele><time>2026-03-02T08:34:25.000Z</time></trkpt>
<trkpt lat="42.17326" lon="23.367454"><ele>2504</ele><time>2026-03-02T08:34:26.000Z</time></trkpt>
<trkpt lat="42.17326" lon="23.367454"><ele>2504</ele><time>2026-03-02T08:34:27.000Z</time></trkpt>
<trkpt lat="42.17326" lon="23.367454"><ele>2504</ele><time>2026-03-02T08:34:28.000Z</time></trkpt>
<trkpt lat="42.17326" lon="23.367454"><ele>2504</ele><time>2026-03-02T08:34:29.000Z</time></trkpt>
<trkpt lat="42.17326" lon="23.367454"><ele>2504.2</ele><time>2026-03-02T08:34:30.000Z</time></trkpt>
<trkpt lat="42.173261" lon="23.367454"><ele>2504.2</ele><time>2026-03-02T08:34:31.000Z</time></trkpt>
<trkpt lat="42.173261" lon="23.367453"><ele>2504.2</ele><time>2026-03-02T08:34:32.000Z</time></trkpt>
<trkpt lat="42.173261" lon="23.367453"><ele>2504.2</ele><time>2026-03-02T08:34:33.000Z</time></trkpt>
<trkpt lat="42.173262" lon="23.367453"><ele>2504.2</ele><time>2026-03-02T08:34:34.000Z</time></trkpt>
<trkpt lat="42.173262" lon="23.367453"><ele>2504.3</ele><time>2026-03-02T08:34:35.000Z</time></trkpt>
<trkpt lat="42.173262" lon="23.367454"><ele>2504.3</ele><time>2026-03-02T08:34:36.000Z</time></trkpt>
<trkpt lat="42.173262" lon="23.367454"><ele>2504.3</ele><time>2026-03-02T08:34:37.000Z</time></trkpt>
<trkpt lat="42.173262" lon="23.367454"><ele>2504.3</ele><time>2026-03-02T08:34:38.000Z</time></trkpt>
<trkpt lat="42.173262" lon="23.367455"><ele>2504.3</ele><time>2026-03-02T08:34:39.000Z</time></trkpt>
<trkpt lat="42.173262" lon="23.367455"><ele>2504.4</ele><time>2026-03-02T08:34:40.000Z</time></trkpt>
<trkpt lat="42.173262" lon="23.367454"><ele>2504.4</ele><time>2026-03-02T08:34:41.000Z</time></trkpt>
<trkpt lat="42.173263" lon="23.367454"><ele>2504.4</ele><time>2026-03-02T08:34:42.000Z</time></trkpt>
<trkpt lat="42.173263" lon="23.367454"><ele>2504.4</ele><time>2026-03-02T08:34:43.000Z</time></trkpt>
<trkpt lat="42.173263" lon="23.367454"><ele>2504.4</ele><time>2026-03-02T08:34:44.000Z</time></trkpt>
<trkpt lat="42.173263" lon="23.367453"><ele>2504.5</ele><time>2026-03-02T08:34:45.000Z</time></trkpt>
<trkpt lat="42.173263" lon="23.367453"><ele>2504.5</ele><time>2026-03-02T08:34:46.000Z</time></trkpt>
<trkpt lat="42.173264" lon="23.367453"><ele>2504.5</ele><time>2026-03-02T08:34:47.000Z</time></trkpt>
<trkpt lat="42.173264" lon="23.367453"><ele>2504.5</ele><time>2026-03-02T08:34:48.000Z</time></trkpt>
<trkpt lat="42.173265" lon="23.367453"><ele>2504.5</ele><time>2026-03-02T08:34:49.000Z</time></trkpt>
<trkpt lat="42.173264" lon="23.367452"><ele>2504.6</ele><time>2026-03-02T08:34:50.000Z</time></trkpt>
<trkpt lat="42.173262" lon="23.367451"><ele>2504.6</ele><time>2026-03-02T08:34:51.000Z</time></trkpt>
<trkpt lat="42.17326" lon="23.367449"><ele>2504.6</ele><time>2026-03-02T08:34:52.000Z</time></trkpt>
<trkpt lat="42.173258" lon="23.36745"><ele>2504.6</ele><time>2026-03-02T08:34:53.000Z</time></trkpt>
<trkpt lat="42.173255" lon="23.367449"><ele>2504.6</ele><time>2026-03-02T08:34:54.000Z</time></trkpt>
<trkpt lat="42.173254" lon="23.36745"><ele>2504.6</ele><time>2026-03-02T08:34:55.000Z</time></trkpt>
<trkpt lat="42.173253" lon="23.367451"><ele>2504.6</ele><time>2026-03-02T08:34:56.000Z</time></trkpt>
<trkpt lat="42.173252" lon="23.367452"><ele>2504.6</ele><time>2026-03-02T08:34:57.000Z</time></trkpt>
<trkpt lat="42.173252" lon="23.367452"><ele>2504.6</ele><time>2026-03-02T08:34:58.000Z</time></trkpt>
<trkpt lat="42.173251" lon="23.367454"><ele>2504.6</ele><time>2026-03-02T08:34:59.000Z</time></trkpt>
<trkpt lat="42.17325" lon="23.367455"><ele>2504.6</ele><time>2026-03-02T08:35:00.000Z</time></trkpt>
<trkpt lat="42.173249" lon="23.367457"><ele>2504.6</ele><time>2026-03-02T08:35:01.000Z</time></trkpt>
<trkpt lat="42.173247" lon="23.367459"><ele>2504.6</ele><time>2026-03-02T08:35:02.000Z</time></trkpt>
<trkpt lat="42.173246" lon="23.36746"><ele>2504.6</ele><time>2026-03-02T08:35:03.000Z</time></trkpt>
<trkpt lat="42.173245" lon="23.36746"><ele>2504.6</ele><time>2026-03-02T08:35:04.000Z</time></trkpt>
<trkpt lat="42.173244" lon="23.36746"><ele>2504.8</ele><time>2026-03-02T08:35:05.000Z</time></trkpt>
<trkpt lat="42.173244" lon="23.367459"><ele>2504.8</ele><time>2026-03-02T08:35:06.000Z</time></trkpt>
<trkpt lat="42.173243" lon="23.367459"><ele>2504.8</ele><time>2026-03-02T08:35:07.000Z</time></trkpt>
<trkpt lat="42.173243" lon="23.367459"><ele>2504.8</ele><time>2026-03-02T08:35:08.000Z</time></trkpt>
<trkpt lat="42.173243" lon="23.367459"><ele>2504.8</ele><time>2026-03-02T08:35:09.000Z</time></trkpt>
<trkpt lat="42.173243" lon="23.367458"><ele>2505</ele><time>2026-03-02T08:35:10.000Z</time></trkpt>
<trkpt lat="42.173242" lon="23.367457"><ele>2505</ele><time>2026-03-02T08:35:11.000Z</time></trkpt>
<trkpt lat="42.173242" lon="23.367457"><ele>2505</ele><time>2026-03-02T08:35:12.000Z</time></trkpt>
<trkpt lat="42.173242" lon="23.367456"><ele>2505</ele><time>2026-03-02T08:35:13.000Z</time></trkpt>
<trkpt lat="42.173242" lon="23.367455"><ele>2505</ele><time>2026-03-02T08:35:14.000Z</time></trkpt>
<trkpt lat="42.173242" lon="23.367455"><ele>2505.3</ele><time>2026-03-02T08:35:15.000Z</time></trkpt>
<trkpt lat="42.173242" lon="23.367455"><ele>2505.3</ele><time>2026-03-02T08:35:16.000Z</time></trkpt>
<trkpt lat="42.173242" lon="23.367455"><ele>2505.3</ele><time>2026-03-02T08:35:17.000Z</time></trkpt>
<trkpt lat="42.173242" lon="23.367455"><ele>2505.3</ele><time>2026-03-02T08:35:18.000Z</time></trkpt>
<trkpt lat="42.173244" lon="23.367453"><ele>2505.3</ele><time>2026-03-02T08:35:19.000Z</time></trkpt>
<trkpt lat="42.173246" lon="23.367451"><ele>2505.1</ele><time>2026-03-02T08:35:20.000Z</time></trkpt>
<trkpt lat="42.173248" lon="23.36745"><ele>2505.1</ele><time>2026-03-02T08:35:21.000Z</time></trkpt>
<trkpt lat="42.173251" lon="23.36745"><ele>2505.1</ele><time>2026-03-02T08:35:22.000Z</time></trkpt>
<trkpt lat="42.173254" lon="23.367449"><ele>2505.1</ele><time>2026-03-02T08:35:23.000Z</time></trkpt>
<trkpt lat="42.173256" lon="23.36745"><ele>2505.1</ele><time>2026-03-02T08:35:24.000Z</time></trkpt>
<trkpt lat="42.173258" lon="23.367451"><ele>2504.9</ele><time>2026-03-02T08:35:25.000Z</time></trkpt>
<trkpt lat="42.17326" lon="23.367451"><ele>2504.9</ele><time>2026-03-02T08:35:26.000Z</time></trkpt>
<trkpt lat="42.173261" lon="23.367451"><ele>2504.9</ele><time>2026-03-02T08:35:27.000Z</time></trkpt>
<trkpt lat="42.173262" lon="23.367451"><ele>2504.9</ele><time>2026-03-02T08:35:28.000Z</time></trkpt>
<trkpt lat="42.173263" lon="23.367452"><ele>2504.9</ele><time>2026-03-02T08:35:29.000Z</time></trkpt>
<trkpt lat="42.173263" lon="23.367453"><ele>2504.7</ele><time>2026-03-02T08:35:30.000Z</time></trkpt>
<trkpt lat="42.173264" lon="23.367453"><ele>2504.7</ele><time>2026-03-02T08:35:31.000Z</time></trkpt>
<trkpt lat="42.173265" lon="23.367454"><ele>2504.7</ele><time>2026-03-02T08:35:32.000Z</time></trkpt>
<trkpt lat="42.173266" lon="23.367454"><ele>2504.7</ele><time>2026-03-02T08:35:33.000Z</time></trkpt>
<trkpt lat="42.173267" lon="23.367454"><ele>2504.7</ele><time>2026-03-02T08:35:34.000Z</time></trkpt>
<trkpt lat="42.173268" lon="23.367454"><ele>2504.8</ele><time>2026-03-02T08:35:35.000Z</time></trkpt>
<trkpt lat="42.173267" lon="23.367454"><ele>2504.8</ele><time>2026-03-02T08:35:36.000Z</time></trkpt>
<trkpt lat="42.173266" lon="23.367455"><ele>2504.8</ele><time>2026-03-02T08:35:37.000Z</time></trkpt>
<trkpt lat="42.173265" lon="23.367455"><ele>2504.8</ele><time>2026-03-02T08:35:38.000Z</time></trkpt>
<trkpt lat="42.173265" lon="23.367456"><ele>2504.8</ele><time>2026-03-02T08:35:39.000Z</time></trkpt>
<trkpt lat="42.173264" lon="23.367454"><ele>2504.9</ele><time>2026-03-02T08:35:40.000Z</time></trkpt>
<trkpt lat="42.173263" lon="23.367449"><ele>2504.9</ele><time>2026-03-02T08:35:41.000Z</time></trkpt>
<trkpt lat="42.173265" lon="23.367441"><ele>2504.9</ele><time>2026-03-02T08:35:42.000Z</time></trkpt>
<trkpt lat="42.173268" lon="23.367431"><ele>2504.9</ele><time>2026-03-02T08:35:43.000Z</time></trkpt>
<trkpt lat="42.173271" lon="23.367417"><ele>2504.9</ele><time>2026-03-02T08:35:44.000Z</time></trkpt>
<trkpt lat="42.173275" lon="23.367402"><ele>2505.1</ele><time>2026-03-02T08:35:45.000Z</time></trkpt>
<trkpt lat="42.173278" lon="23.367386"><ele>2505.1</ele><time>2026-03-02T08:35:46.000Z</time></trkpt>
<trkpt lat="42.173279" lon="23.36737"><ele>2505.1</ele><time>2026-03-02T08:35:47.000Z</time></trkpt>
<trkpt lat="42.173279" lon="23.367355"><ele>2505.1</ele><time>2026-03-02T08:35:48.000Z</time></trkpt>
<trkpt lat="42.173278" lon="23.36734"><ele>2505.1</ele><time>2026-03-02T08:35:49.000Z</time></trkpt>
<trkpt lat="42.173278" lon="23.367325"><ele>2505.4</ele><time>2026-03-02T08:35:50.000Z</time></trkpt>
<trkpt lat="42.173279" lon="23.367311"><ele>2505.4</ele><time>2026-03-02T08:35:51.000Z</time></trkpt>
<trkpt lat="42.17328" lon="23.367298"><ele>2505.4</ele><time>2026-03-02T08:35:52.000Z</time></trkpt>
<trkpt lat="42.173282" lon="23.367287"><ele>2505.4</ele><time>2026-03-02T08:35:53.000Z</time></trkpt>
<trkpt lat="42.173284" lon="23.367275"><ele>2505.4</ele><time>2026-03-02T08:35:54.000Z</time></trkpt>
<trkpt lat="42.173285" lon="23.367264"><ele>2505.7</ele><time>2026-03-02T08:35:55.000Z</time></trkpt>
<trkpt lat="42.173285" lon="23.367255"><ele>2505.7</ele><time>2026-03-02T08:35:56.000Z</time></trkpt>
<trkpt lat="42.173287" lon="23.367244"><ele>2505.7</ele><time>2026-03-02T08:35:57.000Z</time></trkpt>
<trkpt lat="42.173289" lon="23.367234"><ele>2505.7</ele><time>2026-03-02T08:35:58.000Z</time></trkpt>
<trkpt lat="42.173291" lon="23.367225"><ele>2505.7</ele><time>2026-03-02T08:35:59.000Z</time></trkpt>
<trkpt lat="42.173293" lon="23.367216"><ele>2506.3</ele><time>2026-03-02T08:36:00.000Z</time></trkpt>
<trkpt lat="42.173296" lon="23.367206"><ele>2506.3</ele><time>2026-03-02T08:36:01.000Z</time></trkpt>
<trkpt lat="42.173298" lon="23.367198"><ele>2506.3</ele><time>2026-03-02T08:36:02.000Z</time></trkpt>
<trkpt lat="42.173301" lon="23.367189"><ele>2506.3</ele><time>2026-03-02T08:36:03.000Z</time></trkpt>
<trkpt lat="42.173304" lon="23.367181"><ele>2506.3</ele><time>2026-03-02T08:36:04.000Z</time></trkpt>
<trkpt lat="42.173307" lon="23.367174"><ele>2507.2</ele><time>2026-03-02T08:36:05.000Z</time></trkpt>
<trkpt lat="42.173311" lon="23.367166"><ele>2507.2</ele><time>2026-03-02T08:36:06.000Z</time></trkpt>
<trkpt lat="42.173315" lon="23.367158"><ele>2507.2</ele><time>2026-03-02T08:36:07.000Z</time></trkpt>
<trkpt lat="42.173318" lon="23.367149"><ele>2507.2</ele><time>2026-03-02T08:36:08.000Z</time></trkpt>
<trkpt lat="42.173321" lon="23.367141"><ele>2507.2</ele><time>2026-03-02T08:36:09.000Z</time></trkpt>
<trkpt lat="42.173324" lon="23.367133"><ele>2507.7</ele><time>2026-03-02T08:36:10.000Z</time></trkpt>
<trkpt lat="42.173325" lon="23.367128"><ele>2507.7</ele><time>2026-03-02T08:36:11.000Z</time></trkpt>
<trkpt lat="42.173326" lon="23.367123"><ele>2507.7</ele><time>2026-03-02T08:36:12.000Z</time></trkpt>
<trkpt lat="42.173327" lon="23.367118"><ele>2507.7</ele><time>2026-03-02T08:36:13.000Z</time></trkpt>
<trkpt lat="42.17333" lon="23.367114"><ele>2507.7</ele><time>2026-03-02T08:36:14.000Z</time></trkpt>
<trkpt lat="42.173333" lon="23.367109"><ele>2508.9</ele><time>2026-03-02T08:36:15.000Z</time></trkpt>
<trkpt lat="42.173336" lon="23.367102"><ele>2508.9</ele><time>2026-03-02T08:36:16.000Z</time></trkpt>
<trkpt lat="42.173339" lon="23.367095"><ele>2508.9</ele><time>2026-03-02T08:36:17.000Z</time></trkpt>
<trkpt lat="42.173341" lon="23.367086"><ele>2508.9</ele><time>2026-03-02T08:36:18.000Z</time></trkpt>
<trkpt lat="42.173341" lon="23.367078"><ele>2508.9</ele><time>2026-03-02T08:36:19.000Z</time></trkpt>
<trkpt lat="42.17334" lon="23.36707"><ele>2510.2</ele><time>2026-03-02T08:36:20.000Z</time></trkpt>
<trkpt lat="42.173338" lon="23.367061"><ele>2510.2</ele><time>2026-03-02T08:36:21.000Z</time></trkpt>
<trkpt lat="42.173336" lon="23.367054"><ele>2510.2</ele><time>2026-03-02T08:36:22.000Z</time></trkpt>
<trkpt lat="42.173334" lon="23.367047"><ele>2510.2</ele><time>2026-03-02T08:36:23.000Z</time></trkpt>
<trkpt lat="42.173334" lon="23.36704"><ele>2510.2</ele><time>2026-03-02T08:36:24.000Z</time></trkpt>
<trkpt lat="42.173334" lon="23.367034"><ele>2510.8</ele><time>2026-03-02T08:36:25.000Z</time></trkpt>
<trkpt lat="42.173335" lon="23.367029"><ele>2510.8</ele><time>2026-03-02T08:36:26.000Z</time></trkpt>
<trkpt lat="42.173335" lon="23.367024"><ele>2510.8</ele><time>2026-03-02T08:36:27.000Z</time></trkpt>
<trkpt lat="42.173335" lon="23.367019"><ele>2510.8</ele><time>2026-03-02T08:36:28.000Z</time></trkpt>
<trkpt lat="42.173336" lon="23.367013"><ele>2510.8</ele><time>2026-03-02T08:36:29.000Z</time></trkpt>
<trkpt lat="42.173336" lon="23.367006"><ele>2511.9</ele><time>2026-03-02T08:36:30.000Z</time></trkpt>
<trkpt lat="42.173336" lon="23.366998"><ele>2511.9</ele><time>2026-03-02T08:36:31.000Z</time></trkpt>
<trkpt lat="42.173336" lon="23.366991"><ele>2511.9</ele><time>2026-03-02T08:36:32.000Z</time></trkpt>
<trkpt lat="42.173336" lon="23.366983"><ele>2511.9</ele><time>2026-03-02T08:36:33.000Z</time></trkpt>
<trkpt lat="42.173335" lon="23.366977"><ele>2511.9</ele><time>2026-03-02T08:36:34.000Z</time></trkpt>
<trkpt lat="42.173335" lon="23.36697"><ele>2512.9</ele><time>2026-03-02T08:36:35.000Z</time></trkpt>
<trkpt lat="42.173335" lon="23.366964"><ele>2512.9</ele><time>2026-03-02T08:36:36.000Z</time></trkpt>
<trkpt lat="42.173336" lon="23.366957"><ele>2512.9</ele><time>2026-03-02T08:36:37.000Z</time></trkpt>
<trkpt lat="42.173336" lon="23.366951"><ele>2512.9</ele><time>2026-03-02T08:36:38.000Z</time></trkpt>
<trkpt lat="42.173336" lon="23.366947"><ele>2512.9</ele><time>2026-03-02T08:36:39.000Z</time></trkpt>
<trkpt lat="42.173337" lon="23.366942"><ele>2513.4</ele><time>2026-03-02T08:36:40.000Z</time></trkpt>
<trkpt lat="42.173337" lon="23.366939"><ele>2513.4</ele><time>2026-03-02T08:36:41.000Z</time></trkpt>
<trkpt lat="42.173338" lon="23.366936"><ele>2513.4</ele><time>2026-03-02T08:36:42.000Z</time></trkpt>
<trkpt lat="42.173338" lon="23.366932"><ele>2513.4</ele><time>2026-03-02T08:36:43.000Z</time></trkpt>
<trkpt lat="42.173337" lon="23.366927"><ele>2513.4</ele><time>2026-03-02T08:36:44.000Z</time></trkpt>
<trkpt lat="42.173337" lon="23.366923"><ele>2514.8</ele><time>2026-03-02T08:36:45.000Z</time></trkpt>
<trkpt lat="42.173336" lon="23.366918"><ele>2514.8</ele><time>2026-03-02T08:36:46.000Z</time></trkpt>
<trkpt lat="42.173336" lon="23.366912"><ele>2514.8</ele><time>2026-03-02T08:36:47.000Z</time></trkpt>
<trkpt lat="42.173337" lon="23.366907"><ele>2514.8</ele><time>2026-03-02T08:36:48.000Z</time></trkpt>
<trkpt lat="42.173338" lon="23.366902"><ele>2514.8</ele><time>2026-03-02T08:36:49.000Z</time></trkpt>
<trkpt lat="42.173339" lon="23.366898"><ele>2516.3</ele><time>2026-03-02T08:36:50.000Z</time></trkpt>
<trkpt lat="42.17334" lon="23.366892"><ele>2516.3</ele><time>2026-03-02T08:36:51.000Z</time></trkpt>
<trkpt lat="42.173341" lon="23.366887"><ele>2516.3</ele><time>2026-03-02T08:36:52.000Z</time></trkpt>
<trkpt lat="42.173342" lon="23.366881"><ele>2516.3</ele><time>2026-03-02T08:36:53.000Z</time></trkpt>
<trkpt lat="42.173343" lon="23.366875"><ele>2516.3</ele><time>2026-03-02T08:36:54.000Z</time></trkpt>
<trkpt lat="42.173341" lon="23.36687"><ele>2517</ele><time>2026-03-02T08:36:55.000Z</time></trkpt>
<trkpt lat="42.17334" lon="23.366866"><ele>2517</ele><time>2026-03-02T08:36:56.000Z</time></trkpt>
<trkpt lat="42.173338" lon="23.366862"><ele>2517</ele><time>2026-03-02T08:36:57.000Z</time></trkpt>
<trkpt lat="42.173337" lon="23.366857"><ele>2517</ele><time>2026-03-02T08:36:58.000Z</time></trkpt>
<trkpt lat="42.173336" lon="23.366853"><ele>2517</ele><time>2026-03-02T08:36:59.000Z</time></trkpt>
<trkpt lat="42.173336" lon="23.366848"><ele>2518.1</ele><time>2026-03-02T08:37:00.000Z</time></trkpt>
<trkpt lat="42.173336" lon="23.366844"><ele>2518.1</ele><time>2026-03-02T08:37:01.000Z</time></trkpt>
<trkpt lat="42.173337" lon="23.366839"><ele>2518.1</ele><time>2026-03-02T08:37:02.000Z</time></trkpt>
<trkpt lat="42.173337" lon="23.366836"><ele>2518.1</ele><time>2026-03-02T08:37:03.000Z</time></trkpt>
<trkpt lat="42.173338" lon="23.366832"><ele>2518.1</ele><time>2026-03-02T08:37:04.000Z</time></trkpt>
<trkpt lat="42.173339" lon="23.366828"><ele>2519.1</ele><time>2026-03-02T08:37:05.000Z</time></trkpt>
<trkpt lat="42.17334" lon="23.366823"><ele>2519.1</ele><time>2026-03-02T08:37:06.000Z</time></trkpt>
<trkpt lat="42.173341" lon="23.366819"><ele>2519.1</ele><time>2026-03-02T08:37:07.000Z</time></trkpt>
<trkpt lat="42.173341" lon="23.366814"><ele>2519.1</ele><time>2026-03-02T08:37:08.000Z</time></trkpt>
<trkpt lat="42.173342" lon="23.36681"><ele>2519.1</ele><time>2026-03-02T08:37:09.000Z</time></trkpt>
<trkpt lat="42.173342" lon="23.366805"><ele>2519.6</ele><time>2026-03-02T08:37:10.000Z</time></trkpt>
<trkpt lat="42.173343" lon="23.366801"><ele>2519.6</ele><time>2026-03-02T08:37:11.000Z</time></trkpt>
<trkpt lat="42.173343" lon="23.366795"><ele>2519.6</ele><time>2026-03-02T08:37:12.000Z</time></trkpt>
<trkpt lat="42.173343" lon="23.36679"><ele>2519.6</ele><time>2026-03-02T08:37:13.000Z</time></trkpt>
<trkpt lat="42.173343" lon="23.366785"><ele>2519.6</ele><time>2026-03-02T08:37:14.000Z</time></trkpt>
<trkpt lat="42.173342" lon="23.366779"><ele>2520.7</ele><time>2026-03-02T08:37:15.000Z</time></trkpt>
<trkpt lat="42.173342" lon="23.366774"><ele>2520.7</ele><time>2026-03-02T08:37:16.000Z</time></trkpt>
<trkpt lat="42.173342" lon="23.366768"><ele>2520.7</ele><time>2026-03-02T08:37:17.000Z</time></trkpt>
<trkpt lat="42.173343" lon="23.366762"><ele>2520.7</ele><time>2026-03-02T08:37:18.000Z</time></trkpt>
<trkpt lat="42.173343" lon="23.366758"><ele>2520.7</ele><time>2026-03-02T08:37:19.000Z</time></trkpt>
<trkpt lat="42.173344" lon="23.366753"><ele>2521.9</ele><time>2026-03-02T08:37:20.000Z</time></trkpt>
<trkpt lat="42.173345" lon="23.366749"><ele>2521.9</ele><time>2026-03-02T08:37:21.000Z</time></trkpt>
<trkpt lat="42.173346" lon="23.366745"><ele>2521.9</ele><time>2026-03-02T08:37:22.000Z</time></trkpt>
<trkpt lat="42.173348" lon="23.366741"><ele>2521.9</ele><time>2026-03-02T08:37:23.000Z</time></trkpt>
<trkpt lat="42.173349" lon="23.366737"><ele>2521.9</ele><time>2026-03-02T08:37:24.000Z</time></trkpt>
<trkpt lat="42.17335" lon="23.366733"><ele>2522.6</ele><time>2026-03-02T08:37:25.000Z</time></trkpt>
<trkpt lat="42.173349" lon="23.366729"><ele>2522.6</ele><time>2026-03-02T08:37:26.000Z</time></trkpt>
<trkpt lat="42.173349" lon="23.366724"><ele>2522.6</ele><time>2026-03-02T08:37:27.000Z</time></trkpt>
<trkpt lat="42.173347" lon="23.36672"><ele>2522.6</ele><time>2026-03-02T08:37:28.000Z</time></trkpt>
<trkpt lat="42.173345" lon="23.366715"><ele>2522.6</ele><time>2026-03-02T08:37:29.000Z</time></trkpt>
<trkpt lat="42.173343" lon="23.366711"><ele>2523.7</ele><time>2026-03-02T08:37:30.000Z</time></trkpt>
<trkpt lat="42.173342" lon="23.366708"><ele>2523.7</ele><time>2026-03-02T08:37:31.000Z</time></trkpt>
<trkpt lat="42.173341" lon="23.366706"><ele>2523.7</ele><time>2026-03-02T08:37:32.000Z</time></trkpt>
<trkpt lat="42.173341" lon="23.366706"><ele>2523.7</ele><time>2026-03-02T08:37:33.000Z</time></trkpt>
<trkpt lat="42.173341" lon="23.366707"><ele>2523.7</ele><time>2026-03-02T08:37:34.000Z</time></trkpt>
<trkpt lat="42.17334" lon="23.366709"><ele>2524.8</ele><time>2026-03-02T08:37:35.000Z</time></trkpt>
<trkpt lat="42.173339" lon="23.36671"><ele>2524.8</ele><time>2026-03-02T08:37:36.000Z</time></trkpt>
<trkpt lat="42.173339" lon="23.366711"><ele>2524.8</ele><time>2026-03-02T08:37:37.000Z</time></trkpt>
<trkpt lat="42.173338" lon="23.366709"><ele>2524.8</ele><time>2026-03-02T08:37:38.000Z</time></trkpt>
<trkpt lat="42.173338" lon="23.366707"><ele>2524.8</ele><time>2026-03-02T08:37:39.000Z</time></trkpt>
<trkpt lat="42.173337" lon="23.366703"><ele>2525.3</ele><time>2026-03-02T08:37:40.000Z</time></trkpt>
<trkpt lat="42.173337" lon="23.366698"><ele>2525.3</ele><time>2026-03-02T08:37:41.000Z</time></trkpt>
<trkpt lat="42.173336" lon="23.366692"><ele>2525.3</ele><time>2026-03-02T08:37:42.000Z</time></trkpt>
<trkpt lat="42.173335" lon="23.366686"><ele>2525.3</ele><time>2026-03-02T08:37:43.000Z</time></trkpt>
<trkpt lat="42.173333" lon="23.36668"><ele>2525.3</ele><time>2026-03-02T08:37:44.000Z</time></trkpt>
<trkpt lat="42.173332" lon="23.366674"><ele>2525.8</ele><time>2026-03-02T08:37:45.000Z</time></trkpt>
<trkpt lat="42.17333" lon="23.366667"><ele>2525.8</ele><time>2026-03-02T08:37:46.000Z</time></trkpt>
<trkpt lat="42.173328" lon="23.366662"><ele>2525.8</ele><time>2026-03-02T08:37:47.000Z</time></trkpt>
<trkpt lat="42.173326" lon="23.366656"><ele>2525.8</ele><time>2026-03-02T08:37:48.000Z</time></trkpt>
<trkpt lat="42.173324" lon="23.366652"><ele>2525.8</ele><time>2026-03-02T08:37:49.000Z</time></trkpt>
<trkpt lat="42.173322" lon="23.366647"><ele>2526.2</ele><time>2026-03-02T08:37:50.000Z</time></trkpt>
<trkpt lat="42.17332" lon="23.366645"><ele>2526.2</ele><time>2026-03-02T08:37:51.000Z</time></trkpt>
<trkpt lat="42.173319" lon="23.36664"><ele>2526.2</ele><time>2026-03-02T08:37:52.000Z</time></trkpt>
<trkpt lat="42.173318" lon="23.366637"><ele>2526.2</ele><time>2026-03-02T08:37:53.000Z</time></trkpt>
<trkpt lat="42.173316" lon="23.366634"><ele>2526.2</ele><time>2026-03-02T08:37:54.000Z</time></trkpt>
<trkpt lat="42.173315" lon="23.366632"><ele>2526.5</ele><time>2026-03-02T08:37:55.000Z</time></trkpt>
<trkpt lat="42.173313" lon="23.366629"><ele>2526.5</ele><time>2026-03-02T08:37:56.000Z</time></trkpt>
<trkpt lat="42.173311" lon="23.366627"><ele>2526.5</ele><time>2026-03-02T08:37:57.000Z</time></trkpt>
<trkpt lat="42.17331" lon="23.366623"><ele>2526.5</ele><time>2026-03-02T08:37:58.000Z</time></trkpt>
<trkpt lat="42.173308" lon="23.366618"><ele>2526.5</ele><time>2026-03-02T08:37:59.000Z</time></trkpt>
<trkpt lat="42.173307" lon="23.366613"><ele>2527.6</ele><time>2026-03-02T08:38:00.000Z</time></trkpt>
<trkpt lat="42.173306" lon="23.366607"><ele>2527.6</ele><time>2026-03-02T08:38:01.000Z</time></trkpt>
<trkpt lat="42.173305" lon="23.366602"><ele>2527.6</ele><time>2026-03-02T08:38:02.000Z</time></trkpt>
<trkpt lat="42.173303" lon="23.366596"><ele>2527.6</ele><time>2026-03-02T08:38:03.000Z</time></trkpt>
<trkpt lat="42.173303" lon="23.36659"><ele>2527.6</ele><time>2026-03-02T08:38:04.000Z</time></trkpt>
<trkpt lat="42.173303" lon="23.366584"><ele>2528.8</ele><time>2026-03-02T08:38:05.000Z</time></trkpt>
<trkpt lat="42.173303" lon="23.366578"><ele>2528.8</ele><time>2026-03-02T08:38:06.000Z</time></trkpt>
<trkpt lat="42.173304" lon="23.366571"><ele>2528.8</ele><time>2026-03-02T08:38:07.000Z</time></trkpt>
<trkpt lat="42.173304" lon="23.366566"><ele>2528.8</ele><time>2026-03-02T08:38:08.000Z</time></trkpt>
<trkpt lat="42.173303" lon="23.36656"><ele>2528.8</ele><time>2026-03-02T08:38:09.000Z</time></trkpt>
<trkpt lat="42.173303" lon="23.366557"><ele>2529.4</ele><time>2026-03-02T08:38:10.000Z</time></trkpt>
<trkpt lat="42.173303" lon="23.366553"><ele>2529.4</ele><time>2026-03-02T08:38:11.000Z</time></trkpt>
<trkpt lat="42.173303" lon="23.36655"><ele>2529.4</ele><time>2026-03-02T08:38:12.000Z</time></trkpt>
<trkpt lat="42.173304" lon="23.366547"><ele>2529.4</ele><time>2026-03-02T08:38:13.000Z</time></trkpt>
<trkpt lat="42.173306" lon="23.366543"><ele>2529.4</ele><time>2026-03-02T08:38:14.000Z</time></trkpt>
<trkpt lat="42.173307" lon="23.366538"><ele>2530.3</ele><time>2026-03-02T08:38:15.000Z</time></trkpt>
<trkpt lat="42.173308" lon="23.366533"><ele>2530.3</ele><time>2026-03-02T08:38:16.000Z</time></trkpt>
<trkpt lat="42.173309" lon="23.366529"><ele>2530.3</ele><time>2026-03-02T08:38:17.000Z</time></trkpt>
<trkpt lat="42.173309" lon="23.366524"><ele>2530.3</ele><time>2026-03-02T08:38:18.000Z</time></trkpt>
<trkpt lat="42.173309" lon="23.366521"><ele>2530.3</ele><time>2026-03-02T08:38:19.000Z</time></trkpt>
<trkpt lat="42.173309" lon="23.366516"><ele>2531.2</ele><time>2026-03-02T08:38:20.000Z</time></trkpt>
<trkpt lat="42.173309" lon="23.366512"><ele>2531.2</ele><time>2026-03-02T08:38:21.000Z</time></trkpt>
<trkpt lat="42.173309" lon="23.366509"><ele>2531.2</ele><time>2026-03-02T08:38:22.000Z</time></trkpt>
<trkpt lat="42.17331" lon="23.366505"><ele>2531.2</ele><time>2026-03-02T08:38:23.000Z</time></trkpt>
<trkpt lat="42.17331" lon="23.366502"><ele>2531.2</ele><time>2026-03-02T08:38:24.000Z</time></trkpt>
<trkpt lat="42.17331" lon="23.3665"><ele>2531.5</ele><time>2026-03-02T08:38:25.000Z</time></trkpt>
<trkpt lat="42.173309" lon="23.366498"><ele>2531.5</ele><time>2026-03-02T08:38:26.000Z</time></trkpt>
<trkpt lat="42.173309" lon="23.366496"><ele>2531.5</ele><time>2026-03-02T08:38:27.000Z</time></trkpt>
<trkpt lat="42.173308" lon="23.366494"><ele>2531.5</ele><time>2026-03-02T08:38:28.000Z</time></trkpt>
<trkpt lat="42.173306" lon="23.36649"><ele>2531.5</ele><time>2026-03-02T08:38:29.000Z</time></trkpt>
<trkpt lat="42.173305" lon="23.366486"><ele>2532.2</ele><time>2026-03-02T08:38:30.000Z</time></trkpt>
<trkpt lat="42.173303" lon="23.36648"><ele>2532.2</ele><time>2026-03-02T08:38:31.000Z</time></trkpt>
<trkpt lat="42.173301" lon="23.366473"><ele>2532.2</ele><time>2026-03-02T08:38:32.000Z</time></trkpt>
<trkpt lat="42.173298" lon="23.366466"><ele>2532.2</ele><time>2026-03-02T08:38:33.000Z</time></trkpt>
<trkpt lat="42.173295" lon="23.36646"><ele>2532.2</ele><time>2026-03-02T08:38:34.000Z</time></trkpt>
<trkpt lat="42.173292" lon="23.366454"><ele>2532.7</ele><time>2026-03-02T08:38:35.000Z</time></trkpt>
<trkpt lat="42.173288" lon="23.366448"><ele>2532.7</ele><time>2026-03-02T08:38:36.000Z</time></trkpt>
<trkpt lat="42.173284" lon="23.366442"><ele>2532.7</ele><time>2026-03-02T08:38:37.000Z</time></trkpt>
<trkpt lat="42.173279" lon="23.366433"><ele>2532.7</ele><time>2026-03-02T08:38:38.000Z</time></trkpt>
<trkpt lat="42.173275" lon="23.366424"><ele>2532.7</ele><time>2026-03-02T08:38:39.000Z</time></trkpt>
<trkpt lat="42.173271" lon="23.366415"><ele>2532.9</ele><time>2026-03-02T08:38:40.000Z</time></trkpt>
<trkpt lat="42.173267" lon="23.366406"><ele>2532.9</ele><time>2026-03-02T08:38:41.000Z</time></trkpt>
<trkpt lat="42.173263" lon="23.366396"><ele>2532.9</ele><time>2026-03-02T08:38:42.000Z</time></trkpt>
<trkpt lat="42.173258" lon="23.366388"><ele>2532.9</ele><time>2026-03-02T08:38:43.000Z</time></trkpt>
<trkpt lat="42.173253" lon="23.366379"><ele>2532.9</ele><time>2026-03-02T08:38:44.000Z</time></trkpt>
<trkpt lat="42.173248" lon="23.36637"><ele>2533.5</ele><time>2026-03-02T08:38:45.000Z</time></trkpt>
<trkpt lat="42.173243" lon="23.36636"><ele>2533.5</ele><time>2026-03-02T08:38:46.000Z</time></trkpt>
<trkpt lat="42.173237" lon="23.36635"><ele>2533.5</ele><time>2026-03-02T08:38:47.000Z</time></trkpt>
<trkpt lat="42.173231" lon="23.366341"><ele>2533.5</ele><time>2026-03-02T08:38:48.000Z</time></trkpt>
<trkpt lat="42.173227" lon="23.36633"><ele>2533.5</ele><time>2026-03-02T08:38:49.000Z</time></trkpt>
<trkpt lat="42.173223" lon="23.366318"><ele>2534.3</ele><time>2026-03-02T08:38:50.000Z</time></trkpt>
<trkpt lat="42.173219" lon="23.366309"><ele>2534.3</ele><time>2026-03-02T08:38:51.000Z</time></trkpt>
<trkpt lat="42.173216" lon="23.366301"><ele>2534.3</ele><time>2026-03-02T08:38:52.000Z</time></trkpt>
<trkpt lat="42.173214" lon="23.36629"><ele>2534.3</ele><time>2026-03-02T08:38:53.000Z</time></trkpt>
<trkpt lat="42.173213" lon="23.366281"><ele>2534.3</ele><time>2026-03-02T08:38:54.000Z</time></trkpt>
<trkpt lat="42.173211" lon="23.366272"><ele>2534.8</ele><time>2026-03-02T08:38:55.000Z</time></trkpt>
<trkpt lat="42.17321" lon="23.366264"><ele>2534.8</ele><time>2026-03-02T08:38:56.000Z</time></trkpt>
<trkpt lat="42.173208" lon="23.366253"><ele>2534.8</ele><time>2026-03-02T08:38:57.000Z</time></trkpt>
<trkpt lat="42.173206" lon="23.366242"><ele>2534.8</ele><time>2026-03-02T08:38:58.000Z</time></trkpt>
<trkpt lat="42.173205" lon="23.366233"><ele>2534.8</ele><time>2026-03-02T08:38:59.000Z</time></trkpt>
<trkpt lat="42.173204" lon="23.366222"><ele>2535.7</ele><time>2026-03-02T08:39:00.000Z</time></trkpt>
<trkpt lat="42.173202" lon="23.366209"><ele>2535.7</ele><time>2026-03-02T08:39:01.000Z</time></trkpt>
<trkpt lat="42.173201" lon="23.366199"><ele>2535.7</ele><time>2026-03-02T08:39:02.000Z</time></trkpt>
<trkpt lat="42.173199" lon="23.366188"><ele>2535.7</ele><time>2026-03-02T08:39:03.000Z</time></trkpt>
<trkpt lat="42.173197" lon="23.366175"><ele>2535.7</ele><time>2026-03-02T08:39:04.000Z</time></trkpt>
<trkpt lat="42.173195" lon="23.366164"><ele>2537</ele><time>2026-03-02T08:39:05.000Z</time></trkpt>
<trkpt lat="42.173193" lon="23.366153"><ele>2537</ele><time>2026-03-02T08:39:06.000Z</time></trkpt>
<trkpt lat="42.173191" lon="23.366141"><ele>2537</ele><time>2026-03-02T08:39:07.000Z</time></trkpt>
<trkpt lat="42.17319" lon="23.36613"><ele>2537</ele><time>2026-03-02T08:39:08.000Z</time></trkpt>
<trkpt lat="42.173189" lon="23.366119"><ele>2537</ele><time>2026-03-02T08:39:09.000Z</time></trkpt>
<trkpt lat="42.173188" lon="23.366107"><ele>2537.7</ele><time>2026-03-02T08:39:10.000Z</time></trkpt>
<trkpt lat="42.173188" lon="23.366094"><ele>2537.7</ele><time>2026-03-02T08:39:11.000Z</time></trkpt>
<trkpt lat="42.173187" lon="23.366082"><ele>2537.7</ele><time>2026-03-02T08:39:12.000Z</time></trkpt>
<trkpt lat="42.173187" lon="23.366071"><ele>2537.7</ele><time>2026-03-02T08:39:13.000Z</time></trkpt>
<trkpt lat="42.173188" lon="23.366058"><ele>2537.7</ele><time>2026-03-02T08:39:14.000Z</time></trkpt>
<trkpt lat="42.173188" lon="23.366048"><ele>2539.5</ele><time>2026-03-02T08:39:15.000Z</time></trkpt>
<trkpt lat="42.173189" lon="23.366037"><ele>2539.5</ele><time>2026-03-02T08:39:16.000Z</time></trkpt>
<trkpt lat="42.173189" lon="23.366026"><ele>2539.5</ele><time>2026-03-02T08:39:17.000Z</time></trkpt>
<trkpt lat="42.173189" lon="23.366016"><ele>2539.5</ele><time>2026-03-02T08:39:18.000Z</time></trkpt>
<trkpt lat="42.173189" lon="23.366008"><ele>2539.5</ele><time>2026-03-02T08:39:19.000Z</time></trkpt>
<trkpt lat="42.173189" lon="23.366003"><ele>2541.2</ele><time>2026-03-02T08:39:20.000Z</time></trkpt>
<trkpt lat="42.173187" lon="23.366001"><ele>2541.2</ele><time>2026-03-02T08:39:21.000Z</time></trkpt>
<trkpt lat="42.173186" lon="23.366001"><ele>2541.2</ele><time>2026-03-02T08:39:22.000Z</time></trkpt>
<trkpt lat="42.173183" lon="23.366003"><ele>2541.2</ele><time>2026-03-02T08:39:23.000Z</time></trkpt>
<trkpt lat="42.17318" lon="23.366004"><ele>2541.2</ele><time>2026-03-02T08:39:24.000Z</time></trkpt>
<trkpt lat="42.173177" lon="23.366005"><ele>2541.9</ele><time>2026-03-02T08:39:25.000Z</time></trkpt>
<trkpt lat="42.173175" lon="23.366004"><ele>2541.9</ele><time>2026-03-02T08:39:26.000Z</time></trkpt>
<trkpt lat="42.173174" lon="23.366004"><ele>2541.9</ele><time>2026-03-02T08:39:27.000Z</time></trkpt>
<trkpt lat="42.173173" lon="23.366003"><ele>2541.9</ele><time>2026-03-02T08:39:28.000Z</time></trkpt>
<trkpt lat="42.173172" lon="23.366003"><ele>2541.9</ele><time>2026-03-02T08:39:29.000Z</time></trkpt>
<trkpt lat="42.173172" lon="23.366003"><ele>2542.9</ele><time>2026-03-02T08:39:30.000Z</time></trkpt>
<trkpt lat="42.173172" lon="23.366003"><ele>2542.9</ele><time>2026-03-02T08:39:31.000Z</time></trkpt>
<trkpt lat="42.173171" lon="23.366003"><ele>2542.9</ele><time>2026-03-02T08:39:32.000Z</time></trkpt>
<trkpt lat="42.173171" lon="23.366003"><ele>2542.9</ele><time>2026-03-02T08:39:33.000Z</time></trkpt>
<trkpt lat="42.173171" lon="23.366003"><ele>2542.9</ele><time>2026-03-02T08:39:34.000Z</time></trkpt>
<trkpt lat="42.173172" lon="23.366002"><ele>2543.5</ele><time>2026-03-02T08:39:35.000Z</time></trkpt>
<trkpt lat="42.173174" lon="23.366002"><ele>2543.5</ele><time>2026-03-02T08:39:36.000Z</time></trkpt>
<trkpt lat="42.173175" lon="23.366001"><ele>2543.5</ele><time>2026-03-02T08:39:37.000Z</time></trkpt>
<trkpt lat="42.173176" lon="23.366"><ele>2543.5</ele><time>2026-03-02T08:39:38.000Z</time></trkpt>
<trkpt lat="42.173177" lon="23.365999"><ele>2543.5</ele><time>2026-03-02T08:39:39.000Z</time></trkpt>
<trkpt lat="42.173178" lon="23.365999"><ele>2543.6</ele><time>2026-03-02T08:39:40.000Z</time></trkpt>
<trkpt lat="42.173178" lon="23.365999"><ele>2543.6</ele><time>2026-03-02T08:39:41.000Z</time></trkpt>
<trkpt lat="42.173178" lon="23.365999"><ele>2543.6</ele><time>2026-03-02T08:39:42.000Z</time></trkpt>
<trkpt lat="42.173178" lon="23.365999"><ele>2543.6</ele><time>2026-03-02T08:39:43.000Z</time></trkpt>
<trkpt lat="42.173178" lon="23.365999"><ele>2543.6</ele><time>2026-03-02T08:39:44.000Z</time></trkpt>
<trkpt lat="42.173178" lon="23.365999"><ele>2543.8</ele><time>2026-03-02T08:39:45.000Z</time></trkpt>
<trkpt lat="42.173178" lon="23.365998"><ele>2543.8</ele><time>2026-03-02T08:39:46.000Z</time></trkpt>
<trkpt lat="42.173177" lon="23.365998"><ele>2543.8</ele><time>2026-03-02T08:39:47.000Z</time></trkpt>
<trkpt lat="42.173177" lon="23.365998"><ele>2543.8</ele><time>2026-03-02T08:39:48.000Z</time></trkpt>
<trkpt lat="42.173177" lon="23.365998"><ele>2543.8</ele><time>2026-03-02T08:39:49.000Z</time></trkpt>
<trkpt lat="42.173177" lon="23.365998"><ele>2543.8</ele><time>2026-03-02T08:39:50.000Z</time></trkpt>
<trkpt lat="42.173178" lon="23.365998"><ele>2543.8</ele><time>2026-03-02T08:39:51.000Z</time></trkpt>
<trkpt lat="42.173179" lon="23.365998"><ele>2543.8</ele><time>2026-03-02T08:39:52.000Z</time></trkpt>
<trkpt lat="42.173179" lon="23.365998"><ele>2543.8</ele><time>2026-03-02T08:39:53.000Z</time></trkpt>
<trkpt lat="42.173179" lon="23.365998"><ele>2543.8</ele><time>2026-03-02T08:39:54.000Z</time></trkpt>
<trkpt lat="42.173178" lon="23.365998"><ele>2543.8</ele><time>2026-03-02T08:39:55.000Z</time></trkpt>
<trkpt lat="42.173177" lon="23.365999"><ele>2543.8</ele><time>2026-03-02T08:39:56.000Z</time></trkpt>
<trkpt lat="42.173177" lon="23.365999"><ele>2543.8</ele><time>2026-03-02T08:39:57.000Z</time></trkpt>
<trkpt lat="42.173176" lon="23.365999"><ele>2543.8</ele><time>2026-03-02T08:39:58.000Z</time></trkpt>
<trkpt lat="42.173176" lon="23.365999"><ele>2543.8</ele><time>2026-03-02T08:39:59.000Z</time></trkpt>
<trkpt lat="42.173176" lon="23.365999"><ele>2543.7</ele><time>2026-03-02T08:40:00.000Z</time></trkpt>
<trkpt lat="42.173176" lon="23.365999"><ele>2543.7</ele><time>2026-03-02T08:40:01.000Z</time></trkpt>
<trkpt lat="42.173175" lon="23.365998"><ele>2543.7</ele><time>2026-03-02T08:40:02.000Z</time></trkpt>
<trkpt lat="42.173174" lon="23.365998"><ele>2543.7</ele><time>2026-03-02T08:40:03.000Z</time></trkpt>
<trkpt lat="42.173174" lon="23.365998"><ele>2543.7</ele><time>2026-03-02T08:40:04.000Z</time></trkpt>
<trkpt lat="42.173173" lon="23.365997"><ele>2543.7</ele><time>2026-03-02T08:40:05.000Z</time></trkpt>
<trkpt lat="42.173172" lon="23.365997"><ele>2543.7</ele><time>2026-03-02T08:40:06.000Z</time></trkpt>
<trkpt lat="42.173171" lon="23.365997"><ele>2543.7</ele><time>2026-03-02T08:40:07.000Z</time></trkpt>
<trkpt lat="42.17317" lon="23.365997"><ele>2543.7</ele><time>2026-03-02T08:40:08.000Z</time></trkpt>
<trkpt lat="42.173169" lon="23.365997"><ele>2543.7</ele><time>2026-03-02T08:40:09.000Z</time></trkpt>
<trkpt lat="42.173168" lon="23.365997"><ele>2543.7</ele><time>2026-03-02T08:40:10.000Z</time></trkpt>
<trkpt lat="42.173167" lon="23.365997"><ele>2543.7</ele><time>2026-03-02T08:40:11.000Z</time></trkpt>
<trkpt lat="42.173167" lon="23.365997"><ele>2543.7</ele><time>2026-03-02T08:40:12.000Z</time></trkpt>
<trkpt lat="42.173167" lon="23.365997"><ele>2543.7</ele><time>2026-03-02T08:40:13.000Z</time></trkpt>
<trkpt lat="42.173167" lon="23.365997"><ele>2543.7</ele><time>2026-03-02T08:40:14.000Z</time></trkpt>
<trkpt lat="42.173167" lon="23.365997"><ele>2543.8</ele><time>2026-03-02T08:40:15.000Z</time></trkpt>
<trkpt lat="42.173167" lon="23.365997"><ele>2543.8</ele><time>2026-03-02T08:40:16.000Z</time></trkpt>
<trkpt lat="42.173167" lon="23.365997"><ele>2543.8</ele><time>2026-03-02T08:40:17.000Z</time></trkpt>
<trkpt lat="42.173167" lon="23.365997"><ele>2543.8</ele><time>2026-03-02T08:40:18.000Z</time></trkpt>
<trkpt lat="42.173167" lon="23.365997"><ele>2543.8</ele><time>2026-03-02T08:40:19.000Z</time></trkpt>
<trkpt lat="42.173167" lon="23.365997"><ele>2543.8</ele><time>2026-03-02T08:40:20.000Z</time></trkpt>
<trkpt lat="42.173167" lon="23.365997"><ele>2543.8</ele><time>2026-03-02T08:40:21.000Z</time></trkpt>
<trkpt lat="42.173167" lon="23.365997"><ele>2543.8</ele><time>2026-03-02T08:40:22.000Z</time></trkpt>
<trkpt lat="42.173167" lon="23.365997"><ele>2543.8</ele><time>2026-03-02T08:40:23.000Z</time></trkpt>
<trkpt lat="42.173167" lon="23.365997"><ele>2543.8</ele><time>2026-03-02T08:40:24.000Z</time></trkpt>
<trkpt lat="42.173167" lon="23.365997"><ele>2543.7</ele><time>2026-03-02T08:40:25.000Z</time></trkpt>
<trkpt lat="42.173167" lon="23.365997"><ele>2543.7</ele><time>2026-03-02T08:40:26.000Z</time></trkpt>
<trkpt lat="42.173167" lon="23.365997"><ele>2543.7</ele><time>2026-03-02T08:40:27.000Z</time></trkpt>
<trkpt lat="42.173167" lon="23.365997"><ele>2543.7</ele><time>2026-03-02T08:40:28.000Z</time></trkpt>
<trkpt lat="42.173167" lon="23.365997"><ele>2543.7</ele><time>2026-03-02T08:40:29.000Z</time></trkpt>
<trkpt lat="42.173167" lon="23.365997"><ele>2543.6</ele><time>2026-03-02T08:40:30.000Z</time></trkpt>
<trkpt lat="42.173166" lon="23.365997"><ele>2543.6</ele><time>2026-03-02T08:40:31.000Z</time></trkpt>
<trkpt lat="42.173166" lon="23.365997"><ele>2543.6</ele><time>2026-03-02T08:40:32.000Z</time></trkpt>
<trkpt lat="42.173165" lon="23.365998"><ele>2543.6</ele><time>2026-03-02T08:40:33.000Z</time></trkpt>
<trkpt lat="42.173164" lon="23.365998"><ele>2543.6</ele><time>2026-03-02T08:40:34.000Z</time></trkpt>
<trkpt lat="42.173163" lon="23.365998"><ele>2543.7</ele><time>2026-03-02T08:40:35.000Z</time></trkpt>
<trkpt lat="42.173163" lon="23.365998"><ele>2543.7</ele><time>2026-03-02T08:40:36.000Z</time></trkpt>
<trkpt lat="42.173163" lon="23.365998"><ele>2543.7</ele><time>2026-03-02T08:40:37.000Z</time></trkpt>
<trkpt lat="42.173163" lon="23.365998"><ele>2543.7</ele><time>2026-03-02T08:40:38.000Z</time></trkpt>
<trkpt lat="42.173163" lon="23.365998"><ele>2543.7</ele><time>2026-03-02T08:40:39.000Z</time></trkpt>
<trkpt lat="42.173163" lon="23.365998"><ele>2543.7</ele><time>2026-03-02T08:40:40.000Z</time></trkpt>
<trkpt lat="42.173163" lon="23.365998"><ele>2543.7</ele><time>2026-03-02T08:40:41.000Z</time></trkpt>
<trkpt lat="42.173163" lon="23.365998"><ele>2543.7</ele><time>2026-03-02T08:40:42.000Z</time></trkpt>
<trkpt lat="42.173163" lon="23.365998"><ele>2543.7</ele><time>2026-03-02T08:40:43.000Z</time></trkpt>
<trkpt lat="42.173163" lon="23.365998"><ele>2543.7</ele><time>2026-03-02T08:40:44.000Z</time></trkpt>
<trkpt lat="42.173163" lon="23.365998"><ele>2543.7</ele><time>2026-03-02T08:40:45.000Z</time></trkpt>
<trkpt lat="42.173163" lon="23.365997"><ele>2543.7</ele><time>2026-03-02T08:40:46.000Z</time></trkpt>
<trkpt lat="42.173162" lon="23.365997"><ele>2543.7</ele><time>2026-03-02T08:40:47.000Z</time></trkpt>
<trkpt lat="42.173162" lon="23.365996"><ele>2543.7</ele><time>2026-03-02T08:40:48.000Z</time></trkpt>
<trkpt lat="42.173161" lon="23.365996"><ele>2543.7</ele><time>2026-03-02T08:40:49.000Z</time></trkpt>
<trkpt lat="42.17316" lon="23.365995"><ele>2543.7</ele><time>2026-03-02T08:40:50.000Z</time></trkpt>
<trkpt lat="42.173159" lon="23.365995"><ele>2543.7</ele><time>2026-03-02T08:40:51.000Z</time></trkpt>
<trkpt lat="42.173159" lon="23.365995"><ele>2543.7</ele><time>2026-03-02T08:40:52.000Z</time></trkpt>
<trkpt lat="42.173159" lon="23.365995"><ele>2543.7</ele><time>2026-03-02T08:40:53.000Z</time></trkpt>
<trkpt lat="42.173159" lon="23.365995"><ele>2543.7</ele><time>2026-03-02T08:40:54.000Z</time></trkpt>
<trkpt lat="42.173159" lon="23.365995"><ele>2543.8</ele><time>2026-03-02T08:40:55.000Z</time></trkpt>
<trkpt lat="42.173159" lon="23.365995"><ele>2543.8</ele><time>2026-03-02T08:40:56.000Z</time></trkpt>
<trkpt lat="42.173159" lon="23.365993"><ele>2543.8</ele><time>2026-03-02T08:40:57.000Z</time></trkpt>
<trkpt lat="42.17316" lon="23.365989"><ele>2543.8</ele><time>2026-03-02T08:40:58.000Z</time></trkpt>
<trkpt lat="42.173161" lon="23.365984"><ele>2543.8</ele><time>2026-03-02T08:40:59.000Z</time></trkpt>
<trkpt lat="42.173161" lon="23.365977"><ele>2543.9</ele><time>2026-03-02T08:41:00.000Z</time></trkpt>
<trkpt lat="42.173162" lon="23.365968"><ele>2543.9</ele><time>2026-03-02T08:41:01.000Z</time></trkpt>
<trkpt lat="42.173163" lon="23.36596"><ele>2543.9</ele><time>2026-03-02T08:41:02.000Z</time></trkpt>
<trkpt lat="42.173163" lon="23.365953"><ele>2543.9</ele><time>2026-03-02T08:41:03.000Z</time></trkpt>
<trkpt lat="42.173163" lon="23.365946"><ele>2543.9</ele><time>2026-03-02T08:41:04.000Z</time></trkpt>
<trkpt lat="42.173164" lon="23.365939"><ele>2544</ele><time>2026-03-02T08:41:05.000Z</time></trkpt>
<trkpt lat="42.173164" lon="23.365932"><ele>2544</ele><time>2026-03-02T08:41:06.000Z</time></trkpt>
<trkpt lat="42.173165" lon="23.365926"><ele>2544</ele><time>2026-03-02T08:41:07.000Z</time></trkpt>
<trkpt lat="42.173167" lon="23.365919"><ele>2544</ele><time>2026-03-02T08:41:08.000Z</time></trkpt>
<trkpt lat="42.173169" lon="23.365914"><ele>2544</ele><time>2026-03-02T08:41:09.000Z</time></trkpt>
<trkpt lat="42.173171" lon="23.365909"><ele>2544.1</ele><time>2026-03-02T08:41:10.000Z</time></trkpt>
<trkpt lat="42.173173" lon="23.365906"><ele>2544.1</ele><time>2026-03-02T08:41:11.000Z</time></trkpt>
<trkpt lat="42.173174" lon="23.365903"><ele>2544.1</ele><time>2026-03-02T08:41:12.000Z</time></trkpt>
<trkpt lat="42.173176" lon="23.3659"><ele>2544.1</ele><time>2026-03-02T08:41:13.000Z</time></trkpt>
<trkpt lat="42.173178" lon="23.365897"><ele>2544.1</ele><time>2026-03-02T08:41:14.000Z</time></trkpt>
<trkpt lat="42.17318" lon="23.365893"><ele>2544.6</ele><time>2026-03-02T08:41:15.000Z</time></trkpt>
<trkpt lat="42.17318" lon="23.365887"><ele>2544.6</ele><time>2026-03-02T08:41:16.000Z</time></trkpt>
<trkpt lat="42.173182" lon="23.365882"><ele>2544.6</ele><time>2026-03-02T08:41:17.000Z</time></trkpt>
<trkpt lat="42.173182" lon="23.365876"><ele>2544.6</ele><time>2026-03-02T08:41:18.000Z</time></trkpt>
<trkpt lat="42.173183" lon="23.365871"><ele>2544.6</ele><time>2026-03-02T08:41:19.000Z</time></trkpt>
<trkpt lat="42.173183" lon="23.365866"><ele>2545.2</ele><time>2026-03-02T08:41:20.000Z</time></trkpt>
<trkpt lat="42.173183" lon="23.365862"><ele>2545.2</ele><time>2026-03-02T08:41:21.000Z</time></trkpt>
<trkpt lat="42.173182" lon="23.365857"><ele>2545.2</ele><time>2026-03-02T08:41:22.000Z</time></trkpt>
<trkpt lat="42.173181" lon="23.365853"><ele>2545.2</ele><time>2026-03-02T08:41:23.000Z</time></trkpt>
<trkpt lat="42.17318" lon="23.365847"><ele>2545.2</ele><time>2026-03-02T08:41:24.000Z</time></trkpt>
<trkpt lat="42.173179" lon="23.365841"><ele>2545.6</ele><time>2026-03-02T08:41:25.000Z</time></trkpt>
<trkpt lat="42.173177" lon="23.365835"><ele>2545.6</ele><time>2026-03-02T08:41:26.000Z</time></trkpt>
<trkpt lat="42.173175" lon="23.365828"><ele>2545.6</ele><time>2026-03-02T08:41:27.000Z</time></trkpt>
<trkpt lat="42.173173" lon="23.365823"><ele>2545.6</ele><time>2026-03-02T08:41:28.000Z</time></trkpt>
<trkpt lat="42.173171" lon="23.365817"><ele>2545.6</ele><time>2026-03-02T08:41:29.000Z</time></trkpt>
<trkpt lat="42.17317" lon="23.365812"><ele>2546.3</ele><time>2026-03-02T08:41:30.000Z</time></trkpt>
<trkpt lat="42.173169" lon="23.365807"><ele>2546.3</ele><time>2026-03-02T08:41:31.000Z</time></trkpt>
<trkpt lat="42.173168" lon="23.365801"><ele>2546.3</ele><time>2026-03-02T08:41:32.000Z</time></trkpt>
<trkpt lat="42.173166" lon="23.365796"><ele>2546.3</ele><time>2026-03-02T08:41:33.000Z</time></trkpt>
<trkpt lat="42.173164" lon="23.365791"><ele>2546.3</ele><time>2026-03-02T08:41:34.000Z</time></trkpt>
<trkpt lat="42.173161" lon="23.365786"><ele>2547.2</ele><time>2026-03-02T08:41:35.000Z</time></trkpt>
<trkpt lat="42.173158" lon="23.36578"><ele>2547.2</ele><time>2026-03-02T08:41:36.000Z</time></trkpt>
<trkpt lat="42.173155" lon="23.365775"><ele>2547.2</ele><time>2026-03-02T08:41:37.000Z</time></trkpt>
<trkpt lat="42.173152" lon="23.365769"><ele>2547.2</ele><time>2026-03-02T08:41:38.000Z</time></trkpt>
<trkpt lat="42.17315" lon="23.365765"><ele>2547.2</ele><time>2026-03-02T08:41:39.000Z</time></trkpt>
<trkpt lat="42.173148" lon="23.36576"><ele>2547.7</ele><time>2026-03-02T08:41:40.000Z</time></trkpt>
<trkpt lat="42.173146" lon="23.365755"><ele>2547.7</ele><time>2026-03-02T08:41:41.000Z</time></trkpt>
<trkpt lat="42.173144" lon="23.365749"><ele>2547.7</ele><time>2026-03-02T08:41:42.000Z</time></trkpt>
<trkpt lat="42.173141" lon="23.365744"><ele>2547.7</ele><time>2026-03-02T08:41:43.000Z</time></trkpt>
<trkpt lat="42.173138" lon="23.365739"><ele>2547.7</ele><time>2026-03-02T08:41:44.000Z</time></trkpt>
<trkpt lat="42.173134" lon="23.365735"><ele>2548.7</ele><time>2026-03-02T08:41:45.000Z</time></trkpt>
<trkpt lat="42.173131" lon="23.365731"><ele>2548.7</ele><time>2026-03-02T08:41:46.000Z</time></trkpt>
<trkpt lat="42.173128" lon="23.365728"><ele>2548.7</ele><time>2026-03-02T08:41:47.000Z</time></trkpt>
<trkpt lat="42.173127" lon="23.365724"><ele>2548.7</ele><time>2026-03-02T08:41:48.000Z</time></trkpt>
<trkpt lat="42.173124" lon="23.365722"><ele>2548.7</ele><time>2026-03-02T08:41:49.000Z</time></trkpt>
<trkpt lat="42.173122" lon="23.36572"><ele>2549.7</ele><time>2026-03-02T08:41:50.000Z</time></trkpt>
<trkpt lat="42.173121" lon="23.365718"><ele>2549.7</ele><time>2026-03-02T08:41:51.000Z</time></trkpt>
<trkpt lat="42.173121" lon="23.365717"><ele>2549.7</ele><time>2026-03-02T08:41:52.000Z</time></trkpt>
<trkpt lat="42.17312" lon="23.365718"><ele>2549.7</ele><time>2026-03-02T08:41:53.000Z</time></trkpt>
<trkpt lat="42.17312" lon="23.365718"><ele>2549.7</ele><time>2026-03-02T08:41:54.000Z</time></trkpt>
<trkpt lat="42.173121" lon="23.365717"><ele>2550.1</ele><time>2026-03-02T08:41:55.000Z</time></trkpt>
<trkpt lat="42.173121" lon="23.365715"><ele>2550.1</ele><time>2026-03-02T08:41:56.000Z</time></trkpt>
<trkpt lat="42.17312" lon="23.365711"><ele>2550.1</ele><time>2026-03-02T08:41:57.000Z</time></trkpt>
<trkpt lat="42.173119" lon="23.365706"><ele>2550.1</ele><time>2026-03-02T08:41:58.000Z</time></trkpt>
<trkpt lat="42.173118" lon="23.365701"><ele>2550.1</ele><time>2026-03-02T08:41:59.000Z</time></trkpt>
<trkpt lat="42.173118" lon="23.365698"><ele>2550.9</ele><time>2026-03-02T08:42:00.000Z</time></trkpt>
<trkpt lat="42.173117" lon="23.365697"><ele>2550.9</ele><time>2026-03-02T08:42:01.000Z</time></trkpt>
<trkpt lat="42.173117" lon="23.365695"><ele>2550.9</ele><time>2026-03-02T08:42:02.000Z</time></trkpt>
<trkpt lat="42.173117" lon="23.365695"><ele>2550.9</ele><time>2026-03-02T08:42:03.000Z</time></trkpt>
<trkpt lat="42.173118" lon="23.365695"><ele>2550.9</ele><time>2026-03-02T08:42:04.000Z</time></trkpt>
<trkpt lat="42.173118" lon="23.365695"><ele>2551.5</ele><time>2026-03-02T08:42:05.000Z</time></trkpt>
<trkpt lat="42.173118" lon="23.365695"><ele>2551.5</ele><time>2026-03-02T08:42:06.000Z</time></trkpt>
<trkpt lat="42.173118" lon="23.365694"><ele>2551.5</ele><time>2026-03-02T08:42:07.000Z</time></trkpt>
<trkpt lat="42.173118" lon="23.365693"><ele>2551.5</ele><time>2026-03-02T08:42:08.000Z</time></trkpt>
<trkpt lat="42.173117" lon="23.365692"><ele>2551.5</ele><time>2026-03-02T08:42:09.000Z</time></trkpt>
<trkpt lat="42.173115" lon="23.365691"><ele>2551.8</ele><time>2026-03-02T08:42:10.000Z</time></trkpt>
<trkpt lat="42.173113" lon="23.36569"><ele>2551.8</ele><time>2026-03-02T08:42:11.000Z</time></trkpt>
<trkpt lat="42.173109" lon="23.365689"><ele>2551.8</ele><time>2026-03-02T08:42:12.000Z</time></trkpt>
<trkpt lat="42.173106" lon="23.365688"><ele>2551.8</ele><time>2026-03-02T08:42:13.000Z</time></trkpt>
<trkpt lat="42.173104" lon="23.365688"><ele>2551.8</ele><time>2026-03-02T08:42:14.000Z</time></trkpt>
<trkpt lat="42.173101" lon="23.365687"><ele>2552.3</ele><time>2026-03-02T08:42:15.000Z</time></trkpt>
<trkpt lat="42.1731" lon="23.365688"><ele>2552.3</ele><time>2026-03-02T08:42:16.000Z</time></trkpt>
<trkpt lat="42.173099" lon="23.365687"><ele>2552.3</ele><time>2026-03-02T08:42:17.000Z</time></trkpt>
<trkpt lat="42.173099" lon="23.365688"><ele>2552.3</ele><time>2026-03-02T08:42:18.000Z</time></trkpt>
<trkpt lat="42.173098" lon="23.365689"><ele>2552.3</ele><time>2026-03-02T08:42:19.000Z</time></trkpt>
<trkpt lat="42.173098" lon="23.36569"><ele>2553</ele><time>2026-03-02T08:42:20.000Z</time></trkpt>
<trkpt lat="42.173098" lon="23.365691"><ele>2553</ele><time>2026-03-02T08:42:21.000Z</time></trkpt>
<trkpt lat="42.173099" lon="23.365691"><ele>2553</ele><time>2026-03-02T08:42:22.000Z</time></trkpt>
<trkpt lat="42.173099" lon="23.365691"><ele>2553</ele><time>2026-03-02T08:42:23.000Z</time></trkpt>
<trkpt lat="42.173099" lon="23.365691"><ele>2553</ele><time>2026-03-02T08:42:24.000Z</time></trkpt>
<trkpt lat="42.173099" lon="23.36569"><ele>2553.4</ele><time>2026-03-02T08:42:25.000Z</time></trkpt>
<trkpt lat="42.173099" lon="23.36569"><ele>2553.4</ele><time>2026-03-02T08:42:26.000Z</time></trkpt>
<trkpt lat="42.173099" lon="23.36569"><ele>2553.4</ele><time>2026-03-02T08:42:27.000Z</time></trkpt>
<trkpt lat="42.173099" lon="23.36569"><ele>2553.4</ele><time>2026-03-02T08:42:28.000Z</time></trkpt>
<trkpt lat="42.173099" lon="23.365689"><ele>2553.4</ele><time>2026-03-02T08:42:29.000Z</time></trkpt>
<trkpt lat="42.173098" lon="23.365688"><ele>2554.2</ele><time>2026-03-02T08:42:30.000Z</time></trkpt>
<trkpt lat="42.173098" lon="23.365687"><ele>2554.2</ele><time>2026-03-02T08:42:31.000Z</time></trkpt>
<trkpt lat="42.173098" lon="23.365687"><ele>2554.2</ele><time>2026-03-02T08:42:32.000Z</time></trkpt>
<trkpt lat="42.173098" lon="23.365687"><ele>2554.2</ele><time>2026-03-02T08:42:33.000Z</time></trkpt>
<trkpt lat="42.173098" lon="23.365687"><ele>2554.2</ele><time>2026-03-02T08:42:34.000Z</time></trkpt>
<trkpt lat="42.173098" lon="23.365687"><ele>2554.7</ele><time>2026-03-02T08:42:35.000Z</time></trkpt>
<trkpt lat="42.173098" lon="23.365687"><ele>2554.7</ele><time>2026-03-02T08:42:36.000Z</time></trkpt>
<trkpt lat="42.173098" lon="23.365687"><ele>2554.7</ele><time>2026-03-02T08:42:37.000Z</time></trkpt>
<trkpt lat="42.173098" lon="23.365687"><ele>2554.7</ele><time>2026-03-02T08:42:38.000Z</time></trkpt>
<trkpt lat="42.173098" lon="23.365687"><ele>2554.7</ele><time>2026-03-02T08:42:39.000Z</time></trkpt>
<trkpt lat="42.173097" lon="23.365688"><ele>2554.7</ele><time>2026-03-02T08:42:40.000Z</time></trkpt>
<trkpt lat="42.173095" lon="23.365691"><ele>2554.7</ele><time>2026-03-02T08:42:41.000Z</time></trkpt>
<trkpt lat="42.173092" lon="23.365693"><ele>2554.7</ele><time>2026-03-02T08:42:42.000Z</time></trkpt>
<trkpt lat="42.173087" lon="23.365695"><ele>2554.7</ele><time>2026-03-02T08:42:43.000Z</time></trkpt>
<trkpt lat="42.173081" lon="23.365696"><ele>2554.7</ele><time>2026-03-02T08:42:44.000Z</time></trkpt>
<trkpt lat="42.173075" lon="23.365696"><ele>2554.7</ele><time>2026-03-02T08:42:45.000Z</time></trkpt>
<trkpt lat="42.17307" lon="23.365694"><ele>2554.7</ele><time>2026-03-02T08:42:46.000Z</time></trkpt>
<trkpt lat="42.173067" lon="23.365692"><ele>2554.7</ele><time>2026-03-02T08:42:47.000Z</time></trkpt>
<trkpt lat="42.173065" lon="23.36569"><ele>2554.7</ele><time>2026-03-02T08:42:48.000Z</time></trkpt>
<trkpt lat="42.173064" lon="23.365688"><ele>2554.7</ele><time>2026-03-02T08:42:49.000Z</time></trkpt>
<trkpt lat="42.173064" lon="23.365686"><ele>2554.8</ele><time>2026-03-02T08:42:50.000Z</time></trkpt>
<trkpt lat="42.173064" lon="23.365685"><ele>2554.8</ele><time>2026-03-02T08:42:51.000Z</time></trkpt>
<trkpt lat="42.173063" lon="23.365684"><ele>2554.8</ele><time>2026-03-02T08:42:52.000Z</time></trkpt>
<trkpt lat="42.173061" lon="23.365683"><ele>2554.8</ele><time>2026-03-02T08:42:53.000Z</time></trkpt>
<trkpt lat="42.173058" lon="23.365682"><ele>2554.8</ele><time>2026-03-02T08:42:54.000Z</time></trkpt>
<trkpt lat="42.173054" lon="23.365678"><ele>2554.9</ele><time>2026-03-02T08:42:55.000Z</time></trkpt>
<trkpt lat="42.173048" lon="23.365674"><ele>2554.9</ele><time>2026-03-02T08:42:56.000Z</time></trkpt>
<trkpt lat="42.173044" lon="23.36567"><ele>2554.9</ele><time>2026-03-02T08:42:57.000Z</time></trkpt>
<trkpt lat="42.173039" lon="23.365665"><ele>2554.9</ele><time>2026-03-02T08:42:58.000Z</time></trkpt>
<trkpt lat="42.173034" lon="23.36566"><ele>2554.9</ele><time>2026-03-02T08:42:59.000Z</time></trkpt>
<trkpt lat="42.173029" lon="23.365658"><ele>2555.2</ele><time>2026-03-02T08:43:00.000Z</time></trkpt>
<trkpt lat="42.173024" lon="23.365655"><ele>2555.2</ele><time>2026-03-02T08:43:01.000Z</time></trkpt>
<trkpt lat="42.173018" lon="23.365652"><ele>2555.2</ele><time>2026-03-02T08:43:02.000Z</time></trkpt>
<trkpt lat="42.173012" lon="23.365649"><ele>2555.2</ele><time>2026-03-02T08:43:03.000Z</time></trkpt>
<trkpt lat="42.173007" lon="23.365647"><ele>2555.2</ele><time>2026-03-02T08:43:04.000Z</time></trkpt>
<trkpt lat="42.173001" lon="23.365643"><ele>2555.8</ele><time>2026-03-02T08:43:05.000Z</time></trkpt>
<trkpt lat="42.172995" lon="23.365637"><ele>2555.8</ele><time>2026-03-02T08:43:06.000Z</time></trkpt>
<trkpt lat="42.17299" lon="23.365631"><ele>2555.8</ele><time>2026-03-02T08:43:07.000Z</time></trkpt>
<trkpt lat="42.172985" lon="23.365626"><ele>2555.8</ele><time>2026-03-02T08:43:08.000Z</time></trkpt>
<trkpt lat="42.17298" lon="23.365619"><ele>2555.8</ele><time>2026-03-02T08:43:09.000Z</time></trkpt>
<trkpt lat="42.172975" lon="23.365613"><ele>2556.3</ele><time>2026-03-02T08:43:10.000Z</time></trkpt>
<trkpt lat="42.172971" lon="23.365608"><ele>2556.3</ele><time>2026-03-02T08:43:11.000Z</time></trkpt>
<trkpt lat="42.172967" lon="23.365603"><ele>2556.3</ele><time>2026-03-02T08:43:12.000Z</time></trkpt>
<trkpt lat="42.172963" lon="23.365597"><ele>2556.3</ele><time>2026-03-02T08:43:13.000Z</time></trkpt>
<trkpt lat="42.172959" lon="23.365592"><ele>2556.3</ele><time>2026-03-02T08:43:14.000Z</time></trkpt>
<trkpt lat="42.172955" lon="23.365588"><ele>2557.4</ele><time>2026-03-02T08:43:15.000Z</time></trkpt>
<trkpt lat="42.172952" lon="23.365583"><ele>2557.4</ele><time>2026-03-02T08:43:16.000Z</time></trkpt>
<trkpt lat="42.172949" lon="23.365578"><ele>2557.4</ele><time>2026-03-02T08:43:17.000Z</time></trkpt>
<trkpt lat="42.172946" lon="23.365573"><ele>2557.4</ele><time>2026-03-02T08:43:18.000Z</time></trkpt>
<trkpt lat="42.172944" lon="23.365567"><ele>2557.4</ele><time>2026-03-02T08:43:19.000Z</time></trkpt>
<trkpt lat="42.172943" lon="23.365561"><ele>2558.9</ele><time>2026-03-02T08:43:20.000Z</time></trkpt>
<trkpt lat="42.172942" lon="23.365555"><ele>2558.9</ele><time>2026-03-02T08:43:21.000Z</time></trkpt>
<trkpt lat="42.172942" lon="23.365549"><ele>2558.9</ele><time>2026-03-02T08:43:22.000Z</time></trkpt>
<trkpt lat="42.172941" lon="23.365544"><ele>2558.9</ele><time>2026-03-02T08:43:23.000Z</time></trkpt>
<trkpt lat="42.172941" lon="23.365539"><ele>2558.9</ele><time>2026-03-02T08:43:24.000Z</time></trkpt>
<trkpt lat="42.17294" lon="23.365532"><ele>2559.6</ele><time>2026-03-02T08:43:25.000Z</time></trkpt>
<trkpt lat="42.172939" lon="23.365525"><ele>2559.6</ele><time>2026-03-02T08:43:26.000Z</time></trkpt>
<trkpt lat="42.172937" lon="23.365518"><ele>2559.6</ele><time>2026-03-02T08:43:27.000Z</time></trkpt>
<trkpt lat="42.172934" lon="23.36551"><ele>2559.6</ele><time>2026-03-02T08:43:28.000Z</time></trkpt>
<trkpt lat="42.172931" lon="23.365503"><ele>2559.6</ele><time>2026-03-02T08:43:29.000Z</time></trkpt>
<trkpt lat="42.172928" lon="23.365496"><ele>2560.8</ele><time>2026-03-02T08:43:30.000Z</time></trkpt>
<trkpt lat="42.172925" lon="23.365489"><ele>2560.8</ele><time>2026-03-02T08:43:31.000Z</time></trkpt>
<trkpt lat="42.172921" lon="23.365483"><ele>2560.8</ele><time>2026-03-02T08:43:32.000Z</time></trkpt>
<trkpt lat="42.172918" lon="23.365476"><ele>2560.8</ele><time>2026-03-02T08:43:33.000Z</time></trkpt>
<trkpt lat="42.172914" lon="23.365469"><ele>2560.8</ele><time>2026-03-02T08:43:34.000Z</time></trkpt>
<trkpt lat="42.172911" lon="23.365463"><ele>2562.1</ele><time>2026-03-02T08:43:35.000Z</time></trkpt>
<trkpt lat="42.172907" lon="23.365456"><ele>2562.1</ele><time>2026-03-02T08:43:36.000Z</time></trkpt>
<trkpt lat="42.172903" lon="23.365448"><ele>2562.1</ele><time>2026-03-02T08:43:37.000Z</time></trkpt>
<trkpt lat="42.1729" lon="23.365444"><ele>2562.1</ele><time>2026-03-02T08:43:38.000Z</time></trkpt>
<trkpt lat="42.172897" lon="23.36544"><ele>2562.1</ele><time>2026-03-02T08:43:39.000Z</time></trkpt>
<trkpt lat="42.172894" lon="23.365436"><ele>2562.7</ele><time>2026-03-02T08:43:40.000Z</time></trkpt>
<trkpt lat="42.172891" lon="23.365432"><ele>2562.7</ele><time>2026-03-02T08:43:41.000Z</time></trkpt>
<trkpt lat="42.172889" lon="23.365428"><ele>2562.7</ele><time>2026-03-02T08:43:42.000Z</time></trkpt>
<trkpt lat="42.172887" lon="23.365422"><ele>2562.7</ele><time>2026-03-02T08:43:43.000Z</time></trkpt>
<trkpt lat="42.172884" lon="23.365416"><ele>2562.7</ele><time>2026-03-02T08:43:44.000Z</time></trkpt>
<trkpt lat="42.172882" lon="23.36541"><ele>2563.9</ele><time>2026-03-02T08:43:45.000Z</time></trkpt>
<trkpt lat="42.172879" lon="23.365403"><ele>2563.9</ele><time>2026-03-02T08:43:46.000Z</time></trkpt>
<trkpt lat="42.172876" lon="23.365396"><ele>2563.9</ele><time>2026-03-02T08:43:47.000Z</time></trkpt>
<trkpt lat="42.172873" lon="23.365389"><ele>2563.9</ele><time>2026-03-02T08:43:48.000Z</time></trkpt>
<trkpt lat="42.17287" lon="23.365381"><ele>2563.9</ele><time>2026-03-02T08:43:49.000Z</time></trkpt>
<trkpt lat="42.172868" lon="23.365374"><ele>2565.2</ele><time>2026-03-02T08:43:50.000Z</time></trkpt>
<trkpt lat="42.172865" lon="23.365366"><ele>2565.2</ele><time>2026-03-02T08:43:51.000Z</time></trkpt>
<trkpt lat="42.172862" lon="23.36536"><ele>2565.2</ele><time>2026-03-02T08:43:52.000Z</time></trkpt>
<trkpt lat="42.172859" lon="23.365353"><ele>2565.2</ele><time>2026-03-02T08:43:53.000Z</time></trkpt>
<trkpt lat="42.172856" lon="23.365347"><ele>2565.2</ele><time>2026-03-02T08:43:54.000Z</time></trkpt>
<trkpt lat="42.172853" lon="23.365341"><ele>2565.8</ele><time>2026-03-02T08:43:55.000Z</time></trkpt>
<trkpt lat="42.17285" lon="23.365334"><ele>2565.8</ele><time>2026-03-02T08:43:56.000Z</time></trkpt>
<trkpt lat="42.172846" lon="23.365328"><ele>2565.8</ele><time>2026-03-02T08:43:57.000Z</time></trkpt>
<trkpt lat="42.172842" lon="23.365321"><ele>2565.8</ele><time>2026-03-02T08:43:58.000Z</time></trkpt>
<trkpt lat="42.172838" lon="23.365315"><ele>2565.8</ele><time>2026-03-02T08:43:59.000Z</time></trkpt>
<trkpt lat="42.172833" lon="23.36531"><ele>2567.1</ele><time>2026-03-02T08:44:00.000Z</time></trkpt>
<trkpt lat="42.172829" lon="23.365306"><ele>2567.1</ele><time>2026-03-02T08:44:01.000Z</time></trkpt>
<trkpt lat="42.172824" lon="23.365301"><ele>2567.1</ele><time>2026-03-02T08:44:02.000Z</time></trkpt>
<trkpt lat="42.17282" lon="23.365297"><ele>2567.1</ele><time>2026-03-02T08:44:03.000Z</time></trkpt>
<trkpt lat="42.172815" lon="23.365293"><ele>2567.1</ele><time>2026-03-02T08:44:04.000Z</time></trkpt>
<trkpt lat="42.172811" lon="23.36529"><ele>2568.3</ele><time>2026-03-02T08:44:05.000Z</time></trkpt>
<trkpt lat="42.172806" lon="23.365286"><ele>2568.3</ele><time>2026-03-02T08:44:06.000Z</time></trkpt>
<trkpt lat="42.172801" lon="23.365282"><ele>2568.3</ele><time>2026-03-02T08:44:07.000Z</time></trkpt>
<trkpt lat="42.172797" lon="23.36528"><ele>2568.3</ele><time>2026-03-02T08:44:08.000Z</time></trkpt>
<trkpt lat="42.172792" lon="23.365278"><ele>2568.3</ele><time>2026-03-02T08:44:09.000Z</time></trkpt>
<trkpt lat="42.172788" lon="23.365277"><ele>2568.8</ele><time>2026-03-02T08:44:10.000Z</time></trkpt>
<trkpt lat="42.172783" lon="23.365275"><ele>2568.8</ele><time>2026-03-02T08:44:11.000Z</time></trkpt>
<trkpt lat="42.172779" lon="23.365274"><ele>2568.8</ele><time>2026-03-02T08:44:12.000Z</time></trkpt>
<trkpt lat="42.172774" lon="23.365272"><ele>2568.8</ele><time>2026-03-02T08:44:13.000Z</time></trkpt>
<trkpt lat="42.172769" lon="23.365269"><ele>2568.8</ele><time>2026-03-02T08:44:14.000Z</time></trkpt>
<trkpt lat="42.172764" lon="23.365267"><ele>2569.8</ele><time>2026-03-02T08:44:15.000Z</time></trkpt>
<trkpt lat="42.172758" lon="23.365264"><ele>2569.8</ele><time>2026-03-02T08:44:16.000Z</time></trkpt>
<trkpt lat="42.172752" lon="23.365262"><ele>2569.8</ele><time>2026-03-02T08:44:17.000Z</time></trkpt>
<trkpt lat="42.172748" lon="23.36526"><ele>2569.8</ele><time>2026-03-02T08:44:18.000Z</time></trkpt>
<trkpt lat="42.172744" lon="23.365259"><ele>2569.8</ele><time>2026-03-02T08:44:19.000Z</time></trkpt>
<trkpt lat="42.172742" lon="23.365259"><ele>2570.6</ele><time>2026-03-02T08:44:20.000Z</time></trkpt>
<trkpt lat="42.17274" lon="23.365259"><ele>2570.6</ele><time>2026-03-02T08:44:21.000Z</time></trkpt>
<trkpt lat="42.17274" lon="23.365259"><ele>2570.6</ele><time>2026-03-02T08:44:22.000Z</time></trkpt>
<trkpt lat="42.17274" lon="23.36526"><ele>2570.6</ele><time>2026-03-02T08:44:23.000Z</time></trkpt>
<trkpt lat="42.17274" lon="23.36526"><ele>2570.6</ele><time>2026-03-02T08:44:24.000Z</time></trkpt>
<trkpt lat="42.17274" lon="23.36526"><ele>2571</ele><time>2026-03-02T08:44:25.000Z</time></trkpt>
<trkpt lat="42.17274" lon="23.36526"><ele>2571</ele><time>2026-03-02T08:44:26.000Z</time></trkpt>
<trkpt lat="42.17274" lon="23.36526"><ele>2571</ele><time>2026-03-02T08:44:27.000Z</time></trkpt>
<trkpt lat="42.17274" lon="23.365259"><ele>2571</ele><time>2026-03-02T08:44:28.000Z</time></trkpt>
<trkpt lat="42.17274" lon="23.365259"><ele>2571</ele><time>2026-03-02T08:44:29.000Z</time></trkpt>
<trkpt lat="42.17274" lon="23.365259"><ele>2571.5</ele><time>2026-03-02T08:44:30.000Z</time></trkpt>
<trkpt lat="42.17274" lon="23.365259"><ele>2571.5</ele><time>2026-03-02T08:44:31.000Z</time></trkpt>
<trkpt lat="42.17274" lon="23.365259"><ele>2571.5</ele><time>2026-03-02T08:44:32.000Z</time></trkpt>
<trkpt lat="42.17274" lon="23.365259"><ele>2571.5</ele><time>2026-03-02T08:44:33.000Z</time></trkpt>
<trkpt lat="42.17274" lon="23.365259"><ele>2571.5</ele><time>2026-03-02T08:44:34.000Z</time></trkpt>
<trkpt lat="42.17274" lon="23.365259"><ele>2571.8</ele><time>2026-03-02T08:44:35.000Z</time></trkpt>
<trkpt lat="42.17274" lon="23.365259"><ele>2571.8</ele><time>2026-03-02T08:44:36.000Z</time></trkpt>
<trkpt lat="42.17274" lon="23.365259"><ele>2571.8</ele><time>2026-03-02T08:44:37.000Z</time></trkpt>
<trkpt lat="42.17274" lon="23.365259"><ele>2571.8</ele><time>2026-03-02T08:44:38.000Z</time></trkpt>
<trkpt lat="42.17274" lon="23.365259"><ele>2571.8</ele><time>2026-03-02T08:44:39.000Z</time></trkpt>
<trkpt lat="42.17274" lon="23.365259"><ele>2571.9</ele><time>2026-03-02T08:44:40.000Z</time></trkpt>
<trkpt lat="42.17274" lon="23.365259"><ele>2571.9</ele><time>2026-03-02T08:44:41.000Z</time></trkpt>
<trkpt lat="42.17274" lon="23.365258"><ele>2571.9</ele><time>2026-03-02T08:44:42.000Z</time></trkpt>
<trkpt lat="42.17274" lon="23.365258"><ele>2571.9</ele><time>2026-03-02T08:44:43.000Z</time></trkpt>
<trkpt lat="42.172739" lon="23.365258"><ele>2571.9</ele><time>2026-03-02T08:44:44.000Z</time></trkpt>
<trkpt lat="42.172739" lon="23.365258"><ele>2571.8</ele><time>2026-03-02T08:44:45.000Z</time></trkpt>
<trkpt lat="42.172739" lon="23.365258"><ele>2571.8</ele><time>2026-03-02T08:44:46.000Z</time></trkpt>
<trkpt lat="42.172738" lon="23.365259"><ele>2571.8</ele><time>2026-03-02T08:44:47.000Z</time></trkpt>
<trkpt lat="42.172737" lon="23.365259"><ele>2571.8</ele><time>2026-03-02T08:44:48.000Z</time></trkpt>
<trkpt lat="42.172735" lon="23.365258"><ele>2571.8</ele><time>2026-03-02T08:44:49.000Z</time></trkpt>
<trkpt lat="42.172733" lon="23.365256"><ele>2571.7</ele><time>2026-03-02T08:44:50.000Z</time></trkpt>
<trkpt lat="42.172732" lon="23.365255"><ele>2571.7</ele><time>2026-03-02T08:44:51.000Z</time></trkpt>
<trkpt lat="42.172731" lon="23.365253"><ele>2571.7</ele><time>2026-03-02T08:44:52.000Z</time></trkpt>
<trkpt lat="42.172732" lon="23.365252"><ele>2571.7</ele><time>2026-03-02T08:44:53.000Z</time></trkpt>
<trkpt lat="42.172734" lon="23.365252"><ele>2571.7</ele><time>2026-03-02T08:44:54.000Z</time></trkpt>
<trkpt lat="42.172734" lon="23.365252"><ele>2571.6</ele><time>2026-03-02T08:44:55.000Z</time></trkpt>
<trkpt lat="42.172734" lon="23.365252"><ele>2571.6</ele><time>2026-03-02T08:44:56.000Z</time></trkpt>
<trkpt lat="42.172734" lon="23.365252"><ele>2571.6</ele><time>2026-03-02T08:44:57.000Z</time></trkpt>
<trkpt lat="42.172734" lon="23.365252"><ele>2571.6</ele><time>2026-03-02T08:44:58.000Z</time></trkpt>
<trkpt lat="42.172734" lon="23.365252"><ele>2571.6</ele><time>2026-03-02T08:44:59.000Z</time></trkpt>
<trkpt lat="42.172734" lon="23.365252"><ele>2571.7</ele><time>2026-03-02T08:45:00.000Z</time></trkpt>
<trkpt lat="42.172734" lon="23.365252"><ele>2571.7</ele><time>2026-03-02T08:45:01.000Z</time></trkpt>
<trkpt lat="42.172732" lon="23.365253"><ele>2571.7</ele><time>2026-03-02T08:45:02.000Z</time></trkpt>
<trkpt lat="42.172728" lon="23.365253"><ele>2571.7</ele><time>2026-03-02T08:45:03.000Z</time></trkpt>
<trkpt lat="42.172722" lon="23.365254"><ele>2571.7</ele><time>2026-03-02T08:45:04.000Z</time></trkpt>
<trkpt lat="42.172715" lon="23.365256"><ele>2571.8</ele><time>2026-03-02T08:45:05.000Z</time></trkpt>
<trkpt lat="42.172704" lon="23.365258"><ele>2571.8</ele><time>2026-03-02T08:45:06.000Z</time></trkpt>
<trkpt lat="42.172694" lon="23.36526"><ele>2571.8</ele><time>2026-03-02T08:45:07.000Z</time></trkpt>
<trkpt lat="42.172686" lon="23.365262"><ele>2571.8</ele><time>2026-03-02T08:45:08.000Z</time></trkpt>
<trkpt lat="42.172679" lon="23.365264"><ele>2571.8</ele><time>2026-03-02T08:45:09.000Z</time></trkpt>
<trkpt lat="42.172672" lon="23.365266"><ele>2571.9</ele><time>2026-03-02T08:45:10.000Z</time></trkpt>
<trkpt lat="42.172666" lon="23.365269"><ele>2571.9</ele><time>2026-03-02T08:45:11.000Z</time></trkpt>
<trkpt lat="42.172662" lon="23.365272"><ele>2571.9</ele><time>2026-03-02T08:45:12.000Z</time></trkpt>
<trkpt lat="42.172657" lon="23.365276"><ele>2571.9</ele><time>2026-03-02T08:45:13.000Z</time></trkpt>
<trkpt lat="42.172653" lon="23.365279"><ele>2571.9</ele><time>2026-03-02T08:45:14.000Z</time></trkpt>
<trkpt lat="42.17265" lon="23.365283"><ele>2572.2</ele><time>2026-03-02T08:45:15.000Z</time></trkpt>
<trkpt lat="42.172648" lon="23.365287"><ele>2572.2</ele><time>2026-03-02T08:45:16.000Z</time></trkpt>
<trkpt lat="42.172646" lon="23.36529"><ele>2572.2</ele><time>2026-03-02T08:45:17.000Z</time></trkpt>
<trkpt lat="42.172645" lon="23.365293"><ele>2572.2</ele><time>2026-03-02T08:45:18.000Z</time></trkpt>
<trkpt lat="42.172643" lon="23.365296"><ele>2572.2</ele><time>2026-03-02T08:45:19.000Z</time></trkpt>
<trkpt lat="42.172641" lon="23.3653"><ele>2572.9</ele><time>2026-03-02T08:45:20.000Z</time></trkpt>
<trkpt lat="42.172639" lon="23.365303"><ele>2572.9</ele><time>2026-03-02T08:45:21.000Z</time></trkpt>
<trkpt lat="42.172637" lon="23.365306"><ele>2572.9</ele><time>2026-03-02T08:45:22.000Z</time></trkpt>
<trkpt lat="42.172635" lon="23.36531"><ele>2572.9</ele><time>2026-03-02T08:45:23.000Z</time></trkpt>
<trkpt lat="42.172633" lon="23.365316"><ele>2572.9</ele><time>2026-03-02T08:45:24.000Z</time></trkpt>
<trkpt lat="42.172631" lon="23.365324"><ele>2573.3</ele><time>2026-03-02T08:45:25.000Z</time></trkpt>
<trkpt lat="42.172629" lon="23.365333"><ele>2573.3</ele><time>2026-03-02T08:45:26.000Z</time></trkpt>
<trkpt lat="42.172627" lon="23.365343"><ele>2573.3</ele><time>2026-03-02T08:45:27.000Z</time></trkpt>
<trkpt lat="42.172626" lon="23.365351"><ele>2573.3</ele><time>2026-03-02T08:45:28.000Z</time></trkpt>
<trkpt lat="42.172624" lon="23.365359"><ele>2573.3</ele><time>2026-03-02T08:45:29.000Z</time></trkpt>
<trkpt lat="42.172623" lon="23.365364"><ele>2574.4</ele><time>2026-03-02T08:45:30.000Z</time></trkpt>
<trkpt lat="42.17262" lon="23.365369"><ele>2574.4</ele><time>2026-03-02T08:45:31.000Z</time></trkpt>
<trkpt lat="42.172619" lon="23.365372"><ele>2574.4</ele><time>2026-03-02T08:45:32.000Z</time></trkpt>
<trkpt lat="42.172616" lon="23.365375"><ele>2574.4</ele><time>2026-03-02T08:45:33.000Z</time></trkpt>
<trkpt lat="42.172614" lon="23.365379"><ele>2574.4</ele><time>2026-03-02T08:45:34.000Z</time></trkpt>
<trkpt lat="42.172612" lon="23.365383"><ele>2575.6</ele><time>2026-03-02T08:45:35.000Z</time></trkpt>
<trkpt lat="42.172611" lon="23.365388"><ele>2575.6</ele><time>2026-03-02T08:45:36.000Z</time></trkpt>
<trkpt lat="42.17261" lon="23.365395"><ele>2575.6</ele><time>2026-03-02T08:45:37.000Z</time></trkpt>
<trkpt lat="42.172607" lon="23.365402"><ele>2575.6</ele><time>2026-03-02T08:45:38.000Z</time></trkpt>
<trkpt lat="42.172605" lon="23.365409"><ele>2575.6</ele><time>2026-03-02T08:45:39.000Z</time></trkpt>
<trkpt lat="42.172603" lon="23.365417"><ele>2576.2</ele><time>2026-03-02T08:45:40.000Z</time></trkpt>
<trkpt lat="42.172599" lon="23.365425"><ele>2576.2</ele><time>2026-03-02T08:45:41.000Z</time></trkpt>
<trkpt lat="42.172596" lon="23.365433"><ele>2576.2</ele><time>2026-03-02T08:45:42.000Z</time></trkpt>
<trkpt lat="42.172592" lon="23.365441"><ele>2576.2</ele><time>2026-03-02T08:45:43.000Z</time></trkpt>
<trkpt lat="42.172589" lon="23.36545"><ele>2576.2</ele><time>2026-03-02T08:45:44.000Z</time></trkpt>
<trkpt lat="42.172585" lon="23.365458"><ele>2577.3</ele><time>2026-03-02T08:45:45.000Z</time></trkpt>
<trkpt lat="42.172581" lon="23.365465"><ele>2577.3</ele><time>2026-03-02T08:45:46.000Z</time></trkpt>
<trkpt lat="42.172577" lon="23.365472"><ele>2577.3</ele><time>2026-03-02T08:45:47.000Z</time></trkpt>
<trkpt lat="42.172572" lon="23.365477"><ele>2577.3</ele><time>2026-03-02T08:45:48.000Z</time></trkpt>
<trkpt lat="42.172568" lon="23.365482"><ele>2577.3</ele><time>2026-03-02T08:45:49.000Z</time></trkpt>
<trkpt lat="42.172563" lon="23.365485"><ele>2578.3</ele><time>2026-03-02T08:45:50.000Z</time></trkpt>
<trkpt lat="42.172557" lon="23.365489"><ele>2578.3</ele><time>2026-03-02T08:45:51.000Z</time></trkpt>
<trkpt lat="42.172552" lon="23.365493"><ele>2578.3</ele><time>2026-03-02T08:45:52.000Z</time></trkpt>
<trkpt lat="42.172547" lon="23.365496"><ele>2578.3</ele><time>2026-03-02T08:45:53.000Z</time></trkpt>
<trkpt lat="42.172541" lon="23.365498"><ele>2578.3</ele><time>2026-03-02T08:45:54.000Z</time></trkpt>
<trkpt lat="42.172537" lon="23.365501"><ele>2578.8</ele><time>2026-03-02T08:45:55.000Z</time></trkpt>
<trkpt lat="42.172532" lon="23.365503"><ele>2578.8</ele><time>2026-03-02T08:45:56.000Z</time></trkpt>
<trkpt lat="42.172526" lon="23.365505"><ele>2578.8</ele><time>2026-03-02T08:45:57.000Z</time></trkpt>
<trkpt lat="42.17252" lon="23.365509"><ele>2578.8</ele><time>2026-03-02T08:45:58.000Z</time></trkpt>
<trkpt lat="42.172515" lon="23.365512"><ele>2578.8</ele><time>2026-03-02T08:45:59.000Z</time></trkpt>
<trkpt lat="42.172508" lon="23.365515"><ele>2579.7</ele><time>2026-03-02T08:46:00.000Z</time></trkpt>
<trkpt lat="42.172503" lon="23.365519"><ele>2579.7</ele><time>2026-03-02T08:46:01.000Z</time></trkpt>
<trkpt lat="42.172497" lon="23.365522"><ele>2579.7</ele><time>2026-03-02T08:46:02.000Z</time></trkpt>
<trkpt lat="42.172491" lon="23.365525"><ele>2579.7</ele><time>2026-03-02T08:46:03.000Z</time></trkpt>
<trkpt lat="42.172486" lon="23.365528"><ele>2579.7</ele><time>2026-03-02T08:46:04.000Z</time></trkpt>
<trkpt lat="42.172481" lon="23.365531"><ele>2581</ele><time>2026-03-02T08:46:05.000Z</time></trkpt>
<trkpt lat="42.172476" lon="23.365533"><ele>2581</ele><time>2026-03-02T08:46:06.000Z</time></trkpt>
<trkpt lat="42.172471" lon="23.365535"><ele>2581</ele><time>2026-03-02T08:46:07.000Z</time></trkpt>
<trkpt lat="42.172466" lon="23.365537"><ele>2581</ele><time>2026-03-02T08:46:08.000Z</time></trkpt>
<trkpt lat="42.172462" lon="23.365538"><ele>2581</ele><time>2026-03-02T08:46:09.000Z</time></trkpt>
<trkpt lat="42.172457" lon="23.36554"><ele>2581.7</ele><time>2026-03-02T08:46:10.000Z</time></trkpt>
<trkpt lat="42.172453" lon="23.365542"><ele>2581.7</ele><time>2026-03-02T08:46:11.000Z</time></trkpt>
<trkpt lat="42.172448" lon="23.365544"><ele>2581.7</ele><time>2026-03-02T08:46:12.000Z</time></trkpt>
<trkpt lat="42.172443" lon="23.365547"><ele>2581.7</ele><time>2026-03-02T08:46:13.000Z</time></trkpt>
<trkpt lat="42.172439" lon="23.36555"><ele>2581.7</ele><time>2026-03-02T08:46:14.000Z</time></trkpt>
<trkpt lat="42.172434" lon="23.365554"><ele>2582.9</ele><time>2026-03-02T08:46:15.000Z</time></trkpt>
<trkpt lat="42.172429" lon="23.365557"><ele>2582.9</ele><time>2026-03-02T08:46:16.000Z</time></trkpt>
<trkpt lat="42.172424" lon="23.36556"><ele>2582.9</ele><time>2026-03-02T08:46:17.000Z</time></trkpt>
<trkpt lat="42.17242" lon="23.365563"><ele>2582.9</ele><time>2026-03-02T08:46:18.000Z</time></trkpt>
<trkpt lat="42.172414" lon="23.365565"><ele>2582.9</ele><time>2026-03-02T08:46:19.000Z</time></trkpt>
<trkpt lat="42.17241" lon="23.365567"><ele>2583.8</ele><time>2026-03-02T08:46:20.000Z</time></trkpt>
<trkpt lat="42.172406" lon="23.365569"><ele>2583.8</ele><time>2026-03-02T08:46:21.000Z</time></trkpt>
<trkpt lat="42.172403" lon="23.365572"><ele>2583.8</ele><time>2026-03-02T08:46:22.000Z</time></trkpt>
<trkpt lat="42.1724" lon="23.365575"><ele>2583.8</ele><time>2026-03-02T08:46:23.000Z</time></trkpt>
<trkpt lat="42.172398" lon="23.365578"><ele>2583.8</ele><time>2026-03-02T08:46:24.000Z</time></trkpt>
<trkpt lat="42.172396" lon="23.36558"><ele>2584.2</ele><time>2026-03-02T08:46:25.000Z</time></trkpt>
<trkpt lat="42.172395" lon="23.365581"><ele>2584.2</ele><time>2026-03-02T08:46:26.000Z</time></trkpt>
<trkpt lat="42.172394" lon="23.365583"><ele>2584.2</ele><time>2026-03-02T08:46:27.000Z</time></trkpt>
<trkpt lat="42.172394" lon="23.365584"><ele>2584.2</ele><time>2026-03-02T08:46:28.000Z</time></trkpt>
<trkpt lat="42.172395" lon="23.365586"><ele>2584.2</ele><time>2026-03-02T08:46:29.000Z</time></trkpt>
<trkpt lat="42.172395" lon="23.365589"><ele>2585.1</ele><time>2026-03-02T08:46:30.000Z</time></trkpt>
<trkpt lat="42.172395" lon="23.365591"><ele>2585.1</ele><time>2026-03-02T08:46:31.000Z</time></trkpt>
<trkpt lat="42.172395" lon="23.365592"><ele>2585.1</ele><time>2026-03-02T08:46:32.000Z</time></trkpt>
<trkpt lat="42.172395" lon="23.365593"><ele>2585.1</ele><time>2026-03-02T08:46:33.000Z</time></trkpt>
<trkpt lat="42.172395" lon="23.365593"><ele>2585.1</ele><time>2026-03-02T08:46:34.000Z</time></trkpt>
<trkpt lat="42.172395" lon="23.365593"><ele>2585.9</ele><time>2026-03-02T08:46:35.000Z</time></trkpt>
<trkpt lat="42.172395" lon="23.365593"><ele>2585.9</ele><time>2026-03-02T08:46:36.000Z</time></trkpt>
<trkpt lat="42.172394" lon="23.365594"><ele>2585.9</ele><time>2026-03-02T08:46:37.000Z</time></trkpt>
<trkpt lat="42.172394" lon="23.365594"><ele>2585.9</ele><time>2026-03-02T08:46:38.000Z</time></trkpt>
<trkpt lat="42.172394" lon="23.365595"><ele>2585.9</ele><time>2026-03-02T08:46:39.000Z</time></trkpt>
<trkpt lat="42.172393" lon="23.365596"><ele>2586.1</ele><time>2026-03-02T08:46:40.000Z</time></trkpt>
<trkpt lat="42.172393" lon="23.365596"><ele>2586.1</ele><time>2026-03-02T08:46:41.000Z</time></trkpt>
<trkpt lat="42.172393" lon="23.365596"><ele>2586.1</ele><time>2026-03-02T08:46:42.000Z</time></trkpt>
<trkpt lat="42.172392" lon="23.365596"><ele>2586.1</ele><time>2026-03-02T08:46:43.000Z</time></trkpt>
<trkpt lat="42.172392" lon="23.365596"><ele>2586.1</ele><time>2026-03-02T08:46:44.000Z</time></trkpt>
<trkpt lat="42.172392" lon="23.365596"><ele>2586.2</ele><time>2026-03-02T08:46:45.000Z</time></trkpt>
<trkpt lat="42.172392" lon="23.365596"><ele>2586.2</ele><time>2026-03-02T08:46:46.000Z</time></trkpt>
<trkpt lat="42.172392" lon="23.365596"><ele>2586.2</ele><time>2026-03-02T08:46:47.000Z</time></trkpt>
<trkpt lat="42.172392" lon="23.365596"><ele>2586.2</ele><time>2026-03-02T08:46:48.000Z</time></trkpt>
<trkpt lat="42.172392" lon="23.365596"><ele>2586.2</ele><time>2026-03-02T08:46:49.000Z</time></trkpt>
<trkpt lat="42.172392" lon="23.365596"><ele>2586.1</ele><time>2026-03-02T08:46:50.000Z</time></trkpt>
<trkpt lat="42.172392" lon="23.365596"><ele>2586.1</ele><time>2026-03-02T08:46:51.000Z</time></trkpt>
<trkpt lat="42.172392" lon="23.365596"><ele>2586.1</ele><time>2026-03-02T08:46:52.000Z</time></trkpt>
<trkpt lat="42.172392" lon="23.365596"><ele>2586.1</ele><time>2026-03-02T08:46:53.000Z</time></trkpt>
<trkpt lat="42.172392" lon="23.365596"><ele>2586.1</ele><time>2026-03-02T08:46:54.000Z</time></trkpt>
<trkpt lat="42.172392" lon="23.365596"><ele>2586.1</ele><time>2026-03-02T08:46:55.000Z</time></trkpt>
<trkpt lat="42.172392" lon="23.365596"><ele>2586.1</ele><time>2026-03-02T08:46:56.000Z</time></trkpt>
<trkpt lat="42.172392" lon="23.365596"><ele>2586.1</ele><time>2026-03-02T08:46:57.000Z</time></trkpt>
<trkpt lat="42.172392" lon="23.365596"><ele>2586.1</ele><time>2026-03-02T08:46:58.000Z</time></trkpt>
<trkpt lat="42.172392" lon="23.365596"><ele>2586.1</ele><time>2026-03-02T08:46:59.000Z</time></trkpt>
<trkpt lat="42.172392" lon="23.365596"><ele>2586</ele><time>2026-03-02T08:47:00.000Z</time></trkpt>
<trkpt lat="42.172391" lon="23.365596"><ele>2586</ele><time>2026-03-02T08:47:01.000Z</time></trkpt>
<trkpt lat="42.172391" lon="23.365596"><ele>2586</ele><time>2026-03-02T08:47:02.000Z</time></trkpt>
<trkpt lat="42.172391" lon="23.365596"><ele>2586</ele><time>2026-03-02T08:47:03.000Z</time></trkpt>
<trkpt lat="42.172391" lon="23.365596"><ele>2586</ele><time>2026-03-02T08:47:04.000Z</time></trkpt>
<trkpt lat="42.172391" lon="23.365596"><ele>2586</ele><time>2026-03-02T08:47:05.000Z</time></trkpt>
<trkpt lat="42.172391" lon="23.365596"><ele>2586</ele><time>2026-03-02T08:47:06.000Z</time></trkpt>
<trkpt lat="42.172391" lon="23.365596"><ele>2586</ele><time>2026-03-02T08:47:07.000Z</time></trkpt>
<trkpt lat="42.172391" lon="23.365597"><ele>2586</ele><time>2026-03-02T08:47:08.000Z</time></trkpt>
<trkpt lat="42.172391" lon="23.365597"><ele>2586</ele><time>2026-03-02T08:47:09.000Z</time></trkpt>
<trkpt lat="42.172391" lon="23.365597"><ele>2585.9</ele><time>2026-03-02T08:47:10.000Z</time></trkpt>
<trkpt lat="42.17239" lon="23.365598"><ele>2585.9</ele><time>2026-03-02T08:47:11.000Z</time></trkpt>
<trkpt lat="42.172388" lon="23.365599"><ele>2585.9</ele><time>2026-03-02T08:47:12.000Z</time></trkpt>
<trkpt lat="42.172384" lon="23.3656"><ele>2585.9</ele><time>2026-03-02T08:47:13.000Z</time></trkpt>
<trkpt lat="42.172379" lon="23.365602"><ele>2585.9</ele><time>2026-03-02T08:47:14.000Z</time></trkpt>
<trkpt lat="42.172374" lon="23.365604"><ele>2585.9</ele><time>2026-03-02T08:47:15.000Z</time></trkpt>
<trkpt lat="42.172368" lon="23.365605"><ele>2585.9</ele><time>2026-03-02T08:47:16.000Z</time></trkpt>
<trkpt lat="42.172362" lon="23.365606"><ele>2585.9</ele><time>2026-03-02T08:47:17.000Z</time></trkpt>
<trkpt lat="42.172357" lon="23.365606"><ele>2585.9</ele><time>2026-03-02T08:47:18.000Z</time></trkpt>
<trkpt lat="42.172353" lon="23.365606"><ele>2585.9</ele><time>2026-03-02T08:47:19.000Z</time></trkpt>
<trkpt lat="42.172349" lon="23.365604"><ele>2586</ele><time>2026-03-02T08:47:20.000Z</time></trkpt>
<trkpt lat="42.172345" lon="23.365603"><ele>2586</ele><time>2026-03-02T08:47:21.000Z</time></trkpt>
<trkpt lat="42.17234" lon="23.3656"><ele>2586</ele><time>2026-03-02T08:47:22.000Z</time></trkpt>
<trkpt lat="42.172335" lon="23.365597"><ele>2586</ele><time>2026-03-02T08:47:23.000Z</time></trkpt>
<trkpt lat="42.17233" lon="23.365596"><ele>2586</ele><time>2026-03-02T08:47:24.000Z</time></trkpt>
<trkpt lat="42.172325" lon="23.365595"><ele>2586.1</ele><time>2026-03-02T08:47:25.000Z</time></trkpt>
<trkpt lat="42.17232" lon="23.365594"><ele>2586.1</ele><time>2026-03-02T08:47:26.000Z</time></trkpt>
<trkpt lat="42.172315" lon="23.365594"><ele>2586.1</ele><time>2026-03-02T08:47:27.000Z</time></trkpt>
<trkpt lat="42.17231" lon="23.365595"><ele>2586.1</ele><time>2026-03-02T08:47:28.000Z</time></trkpt>
<trkpt lat="42.172306" lon="23.365595"><ele>2586.1</ele><time>2026-03-02T08:47:29.000Z</time></trkpt>
<trkpt lat="42.172302" lon="23.365595"><ele>2586.8</ele><time>2026-03-02T08:47:30.000Z</time></trkpt>
<trkpt lat="42.172298" lon="23.365596"><ele>2586.8</ele><time>2026-03-02T08:47:31.000Z</time></trkpt>
<trkpt lat="42.172295" lon="23.365597"><ele>2586.8</ele><time>2026-03-02T08:47:32.000Z</time></trkpt>
<trkpt lat="42.172291" lon="23.365598"><ele>2586.8</ele><time>2026-03-02T08:47:33.000Z</time></trkpt>
<trkpt lat="42.172288" lon="23.365599"><ele>2586.8</ele><time>2026-03-02T08:47:34.000Z</time></trkpt>
<trkpt lat="42.172284" lon="23.3656"><ele>2587.9</ele><time>2026-03-02T08:47:35.000Z</time></trkpt>
<trkpt lat="42.172281" lon="23.365602"><ele>2587.9</ele><time>2026-03-02T08:47:36.000Z</time></trkpt>
<trkpt lat="42.172277" lon="23.365605"><ele>2587.9</ele><time>2026-03-02T08:47:37.000Z</time></trkpt>
<trkpt lat="42.172274" lon="23.365608"><ele>2587.9</ele><time>2026-03-02T08:47:38.000Z</time></trkpt>
<trkpt lat="42.172271" lon="23.365611"><ele>2587.9</ele><time>2026-03-02T08:47:39.000Z</time></trkpt>
<trkpt lat="42.172268" lon="23.365616"><ele>2588.4</ele><time>2026-03-02T08:47:40.000Z</time></trkpt>
<trkpt lat="42.172265" lon="23.36562"><ele>2588.4</ele><time>2026-03-02T08:47:41.000Z</time></trkpt>
<trkpt lat="42.172262" lon="23.365624"><ele>2588.4</ele><time>2026-03-02T08:47:42.000Z</time></trkpt>
<trkpt lat="42.172258" lon="23.365627"><ele>2588.4</ele><time>2026-03-02T08:47:43.000Z</time></trkpt>
<trkpt lat="42.172255" lon="23.365631"><ele>2588.4</ele><time>2026-03-02T08:47:44.000Z</time></trkpt>
<trkpt lat="42.172252" lon="23.365634"><ele>2589.4</ele><time>2026-03-02T08:47:45.000Z</time></trkpt>
<trkpt lat="42.172249" lon="23.365636"><ele>2589.4</ele><time>2026-03-02T08:47:46.000Z</time></trkpt>
<trkpt lat="42.172245" lon="23.365637"><ele>2589.4</ele><time>2026-03-02T08:47:47.000Z</time></trkpt>
<trkpt lat="42.172242" lon="23.365637"><ele>2589.4</ele><time>2026-03-02T08:47:48.000Z</time></trkpt>
<trkpt lat="42.172239" lon="23.365638"><ele>2589.4</ele><time>2026-03-02T08:47:49.000Z</time></trkpt>
<trkpt lat="42.172237" lon="23.36564"><ele>2590.3</ele><time>2026-03-02T08:47:50.000Z</time></trkpt>
<trkpt lat="42.172234" lon="23.365642"><ele>2590.3</ele><time>2026-03-02T08:47:51.000Z</time></trkpt>
<trkpt lat="42.172232" lon="23.365647"><ele>2590.3</ele><time>2026-03-02T08:47:52.000Z</time></trkpt>
<trkpt lat="42.172229" lon="23.365651"><ele>2590.3</ele><time>2026-03-02T08:47:53.000Z</time></trkpt>
<trkpt lat="42.172226" lon="23.365655"><ele>2590.3</ele><time>2026-03-02T08:47:54.000Z</time></trkpt>
<trkpt lat="42.172224" lon="23.365657"><ele>2590.8</ele><time>2026-03-02T08:47:55.000Z</time></trkpt>
<trkpt lat="42.172222" lon="23.365658"><ele>2590.8</ele><time>2026-03-02T08:47:56.000Z</time></trkpt>
<trkpt lat="42.17222" lon="23.365658"><ele>2590.8</ele><time>2026-03-02T08:47:57.000Z</time></trkpt>
<trkpt lat="42.172218" lon="23.365658"><ele>2590.8</ele><time>2026-03-02T08:47:58.000Z</time></trkpt>
<trkpt lat="42.172216" lon="23.365658"><ele>2590.8</ele><time>2026-03-02T08:47:59.000Z</time></trkpt>
<trkpt lat="42.172212" lon="23.365659"><ele>2591.9</ele><time>2026-03-02T08:48:00.000Z</time></trkpt>
<trkpt lat="42.172209" lon="23.36566"><ele>2591.9</ele><time>2026-03-02T08:48:01.000Z</time></trkpt>
<trkpt lat="42.172206" lon="23.365661"><ele>2591.9</ele><time>2026-03-02T08:48:02.000Z</time></trkpt>
<trkpt lat="42.172204" lon="23.365662"><ele>2591.9</ele><time>2026-03-02T08:48:03.000Z</time></trkpt>
<trkpt lat="42.172201" lon="23.365662"><ele>2591.9</ele><time>2026-03-02T08:48:04.000Z</time></trkpt>
<trkpt lat="42.172198" lon="23.365663"><ele>2593.1</ele><time>2026-03-02T08:48:05.000Z</time></trkpt>
<trkpt lat="42.172195" lon="23.365664"><ele>2593.1</ele><time>2026-03-02T08:48:06.000Z</time></trkpt>
<trkpt lat="42.172193" lon="23.365665"><ele>2593.1</ele><time>2026-03-02T08:48:07.000Z</time></trkpt>
<trkpt lat="42.172189" lon="23.365666"><ele>2593.1</ele><time>2026-03-02T08:48:08.000Z</time></trkpt>
<trkpt lat="42.172184" lon="23.365668"><ele>2593.1</ele><time>2026-03-02T08:48:09.000Z</time></trkpt>
<trkpt lat="42.17218" lon="23.365669"><ele>2593.8</ele><time>2026-03-02T08:48:10.000Z</time></trkpt>
<trkpt lat="42.172176" lon="23.365671"><ele>2593.8</ele><time>2026-03-02T08:48:11.000Z</time></trkpt>
<trkpt lat="42.172171" lon="23.365672"><ele>2593.8</ele><time>2026-03-02T08:48:12.000Z</time></trkpt>
<trkpt lat="42.172169" lon="23.365673"><ele>2593.8</ele><time>2026-03-02T08:48:13.000Z</time></trkpt>
<trkpt lat="42.172166" lon="23.365674"><ele>2593.8</ele><time>2026-03-02T08:48:14.000Z</time></trkpt>
<trkpt lat="42.172163" lon="23.365674"><ele>2595</ele><time>2026-03-02T08:48:15.000Z</time></trkpt>
<trkpt lat="42.172161" lon="23.365674"><ele>2595</ele><time>2026-03-02T08:48:16.000Z</time></trkpt>
<trkpt lat="42.17216" lon="23.365675"><ele>2595</ele><time>2026-03-02T08:48:17.000Z</time></trkpt>
<trkpt lat="42.172157" lon="23.365675"><ele>2595</ele><time>2026-03-02T08:48:18.000Z</time></trkpt>
<trkpt lat="42.172156" lon="23.365675"><ele>2595</ele><time>2026-03-02T08:48:19.000Z</time></trkpt>
<trkpt lat="42.172154" lon="23.365675"><ele>2596.1</ele><time>2026-03-02T08:48:20.000Z</time></trkpt>
<trkpt lat="42.172151" lon="23.365676"><ele>2596.1</ele><time>2026-03-02T08:48:21.000Z</time></trkpt>
<trkpt lat="42.172148" lon="23.365676"><ele>2596.1</ele><time>2026-03-02T08:48:22.000Z</time></trkpt>
<trkpt lat="42.172145" lon="23.365678"><ele>2596.1</ele><time>2026-03-02T08:48:23.000Z</time></trkpt>
<trkpt lat="42.172143" lon="23.365678"><ele>2596.1</ele><time>2026-03-02T08:48:24.000Z</time></trkpt>
<trkpt lat="42.172141" lon="23.365678"><ele>2596.6</ele><time>2026-03-02T08:48:25.000Z</time></trkpt>
<trkpt lat="42.17214" lon="23.365679"><ele>2596.6</ele><time>2026-03-02T08:48:26.000Z</time></trkpt>
<trkpt lat="42.172138" lon="23.365679"><ele>2596.6</ele><time>2026-03-02T08:48:27.000Z</time></trkpt>
<trkpt lat="42.172136" lon="23.365679"><ele>2596.6</ele><time>2026-03-02T08:48:28.000Z</time></trkpt>
<trkpt lat="42.172133" lon="23.36568"><ele>2596.6</ele><time>2026-03-02T08:48:29.000Z</time></trkpt>
<trkpt lat="42.17213" lon="23.36568"><ele>2597.5</ele><time>2026-03-02T08:48:30.000Z</time></trkpt>
<trkpt lat="42.172127" lon="23.365682"><ele>2597.5</ele><time>2026-03-02T08:48:31.000Z</time></trkpt>
<trkpt lat="42.172123" lon="23.365684"><ele>2597.5</ele><time>2026-03-02T08:48:32.000Z</time></trkpt>
<trkpt lat="42.17212" lon="23.365685"><ele>2597.5</ele><time>2026-03-02T08:48:33.000Z</time></trkpt>
<trkpt lat="42.172116" lon="23.365686"><ele>2597.5</ele><time>2026-03-02T08:48:34.000Z</time></trkpt>
<trkpt lat="42.172113" lon="23.365688"><ele>2598.4</ele><time>2026-03-02T08:48:35.000Z</time></trkpt>
<trkpt lat="42.172109" lon="23.365691"><ele>2598.4</ele><time>2026-03-02T08:48:36.000Z</time></trkpt>
<trkpt lat="42.172106" lon="23.365693"><ele>2598.4</ele><time>2026-03-02T08:48:37.000Z</time></trkpt>
<trkpt lat="42.172102" lon="23.365694"><ele>2598.4</ele><time>2026-03-02T08:48:38.000Z</time></trkpt>
<trkpt lat="42.172099" lon="23.365695"><ele>2598.4</ele><time>2026-03-02T08:48:39.000Z</time></trkpt>
<trkpt lat="42.172096" lon="23.365696"><ele>2598.8</ele><time>2026-03-02T08:48:40.000Z</time></trkpt>
<trkpt lat="42.172094" lon="23.365695"><ele>2598.8</ele><time>2026-03-02T08:48:41.000Z</time></trkpt>
<trkpt lat="42.17209" lon="23.365696"><ele>2598.8</ele><time>2026-03-02T08:48:42.000Z</time></trkpt>
<trkpt lat="42.172087" lon="23.365697"><ele>2598.8</ele><time>2026-03-02T08:48:43.000Z</time></trkpt>
<trkpt lat="42.172084" lon="23.3657"><ele>2598.8</ele><time>2026-03-02T08:48:44.000Z</time></trkpt>
<trkpt lat="42.172081" lon="23.365703"><ele>2599.9</ele><time>2026-03-02T08:48:45.000Z</time></trkpt>
<trkpt lat="42.172077" lon="23.365706"><ele>2599.9</ele><time>2026-03-02T08:48:46.000Z</time></trkpt>
<trkpt lat="42.172074" lon="23.365709"><ele>2599.9</ele><time>2026-03-02T08:48:47.000Z</time></trkpt>
<trkpt lat="42.17207" lon="23.365714"><ele>2599.9</ele><time>2026-03-02T08:48:48.000Z</time></trkpt>
<trkpt lat="42.172066" lon="23.365718"><ele>2599.9</ele><time>2026-03-02T08:48:49.000Z</time></trkpt>
<trkpt lat="42.172062" lon="23.365723"><ele>2601.2</ele><time>2026-03-02T08:48:50.000Z</time></trkpt>
<trkpt lat="42.17206" lon="23.365728"><ele>2601.2</ele><time>2026-03-02T08:48:51.000Z</time></trkpt>
<trkpt lat="42.172057" lon="23.365733"><ele>2601.2</ele><time>2026-03-02T08:48:52.000Z</time></trkpt>
<trkpt lat="42.172055" lon="23.365737"><ele>2601.2</ele><time>2026-03-02T08:48:53.000Z</time></trkpt>
<trkpt lat="42.172052" lon="23.365742"><ele>2601.2</ele><time>2026-03-02T08:48:54.000Z</time></trkpt>
<trkpt lat="42.17205" lon="23.365746"><ele>2601.8</ele><time>2026-03-02T08:48:55.000Z</time></trkpt>
<trkpt lat="42.172046" lon="23.365751"><ele>2601.8</ele><time>2026-03-02T08:48:56.000Z</time></trkpt>
<trkpt lat="42.172043" lon="23.365756"><ele>2601.8</ele><time>2026-03-02T08:48:57.000Z</time></trkpt>
<trkpt lat="42.17204" lon="23.365762"><ele>2601.8</ele><time>2026-03-02T08:48:58.000Z</time></trkpt>
<trkpt lat="42.172037" lon="23.365767"><ele>2601.8</ele><time>2026-03-02T08:48:59.000Z</time></trkpt>
<trkpt lat="42.172034" lon="23.365772"><ele>2603.1</ele><time>2026-03-02T08:49:00.000Z</time></trkpt>
<trkpt lat="42.172032" lon="23.365777"><ele>2603.1</ele><time>2026-03-02T08:49:01.000Z</time></trkpt>
<trkpt lat="42.172029" lon="23.365782"><ele>2603.1</ele><time>2026-03-02T08:49:02.000Z</time></trkpt>
<trkpt lat="42.172026" lon="23.365787"><ele>2603.1</ele><time>2026-03-02T08:49:03.000Z</time></trkpt>
<trkpt lat="42.172024" lon="23.365792"><ele>2603.1</ele><time>2026-03-02T08:49:04.000Z</time></trkpt>
<trkpt lat="42.17202" lon="23.365797"><ele>2604.1</ele><time>2026-03-02T08:49:05.000Z</time></trkpt>
<trkpt lat="42.172017" lon="23.365801"><ele>2604.1</ele><time>2026-03-02T08:49:06.000Z</time></trkpt>
<trkpt lat="42.172013" lon="23.365807"><ele>2604.1</ele><time>2026-03-02T08:49:07.000Z</time></trkpt>
<trkpt lat="42.17201" lon="23.365812"><ele>2604.1</ele><time>2026-03-02T08:49:08.000Z</time></trkpt>
<trkpt lat="42.172006" lon="23.365819"><ele>2604.1</ele><time>2026-03-02T08:49:09.000Z</time></trkpt>
<trkpt lat="42.172003" lon="23.365826"><ele>2604.6</ele><time>2026-03-02T08:49:10.000Z</time></trkpt>
<trkpt lat="42.172" lon="23.365834"><ele>2604.6</ele><time>2026-03-02T08:49:11.000Z</time></trkpt>
<trkpt lat="42.171997" lon="23.365842"><ele>2604.6</ele><time>2026-03-02T08:49:12.000Z</time></trkpt>
<trkpt lat="42.171994" lon="23.365849"><ele>2604.6</ele><time>2026-03-02T08:49:13.000Z</time></trkpt>
<trkpt lat="42.17199" lon="23.365854"><ele>2604.6</ele><time>2026-03-02T08:49:14.000Z</time></trkpt>
<trkpt lat="42.171987" lon="23.365858"><ele>2605.4</ele><time>2026-03-02T08:49:15.000Z</time></trkpt>
<trkpt lat="42.171984" lon="23.365861"><ele>2605.4</ele><time>2026-03-02T08:49:16.000Z</time></trkpt>
<trkpt lat="42.17198" lon="23.365863"><ele>2605.4</ele><time>2026-03-02T08:49:17.000Z</time></trkpt>
<trkpt lat="42.171976" lon="23.365866"><ele>2605.4</ele><time>2026-03-02T08:49:18.000Z</time></trkpt>
<trkpt lat="42.171972" lon="23.365868"><ele>2605.4</ele><time>2026-03-02T08:49:19.000Z</time></trkpt>
<trkpt lat="42.171967" lon="23.36587"><ele>2606.3</ele><time>2026-03-02T08:49:20.000Z</time></trkpt>
<trkpt lat="42.171962" lon="23.365871"><ele>2606.3</ele><time>2026-03-02T08:49:21.000Z</time></trkpt>
<trkpt lat="42.171957" lon="23.365872"><ele>2606.3</ele><time>2026-03-02T08:49:22.000Z</time></trkpt>
<trkpt lat="42.171954" lon="23.365873"><ele>2606.3</ele><time>2026-03-02T08:49:23.000Z</time></trkpt>
<trkpt lat="42.171949" lon="23.365873"><ele>2606.3</ele><time>2026-03-02T08:49:24.000Z</time></trkpt>
<trkpt lat="42.171946" lon="23.365874"><ele>2606.7</ele><time>2026-03-02T08:49:25.000Z</time></trkpt>
<trkpt lat="42.171942" lon="23.365875"><ele>2606.7</ele><time>2026-03-02T08:49:26.000Z</time></trkpt>
<trkpt lat="42.171939" lon="23.365875"><ele>2606.7</ele><time>2026-03-02T08:49:27.000Z</time></trkpt>
<trkpt lat="42.171934" lon="23.365875"><ele>2606.7</ele><time>2026-03-02T08:49:28.000Z</time></trkpt>
<trkpt lat="42.171931" lon="23.365875"><ele>2606.7</ele><time>2026-03-02T08:49:29.000Z</time></trkpt>
<trkpt lat="42.171926" lon="23.365874"><ele>2607.6</ele><time>2026-03-02T08:49:30.000Z</time></trkpt>
<trkpt lat="42.171923" lon="23.365874"><ele>2607.6</ele><time>2026-03-02T08:49:31.000Z</time></trkpt>
<trkpt lat="42.171919" lon="23.365874"><ele>2607.6</ele><time>2026-03-02T08:49:32.000Z</time></trkpt>
<trkpt lat="42.171916" lon="23.365874"><ele>2607.6</ele><time>2026-03-02T08:49:33.000Z</time></trkpt>
<trkpt lat="42.171913" lon="23.365874"><ele>2607.6</ele><time>2026-03-02T08:49:34.000Z</time></trkpt>
<trkpt lat="42.171911" lon="23.365873"><ele>2608.5</ele><time>2026-03-02T08:49:35.000Z</time></trkpt>
<trkpt lat="42.171909" lon="23.365871"><ele>2608.5</ele><time>2026-03-02T08:49:36.000Z</time></trkpt>
<trkpt lat="42.171908" lon="23.36587"><ele>2608.5</ele><time>2026-03-02T08:49:37.000Z</time></trkpt>
<trkpt lat="42.171907" lon="23.365869"><ele>2608.5</ele><time>2026-03-02T08:49:38.000Z</time></trkpt>
<trkpt lat="42.171906" lon="23.365868"><ele>2608.5</ele><time>2026-03-02T08:49:39.000Z</time></trkpt>
<trkpt lat="42.171905" lon="23.365869"><ele>2608.9</ele><time>2026-03-02T08:49:40.000Z</time></trkpt>
<trkpt lat="42.171904" lon="23.36587"><ele>2608.9</ele><time>2026-03-02T08:49:41.000Z</time></trkpt>
<trkpt lat="42.171903" lon="23.365872"><ele>2608.9</ele><time>2026-03-02T08:49:42.000Z</time></trkpt>
<trkpt lat="42.171903" lon="23.365873"><ele>2608.9</ele><time>2026-03-02T08:49:43.000Z</time></trkpt>
<trkpt lat="42.171903" lon="23.365874"><ele>2608.9</ele><time>2026-03-02T08:49:44.000Z</time></trkpt>
<trkpt lat="42.171904" lon="23.365874"><ele>2609.7</ele><time>2026-03-02T08:49:45.000Z</time></trkpt>
<trkpt lat="42.171904" lon="23.365874"><ele>2609.7</ele><time>2026-03-02T08:49:46.000Z</time></trkpt>
<trkpt lat="42.171904" lon="23.365875"><ele>2609.7</ele><time>2026-03-02T08:49:47.000Z</time></trkpt>
<trkpt lat="42.171903" lon="23.365876"><ele>2609.7</ele><time>2026-03-02T08:49:48.000Z</time></trkpt>
<trkpt lat="42.171901" lon="23.365877"><ele>2609.7</ele><time>2026-03-02T08:49:49.000Z</time></trkpt>
<trkpt lat="42.171898" lon="23.365878"><ele>2610.1</ele><time>2026-03-02T08:49:50.000Z</time></trkpt>
<trkpt lat="42.171893" lon="23.36588"><ele>2610.1</ele><time>2026-03-02T08:49:51.000Z</time></trkpt>
<trkpt lat="42.171887" lon="23.365882"><ele>2610.1</ele><time>2026-03-02T08:49:52.000Z</time></trkpt>
<trkpt lat="42.171882" lon="23.365884"><ele>2610.1</ele><time>2026-03-02T08:49:53.000Z</time></trkpt>
<trkpt lat="42.171876" lon="23.365885"><ele>2610.1</ele><time>2026-03-02T08:49:54.000Z</time></trkpt>
<trkpt lat="42.17187" lon="23.365886"><ele>2610.1</ele><time>2026-03-02T08:49:55.000Z</time></trkpt>
<trkpt lat="42.171865" lon="23.365888"><ele>2610.1</ele><time>2026-03-02T08:49:56.000Z</time></trkpt>
<trkpt lat="42.17186" lon="23.365889"><ele>2610.1</ele><time>2026-03-02T08:49:57.000Z</time></trkpt>
<trkpt lat="42.171855" lon="23.365891"><ele>2610.1</ele><time>2026-03-02T08:49:58.000Z</time></trkpt>
<trkpt lat="42.171851" lon="23.365893"><ele>2610.1</ele><time>2026-03-02T08:49:59.000Z</time></trkpt>
<trkpt lat="42.171846" lon="23.365896"><ele>2610.2</ele><time>2026-03-02T08:50:00.000Z</time></trkpt>
<trkpt lat="42.171841" lon="23.365897"><ele>2610.2</ele><time>2026-03-02T08:50:01.000Z</time></trkpt>
<trkpt lat="42.171836" lon="23.365899"><ele>2610.2</ele><time>2026-03-02T08:50:02.000Z</time></trkpt>
<trkpt lat="42.171831" lon="23.3659"><ele>2610.2</ele><time>2026-03-02T08:50:03.000Z</time></trkpt>
<trkpt lat="42.171826" lon="23.365901"><ele>2610.2</ele><time>2026-03-02T08:50:04.000Z</time></trkpt>
<trkpt lat="42.171822" lon="23.365903"><ele>2610.7</ele><time>2026-03-02T08:50:05.000Z</time></trkpt>
<trkpt lat="42.171817" lon="23.365905"><ele>2610.7</ele><time>2026-03-02T08:50:06.000Z</time></trkpt>
<trkpt lat="42.171812" lon="23.365908"><ele>2610.7</ele><time>2026-03-02T08:50:07.000Z</time></trkpt>
<trkpt lat="42.171808" lon="23.36591"><ele>2610.7</ele><time>2026-03-02T08:50:08.000Z</time></trkpt>
<trkpt lat="42.171804" lon="23.365913"><ele>2610.7</ele><time>2026-03-02T08:50:09.000Z</time></trkpt>
<trkpt lat="42.1718" lon="23.365916"><ele>2611.2</ele><time>2026-03-02T08:50:10.000Z</time></trkpt>
<trkpt lat="42.171795" lon="23.365918"><ele>2611.2</ele><time>2026-03-02T08:50:11.000Z</time></trkpt>
<trkpt lat="42.171791" lon="23.36592"><ele>2611.2</ele><time>2026-03-02T08:50:12.000Z</time></trkpt>
<trkpt lat="42.171788" lon="23.365921"><ele>2611.2</ele><time>2026-03-02T08:50:13.000Z</time></trkpt>
<trkpt lat="42.171786" lon="23.365921"><ele>2611.2</ele><time>2026-03-02T08:50:14.000Z</time></trkpt>
<trkpt lat="42.171784" lon="23.365921"><ele>2612.2</ele><time>2026-03-02T08:50:15.000Z</time></trkpt>
<trkpt lat="42.171784" lon="23.365922"><ele>2612.2</ele><time>2026-03-02T08:50:16.000Z</time></trkpt>
<trkpt lat="42.171784" lon="23.365922"><ele>2612.2</ele><time>2026-03-02T08:50:17.000Z</time></trkpt>
<trkpt lat="42.171784" lon="23.365923"><ele>2612.2</ele><time>2026-03-02T08:50:18.000Z</time></trkpt>
<trkpt lat="42.171784" lon="23.365924"><ele>2612.2</ele><time>2026-03-02T08:50:19.000Z</time></trkpt>
<trkpt lat="42.171784" lon="23.365925"><ele>2613</ele><time>2026-03-02T08:50:20.000Z</time></trkpt>
<trkpt lat="42.171784" lon="23.365925"><ele>2613</ele><time>2026-03-02T08:50:21.000Z</time></trkpt>
<trkpt lat="42.171784" lon="23.365925"><ele>2613</ele><time>2026-03-02T08:50:22.000Z</time></trkpt>
<trkpt lat="42.171784" lon="23.365925"><ele>2613</ele><time>2026-03-02T08:50:23.000Z</time></trkpt>
<trkpt lat="42.171784" lon="23.365925"><ele>2613</ele><time>2026-03-02T08:50:24.000Z</time></trkpt>
<trkpt lat="42.171785" lon="23.365927"><ele>2613.3</ele><time>2026-03-02T08:50:25.000Z</time></trkpt>
<trkpt lat="42.171785" lon="23.365928"><ele>2613.3</ele><time>2026-03-02T08:50:26.000Z</time></trkpt>
<trkpt lat="42.171785" lon="23.365929"><ele>2613.3</ele><time>2026-03-02T08:50:27.000Z</time></trkpt>
<trkpt lat="42.171785" lon="23.36593"><ele>2613.3</ele><time>2026-03-02T08:50:28.000Z</time></trkpt>
<trkpt lat="42.171785" lon="23.365931"><ele>2613.3</ele><time>2026-03-02T08:50:29.000Z</time></trkpt>
<trkpt lat="42.171785" lon="23.36593"><ele>2613.7</ele><time>2026-03-02T08:50:30.000Z</time></trkpt>
<trkpt lat="42.171785" lon="23.36593"><ele>2613.7</ele><time>2026-03-02T08:50:31.000Z</time></trkpt>
<trkpt lat="42.171785" lon="23.365929"><ele>2613.7</ele><time>2026-03-02T08:50:32.000Z</time></trkpt>
<trkpt lat="42.171785" lon="23.365929"><ele>2613.7</ele><time>2026-03-02T08:50:33.000Z</time></trkpt>
<trkpt lat="42.171785" lon="23.365929"><ele>2613.7</ele><time>2026-03-02T08:50:34.000Z</time></trkpt>
<trkpt lat="42.171785" lon="23.365929"><ele>2613.7</ele><time>2026-03-02T08:50:35.000Z</time></trkpt>
<trkpt lat="42.171785" lon="23.365929"><ele>2613.7</ele><time>2026-03-02T08:50:36.000Z</time></trkpt>
<trkpt lat="42.171785" lon="23.365929"><ele>2613.7</ele><time>2026-03-02T08:50:37.000Z</time></trkpt>
<trkpt lat="42.171785" lon="23.365928"><ele>2613.7</ele><time>2026-03-02T08:50:38.000Z</time></trkpt>
<trkpt lat="42.171785" lon="23.365928"><ele>2613.7</ele><time>2026-03-02T08:50:39.000Z</time></trkpt>
<trkpt lat="42.171784" lon="23.365928"><ele>2613.6</ele><time>2026-03-02T08:50:40.000Z</time></trkpt>
<trkpt lat="42.171785" lon="23.365927"><ele>2613.6</ele><time>2026-03-02T08:50:41.000Z</time></trkpt>
<trkpt lat="42.171785" lon="23.365927"><ele>2613.6</ele><time>2026-03-02T08:50:42.000Z</time></trkpt>
<trkpt lat="42.171785" lon="23.365927"><ele>2613.6</ele><time>2026-03-02T08:50:43.000Z</time></trkpt>
<trkpt lat="42.171785" lon="23.365927"><ele>2613.6</ele><time>2026-03-02T08:50:44.000Z</time></trkpt>
<trkpt lat="42.171785" lon="23.365927"><ele>2613.7</ele><time>2026-03-02T08:50:45.000Z</time></trkpt>
<trkpt lat="42.171785" lon="23.365927"><ele>2613.7</ele><time>2026-03-02T08:50:46.000Z</time></trkpt>
<trkpt lat="42.171786" lon="23.365928"><ele>2613.7</ele><time>2026-03-02T08:50:47.000Z</time></trkpt>
<trkpt lat="42.171786" lon="23.365928"><ele>2613.7</ele><time>2026-03-02T08:50:48.000Z</time></trkpt>
<trkpt lat="42.171786" lon="23.365929"><ele>2613.7</ele><time>2026-03-02T08:50:49.000Z</time></trkpt>
<trkpt lat="42.171787" lon="23.365929"><ele>2614</ele><time>2026-03-02T08:50:50.000Z</time></trkpt>
<trkpt lat="42.171787" lon="23.36593"><ele>2614</ele><time>2026-03-02T08:50:51.000Z</time></trkpt>
<trkpt lat="42.171786" lon="23.36593"><ele>2614</ele><time>2026-03-02T08:50:52.000Z</time></trkpt>
<trkpt lat="42.171786" lon="23.36593"><ele>2614</ele><time>2026-03-02T08:50:53.000Z</time></trkpt>
<trkpt lat="42.171786" lon="23.36593"><ele>2614</ele><time>2026-03-02T08:50:54.000Z</time></trkpt>
<trkpt lat="42.171786" lon="23.36593"><ele>2614.1</ele><time>2026-03-02T08:50:55.000Z</time></trkpt>
<trkpt lat="42.171786" lon="23.36593"><ele>2614.1</ele><time>2026-03-02T08:50:56.000Z</time></trkpt>
<trkpt lat="42.171786" lon="23.36593"><ele>2614.1</ele><time>2026-03-02T08:50:57.000Z</time></trkpt>
<trkpt lat="42.171786" lon="23.36593"><ele>2614.1</ele><time>2026-03-02T08:50:58.000Z</time></trkpt>
<trkpt lat="42.171786" lon="23.36593"><ele>2614.1</ele><time>2026-03-02T08:50:59.000Z</time></trkpt>
<trkpt lat="42.171786" lon="23.36593"><ele>2613.9</ele><time>2026-03-02T08:51:00.000Z</time></trkpt>
<trkpt lat="42.171786" lon="23.36593"><ele>2613.9</ele><time>2026-03-02T08:51:01.000Z</time></trkpt>
<trkpt lat="42.171786" lon="23.36593"><ele>2613.9</ele><time>2026-03-02T08:51:02.000Z</time></trkpt>
<trkpt lat="42.171786" lon="23.365931"><ele>2613.9</ele><time>2026-03-02T08:51:03.000Z</time></trkpt>
<trkpt lat="42.171785" lon="23.365931"><ele>2613.9</ele><time>2026-03-02T08:51:04.000Z</time></trkpt>
<trkpt lat="42.171783" lon="23.365932"><ele>2613.5</ele><time>2026-03-02T08:51:05.000Z</time></trkpt>
<trkpt lat="42.171782" lon="23.365932"><ele>2613.5</ele><time>2026-03-02T08:51:06.000Z</time></trkpt>
<trkpt lat="42.171781" lon="23.365934"><ele>2613.5</ele><time>2026-03-02T08:51:07.000Z</time></trkpt>
<trkpt lat="42.171779" lon="23.365935"><ele>2613.5</ele><time>2026-03-02T08:51:08.000Z</time></trkpt>
<trkpt lat="42.171778" lon="23.365936"><ele>2613.5</ele><time>2026-03-02T08:51:09.000Z</time></trkpt>
<trkpt lat="42.171778" lon="23.365937"><ele>2613.3</ele><time>2026-03-02T08:51:10.000Z</time></trkpt>
<trkpt lat="42.171777" lon="23.365938"><ele>2613.3</ele><time>2026-03-02T08:51:11.000Z</time></trkpt>
<trkpt lat="42.171776" lon="23.365938"><ele>2613.3</ele><time>2026-03-02T08:51:12.000Z</time></trkpt>
<trkpt lat="42.171776" lon="23.365938"><ele>2613.3</ele><time>2026-03-02T08:51:13.000Z</time></trkpt>
<trkpt lat="42.171775" lon="23.365938"><ele>2613.3</ele><time>2026-03-02T08:51:14.000Z</time></trkpt>
<trkpt lat="42.171772" lon="23.365939"><ele>2613.2</ele><time>2026-03-02T08:51:15.000Z</time></trkpt>
<trkpt lat="42.171769" lon="23.36594"><ele>2613.2</ele><time>2026-03-02T08:51:16.000Z</time></trkpt>
<trkpt lat="42.171765" lon="23.365942"><ele>2613.2</ele><time>2026-03-02T08:51:17.000Z</time></trkpt>
<trkpt lat="42.171759" lon="23.365944"><ele>2613.2</ele><time>2026-03-02T08:51:18.000Z</time></trkpt>
<trkpt lat="42.171753" lon="23.365947"><ele>2613.2</ele><time>2026-03-02T08:51:19.000Z</time></trkpt>
<trkpt lat="42.171749" lon="23.365949"><ele>2613.3</ele><time>2026-03-02T08:51:20.000Z</time></trkpt>
<trkpt lat="42.171744" lon="23.365951"><ele>2613.3</ele><time>2026-03-02T08:51:21.000Z</time></trkpt>
<trkpt lat="42.171741" lon="23.365953"><ele>2613.3</ele><time>2026-03-02T08:51:22.000Z</time></trkpt>
<trkpt lat="42.171739" lon="23.365954"><ele>2613.3</ele><time>2026-03-02T08:51:23.000Z</time></trkpt>
<trkpt lat="42.171739" lon="23.365955"><ele>2613.3</ele><time>2026-03-02T08:51:24.000Z</time></trkpt>
<trkpt lat="42.171739" lon="23.365955"><ele>2613.5</ele><time>2026-03-02T08:51:25.000Z</time></trkpt>
<trkpt lat="42.17174" lon="23.365955"><ele>2613.5</ele><time>2026-03-02T08:51:26.000Z</time></trkpt>
<trkpt lat="42.17174" lon="23.365955"><ele>2613.5</ele><time>2026-03-02T08:51:27.000Z</time></trkpt>
<trkpt lat="42.17174" lon="23.365955"><ele>2613.5</ele><time>2026-03-02T08:51:28.000Z</time></trkpt>
<trkpt lat="42.17174" lon="23.365956"><ele>2613.5</ele><time>2026-03-02T08:51:29.000Z</time></trkpt>
<trkpt lat="42.171738" lon="23.365957"><ele>2614</ele><time>2026-03-02T08:51:30.000Z</time></trkpt>
<trkpt lat="42.171736" lon="23.36596"><ele>2614</ele><time>2026-03-02T08:51:31.000Z</time></trkpt>
<trkpt lat="42.171731" lon="23.365962"><ele>2614</ele><time>2026-03-02T08:51:32.000Z</time></trkpt>
<trkpt lat="42.171725" lon="23.365965"><ele>2614</ele><time>2026-03-02T08:51:33.000Z</time></trkpt>
<trkpt lat="42.171718" lon="23.365968"><ele>2614</ele><time>2026-03-02T08:51:34.000Z</time></trkpt>
<trkpt lat="42.171711" lon="23.365971"><ele>2614.6</ele><time>2026-03-02T08:51:35.000Z</time></trkpt>
<trkpt lat="42.171702" lon="23.365976"><ele>2614.6</ele><time>2026-03-02T08:51:36.000Z</time></trkpt>
<trkpt lat="42.171694" lon="23.365981"><ele>2614.6</ele><time>2026-03-02T08:51:37.000Z</time></trkpt>
<trkpt lat="42.171687" lon="23.365986"><ele>2614.6</ele><time>2026-03-02T08:51:38.000Z</time></trkpt>
<trkpt lat="42.171679" lon="23.365993"><ele>2614.6</ele><time>2026-03-02T08:51:39.000Z</time></trkpt>
<trkpt lat="42.171671" lon="23.366001"><ele>2614.9</ele><time>2026-03-02T08:51:40.000Z</time></trkpt>
<trkpt lat="42.171663" lon="23.36601"><ele>2614.9</ele><time>2026-03-02T08:51:41.000Z</time></trkpt>
<trkpt lat="42.171657" lon="23.366018"><ele>2614.9</ele><time>2026-03-02T08:51:42.000Z</time></trkpt>
<trkpt lat="42.171649" lon="23.366026"><ele>2614.9</ele><time>2026-03-02T08:51:43.000Z</time></trkpt>
<trkpt lat="42.171642" lon="23.366034"><ele>2614.9</ele><time>2026-03-02T08:51:44.000Z</time></trkpt>
<trkpt lat="42.171636" lon="23.36604"><ele>2615.5</ele><time>2026-03-02T08:51:45.000Z</time></trkpt>
<trkpt lat="42.171629" lon="23.366045"><ele>2615.5</ele><time>2026-03-02T08:51:46.000Z</time></trkpt>
<trkpt lat="42.171622" lon="23.36605"><ele>2615.5</ele><time>2026-03-02T08:51:47.000Z</time></trkpt>
<trkpt lat="42.171615" lon="23.366054"><ele>2615.5</ele><time>2026-03-02T08:51:48.000Z</time></trkpt>
<trkpt lat="42.171608" lon="23.366058"><ele>2615.5</ele><time>2026-03-02T08:51:49.000Z</time></trkpt>
<trkpt lat="42.171601" lon="23.366062"><ele>2616.5</ele><time>2026-03-02T08:51:50.000Z</time></trkpt>
<trkpt lat="42.171594" lon="23.366066"><ele>2616.5</ele><time>2026-03-02T08:51:51.000Z</time></trkpt>
<trkpt lat="42.171586" lon="23.366072"><ele>2616.5</ele><time>2026-03-02T08:51:52.000Z</time></trkpt>
<trkpt lat="42.17158" lon="23.366077"><ele>2616.5</ele><time>2026-03-02T08:51:53.000Z</time></trkpt>
<trkpt lat="42.171573" lon="23.366083"><ele>2616.5</ele><time>2026-03-02T08:51:54.000Z</time></trkpt>
<trkpt lat="42.171566" lon="23.366087"><ele>2617.1</ele><time>2026-03-02T08:51:55.000Z</time></trkpt>
<trkpt lat="42.171559" lon="23.366091"><ele>2617.1</ele><time>2026-03-02T08:51:56.000Z</time></trkpt>
<trkpt lat="42.171553" lon="23.366094"><ele>2617.1</ele><time>2026-03-02T08:51:57.000Z</time></trkpt>
<trkpt lat="42.171545" lon="23.366097"><ele>2617.1</ele><time>2026-03-02T08:51:58.000Z</time></trkpt>
<trkpt lat="42.171538" lon="23.366099"><ele>2617.1</ele><time>2026-03-02T08:51:59.000Z</time></trkpt>
<trkpt lat="42.171531" lon="23.3661"><ele>2618.3</ele><time>2026-03-02T08:52:00.000Z</time></trkpt>
<trkpt lat="42.171523" lon="23.366103"><ele>2618.3</ele><time>2026-03-02T08:52:01.000Z</time></trkpt>
<trkpt lat="42.171516" lon="23.366104"><ele>2618.3</ele><time>2026-03-02T08:52:02.000Z</time></trkpt>
<trkpt lat="42.17151" lon="23.366106"><ele>2618.3</ele><time>2026-03-02T08:52:03.000Z</time></trkpt>
<trkpt lat="42.171503" lon="23.366107"><ele>2618.3</ele><time>2026-03-02T08:52:04.000Z</time></trkpt>
<trkpt lat="42.171497" lon="23.366109"><ele>2619.5</ele><time>2026-03-02T08:52:05.000Z</time></trkpt>
<trkpt lat="42.171492" lon="23.366111"><ele>2619.5</ele><time>2026-03-02T08:52:06.000Z</time></trkpt>
<trkpt lat="42.171486" lon="23.366113"><ele>2619.5</ele><time>2026-03-02T08:52:07.000Z</time></trkpt>
<trkpt lat="42.17148" lon="23.366115"><ele>2619.5</ele><time>2026-03-02T08:52:08.000Z</time></trkpt>
<trkpt lat="42.171474" lon="23.366116"><ele>2619.5</ele><time>2026-03-02T08:52:09.000Z</time></trkpt>
<trkpt lat="42.171468" lon="23.366117"><ele>2620.2</ele><time>2026-03-02T08:52:10.000Z</time></trkpt>
<trkpt lat="42.171462" lon="23.366117"><ele>2620.2</ele><time>2026-03-02T08:52:11.000Z</time></trkpt>
<trkpt lat="42.171458" lon="23.366118"><ele>2620.2</ele><time>2026-03-02T08:52:12.000Z</time></trkpt>
<trkpt lat="42.171452" lon="23.366118"><ele>2620.2</ele><time>2026-03-02T08:52:13.000Z</time></trkpt>
<trkpt lat="42.171448" lon="23.366119"><ele>2620.2</ele><time>2026-03-02T08:52:14.000Z</time></trkpt>
<trkpt lat="42.171444" lon="23.366118"><ele>2621.5</ele><time>2026-03-02T08:52:15.000Z</time></trkpt>
<trkpt lat="42.17144" lon="23.366117"><ele>2621.5</ele><time>2026-03-02T08:52:16.000Z</time></trkpt>
<trkpt lat="42.171436" lon="23.366116"><ele>2621.5</ele><time>2026-03-02T08:52:17.000Z</time></trkpt>
<trkpt lat="42.171433" lon="23.366115"><ele>2621.5</ele><time>2026-03-02T08:52:18.000Z</time></trkpt>
<trkpt lat="42.171428" lon="23.366113"><ele>2621.5</ele><time>2026-03-02T08:52:19.000Z</time></trkpt>
<trkpt lat="42.171424" lon="23.366112"><ele>2622.7</ele><time>2026-03-02T08:52:20.000Z</time></trkpt>
<trkpt lat="42.171419" lon="23.366111"><ele>2622.7</ele><time>2026-03-02T08:52:21.000Z</time></trkpt>
<trkpt lat="42.171416" lon="23.366111"><ele>2622.7</ele><time>2026-03-02T08:52:22.000Z</time></trkpt>
<trkpt lat="42.171411" lon="23.366111"><ele>2622.7</ele><time>2026-03-02T08:52:23.000Z</time></trkpt>
<trkpt lat="42.171408" lon="23.366112"><ele>2622.7</ele><time>2026-03-02T08:52:24.000Z</time></trkpt>
<trkpt lat="42.171403" lon="23.366113"><ele>2623.3</ele><time>2026-03-02T08:52:25.000Z</time></trkpt>
<trkpt lat="42.1714" lon="23.366114"><ele>2623.3</ele><time>2026-03-02T08:52:26.000Z</time></trkpt>
<trkpt lat="42.171395" lon="23.366115"><ele>2623.3</ele><time>2026-03-02T08:52:27.000Z</time></trkpt>
<trkpt lat="42.17139" lon="23.366115"><ele>2623.3</ele><time>2026-03-02T08:52:28.000Z</time></trkpt>
<trkpt lat="42.171385" lon="23.366116"><ele>2623.3</ele><time>2026-03-02T08:52:29.000Z</time></trkpt>
<trkpt lat="42.171381" lon="23.366117"><ele>2624.4</ele><time>2026-03-02T08:52:30.000Z</time></trkpt>
<trkpt lat="42.171376" lon="23.366119"><ele>2624.4</ele><time>2026-03-02T08:52:31.000Z</time></trkpt>
<trkpt lat="42.171372" lon="23.36612"><ele>2624.4</ele><time>2026-03-02T08:52:32.000Z</time></trkpt>
<trkpt lat="42.171369" lon="23.366122"><ele>2624.4</ele><time>2026-03-02T08:52:33.000Z</time></trkpt>
<trkpt lat="42.171364" lon="23.366124"><ele>2624.4</ele><time>2026-03-02T08:52:34.000Z</time></trkpt>
<trkpt lat="42.17136" lon="23.366126"><ele>2625.4</ele><time>2026-03-02T08:52:35.000Z</time></trkpt>
<trkpt lat="42.171356" lon="23.366128"><ele>2625.4</ele><time>2026-03-02T08:52:36.000Z</time></trkpt>
<trkpt lat="42.171351" lon="23.366131"><ele>2625.4</ele><time>2026-03-02T08:52:37.000Z</time></trkpt>
<trkpt lat="42.171346" lon="23.366134"><ele>2625.4</ele><time>2026-03-02T08:52:38.000Z</time></trkpt>
<trkpt lat="42.171341" lon="23.366138"><ele>2625.4</ele><time>2026-03-02T08:52:39.000Z</time></trkpt>
<trkpt lat="42.171336" lon="23.366141"><ele>2625.8</ele><time>2026-03-02T08:52:40.000Z</time></trkpt>
<trkpt lat="42.17133" lon="23.366145"><ele>2625.8</ele><time>2026-03-02T08:52:41.000Z</time></trkpt>
<trkpt lat="42.171327" lon="23.366148"><ele>2625.8</ele><time>2026-03-02T08:52:42.000Z</time></trkpt>
<trkpt lat="42.171321" lon="23.36615"><ele>2625.8</ele><time>2026-03-02T08:52:43.000Z</time></trkpt>
<trkpt lat="42.171317" lon="23.366151"><ele>2625.8</ele><time>2026-03-02T08:52:44.000Z</time></trkpt>
<trkpt lat="42.171312" lon="23.366152"><ele>2626.7</ele><time>2026-03-02T08:52:45.000Z</time></trkpt>
<trkpt lat="42.171306" lon="23.366152"><ele>2626.7</ele><time>2026-03-02T08:52:46.000Z</time></trkpt>
<trkpt lat="42.1713" lon="23.366152"><ele>2626.7</ele><time>2026-03-02T08:52:47.000Z</time></trkpt>
<trkpt lat="42.171295" lon="23.366152"><ele>2626.7</ele><time>2026-03-02T08:52:48.000Z</time></trkpt>
<trkpt lat="42.171289" lon="23.366152"><ele>2626.7</ele><time>2026-03-02T08:52:49.000Z</time></trkpt>
<trkpt lat="42.171285" lon="23.366153"><ele>2627.8</ele><time>2026-03-02T08:52:50.000Z</time></trkpt>
<trkpt lat="42.17128" lon="23.366154"><ele>2627.8</ele><time>2026-03-02T08:52:51.000Z</time></trkpt>
<trkpt lat="42.171276" lon="23.366155"><ele>2627.8</ele><time>2026-03-02T08:52:52.000Z</time></trkpt>
<trkpt lat="42.17127" lon="23.366156"><ele>2627.8</ele><time>2026-03-02T08:52:53.000Z</time></trkpt>
<trkpt lat="42.171265" lon="23.366157"><ele>2627.8</ele><time>2026-03-02T08:52:54.000Z</time></trkpt>
<trkpt lat="42.17126" lon="23.366157"><ele>2628.4</ele><time>2026-03-02T08:52:55.000Z</time></trkpt>
<trkpt lat="42.171255" lon="23.366158"><ele>2628.4</ele><time>2026-03-02T08:52:56.000Z</time></trkpt>
<trkpt lat="42.17125" lon="23.366159"><ele>2628.4</ele><time>2026-03-02T08:52:57.000Z</time></trkpt>
<trkpt lat="42.171245" lon="23.36616"><ele>2628.4</ele><time>2026-03-02T08:52:58.000Z</time></trkpt>
<trkpt lat="42.171241" lon="23.366159"><ele>2628.4</ele><time>2026-03-02T08:52:59.000Z</time></trkpt>
<trkpt lat="42.171237" lon="23.366159"><ele>2629.8</ele><time>2026-03-02T08:53:00.000Z</time></trkpt>
<trkpt lat="42.171234" lon="23.366158"><ele>2629.8</ele><time>2026-03-02T08:53:01.000Z</time></trkpt>
<trkpt lat="42.17123" lon="23.366157"><ele>2629.8</ele><time>2026-03-02T08:53:02.000Z</time></trkpt>
<trkpt lat="42.171227" lon="23.366157"><ele>2629.8</ele><time>2026-03-02T08:53:03.000Z</time></trkpt>
<trkpt lat="42.171225" lon="23.366157"><ele>2629.8</ele><time>2026-03-02T08:53:04.000Z</time></trkpt>
<trkpt lat="42.171222" lon="23.366158"><ele>2631.2</ele><time>2026-03-02T08:53:05.000Z</time></trkpt>
<trkpt lat="42.17122" lon="23.366159"><ele>2631.2</ele><time>2026-03-02T08:53:06.000Z</time></trkpt>
<trkpt lat="42.171217" lon="23.36616"><ele>2631.2</ele><time>2026-03-02T08:53:07.000Z</time></trkpt>
<trkpt lat="42.171213" lon="23.366162"><ele>2631.2</ele><time>2026-03-02T08:53:08.000Z</time></trkpt>
<trkpt lat="42.171209" lon="23.366164"><ele>2631.2</ele><time>2026-03-02T08:53:09.000Z</time></trkpt>
<trkpt lat="42.171205" lon="23.366166"><ele>2631.8</ele><time>2026-03-02T08:53:10.000Z</time></trkpt>
<trkpt lat="42.171201" lon="23.366168"><ele>2631.8</ele><time>2026-03-02T08:53:11.000Z</time></trkpt>
<trkpt lat="42.171197" lon="23.36617"><ele>2631.8</ele><time>2026-03-02T08:53:12.000Z</time></trkpt>
<trkpt lat="42.171193" lon="23.366172"><ele>2631.8</ele><time>2026-03-02T08:53:13.000Z</time></trkpt>
<trkpt lat="42.171188" lon="23.366173"><ele>2631.8</ele><time>2026-03-02T08:53:14.000Z</time></trkpt>
<trkpt lat="42.171184" lon="23.366176"><ele>2632.9</ele><time>2026-03-02T08:53:15.000Z</time></trkpt>
<trkpt lat="42.171179" lon="23.366177"><ele>2632.9</ele><time>2026-03-02T08:53:16.000Z</time></trkpt>
<trkpt lat="42.171174" lon="23.366177"><ele>2632.9</ele><time>2026-03-02T08:53:17.000Z</time></trkpt>
<trkpt lat="42.171169" lon="23.366177"><ele>2632.9</ele><time>2026-03-02T08:53:18.000Z</time></trkpt>
<trkpt lat="42.171164" lon="23.366177"><ele>2632.9</ele><time>2026-03-02T08:53:19.000Z</time></trkpt>
<trkpt lat="42.171159" lon="23.366176"><ele>2633.7</ele><time>2026-03-02T08:53:20.000Z</time></trkpt>
<trkpt lat="42.171154" lon="23.366176"><ele>2633.7</ele><time>2026-03-02T08:53:21.000Z</time></trkpt>
<trkpt lat="42.171148" lon="23.366176"><ele>2633.7</ele><time>2026-03-02T08:53:22.000Z</time></trkpt>
<trkpt lat="42.171143" lon="23.366177"><ele>2633.7</ele><time>2026-03-02T08:53:23.000Z</time></trkpt>
<trkpt lat="42.171139" lon="23.366177"><ele>2633.7</ele><time>2026-03-02T08:53:24.000Z</time></trkpt>
<trkpt lat="42.171134" lon="23.366176"><ele>2634.2</ele><time>2026-03-02T08:53:25.000Z</time></trkpt>
<trkpt lat="42.171131" lon="23.366175"><ele>2634.2</ele><time>2026-03-02T08:53:26.000Z</time></trkpt>
<trkpt lat="42.171128" lon="23.366174"><ele>2634.2</ele><time>2026-03-02T08:53:27.000Z</time></trkpt>
<trkpt lat="42.171126" lon="23.366172"><ele>2634.2</ele><time>2026-03-02T08:53:28.000Z</time></trkpt>
<trkpt lat="42.171124" lon="23.366172"><ele>2634.2</ele><time>2026-03-02T08:53:29.000Z</time></trkpt>
<trkpt lat="42.171124" lon="23.366172"><ele>2635</ele><time>2026-03-02T08:53:30.000Z</time></trkpt>
<trkpt lat="42.171124" lon="23.366172"><ele>2635</ele><time>2026-03-02T08:53:31.000Z</time></trkpt>
<trkpt lat="42.171124" lon="23.366172"><ele>2635</ele><time>2026-03-02T08:53:32.000Z</time></trkpt>
<trkpt lat="42.171124" lon="23.366172"><ele>2635</ele><time>2026-03-02T08:53:33.000Z</time></trkpt>
<trkpt lat="42.171124" lon="23.366172"><ele>2635</ele><time>2026-03-02T08:53:34.000Z</time></trkpt>
<trkpt lat="42.171124" lon="23.366172"><ele>2635.8</ele><time>2026-03-02T08:53:35.000Z</time></trkpt>
<trkpt lat="42.171125" lon="23.366172"><ele>2635.8</ele><time>2026-03-02T08:53:36.000Z</time></trkpt>
<trkpt lat="42.171125" lon="23.366172"><ele>2635.8</ele><time>2026-03-02T08:53:37.000Z</time></trkpt>
<trkpt lat="42.171125" lon="23.366173"><ele>2635.8</ele><time>2026-03-02T08:53:38.000Z</time></trkpt>
<trkpt lat="42.171125" lon="23.366173"><ele>2635.8</ele><time>2026-03-02T08:53:39.000Z</time></trkpt>
<trkpt lat="42.171125" lon="23.366173"><ele>2636.1</ele><time>2026-03-02T08:53:40.000Z</time></trkpt>
<trkpt lat="42.171125" lon="23.366173"><ele>2636.1</ele><time>2026-03-02T08:53:41.000Z</time></trkpt>
<trkpt lat="42.171125" lon="23.366173"><ele>2636.1</ele><time>2026-03-02T08:53:42.000Z</time></trkpt>
<trkpt lat="42.171125" lon="23.366173"><ele>2636.1</ele><time>2026-03-02T08:53:43.000Z</time></trkpt>
<trkpt lat="42.171125" lon="23.366173"><ele>2636.1</ele><time>2026-03-02T08:53:44.000Z</time></trkpt>
<trkpt lat="42.171125" lon="23.366174"><ele>2636.6</ele><time>2026-03-02T08:53:45.000Z</time></trkpt>
<trkpt lat="42.171126" lon="23.366176"><ele>2636.6</ele><time>2026-03-02T08:53:46.000Z</time></trkpt>
<trkpt lat="42.171126" lon="23.366177"><ele>2636.6</ele><time>2026-03-02T08:53:47.000Z</time></trkpt>
<trkpt lat="42.171127" lon="23.366179"><ele>2636.6</ele><time>2026-03-02T08:53:48.000Z</time></trkpt>
<trkpt lat="42.171126" lon="23.366181"><ele>2636.6</ele><time>2026-03-02T08:53:49.000Z</time></trkpt>
<trkpt lat="42.171125" lon="23.366181"><ele>2636.7</ele><time>2026-03-02T08:53:50.000Z</time></trkpt>
<trkpt lat="42.171124" lon="23.366181"><ele>2636.7</ele><time>2026-03-02T08:53:51.000Z</time></trkpt>
<trkpt lat="42.171123" lon="23.366181"><ele>2636.7</ele><time>2026-03-02T08:53:52.000Z</time></trkpt>
<trkpt lat="42.171121" lon="23.366181"><ele>2636.7</ele><time>2026-03-02T08:53:53.000Z</time></trkpt>
<trkpt lat="42.17112" lon="23.366181"><ele>2636.7</ele><time>2026-03-02T08:53:54.000Z</time></trkpt>
<trkpt lat="42.17112" lon="23.36618"><ele>2636.7</ele><time>2026-03-02T08:53:55.000Z</time></trkpt>
<trkpt lat="42.17112" lon="23.36618"><ele>2636.7</ele><time>2026-03-02T08:53:56.000Z</time></trkpt>
<trkpt lat="42.171119" lon="23.36618"><ele>2636.7</ele><time>2026-03-02T08:53:57.000Z</time></trkpt>
<trkpt lat="42.171119" lon="23.36618"><ele>2636.7</ele><time>2026-03-02T08:53:58.000Z</time></trkpt>
<trkpt lat="42.171119" lon="23.36618"><ele>2636.7</ele><time>2026-03-02T08:53:59.000Z</time></trkpt>
<trkpt lat="42.171119" lon="23.36618"><ele>2636.6</ele><time>2026-03-02T08:54:00.000Z</time></trkpt>
<trkpt lat="42.171119" lon="23.36618"><ele>2636.6</ele><time>2026-03-02T08:54:01.000Z</time></trkpt>
<trkpt lat="42.171119" lon="23.36618"><ele>2636.6</ele><time>2026-03-02T08:54:02.000Z</time></trkpt>
<trkpt lat="42.171118" lon="23.36618"><ele>2636.6</ele><time>2026-03-02T08:54:03.000Z</time></trkpt>
<trkpt lat="42.171118" lon="23.366179"><ele>2636.6</ele><time>2026-03-02T08:54:04.000Z</time></trkpt>
<trkpt lat="42.171118" lon="23.366179"><ele>2636.5</ele><time>2026-03-02T08:54:05.000Z</time></trkpt>
<trkpt lat="42.171118" lon="23.366179"><ele>2636.5</ele><time>2026-03-02T08:54:06.000Z</time></trkpt>
<trkpt lat="42.171118" lon="23.366179"><ele>2636.5</ele><time>2026-03-02T08:54:07.000Z</time></trkpt>
<trkpt lat="42.171119" lon="23.366179"><ele>2636.5</ele><time>2026-03-02T08:54:08.000Z</time></trkpt>
<trkpt lat="42.171119" lon="23.366179"><ele>2636.5</ele><time>2026-03-02T08:54:09.000Z</time></trkpt>
<trkpt lat="42.171119" lon="23.366179"><ele>2636.4</ele><time>2026-03-02T08:54:10.000Z</time></trkpt>
<trkpt lat="42.17112" lon="23.366179"><ele>2636.4</ele><time>2026-03-02T08:54:11.000Z</time></trkpt>
<trkpt lat="42.17112" lon="23.366179"><ele>2636.4</ele><time>2026-03-02T08:54:12.000Z</time></trkpt>
<trkpt lat="42.17112" lon="23.366179"><ele>2636.4</ele><time>2026-03-02T08:54:13.000Z</time></trkpt>
<trkpt lat="42.17112" lon="23.366179"><ele>2636.4</ele><time>2026-03-02T08:54:14.000Z</time></trkpt>
<trkpt lat="42.17112" lon="23.366179"><ele>2636.5</ele><time>2026-03-02T08:54:15.000Z</time></trkpt>
<trkpt lat="42.17112" lon="23.366179"><ele>2636.5</ele><time>2026-03-02T08:54:16.000Z</time></trkpt>
<trkpt lat="42.17112" lon="23.366179"><ele>2636.5</ele><time>2026-03-02T08:54:17.000Z</time></trkpt>
<trkpt lat="42.17112" lon="23.366179"><ele>2636.5</ele><time>2026-03-02T08:54:18.000Z</time></trkpt>
<trkpt lat="42.171118" lon="23.366179"><ele>2636.5</ele><time>2026-03-02T08:54:19.000Z</time></trkpt>
<trkpt lat="42.171116" lon="23.366179"><ele>2636.6</ele><time>2026-03-02T08:54:20.000Z</time></trkpt>
<trkpt lat="42.171112" lon="23.366179"><ele>2636.6</ele><time>2026-03-02T08:54:21.000Z</time></trkpt>
<trkpt lat="42.171106" lon="23.36618"><ele>2636.6</ele><time>2026-03-02T08:54:22.000Z</time></trkpt>
<trkpt lat="42.171099" lon="23.366181"><ele>2636.6</ele><time>2026-03-02T08:54:23.000Z</time></trkpt>
<trkpt lat="42.171092" lon="23.36618"><ele>2636.6</ele><time>2026-03-02T08:54:24.000Z</time></trkpt>
<trkpt lat="42.171085" lon="23.366179"><ele>2636.6</ele><time>2026-03-02T08:54:25.000Z</time></trkpt>
<trkpt lat="42.171078" lon="23.366178"><ele>2636.6</ele><time>2026-03-02T08:54:26.000Z</time></trkpt>
<trkpt lat="42.171071" lon="23.366175"><ele>2636.6</ele><time>2026-03-02T08:54:27.000Z</time></trkpt>
<trkpt lat="42.171064" lon="23.366171"><ele>2636.6</ele><time>2026-03-02T08:54:28.000Z</time></trkpt>
<trkpt lat="42.171057" lon="23.366167"><ele>2636.6</ele><time>2026-03-02T08:54:29.000Z</time></trkpt>
<trkpt lat="42.17105" lon="23.366163"><ele>2636.9</ele><time>2026-03-02T08:54:30.000Z</time></trkpt>
<trkpt lat="42.171043" lon="23.366158"><ele>2636.9</ele><time>2026-03-02T08:54:31.000Z</time></trkpt>
<trkpt lat="42.171035" lon="23.366154"><ele>2636.9</ele><time>2026-03-02T08:54:32.000Z</time></trkpt>
<trkpt lat="42.171028" lon="23.366151"><ele>2636.9</ele><time>2026-03-02T08:54:33.000Z</time></trkpt>
<trkpt lat="42.17102" lon="23.366149"><ele>2636.9</ele><time>2026-03-02T08:54:34.000Z</time></trkpt>
<trkpt lat="42.171011" lon="23.366147"><ele>2637.6</ele><time>2026-03-02T08:54:35.000Z</time></trkpt>
<trkpt lat="42.171004" lon="23.366146"><ele>2637.6</ele><time>2026-03-02T08:54:36.000Z</time></trkpt>
<trkpt lat="42.170997" lon="23.366143"><ele>2637.6</ele><time>2026-03-02T08:54:37.000Z</time></trkpt>
<trkpt lat="42.170989" lon="23.366141"><ele>2637.6</ele><time>2026-03-02T08:54:38.000Z</time></trkpt>
<trkpt lat="42.170983" lon="23.366139"><ele>2637.6</ele><time>2026-03-02T08:54:39.000Z</time></trkpt>
<trkpt lat="42.170977" lon="23.366136"><ele>2638.2</ele><time>2026-03-02T08:54:40.000Z</time></trkpt>
<trkpt lat="42.17097" lon="23.366133"><ele>2638.2</ele><time>2026-03-02T08:54:41.000Z</time></trkpt>
<trkpt lat="42.170964" lon="23.366132"><ele>2638.2</ele><time>2026-03-02T08:54:42.000Z</time></trkpt>
<trkpt lat="42.170959" lon="23.36613"><ele>2638.2</ele><time>2026-03-02T08:54:43.000Z</time></trkpt>
<trkpt lat="42.170953" lon="23.366127"><ele>2638.2</ele><time>2026-03-02T08:54:44.000Z</time></trkpt>
<trkpt lat="42.170948" lon="23.366125"><ele>2639.3</ele><time>2026-03-02T08:54:45.000Z</time></trkpt>
<trkpt lat="42.170942" lon="23.366123"><ele>2639.3</ele><time>2026-03-02T08:54:46.000Z</time></trkpt>
<trkpt lat="42.170935" lon="23.366121"><ele>2639.3</ele><time>2026-03-02T08:54:47.000Z</time></trkpt>
<trkpt lat="42.170929" lon="23.366119"><ele>2639.3</ele><time>2026-03-02T08:54:48.000Z</time></trkpt>
<trkpt lat="42.170922" lon="23.366117"><ele>2639.3</ele><time>2026-03-02T08:54:49.000Z</time></trkpt>
<trkpt lat="42.170917" lon="23.366115"><ele>2640.6</ele><time>2026-03-02T08:54:50.000Z</time></trkpt>
<trkpt lat="42.170912" lon="23.366113"><ele>2640.6</ele><time>2026-03-02T08:54:51.000Z</time></trkpt>
<trkpt lat="42.170906" lon="23.366111"><ele>2640.6</ele><time>2026-03-02T08:54:52.000Z</time></trkpt>
<trkpt lat="42.170901" lon="23.366109"><ele>2640.6</ele><time>2026-03-02T08:54:53.000Z</time></trkpt>
<trkpt lat="42.170896" lon="23.366107"><ele>2640.6</ele><time>2026-03-02T08:54:54.000Z</time></trkpt>
<trkpt lat="42.17089" lon="23.366105"><ele>2641.3</ele><time>2026-03-02T08:54:55.000Z</time></trkpt>
<trkpt lat="42.170883" lon="23.366104"><ele>2641.3</ele><time>2026-03-02T08:54:56.000Z</time></trkpt>
<trkpt lat="42.170877" lon="23.366103"><ele>2641.3</ele><time>2026-03-02T08:54:57.000Z</time></trkpt>
<trkpt lat="42.17087" lon="23.3661"><ele>2641.3</ele><time>2026-03-02T08:54:58.000Z</time></trkpt>
<trkpt lat="42.170864" lon="23.366098"><ele>2641.3</ele><time>2026-03-02T08:54:59.000Z</time></trkpt>
<trkpt lat="42.170858" lon="23.366096"><ele>2642.5</ele><time>2026-03-02T08:55:00.000Z</time></trkpt>
<trkpt lat="42.170853" lon="23.366092"><ele>2642.5</ele><time>2026-03-02T08:55:01.000Z</time></trkpt>
<trkpt lat="42.170848" lon="23.366089"><ele>2642.5</ele><time>2026-03-02T08:55:02.000Z</time></trkpt>
<trkpt lat="42.170843" lon="23.366086"><ele>2642.5</ele><time>2026-03-02T08:55:03.000Z</time></trkpt>
<trkpt lat="42.170838" lon="23.366083"><ele>2642.5</ele><time>2026-03-02T08:55:04.000Z</time></trkpt>
<trkpt lat="42.170833" lon="23.36608"><ele>2643.5</ele><time>2026-03-02T08:55:05.000Z</time></trkpt>
<trkpt lat="42.170828" lon="23.366078"><ele>2643.5</ele><time>2026-03-02T08:55:06.000Z</time></trkpt>
<trkpt lat="42.170822" lon="23.366075"><ele>2643.5</ele><time>2026-03-02T08:55:07.000Z</time></trkpt>
<trkpt lat="42.170817" lon="23.366073"><ele>2643.5</ele><time>2026-03-02T08:55:08.000Z</time></trkpt>
<trkpt lat="42.170811" lon="23.36607"><ele>2643.5</ele><time>2026-03-02T08:55:09.000Z</time></trkpt>
<trkpt lat="42.170806" lon="23.366069"><ele>2644</ele><time>2026-03-02T08:55:10.000Z</time></trkpt>
<trkpt lat="42.170801" lon="23.366067"><ele>2644</ele><time>2026-03-02T08:55:11.000Z</time></trkpt>
<trkpt lat="42.170796" lon="23.366065"><ele>2644</ele><time>2026-03-02T08:55:12.000Z</time></trkpt>
<trkpt lat="42.170792" lon="23.366062"><ele>2644</ele><time>2026-03-02T08:55:13.000Z</time></trkpt>
<trkpt lat="42.170787" lon="23.366059"><ele>2644</ele><time>2026-03-02T08:55:14.000Z</time></trkpt>
<trkpt lat="42.170783" lon="23.366055"><ele>2644.9</ele><time>2026-03-02T08:55:15.000Z</time></trkpt>
<trkpt lat="42.170779" lon="23.366051"><ele>2644.9</ele><time>2026-03-02T08:55:16.000Z</time></trkpt>
<trkpt lat="42.170776" lon="23.366049"><ele>2644.9</ele><time>2026-03-02T08:55:17.000Z</time></trkpt>
<trkpt lat="42.170772" lon="23.366047"><ele>2644.9</ele><time>2026-03-02T08:55:18.000Z</time></trkpt>
<trkpt lat="42.170768" lon="23.366046"><ele>2644.9</ele><time>2026-03-02T08:55:19.000Z</time></trkpt>
<trkpt lat="42.170764" lon="23.366045"><ele>2646</ele><time>2026-03-02T08:55:20.000Z</time></trkpt>
<trkpt lat="42.17076" lon="23.366043"><ele>2646</ele><time>2026-03-02T08:55:21.000Z</time></trkpt>
<trkpt lat="42.170756" lon="23.366042"><ele>2646</ele><time>2026-03-02T08:55:22.000Z</time></trkpt>
<trkpt lat="42.170752" lon="23.366041"><ele>2646</ele><time>2026-03-02T08:55:23.000Z</time></trkpt>
<trkpt lat="42.170749" lon="23.366039"><ele>2646</ele><time>2026-03-02T08:55:24.000Z</time></trkpt>
<trkpt lat="42.170745" lon="23.366038"><ele>2646.6</ele><time>2026-03-02T08:55:25.000Z</time></trkpt>
<trkpt lat="42.170742" lon="23.366038"><ele>2646.6</ele><time>2026-03-02T08:55:26.000Z</time></trkpt>
<trkpt lat="42.170739" lon="23.366038"><ele>2646.6</ele><time>2026-03-02T08:55:27.000Z</time></trkpt>
<trkpt lat="42.170736" lon="23.36604"><ele>2646.6</ele><time>2026-03-02T08:55:28.000Z</time></trkpt>
<trkpt lat="42.170733" lon="23.366041"><ele>2646.6</ele><time>2026-03-02T08:55:29.000Z</time></trkpt>
<trkpt lat="42.170731" lon="23.366043"><ele>2647.8</ele><time>2026-03-02T08:55:30.000Z</time></trkpt>
<trkpt lat="42.170727" lon="23.366043"><ele>2647.8</ele><time>2026-03-02T08:55:31.000Z</time></trkpt>
<trkpt lat="42.170725" lon="23.366042"><ele>2647.8</ele><time>2026-03-02T08:55:32.000Z</time></trkpt>
<trkpt lat="42.170723" lon="23.366042"><ele>2647.8</ele><time>2026-03-02T08:55:33.000Z</time></trkpt>
<trkpt lat="42.170721" lon="23.366042"><ele>2647.8</ele><time>2026-03-02T08:55:34.000Z</time></trkpt>
<trkpt lat="42.170719" lon="23.36604"><ele>2649</ele><time>2026-03-02T08:55:35.000Z</time></trkpt>
<trkpt lat="42.170718" lon="23.366038"><ele>2649</ele><time>2026-03-02T08:55:36.000Z</time></trkpt>
<trkpt lat="42.170716" lon="23.366036"><ele>2649</ele><time>2026-03-02T08:55:37.000Z</time></trkpt>
<trkpt lat="42.170714" lon="23.366034"><ele>2649</ele><time>2026-03-02T08:55:38.000Z</time></trkpt>
<trkpt lat="42.170712" lon="23.366032"><ele>2649</ele><time>2026-03-02T08:55:39.000Z</time></trkpt>
<trkpt lat="42.170711" lon="23.366031"><ele>2649.4</ele><time>2026-03-02T08:55:40.000Z</time></trkpt>
<trkpt lat="42.17071" lon="23.366031"><ele>2649.4</ele><time>2026-03-02T08:55:41.000Z</time></trkpt>
<trkpt lat="42.17071" lon="23.36603"><ele>2649.4</ele><time>2026-03-02T08:55:42.000Z</time></trkpt>
<trkpt lat="42.17071" lon="23.36603"><ele>2649.4</ele><time>2026-03-02T08:55:43.000Z</time></trkpt>
<trkpt lat="42.17071" lon="23.36603"><ele>2649.4</ele><time>2026-03-02T08:55:44.000Z</time></trkpt>
<trkpt lat="42.17071" lon="23.36603"><ele>2650</ele><time>2026-03-02T08:55:45.000Z</time></trkpt>
<trkpt lat="42.17071" lon="23.36603"><ele>2650</ele><time>2026-03-02T08:55:46.000Z</time></trkpt>
<trkpt lat="42.170709" lon="23.366031"><ele>2650</ele><time>2026-03-02T08:55:47.000Z</time></trkpt>
<trkpt lat="42.170708" lon="23.366031"><ele>2650</ele><time>2026-03-02T08:55:48.000Z</time></trkpt>
<trkpt lat="42.170706" lon="23.366032"><ele>2650</ele><time>2026-03-02T08:55:49.000Z</time></trkpt>
<trkpt lat="42.170704" lon="23.366032"><ele>2650.3</ele><time>2026-03-02T08:55:50.000Z</time></trkpt>
<trkpt lat="42.1707" lon="23.366031"><ele>2650.3</ele><time>2026-03-02T08:55:51.000Z</time></trkpt>
<trkpt lat="42.170697" lon="23.36603"><ele>2650.3</ele><time>2026-03-02T08:55:52.000Z</time></trkpt>
<trkpt lat="42.170693" lon="23.366028"><ele>2650.3</ele><time>2026-03-02T08:55:53.000Z</time></trkpt>
<trkpt lat="42.170688" lon="23.366026"><ele>2650.3</ele><time>2026-03-02T08:55:54.000Z</time></trkpt>
<trkpt lat="42.170684" lon="23.366024"><ele>2650.5</ele><time>2026-03-02T08:55:55.000Z</time></trkpt>
<trkpt lat="42.17068" lon="23.366023"><ele>2650.5</ele><time>2026-03-02T08:55:56.000Z</time></trkpt>
<trkpt lat="42.170676" lon="23.366021"><ele>2650.5</ele><time>2026-03-02T08:55:57.000Z</time></trkpt>
<trkpt lat="42.170673" lon="23.36602"><ele>2650.5</ele><time>2026-03-02T08:55:58.000Z</time></trkpt>
<trkpt lat="42.170669" lon="23.366018"><ele>2650.5</ele><time>2026-03-02T08:55:59.000Z</time></trkpt>
<trkpt lat="42.170666" lon="23.366017"><ele>2651</ele><time>2026-03-02T08:56:00.000Z</time></trkpt>
<trkpt lat="42.170664" lon="23.366015"><ele>2651</ele><time>2026-03-02T08:56:01.000Z</time></trkpt>
<trkpt lat="42.170663" lon="23.366014"><ele>2651</ele><time>2026-03-02T08:56:02.000Z</time></trkpt>
<trkpt lat="42.170661" lon="23.366012"><ele>2651</ele><time>2026-03-02T08:56:03.000Z</time></trkpt>
<trkpt lat="42.170661" lon="23.366013"><ele>2651</ele><time>2026-03-02T08:56:04.000Z</time></trkpt>
<trkpt lat="42.17066" lon="23.366014"><ele>2651.8</ele><time>2026-03-02T08:56:05.000Z</time></trkpt>
<trkpt lat="42.17066" lon="23.366015"><ele>2651.8</ele><time>2026-03-02T08:56:06.000Z</time></trkpt>
<trkpt lat="42.170659" lon="23.366016"><ele>2651.8</ele><time>2026-03-02T08:56:07.000Z</time></trkpt>
<trkpt lat="42.170659" lon="23.366016"><ele>2651.8</ele><time>2026-03-02T08:56:08.000Z</time></trkpt>
<trkpt lat="42.170659" lon="23.366016"><ele>2651.8</ele><time>2026-03-02T08:56:09.000Z</time></trkpt>
<trkpt lat="42.170659" lon="23.366016"><ele>2652.2</ele><time>2026-03-02T08:56:10.000Z</time></trkpt>
<trkpt lat="42.170659" lon="23.366016"><ele>2652.2</ele><time>2026-03-02T08:56:11.000Z</time></trkpt>
<trkpt lat="42.170659" lon="23.366017"><ele>2652.2</ele><time>2026-03-02T08:56:12.000Z</time></trkpt>
<trkpt lat="42.170659" lon="23.366017"><ele>2652.2</ele><time>2026-03-02T08:56:13.000Z</time></trkpt>
<trkpt lat="42.170659" lon="23.366017"><ele>2652.2</ele><time>2026-03-02T08:56:14.000Z</time></trkpt>
<trkpt lat="42.170659" lon="23.366018"><ele>2653</ele><time>2026-03-02T08:56:15.000Z</time></trkpt>
<trkpt lat="42.170659" lon="23.366018"><ele>2653</ele><time>2026-03-02T08:56:16.000Z</time></trkpt>
<trkpt lat="42.170659" lon="23.366018"><ele>2653</ele><time>2026-03-02T08:56:17.000Z</time></trkpt>
<trkpt lat="42.170659" lon="23.366018"><ele>2653</ele><time>2026-03-02T08:56:18.000Z</time></trkpt>
<trkpt lat="42.170659" lon="23.366018"><ele>2653</ele><time>2026-03-02T08:56:19.000Z</time></trkpt>
<trkpt lat="42.170659" lon="23.366018"><ele>2653.1</ele><time>2026-03-02T08:56:20.000Z</time></trkpt>
<trkpt lat="42.170659" lon="23.366018"><ele>2653.1</ele><time>2026-03-02T08:56:21.000Z</time></trkpt>
<trkpt lat="42.170658" lon="23.366018"><ele>2653.1</ele><time>2026-03-02T08:56:22.000Z</time></trkpt>
<trkpt lat="42.170657" lon="23.366017"><ele>2653.1</ele><time>2026-03-02T08:56:23.000Z</time></trkpt>
<trkpt lat="42.170655" lon="23.366015"><ele>2653.1</ele><time>2026-03-02T08:56:24.000Z</time></trkpt>
<trkpt lat="42.170653" lon="23.366012"><ele>2653</ele><time>2026-03-02T08:56:25.000Z</time></trkpt>
<trkpt lat="42.170649" lon="23.36601"><ele>2653</ele><time>2026-03-02T08:56:26.000Z</time></trkpt>
<trkpt lat="42.170646" lon="23.366007"><ele>2653</ele><time>2026-03-02T08:56:27.000Z</time></trkpt>
<trkpt lat="42.170643" lon="23.366005"><ele>2653</ele><time>2026-03-02T08:56:28.000Z</time></trkpt>
<trkpt lat="42.170639" lon="23.366002"><ele>2653</ele><time>2026-03-02T08:56:29.000Z</time></trkpt>
<trkpt lat="42.170635" lon="23.365999"><ele>2653</ele><time>2026-03-02T08:56:30.000Z</time></trkpt>
<trkpt lat="42.170631" lon="23.365994"><ele>2653</ele><time>2026-03-02T08:56:31.000Z</time></trkpt>
<trkpt lat="42.170627" lon="23.36599"><ele>2653</ele><time>2026-03-02T08:56:32.000Z</time></trkpt>
<trkpt lat="42.170622" lon="23.365985"><ele>2653</ele><time>2026-03-02T08:56:33.000Z</time></trkpt>
<trkpt lat="42.170617" lon="23.365981"><ele>2653</ele><time>2026-03-02T08:56:34.000Z</time></trkpt>
<trkpt lat="42.170612" lon="23.365978"><ele>2653.4</ele><time>2026-03-02T08:56:35.000Z</time></trkpt>
<trkpt lat="42.170607" lon="23.365975"><ele>2653.4</ele><time>2026-03-02T08:56:36.000Z</time></trkpt>
<trkpt lat="42.170603" lon="23.365972"><ele>2653.4</ele><time>2026-03-02T08:56:37.000Z</time></trkpt>
<trkpt lat="42.170598" lon="23.36597"><ele>2653.4</ele><time>2026-03-02T08:56:38.000Z</time></trkpt>
<trkpt lat="42.170594" lon="23.365968"><ele>2653.4</ele><time>2026-03-02T08:56:39.000Z</time></trkpt>
<trkpt lat="42.17059" lon="23.365965"><ele>2653.7</ele><time>2026-03-02T08:56:40.000Z</time></trkpt>
<trkpt lat="42.170586" lon="23.365962"><ele>2653.7</ele><time>2026-03-02T08:56:41.000Z</time></trkpt>
<trkpt lat="42.170581" lon="23.365958"><ele>2653.7</ele><time>2026-03-02T08:56:42.000Z</time></trkpt>
<trkpt lat="42.170577" lon="23.365954"><ele>2653.7</ele><time>2026-03-02T08:56:43.000Z</time></trkpt>
<trkpt lat="42.170572" lon="23.36595"><ele>2653.7</ele><time>2026-03-02T08:56:44.000Z</time></trkpt>
<trkpt lat="42.170568" lon="23.365946"><ele>2654.6</ele><time>2026-03-02T08:56:45.000Z</time></trkpt>
<trkpt lat="42.170564" lon="23.365943"><ele>2654.6</ele><time>2026-03-02T08:56:46.000Z</time></trkpt>
<trkpt lat="42.17056" lon="23.365941"><ele>2654.6</ele><time>2026-03-02T08:56:47.000Z</time></trkpt>
<trkpt lat="42.170555" lon="23.365939"><ele>2654.6</ele><time>2026-03-02T08:56:48.000Z</time></trkpt>
<trkpt lat="42.170551" lon="23.365939"><ele>2654.6</ele><time>2026-03-02T08:56:49.000Z</time></trkpt>
<trkpt lat="42.170546" lon="23.36594"><ele>2655.7</ele><time>2026-03-02T08:56:50.000Z</time></trkpt>
<trkpt lat="42.170541" lon="23.365939"><ele>2655.7</ele><time>2026-03-02T08:56:51.000Z</time></trkpt>
<trkpt lat="42.170535" lon="23.365938"><ele>2655.7</ele><time>2026-03-02T08:56:52.000Z</time></trkpt>
<trkpt lat="42.170529" lon="23.365936"><ele>2655.7</ele><time>2026-03-02T08:56:53.000Z</time></trkpt>
<trkpt lat="42.170524" lon="23.365934"><ele>2655.7</ele><time>2026-03-02T08:56:54.000Z</time></trkpt>
<trkpt lat="42.170518" lon="23.36593"><ele>2656.3</ele><time>2026-03-02T08:56:55.000Z</time></trkpt>
<trkpt lat="42.170513" lon="23.365927"><ele>2656.3</ele><time>2026-03-02T08:56:56.000Z</time></trkpt>
<trkpt lat="42.170507" lon="23.365924"><ele>2656.3</ele><time>2026-03-02T08:56:57.000Z</time></trkpt>
<trkpt lat="42.170503" lon="23.365921"><ele>2656.3</ele><time>2026-03-02T08:56:58.000Z</time></trkpt>
<trkpt lat="42.1705" lon="23.36592"><ele>2656.3</ele><time>2026-03-02T08:56:59.000Z</time></trkpt>
<trkpt lat="42.170497" lon="23.365918"><ele>2657.5</ele><time>2026-03-02T08:57:00.000Z</time></trkpt>
<trkpt lat="42.170496" lon="23.365915"><ele>2657.5</ele><time>2026-03-02T08:57:01.000Z</time></trkpt>
<trkpt lat="42.170496" lon="23.365913"><ele>2657.5</ele><time>2026-03-02T08:57:02.000Z</time></trkpt>
<trkpt lat="42.170496" lon="23.365912"><ele>2657.5</ele><time>2026-03-02T08:57:03.000Z</time></trkpt>
<trkpt lat="42.170495" lon="23.36591"><ele>2657.5</ele><time>2026-03-02T08:57:04.000Z</time></trkpt>
<trkpt lat="42.170496" lon="23.36591"><ele>2658.5</ele><time>2026-03-02T08:57:05.000Z</time></trkpt>
<trkpt lat="42.170496" lon="23.36591"><ele>2658.5</ele><time>2026-03-02T08:57:06.000Z</time></trkpt>
<trkpt lat="42.170496" lon="23.36591"><ele>2658.5</ele><time>2026-03-02T08:57:07.000Z</time></trkpt>
<trkpt lat="42.170496" lon="23.365911"><ele>2658.5</ele><time>2026-03-02T08:57:08.000Z</time></trkpt>
<trkpt lat="42.170496" lon="23.365911"><ele>2658.5</ele><time>2026-03-02T08:57:09.000Z</time></trkpt>
<trkpt lat="42.170495" lon="23.365911"><ele>2659</ele><time>2026-03-02T08:57:10.000Z</time></trkpt>
<trkpt lat="42.170495" lon="23.365911"><ele>2659</ele><time>2026-03-02T08:57:11.000Z</time></trkpt>
<trkpt lat="42.170495" lon="23.365911"><ele>2659</ele><time>2026-03-02T08:57:12.000Z</time></trkpt>
<trkpt lat="42.170496" lon="23.365911"><ele>2659</ele><time>2026-03-02T08:57:13.000Z</time></trkpt>
<trkpt lat="42.170496" lon="23.36591"><ele>2659</ele><time>2026-03-02T08:57:14.000Z</time></trkpt>
<trkpt lat="42.170496" lon="23.365909"><ele>2659.6</ele><time>2026-03-02T08:57:15.000Z</time></trkpt>
<trkpt lat="42.170496" lon="23.365908"><ele>2659.6</ele><time>2026-03-02T08:57:16.000Z</time></trkpt>
<trkpt lat="42.170496" lon="23.365907"><ele>2659.6</ele><time>2026-03-02T08:57:17.000Z</time></trkpt>
<trkpt lat="42.170496" lon="23.365906"><ele>2659.6</ele><time>2026-03-02T08:57:18.000Z</time></trkpt>
<trkpt lat="42.170496" lon="23.365906"><ele>2659.6</ele><time>2026-03-02T08:57:19.000Z</time></trkpt>
<trkpt lat="42.170496" lon="23.365906"><ele>2659.7</ele><time>2026-03-02T08:57:20.000Z</time></trkpt>
<trkpt lat="42.170496" lon="23.365906"><ele>2659.7</ele><time>2026-03-02T08:57:21.000Z</time></trkpt>
<trkpt lat="42.170496" lon="23.365906"><ele>2659.7</ele><time>2026-03-02T08:57:22.000Z</time></trkpt>
<trkpt lat="42.170496" lon="23.365906"><ele>2659.7</ele><time>2026-03-02T08:57:23.000Z</time></trkpt>
<trkpt lat="42.170496" lon="23.365906"><ele>2659.7</ele><time>2026-03-02T08:57:24.000Z</time></trkpt>
<trkpt lat="42.170496" lon="23.365906"><ele>2659.7</ele><time>2026-03-02T08:57:25.000Z</time></trkpt>
<trkpt lat="42.170496" lon="23.365906"><ele>2659.7</ele><time>2026-03-02T08:57:26.000Z</time></trkpt>
<trkpt lat="42.170496" lon="23.365906"><ele>2659.7</ele><time>2026-03-02T08:57:27.000Z</time></trkpt>
<trkpt lat="42.170496" lon="23.365906"><ele>2659.7</ele><time>2026-03-02T08:57:28.000Z</time></trkpt>
<trkpt lat="42.170496" lon="23.365906"><ele>2659.7</ele><time>2026-03-02T08:57:29.000Z</time></trkpt>
<trkpt lat="42.170496" lon="23.365906"><ele>2659.6</ele><time>2026-03-02T08:57:30.000Z</time></trkpt>
<trkpt lat="42.170496" lon="23.365906"><ele>2659.6</ele><time>2026-03-02T08:57:31.000Z</time></trkpt>
<trkpt lat="42.170496" lon="23.365906"><ele>2659.6</ele><time>2026-03-02T08:57:32.000Z</time></trkpt>
<trkpt lat="42.170496" lon="23.365906"><ele>2659.6</ele><time>2026-03-02T08:57:33.000Z</time></trkpt>
<trkpt lat="42.170496" lon="23.365906"><ele>2659.6</ele><time>2026-03-02T08:57:34.000Z</time></trkpt>
<trkpt lat="42.170496" lon="23.365906"><ele>2659.5</ele><time>2026-03-02T08:57:35.000Z</time></trkpt>
<trkpt lat="42.170496" lon="23.365906"><ele>2659.5</ele><time>2026-03-02T08:57:36.000Z</time></trkpt>
<trkpt lat="42.170496" lon="23.365906"><ele>2659.5</ele><time>2026-03-02T08:57:37.000Z</time></trkpt>
<trkpt lat="42.170496" lon="23.365906"><ele>2659.5</ele><time>2026-03-02T08:57:38.000Z</time></trkpt>
<trkpt lat="42.170496" lon="23.365906"><ele>2659.5</ele><time>2026-03-02T08:57:39.000Z</time></trkpt>
<trkpt lat="42.170496" lon="23.365906"><ele>2659.3</ele><time>2026-03-02T08:57:40.000Z</time></trkpt>
<trkpt lat="42.170496" lon="23.365906"><ele>2659.3</ele><time>2026-03-02T08:57:41.000Z</time></trkpt>
<trkpt lat="42.170496" lon="23.365906"><ele>2659.3</ele><time>2026-03-02T08:57:42.000Z</time></trkpt>
<trkpt lat="42.170496" lon="23.365906"><ele>2659.3</ele><time>2026-03-02T08:57:43.000Z</time></trkpt>
<trkpt lat="42.170496" lon="23.365906"><ele>2659.3</ele><time>2026-03-02T08:57:44.000Z</time></trkpt>
<trkpt lat="42.170496" lon="23.365906"><ele>2659.2</ele><time>2026-03-02T08:57:45.000Z</time></trkpt>
<trkpt lat="42.170496" lon="23.365906"><ele>2659.2</ele><time>2026-03-02T08:57:46.000Z</time></trkpt>
<trkpt lat="42.170496" lon="23.365906"><ele>2659.2</ele><time>2026-03-02T08:57:47.000Z</time></trkpt>
<trkpt lat="42.170496" lon="23.365906"><ele>2659.2</ele><time>2026-03-02T08:57:48.000Z</time></trkpt>
<trkpt lat="42.170496" lon="23.365906"><ele>2659.2</ele><time>2026-03-02T08:57:49.000Z</time></trkpt>
<trkpt lat="42.170496" lon="23.365906"><ele>2659.2</ele><time>2026-03-02T08:57:50.000Z</time></trkpt>
<trkpt lat="42.170496" lon="23.365906"><ele>2659.2</ele><time>2026-03-02T08:57:51.000Z</time></trkpt>
<trkpt lat="42.170496" lon="23.365907"><ele>2659.2</ele><time>2026-03-02T08:57:52.000Z</time></trkpt>
<trkpt lat="42.170496" lon="23.365907"><ele>2659.2</ele><time>2026-03-02T08:57:53.000Z</time></trkpt>
<trkpt lat="42.170496" lon="23.365907"><ele>2659.2</ele><time>2026-03-02T08:57:54.000Z</time></trkpt>
<trkpt lat="42.170496" lon="23.365908"><ele>2659.2</ele><time>2026-03-02T08:57:55.000Z</time></trkpt>
<trkpt lat="42.170495" lon="23.365908"><ele>2659.2</ele><time>2026-03-02T08:57:56.000Z</time></trkpt>
<trkpt lat="42.170495" lon="23.365908"><ele>2659.2</ele><time>2026-03-02T08:57:57.000Z</time></trkpt>
<trkpt lat="42.170495" lon="23.365908"><ele>2659.2</ele><time>2026-03-02T08:57:58.000Z</time></trkpt>
<trkpt lat="42.170495" lon="23.365908"><ele>2659.2</ele><time>2026-03-02T08:57:59.000Z</time></trkpt>
<trkpt lat="42.170495" lon="23.365908"><ele>2659.3</ele><time>2026-03-02T08:58:00.000Z</time></trkpt>
<trkpt lat="42.170495" lon="23.365908"><ele>2659.3</ele><time>2026-03-02T08:58:01.000Z</time></trkpt>
<trkpt lat="42.170495" lon="23.365908"><ele>2659.3</ele><time>2026-03-02T08:58:02.000Z</time></trkpt>
<trkpt lat="42.170495" lon="23.365908"><ele>2659.3</ele><time>2026-03-02T08:58:03.000Z</time></trkpt>
<trkpt lat="42.170496" lon="23.365908"><ele>2659.3</ele><time>2026-03-02T08:58:04.000Z</time></trkpt>
<trkpt lat="42.170495" lon="23.365908"><ele>2659.3</ele><time>2026-03-02T08:58:05.000Z</time></trkpt>
<trkpt lat="42.170495" lon="23.365908"><ele>2659.3</ele><time>2026-03-02T08:58:06.000Z</time></trkpt>
<trkpt lat="42.170495" lon="23.365909"><ele>2659.3</ele><time>2026-03-02T08:58:07.000Z</time></trkpt>
<trkpt lat="42.170495" lon="23.365909"><ele>2659.3</ele><time>2026-03-02T08:58:08.000Z</time></trkpt>
<trkpt lat="42.170494" lon="23.365909"><ele>2659.3</ele><time>2026-03-02T08:58:09.000Z</time></trkpt>
<trkpt lat="42.170494" lon="23.365909"><ele>2659.3</ele><time>2026-03-02T08:58:10.000Z</time></trkpt>
<trkpt lat="42.170494" lon="23.365909"><ele>2659.3</ele><time>2026-03-02T08:58:11.000Z</time></trkpt>
<trkpt lat="42.170494" lon="23.365909"><ele>2659.3</ele><time>2026-03-02T08:58:12.000Z</time></trkpt>
<trkpt lat="42.170494" lon="23.36591"><ele>2659.3</ele><time>2026-03-02T08:58:13.000Z</time></trkpt>
<trkpt lat="42.170493" lon="23.365911"><ele>2659.3</ele><time>2026-03-02T08:58:14.000Z</time></trkpt>
<trkpt lat="42.170493" lon="23.365912"><ele>2659.3</ele><time>2026-03-02T08:58:15.000Z</time></trkpt>
<trkpt lat="42.170492" lon="23.365914"><ele>2659.3</ele><time>2026-03-02T08:58:16.000Z</time></trkpt>
<trkpt lat="42.170492" lon="23.365916"><ele>2659.3</ele><time>2026-03-02T08:58:17.000Z</time></trkpt>
<trkpt lat="42.170492" lon="23.365917"><ele>2659.3</ele><time>2026-03-02T08:58:18.000Z</time></trkpt>
<trkpt lat="42.170491" lon="23.365917"><ele>2659.3</ele><time>2026-03-02T08:58:19.000Z</time></trkpt>
<trkpt lat="42.170491" lon="23.36592"><ele>2659.3</ele><time>2026-03-02T08:58:20.000Z</time></trkpt>
<trkpt lat="42.170491" lon="23.365922"><ele>2659.3</ele><time>2026-03-02T08:58:21.000Z</time></trkpt>
<trkpt lat="42.170491" lon="23.365923"><ele>2659.3</ele><time>2026-03-02T08:58:22.000Z</time></trkpt>
<trkpt lat="42.170491" lon="23.365925"><ele>2659.3</ele><time>2026-03-02T08:58:23.000Z</time></trkpt>
<trkpt lat="42.17049" lon="23.365927"><ele>2659.3</ele><time>2026-03-02T08:58:24.000Z</time></trkpt>
<trkpt lat="42.170489" lon="23.365928"><ele>2659.2</ele><time>2026-03-02T08:58:25.000Z</time></trkpt>
<trkpt lat="42.170487" lon="23.365929"><ele>2659.2</ele><time>2026-03-02T08:58:26.000Z</time></trkpt>
<trkpt lat="42.170485" lon="23.36593"><ele>2659.2</ele><time>2026-03-02T08:58:27.000Z</time></trkpt>
<trkpt lat="42.170483" lon="23.365931"><ele>2659.2</ele><time>2026-03-02T08:58:28.000Z</time></trkpt>
<trkpt lat="42.170481" lon="23.365931"><ele>2659.2</ele><time>2026-03-02T08:58:29.000Z</time></trkpt>
<trkpt lat="42.17048" lon="23.365932"><ele>2659.2</ele><time>2026-03-02T08:58:30.000Z</time></trkpt>
<trkpt lat="42.17048" lon="23.365931"><ele>2659.2</ele><time>2026-03-02T08:58:31.000Z</time></trkpt>
<trkpt lat="42.170481" lon="23.365931"><ele>2659.2</ele><time>2026-03-02T08:58:32.000Z</time></trkpt>
<trkpt lat="42.17048" lon="23.365931"><ele>2659.2</ele><time>2026-03-02T08:58:33.000Z</time></trkpt>
<trkpt lat="42.17048" lon="23.36593"><ele>2659.2</ele><time>2026-03-02T08:58:34.000Z</time></trkpt>
<trkpt lat="42.170479" lon="23.365929"><ele>2659.4</ele><time>2026-03-02T08:58:35.000Z</time></trkpt>
<trkpt lat="42.170479" lon="23.365928"><ele>2659.4</ele><time>2026-03-02T08:58:36.000Z</time></trkpt>
<trkpt lat="42.170479" lon="23.365926"><ele>2659.4</ele><time>2026-03-02T08:58:37.000Z</time></trkpt>
<trkpt lat="42.17048" lon="23.365924"><ele>2659.4</ele><time>2026-03-02T08:58:38.000Z</time></trkpt>
<trkpt lat="42.17048" lon="23.365922"><ele>2659.4</ele><time>2026-03-02T08:58:39.000Z</time></trkpt>
<trkpt lat="42.170481" lon="23.365921"><ele>2659.4</ele><time>2026-03-02T08:58:40.000Z</time></trkpt>
<trkpt lat="42.170482" lon="23.36592"><ele>2659.4</ele><time>2026-03-02T08:58:41.000Z</time></trkpt>
<trkpt lat="42.170482" lon="23.36592"><ele>2659.4</ele><time>2026-03-02T08:58:42.000Z</time></trkpt>
<trkpt lat="42.170482" lon="23.36592"><ele>2659.4</ele><time>2026-03-02T08:58:43.000Z</time></trkpt>
<trkpt lat="42.170482" lon="23.36592"><ele>2659.4</ele><time>2026-03-02T08:58:44.000Z</time></trkpt>
<trkpt lat="42.170482" lon="23.36592"><ele>2659.4</ele><time>2026-03-02T08:58:45.000Z</time></trkpt>
<trkpt lat="42.170482" lon="23.36592"><ele>2659.4</ele><time>2026-03-02T08:58:46.000Z</time></trkpt>
<trkpt lat="42.170482" lon="23.36592"><ele>2659.4</ele><time>2026-03-02T08:58:47.000Z</time></trkpt>
<trkpt lat="42.170482" lon="23.36592"><ele>2659.4</ele><time>2026-03-02T08:58:48.000Z</time></trkpt>
<trkpt lat="42.170482" lon="23.36592"><ele>2659.4</ele><time>2026-03-02T08:58:49.000Z</time></trkpt>
<trkpt lat="42.170482" lon="23.36592"><ele>2659.3</ele><time>2026-03-02T08:58:50.000Z</time></trkpt>
<trkpt lat="42.170482" lon="23.36592"><ele>2659.3</ele><time>2026-03-02T08:58:51.000Z</time></trkpt>
<trkpt lat="42.170482" lon="23.36592"><ele>2659.3</ele><time>2026-03-02T08:58:52.000Z</time></trkpt>
<trkpt lat="42.170482" lon="23.36592"><ele>2659.3</ele><time>2026-03-02T08:58:53.000Z</time></trkpt>
<trkpt lat="42.170482" lon="23.36592"><ele>2659.3</ele><time>2026-03-02T08:58:54.000Z</time></trkpt>
<trkpt lat="42.170482" lon="23.36592"><ele>2659.2</ele><time>2026-03-02T08:58:55.000Z</time></trkpt>
<trkpt lat="42.170482" lon="23.36592"><ele>2659.2</ele><time>2026-03-02T08:58:56.000Z</time></trkpt>
<trkpt lat="42.170482" lon="23.36592"><ele>2659.2</ele><time>2026-03-02T08:58:57.000Z</time></trkpt>
<trkpt lat="42.170481" lon="23.365921"><ele>2659.2</ele><time>2026-03-02T08:58:58.000Z</time></trkpt>
<trkpt lat="42.170481" lon="23.365921"><ele>2659.2</ele><time>2026-03-02T08:58:59.000Z</time></trkpt>
<trkpt lat="42.170481" lon="23.365922"><ele>2659.2</ele><time>2026-03-02T08:59:00.000Z</time></trkpt>
<trkpt lat="42.170481" lon="23.365922"><ele>2659.2</ele><time>2026-03-02T08:59:01.000Z</time></trkpt>
<trkpt lat="42.170481" lon="23.365923"><ele>2659.2</ele><time>2026-03-02T08:59:02.000Z</time></trkpt>
<trkpt lat="42.170482" lon="23.365923"><ele>2659.2</ele><time>2026-03-02T08:59:03.000Z</time></trkpt>
<trkpt lat="42.170482" lon="23.365922"><ele>2659.2</ele><time>2026-03-02T08:59:04.000Z</time></trkpt>
<trkpt lat="42.170481" lon="23.365921"><ele>2659.2</ele><time>2026-03-02T08:59:05.000Z</time></trkpt>
<trkpt lat="42.17048" lon="23.36592"><ele>2659.2</ele><time>2026-03-02T08:59:06.000Z</time></trkpt>
<trkpt lat="42.17048" lon="23.365918"><ele>2659.2</ele><time>2026-03-02T08:59:07.000Z</time></trkpt>
<trkpt lat="42.170479" lon="23.365917"><ele>2659.2</ele><time>2026-03-02T08:59:08.000Z</time></trkpt>
<trkpt lat="42.170479" lon="23.365917"><ele>2659.2</ele><time>2026-03-02T08:59:09.000Z</time></trkpt>
<trkpt lat="42.170479" lon="23.365918"><ele>2659.2</ele><time>2026-03-02T08:59:10.000Z</time></trkpt>
<trkpt lat="42.170478" lon="23.365919"><ele>2659.2</ele><time>2026-03-02T08:59:11.000Z</time></trkpt>
<trkpt lat="42.170478" lon="23.365919"><ele>2659.2</ele><time>2026-03-02T08:59:12.000Z</time></trkpt>
<trkpt lat="42.170478" lon="23.36592"><ele>2659.2</ele><time>2026-03-02T08:59:13.000Z</time></trkpt>
<trkpt lat="42.170478" lon="23.36592"><ele>2659.2</ele><time>2026-03-02T08:59:14.000Z</time></trkpt>
<trkpt lat="42.170478" lon="23.365919"><ele>2659.5</ele><time>2026-03-02T08:59:15.000Z</time></trkpt>
<trkpt lat="42.170478" lon="23.365919"><ele>2659.5</ele><time>2026-03-02T08:59:16.000Z</time></trkpt>
<trkpt lat="42.170478" lon="23.365919"><ele>2659.5</ele><time>2026-03-02T08:59:17.000Z</time></trkpt>
<trkpt lat="42.170478" lon="23.365919"><ele>2659.5</ele><time>2026-03-02T08:59:18.000Z</time></trkpt>
<trkpt lat="42.170478" lon="23.365919"><ele>2659.5</ele><time>2026-03-02T08:59:19.000Z</time></trkpt>
<trkpt lat="42.170478" lon="23.365919"><ele>2659.9</ele><time>2026-03-02T08:59:20.000Z</time></trkpt>
<trkpt lat="42.170478" lon="23.365919"><ele>2659.9</ele><time>2026-03-02T08:59:21.000Z</time></trkpt>
<trkpt lat="42.170478" lon="23.365919"><ele>2659.9</ele><time>2026-03-02T08:59:22.000Z</time></trkpt>
<trkpt lat="42.170479" lon="23.365919"><ele>2659.9</ele><time>2026-03-02T08:59:23.000Z</time></trkpt>
<trkpt lat="42.170479" lon="23.365919"><ele>2659.9</ele><time>2026-03-02T08:59:24.000Z</time></trkpt>
<trkpt lat="42.170479" lon="23.365919"><ele>2660.1</ele><time>2026-03-02T08:59:25.000Z</time></trkpt>
<trkpt lat="42.170478" lon="23.365919"><ele>2660.1</ele><time>2026-03-02T08:59:26.000Z</time></trkpt>
<trkpt lat="42.170478" lon="23.365919"><ele>2660.1</ele><time>2026-03-02T08:59:27.000Z</time></trkpt>
<trkpt lat="42.170478" lon="23.365919"><ele>2660.1</ele><time>2026-03-02T08:59:28.000Z</time></trkpt>
<trkpt lat="42.170477" lon="23.365919"><ele>2660.1</ele><time>2026-03-02T08:59:29.000Z</time></trkpt>
<trkpt lat="42.170477" lon="23.365918"><ele>2660.2</ele><time>2026-03-02T08:59:30.000Z</time></trkpt>
<trkpt lat="42.170477" lon="23.365917"><ele>2660.2</ele><time>2026-03-02T08:59:31.000Z</time></trkpt>
<trkpt lat="42.170476" lon="23.365917"><ele>2660.2</ele><time>2026-03-02T08:59:32.000Z</time></trkpt>
<trkpt lat="42.170476" lon="23.365916"><ele>2660.2</ele><time>2026-03-02T08:59:33.000Z</time></trkpt>
<trkpt lat="42.170476" lon="23.365916"><ele>2660.2</ele><time>2026-03-02T08:59:34.000Z</time></trkpt>
<trkpt lat="42.170473" lon="23.365915"><ele>2659.9</ele><time>2026-03-02T08:59:35.000Z</time></trkpt>
<trkpt lat="42.17047" lon="23.365914"><ele>2659.9</ele><time>2026-03-02T08:59:36.000Z</time></trkpt>
<trkpt lat="42.170465" lon="23.365912"><ele>2659.9</ele><time>2026-03-02T08:59:37.000Z</time></trkpt>
<trkpt lat="42.170459" lon="23.365909"><ele>2659.9</ele><time>2026-03-02T08:59:38.000Z</time></trkpt>
<trkpt lat="42.170453" lon="23.365904"><ele>2659.9</ele><time>2026-03-02T08:59:39.000Z</time></trkpt>
<trkpt lat="42.170447" lon="23.365899"><ele>2659.8</ele><time>2026-03-02T08:59:40.000Z</time></trkpt>
<trkpt lat="42.170442" lon="23.365893"><ele>2659.8</ele><time>2026-03-02T08:59:41.000Z</time></trkpt>
<trkpt lat="42.170436" lon="23.365889"><ele>2659.8</ele><time>2026-03-02T08:59:42.000Z</time></trkpt>
<trkpt lat="42.170432" lon="23.365885"><ele>2659.8</ele><time>2026-03-02T08:59:43.000Z</time></trkpt>
<trkpt lat="42.170427" lon="23.365882"><ele>2659.8</ele><time>2026-03-02T08:59:44.000Z</time></trkpt>
<trkpt lat="42.170421" lon="23.36588"><ele>2659.8</ele><time>2026-03-02T08:59:45.000Z</time></trkpt>
<trkpt lat="42.170416" lon="23.365878"><ele>2659.8</ele><time>2026-03-02T08:59:46.000Z</time></trkpt>
<trkpt lat="42.170411" lon="23.365877"><ele>2659.8</ele><time>2026-03-02T08:59:47.000Z</time></trkpt>
<trkpt lat="42.170405" lon="23.365874"><ele>2659.8</ele><time>2026-03-02T08:59:48.000Z</time></trkpt>
<trkpt lat="42.170399" lon="23.365871"><ele>2659.8</ele><time>2026-03-02T08:59:49.000Z</time></trkpt>
<trkpt lat="42.170393" lon="23.365869"><ele>2660.5</ele><time>2026-03-02T08:59:50.000Z</time></trkpt>
<trkpt lat="42.170388" lon="23.365865"><ele>2660.5</ele><time>2026-03-02T08:59:51.000Z</time></trkpt>
<trkpt lat="42.170382" lon="23.365862"><ele>2660.5</ele><time>2026-03-02T08:59:52.000Z</time></trkpt>
<trkpt lat="42.170376" lon="23.365859"><ele>2660.5</ele><time>2026-03-02T08:59:53.000Z</time></trkpt>
<trkpt lat="42.17037" lon="23.365855"><ele>2660.5</ele><time>2026-03-02T08:59:54.000Z</time></trkpt>
<trkpt lat="42.170365" lon="23.365851"><ele>2661.1</ele><time>2026-03-02T08:59:55.000Z</time></trkpt>
<trkpt lat="42.170359" lon="23.365847"><ele>2661.1</ele><time>2026-03-02T08:59:56.000Z</time></trkpt>
<trkpt lat="42.170354" lon="23.365843"><ele>2661.1</ele><time>2026-03-02T08:59:57.000Z</time></trkpt>
<trkpt lat="42.170349" lon="23.365839"><ele>2661.1</ele><time>2026-03-02T08:59:58.000Z</time></trkpt>
<trkpt lat="42.170344" lon="23.365834"><ele>2661.1</ele><time>2026-03-02T08:59:59.000Z</time></trkpt>
<trkpt lat="42.17034" lon="23.365829"><ele>2662.3</ele><time>2026-03-02T09:00:00.000Z</time></trkpt>
<trkpt lat="42.170335" lon="23.365824"><ele>2662.3</ele><time>2026-03-02T09:00:01.000Z</time></trkpt>
<trkpt lat="42.170331" lon="23.365817"><ele>2662.3</ele><time>2026-03-02T09:00:02.000Z</time></trkpt>
<trkpt lat="42.170327" lon="23.365811"><ele>2662.3</ele><time>2026-03-02T09:00:03.000Z</time></trkpt>
<trkpt lat="42.170324" lon="23.365804"><ele>2662.3</ele><time>2026-03-02T09:00:04.000Z</time></trkpt>
<trkpt lat="42.170321" lon="23.365797"><ele>2663.8</ele><time>2026-03-02T09:00:05.000Z</time></trkpt>
<trkpt lat="42.170318" lon="23.365792"><ele>2663.8</ele><time>2026-03-02T09:00:06.000Z</time></trkpt>
<trkpt lat="42.170315" lon="23.365786"><ele>2663.8</ele><time>2026-03-02T09:00:07.000Z</time></trkpt>
<trkpt lat="42.170311" lon="23.365781"><ele>2663.8</ele><time>2026-03-02T09:00:08.000Z</time></trkpt>
<trkpt lat="42.170308" lon="23.365776"><ele>2663.8</ele><time>2026-03-02T09:00:09.000Z</time></trkpt>
<trkpt lat="42.170304" lon="23.365771"><ele>2664.6</ele><time>2026-03-02T09:00:10.000Z</time></trkpt>
<trkpt lat="42.1703" lon="23.365765"><ele>2664.6</ele><time>2026-03-02T09:00:11.000Z</time></trkpt>
<trkpt lat="42.170297" lon="23.365759"><ele>2664.6</ele><time>2026-03-02T09:00:12.000Z</time></trkpt>
<trkpt lat="42.170294" lon="23.365752"><ele>2664.6</ele><time>2026-03-02T09:00:13.000Z</time></trkpt>
<trkpt lat="42.170292" lon="23.365745"><ele>2664.6</ele><time>2026-03-02T09:00:14.000Z</time></trkpt>
<trkpt lat="42.170289" lon="23.365737"><ele>2666</ele><time>2026-03-02T09:00:15.000Z</time></trkpt>
<trkpt lat="42.170286" lon="23.365731"><ele>2666</ele><time>2026-03-02T09:00:16.000Z</time></trkpt>
<trkpt lat="42.170283" lon="23.365724"><ele>2666</ele><time>2026-03-02T09:00:17.000Z</time></trkpt>
<trkpt lat="42.17028" lon="23.36572"><ele>2666</ele><time>2026-03-02T09:00:18.000Z</time></trkpt>
<trkpt lat="42.170277" lon="23.365715"><ele>2666</ele><time>2026-03-02T09:00:19.000Z</time></trkpt>
<trkpt lat="42.170273" lon="23.36571"><ele>2667.2</ele><time>2026-03-02T09:00:20.000Z</time></trkpt>
<trkpt lat="42.17027" lon="23.365705"><ele>2667.2</ele><time>2026-03-02T09:00:21.000Z</time></trkpt>
<trkpt lat="42.170267" lon="23.365699"><ele>2667.2</ele><time>2026-03-02T09:00:22.000Z</time></trkpt>
<trkpt lat="42.170263" lon="23.365693"><ele>2667.2</ele><time>2026-03-02T09:00:23.000Z</time></trkpt>
<trkpt lat="42.17026" lon="23.365688"><ele>2667.2</ele><time>2026-03-02T09:00:24.000Z</time></trkpt>
<trkpt lat="42.170257" lon="23.365682"><ele>2667.8</ele><time>2026-03-02T09:00:25.000Z</time></trkpt>
<trkpt lat="42.170255" lon="23.365676"><ele>2667.8</ele><time>2026-03-02T09:00:26.000Z</time></trkpt>
<trkpt lat="42.170252" lon="23.36567"><ele>2667.8</ele><time>2026-03-02T09:00:27.000Z</time></trkpt>
<trkpt lat="42.17025" lon="23.365664"><ele>2667.8</ele><time>2026-03-02T09:00:28.000Z</time></trkpt>
<trkpt lat="42.170247" lon="23.365658"><ele>2667.8</ele><time>2026-03-02T09:00:29.000Z</time></trkpt>
<trkpt lat="42.170244" lon="23.36565"><ele>2668.8</ele><time>2026-03-02T09:00:30.000Z</time></trkpt>
<trkpt lat="42.170241" lon="23.365642"><ele>2668.8</ele><time>2026-03-02T09:00:31.000Z</time></trkpt>
<trkpt lat="42.170238" lon="23.365635"><ele>2668.8</ele><time>2026-03-02T09:00:32.000Z</time></trkpt>
<trkpt lat="42.170235" lon="23.365627"><ele>2668.8</ele><time>2026-03-02T09:00:33.000Z</time></trkpt>
<trkpt lat="42.170233" lon="23.36562"><ele>2668.8</ele><time>2026-03-02T09:00:34.000Z</time></trkpt>
<trkpt lat="42.17023" lon="23.365615"><ele>2669.8</ele><time>2026-03-02T09:00:35.000Z</time></trkpt>
<trkpt lat="42.170227" lon="23.36561"><ele>2669.8</ele><time>2026-03-02T09:00:36.000Z</time></trkpt>
<trkpt lat="42.170225" lon="23.365606"><ele>2669.8</ele><time>2026-03-02T09:00:37.000Z</time></trkpt>
<trkpt lat="42.170222" lon="23.365601"><ele>2669.8</ele><time>2026-03-02T09:00:38.000Z</time></trkpt>
<trkpt lat="42.170218" lon="23.365597"><ele>2669.8</ele><time>2026-03-02T09:00:39.000Z</time></trkpt>
<trkpt lat="42.170214" lon="23.365593"><ele>2670.2</ele><time>2026-03-02T09:00:40.000Z</time></trkpt>
<trkpt lat="42.170209" lon="23.365589"><ele>2670.2</ele><time>2026-03-02T09:00:41.000Z</time></trkpt>
<trkpt lat="42.170205" lon="23.365585"><ele>2670.2</ele><time>2026-03-02T09:00:42.000Z</time></trkpt>
<trkpt lat="42.170202" lon="23.365579"><ele>2670.2</ele><time>2026-03-02T09:00:43.000Z</time></trkpt>
<trkpt lat="42.170199" lon="23.365573"><ele>2670.2</ele><time>2026-03-02T09:00:44.000Z</time></trkpt>
<trkpt lat="42.170196" lon="23.365567"><ele>2671</ele><time>2026-03-02T09:00:45.000Z</time></trkpt>
<trkpt lat="42.170195" lon="23.365559"><ele>2671</ele><time>2026-03-02T09:00:46.000Z</time></trkpt>
<trkpt lat="42.170193" lon="23.365551"><ele>2671</ele><time>2026-03-02T09:00:47.000Z</time></trkpt>
<trkpt lat="42.170191" lon="23.365545"><ele>2671</ele><time>2026-03-02T09:00:48.000Z</time></trkpt>
<trkpt lat="42.170189" lon="23.365538"><ele>2671</ele><time>2026-03-02T09:00:49.000Z</time></trkpt>
<trkpt lat="42.170186" lon="23.365532"><ele>2671.8</ele><time>2026-03-02T09:00:50.000Z</time></trkpt>
<trkpt lat="42.170183" lon="23.365528"><ele>2671.8</ele><time>2026-03-02T09:00:51.000Z</time></trkpt>
<trkpt lat="42.17018" lon="23.365523"><ele>2671.8</ele><time>2026-03-02T09:00:52.000Z</time></trkpt>
<trkpt lat="42.170177" lon="23.365518"><ele>2671.8</ele><time>2026-03-02T09:00:53.000Z</time></trkpt>
<trkpt lat="42.170176" lon="23.365513"><ele>2671.8</ele><time>2026-03-02T09:00:54.000Z</time></trkpt>
<trkpt lat="42.170174" lon="23.365507"><ele>2672.3</ele><time>2026-03-02T09:00:55.000Z</time></trkpt>
<trkpt lat="42.170172" lon="23.365501"><ele>2672.3</ele><time>2026-03-02T09:00:56.000Z</time></trkpt>
<trkpt lat="42.17017" lon="23.365494"><ele>2672.3</ele><time>2026-03-02T09:00:57.000Z</time></trkpt>
<trkpt lat="42.170168" lon="23.365488"><ele>2672.3</ele><time>2026-03-02T09:00:58.000Z</time></trkpt>
<trkpt lat="42.170166" lon="23.365482"><ele>2672.3</ele><time>2026-03-02T09:00:59.000Z</time></trkpt>
<trkpt lat="42.170164" lon="23.365476"><ele>2673.3</ele><time>2026-03-02T09:01:00.000Z</time></trkpt>
<trkpt lat="42.170163" lon="23.36547"><ele>2673.3</ele><time>2026-03-02T09:01:01.000Z</time></trkpt>
<trkpt lat="42.170162" lon="23.365463"><ele>2673.3</ele><time>2026-03-02T09:01:02.000Z</time></trkpt>
<trkpt lat="42.170161" lon="23.365457"><ele>2673.3</ele><time>2026-03-02T09:01:03.000Z</time></trkpt>
<trkpt lat="42.17016" lon="23.365452"><ele>2673.3</ele><time>2026-03-02T09:01:04.000Z</time></trkpt>
<trkpt lat="42.170158" lon="23.365447"><ele>2674.3</ele><time>2026-03-02T09:01:05.000Z</time></trkpt>
<trkpt lat="42.170156" lon="23.365444"><ele>2674.3</ele><time>2026-03-02T09:01:06.000Z</time></trkpt>
<trkpt lat="42.170153" lon="23.36544"><ele>2674.3</ele><time>2026-03-02T09:01:07.000Z</time></trkpt>
<trkpt lat="42.170151" lon="23.365436"><ele>2674.3</ele><time>2026-03-02T09:01:08.000Z</time></trkpt>
<trkpt lat="42.170149" lon="23.365432"><ele>2674.3</ele><time>2026-03-02T09:01:09.000Z</time></trkpt>
<trkpt lat="42.170146" lon="23.365428"><ele>2674.7</ele><time>2026-03-02T09:01:10.000Z</time></trkpt>
<trkpt lat="42.170144" lon="23.365424"><ele>2674.7</ele><time>2026-03-02T09:01:11.000Z</time></trkpt>
<trkpt lat="42.170141" lon="23.36542"><ele>2674.7</ele><time>2026-03-02T09:01:12.000Z</time></trkpt>
<trkpt lat="42.170138" lon="23.365416"><ele>2674.7</ele><time>2026-03-02T09:01:13.000Z</time></trkpt>
<trkpt lat="42.170136" lon="23.365412"><ele>2674.7</ele><time>2026-03-02T09:01:14.000Z</time></trkpt>
<trkpt lat="42.170134" lon="23.365409"><ele>2675.5</ele><time>2026-03-02T09:01:15.000Z</time></trkpt>
<trkpt lat="42.170132" lon="23.365405"><ele>2675.5</ele><time>2026-03-02T09:01:16.000Z</time></trkpt>
<trkpt lat="42.17013" lon="23.365401"><ele>2675.5</ele><time>2026-03-02T09:01:17.000Z</time></trkpt>
<trkpt lat="42.170127" lon="23.365398"><ele>2675.5</ele><time>2026-03-02T09:01:18.000Z</time></trkpt>
<trkpt lat="42.170124" lon="23.365394"><ele>2675.5</ele><time>2026-03-02T09:01:19.000Z</time></trkpt>
<trkpt lat="42.170121" lon="23.36539"><ele>2676.3</ele><time>2026-03-02T09:01:20.000Z</time></trkpt>
<trkpt lat="42.170118" lon="23.365385"><ele>2676.3</ele><time>2026-03-02T09:01:21.000Z</time></trkpt>
<trkpt lat="42.170115" lon="23.365381"><ele>2676.3</ele><time>2026-03-02T09:01:22.000Z</time></trkpt>
<trkpt lat="42.170113" lon="23.365376"><ele>2676.3</ele><time>2026-03-02T09:01:23.000Z</time></trkpt>
<trkpt lat="42.170111" lon="23.365372"><ele>2676.3</ele><time>2026-03-02T09:01:24.000Z</time></trkpt>
<trkpt lat="42.170108" lon="23.365367"><ele>2676.7</ele><time>2026-03-02T09:01:25.000Z</time></trkpt>
<trkpt lat="42.170105" lon="23.365362"><ele>2676.7</ele><time>2026-03-02T09:01:26.000Z</time></trkpt>
<trkpt lat="42.170102" lon="23.365356"><ele>2676.7</ele><time>2026-03-02T09:01:27.000Z</time></trkpt>
<trkpt lat="42.1701" lon="23.365352"><ele>2676.7</ele><time>2026-03-02T09:01:28.000Z</time></trkpt>
<trkpt lat="42.170097" lon="23.365346"><ele>2676.7</ele><time>2026-03-02T09:01:29.000Z</time></trkpt>
<trkpt lat="42.170094" lon="23.365343"><ele>2677.7</ele><time>2026-03-02T09:01:30.000Z</time></trkpt>
<trkpt lat="42.170091" lon="23.36534"><ele>2677.7</ele><time>2026-03-02T09:01:31.000Z</time></trkpt>
<trkpt lat="42.17009" lon="23.365337"><ele>2677.7</ele><time>2026-03-02T09:01:32.000Z</time></trkpt>
<trkpt lat="42.170088" lon="23.365335"><ele>2677.7</ele><time>2026-03-02T09:01:33.000Z</time></trkpt>
<trkpt lat="42.170086" lon="23.365332"><ele>2677.7</ele><time>2026-03-02T09:01:34.000Z</time></trkpt>
<trkpt lat="42.170083" lon="23.365328"><ele>2678.7</ele><time>2026-03-02T09:01:35.000Z</time></trkpt>
<trkpt lat="42.170081" lon="23.365324"><ele>2678.7</ele><time>2026-03-02T09:01:36.000Z</time></trkpt>
<trkpt lat="42.170078" lon="23.36532"><ele>2678.7</ele><time>2026-03-02T09:01:37.000Z</time></trkpt>
<trkpt lat="42.170076" lon="23.365316"><ele>2678.7</ele><time>2026-03-02T09:01:38.000Z</time></trkpt>
<trkpt lat="42.170074" lon="23.365312"><ele>2678.7</ele><time>2026-03-02T09:01:39.000Z</time></trkpt>
<trkpt lat="42.170071" lon="23.365308"><ele>2679.1</ele><time>2026-03-02T09:01:40.000Z</time></trkpt>
<trkpt lat="42.170069" lon="23.365304"><ele>2679.1</ele><time>2026-03-02T09:01:41.000Z</time></trkpt>
<trkpt lat="42.170067" lon="23.3653"><ele>2679.1</ele><time>2026-03-02T09:01:42.000Z</time></trkpt>
<trkpt lat="42.170064" lon="23.365295"><ele>2679.1</ele><time>2026-03-02T09:01:43.000Z</time></trkpt>
<trkpt lat="42.170061" lon="23.365289"><ele>2679.1</ele><time>2026-03-02T09:01:44.000Z</time></trkpt>
<trkpt lat="42.170059" lon="23.365281"><ele>2680</ele><time>2026-03-02T09:01:45.000Z</time></trkpt>
<trkpt lat="42.170057" lon="23.365274"><ele>2680</ele><time>2026-03-02T09:01:46.000Z</time></trkpt>
<trkpt lat="42.170054" lon="23.365267"><ele>2680</ele><time>2026-03-02T09:01:47.000Z</time></trkpt>
<trkpt lat="42.170052" lon="23.365259"><ele>2680</ele><time>2026-03-02T09:01:48.000Z</time></trkpt>
<trkpt lat="42.17005" lon="23.365252"><ele>2680</ele><time>2026-03-02T09:01:49.000Z</time></trkpt>
<trkpt lat="42.170048" lon="23.365245"><ele>2680.8</ele><time>2026-03-02T09:01:50.000Z</time></trkpt>
<trkpt lat="42.170046" lon="23.365239"><ele>2680.8</ele><time>2026-03-02T09:01:51.000Z</time></trkpt>
<trkpt lat="42.170044" lon="23.365233"><ele>2680.8</ele><time>2026-03-02T09:01:52.000Z</time></trkpt>
<trkpt lat="42.170043" lon="23.365227"><ele>2680.8</ele><time>2026-03-02T09:01:53.000Z</time></trkpt>
<trkpt lat="42.170041" lon="23.36522"><ele>2680.8</ele><time>2026-03-02T09:01:54.000Z</time></trkpt>
<trkpt lat="42.17004" lon="23.365214"><ele>2681.2</ele><time>2026-03-02T09:01:55.000Z</time></trkpt>
<trkpt lat="42.170039" lon="23.365207"><ele>2681.2</ele><time>2026-03-02T09:01:56.000Z</time></trkpt>
<trkpt lat="42.170038" lon="23.365201"><ele>2681.2</ele><time>2026-03-02T09:01:57.000Z</time></trkpt>
<trkpt lat="42.170037" lon="23.365195"><ele>2681.2</ele><time>2026-03-02T09:01:58.000Z</time></trkpt>
<trkpt lat="42.170036" lon="23.365189"><ele>2681.2</ele><time>2026-03-02T09:01:59.000Z</time></trkpt>
<trkpt lat="42.170036" lon="23.365183"><ele>2682.1</ele><time>2026-03-02T09:02:00.000Z</time></trkpt>
<trkpt lat="42.170035" lon="23.365178"><ele>2682.1</ele><time>2026-03-02T09:02:01.000Z</time></trkpt>
<trkpt lat="42.170035" lon="23.365173"><ele>2682.1</ele><time>2026-03-02T09:02:02.000Z</time></trkpt>
<trkpt lat="42.170034" lon="23.365168"><ele>2682.1</ele><time>2026-03-02T09:02:03.000Z</time></trkpt>
<trkpt lat="42.170033" lon="23.365162"><ele>2682.1</ele><time>2026-03-02T09:02:04.000Z</time></trkpt>
<trkpt lat="42.170032" lon="23.365157"><ele>2682.9</ele><time>2026-03-02T09:02:05.000Z</time></trkpt>
<trkpt lat="42.170031" lon="23.365151"><ele>2682.9</ele><time>2026-03-02T09:02:06.000Z</time></trkpt>
<trkpt lat="42.170029" lon="23.365145"><ele>2682.9</ele><time>2026-03-02T09:02:07.000Z</time></trkpt>
<trkpt lat="42.170028" lon="23.365139"><ele>2682.9</ele><time>2026-03-02T09:02:08.000Z</time></trkpt>
<trkpt lat="42.170026" lon="23.365134"><ele>2682.9</ele><time>2026-03-02T09:02:09.000Z</time></trkpt>
<trkpt lat="42.170024" lon="23.36513"><ele>2683.3</ele><time>2026-03-02T09:02:10.000Z</time></trkpt>
<trkpt lat="42.17002" lon="23.365126"><ele>2683.3</ele><time>2026-03-02T09:02:11.000Z</time></trkpt>
<trkpt lat="42.170017" lon="23.365123"><ele>2683.3</ele><time>2026-03-02T09:02:12.000Z</time></trkpt>
<trkpt lat="42.170014" lon="23.36512"><ele>2683.3</ele><time>2026-03-02T09:02:13.000Z</time></trkpt>
<trkpt lat="42.17001" lon="23.365117"><ele>2683.3</ele><time>2026-03-02T09:02:14.000Z</time></trkpt>
<trkpt lat="42.170006" lon="23.365113"><ele>2684.1</ele><time>2026-03-02T09:02:15.000Z</time></trkpt>
<trkpt lat="42.170003" lon="23.365111"><ele>2684.1</ele><time>2026-03-02T09:02:16.000Z</time></trkpt>
<trkpt lat="42.170001" lon="23.365108"><ele>2684.1</ele><time>2026-03-02T09:02:17.000Z</time></trkpt>
<trkpt lat="42.169999" lon="23.365106"><ele>2684.1</ele><time>2026-03-02T09:02:18.000Z</time></trkpt>
<trkpt lat="42.169998" lon="23.365105"><ele>2684.1</ele><time>2026-03-02T09:02:19.000Z</time></trkpt>
<trkpt lat="42.169997" lon="23.365105"><ele>2685.1</ele><time>2026-03-02T09:02:20.000Z</time></trkpt>
<trkpt lat="42.169994" lon="23.365106"><ele>2685.1</ele><time>2026-03-02T09:02:21.000Z</time></trkpt>
<trkpt lat="42.16999" lon="23.365106"><ele>2685.1</ele><time>2026-03-02T09:02:22.000Z</time></trkpt>
<trkpt lat="42.169985" lon="23.365106"><ele>2685.1</ele><time>2026-03-02T09:02:23.000Z</time></trkpt>
<trkpt lat="42.16998" lon="23.365104"><ele>2685.1</ele><time>2026-03-02T09:02:24.000Z</time></trkpt>
<trkpt lat="42.169974" lon="23.365101"><ele>2685.6</ele><time>2026-03-02T09:02:25.000Z</time></trkpt>
<trkpt lat="42.16997" lon="23.365098"><ele>2685.6</ele><time>2026-03-02T09:02:26.000Z</time></trkpt>
<trkpt lat="42.169966" lon="23.365094"><ele>2685.6</ele><time>2026-03-02T09:02:27.000Z</time></trkpt>
<trkpt lat="42.169962" lon="23.365091"><ele>2685.6</ele><time>2026-03-02T09:02:28.000Z</time></trkpt>
<trkpt lat="42.169959" lon="23.365088"><ele>2685.6</ele><time>2026-03-02T09:02:29.000Z</time></trkpt>
<trkpt lat="42.169955" lon="23.365085"><ele>2686.5</ele><time>2026-03-02T09:02:30.000Z</time></trkpt>
<trkpt lat="42.169952" lon="23.365083"><ele>2686.5</ele><time>2026-03-02T09:02:31.000Z</time></trkpt>
<trkpt lat="42.169948" lon="23.365081"><ele>2686.5</ele><time>2026-03-02T09:02:32.000Z</time></trkpt>
<trkpt lat="42.169945" lon="23.365079"><ele>2686.5</ele><time>2026-03-02T09:02:33.000Z</time></trkpt>
<trkpt lat="42.169942" lon="23.365077"><ele>2686.5</ele><time>2026-03-02T09:02:34.000Z</time></trkpt>
<trkpt lat="42.169939" lon="23.365076"><ele>2687.5</ele><time>2026-03-02T09:02:35.000Z</time></trkpt>
<trkpt lat="42.169935" lon="23.365074"><ele>2687.5</ele><time>2026-03-02T09:02:36.000Z</time></trkpt>
<trkpt lat="42.169931" lon="23.365071"><ele>2687.5</ele><time>2026-03-02T09:02:37.000Z</time></trkpt>
<trkpt lat="42.169927" lon="23.365066"><ele>2687.5</ele><time>2026-03-02T09:02:38.000Z</time></trkpt>
<trkpt lat="42.169923" lon="23.365062"><ele>2687.5</ele><time>2026-03-02T09:02:39.000Z</time></trkpt>
<trkpt lat="42.169919" lon="23.365056"><ele>2688</ele><time>2026-03-02T09:02:40.000Z</time></trkpt>
<trkpt lat="42.169916" lon="23.36505"><ele>2688</ele><time>2026-03-02T09:02:41.000Z</time></trkpt>
<trkpt lat="42.169913" lon="23.365043"><ele>2688</ele><time>2026-03-02T09:02:42.000Z</time></trkpt>
<trkpt lat="42.169911" lon="23.365038"><ele>2688</ele><time>2026-03-02T09:02:43.000Z</time></trkpt>
<trkpt lat="42.169909" lon="23.365032"><ele>2688</ele><time>2026-03-02T09:02:44.000Z</time></trkpt>
<trkpt lat="42.169908" lon="23.365027"><ele>2689</ele><time>2026-03-02T09:02:45.000Z</time></trkpt>
<trkpt lat="42.169906" lon="23.36502"><ele>2689</ele><time>2026-03-02T09:02:46.000Z</time></trkpt>
<trkpt lat="42.169905" lon="23.365013"><ele>2689</ele><time>2026-03-02T09:02:47.000Z</time></trkpt>
<trkpt lat="42.169903" lon="23.365006"><ele>2689</ele><time>2026-03-02T09:02:48.000Z</time></trkpt>
<trkpt lat="42.169902" lon="23.364998"><ele>2689</ele><time>2026-03-02T09:02:49.000Z</time></trkpt>
<trkpt lat="42.169901" lon="23.36499"><ele>2690</ele><time>2026-03-02T09:02:50.000Z</time></trkpt>
<trkpt lat="42.169901" lon="23.364983"><ele>2690</ele><time>2026-03-02T09:02:51.000Z</time></trkpt>
<trkpt lat="42.169901" lon="23.364978"><ele>2690</ele><time>2026-03-02T09:02:52.000Z</time></trkpt>
<trkpt lat="42.169902" lon="23.364974"><ele>2690</ele><time>2026-03-02T09:02:53.000Z</time></trkpt>
<trkpt lat="42.169903" lon="23.364972"><ele>2690</ele><time>2026-03-02T09:02:54.000Z</time></trkpt>
<trkpt lat="42.169903" lon="23.364971"><ele>2690.5</ele><time>2026-03-02T09:02:55.000Z</time></trkpt>
<trkpt lat="42.169903" lon="23.364971"><ele>2690.5</ele><time>2026-03-02T09:02:56.000Z</time></trkpt>
<trkpt lat="42.169903" lon="23.364971"><ele>2690.5</ele><time>2026-03-02T09:02:57.000Z</time></trkpt>
<trkpt lat="42.169903" lon="23.364972"><ele>2690.5</ele><time>2026-03-02T09:02:58.000Z</time></trkpt>
<trkpt lat="42.169903" lon="23.364972"><ele>2690.5</ele><time>2026-03-02T09:02:59.000Z</time></trkpt>
<trkpt lat="42.169903" lon="23.364972"><ele>2691.3</ele><time>2026-03-02T09:03:00.000Z</time></trkpt>
<trkpt lat="42.169903" lon="23.364972"><ele>2691.3</ele><time>2026-03-02T09:03:01.000Z</time></trkpt>
<trkpt lat="42.169903" lon="23.364972"><ele>2691.3</ele><time>2026-03-02T09:03:02.000Z</time></trkpt>
<trkpt lat="42.169903" lon="23.364972"><ele>2691.3</ele><time>2026-03-02T09:03:03.000Z</time></trkpt>
<trkpt lat="42.169903" lon="23.364972"><ele>2691.3</ele><time>2026-03-02T09:03:04.000Z</time></trkpt>
<trkpt lat="42.169903" lon="23.364973"><ele>2691.7</ele><time>2026-03-02T09:03:05.000Z</time></trkpt>
<trkpt lat="42.169904" lon="23.364973"><ele>2691.7</ele><time>2026-03-02T09:03:06.000Z</time></trkpt>
<trkpt lat="42.169904" lon="23.364974"><ele>2691.7</ele><time>2026-03-02T09:03:07.000Z</time></trkpt>
<trkpt lat="42.169905" lon="23.364975"><ele>2691.7</ele><time>2026-03-02T09:03:08.000Z</time></trkpt>
<trkpt lat="42.169907" lon="23.364976"><ele>2691.7</ele><time>2026-03-02T09:03:09.000Z</time></trkpt>
<trkpt lat="42.169909" lon="23.364977"><ele>2691.7</ele><time>2026-03-02T09:03:10.000Z</time></trkpt>
<trkpt lat="42.16991" lon="23.364978"><ele>2691.7</ele><time>2026-03-02T09:03:11.000Z</time></trkpt>
<trkpt lat="42.16991" lon="23.364979"><ele>2691.7</ele><time>2026-03-02T09:03:12.000Z</time></trkpt>
<trkpt lat="42.169911" lon="23.36498"><ele>2691.7</ele><time>2026-03-02T09:03:13.000Z</time></trkpt>
<trkpt lat="42.16991" lon="23.36498"><ele>2691.7</ele><time>2026-03-02T09:03:14.000Z</time></trkpt>
<trkpt lat="42.169909" lon="23.364981"><ele>2691.7</ele><time>2026-03-02T09:03:15.000Z</time></trkpt>
<trkpt lat="42.169907" lon="23.364981"><ele>2691.7</ele><time>2026-03-02T09:03:16.000Z</time></trkpt>
<trkpt lat="42.169906" lon="23.364982"><ele>2691.7</ele><time>2026-03-02T09:03:17.000Z</time></trkpt>
<trkpt lat="42.169904" lon="23.364983"><ele>2691.7</ele><time>2026-03-02T09:03:18.000Z</time></trkpt>
<trkpt lat="42.169903" lon="23.364984"><ele>2691.7</ele><time>2026-03-02T09:03:19.000Z</time></trkpt>
<trkpt lat="42.169901" lon="23.364984"><ele>2691.8</ele><time>2026-03-02T09:03:20.000Z</time></trkpt>
<trkpt lat="42.1699" lon="23.364984"><ele>2691.8</ele><time>2026-03-02T09:03:21.000Z</time></trkpt>
<trkpt lat="42.169899" lon="23.364983"><ele>2691.8</ele><time>2026-03-02T09:03:22.000Z</time></trkpt>
<trkpt lat="42.169897" lon="23.364982"><ele>2691.8</ele><time>2026-03-02T09:03:23.000Z</time></trkpt>
<trkpt lat="42.169896" lon="23.364982"><ele>2691.8</ele><time>2026-03-02T09:03:24.000Z</time></trkpt>
<trkpt lat="42.169896" lon="23.364982"><ele>2692</ele><time>2026-03-02T09:03:25.000Z</time></trkpt>
<trkpt lat="42.169895" lon="23.364981"><ele>2692</ele><time>2026-03-02T09:03:26.000Z</time></trkpt>
<trkpt lat="42.169895" lon="23.364981"><ele>2692</ele><time>2026-03-02T09:03:27.000Z</time></trkpt>
<trkpt lat="42.169895" lon="23.364981"><ele>2692</ele><time>2026-03-02T09:03:28.000Z</time></trkpt>
<trkpt lat="42.169895" lon="23.364982"><ele>2692</ele><time>2026-03-02T09:03:29.000Z</time></trkpt>
<trkpt lat="42.169895" lon="23.364982"><ele>2692.3</ele><time>2026-03-02T09:03:30.000Z</time></trkpt>
<trkpt lat="42.169895" lon="23.364983"><ele>2692.3</ele><time>2026-03-02T09:03:31.000Z</time></trkpt>
<trkpt lat="42.169894" lon="23.364984"><ele>2692.3</ele><time>2026-03-02T09:03:32.000Z</time></trkpt>
<trkpt lat="42.169894" lon="23.364985"><ele>2692.3</ele><time>2026-03-02T09:03:33.000Z</time></trkpt>
<trkpt lat="42.169894" lon="23.364986"><ele>2692.3</ele><time>2026-03-02T09:03:34.000Z</time></trkpt>
<trkpt lat="42.169894" lon="23.364987"><ele>2692.5</ele><time>2026-03-02T09:03:35.000Z</time></trkpt>
<trkpt lat="42.169893" lon="23.364988"><ele>2692.5</ele><time>2026-03-02T09:03:36.000Z</time></trkpt>
<trkpt lat="42.169893" lon="23.364989"><ele>2692.5</ele><time>2026-03-02T09:03:37.000Z</time></trkpt>
<trkpt lat="42.169893" lon="23.364989"><ele>2692.5</ele><time>2026-03-02T09:03:38.000Z</time></trkpt>
<trkpt lat="42.169893" lon="23.364989"><ele>2692.5</ele><time>2026-03-02T09:03:39.000Z</time></trkpt>
<trkpt lat="42.169893" lon="23.364989"><ele>2692.4</ele><time>2026-03-02T09:03:40.000Z</time></trkpt>
<trkpt lat="42.169893" lon="23.364989"><ele>2692.4</ele><time>2026-03-02T09:03:41.000Z</time></trkpt>
<trkpt lat="42.169893" lon="23.364988"><ele>2692.4</ele><time>2026-03-02T09:03:42.000Z</time></trkpt>
<trkpt lat="42.169893" lon="23.364988"><ele>2692.4</ele><time>2026-03-02T09:03:43.000Z</time></trkpt>
<trkpt lat="42.169893" lon="23.364987"><ele>2692.4</ele><time>2026-03-02T09:03:44.000Z</time></trkpt>
<trkpt lat="42.169893" lon="23.364987"><ele>2692.1</ele><time>2026-03-02T09:03:45.000Z</time></trkpt>
<trkpt lat="42.169893" lon="23.364986"><ele>2692.1</ele><time>2026-03-02T09:03:46.000Z</time></trkpt>
<trkpt lat="42.169893" lon="23.364987"><ele>2692.1</ele><time>2026-03-02T09:03:47.000Z</time></trkpt>
<trkpt lat="42.169893" lon="23.364987"><ele>2692.1</ele><time>2026-03-02T09:03:48.000Z</time></trkpt>
<trkpt lat="42.169894" lon="23.364988"><ele>2692.1</ele><time>2026-03-02T09:03:49.000Z</time></trkpt>
<trkpt lat="42.169894" lon="23.364988"><ele>2692.1</ele><time>2026-03-02T09:03:50.000Z</time></trkpt>
<trkpt lat="42.169894" lon="23.364988"><ele>2692.1</ele><time>2026-03-02T09:03:51.000Z</time></trkpt>
<trkpt lat="42.169894" lon="23.364988"><ele>2692.1</ele><time>2026-03-02T09:03:52.000Z</time></trkpt>
<trkpt lat="42.169894" lon="23.364988"><ele>2692.1</ele><time>2026-03-02T09:03:53.000Z</time></trkpt>
<trkpt lat="42.169894" lon="23.364988"><ele>2692.1</ele><time>2026-03-02T09:03:54.000Z</time></trkpt>
<trkpt lat="42.169894" lon="23.364988"><ele>2692.1</ele><time>2026-03-02T09:03:55.000Z</time></trkpt>
<trkpt lat="42.169894" lon="23.364988"><ele>2692.1</ele><time>2026-03-02T09:03:56.000Z</time></trkpt>
<trkpt lat="42.169894" lon="23.364988"><ele>2692.1</ele><time>2026-03-02T09:03:57.000Z</time></trkpt>
<trkpt lat="42.169894" lon="23.364988"><ele>2692.1</ele><time>2026-03-02T09:03:58.000Z</time></trkpt>
<trkpt lat="42.169894" lon="23.364988"><ele>2692.1</ele><time>2026-03-02T09:03:59.000Z</time></trkpt>
<trkpt lat="42.169894" lon="23.364987"><ele>2692</ele><time>2026-03-02T09:04:00.000Z</time></trkpt>
<trkpt lat="42.169895" lon="23.364987"><ele>2692</ele><time>2026-03-02T09:04:01.000Z</time></trkpt>
<trkpt lat="42.169895" lon="23.364988"><ele>2692</ele><time>2026-03-02T09:04:02.000Z</time></trkpt>
<trkpt lat="42.169896" lon="23.364988"><ele>2692</ele><time>2026-03-02T09:04:03.000Z</time></trkpt>
<trkpt lat="42.169897" lon="23.364987"><ele>2692</ele><time>2026-03-02T09:04:04.000Z</time></trkpt>
<trkpt lat="42.169898" lon="23.364987"><ele>2692</ele><time>2026-03-02T09:04:05.000Z</time></trkpt>
<trkpt lat="42.169898" lon="23.364987"><ele>2692</ele><time>2026-03-02T09:04:06.000Z</time></trkpt>
<trkpt lat="42.169898" lon="23.364986"><ele>2692</ele><time>2026-03-02T09:04:07.000Z</time></trkpt>
<trkpt lat="42.169897" lon="23.364986"><ele>2692</ele><time>2026-03-02T09:04:08.000Z</time></trkpt>
<trkpt lat="42.169897" lon="23.364986"><ele>2692</ele><time>2026-03-02T09:04:09.000Z</time></trkpt>
<trkpt lat="42.169896" lon="23.364986"><ele>2692.1</ele><time>2026-03-02T09:04:10.000Z</time></trkpt>
<trkpt lat="42.169896" lon="23.364986"><ele>2692.1</ele><time>2026-03-02T09:04:11.000Z</time></trkpt>
<trkpt lat="42.169896" lon="23.364985"><ele>2692.1</ele><time>2026-03-02T09:04:12.000Z</time></trkpt>
<trkpt lat="42.169896" lon="23.364985"><ele>2692.1</ele><time>2026-03-02T09:04:13.000Z</time></trkpt>
<trkpt lat="42.169897" lon="23.364985"><ele>2692.1</ele><time>2026-03-02T09:04:14.000Z</time></trkpt>
<trkpt lat="42.169897" lon="23.364984"><ele>2692.5</ele><time>2026-03-02T09:04:15.000Z</time></trkpt>
<trkpt lat="42.169897" lon="23.364984"><ele>2692.5</ele><time>2026-03-02T09:04:16.000Z</time></trkpt>
<trkpt lat="42.169897" lon="23.364984"><ele>2692.5</ele><time>2026-03-02T09:04:17.000Z</time></trkpt>
<trkpt lat="42.169896" lon="23.364983"><ele>2692.5</ele><time>2026-03-02T09:04:18.000Z</time></trkpt>
<trkpt lat="42.169895" lon="23.364982"><ele>2692.5</ele><time>2026-03-02T09:04:19.000Z</time></trkpt>
<trkpt lat="42.169894" lon="23.364982"><ele>2692.8</ele><time>2026-03-02T09:04:20.000Z</time></trkpt>
<trkpt lat="42.169894" lon="23.364982"><ele>2692.8</ele><time>2026-03-02T09:04:21.000Z</time></trkpt>
<trkpt lat="42.169892" lon="23.364983"><ele>2692.8</ele><time>2026-03-02T09:04:22.000Z</time></trkpt>
<trkpt lat="42.169892" lon="23.364984"><ele>2692.8</ele><time>2026-03-02T09:04:23.000Z</time></trkpt>
<trkpt lat="42.169891" lon="23.364986"><ele>2692.8</ele><time>2026-03-02T09:04:24.000Z</time></trkpt>
<trkpt lat="42.16989" lon="23.364987"><ele>2692.7</ele><time>2026-03-02T09:04:25.000Z</time></trkpt>
<trkpt lat="42.169889" lon="23.364988"><ele>2692.7</ele><time>2026-03-02T09:04:26.000Z</time></trkpt>
<trkpt lat="42.169889" lon="23.364988"><ele>2692.7</ele><time>2026-03-02T09:04:27.000Z</time></trkpt>
<trkpt lat="42.169889" lon="23.364989"><ele>2692.7</ele><time>2026-03-02T09:04:28.000Z</time></trkpt>
<trkpt lat="42.169889" lon="23.36499"><ele>2692.7</ele><time>2026-03-02T09:04:29.000Z</time></trkpt>
<trkpt lat="42.169888" lon="23.364991"><ele>2692.5</ele><time>2026-03-02T09:04:30.000Z</time></trkpt>
<trkpt lat="42.169888" lon="23.364992"><ele>2692.5</ele><time>2026-03-02T09:04:31.000Z</time></trkpt>
<trkpt lat="42.169887" lon="23.364993"><ele>2692.5</ele><time>2026-03-02T09:04:32.000Z</time></trkpt>
<trkpt lat="42.169886" lon="23.364994"><ele>2692.5</ele><time>2026-03-02T09:04:33.000Z</time></trkpt>
<trkpt lat="42.169885" lon="23.364994"><ele>2692.5</ele><time>2026-03-02T09:04:34.000Z</time></trkpt>
<trkpt lat="42.169884" lon="23.364995"><ele>2692.2</ele><time>2026-03-02T09:04:35.000Z</time></trkpt>
<trkpt lat="42.169884" lon="23.364995"><ele>2692.2</ele><time>2026-03-02T09:04:36.000Z</time></trkpt>
<trkpt lat="42.169884" lon="23.364995"><ele>2692.2</ele><time>2026-03-02T09:04:37.000Z</time></trkpt>
<trkpt lat="42.169884" lon="23.364995"><ele>2692.2</ele><time>2026-03-02T09:04:38.000Z</time></trkpt>
<trkpt lat="42.169884" lon="23.364995"><ele>2692.2</ele><time>2026-03-02T09:04:39.000Z</time></trkpt>
<trkpt lat="42.169884" lon="23.364995"><ele>2692.1</ele><time>2026-03-02T09:04:40.000Z</time></trkpt>
<trkpt lat="42.169884" lon="23.364995"><ele>2692.1</ele><time>2026-03-02T09:04:41.000Z</time></trkpt>
<trkpt lat="42.169884" lon="23.364995"><ele>2692.1</ele><time>2026-03-02T09:04:42.000Z</time></trkpt>
<trkpt lat="42.169884" lon="23.364995"><ele>2692.1</ele><time>2026-03-02T09:04:43.000Z</time></trkpt>
<trkpt lat="42.169884" lon="23.364995"><ele>2692.1</ele><time>2026-03-02T09:04:44.000Z</time></trkpt>
<trkpt lat="42.169884" lon="23.364994"><ele>2692.1</ele><time>2026-03-02T09:04:45.000Z</time></trkpt>
<trkpt lat="42.169884" lon="23.364994"><ele>2692.1</ele><time>2026-03-02T09:04:46.000Z</time></trkpt>
<trkpt lat="42.169885" lon="23.364993"><ele>2692.1</ele><time>2026-03-02T09:04:47.000Z</time></trkpt>
<trkpt lat="42.169885" lon="23.364992"><ele>2692.1</ele><time>2026-03-02T09:04:48.000Z</time></trkpt>
<trkpt lat="42.169885" lon="23.364991"><ele>2692.1</ele><time>2026-03-02T09:04:49.000Z</time></trkpt>
<trkpt lat="42.169885" lon="23.364991"><ele>2692.3</ele><time>2026-03-02T09:04:50.000Z</time></trkpt>
<trkpt lat="42.169885" lon="23.364991"><ele>2692.3</ele><time>2026-03-02T09:04:51.000Z</time></trkpt>
<trkpt lat="42.169885" lon="23.364991"><ele>2692.3</ele><time>2026-03-02T09:04:52.000Z</time></trkpt>
<trkpt lat="42.169885" lon="23.364991"><ele>2692.3</ele><time>2026-03-02T09:04:53.000Z</time></trkpt>
<trkpt lat="42.169885" lon="23.364991"><ele>2692.3</ele><time>2026-03-02T09:04:54.000Z</time></trkpt>
<trkpt lat="42.169886" lon="23.364991"><ele>2692.4</ele><time>2026-03-02T09:04:55.000Z</time></trkpt>
<trkpt lat="42.169885" lon="23.36499"><ele>2692.4</ele><time>2026-03-02T09:04:56.000Z</time></trkpt>
<trkpt lat="42.169883" lon="23.364986"><ele>2692.4</ele><time>2026-03-02T09:04:57.000Z</time></trkpt>
<trkpt lat="42.169882" lon="23.36498"><ele>2692.4</ele><time>2026-03-02T09:04:58.000Z</time></trkpt>
<trkpt lat="42.16988" lon="23.364974"><ele>2692.4</ele><time>2026-03-02T09:04:59.000Z</time></trkpt>
<trkpt lat="42.169879" lon="23.364967"><ele>2692.5</ele><time>2026-03-02T09:05:00.000Z</time></trkpt>
<trkpt lat="42.169879" lon="23.364962"><ele>2692.5</ele><time>2026-03-02T09:05:01.000Z</time></trkpt>
<trkpt lat="42.16988" lon="23.36496"><ele>2692.5</ele><time>2026-03-02T09:05:02.000Z</time></trkpt>
<trkpt lat="42.169881" lon="23.364961"><ele>2692.5</ele><time>2026-03-02T09:05:03.000Z</time></trkpt>
<trkpt lat="42.169881" lon="23.364963"><ele>2692.5</ele><time>2026-03-02T09:05:04.000Z</time></trkpt>
<trkpt lat="42.169881" lon="23.364965"><ele>2692.4</ele><time>2026-03-02T09:05:05.000Z</time></trkpt>
<trkpt lat="42.16988" lon="23.364966"><ele>2692.4</ele><time>2026-03-02T09:05:06.000Z</time></trkpt>
<trkpt lat="42.169878" lon="23.364966"><ele>2692.4</ele><time>2026-03-02T09:05:07.000Z</time></trkpt>
<trkpt lat="42.169878" lon="23.364966"><ele>2692.4</ele><time>2026-03-02T09:05:08.000Z</time></trkpt>
<trkpt lat="42.169877" lon="23.364966"><ele>2692.4</ele><time>2026-03-02T09:05:09.000Z</time></trkpt>
<trkpt lat="42.169877" lon="23.364966"><ele>2692.4</ele><time>2026-03-02T09:05:10.000Z</time></trkpt>
<trkpt lat="42.169877" lon="23.364966"><ele>2692.4</ele><time>2026-03-02T09:05:11.000Z</time></trkpt>
<trkpt lat="42.169878" lon="23.364966"><ele>2692.4</ele><time>2026-03-02T09:05:12.000Z</time></trkpt>
<trkpt lat="42.169878" lon="23.364966"><ele>2692.4</ele><time>2026-03-02T09:05:13.000Z</time></trkpt>
<trkpt lat="42.169878" lon="23.364966"><ele>2692.4</ele><time>2026-03-02T09:05:14.000Z</time></trkpt>
<trkpt lat="42.169878" lon="23.364966"><ele>2692.3</ele><time>2026-03-02T09:05:15.000Z</time></trkpt>
<trkpt lat="42.169878" lon="23.364966"><ele>2692.3</ele><time>2026-03-02T09:05:16.000Z</time></trkpt>
<trkpt lat="42.169878" lon="23.364966"><ele>2692.3</ele><time>2026-03-02T09:05:17.000Z</time></trkpt>
<trkpt lat="42.169878" lon="23.364966"><ele>2692.3</ele><time>2026-03-02T09:05:18.000Z</time></trkpt>
<trkpt lat="42.169878" lon="23.364966"><ele>2692.3</ele><time>2026-03-02T09:05:19.000Z</time></trkpt>
<trkpt lat="42.169878" lon="23.364966"><ele>2692.3</ele><time>2026-03-02T09:05:20.000Z</time></trkpt>
<trkpt lat="42.169878" lon="23.364966"><ele>2692.3</ele><time>2026-03-02T09:05:21.000Z</time></trkpt>
<trkpt lat="42.169878" lon="23.364966"><ele>2692.3</ele><time>2026-03-02T09:05:22.000Z</time></trkpt>
<trkpt lat="42.169877" lon="23.364967"><ele>2692.3</ele><time>2026-03-02T09:05:23.000Z</time></trkpt>
<trkpt lat="42.169877" lon="23.364968"><ele>2692.3</ele><time>2026-03-02T09:05:24.000Z</time></trkpt>
<trkpt lat="42.169877" lon="23.364968"><ele>2692.3</ele><time>2026-03-02T09:05:25.000Z</time></trkpt>
<trkpt lat="42.169876" lon="23.364969"><ele>2692.3</ele><time>2026-03-02T09:05:26.000Z</time></trkpt>
<trkpt lat="42.169876" lon="23.36497"><ele>2692.3</ele><time>2026-03-02T09:05:27.000Z</time></trkpt>
<trkpt lat="42.169875" lon="23.36497"><ele>2692.3</ele><time>2026-03-02T09:05:28.000Z</time></trkpt>
<trkpt lat="42.169875" lon="23.36497"><ele>2692.3</ele><time>2026-03-02T09:05:29.000Z</time></trkpt>
<trkpt lat="42.169875" lon="23.36497"><ele>2692.4</ele><time>2026-03-02T09:05:30.000Z</time></trkpt>
<trkpt lat="42.169875" lon="23.36497"><ele>2692.4</ele><time>2026-03-02T09:05:31.000Z</time></trkpt>
<trkpt lat="42.169875" lon="23.36497"><ele>2692.4</ele><time>2026-03-02T09:05:32.000Z</time></trkpt>
<trkpt lat="42.169875" lon="23.36497"><ele>2692.4</ele><time>2026-03-02T09:05:33.000Z</time></trkpt>
<trkpt lat="42.169875" lon="23.36497"><ele>2692.4</ele><time>2026-03-02T09:05:34.000Z</time></trkpt>
<trkpt lat="42.169875" lon="23.36497"><ele>2692.4</ele><time>2026-03-02T09:05:35.000Z</time></trkpt>
<trkpt lat="42.169875" lon="23.36497"><ele>2692.4</ele><time>2026-03-02T09:05:36.000Z</time></trkpt>
<trkpt lat="42.169875" lon="23.36497"><ele>2692.4</ele><time>2026-03-02T09:05:37.000Z</time></trkpt>
<trkpt lat="42.169876" lon="23.36497"><ele>2692.4</ele><time>2026-03-02T09:05:38.000Z</time></trkpt>
<trkpt lat="42.169875" lon="23.36497"><ele>2692.4</ele><time>2026-03-02T09:05:39.000Z</time></trkpt>
<trkpt lat="42.169875" lon="23.36497"><ele>2692.3</ele><time>2026-03-02T09:05:40.000Z</time></trkpt>
<trkpt lat="42.169874" lon="23.36497"><ele>2692.3</ele><time>2026-03-02T09:05:41.000Z</time></trkpt>
<trkpt lat="42.169873" lon="23.36497"><ele>2692.3</ele><time>2026-03-02T09:05:42.000Z</time></trkpt>
<trkpt lat="42.169872" lon="23.364969"><ele>2692.3</ele><time>2026-03-02T09:05:43.000Z</time></trkpt>
<trkpt lat="42.169871" lon="23.364969"><ele>2692.3</ele><time>2026-03-02T09:05:44.000Z</time></trkpt>
<trkpt lat="42.169871" lon="23.364969"><ele>2692.2</ele><time>2026-03-02T09:05:45.000Z</time></trkpt>
<trkpt lat="42.16987" lon="23.364968"><ele>2692.2</ele><time>2026-03-02T09:05:46.000Z</time></trkpt>
<trkpt lat="42.16987" lon="23.364967"><ele>2692.2</ele><time>2026-03-02T09:05:47.000Z</time></trkpt>
<trkpt lat="42.169871" lon="23.364967"><ele>2692.2</ele><time>2026-03-02T09:05:48.000Z</time></trkpt>
<trkpt lat="42.169871" lon="23.364967"><ele>2692.2</ele><time>2026-03-02T09:05:49.000Z</time></trkpt>
<trkpt lat="42.169872" lon="23.364966"><ele>2692.3</ele><time>2026-03-02T09:05:50.000Z</time></trkpt>
<trkpt lat="42.169872" lon="23.364966"><ele>2692.3</ele><time>2026-03-02T09:05:51.000Z</time></trkpt>
<trkpt lat="42.169874" lon="23.364965"><ele>2692.3</ele><time>2026-03-02T09:05:52.000Z</time></trkpt>
<trkpt lat="42.169876" lon="23.364963"><ele>2692.3</ele><time>2026-03-02T09:05:53.000Z</time></trkpt>
<trkpt lat="42.169878" lon="23.364962"><ele>2692.3</ele><time>2026-03-02T09:05:54.000Z</time></trkpt>
<trkpt lat="42.169881" lon="23.364961"><ele>2692.3</ele><time>2026-03-02T09:05:55.000Z</time></trkpt>
<trkpt lat="42.169882" lon="23.364959"><ele>2692.3</ele><time>2026-03-02T09:05:56.000Z</time></trkpt>
<trkpt lat="42.169883" lon="23.364959"><ele>2692.3</ele><time>2026-03-02T09:05:57.000Z</time></trkpt>
<trkpt lat="42.169882" lon="23.364959"><ele>2692.3</ele><time>2026-03-02T09:05:58.000Z</time></trkpt>
<trkpt lat="42.169882" lon="23.364958"><ele>2692.3</ele><time>2026-03-02T09:05:59.000Z</time></trkpt>
<trkpt lat="42.169881" lon="23.364957"><ele>2692.1</ele><time>2026-03-02T09:06:00.000Z</time></trkpt>
<trkpt lat="42.16988" lon="23.364956"><ele>2692.1</ele><time>2026-03-02T09:06:01.000Z</time></trkpt>
<trkpt lat="42.16988" lon="23.364955"><ele>2692.1</ele><time>2026-03-02T09:06:02.000Z</time></trkpt>
<trkpt lat="42.169879" lon="23.364955"><ele>2692.1</ele><time>2026-03-02T09:06:03.000Z</time></trkpt>
<trkpt lat="42.169879" lon="23.364955"><ele>2692.1</ele><time>2026-03-02T09:06:04.000Z</time></trkpt>
<trkpt lat="42.169878" lon="23.364956"><ele>2692.1</ele><time>2026-03-02T09:06:05.000Z</time></trkpt>
<trkpt lat="42.169877" lon="23.364958"><ele>2692.1</ele><time>2026-03-02T09:06:06.000Z</time></trkpt>
<trkpt lat="42.169876" lon="23.36496"><ele>2692.1</ele><time>2026-03-02T09:06:07.000Z</time></trkpt>
<trkpt lat="42.169874" lon="23.364962"><ele>2692.1</ele><time>2026-03-02T09:06:08.000Z</time></trkpt>
<trkpt lat="42.169873" lon="23.364964"><ele>2692.1</ele><time>2026-03-02T09:06:09.000Z</time></trkpt>
<trkpt lat="42.169871" lon="23.364965"><ele>2692.1</ele><time>2026-03-02T09:06:10.000Z</time></trkpt>
<trkpt lat="42.16987" lon="23.364965"><ele>2692.1</ele><time>2026-03-02T09:06:11.000Z</time></trkpt>
<trkpt lat="42.16987" lon="23.364966"><ele>2692.1</ele><time>2026-03-02T09:06:12.000Z</time></trkpt>
<trkpt lat="42.16987" lon="23.364966"><ele>2692.1</ele><time>2026-03-02T09:06:13.000Z</time></trkpt>
<trkpt lat="42.16987" lon="23.364967"><ele>2692.1</ele><time>2026-03-02T09:06:14.000Z</time></trkpt>
<trkpt lat="42.16987" lon="23.364968"><ele>2692.1</ele><time>2026-03-02T09:06:15.000Z</time></trkpt>
<trkpt lat="42.169871" lon="23.364968"><ele>2692.1</ele><time>2026-03-02T09:06:16.000Z</time></trkpt>
<trkpt lat="42.169871" lon="23.364969"><ele>2692.1</ele><time>2026-03-02T09:06:17.000Z</time></trkpt>
<trkpt lat="42.169871" lon="23.364969"><ele>2692.1</ele><time>2026-03-02T09:06:18.000Z</time></trkpt>
<trkpt lat="42.169871" lon="23.36497"><ele>2692.1</ele><time>2026-03-02T09:06:19.000Z</time></trkpt>
<trkpt lat="42.16987" lon="23.36497"><ele>2691.8</ele><time>2026-03-02T09:06:20.000Z</time></trkpt>
<trkpt lat="42.169869" lon="23.36497"><ele>2691.8</ele><time>2026-03-02T09:06:21.000Z</time></trkpt>
<trkpt lat="42.169868" lon="23.364972"><ele>2691.8</ele><time>2026-03-02T09:06:22.000Z</time></trkpt>
<trkpt lat="42.169866" lon="23.364973"><ele>2691.8</ele><time>2026-03-02T09:06:23.000Z</time></trkpt>
<trkpt lat="42.169866" lon="23.364974"><ele>2691.8</ele><time>2026-03-02T09:06:24.000Z</time></trkpt>
<trkpt lat="42.169865" lon="23.364975"><ele>2691.6</ele><time>2026-03-02T09:06:25.000Z</time></trkpt>
<trkpt lat="42.169865" lon="23.364976"><ele>2691.6</ele><time>2026-03-02T09:06:26.000Z</time></trkpt>
<trkpt lat="42.169865" lon="23.364976"><ele>2691.6</ele><time>2026-03-02T09:06:27.000Z</time></trkpt>
<trkpt lat="42.169865" lon="23.364977"><ele>2691.6</ele><time>2026-03-02T09:06:28.000Z</time></trkpt>
<trkpt lat="42.169865" lon="23.364977"><ele>2691.6</ele><time>2026-03-02T09:06:29.000Z</time></trkpt>
<trkpt lat="42.169865" lon="23.364978"><ele>2691.4</ele><time>2026-03-02T09:06:30.000Z</time></trkpt>
<trkpt lat="42.169865" lon="23.364979"><ele>2691.4</ele><time>2026-03-02T09:06:31.000Z</time></trkpt>
<trkpt lat="42.169865" lon="23.36498"><ele>2691.4</ele><time>2026-03-02T09:06:32.000Z</time></trkpt>
<trkpt lat="42.169864" lon="23.36498"><ele>2691.4</ele><time>2026-03-02T09:06:33.000Z</time></trkpt>
<trkpt lat="42.169865" lon="23.36498"><ele>2691.4</ele><time>2026-03-02T09:06:34.000Z</time></trkpt>
<trkpt lat="42.169865" lon="23.36498"><ele>2691.4</ele><time>2026-03-02T09:06:35.000Z</time></trkpt>
<trkpt lat="42.169865" lon="23.36498"><ele>2691.4</ele><time>2026-03-02T09:06:36.000Z</time></trkpt>
<trkpt lat="42.169865" lon="23.36498"><ele>2691.4</ele><time>2026-03-02T09:06:37.000Z</time></trkpt>
<trkpt lat="42.169865" lon="23.36498"><ele>2691.4</ele><time>2026-03-02T09:06:38.000Z</time></trkpt>
<trkpt lat="42.169865" lon="23.36498"><ele>2691.4</ele><time>2026-03-02T09:06:39.000Z</time></trkpt>
<trkpt lat="42.169865" lon="23.36498"><ele>2691.3</ele><time>2026-03-02T09:06:40.000Z</time></trkpt>
<trkpt lat="42.169865" lon="23.36498"><ele>2691.3</ele><time>2026-03-02T09:06:41.000Z</time></trkpt>
<trkpt lat="42.169865" lon="23.36498"><ele>2691.3</ele><time>2026-03-02T09:06:42.000Z</time></trkpt>
<trkpt lat="42.169863" lon="23.364979"><ele>2691.3</ele><time>2026-03-02T09:06:43.000Z</time></trkpt>
<trkpt lat="42.169862" lon="23.364979"><ele>2691.3</ele><time>2026-03-02T09:06:44.000Z</time></trkpt>
<trkpt lat="42.16986" lon="23.364978"><ele>2691.3</ele><time>2026-03-02T09:06:45.000Z</time></trkpt>
<trkpt lat="42.169859" lon="23.364978"><ele>2691.3</ele><time>2026-03-02T09:06:46.000Z</time></trkpt>
<trkpt lat="42.169858" lon="23.364978"><ele>2691.3</ele><time>2026-03-02T09:06:47.000Z</time></trkpt>
<trkpt lat="42.169857" lon="23.364977"><ele>2691.3</ele><time>2026-03-02T09:06:48.000Z</time></trkpt>
<trkpt lat="42.169857" lon="23.364977"><ele>2691.3</ele><time>2026-03-02T09:06:49.000Z</time></trkpt>
<trkpt lat="42.169857" lon="23.364976"><ele>2691.5</ele><time>2026-03-02T09:06:50.000Z</time></trkpt>
<trkpt lat="42.169857" lon="23.364976"><ele>2691.5</ele><time>2026-03-02T09:06:51.000Z</time></trkpt>
<trkpt lat="42.169857" lon="23.364975"><ele>2691.5</ele><time>2026-03-02T09:06:52.000Z</time></trkpt>
<trkpt lat="42.169858" lon="23.364976"><ele>2691.5</ele><time>2026-03-02T09:06:53.000Z</time></trkpt>
<trkpt lat="42.169861" lon="23.364978"><ele>2691.5</ele><time>2026-03-02T09:06:54.000Z</time></trkpt>
<trkpt lat="42.169865" lon="23.364981"><ele>2691.6</ele><time>2026-03-02T09:06:55.000Z</time></trkpt>
<trkpt lat="42.169869" lon="23.364985"><ele>2691.6</ele><time>2026-03-02T09:06:56.000Z</time></trkpt>
<trkpt lat="42.169872" lon="23.364989"><ele>2691.6</ele><time>2026-03-02T09:06:57.000Z</time></trkpt>
<trkpt lat="42.169873" lon="23.36499"><ele>2691.6</ele><time>2026-03-02T09:06:58.000Z</time></trkpt>
<trkpt lat="42.169872" lon="23.364987"><ele>2691.6</ele><time>2026-03-02T09:06:59.000Z</time></trkpt>
<trkpt lat="42.169869" lon="23.364982"><ele>2691.9</ele><time>2026-03-02T09:07:00.000Z</time></trkpt>
<trkpt lat="42.169866" lon="23.364975"><ele>2691.9</ele><time>2026-03-02T09:07:01.000Z</time></trkpt>
<trkpt lat="42.169864" lon="23.364967"><ele>2691.9</ele><time>2026-03-02T09:07:02.000Z</time></trkpt>
<trkpt lat="42.169862" lon="23.36496"><ele>2691.9</ele><time>2026-03-02T09:07:03.000Z</time></trkpt>
<trkpt lat="42.169861" lon="23.364955"><ele>2691.9</ele><time>2026-03-02T09:07:04.000Z</time></trkpt>
<trkpt lat="42.16986" lon="23.364952"><ele>2692.1</ele><time>2026-03-02T09:07:05.000Z</time></trkpt>
<trkpt lat="42.169859" lon="23.364951"><ele>2692.1</ele><time>2026-03-02T09:07:06.000Z</time></trkpt>
<trkpt lat="42.169858" lon="23.36495"><ele>2692.1</ele><time>2026-03-02T09:07:07.000Z</time></trkpt>
<trkpt lat="42.169857" lon="23.364948"><ele>2692.1</ele><time>2026-03-02T09:07:08.000Z</time></trkpt>
<trkpt lat="42.169857" lon="23.364947"><ele>2692.1</ele><time>2026-03-02T09:07:09.000Z</time></trkpt>
<trkpt lat="42.169857" lon="23.364945"><ele>2692.1</ele><time>2026-03-02T09:07:10.000Z</time></trkpt>
<trkpt lat="42.169857" lon="23.364942"><ele>2692.1</ele><time>2026-03-02T09:07:11.000Z</time></trkpt>
<trkpt lat="42.169857" lon="23.364941"><ele>2692.1</ele><time>2026-03-02T09:07:12.000Z</time></trkpt>
<trkpt lat="42.169857" lon="23.36494"><ele>2692.1</ele><time>2026-03-02T09:07:13.000Z</time></trkpt>
<trkpt lat="42.169858" lon="23.364939"><ele>2692.1</ele><time>2026-03-02T09:07:14.000Z</time></trkpt>
<trkpt lat="42.169858" lon="23.364939"><ele>2691.9</ele><time>2026-03-02T09:07:15.000Z</time></trkpt>
<trkpt lat="42.169858" lon="23.364939"><ele>2691.9</ele><time>2026-03-02T09:07:16.000Z</time></trkpt>
<trkpt lat="42.169858" lon="23.364939"><ele>2691.9</ele><time>2026-03-02T09:07:17.000Z</time></trkpt>
<trkpt lat="42.169858" lon="23.364939"><ele>2691.9</ele><time>2026-03-02T09:07:18.000Z</time></trkpt>
<trkpt lat="42.169858" lon="23.364939"><ele>2691.9</ele><time>2026-03-02T09:07:19.000Z</time></trkpt>
<trkpt lat="42.169858" lon="23.364939"><ele>2691.6</ele><time>2026-03-02T09:07:20.000Z</time></trkpt>
<trkpt lat="42.169857" lon="23.364939"><ele>2691.6</ele><time>2026-03-02T09:07:21.000Z</time></trkpt>
<trkpt lat="42.169857" lon="23.364939"><ele>2691.6</ele><time>2026-03-02T09:07:22.000Z</time></trkpt>
<trkpt lat="42.169857" lon="23.364939"><ele>2691.6</ele><time>2026-03-02T09:07:23.000Z</time></trkpt>
<trkpt lat="42.169857" lon="23.364939"><ele>2691.6</ele><time>2026-03-02T09:07:24.000Z</time></trkpt>
<trkpt lat="42.169857" lon="23.364939"><ele>2691.6</ele><time>2026-03-02T09:07:25.000Z</time></trkpt>
<trkpt lat="42.169857" lon="23.364939"><ele>2691.6</ele><time>2026-03-02T09:07:26.000Z</time></trkpt>
<trkpt lat="42.169856" lon="23.364939"><ele>2691.6</ele><time>2026-03-02T09:07:27.000Z</time></trkpt>
<trkpt lat="42.169856" lon="23.364939"><ele>2691.6</ele><time>2026-03-02T09:07:28.000Z</time></trkpt>
<trkpt lat="42.169856" lon="23.364938"><ele>2691.6</ele><time>2026-03-02T09:07:29.000Z</time></trkpt>
<trkpt lat="42.169856" lon="23.364938"><ele>2691.7</ele><time>2026-03-02T09:07:30.000Z</time></trkpt>
<trkpt lat="42.169856" lon="23.364937"><ele>2691.7</ele><time>2026-03-02T09:07:31.000Z</time></trkpt>
<trkpt lat="42.169856" lon="23.364937"><ele>2691.7</ele><time>2026-03-02T09:07:32.000Z</time></trkpt>
<trkpt lat="42.169856" lon="23.364937"><ele>2691.7</ele><time>2026-03-02T09:07:33.000Z</time></trkpt>
<trkpt lat="42.169856" lon="23.364937"><ele>2691.7</ele><time>2026-03-02T09:07:34.000Z</time></trkpt>
<trkpt lat="42.169856" lon="23.364937"><ele>2691.8</ele><time>2026-03-02T09:07:35.000Z</time></trkpt>
<trkpt lat="42.169856" lon="23.364937"><ele>2691.8</ele><time>2026-03-02T09:07:36.000Z</time></trkpt>
<trkpt lat="42.169856" lon="23.364938"><ele>2691.8</ele><time>2026-03-02T09:07:37.000Z</time></trkpt>
<trkpt lat="42.169856" lon="23.364938"><ele>2691.8</ele><time>2026-03-02T09:07:38.000Z</time></trkpt>
<trkpt lat="42.169856" lon="23.364938"><ele>2691.8</ele><time>2026-03-02T09:07:39.000Z</time></trkpt>
<trkpt lat="42.169856" lon="23.364938"><ele>2691.7</ele><time>2026-03-02T09:07:40.000Z</time></trkpt>
<trkpt lat="42.169856" lon="23.364938"><ele>2691.7</ele><time>2026-03-02T09:07:41.000Z</time></trkpt>
<trkpt lat="42.169856" lon="23.364937"><ele>2691.7</ele><time>2026-03-02T09:07:42.000Z</time></trkpt>
<trkpt lat="42.169856" lon="23.364937"><ele>2691.7</ele><time>2026-03-02T09:07:43.000Z</time></trkpt>
<trkpt lat="42.169856" lon="23.364937"><ele>2691.7</ele><time>2026-03-02T09:07:44.000Z</time></trkpt>
<trkpt lat="42.169856" lon="23.364937"><ele>2691.5</ele><time>2026-03-02T09:07:45.000Z</time></trkpt>
<trkpt lat="42.169856" lon="23.364936"><ele>2691.5</ele><time>2026-03-02T09:07:46.000Z</time></trkpt>
<trkpt lat="42.169856" lon="23.364936"><ele>2691.5</ele><time>2026-03-02T09:07:47.000Z</time></trkpt>
<trkpt lat="42.169856" lon="23.364936"><ele>2691.5</ele><time>2026-03-02T09:07:48.000Z</time></trkpt>
<trkpt lat="42.169856" lon="23.364936"><ele>2691.5</ele><time>2026-03-02T09:07:49.000Z</time></trkpt>
<trkpt lat="42.169856" lon="23.364936"><ele>2691.5</ele><time>2026-03-02T09:07:50.000Z</time></trkpt>
<trkpt lat="42.169856" lon="23.364936"><ele>2691.5</ele><time>2026-03-02T09:07:51.000Z</time></trkpt>
<trkpt lat="42.169856" lon="23.364936"><ele>2691.5</ele><time>2026-03-02T09:07:52.000Z</time></trkpt>
<trkpt lat="42.169857" lon="23.364937"><ele>2691.5</ele><time>2026-03-02T09:07:53.000Z</time></trkpt>
<trkpt lat="42.169859" lon="23.364939"><ele>2691.5</ele><time>2026-03-02T09:07:54.000Z</time></trkpt>
<trkpt lat="42.16986" lon="23.36494"><ele>2691.4</ele><time>2026-03-02T09:07:55.000Z</time></trkpt>
<trkpt lat="42.169861" lon="23.364942"><ele>2691.4</ele><time>2026-03-02T09:07:56.000Z</time></trkpt>
<trkpt lat="42.169862" lon="23.364943"><ele>2691.4</ele><time>2026-03-02T09:07:57.000Z</time></trkpt>
<trkpt lat="42.169862" lon="23.364944"><ele>2691.4</ele><time>2026-03-02T09:07:58.000Z</time></trkpt>
<trkpt lat="42.169863" lon="23.364943"><ele>2691.4</ele><time>2026-03-02T09:07:59.000Z</time></trkpt>
<trkpt lat="42.169863" lon="23.364943"><ele>2691.3</ele><time>2026-03-02T09:08:00.000Z</time></trkpt>
<trkpt lat="42.169864" lon="23.364942"><ele>2691.3</ele><time>2026-03-02T09:08:01.000Z</time></trkpt>
<trkpt lat="42.169864" lon="23.364941"><ele>2691.3</ele><time>2026-03-02T09:08:02.000Z</time></trkpt>
<trkpt lat="42.169865" lon="23.364941"><ele>2691.3</ele><time>2026-03-02T09:08:03.000Z</time></trkpt>
<trkpt lat="42.169865" lon="23.364941"><ele>2691.3</ele><time>2026-03-02T09:08:04.000Z</time></trkpt>
<trkpt lat="42.169865" lon="23.364941"><ele>2691.1</ele><time>2026-03-02T09:08:05.000Z</time></trkpt>
<trkpt lat="42.169865" lon="23.364941"><ele>2691.1</ele><time>2026-03-02T09:08:06.000Z</time></trkpt>
<trkpt lat="42.169865" lon="23.364941"><ele>2691.1</ele><time>2026-03-02T09:08:07.000Z</time></trkpt>
<trkpt lat="42.169865" lon="23.364941"><ele>2691.1</ele><time>2026-03-02T09:08:08.000Z</time></trkpt>
<trkpt lat="42.169865" lon="23.364941"><ele>2691.1</ele><time>2026-03-02T09:08:09.000Z</time></trkpt>
<trkpt lat="42.169865" lon="23.364941"><ele>2691.1</ele><time>2026-03-02T09:08:10.000Z</time></trkpt>
<trkpt lat="42.169865" lon="23.364941"><ele>2691.1</ele><time>2026-03-02T09:08:11.000Z</time></trkpt>
<trkpt lat="42.169865" lon="23.364941"><ele>2691.1</ele><time>2026-03-02T09:08:12.000Z</time></trkpt>
<trkpt lat="42.169865" lon="23.364941"><ele>2691.1</ele><time>2026-03-02T09:08:13.000Z</time></trkpt>
<trkpt lat="42.169864" lon="23.364941"><ele>2691.1</ele><time>2026-03-02T09:08:14.000Z</time></trkpt>
<trkpt lat="42.169864" lon="23.364941"><ele>2691.2</ele><time>2026-03-02T09:08:15.000Z</time></trkpt>
<trkpt lat="42.169864" lon="23.364941"><ele>2691.2</ele><time>2026-03-02T09:08:16.000Z</time></trkpt>
<trkpt lat="42.169863" lon="23.36494"><ele>2691.2</ele><time>2026-03-02T09:08:17.000Z</time></trkpt>
<trkpt lat="42.169863" lon="23.36494"><ele>2691.2</ele><time>2026-03-02T09:08:18.000Z</time></trkpt>
<trkpt lat="42.169863" lon="23.36494"><ele>2691.2</ele><time>2026-03-02T09:08:19.000Z</time></trkpt>
<trkpt lat="42.169863" lon="23.36494"><ele>2691.4</ele><time>2026-03-02T09:08:20.000Z</time></trkpt>
<trkpt lat="42.169863" lon="23.36494"><ele>2691.4</ele><time>2026-03-02T09:08:21.000Z</time></trkpt>
<trkpt lat="42.169863" lon="23.364939"><ele>2691.4</ele><time>2026-03-02T09:08:22.000Z</time></trkpt>
<trkpt lat="42.169862" lon="23.364939"><ele>2691.4</ele><time>2026-03-02T09:08:23.000Z</time></trkpt>
<trkpt lat="42.169862" lon="23.364939"><ele>2691.4</ele><time>2026-03-02T09:08:24.000Z</time></trkpt>
<trkpt lat="42.169862" lon="23.364939"><ele>2691.4</ele><time>2026-03-02T09:08:25.000Z</time></trkpt>
<trkpt lat="42.169862" lon="23.364939"><ele>2691.4</ele><time>2026-03-02T09:08:26.000Z</time></trkpt>
<trkpt lat="42.169862" lon="23.364939"><ele>2691.4</ele><time>2026-03-02T09:08:27.000Z</time></trkpt>
<trkpt lat="42.169862" lon="23.364939"><ele>2691.4</ele><time>2026-03-02T09:08:28.000Z</time></trkpt>
<trkpt lat="42.169862" lon="23.364939"><ele>2691.4</ele><time>2026-03-02T09:08:29.000Z</time></trkpt>
<trkpt lat="42.169862" lon="23.364938"><ele>2691.5</ele><time>2026-03-02T09:08:30.000Z</time></trkpt>
<trkpt lat="42.169861" lon="23.364937"><ele>2691.5</ele><time>2026-03-02T09:08:31.000Z</time></trkpt>
<trkpt lat="42.169861" lon="23.364937"><ele>2691.5</ele><time>2026-03-02T09:08:32.000Z</time></trkpt>
<trkpt lat="42.169861" lon="23.364936"><ele>2691.5</ele><time>2026-03-02T09:08:33.000Z</time></trkpt>
<trkpt lat="42.16986" lon="23.364935"><ele>2691.5</ele><time>2026-03-02T09:08:34.000Z</time></trkpt>
<trkpt lat="42.16986" lon="23.364935"><ele>2691.6</ele><time>2026-03-02T09:08:35.000Z</time></trkpt>
<trkpt lat="42.16986" lon="23.364935"><ele>2691.6</ele><time>2026-03-02T09:08:36.000Z</time></trkpt>
<trkpt lat="42.16986" lon="23.364935"><ele>2691.6</ele><time>2026-03-02T09:08:37.000Z</time></trkpt>
<trkpt lat="42.16986" lon="23.364935"><ele>2691.6</ele><time>2026-03-02T09:08:38.000Z</time></trkpt>
<trkpt lat="42.16986" lon="23.364935"><ele>2691.6</ele><time>2026-03-02T09:08:39.000Z</time></trkpt>
<trkpt lat="42.16986" lon="23.364935"><ele>2691.6</ele><time>2026-03-02T09:08:40.000Z</time></trkpt>
<trkpt lat="42.16986" lon="23.364935"><ele>2691.6</ele><time>2026-03-02T09:08:41.000Z</time></trkpt>
<trkpt lat="42.16986" lon="23.364934"><ele>2691.6</ele><time>2026-03-02T09:08:42.000Z</time></trkpt>
<trkpt lat="42.16986" lon="23.364934"><ele>2691.6</ele><time>2026-03-02T09:08:43.000Z</time></trkpt>
<trkpt lat="42.16986" lon="23.364933"><ele>2691.6</ele><time>2026-03-02T09:08:44.000Z</time></trkpt>
<trkpt lat="42.16986" lon="23.364933"><ele>2691.5</ele><time>2026-03-02T09:08:45.000Z</time></trkpt>
<trkpt lat="42.16986" lon="23.364932"><ele>2691.5</ele><time>2026-03-02T09:08:46.000Z</time></trkpt>
<trkpt lat="42.16986" lon="23.364932"><ele>2691.5</ele><time>2026-03-02T09:08:47.000Z</time></trkpt>
<trkpt lat="42.16986" lon="23.364932"><ele>2691.5</ele><time>2026-03-02T09:08:48.000Z</time></trkpt>
<trkpt lat="42.16986" lon="23.364932"><ele>2691.5</ele><time>2026-03-02T09:08:49.000Z</time></trkpt>
<trkpt lat="42.16986" lon="23.364932"><ele>2691.2</ele><time>2026-03-02T09:08:50.000Z</time></trkpt>
<trkpt lat="42.16986" lon="23.364932"><ele>2691.2</ele><time>2026-03-02T09:08:51.000Z</time></trkpt>
<trkpt lat="42.16986" lon="23.364932"><ele>2691.2</ele><time>2026-03-02T09:08:52.000Z</time></trkpt>
<trkpt lat="42.16986" lon="23.364932"><ele>2691.2</ele><time>2026-03-02T09:08:53.000Z</time></trkpt>
<trkpt lat="42.16986" lon="23.364932"><ele>2691.2</ele><time>2026-03-02T09:08:54.000Z</time></trkpt>
<trkpt lat="42.16986" lon="23.364932"><ele>2691.1</ele><time>2026-03-02T09:08:55.000Z</time></trkpt>
<trkpt lat="42.16986" lon="23.364931"><ele>2691.1</ele><time>2026-03-02T09:08:56.000Z</time></trkpt>
<trkpt lat="42.16986" lon="23.364931"><ele>2691.1</ele><time>2026-03-02T09:08:57.000Z</time></trkpt>
<trkpt lat="42.16986" lon="23.364931"><ele>2691.1</ele><time>2026-03-02T09:08:58.000Z</time></trkpt>
<trkpt lat="42.16986" lon="23.364931"><ele>2691.1</ele><time>2026-03-02T09:08:59.000Z</time></trkpt>
<trkpt lat="42.16986" lon="23.364931"><ele>2691.2</ele><time>2026-03-02T09:09:00.000Z</time></trkpt>
<trkpt lat="42.16986" lon="23.364931"><ele>2691.2</ele><time>2026-03-02T09:09:01.000Z</time></trkpt>
<trkpt lat="42.16986" lon="23.364931"><ele>2691.2</ele><time>2026-03-02T09:09:02.000Z</time></trkpt>
<trkpt lat="42.16986" lon="23.364931"><ele>2691.2</ele><time>2026-03-02T09:09:03.000Z</time></trkpt>
<trkpt lat="42.16986" lon="23.364931"><ele>2691.2</ele><time>2026-03-02T09:09:04.000Z</time></trkpt>
<trkpt lat="42.16986" lon="23.364931"><ele>2691.3</ele><time>2026-03-02T09:09:05.000Z</time></trkpt>
<trkpt lat="42.16986" lon="23.364931"><ele>2691.3</ele><time>2026-03-02T09:09:06.000Z</time></trkpt>
<trkpt lat="42.16986" lon="23.364931"><ele>2691.3</ele><time>2026-03-02T09:09:07.000Z</time></trkpt>
<trkpt lat="42.16986" lon="23.364931"><ele>2691.3</ele><time>2026-03-02T09:09:08.000Z</time></trkpt>
<trkpt lat="42.169861" lon="23.36493"><ele>2691.3</ele><time>2026-03-02T09:09:09.000Z</time></trkpt>
<trkpt lat="42.169863" lon="23.36493"><ele>2691.3</ele><time>2026-03-02T09:09:10.000Z</time></trkpt>
<trkpt lat="42.169866" lon="23.36493"><ele>2691.3</ele><time>2026-03-02T09:09:11.000Z</time></trkpt>
<trkpt lat="42.169868" lon="23.364932"><ele>2691.3</ele><time>2026-03-02T09:09:12.000Z</time></trkpt>
<trkpt lat="42.169871" lon="23.364936"><ele>2691.3</ele><time>2026-03-02T09:09:13.000Z</time></trkpt>
<trkpt lat="42.169873" lon="23.364942"><ele>2691.3</ele><time>2026-03-02T09:09:14.000Z</time></trkpt>
<trkpt lat="42.169875" lon="23.36495"><ele>2691.1</ele><time>2026-03-02T09:09:15.000Z</time></trkpt>
<trkpt lat="42.169876" lon="23.364958"><ele>2691.1</ele><time>2026-03-02T09:09:16.000Z</time></trkpt>
<trkpt lat="42.169879" lon="23.364969"><ele>2691.1</ele><time>2026-03-02T09:09:17.000Z</time></trkpt>
<trkpt lat="42.169881" lon="23.364978"><ele>2691.1</ele><time>2026-03-02T09:09:18.000Z</time></trkpt>
<trkpt lat="42.169883" lon="23.364988"><ele>2691.1</ele><time>2026-03-02T09:09:19.000Z</time></trkpt>
<trkpt lat="42.169885" lon="23.364998"><ele>2690.9</ele><time>2026-03-02T09:09:20.000Z</time></trkpt>
<trkpt lat="42.169886" lon="23.365008"><ele>2690.9</ele><time>2026-03-02T09:09:21.000Z</time></trkpt>
<trkpt lat="42.169885" lon="23.365017"><ele>2690.9</ele><time>2026-03-02T09:09:22.000Z</time></trkpt>
<trkpt lat="42.169885" lon="23.365025"><ele>2690.9</ele><time>2026-03-02T09:09:23.000Z</time></trkpt>
<trkpt lat="42.169885" lon="23.365032"><ele>2690.9</ele><time>2026-03-02T09:09:24.000Z</time></trkpt>
<trkpt lat="42.169886" lon="23.365037"><ele>2690.9</ele><time>2026-03-02T09:09:25.000Z</time></trkpt>
<trkpt lat="42.169887" lon="23.365039"><ele>2690.9</ele><time>2026-03-02T09:09:26.000Z</time></trkpt>
<trkpt lat="42.169888" lon="23.36504"><ele>2690.9</ele><time>2026-03-02T09:09:27.000Z</time></trkpt>
<trkpt lat="42.169889" lon="23.36504"><ele>2690.9</ele><time>2026-03-02T09:09:28.000Z</time></trkpt>
<trkpt lat="42.16989" lon="23.36504"><ele>2690.9</ele><time>2026-03-02T09:09:29.000Z</time></trkpt>
<trkpt lat="42.16989" lon="23.36504"><ele>2691.1</ele><time>2026-03-02T09:09:30.000Z</time></trkpt>
<trkpt lat="42.16989" lon="23.365039"><ele>2691.1</ele><time>2026-03-02T09:09:31.000Z</time></trkpt>
<trkpt lat="42.16989" lon="23.365039"><ele>2691.1</ele><time>2026-03-02T09:09:32.000Z</time></trkpt>
<trkpt lat="42.16989" lon="23.365038"><ele>2691.1</ele><time>2026-03-02T09:09:33.000Z</time></trkpt>
<trkpt lat="42.169891" lon="23.365038"><ele>2691.1</ele><time>2026-03-02T09:09:34.000Z</time></trkpt>
<trkpt lat="42.169891" lon="23.365038"><ele>2691.5</ele><time>2026-03-02T09:09:35.000Z</time></trkpt>
<trkpt lat="42.169891" lon="23.365037"><ele>2691.5</ele><time>2026-03-02T09:09:36.000Z</time></trkpt>
<trkpt lat="42.169891" lon="23.365037"><ele>2691.5</ele><time>2026-03-02T09:09:37.000Z</time></trkpt>
<trkpt lat="42.169891" lon="23.365038"><ele>2691.5</ele><time>2026-03-02T09:09:38.000Z</time></trkpt>
<trkpt lat="42.169891" lon="23.365038"><ele>2691.5</ele><time>2026-03-02T09:09:39.000Z</time></trkpt>
<trkpt lat="42.169891" lon="23.365038"><ele>2691.8</ele><time>2026-03-02T09:09:40.000Z</time></trkpt>
<trkpt lat="42.169891" lon="23.365038"><ele>2691.8</ele><time>2026-03-02T09:09:41.000Z</time></trkpt>
<trkpt lat="42.169891" lon="23.365038"><ele>2691.8</ele><time>2026-03-02T09:09:42.000Z</time></trkpt>
<trkpt lat="42.169891" lon="23.365038"><ele>2691.8</ele><time>2026-03-02T09:09:43.000Z</time></trkpt>
<trkpt lat="42.169892" lon="23.365038"><ele>2691.8</ele><time>2026-03-02T09:09:44.000Z</time></trkpt>
<trkpt lat="42.169892" lon="23.365038"><ele>2692.2</ele><time>2026-03-02T09:09:45.000Z</time></trkpt>
<trkpt lat="42.169891" lon="23.365039"><ele>2692.2</ele><time>2026-03-02T09:09:46.000Z</time></trkpt>
<trkpt lat="42.169891" lon="23.365039"><ele>2692.2</ele><time>2026-03-02T09:09:47.000Z</time></trkpt>
<trkpt lat="42.169891" lon="23.365039"><ele>2692.2</ele><time>2026-03-02T09:09:48.000Z</time></trkpt>
<trkpt lat="42.16989" lon="23.365039"><ele>2692.2</ele><time>2026-03-02T09:09:49.000Z</time></trkpt>
<trkpt lat="42.16989" lon="23.36504"><ele>2692.3</ele><time>2026-03-02T09:09:50.000Z</time></trkpt>
<trkpt lat="42.16989" lon="23.36504"><ele>2692.3</ele><time>2026-03-02T09:09:51.000Z</time></trkpt>
<trkpt lat="42.16989" lon="23.36504"><ele>2692.3</ele><time>2026-03-02T09:09:52.000Z</time></trkpt>
<trkpt lat="42.16989" lon="23.36504"><ele>2692.3</ele><time>2026-03-02T09:09:53.000Z</time></trkpt>
<trkpt lat="42.16989" lon="23.36504"><ele>2692.3</ele><time>2026-03-02T09:09:54.000Z</time></trkpt>
<trkpt lat="42.16989" lon="23.36504"><ele>2692.3</ele><time>2026-03-02T09:09:55.000Z</time></trkpt>
<trkpt lat="42.16989" lon="23.36504"><ele>2692.3</ele><time>2026-03-02T09:09:56.000Z</time></trkpt>
<trkpt lat="42.16989" lon="23.36504"><ele>2692.3</ele><time>2026-03-02T09:09:57.000Z</time></trkpt>
<trkpt lat="42.16989" lon="23.36504"><ele>2692.3</ele><time>2026-03-02T09:09:58.000Z</time></trkpt>
<trkpt lat="42.16989" lon="23.36504"><ele>2692.3</ele><time>2026-03-02T09:09:59.000Z</time></trkpt>
<trkpt lat="42.16989" lon="23.36504"><ele>2692.3</ele><time>2026-03-02T09:10:00.000Z</time></trkpt>
<trkpt lat="42.16989" lon="23.36504"><ele>2692.3</ele><time>2026-03-02T09:10:01.000Z</time></trkpt>
<trkpt lat="42.16989" lon="23.36504"><ele>2692.3</ele><time>2026-03-02T09:10:02.000Z</time></trkpt>
<trkpt lat="42.16989" lon="23.36504"><ele>2692.3</ele><time>2026-03-02T09:10:03.000Z</time></trkpt>
<trkpt lat="42.16989" lon="23.365039"><ele>2692.3</ele><time>2026-03-02T09:10:04.000Z</time></trkpt>
<trkpt lat="42.169889" lon="23.365039"><ele>2692.2</ele><time>2026-03-02T09:10:05.000Z</time></trkpt>
<trkpt lat="42.169887" lon="23.365039"><ele>2692.2</ele><time>2026-03-02T09:10:06.000Z</time></trkpt>
<trkpt lat="42.169885" lon="23.365039"><ele>2692.2</ele><time>2026-03-02T09:10:07.000Z</time></trkpt>
<trkpt lat="42.169883" lon="23.365039"><ele>2692.2</ele><time>2026-03-02T09:10:08.000Z</time></trkpt>
<trkpt lat="42.16988" lon="23.365037"><ele>2692.2</ele><time>2026-03-02T09:10:09.000Z</time></trkpt>
<trkpt lat="42.169879" lon="23.365033"><ele>2692.2</ele><time>2026-03-02T09:10:10.000Z</time></trkpt>
<trkpt lat="42.169878" lon="23.365026"><ele>2692.2</ele><time>2026-03-02T09:10:11.000Z</time></trkpt>
<trkpt lat="42.169876" lon="23.365016"><ele>2692.2</ele><time>2026-03-02T09:10:12.000Z</time></trkpt>
<trkpt lat="42.169875" lon="23.365005"><ele>2692.2</ele><time>2026-03-02T09:10:13.000Z</time></trkpt>
<trkpt lat="42.169873" lon="23.364996"><ele>2692.2</ele><time>2026-03-02T09:10:14.000Z</time></trkpt>
<trkpt lat="42.169869" lon="23.36499"><ele>2691.9</ele><time>2026-03-02T09:10:15.000Z</time></trkpt>
<trkpt lat="42.169867" lon="23.364986"><ele>2691.9</ele><time>2026-03-02T09:10:16.000Z</time></trkpt>
<trkpt lat="42.169866" lon="23.364984"><ele>2691.9</ele><time>2026-03-02T09:10:17.000Z</time></trkpt>
<trkpt lat="42.169865" lon="23.364984"><ele>2691.9</ele><time>2026-03-02T09:10:18.000Z</time></trkpt>
<trkpt lat="42.169864" lon="23.364983"><ele>2691.9</ele><time>2026-03-02T09:10:19.000Z</time></trkpt>
<trkpt lat="42.169865" lon="23.364982"><ele>2691.7</ele><time>2026-03-02T09:10:20.000Z</time></trkpt>
<trkpt lat="42.169865" lon="23.364982"><ele>2691.7</ele><time>2026-03-02T09:10:21.000Z</time></trkpt>
<trkpt lat="42.169865" lon="23.364981"><ele>2691.7</ele><time>2026-03-02T09:10:22.000Z</time></trkpt>
<trkpt lat="42.169866" lon="23.36498"><ele>2691.7</ele><time>2026-03-02T09:10:23.000Z</time></trkpt>
<trkpt lat="42.169866" lon="23.364979"><ele>2691.7</ele><time>2026-03-02T09:10:24.000Z</time></trkpt>
<trkpt lat="42.169865" lon="23.364977"><ele>2691.5</ele><time>2026-03-02T09:10:25.000Z</time></trkpt>
<trkpt lat="42.169865" lon="23.364975"><ele>2691.5</ele><time>2026-03-02T09:10:26.000Z</time></trkpt>
<trkpt lat="42.169865" lon="23.364974"><ele>2691.5</ele><time>2026-03-02T09:10:27.000Z</time></trkpt>
<trkpt lat="42.169865" lon="23.364972"><ele>2691.5</ele><time>2026-03-02T09:10:28.000Z</time></trkpt>
<trkpt lat="42.169866" lon="23.364972"><ele>2691.5</ele><time>2026-03-02T09:10:29.000Z</time></trkpt>
<trkpt lat="42.169866" lon="23.364972"><ele>2691.3</ele><time>2026-03-02T09:10:30.000Z</time></trkpt>
<trkpt lat="42.169866" lon="23.364973"><ele>2691.3</ele><time>2026-03-02T09:10:31.000Z</time></trkpt>
<trkpt lat="42.169865" lon="23.364974"><ele>2691.3</ele><time>2026-03-02T09:10:32.000Z</time></trkpt>
<trkpt lat="42.169865" lon="23.364974"><ele>2691.3</ele><time>2026-03-02T09:10:33.000Z</time></trkpt>
<trkpt lat="42.169865" lon="23.364974"><ele>2691.3</ele><time>2026-03-02T09:10:34.000Z</time></trkpt>
<trkpt lat="42.169865" lon="23.364974"><ele>2691.1</ele><time>2026-03-02T09:10:35.000Z</time></trkpt>
<trkpt lat="42.169866" lon="23.364974"><ele>2691.1</ele><time>2026-03-02T09:10:36.000Z</time></trkpt>
<trkpt lat="42.169866" lon="23.364974"><ele>2691.1</ele><time>2026-03-02T09:10:37.000Z</time></trkpt>
<trkpt lat="42.169866" lon="23.364974"><ele>2691.1</ele><time>2026-03-02T09:10:38.000Z</time></trkpt>
<trkpt lat="42.169866" lon="23.364974"><ele>2691.1</ele><time>2026-03-02T09:10:39.000Z</time></trkpt>
<trkpt lat="42.169866" lon="23.364974"><ele>2691</ele><time>2026-03-02T09:10:40.000Z</time></trkpt>
<trkpt lat="42.169867" lon="23.364974"><ele>2691</ele><time>2026-03-02T09:10:41.000Z</time></trkpt>
<trkpt lat="42.169867" lon="23.364974"><ele>2691</ele><time>2026-03-02T09:10:42.000Z</time></trkpt>
<trkpt lat="42.169867" lon="23.364975"><ele>2691</ele><time>2026-03-02T09:10:43.000Z</time></trkpt>
<trkpt lat="42.169868" lon="23.364976"><ele>2691</ele><time>2026-03-02T09:10:44.000Z</time></trkpt>
<trkpt lat="42.169868" lon="23.364977"><ele>2690.9</ele><time>2026-03-02T09:10:45.000Z</time></trkpt>
<trkpt lat="42.169868" lon="23.364978"><ele>2690.9</ele><time>2026-03-02T09:10:46.000Z</time></trkpt>
<trkpt lat="42.169868" lon="23.364979"><ele>2690.9</ele><time>2026-03-02T09:10:47.000Z</time></trkpt>
<trkpt lat="42.16987" lon="23.364979"><ele>2690.9</ele><time>2026-03-02T09:10:48.000Z</time></trkpt>
<trkpt lat="42.169874" lon="23.364978"><ele>2690.9</ele><time>2026-03-02T09:10:49.000Z</time></trkpt>
<trkpt lat="42.169878" lon="23.364978"><ele>2691.2</ele><time>2026-03-02T09:10:50.000Z</time></trkpt>
<trkpt lat="42.169882" lon="23.364978"><ele>2691.2</ele><time>2026-03-02T09:10:51.000Z</time></trkpt>
<trkpt lat="42.169887" lon="23.364979"><ele>2691.2</ele><time>2026-03-02T09:10:52.000Z</time></trkpt>
<trkpt lat="42.16989" lon="23.36498"><ele>2691.2</ele><time>2026-03-02T09:10:53.000Z</time></trkpt>
<trkpt lat="42.169892" lon="23.364981"><ele>2691.2</ele><time>2026-03-02T09:10:54.000Z</time></trkpt>
<trkpt lat="42.169892" lon="23.364981"><ele>2691.4</ele><time>2026-03-02T09:10:55.000Z</time></trkpt>
<trkpt lat="42.169892" lon="23.364981"><ele>2691.4</ele><time>2026-03-02T09:10:56.000Z</time></trkpt>
<trkpt lat="42.169891" lon="23.36498"><ele>2691.4</ele><time>2026-03-02T09:10:57.000Z</time></trkpt>
<trkpt lat="42.16989" lon="23.364979"><ele>2691.4</ele><time>2026-03-02T09:10:58.000Z</time></trkpt>
<trkpt lat="42.16989" lon="23.364979"><ele>2691.4</ele><time>2026-03-02T09:10:59.000Z</time></trkpt>
<trkpt lat="42.169889" lon="23.364979"><ele>2691.6</ele><time>2026-03-02T09:11:00.000Z</time></trkpt>
<trkpt lat="42.169889" lon="23.364979"><ele>2691.6</ele><time>2026-03-02T09:11:01.000Z</time></trkpt>
<trkpt lat="42.169888" lon="23.36498"><ele>2691.6</ele><time>2026-03-02T09:11:02.000Z</time></trkpt>
<trkpt lat="42.169888" lon="23.36498"><ele>2691.6</ele><time>2026-03-02T09:11:03.000Z</time></trkpt>
<trkpt lat="42.169887" lon="23.36498"><ele>2691.6</ele><time>2026-03-02T09:11:04.000Z</time></trkpt>
<trkpt lat="42.169887" lon="23.36498"><ele>2691.8</ele><time>2026-03-02T09:11:05.000Z</time></trkpt>
<trkpt lat="42.169886" lon="23.36498"><ele>2691.8</ele><time>2026-03-02T09:11:06.000Z</time></trkpt>
<trkpt lat="42.169886" lon="23.36498"><ele>2691.8</ele><time>2026-03-02T09:11:07.000Z</time></trkpt>
<trkpt lat="42.169886" lon="23.36498"><ele>2691.8</ele><time>2026-03-02T09:11:08.000Z</time></trkpt>
<trkpt lat="42.169886" lon="23.36498"><ele>2691.8</ele><time>2026-03-02T09:11:09.000Z</time></trkpt>
<trkpt lat="42.169886" lon="23.36498"><ele>2691.8</ele><time>2026-03-02T09:11:10.000Z</time></trkpt>
<trkpt lat="42.169886" lon="23.36498"><ele>2691.8</ele><time>2026-03-02T09:11:11.000Z</time></trkpt>
<trkpt lat="42.169886" lon="23.36498"><ele>2691.8</ele><time>2026-03-02T09:11:12.000Z</time></trkpt>
<trkpt lat="42.169886" lon="23.36498"><ele>2691.8</ele><time>2026-03-02T09:11:13.000Z</time></trkpt>
<trkpt lat="42.169886" lon="23.36498"><ele>2691.8</ele><time>2026-03-02T09:11:14.000Z</time></trkpt>
<trkpt lat="42.169886" lon="23.36498"><ele>2692</ele><time>2026-03-02T09:11:15.000Z</time></trkpt>
<trkpt lat="42.169886" lon="23.36498"><ele>2692</ele><time>2026-03-02T09:11:16.000Z</time></trkpt>
<trkpt lat="42.169886" lon="23.36498"><ele>2692</ele><time>2026-03-02T09:11:17.000Z</time></trkpt>
<trkpt lat="42.169886" lon="23.36498"><ele>2692</ele><time>2026-03-02T09:11:18.000Z</time></trkpt>
<trkpt lat="42.169886" lon="23.36498"><ele>2692</ele><time>2026-03-02T09:11:19.000Z</time></trkpt>
<trkpt lat="42.169886" lon="23.36498"><ele>2692.1</ele><time>2026-03-02T09:11:20.000Z</time></trkpt>
<trkpt lat="42.169886" lon="23.36498"><ele>2692.1</ele><time>2026-03-02T09:11:21.000Z</time></trkpt>
<trkpt lat="42.169886" lon="23.36498"><ele>2692.1</ele><time>2026-03-02T09:11:22.000Z</time></trkpt>
<trkpt lat="42.169886" lon="23.36498"><ele>2692.1</ele><time>2026-03-02T09:11:23.000Z</time></trkpt>
<trkpt lat="42.169886" lon="23.36498"><ele>2692.1</ele><time>2026-03-02T09:11:24.000Z</time></trkpt>
<trkpt lat="42.169886" lon="23.36498"><ele>2692.1</ele><time>2026-03-02T09:11:25.000Z</time></trkpt>
<trkpt lat="42.169886" lon="23.36498"><ele>2692.1</ele><time>2026-03-02T09:11:26.000Z</time></trkpt>
<trkpt lat="42.169886" lon="23.36498"><ele>2692.1</ele><time>2026-03-02T09:11:27.000Z</time></trkpt>
<trkpt lat="42.169886" lon="23.36498"><ele>2692.1</ele><time>2026-03-02T09:11:28.000Z</time></trkpt>
<trkpt lat="42.169886" lon="23.36498"><ele>2692.1</ele><time>2026-03-02T09:11:29.000Z</time></trkpt>
<trkpt lat="42.169886" lon="23.36498"><ele>2691.8</ele><time>2026-03-02T09:11:30.000Z</time></trkpt>
<trkpt lat="42.169886" lon="23.36498"><ele>2691.8</ele><time>2026-03-02T09:11:31.000Z</time></trkpt>
<trkpt lat="42.169886" lon="23.364979"><ele>2691.8</ele><time>2026-03-02T09:11:32.000Z</time></trkpt>
<trkpt lat="42.169887" lon="23.364978"><ele>2691.8</ele><time>2026-03-02T09:11:33.000Z</time></trkpt>
<trkpt lat="42.169887" lon="23.364978"><ele>2691.8</ele><time>2026-03-02T09:11:34.000Z</time></trkpt>
<trkpt lat="42.169886" lon="23.364978"><ele>2691.6</ele><time>2026-03-02T09:11:35.000Z</time></trkpt>
<trkpt lat="42.169887" lon="23.364978"><ele>2691.6</ele><time>2026-03-02T09:11:36.000Z</time></trkpt>
<trkpt lat="42.169887" lon="23.36498"><ele>2691.6</ele><time>2026-03-02T09:11:37.000Z</time></trkpt>
<trkpt lat="42.169888" lon="23.364981"><ele>2691.6</ele><time>2026-03-02T09:11:38.000Z</time></trkpt>
<trkpt lat="42.169887" lon="23.364981"><ele>2691.6</ele><time>2026-03-02T09:11:39.000Z</time></trkpt>
<trkpt lat="42.169888" lon="23.364981"><ele>2691.5</ele><time>2026-03-02T09:11:40.000Z</time></trkpt>
<trkpt lat="42.169888" lon="23.36498"><ele>2691.5</ele><time>2026-03-02T09:11:41.000Z</time></trkpt>
<trkpt lat="42.169887" lon="23.364978"><ele>2691.5</ele><time>2026-03-02T09:11:42.000Z</time></trkpt>
<trkpt lat="42.169886" lon="23.364976"><ele>2691.5</ele><time>2026-03-02T09:11:43.000Z</time></trkpt>
<trkpt lat="42.169887" lon="23.364975"><ele>2691.5</ele><time>2026-03-02T09:11:44.000Z</time></trkpt>
<trkpt lat="42.169887" lon="23.364975"><ele>2691.4</ele><time>2026-03-02T09:11:45.000Z</time></trkpt>
<trkpt lat="42.169887" lon="23.364974"><ele>2691.4</ele><time>2026-03-02T09:11:46.000Z</time></trkpt>
<trkpt lat="42.169887" lon="23.364973"><ele>2691.4</ele><time>2026-03-02T09:11:47.000Z</time></trkpt>
<trkpt lat="42.169887" lon="23.364973"><ele>2691.4</ele><time>2026-03-02T09:11:48.000Z</time></trkpt>
<trkpt lat="42.169887" lon="23.364973"><ele>2691.4</ele><time>2026-03-02T09:11:49.000Z</time></trkpt>
<trkpt lat="42.169887" lon="23.364973"><ele>2691.3</ele><time>2026-03-02T09:11:50.000Z</time></trkpt>
<trkpt lat="42.169887" lon="23.364973"><ele>2691.3</ele><time>2026-03-02T09:11:51.000Z</time></trkpt>
<trkpt lat="42.169887" lon="23.364973"><ele>2691.3</ele><time>2026-03-02T09:11:52.000Z</time></trkpt>
<trkpt lat="42.169887" lon="23.364973"><ele>2691.3</ele><time>2026-03-02T09:11:53.000Z</time></trkpt>
<trkpt lat="42.169887" lon="23.364973"><ele>2691.3</ele><time>2026-03-02T09:11:54.000Z</time></trkpt>
<trkpt lat="42.169887" lon="23.364973"><ele>2691.3</ele><time>2026-03-02T09:11:55.000Z</time></trkpt>
<trkpt lat="42.169888" lon="23.364972"><ele>2691.3</ele><time>2026-03-02T09:11:56.000Z</time></trkpt>
<trkpt lat="42.16989" lon="23.364972"><ele>2691.3</ele><time>2026-03-02T09:11:57.000Z</time></trkpt>
<trkpt lat="42.169891" lon="23.364971"><ele>2691.3</ele><time>2026-03-02T09:11:58.000Z</time></trkpt>
<trkpt lat="42.169892" lon="23.364971"><ele>2691.3</ele><time>2026-03-02T09:11:59.000Z</time></trkpt>
<trkpt lat="42.169893" lon="23.36497"><ele>2691.4</ele><time>2026-03-02T09:12:00.000Z</time></trkpt>
<trkpt lat="42.169892" lon="23.36497"><ele>2691.4</ele><time>2026-03-02T09:12:01.000Z</time></trkpt>
<trkpt lat="42.169892" lon="23.36497"><ele>2691.4</ele><time>2026-03-02T09:12:02.000Z</time></trkpt>
<trkpt lat="42.169892" lon="23.36497"><ele>2691.4</ele><time>2026-03-02T09:12:03.000Z</time></trkpt>
<trkpt lat="42.169892" lon="23.36497"><ele>2691.4</ele><time>2026-03-02T09:12:04.000Z</time></trkpt>
<trkpt lat="42.16989" lon="23.364972"><ele>2691.6</ele><time>2026-03-02T09:12:05.000Z</time></trkpt>
<trkpt lat="42.169887" lon="23.364973"><ele>2691.6</ele><time>2026-03-02T09:12:06.000Z</time></trkpt>
<trkpt lat="42.169883" lon="23.364973"><ele>2691.6</ele><time>2026-03-02T09:12:07.000Z</time></trkpt>
<trkpt lat="42.16988" lon="23.364972"><ele>2691.6</ele><time>2026-03-02T09:12:08.000Z</time></trkpt>
<trkpt lat="42.169877" lon="23.364971"><ele>2691.6</ele><time>2026-03-02T09:12:09.000Z</time></trkpt>
<trkpt lat="42.169876" lon="23.364969"><ele>2691.6</ele><time>2026-03-02T09:12:10.000Z</time></trkpt>
<trkpt lat="42.169875" lon="23.364968"><ele>2691.6</ele><time>2026-03-02T09:12:11.000Z</time></trkpt>
<trkpt lat="42.169875" lon="23.364968"><ele>2691.6</ele><time>2026-03-02T09:12:12.000Z</time></trkpt>
<trkpt lat="42.169874" lon="23.364968"><ele>2691.6</ele><time>2026-03-02T09:12:13.000Z</time></trkpt>
<trkpt lat="42.169874" lon="23.364969"><ele>2691.6</ele><time>2026-03-02T09:12:14.000Z</time></trkpt>
<trkpt lat="42.169874" lon="23.364969"><ele>2691.6</ele><time>2026-03-02T09:12:15.000Z</time></trkpt>
<trkpt lat="42.169873" lon="23.364969"><ele>2691.6</ele><time>2026-03-02T09:12:16.000Z</time></trkpt>
<trkpt lat="42.169873" lon="23.364969"><ele>2691.6</ele><time>2026-03-02T09:12:17.000Z</time></trkpt>
<trkpt lat="42.169874" lon="23.364968"><ele>2691.6</ele><time>2026-03-02T09:12:18.000Z</time></trkpt>
<trkpt lat="42.169874" lon="23.364968"><ele>2691.6</ele><time>2026-03-02T09:12:19.000Z</time></trkpt>
<trkpt lat="42.169873" lon="23.364968"><ele>2691.5</ele><time>2026-03-02T09:12:20.000Z</time></trkpt>
<trkpt lat="42.169873" lon="23.364968"><ele>2691.5</ele><time>2026-03-02T09:12:21.000Z</time></trkpt>
<trkpt lat="42.169872" lon="23.364968"><ele>2691.5</ele><time>2026-03-02T09:12:22.000Z</time></trkpt>
<trkpt lat="42.169871" lon="23.364969"><ele>2691.5</ele><time>2026-03-02T09:12:23.000Z</time></trkpt>
<trkpt lat="42.169871" lon="23.364971"><ele>2691.5</ele><time>2026-03-02T09:12:24.000Z</time></trkpt>
<trkpt lat="42.16987" lon="23.364971"><ele>2691.4</ele><time>2026-03-02T09:12:25.000Z</time></trkpt>
<trkpt lat="42.16987" lon="23.364972"><ele>2691.4</ele><time>2026-03-02T09:12:26.000Z</time></trkpt>
<trkpt lat="42.16987" lon="23.364972"><ele>2691.4</ele><time>2026-03-02T09:12:27.000Z</time></trkpt>
<trkpt lat="42.16987" lon="23.364973"><ele>2691.4</ele><time>2026-03-02T09:12:28.000Z</time></trkpt>
<trkpt lat="42.16987" lon="23.364973"><ele>2691.4</ele><time>2026-03-02T09:12:29.000Z</time></trkpt>
<trkpt lat="42.16987" lon="23.364973"><ele>2691.5</ele><time>2026-03-02T09:12:30.000Z</time></trkpt>
<trkpt lat="42.169871" lon="23.364973"><ele>2691.5</ele><time>2026-03-02T09:12:31.000Z</time></trkpt>
<trkpt lat="42.169872" lon="23.364976"><ele>2691.5</ele><time>2026-03-02T09:12:32.000Z</time></trkpt>
<trkpt lat="42.169872" lon="23.364979"><ele>2691.5</ele><time>2026-03-02T09:12:33.000Z</time></trkpt>
<trkpt lat="42.169871" lon="23.364982"><ele>2691.5</ele><time>2026-03-02T09:12:34.000Z</time></trkpt>
<trkpt lat="42.169871" lon="23.364985"><ele>2691.5</ele><time>2026-03-02T09:12:35.000Z</time></trkpt>
<trkpt lat="42.16987" lon="23.364987"><ele>2691.5</ele><time>2026-03-02T09:12:36.000Z</time></trkpt>
<trkpt lat="42.16987" lon="23.364987"><ele>2691.5</ele><time>2026-03-02T09:12:37.000Z</time></trkpt>
<trkpt lat="42.169872" lon="23.364987"><ele>2691.5</ele><time>2026-03-02T09:12:38.000Z</time></trkpt>
<trkpt lat="42.169873" lon="23.364987"><ele>2691.5</ele><time>2026-03-02T09:12:39.000Z</time></trkpt>
<trkpt lat="42.169874" lon="23.364988"><ele>2691.6</ele><time>2026-03-02T09:12:40.000Z</time></trkpt>
<trkpt lat="42.169876" lon="23.364987"><ele>2691.6</ele><time>2026-03-02T09:12:41.000Z</time></trkpt>
<trkpt lat="42.169878" lon="23.364986"><ele>2691.6</ele><time>2026-03-02T09:12:42.000Z</time></trkpt>
<trkpt lat="42.16988" lon="23.364984"><ele>2691.6</ele><time>2026-03-02T09:12:43.000Z</time></trkpt>
<trkpt lat="42.169882" lon="23.364982"><ele>2691.6</ele><time>2026-03-02T09:12:44.000Z</time></trkpt>
<trkpt lat="42.169884" lon="23.36498"><ele>2692</ele><time>2026-03-02T09:12:45.000Z</time></trkpt>
<trkpt lat="42.169884" lon="23.36498"><ele>2692</ele><time>2026-03-02T09:12:46.000Z</time></trkpt>
<trkpt lat="42.169884" lon="23.364979"><ele>2692</ele><time>2026-03-02T09:12:47.000Z</time></trkpt>
<trkpt lat="42.169885" lon="23.364979"><ele>2692</ele><time>2026-03-02T09:12:48.000Z</time></trkpt>
<trkpt lat="42.169884" lon="23.364978"><ele>2692</ele><time>2026-03-02T09:12:49.000Z</time></trkpt>
<trkpt lat="42.169884" lon="23.364977"><ele>2692.4</ele><time>2026-03-02T09:12:50.000Z</time></trkpt>
<trkpt lat="42.169884" lon="23.364976"><ele>2692.4</ele><time>2026-03-02T09:12:51.000Z</time></trkpt>
<trkpt lat="42.169884" lon="23.364976"><ele>2692.4</ele><time>2026-03-02T09:12:52.000Z</time></trkpt>
<trkpt lat="42.169884" lon="23.364976"><ele>2692.4</ele><time>2026-03-02T09:12:53.000Z</time></trkpt>
<trkpt lat="42.169884" lon="23.364975"><ele>2692.4</ele><time>2026-03-02T09:12:54.000Z</time></trkpt>
<trkpt lat="42.169884" lon="23.364975"><ele>2692.3</ele><time>2026-03-02T09:12:55.000Z</time></trkpt>
<trkpt lat="42.169884" lon="23.364975"><ele>2692.3</ele><time>2026-03-02T09:12:56.000Z</time></trkpt>
<trkpt lat="42.169884" lon="23.364975"><ele>2692.3</ele><time>2026-03-02T09:12:57.000Z</time></trkpt>
<trkpt lat="42.169884" lon="23.364975"><ele>2692.3</ele><time>2026-03-02T09:12:58.000Z</time></trkpt>
<trkpt lat="42.169884" lon="23.364975"><ele>2692.3</ele><time>2026-03-02T09:12:59.000Z</time></trkpt>
<trkpt lat="42.169884" lon="23.364975"><ele>2692</ele><time>2026-03-02T09:13:00.000Z</time></trkpt>
<trkpt lat="42.169883" lon="23.364974"><ele>2692</ele><time>2026-03-02T09:13:01.000Z</time></trkpt>
<trkpt lat="42.169882" lon="23.364974"><ele>2692</ele><time>2026-03-02T09:13:02.000Z</time></trkpt>
<trkpt lat="42.169882" lon="23.364974"><ele>2692</ele><time>2026-03-02T09:13:03.000Z</time></trkpt>
<trkpt lat="42.169881" lon="23.364974"><ele>2692</ele><time>2026-03-02T09:13:04.000Z</time></trkpt>
<trkpt lat="42.16988" lon="23.364974"><ele>2691.7</ele><time>2026-03-02T09:13:05.000Z</time></trkpt>
<trkpt lat="42.169879" lon="23.364974"><ele>2691.7</ele><time>2026-03-02T09:13:06.000Z</time></trkpt>
<trkpt lat="42.169878" lon="23.364973"><ele>2691.7</ele><time>2026-03-02T09:13:07.000Z</time></trkpt>
<trkpt lat="42.169878" lon="23.364972"><ele>2691.7</ele><time>2026-03-02T09:13:08.000Z</time></trkpt>
<trkpt lat="42.169878" lon="23.36497"><ele>2691.7</ele><time>2026-03-02T09:13:09.000Z</time></trkpt>
<trkpt lat="42.169878" lon="23.364969"><ele>2691.6</ele><time>2026-03-02T09:13:10.000Z</time></trkpt>
<trkpt lat="42.169879" lon="23.364968"><ele>2691.6</ele><time>2026-03-02T09:13:11.000Z</time></trkpt>
<trkpt lat="42.16988" lon="23.364968"><ele>2691.6</ele><time>2026-03-02T09:13:12.000Z</time></trkpt>
<trkpt lat="42.169881" lon="23.364969"><ele>2691.6</ele><time>2026-03-02T09:13:13.000Z</time></trkpt>
<trkpt lat="42.169881" lon="23.364969"><ele>2691.6</ele><time>2026-03-02T09:13:14.000Z</time></trkpt>
<trkpt lat="42.169882" lon="23.364969"><ele>2691.8</ele><time>2026-03-02T09:13:15.000Z</time></trkpt>
<trkpt lat="42.169882" lon="23.36497"><ele>2691.8</ele><time>2026-03-02T09:13:16.000Z</time></trkpt>
<trkpt lat="42.169882" lon="23.36497"><ele>2691.8</ele><time>2026-03-02T09:13:17.000Z</time></trkpt>
<trkpt lat="42.169882" lon="23.364971"><ele>2691.8</ele><time>2026-03-02T09:13:18.000Z</time></trkpt>
<trkpt lat="42.169882" lon="23.364971"><ele>2691.8</ele><time>2026-03-02T09:13:19.000Z</time></trkpt>
<trkpt lat="42.169882" lon="23.364972"><ele>2691.8</ele><time>2026-03-02T09:13:20.000Z</time></trkpt>
<trkpt lat="42.169882" lon="23.364972"><ele>2691.8</ele><time>2026-03-02T09:13:21.000Z</time></trkpt>
<trkpt lat="42.169882" lon="23.364972"><ele>2691.8</ele><time>2026-03-02T09:13:22.000Z</time></trkpt>
<trkpt lat="42.169882" lon="23.364971"><ele>2691.8</ele><time>2026-03-02T09:13:23.000Z</time></trkpt>
<trkpt lat="42.169882" lon="23.364971"><ele>2691.8</ele><time>2026-03-02T09:13:24.000Z</time></trkpt>
<trkpt lat="42.169881" lon="23.364971"><ele>2691.9</ele><time>2026-03-02T09:13:25.000Z</time></trkpt>
<trkpt lat="42.16988" lon="23.364972"><ele>2691.9</ele><time>2026-03-02T09:13:26.000Z</time></trkpt>
<trkpt lat="42.16988" lon="23.364972"><ele>2691.9</ele><time>2026-03-02T09:13:27.000Z</time></trkpt>
<trkpt lat="42.16988" lon="23.364973"><ele>2691.9</ele><time>2026-03-02T09:13:28.000Z</time></trkpt>
<trkpt lat="42.169879" lon="23.364973"><ele>2691.9</ele><time>2026-03-02T09:13:29.000Z</time></trkpt>
<trkpt lat="42.16988" lon="23.364973"><ele>2691.9</ele><time>2026-03-02T09:13:30.000Z</time></trkpt>
<trkpt lat="42.169881" lon="23.364972"><ele>2691.9</ele><time>2026-03-02T09:13:31.000Z</time></trkpt>
<trkpt lat="42.169882" lon="23.364971"><ele>2691.9</ele><time>2026-03-02T09:13:32.000Z</time></trkpt>
<trkpt lat="42.169883" lon="23.36497"><ele>2691.9</ele><time>2026-03-02T09:13:33.000Z</time></trkpt>
<trkpt lat="42.169883" lon="23.364969"><ele>2691.9</ele><time>2026-03-02T09:13:34.000Z</time></trkpt>
<trkpt lat="42.169883" lon="23.364969"><ele>2692.1</ele><time>2026-03-02T09:13:35.000Z</time></trkpt>
<trkpt lat="42.169883" lon="23.364969"><ele>2692.1</ele><time>2026-03-02T09:13:36.000Z</time></trkpt>
<trkpt lat="42.169883" lon="23.364969"><ele>2692.1</ele><time>2026-03-02T09:13:37.000Z</time></trkpt>
<trkpt lat="42.169883" lon="23.364969"><ele>2692.1</ele><time>2026-03-02T09:13:38.000Z</time></trkpt>
<trkpt lat="42.169883" lon="23.364969"><ele>2692.1</ele><time>2026-03-02T09:13:39.000Z</time></trkpt>
<trkpt lat="42.169883" lon="23.364969"><ele>2692.1</ele><time>2026-03-02T09:13:40.000Z</time></trkpt>
<trkpt lat="42.169882" lon="23.364969"><ele>2692.1</ele><time>2026-03-02T09:13:41.000Z</time></trkpt>
<trkpt lat="42.169882" lon="23.36497"><ele>2692.1</ele><time>2026-03-02T09:13:42.000Z</time></trkpt>
<trkpt lat="42.169882" lon="23.36497"><ele>2692.1</ele><time>2026-03-02T09:13:43.000Z</time></trkpt>
<trkpt lat="42.169881" lon="23.36497"><ele>2692.1</ele><time>2026-03-02T09:13:44.000Z</time></trkpt>
<trkpt lat="42.169881" lon="23.364971"><ele>2692.1</ele><time>2026-03-02T09:13:45.000Z</time></trkpt>
<trkpt lat="42.16988" lon="23.364971"><ele>2692.1</ele><time>2026-03-02T09:13:46.000Z</time></trkpt>
<trkpt lat="42.16988" lon="23.364972"><ele>2692.1</ele><time>2026-03-02T09:13:47.000Z</time></trkpt>
<trkpt lat="42.16988" lon="23.364973"><ele>2692.1</ele><time>2026-03-02T09:13:48.000Z</time></trkpt>
<trkpt lat="42.16988" lon="23.364974"><ele>2692.1</ele><time>2026-03-02T09:13:49.000Z</time></trkpt>
<trkpt lat="42.169881" lon="23.364974"><ele>2692</ele><time>2026-03-02T09:13:50.000Z</time></trkpt>
<trkpt lat="42.169881" lon="23.364974"><ele>2692</ele><time>2026-03-02T09:13:51.000Z</time></trkpt>
<trkpt lat="42.169882" lon="23.364973"><ele>2692</ele><time>2026-03-02T09:13:52.000Z</time></trkpt>
<trkpt lat="42.169882" lon="23.364973"><ele>2692</ele><time>2026-03-02T09:13:53.000Z</time></trkpt>
<trkpt lat="42.169883" lon="23.364973"><ele>2692</ele><time>2026-03-02T09:13:54.000Z</time></trkpt>
<trkpt lat="42.169883" lon="23.364973"><ele>2692</ele><time>2026-03-02T09:13:55.000Z</time></trkpt>
<trkpt lat="42.169883" lon="23.364973"><ele>2692</ele><time>2026-03-02T09:13:56.000Z</time></trkpt>
<trkpt lat="42.169883" lon="23.364974"><ele>2692</ele><time>2026-03-02T09:13:57.000Z</time></trkpt>
<trkpt lat="42.169883" lon="23.364974"><ele>2692</ele><time>2026-03-02T09:13:58.000Z</time></trkpt>
<trkpt lat="42.169883" lon="23.364974"><ele>2692</ele><time>2026-03-02T09:13:59.000Z</time></trkpt>
<trkpt lat="42.169883" lon="23.364974"><ele>2691.9</ele><time>2026-03-02T09:14:00.000Z</time></trkpt>
<trkpt lat="42.169883" lon="23.364974"><ele>2691.9</ele><time>2026-03-02T09:14:01.000Z</time></trkpt>
<trkpt lat="42.169883" lon="23.364974"><ele>2691.9</ele><time>2026-03-02T09:14:02.000Z</time></trkpt>
<trkpt lat="42.169883" lon="23.364974"><ele>2691.9</ele><time>2026-03-02T09:14:03.000Z</time></trkpt>
<trkpt lat="42.169883" lon="23.364974"><ele>2691.9</ele><time>2026-03-02T09:14:04.000Z</time></trkpt>
<trkpt lat="42.169883" lon="23.364975"><ele>2692</ele><time>2026-03-02T09:14:05.000Z</time></trkpt>
<trkpt lat="42.169884" lon="23.364977"><ele>2692</ele><time>2026-03-02T09:14:06.000Z</time></trkpt>
<trkpt lat="42.169883" lon="23.364978"><ele>2692</ele><time>2026-03-02T09:14:07.000Z</time></trkpt>
<trkpt lat="42.169883" lon="23.364979"><ele>2692</ele><time>2026-03-02T09:14:08.000Z</time></trkpt>
<trkpt lat="42.169882" lon="23.364979"><ele>2692</ele><time>2026-03-02T09:14:09.000Z</time></trkpt>
<trkpt lat="42.169881" lon="23.364979"><ele>2692.1</ele><time>2026-03-02T09:14:10.000Z</time></trkpt>
<trkpt lat="42.16988" lon="23.364978"><ele>2692.1</ele><time>2026-03-02T09:14:11.000Z</time></trkpt>
<trkpt lat="42.16988" lon="23.364977"><ele>2692.1</ele><time>2026-03-02T09:14:12.000Z</time></trkpt>
<trkpt lat="42.16988" lon="23.364977"><ele>2692.1</ele><time>2026-03-02T09:14:13.000Z</time></trkpt>
<trkpt lat="42.16988" lon="23.364977"><ele>2692.1</ele><time>2026-03-02T09:14:14.000Z</time></trkpt>
<trkpt lat="42.16988" lon="23.364977"><ele>2692.4</ele><time>2026-03-02T09:14:15.000Z</time></trkpt>
<trkpt lat="42.16988" lon="23.364977"><ele>2692.4</ele><time>2026-03-02T09:14:16.000Z</time></trkpt>
<trkpt lat="42.16988" lon="23.364977"><ele>2692.4</ele><time>2026-03-02T09:14:17.000Z</time></trkpt>
<trkpt lat="42.16988" lon="23.364977"><ele>2692.4</ele><time>2026-03-02T09:14:18.000Z</time></trkpt>
<trkpt lat="42.16988" lon="23.364977"><ele>2692.4</ele><time>2026-03-02T09:14:19.000Z</time></trkpt>
<trkpt lat="42.16988" lon="23.364977"><ele>2692.4</ele><time>2026-03-02T09:14:20.000Z</time></trkpt>
<trkpt lat="42.169879" lon="23.364977"><ele>2692.4</ele><time>2026-03-02T09:14:21.000Z</time></trkpt>
<trkpt lat="42.169878" lon="23.364978"><ele>2692.4</ele><time>2026-03-02T09:14:22.000Z</time></trkpt>
<trkpt lat="42.169877" lon="23.364978"><ele>2692.4</ele><time>2026-03-02T09:14:23.000Z</time></trkpt>
<trkpt lat="42.169876" lon="23.364978"><ele>2692.4</ele><time>2026-03-02T09:14:24.000Z</time></trkpt>
<trkpt lat="42.169875" lon="23.364978"><ele>2692.3</ele><time>2026-03-02T09:14:25.000Z</time></trkpt>
<trkpt lat="42.169874" lon="23.364978"><ele>2692.3</ele><time>2026-03-02T09:14:26.000Z</time></trkpt>
<trkpt lat="42.169873" lon="23.364978"><ele>2692.3</ele><time>2026-03-02T09:14:27.000Z</time></trkpt>
<trkpt lat="42.169873" lon="23.364978"><ele>2692.3</ele><time>2026-03-02T09:14:28.000Z</time></trkpt>
<trkpt lat="42.169873" lon="23.364977"><ele>2692.3</ele><time>2026-03-02T09:14:29.000Z</time></trkpt>
<trkpt lat="42.169873" lon="23.364977"><ele>2692.1</ele><time>2026-03-02T09:14:30.000Z</time></trkpt>
<trkpt lat="42.169873" lon="23.364977"><ele>2692.1</ele><time>2026-03-02T09:14:31.000Z</time></trkpt>
<trkpt lat="42.169873" lon="23.364977"><ele>2692.1</ele><time>2026-03-02T09:14:32.000Z</time></trkpt>
<trkpt lat="42.169874" lon="23.364977"><ele>2692.1</ele><time>2026-03-02T09:14:33.000Z</time></trkpt>
<trkpt lat="42.169875" lon="23.364977"><ele>2692.1</ele><time>2026-03-02T09:14:34.000Z</time></trkpt>
<trkpt lat="42.169877" lon="23.364976"><ele>2691.9</ele><time>2026-03-02T09:14:35.000Z</time></trkpt>
<trkpt lat="42.16988" lon="23.364977"><ele>2691.9</ele><time>2026-03-02T09:14:36.000Z</time></trkpt>
<trkpt lat="42.169883" lon="23.364975"><ele>2691.9</ele><time>2026-03-02T09:14:37.000Z</time></trkpt>
<trkpt lat="42.169884" lon="23.364972"><ele>2691.9</ele><time>2026-03-02T09:14:38.000Z</time></trkpt>
<trkpt lat="42.169886" lon="23.36497"><ele>2691.9</ele><time>2026-03-02T09:14:39.000Z</time></trkpt>
<trkpt lat="42.169886" lon="23.364968"><ele>2691.9</ele><time>2026-03-02T09:14:40.000Z</time></trkpt>
<trkpt lat="42.169886" lon="23.364966"><ele>2691.9</ele><time>2026-03-02T09:14:41.000Z</time></trkpt>
<trkpt lat="42.169886" lon="23.364968"><ele>2691.9</ele><time>2026-03-02T09:14:42.000Z</time></trkpt>
<trkpt lat="42.169886" lon="23.36497"><ele>2691.9</ele><time>2026-03-02T09:14:43.000Z</time></trkpt>
<trkpt lat="42.169885" lon="23.364973"><ele>2691.9</ele><time>2026-03-02T09:14:44.000Z</time></trkpt>
<trkpt lat="42.169885" lon="23.364975"><ele>2691.8</ele><time>2026-03-02T09:14:45.000Z</time></trkpt>
<trkpt lat="42.169885" lon="23.364977"><ele>2691.8</ele><time>2026-03-02T09:14:46.000Z</time></trkpt>
<trkpt lat="42.169885" lon="23.364978"><ele>2691.8</ele><time>2026-03-02T09:14:47.000Z</time></trkpt>
<trkpt lat="42.169884" lon="23.364978"><ele>2691.8</ele><time>2026-03-02T09:14:48.000Z</time></trkpt>
<trkpt lat="42.169884" lon="23.364978"><ele>2691.8</ele><time>2026-03-02T09:14:49.000Z</time></trkpt>
<trkpt lat="42.169884" lon="23.364979"><ele>2691.9</ele><time>2026-03-02T09:14:50.000Z</time></trkpt>
<trkpt lat="42.169884" lon="23.364979"><ele>2691.9</ele><time>2026-03-02T09:14:51.000Z</time></trkpt>
<trkpt lat="42.169884" lon="23.364979"><ele>2691.9</ele><time>2026-03-02T09:14:52.000Z</time></trkpt>
<trkpt lat="42.169884" lon="23.364979"><ele>2691.9</ele><time>2026-03-02T09:14:53.000Z</time></trkpt>
<trkpt lat="42.169884" lon="23.364979"><ele>2691.9</ele><time>2026-03-02T09:14:54.000Z</time></trkpt>
<trkpt lat="42.169884" lon="23.364979"><ele>2692</ele><time>2026-03-02T09:14:55.000Z</time></trkpt>
<trkpt lat="42.169884" lon="23.364979"><ele>2692</ele><time>2026-03-02T09:14:56.000Z</time></trkpt>
<trkpt lat="42.169884" lon="23.364979"><ele>2692</ele><time>2026-03-02T09:14:57.000Z</time></trkpt>
<trkpt lat="42.169884" lon="23.364979"><ele>2692</ele><time>2026-03-02T09:14:58.000Z</time></trkpt>
<trkpt lat="42.169884" lon="23.364979"><ele>2692</ele><time>2026-03-02T09:14:59.000Z</time></trkpt>
<trkpt lat="42.169884" lon="23.364979"><ele>2692.1</ele><time>2026-03-02T09:15:00.000Z</time></trkpt>
<trkpt lat="42.169884" lon="23.364979"><ele>2692.1</ele><time>2026-03-02T09:15:01.000Z</time></trkpt>
<trkpt lat="42.169884" lon="23.364979"><ele>2692.1</ele><time>2026-03-02T09:15:02.000Z</time></trkpt>
<trkpt lat="42.169884" lon="23.364979"><ele>2692.1</ele><time>2026-03-02T09:15:03.000Z</time></trkpt>
<trkpt lat="42.169884" lon="23.364979"><ele>2692.1</ele><time>2026-03-02T09:15:04.000Z</time></trkpt>
<trkpt lat="42.169884" lon="23.364978"><ele>2692.2</ele><time>2026-03-02T09:15:05.000Z</time></trkpt>
<trkpt lat="42.169884" lon="23.364978"><ele>2692.2</ele><time>2026-03-02T09:15:06.000Z</time></trkpt>
<trkpt lat="42.169884" lon="23.364978"><ele>2692.2</ele><time>2026-03-02T09:15:07.000Z</time></trkpt>
<trkpt lat="42.169884" lon="23.364977"><ele>2692.2</ele><time>2026-03-02T09:15:08.000Z</time></trkpt>
<trkpt lat="42.169883" lon="23.364977"><ele>2692.2</ele><time>2026-03-02T09:15:09.000Z</time></trkpt>
<trkpt lat="42.169883" lon="23.364977"><ele>2692.3</ele><time>2026-03-02T09:15:10.000Z</time></trkpt>
<trkpt lat="42.169884" lon="23.364977"><ele>2692.3</ele><time>2026-03-02T09:15:11.000Z</time></trkpt>
<trkpt lat="42.169884" lon="23.364977"><ele>2692.3</ele><time>2026-03-02T09:15:12.000Z</time></trkpt>
<trkpt lat="42.169884" lon="23.364977"><ele>2692.3</ele><time>2026-03-02T09:15:13.000Z</time></trkpt>
<trkpt lat="42.169884" lon="23.364976"><ele>2692.3</ele><time>2026-03-02T09:15:14.000Z</time></trkpt>
<trkpt lat="42.169884" lon="23.364976"><ele>2692.7</ele><time>2026-03-02T09:15:15.000Z</time></trkpt>
<trkpt lat="42.169884" lon="23.364976"><ele>2692.7</ele><time>2026-03-02T09:15:16.000Z</time></trkpt>
<trkpt lat="42.169884" lon="23.364976"><ele>2692.7</ele><time>2026-03-02T09:15:17.000Z</time></trkpt>
<trkpt lat="42.169884" lon="23.364976"><ele>2692.7</ele><time>2026-03-02T09:15:18.000Z</time></trkpt>
<trkpt lat="42.169884" lon="23.364976"><ele>2692.7</ele><time>2026-03-02T09:15:19.000Z</time></trkpt>
<trkpt lat="42.169884" lon="23.364976"><ele>2693</ele><time>2026-03-02T09:15:20.000Z</time></trkpt>
<trkpt lat="42.169884" lon="23.364976"><ele>2693</ele><time>2026-03-02T09:15:21.000Z</time></trkpt>
<trkpt lat="42.169884" lon="23.364976"><ele>2693</ele><time>2026-03-02T09:15:22.000Z</time></trkpt>
<trkpt lat="42.169884" lon="23.364976"><ele>2693</ele><time>2026-03-02T09:15:23.000Z</time></trkpt>
<trkpt lat="42.169884" lon="23.364976"><ele>2693</ele><time>2026-03-02T09:15:24.000Z</time></trkpt>
<trkpt lat="42.169884" lon="23.364976"><ele>2693</ele><time>2026-03-02T09:15:25.000Z</time></trkpt>
<trkpt lat="42.169884" lon="23.364976"><ele>2693</ele><time>2026-03-02T09:15:26.000Z</time></trkpt>
<trkpt lat="42.169884" lon="23.364976"><ele>2693</ele><time>2026-03-02T09:15:27.000Z</time></trkpt>
<trkpt lat="42.169884" lon="23.364976"><ele>2693</ele><time>2026-03-02T09:15:28.000Z</time></trkpt>
<trkpt lat="42.169884" lon="23.364975"><ele>2693</ele><time>2026-03-02T09:15:29.000Z</time></trkpt>
<trkpt lat="42.169884" lon="23.364975"><ele>2692.8</ele><time>2026-03-02T09:15:30.000Z</time></trkpt>
<trkpt lat="42.169884" lon="23.364974"><ele>2692.8</ele><time>2026-03-02T09:15:31.000Z</time></trkpt>
<trkpt lat="42.169884" lon="23.364974"><ele>2692.8</ele><time>2026-03-02T09:15:32.000Z</time></trkpt>
<trkpt lat="42.169884" lon="23.364974"><ele>2692.8</ele><time>2026-03-02T09:15:33.000Z</time></trkpt>
<trkpt lat="42.169884" lon="23.364974"><ele>2692.8</ele><time>2026-03-02T09:15:34.000Z</time></trkpt>
<trkpt lat="42.169884" lon="23.364974"><ele>2692.5</ele><time>2026-03-02T09:15:35.000Z</time></trkpt>
<trkpt lat="42.169884" lon="23.364973"><ele>2692.5</ele><time>2026-03-02T09:15:36.000Z</time></trkpt>
<trkpt lat="42.169884" lon="23.364972"><ele>2692.5</ele><time>2026-03-02T09:15:37.000Z</time></trkpt>
<trkpt lat="42.169885" lon="23.364971"><ele>2692.5</ele><time>2026-03-02T09:15:38.000Z</time></trkpt>
<trkpt lat="42.169886" lon="23.36497"><ele>2692.5</ele><time>2026-03-02T09:15:39.000Z</time></trkpt>
<trkpt lat="42.169889" lon="23.364968"><ele>2692.4</ele><time>2026-03-02T09:15:40.000Z</time></trkpt>
<trkpt lat="42.169893" lon="23.364968"><ele>2692.4</ele><time>2026-03-02T09:15:41.000Z</time></trkpt>
<trkpt lat="42.169898" lon="23.364966"><ele>2692.4</ele><time>2026-03-02T09:15:42.000Z</time></trkpt>
<trkpt lat="42.169904" lon="23.364962"><ele>2692.4</ele><time>2026-03-02T09:15:43.000Z</time></trkpt>
<trkpt lat="42.16991" lon="23.364956"><ele>2692.4</ele><time>2026-03-02T09:15:44.000Z</time></trkpt>
<trkpt lat="42.169913" lon="23.364946"><ele>2692.3</ele><time>2026-03-02T09:15:45.000Z</time></trkpt>
<trkpt lat="42.169915" lon="23.364935"><ele>2692.3</ele><time>2026-03-02T09:15:46.000Z</time></trkpt>
<trkpt lat="42.169917" lon="23.364922"><ele>2692.3</ele><time>2026-03-02T09:15:47.000Z</time></trkpt>
<trkpt lat="42.169917" lon="23.364908"><ele>2692.3</ele><time>2026-03-02T09:15:48.000Z</time></trkpt>
<trkpt lat="42.169918" lon="23.364896"><ele>2692.3</ele><time>2026-03-02T09:15:49.000Z</time></trkpt>
<trkpt lat="42.169919" lon="23.364885"><ele>2692.2</ele><time>2026-03-02T09:15:50.000Z</time></trkpt>
<trkpt lat="42.169921" lon="23.364878"><ele>2692.2</ele><time>2026-03-02T09:15:51.000Z</time></trkpt>
<trkpt lat="42.169923" lon="23.364872"><ele>2692.2</ele><time>2026-03-02T09:15:52.000Z</time></trkpt>
<trkpt lat="42.169924" lon="23.364869"><ele>2692.2</ele><time>2026-03-02T09:15:53.000Z</time></trkpt>
<trkpt lat="42.169925" lon="23.364868"><ele>2692.2</ele><time>2026-03-02T09:15:54.000Z</time></trkpt>
<trkpt lat="42.169926" lon="23.364867"><ele>2692</ele><time>2026-03-02T09:15:55.000Z</time></trkpt>
<trkpt lat="42.169926" lon="23.364866"><ele>2692</ele><time>2026-03-02T09:15:56.000Z</time></trkpt>
<trkpt lat="42.169926" lon="23.364865"><ele>2692</ele><time>2026-03-02T09:15:57.000Z</time></trkpt>
<trkpt lat="42.169926" lon="23.364865"><ele>2692</ele><time>2026-03-02T09:15:58.000Z</time></trkpt>
<trkpt lat="42.169926" lon="23.364865"><ele>2692</ele><time>2026-03-02T09:15:59.000Z</time></trkpt>
<trkpt lat="42.169926" lon="23.364865"><ele>2691.5</ele><time>2026-03-02T09:16:00.000Z</time></trkpt>
<trkpt lat="42.169926" lon="23.364865"><ele>2691.5</ele><time>2026-03-02T09:16:01.000Z</time></trkpt>
<trkpt lat="42.169926" lon="23.364865"><ele>2691.5</ele><time>2026-03-02T09:16:02.000Z</time></trkpt>
<trkpt lat="42.169926" lon="23.364864"><ele>2691.5</ele><time>2026-03-02T09:16:03.000Z</time></trkpt>
<trkpt lat="42.169926" lon="23.364864"><ele>2691.5</ele><time>2026-03-02T09:16:04.000Z</time></trkpt>
<trkpt lat="42.169926" lon="23.364864"><ele>2691.3</ele><time>2026-03-02T09:16:05.000Z</time></trkpt>
<trkpt lat="42.169926" lon="23.364864"><ele>2691.3</ele><time>2026-03-02T09:16:06.000Z</time></trkpt>
<trkpt lat="42.169926" lon="23.364864"><ele>2691.3</ele><time>2026-03-02T09:16:07.000Z</time></trkpt>
<trkpt lat="42.169926" lon="23.364864"><ele>2691.3</ele><time>2026-03-02T09:16:08.000Z</time></trkpt>
<trkpt lat="42.169926" lon="23.364864"><ele>2691.3</ele><time>2026-03-02T09:16:09.000Z</time></trkpt>
<trkpt lat="42.169926" lon="23.364864"><ele>2691.3</ele><time>2026-03-02T09:16:10.000Z</time></trkpt>
<trkpt lat="42.169926" lon="23.364864"><ele>2691.3</ele><time>2026-03-02T09:16:11.000Z</time></trkpt>
<trkpt lat="42.169926" lon="23.364864"><ele>2691.3</ele><time>2026-03-02T09:16:12.000Z</time></trkpt>
<trkpt lat="42.169926" lon="23.364864"><ele>2691.3</ele><time>2026-03-02T09:16:13.000Z</time></trkpt>
<trkpt lat="42.169926" lon="23.364864"><ele>2691.3</ele><time>2026-03-02T09:16:14.000Z</time></trkpt>
<trkpt lat="42.169926" lon="23.364864"><ele>2691.6</ele><time>2026-03-02T09:16:15.000Z</time></trkpt>
<trkpt lat="42.169926" lon="23.364864"><ele>2691.6</ele><time>2026-03-02T09:16:16.000Z</time></trkpt>
<trkpt lat="42.169926" lon="23.364864"><ele>2691.6</ele><time>2026-03-02T09:16:17.000Z</time></trkpt>
<trkpt lat="42.169926" lon="23.364864"><ele>2691.6</ele><time>2026-03-02T09:16:18.000Z</time></trkpt>
<trkpt lat="42.169926" lon="23.364864"><ele>2691.6</ele><time>2026-03-02T09:16:19.000Z</time></trkpt>
<trkpt lat="42.169926" lon="23.364864"><ele>2691.9</ele><time>2026-03-02T09:16:20.000Z</time></trkpt>
<trkpt lat="42.169926" lon="23.364864"><ele>2691.9</ele><time>2026-03-02T09:16:21.000Z</time></trkpt>
<trkpt lat="42.169926" lon="23.364864"><ele>2691.9</ele><time>2026-03-02T09:16:22.000Z</time></trkpt>
<trkpt lat="42.169926" lon="23.364864"><ele>2691.9</ele><time>2026-03-02T09:16:23.000Z</time></trkpt>
<trkpt lat="42.169926" lon="23.364864"><ele>2691.9</ele><time>2026-03-02T09:16:24.000Z</time></trkpt>
<trkpt lat="42.169926" lon="23.364864"><ele>2691.9</ele><time>2026-03-02T09:16:25.000Z</time></trkpt>
<trkpt lat="42.169926" lon="23.364864"><ele>2691.9</ele><time>2026-03-02T09:16:26.000Z</time></trkpt>
<trkpt lat="42.169926" lon="23.364864"><ele>2691.9</ele><time>2026-03-02T09:16:27.000Z</time></trkpt>
<trkpt lat="42.169926" lon="23.364864"><ele>2691.9</ele><time>2026-03-02T09:16:28.000Z</time></trkpt>
<trkpt lat="42.169926" lon="23.364864"><ele>2691.9</ele><time>2026-03-02T09:16:29.000Z</time></trkpt>
<trkpt lat="42.169926" lon="23.364864"><ele>2691.9</ele><time>2026-03-02T09:16:30.000Z</time></trkpt>
<trkpt lat="42.169926" lon="23.364864"><ele>2691.9</ele><time>2026-03-02T09:16:31.000Z</time></trkpt>
<trkpt lat="42.169926" lon="23.364864"><ele>2691.9</ele><time>2026-03-02T09:16:32.000Z</time></trkpt>
<trkpt lat="42.169926" lon="23.364863"><ele>2691.9</ele><time>2026-03-02T09:16:33.000Z</time></trkpt>
<trkpt lat="42.169926" lon="23.364863"><ele>2691.9</ele><time>2026-03-02T09:16:34.000Z</time></trkpt>
<trkpt lat="42.169926" lon="23.364863"><ele>2691.8</ele><time>2026-03-02T09:16:35.000Z</time></trkpt>
<trkpt lat="42.169926" lon="23.364863"><ele>2691.8</ele><time>2026-03-02T09:16:36.000Z</time></trkpt>
<trkpt lat="42.169926" lon="23.364863"><ele>2691.8</ele><time>2026-03-02T09:16:37.000Z</time></trkpt>
<trkpt lat="42.169926" lon="23.364863"><ele>2691.8</ele><time>2026-03-02T09:16:38.000Z</time></trkpt>
<trkpt lat="42.169926" lon="23.364863"><ele>2691.8</ele><time>2026-03-02T09:16:39.000Z</time></trkpt>
<trkpt lat="42.169926" lon="23.364861"><ele>2691.7</ele><time>2026-03-02T09:16:40.000Z</time></trkpt>
<trkpt lat="42.169927" lon="23.364857"><ele>2691.7</ele><time>2026-03-02T09:16:41.000Z</time></trkpt>
<trkpt lat="42.169927" lon="23.364851"><ele>2691.7</ele><time>2026-03-02T09:16:42.000Z</time></trkpt>
<trkpt lat="42.169929" lon="23.364841"><ele>2691.7</ele><time>2026-03-02T09:16:43.000Z</time></trkpt>
<trkpt lat="42.16993" lon="23.36483"><ele>2691.7</ele><time>2026-03-02T09:16:44.000Z</time></trkpt>
<trkpt lat="42.169932" lon="23.364818"><ele>2691.5</ele><time>2026-03-02T09:16:45.000Z</time></trkpt>
<trkpt lat="42.169933" lon="23.364805"><ele>2691.5</ele><time>2026-03-02T09:16:46.000Z</time></trkpt>
<trkpt lat="42.169934" lon="23.364791"><ele>2691.5</ele><time>2026-03-02T09:16:47.000Z</time></trkpt>
<trkpt lat="42.169936" lon="23.364778"><ele>2691.5</ele><time>2026-03-02T09:16:48.000Z</time></trkpt>
<trkpt lat="42.169937" lon="23.364766"><ele>2691.5</ele><time>2026-03-02T09:16:49.000Z</time></trkpt>
<trkpt lat="42.169938" lon="23.364755"><ele>2691.5</ele><time>2026-03-02T09:16:50.000Z</time></trkpt>
<trkpt lat="42.169938" lon="23.364744"><ele>2691.5</ele><time>2026-03-02T09:16:51.000Z</time></trkpt>
<trkpt lat="42.169939" lon="23.364737"><ele>2691.5</ele><time>2026-03-02T09:16:52.000Z</time></trkpt>
<trkpt lat="42.169939" lon="23.364728"><ele>2691.5</ele><time>2026-03-02T09:16:53.000Z</time></trkpt>
<trkpt lat="42.169939" lon="23.364718"><ele>2691.5</ele><time>2026-03-02T09:16:54.000Z</time></trkpt>
<trkpt lat="42.169939" lon="23.364708"><ele>2691.6</ele><time>2026-03-02T09:16:55.000Z</time></trkpt>
<trkpt lat="42.16994" lon="23.364697"><ele>2691.6</ele><time>2026-03-02T09:16:56.000Z</time></trkpt>
<trkpt lat="42.16994" lon="23.364684"><ele>2691.6</ele><time>2026-03-02T09:16:57.000Z</time></trkpt>
<trkpt lat="42.16994" lon="23.364672"><ele>2691.6</ele><time>2026-03-02T09:16:58.000Z</time></trkpt>
<trkpt lat="42.169939" lon="23.364659"><ele>2691.6</ele><time>2026-03-02T09:16:59.000Z</time></trkpt>
<trkpt lat="42.169939" lon="23.364649"><ele>2691.9</ele><time>2026-03-02T09:17:00.000Z</time></trkpt>
<trkpt lat="42.169939" lon="23.364639"><ele>2691.9</ele><time>2026-03-02T09:17:01.000Z</time></trkpt>
<trkpt lat="42.169939" lon="23.364629"><ele>2691.9</ele><time>2026-03-02T09:17:02.000Z</time></trkpt>
<trkpt lat="42.16994" lon="23.364621"><ele>2691.9</ele><time>2026-03-02T09:17:03.000Z</time></trkpt>
<trkpt lat="42.169942" lon="23.364613"><ele>2691.9</ele><time>2026-03-02T09:17:04.000Z</time></trkpt>
<trkpt lat="42.169944" lon="23.364605"><ele>2692.2</ele><time>2026-03-02T09:17:05.000Z</time></trkpt>
<trkpt lat="42.169945" lon="23.364595"><ele>2692.2</ele><time>2026-03-02T09:17:06.000Z</time></trkpt>
<trkpt lat="42.169946" lon="23.364584"><ele>2692.2</ele><time>2026-03-02T09:17:07.000Z</time></trkpt>
<trkpt lat="42.169946" lon="23.364574"><ele>2692.2</ele><time>2026-03-02T09:17:08.000Z</time></trkpt>
<trkpt lat="42.169946" lon="23.364561"><ele>2692.2</ele><time>2026-03-02T09:17:09.000Z</time></trkpt>
<trkpt lat="42.169946" lon="23.364551"><ele>2692.4</ele><time>2026-03-02T09:17:10.000Z</time></trkpt>
<trkpt lat="42.169947" lon="23.364542"><ele>2692.4</ele><time>2026-03-02T09:17:11.000Z</time></trkpt>
<trkpt lat="42.169947" lon="23.364536"><ele>2692.4</ele><time>2026-03-02T09:17:12.000Z</time></trkpt>
<trkpt lat="42.169948" lon="23.364532"><ele>2692.4</ele><time>2026-03-02T09:17:13.000Z</time></trkpt>
<trkpt lat="42.169949" lon="23.364531"><ele>2692.4</ele><time>2026-03-02T09:17:14.000Z</time></trkpt>
<trkpt lat="42.169949" lon="23.364531"><ele>2693.1</ele><time>2026-03-02T09:17:15.000Z</time></trkpt>
<trkpt lat="42.169949" lon="23.364532"><ele>2693.1</ele><time>2026-03-02T09:17:16.000Z</time></trkpt>
<trkpt lat="42.169949" lon="23.364533"><ele>2693.1</ele><time>2026-03-02T09:17:17.000Z</time></trkpt>
<trkpt lat="42.16995" lon="23.364533"><ele>2693.1</ele><time>2026-03-02T09:17:18.000Z</time></trkpt>
<trkpt lat="42.16995" lon="23.364534"><ele>2693.1</ele><time>2026-03-02T09:17:19.000Z</time></trkpt>
<trkpt lat="42.169951" lon="23.364534"><ele>2694</ele><time>2026-03-02T09:17:20.000Z</time></trkpt>
<trkpt lat="42.16995" lon="23.364534"><ele>2694</ele><time>2026-03-02T09:17:21.000Z</time></trkpt>
<trkpt lat="42.16995" lon="23.364535"><ele>2694</ele><time>2026-03-02T09:17:22.000Z</time></trkpt>
<trkpt lat="42.169949" lon="23.364535"><ele>2694</ele><time>2026-03-02T09:17:23.000Z</time></trkpt>
<trkpt lat="42.169949" lon="23.364534"><ele>2694</ele><time>2026-03-02T09:17:24.000Z</time></trkpt>
<trkpt lat="42.16995" lon="23.36453"><ele>2694.3</ele><time>2026-03-02T09:17:25.000Z</time></trkpt>
<trkpt lat="42.169952" lon="23.364525"><ele>2694.3</ele><time>2026-03-02T09:17:26.000Z</time></trkpt>
<trkpt lat="42.169954" lon="23.364519"><ele>2694.3</ele><time>2026-03-02T09:17:27.000Z</time></trkpt>
<trkpt lat="42.169957" lon="23.36451"><ele>2694.3</ele><time>2026-03-02T09:17:28.000Z</time></trkpt>
<trkpt lat="42.16996" lon="23.364502"><ele>2694.3</ele><time>2026-03-02T09:17:29.000Z</time></trkpt>
<trkpt lat="42.169962" lon="23.364493"><ele>2694.6</ele><time>2026-03-02T09:17:30.000Z</time></trkpt>
<trkpt lat="42.169963" lon="23.364483"><ele>2694.6</ele><time>2026-03-02T09:17:31.000Z</time></trkpt>
<trkpt lat="42.169964" lon="23.364473"><ele>2694.6</ele><time>2026-03-02T09:17:32.000Z</time></trkpt>
<trkpt lat="42.169964" lon="23.364463"><ele>2694.6</ele><time>2026-03-02T09:17:33.000Z</time></trkpt>
<trkpt lat="42.169963" lon="23.364454"><ele>2694.6</ele><time>2026-03-02T09:17:34.000Z</time></trkpt>
<trkpt lat="42.169963" lon="23.364444"><ele>2695</ele><time>2026-03-02T09:17:35.000Z</time></trkpt>
<trkpt lat="42.169963" lon="23.364435"><ele>2695</ele><time>2026-03-02T09:17:36.000Z</time></trkpt>
<trkpt lat="42.169963" lon="23.364427"><ele>2695</ele><time>2026-03-02T09:17:37.000Z</time></trkpt>
<trkpt lat="42.169964" lon="23.364418"><ele>2695</ele><time>2026-03-02T09:17:38.000Z</time></trkpt>
<trkpt lat="42.169965" lon="23.364411"><ele>2695</ele><time>2026-03-02T09:17:39.000Z</time></trkpt>
<trkpt lat="42.169965" lon="23.364407"><ele>2695.4</ele><time>2026-03-02T09:17:40.000Z</time></trkpt>
<trkpt lat="42.169965" lon="23.364404"><ele>2695.4</ele><time>2026-03-02T09:17:41.000Z</time></trkpt>
<trkpt lat="42.169965" lon="23.364404"><ele>2695.4</ele><time>2026-03-02T09:17:42.000Z</time></trkpt>
<trkpt lat="42.169964" lon="23.364405"><ele>2695.4</ele><time>2026-03-02T09:17:43.000Z</time></trkpt>
<trkpt lat="42.169964" lon="23.364406"><ele>2695.4</ele><time>2026-03-02T09:17:44.000Z</time></trkpt>
<trkpt lat="42.169963" lon="23.364407"><ele>2696.4</ele><time>2026-03-02T09:17:45.000Z</time></trkpt>
<trkpt lat="42.169963" lon="23.364407"><ele>2696.4</ele><time>2026-03-02T09:17:46.000Z</time></trkpt>
<trkpt lat="42.169963" lon="23.364406"><ele>2696.4</ele><time>2026-03-02T09:17:47.000Z</time></trkpt>
<trkpt lat="42.169963" lon="23.364405"><ele>2696.4</ele><time>2026-03-02T09:17:48.000Z</time></trkpt>
<trkpt lat="42.169963" lon="23.364405"><ele>2696.4</ele><time>2026-03-02T09:17:49.000Z</time></trkpt>
<trkpt lat="42.169963" lon="23.364404"><ele>2697.3</ele><time>2026-03-02T09:17:50.000Z</time></trkpt>
<trkpt lat="42.169964" lon="23.364405"><ele>2697.3</ele><time>2026-03-02T09:17:51.000Z</time></trkpt>
<trkpt lat="42.169965" lon="23.364405"><ele>2697.3</ele><time>2026-03-02T09:17:52.000Z</time></trkpt>
<trkpt lat="42.169966" lon="23.364406"><ele>2697.3</ele><time>2026-03-02T09:17:53.000Z</time></trkpt>
<trkpt lat="42.169967" lon="23.364407"><ele>2697.3</ele><time>2026-03-02T09:17:54.000Z</time></trkpt>
<trkpt lat="42.169967" lon="23.364407"><ele>2697.5</ele><time>2026-03-02T09:17:55.000Z</time></trkpt>
<trkpt lat="42.169967" lon="23.364407"><ele>2697.5</ele><time>2026-03-02T09:17:56.000Z</time></trkpt>
<trkpt lat="42.169968" lon="23.364407"><ele>2697.5</ele><time>2026-03-02T09:17:57.000Z</time></trkpt>
<trkpt lat="42.169968" lon="23.364406"><ele>2697.5</ele><time>2026-03-02T09:17:58.000Z</time></trkpt>
<trkpt lat="42.169968" lon="23.364406"><ele>2697.5</ele><time>2026-03-02T09:17:59.000Z</time></trkpt>
<trkpt lat="42.169968" lon="23.364405"><ele>2697.5</ele><time>2026-03-02T09:18:00.000Z</time></trkpt>
<trkpt lat="42.169968" lon="23.364404"><ele>2697.5</ele><time>2026-03-02T09:18:01.000Z</time></trkpt>
<trkpt lat="42.169968" lon="23.364404"><ele>2697.5</ele><time>2026-03-02T09:18:02.000Z</time></trkpt>
<trkpt lat="42.169969" lon="23.364404"><ele>2697.5</ele><time>2026-03-02T09:18:03.000Z</time></trkpt>
<trkpt lat="42.169969" lon="23.364404"><ele>2697.5</ele><time>2026-03-02T09:18:04.000Z</time></trkpt>
<trkpt lat="42.169969" lon="23.364404"><ele>2697.3</ele><time>2026-03-02T09:18:05.000Z</time></trkpt>
<trkpt lat="42.16997" lon="23.364402"><ele>2697.3</ele><time>2026-03-02T09:18:06.000Z</time></trkpt>
<trkpt lat="42.169971" lon="23.364399"><ele>2697.3</ele><time>2026-03-02T09:18:07.000Z</time></trkpt>
<trkpt lat="42.169971" lon="23.364395"><ele>2697.3</ele><time>2026-03-02T09:18:08.000Z</time></trkpt>
<trkpt lat="42.169971" lon="23.364391"><ele>2697.3</ele><time>2026-03-02T09:18:09.000Z</time></trkpt>
<trkpt lat="42.169971" lon="23.364386"><ele>2697.3</ele><time>2026-03-02T09:18:10.000Z</time></trkpt>
<trkpt lat="42.16997" lon="23.364383"><ele>2697.3</ele><time>2026-03-02T09:18:11.000Z</time></trkpt>
<trkpt lat="42.169969" lon="23.364381"><ele>2697.3</ele><time>2026-03-02T09:18:12.000Z</time></trkpt>
<trkpt lat="42.169969" lon="23.36438"><ele>2697.3</ele><time>2026-03-02T09:18:13.000Z</time></trkpt>
<trkpt lat="42.169969" lon="23.36438"><ele>2697.3</ele><time>2026-03-02T09:18:14.000Z</time></trkpt>
<trkpt lat="42.169968" lon="23.364379"><ele>2697.2</ele><time>2026-03-02T09:18:15.000Z</time></trkpt>
<trkpt lat="42.169969" lon="23.364379"><ele>2697.2</ele><time>2026-03-02T09:18:16.000Z</time></trkpt>
<trkpt lat="42.16997" lon="23.364377"><ele>2697.2</ele><time>2026-03-02T09:18:17.000Z</time></trkpt>
<trkpt lat="42.169971" lon="23.364372"><ele>2697.2</ele><time>2026-03-02T09:18:18.000Z</time></trkpt>
<trkpt lat="42.169974" lon="23.364367"><ele>2697.2</ele><time>2026-03-02T09:18:19.000Z</time></trkpt>
<trkpt lat="42.169978" lon="23.364359"><ele>2697</ele><time>2026-03-02T09:18:20.000Z</time></trkpt>
<trkpt lat="42.169982" lon="23.36435"><ele>2697</ele><time>2026-03-02T09:18:21.000Z</time></trkpt>
<trkpt lat="42.169985" lon="23.364341"><ele>2697</ele><time>2026-03-02T09:18:22.000Z</time></trkpt>
<trkpt lat="42.169988" lon="23.364332"><ele>2697</ele><time>2026-03-02T09:18:23.000Z</time></trkpt>
<trkpt lat="42.169991" lon="23.364322"><ele>2697</ele><time>2026-03-02T09:18:24.000Z</time></trkpt>
<trkpt lat="42.169993" lon="23.364313"><ele>2696.9</ele><time>2026-03-02T09:18:25.000Z</time></trkpt>
<trkpt lat="42.169994" lon="23.364305"><ele>2696.9</ele><time>2026-03-02T09:18:26.000Z</time></trkpt>
<trkpt lat="42.169996" lon="23.364296"><ele>2696.9</ele><time>2026-03-02T09:18:27.000Z</time></trkpt>
<trkpt lat="42.169998" lon="23.364288"><ele>2696.9</ele><time>2026-03-02T09:18:28.000Z</time></trkpt>
<trkpt lat="42.17" lon="23.36428"><ele>2696.9</ele><time>2026-03-02T09:18:29.000Z</time></trkpt>
<trkpt lat="42.170002" lon="23.364272"><ele>2696.9</ele><time>2026-03-02T09:18:30.000Z</time></trkpt>
<trkpt lat="42.170005" lon="23.364264"><ele>2696.9</ele><time>2026-03-02T09:18:31.000Z</time></trkpt>
<trkpt lat="42.170008" lon="23.364256"><ele>2696.9</ele><time>2026-03-02T09:18:32.000Z</time></trkpt>
<trkpt lat="42.17001" lon="23.364246"><ele>2696.9</ele><time>2026-03-02T09:18:33.000Z</time></trkpt>
<trkpt lat="42.170013" lon="23.364238"><ele>2696.9</ele><time>2026-03-02T09:18:34.000Z</time></trkpt>
<trkpt lat="42.170014" lon="23.364229"><ele>2697.3</ele><time>2026-03-02T09:18:35.000Z</time></trkpt>
<trkpt lat="42.170015" lon="23.36422"><ele>2697.3</ele><time>2026-03-02T09:18:36.000Z</time></trkpt>
<trkpt lat="42.170016" lon="23.364212"><ele>2697.3</ele><time>2026-03-02T09:18:37.000Z</time></trkpt>
<trkpt lat="42.170016" lon="23.364204"><ele>2697.3</ele><time>2026-03-02T09:18:38.000Z</time></trkpt>
<trkpt lat="42.170018" lon="23.364196"><ele>2697.3</ele><time>2026-03-02T09:18:39.000Z</time></trkpt>
<trkpt lat="42.170021" lon="23.364187"><ele>2697.7</ele><time>2026-03-02T09:18:40.000Z</time></trkpt>
<trkpt lat="42.170025" lon="23.364178"><ele>2697.7</ele><time>2026-03-02T09:18:41.000Z</time></trkpt>
<trkpt lat="42.170029" lon="23.364169"><ele>2697.7</ele><time>2026-03-02T09:18:42.000Z</time></trkpt>
<trkpt lat="42.170033" lon="23.36416"><ele>2697.7</ele><time>2026-03-02T09:18:43.000Z</time></trkpt>
<trkpt lat="42.170037" lon="23.36415"><ele>2697.7</ele><time>2026-03-02T09:18:44.000Z</time></trkpt>
<trkpt lat="42.17004" lon="23.364141"><ele>2698.4</ele><time>2026-03-02T09:18:45.000Z</time></trkpt>
<trkpt lat="42.170044" lon="23.364131"><ele>2698.4</ele><time>2026-03-02T09:18:46.000Z</time></trkpt>
<trkpt lat="42.170048" lon="23.364121"><ele>2698.4</ele><time>2026-03-02T09:18:47.000Z</time></trkpt>
<trkpt lat="42.170052" lon="23.364112"><ele>2698.4</ele><time>2026-03-02T09:18:48.000Z</time></trkpt>
<trkpt lat="42.170056" lon="23.364101"><ele>2698.4</ele><time>2026-03-02T09:18:49.000Z</time></trkpt>
<trkpt lat="42.17006" lon="23.364091"><ele>2698.7</ele><time>2026-03-02T09:18:50.000Z</time></trkpt>
<trkpt lat="42.170065" lon="23.364082"><ele>2698.7</ele><time>2026-03-02T09:18:51.000Z</time></trkpt>
<trkpt lat="42.170069" lon="23.364074"><ele>2698.7</ele><time>2026-03-02T09:18:52.000Z</time></trkpt>
<trkpt lat="42.170075" lon="23.364067"><ele>2698.7</ele><time>2026-03-02T09:18:53.000Z</time></trkpt>
<trkpt lat="42.170081" lon="23.36406"><ele>2698.7</ele><time>2026-03-02T09:18:54.000Z</time></trkpt>
<trkpt lat="42.170086" lon="23.364055"><ele>2698.7</ele><time>2026-03-02T09:18:55.000Z</time></trkpt>
<trkpt lat="42.170093" lon="23.364049"><ele>2698.7</ele><time>2026-03-02T09:18:56.000Z</time></trkpt>
<trkpt lat="42.1701" lon="23.364041"><ele>2698.7</ele><time>2026-03-02T09:18:57.000Z</time></trkpt>
<trkpt lat="42.170107" lon="23.364033"><ele>2698.7</ele><time>2026-03-02T09:18:58.000Z</time></trkpt>
<trkpt lat="42.170113" lon="23.364024"><ele>2698.7</ele><time>2026-03-02T09:18:59.000Z</time></trkpt>
<trkpt lat="42.170119" lon="23.364013"><ele>2698.9</ele><time>2026-03-02T09:19:00.000Z</time></trkpt>
<trkpt lat="42.170124" lon="23.364002"><ele>2698.9</ele><time>2026-03-02T09:19:01.000Z</time></trkpt>
<trkpt lat="42.170129" lon="23.363991"><ele>2698.9</ele><time>2026-03-02T09:19:02.000Z</time></trkpt>
<trkpt lat="42.170135" lon="23.363982"><ele>2698.9</ele><time>2026-03-02T09:19:03.000Z</time></trkpt>
<trkpt lat="42.170142" lon="23.363973"><ele>2698.9</ele><time>2026-03-02T09:19:04.000Z</time></trkpt>
<trkpt lat="42.170149" lon="23.363965"><ele>2699.4</ele><time>2026-03-02T09:19:05.000Z</time></trkpt>
<trkpt lat="42.170156" lon="23.363958"><ele>2699.4</ele><time>2026-03-02T09:19:06.000Z</time></trkpt>
<trkpt lat="42.170162" lon="23.36395"><ele>2699.4</ele><time>2026-03-02T09:19:07.000Z</time></trkpt>
<trkpt lat="42.170168" lon="23.363943"><ele>2699.4</ele><time>2026-03-02T09:19:08.000Z</time></trkpt>
<trkpt lat="42.170173" lon="23.363936"><ele>2699.4</ele><time>2026-03-02T09:19:09.000Z</time></trkpt>
<trkpt lat="42.170176" lon="23.363931"><ele>2699.8</ele><time>2026-03-02T09:19:10.000Z</time></trkpt>
<trkpt lat="42.17018" lon="23.363927"><ele>2699.8</ele><time>2026-03-02T09:19:11.000Z</time></trkpt>
<trkpt lat="42.170182" lon="23.363925"><ele>2699.8</ele><time>2026-03-02T09:19:12.000Z</time></trkpt>
<trkpt lat="42.170183" lon="23.363924"><ele>2699.8</ele><time>2026-03-02T09:19:13.000Z</time></trkpt>
<trkpt lat="42.170183" lon="23.363924"><ele>2699.8</ele><time>2026-03-02T09:19:14.000Z</time></trkpt>
<trkpt lat="42.170183" lon="23.363923"><ele>2700.3</ele><time>2026-03-02T09:19:15.000Z</time></trkpt>
<trkpt lat="42.170182" lon="23.363923"><ele>2700.3</ele><time>2026-03-02T09:19:16.000Z</time></trkpt>
<trkpt lat="42.170181" lon="23.363923"><ele>2700.3</ele><time>2026-03-02T09:19:17.000Z</time></trkpt>
<trkpt lat="42.170181" lon="23.363923"><ele>2700.3</ele><time>2026-03-02T09:19:18.000Z</time></trkpt>
<trkpt lat="42.17018" lon="23.363923"><ele>2700.3</ele><time>2026-03-02T09:19:19.000Z</time></trkpt>
<trkpt lat="42.17018" lon="23.363923"><ele>2700.7</ele><time>2026-03-02T09:19:20.000Z</time></trkpt>
<trkpt lat="42.17018" lon="23.363923"><ele>2700.7</ele><time>2026-03-02T09:19:21.000Z</time></trkpt>
<trkpt lat="42.170181" lon="23.363922"><ele>2700.7</ele><time>2026-03-02T09:19:22.000Z</time></trkpt>
<trkpt lat="42.170182" lon="23.363918"><ele>2700.7</ele><time>2026-03-02T09:19:23.000Z</time></trkpt>
<trkpt lat="42.170185" lon="23.363914"><ele>2700.7</ele><time>2026-03-02T09:19:24.000Z</time></trkpt>
<trkpt lat="42.170188" lon="23.363909"><ele>2700.8</ele><time>2026-03-02T09:19:25.000Z</time></trkpt>
<trkpt lat="42.170191" lon="23.363904"><ele>2700.8</ele><time>2026-03-02T09:19:26.000Z</time></trkpt>
<trkpt lat="42.170193" lon="23.363899"><ele>2700.8</ele><time>2026-03-02T09:19:27.000Z</time></trkpt>
<trkpt lat="42.170194" lon="23.363895"><ele>2700.8</ele><time>2026-03-02T09:19:28.000Z</time></trkpt>
<trkpt lat="42.170196" lon="23.363889"><ele>2700.8</ele><time>2026-03-02T09:19:29.000Z</time></trkpt>
<trkpt lat="42.170198" lon="23.363884"><ele>2700.7</ele><time>2026-03-02T09:19:30.000Z</time></trkpt>
<trkpt lat="42.170199" lon="23.363877"><ele>2700.7</ele><time>2026-03-02T09:19:31.000Z</time></trkpt>
<trkpt lat="42.170201" lon="23.363872"><ele>2700.7</ele><time>2026-03-02T09:19:32.000Z</time></trkpt>
<trkpt lat="42.170202" lon="23.363869"><ele>2700.7</ele><time>2026-03-02T09:19:33.000Z</time></trkpt>
<trkpt lat="42.170203" lon="23.363867"><ele>2700.7</ele><time>2026-03-02T09:19:34.000Z</time></trkpt>
<trkpt lat="42.170204" lon="23.363866"><ele>2700.7</ele><time>2026-03-02T09:19:35.000Z</time></trkpt>
<trkpt lat="42.170203" lon="23.363865"><ele>2700.7</ele><time>2026-03-02T09:19:36.000Z</time></trkpt>
<trkpt lat="42.170204" lon="23.363864"><ele>2700.7</ele><time>2026-03-02T09:19:37.000Z</time></trkpt>
<trkpt lat="42.170204" lon="23.363863"><ele>2700.7</ele><time>2026-03-02T09:19:38.000Z</time></trkpt>
<trkpt lat="42.170204" lon="23.363861"><ele>2700.7</ele><time>2026-03-02T09:19:39.000Z</time></trkpt>
<trkpt lat="42.170206" lon="23.363857"><ele>2700.8</ele><time>2026-03-02T09:19:40.000Z</time></trkpt>
<trkpt lat="42.170209" lon="23.36385"><ele>2700.8</ele><time>2026-03-02T09:19:41.000Z</time></trkpt>
<trkpt lat="42.170212" lon="23.363842"><ele>2700.8</ele><time>2026-03-02T09:19:42.000Z</time></trkpt>
<trkpt lat="42.170216" lon="23.363832"><ele>2700.8</ele><time>2026-03-02T09:19:43.000Z</time></trkpt>
<trkpt lat="42.17022" lon="23.363822"><ele>2700.8</ele><time>2026-03-02T09:19:44.000Z</time></trkpt>
<trkpt lat="42.170223" lon="23.363812"><ele>2701.1</ele><time>2026-03-02T09:19:45.000Z</time></trkpt>
<trkpt lat="42.170226" lon="23.363802"><ele>2701.1</ele><time>2026-03-02T09:19:46.000Z</time></trkpt>
<trkpt lat="42.170229" lon="23.363793"><ele>2701.1</ele><time>2026-03-02T09:19:47.000Z</time></trkpt>
<trkpt lat="42.170232" lon="23.363783"><ele>2701.1</ele><time>2026-03-02T09:19:48.000Z</time></trkpt>
<trkpt lat="42.170235" lon="23.363774"><ele>2701.1</ele><time>2026-03-02T09:19:49.000Z</time></trkpt>
<trkpt lat="42.170239" lon="23.363766"><ele>2701.3</ele><time>2026-03-02T09:19:50.000Z</time></trkpt>
<trkpt lat="42.170242" lon="23.363759"><ele>2701.3</ele><time>2026-03-02T09:19:51.000Z</time></trkpt>
<trkpt lat="42.170246" lon="23.363752"><ele>2701.3</ele><time>2026-03-02T09:19:52.000Z</time></trkpt>
<trkpt lat="42.17025" lon="23.363744"><ele>2701.3</ele><time>2026-03-02T09:19:53.000Z</time></trkpt>
<trkpt lat="42.170254" lon="23.363738"><ele>2701.3</ele><time>2026-03-02T09:19:54.000Z</time></trkpt>
<trkpt lat="42.170259" lon="23.363731"><ele>2701.5</ele><time>2026-03-02T09:19:55.000Z</time></trkpt>
<trkpt lat="42.170264" lon="23.363725"><ele>2701.5</ele><time>2026-03-02T09:19:56.000Z</time></trkpt>
<trkpt lat="42.170269" lon="23.36372"><ele>2701.5</ele><time>2026-03-02T09:19:57.000Z</time></trkpt>
<trkpt lat="42.170275" lon="23.363714"><ele>2701.5</ele><time>2026-03-02T09:19:58.000Z</time></trkpt>
<trkpt lat="42.170281" lon="23.363708"><ele>2701.5</ele><time>2026-03-02T09:19:59.000Z</time></trkpt>
<trkpt lat="42.170285" lon="23.363703"><ele>2702.3</ele><time>2026-03-02T09:20:00.000Z</time></trkpt>
<trkpt lat="42.17029" lon="23.363697"><ele>2702.3</ele><time>2026-03-02T09:20:01.000Z</time></trkpt>
<trkpt lat="42.170294" lon="23.363693"><ele>2702.3</ele><time>2026-03-02T09:20:02.000Z</time></trkpt>
<trkpt lat="42.170298" lon="23.363689"><ele>2702.3</ele><time>2026-03-02T09:20:03.000Z</time></trkpt>
<trkpt lat="42.170301" lon="23.363685"><ele>2702.3</ele><time>2026-03-02T09:20:04.000Z</time></trkpt>
<trkpt lat="42.170305" lon="23.36368"><ele>2703.6</ele><time>2026-03-02T09:20:05.000Z</time></trkpt>
<trkpt lat="42.170308" lon="23.363675"><ele>2703.6</ele><time>2026-03-02T09:20:06.000Z</time></trkpt>
<trkpt lat="42.170313" lon="23.363669"><ele>2703.6</ele><time>2026-03-02T09:20:07.000Z</time></trkpt>
<trkpt lat="42.170317" lon="23.363664"><ele>2703.6</ele><time>2026-03-02T09:20:08.000Z</time></trkpt>
<trkpt lat="42.170321" lon="23.363658"><ele>2703.6</ele><time>2026-03-02T09:20:09.000Z</time></trkpt>
<trkpt lat="42.170325" lon="23.363652"><ele>2704.4</ele><time>2026-03-02T09:20:10.000Z</time></trkpt>
<trkpt lat="42.170329" lon="23.363646"><ele>2704.4</ele><time>2026-03-02T09:20:11.000Z</time></trkpt>
<trkpt lat="42.170332" lon="23.363641"><ele>2704.4</ele><time>2026-03-02T09:20:12.000Z</time></trkpt>
<trkpt lat="42.170337" lon="23.363634"><ele>2704.4</ele><time>2026-03-02T09:20:13.000Z</time></trkpt>
<trkpt lat="42.17034" lon="23.363629"><ele>2704.4</ele><time>2026-03-02T09:20:14.000Z</time></trkpt>
<trkpt lat="42.170343" lon="23.363623"><ele>2705.8</ele><time>2026-03-02T09:20:15.000Z</time></trkpt>
<trkpt lat="42.170346" lon="23.363616"><ele>2705.8</ele><time>2026-03-02T09:20:16.000Z</time></trkpt>
<trkpt lat="42.170349" lon="23.363609"><ele>2705.8</ele><time>2026-03-02T09:20:17.000Z</time></trkpt>
<trkpt lat="42.170351" lon="23.363602"><ele>2705.8</ele><time>2026-03-02T09:20:18.000Z</time></trkpt>
<trkpt lat="42.170353" lon="23.363594"><ele>2705.8</ele><time>2026-03-02T09:20:19.000Z</time></trkpt>
<trkpt lat="42.170355" lon="23.363587"><ele>2707</ele><time>2026-03-02T09:20:20.000Z</time></trkpt>
<trkpt lat="42.170357" lon="23.363581"><ele>2707</ele><time>2026-03-02T09:20:21.000Z</time></trkpt>
<trkpt lat="42.170359" lon="23.363575"><ele>2707</ele><time>2026-03-02T09:20:22.000Z</time></trkpt>
<trkpt lat="42.17036" lon="23.363569"><ele>2707</ele><time>2026-03-02T09:20:23.000Z</time></trkpt>
<trkpt lat="42.170363" lon="23.363562"><ele>2707</ele><time>2026-03-02T09:20:24.000Z</time></trkpt>
<trkpt lat="42.170366" lon="23.363556"><ele>2707.5</ele><time>2026-03-02T09:20:25.000Z</time></trkpt>
<trkpt lat="42.170369" lon="23.363549"><ele>2707.5</ele><time>2026-03-02T09:20:26.000Z</time></trkpt>
<trkpt lat="42.170373" lon="23.363542"><ele>2707.5</ele><time>2026-03-02T09:20:27.000Z</time></trkpt>
<trkpt lat="42.170377" lon="23.363535"><ele>2707.5</ele><time>2026-03-02T09:20:28.000Z</time></trkpt>
<trkpt lat="42.170381" lon="23.363528"><ele>2707.5</ele><time>2026-03-02T09:20:29.000Z</time></trkpt>
<trkpt lat="42.170385" lon="23.363521"><ele>2708.6</ele><time>2026-03-02T09:20:30.000Z</time></trkpt>
<trkpt lat="42.170388" lon="23.363515"><ele>2708.6</ele><time>2026-03-02T09:20:31.000Z</time></trkpt>
<trkpt lat="42.170392" lon="23.363509"><ele>2708.6</ele><time>2026-03-02T09:20:32.000Z</time></trkpt>
<trkpt lat="42.170395" lon="23.363504"><ele>2708.6</ele><time>2026-03-02T09:20:33.000Z</time></trkpt>
<trkpt lat="42.170398" lon="23.363499"><ele>2708.6</ele><time>2026-03-02T09:20:34.000Z</time></trkpt>
<trkpt lat="42.170401" lon="23.363495"><ele>2709.8</ele><time>2026-03-02T09:20:35.000Z</time></trkpt>
<trkpt lat="42.170404" lon="23.36349"><ele>2709.8</ele><time>2026-03-02T09:20:36.000Z</time></trkpt>
<trkpt lat="42.170408" lon="23.363486"><ele>2709.8</ele><time>2026-03-02T09:20:37.000Z</time></trkpt>
<trkpt lat="42.170411" lon="23.36348"><ele>2709.8</ele><time>2026-03-02T09:20:38.000Z</time></trkpt>
<trkpt lat="42.170414" lon="23.363475"><ele>2709.8</ele><time>2026-03-02T09:20:39.000Z</time></trkpt>
<trkpt lat="42.170417" lon="23.363469"><ele>2710.4</ele><time>2026-03-02T09:20:40.000Z</time></trkpt>
<trkpt lat="42.170419" lon="23.363463"><ele>2710.4</ele><time>2026-03-02T09:20:41.000Z</time></trkpt>
<trkpt lat="42.170421" lon="23.363456"><ele>2710.4</ele><time>2026-03-02T09:20:42.000Z</time></trkpt>
<trkpt lat="42.170422" lon="23.36345"><ele>2710.4</ele><time>2026-03-02T09:20:43.000Z</time></trkpt>
<trkpt lat="42.170424" lon="23.363444"><ele>2710.4</ele><time>2026-03-02T09:20:44.000Z</time></trkpt>
<trkpt lat="42.170425" lon="23.363439"><ele>2711.7</ele><time>2026-03-02T09:20:45.000Z</time></trkpt>
<trkpt lat="42.170427" lon="23.363433"><ele>2711.7</ele><time>2026-03-02T09:20:46.000Z</time></trkpt>
<trkpt lat="42.170428" lon="23.363428"><ele>2711.7</ele><time>2026-03-02T09:20:47.000Z</time></trkpt>
<trkpt lat="42.17043" lon="23.363421"><ele>2711.7</ele><time>2026-03-02T09:20:48.000Z</time></trkpt>
<trkpt lat="42.170432" lon="23.363414"><ele>2711.7</ele><time>2026-03-02T09:20:49.000Z</time></trkpt>
<trkpt lat="42.170433" lon="23.363407"><ele>2713</ele><time>2026-03-02T09:20:50.000Z</time></trkpt>
<trkpt lat="42.170435" lon="23.363399"><ele>2713</ele><time>2026-03-02T09:20:51.000Z</time></trkpt>
<trkpt lat="42.170437" lon="23.363391"><ele>2713</ele><time>2026-03-02T09:20:52.000Z</time></trkpt>
<trkpt lat="42.170439" lon="23.363383"><ele>2713</ele><time>2026-03-02T09:20:53.000Z</time></trkpt>
<trkpt lat="42.170441" lon="23.363374"><ele>2713</ele><time>2026-03-02T09:20:54.000Z</time></trkpt>
<trkpt lat="42.170444" lon="23.363365"><ele>2713.7</ele><time>2026-03-02T09:20:55.000Z</time></trkpt>
<trkpt lat="42.170447" lon="23.363357"><ele>2713.7</ele><time>2026-03-02T09:20:56.000Z</time></trkpt>
<trkpt lat="42.17045" lon="23.36335"><ele>2713.7</ele><time>2026-03-02T09:20:57.000Z</time></trkpt>
<trkpt lat="42.170453" lon="23.363343"><ele>2713.7</ele><time>2026-03-02T09:20:58.000Z</time></trkpt>
<trkpt lat="42.170456" lon="23.363336"><ele>2713.7</ele><time>2026-03-02T09:20:59.000Z</time></trkpt>
<trkpt lat="42.170459" lon="23.363328"><ele>2715</ele><time>2026-03-02T09:21:00.000Z</time></trkpt>
<trkpt lat="42.170462" lon="23.36332"><ele>2715</ele><time>2026-03-02T09:21:01.000Z</time></trkpt>
<trkpt lat="42.170464" lon="23.363313"><ele>2715</ele><time>2026-03-02T09:21:02.000Z</time></trkpt>
<trkpt lat="42.170466" lon="23.363307"><ele>2715</ele><time>2026-03-02T09:21:03.000Z</time></trkpt>
<trkpt lat="42.170466" lon="23.363304"><ele>2715</ele><time>2026-03-02T09:21:04.000Z</time></trkpt>
<trkpt lat="42.170466" lon="23.363304"><ele>2716.1</ele><time>2026-03-02T09:21:05.000Z</time></trkpt>
<trkpt lat="42.170465" lon="23.363305"><ele>2716.1</ele><time>2026-03-02T09:21:06.000Z</time></trkpt>
<trkpt lat="42.170465" lon="23.363305"><ele>2716.1</ele><time>2026-03-02T09:21:07.000Z</time></trkpt>
<trkpt lat="42.170464" lon="23.363306"><ele>2716.1</ele><time>2026-03-02T09:21:08.000Z</time></trkpt>
<trkpt lat="42.170464" lon="23.363306"><ele>2716.1</ele><time>2026-03-02T09:21:09.000Z</time></trkpt>
<trkpt lat="42.170464" lon="23.363306"><ele>2716.6</ele><time>2026-03-02T09:21:10.000Z</time></trkpt>
<trkpt lat="42.170465" lon="23.363304"><ele>2716.6</ele><time>2026-03-02T09:21:11.000Z</time></trkpt>
<trkpt lat="42.170465" lon="23.363301"><ele>2716.6</ele><time>2026-03-02T09:21:12.000Z</time></trkpt>
<trkpt lat="42.170466" lon="23.363297"><ele>2716.6</ele><time>2026-03-02T09:21:13.000Z</time></trkpt>
<trkpt lat="42.170466" lon="23.363292"><ele>2716.6</ele><time>2026-03-02T09:21:14.000Z</time></trkpt>
<trkpt lat="42.170465" lon="23.363288"><ele>2717.2</ele><time>2026-03-02T09:21:15.000Z</time></trkpt>
<trkpt lat="42.170464" lon="23.363285"><ele>2717.2</ele><time>2026-03-02T09:21:16.000Z</time></trkpt>
<trkpt lat="42.170463" lon="23.363282"><ele>2717.2</ele><time>2026-03-02T09:21:17.000Z</time></trkpt>
<trkpt lat="42.170461" lon="23.36328"><ele>2717.2</ele><time>2026-03-02T09:21:18.000Z</time></trkpt>
<trkpt lat="42.17046" lon="23.363279"><ele>2717.2</ele><time>2026-03-02T09:21:19.000Z</time></trkpt>
<trkpt lat="42.170459" lon="23.363277"><ele>2717.5</ele><time>2026-03-02T09:21:20.000Z</time></trkpt>
<trkpt lat="42.170459" lon="23.363277"><ele>2717.5</ele><time>2026-03-02T09:21:21.000Z</time></trkpt>
<trkpt lat="42.170459" lon="23.363277"><ele>2717.5</ele><time>2026-03-02T09:21:22.000Z</time></trkpt>
<trkpt lat="42.170458" lon="23.363277"><ele>2717.5</ele><time>2026-03-02T09:21:23.000Z</time></trkpt>
<trkpt lat="42.170458" lon="23.363277"><ele>2717.5</ele><time>2026-03-02T09:21:24.000Z</time></trkpt>
<trkpt lat="42.170458" lon="23.363277"><ele>2717.5</ele><time>2026-03-02T09:21:25.000Z</time></trkpt>
<trkpt lat="42.170458" lon="23.363277"><ele>2717.5</ele><time>2026-03-02T09:21:26.000Z</time></trkpt>
<trkpt lat="42.170458" lon="23.363277"><ele>2717.5</ele><time>2026-03-02T09:21:27.000Z</time></trkpt>
<trkpt lat="42.170458" lon="23.363277"><ele>2717.5</ele><time>2026-03-02T09:21:28.000Z</time></trkpt>
<trkpt lat="42.170458" lon="23.363277"><ele>2717.5</ele><time>2026-03-02T09:21:29.000Z</time></trkpt>
<trkpt lat="42.170458" lon="23.363277"><ele>2717.4</ele><time>2026-03-02T09:21:30.000Z</time></trkpt>
<trkpt lat="42.170458" lon="23.363277"><ele>2717.4</ele><time>2026-03-02T09:21:31.000Z</time></trkpt>
<trkpt lat="42.170458" lon="23.363277"><ele>2717.4</ele><time>2026-03-02T09:21:32.000Z</time></trkpt>
<trkpt lat="42.170458" lon="23.363277"><ele>2717.4</ele><time>2026-03-02T09:21:33.000Z</time></trkpt>
<trkpt lat="42.170458" lon="23.363277"><ele>2717.4</ele><time>2026-03-02T09:21:34.000Z</time></trkpt>
<trkpt lat="42.170458" lon="23.363277"><ele>2717.4</ele><time>2026-03-02T09:21:35.000Z</time></trkpt>
<trkpt lat="42.170458" lon="23.363277"><ele>2717.4</ele><time>2026-03-02T09:21:36.000Z</time></trkpt>
<trkpt lat="42.170458" lon="23.363277"><ele>2717.4</ele><time>2026-03-02T09:21:37.000Z</time></trkpt>
<trkpt lat="42.170458" lon="23.363277"><ele>2717.4</ele><time>2026-03-02T09:21:38.000Z</time></trkpt>
<trkpt lat="42.170458" lon="23.363277"><ele>2717.4</ele><time>2026-03-02T09:21:39.000Z</time></trkpt>
<trkpt lat="42.170458" lon="23.363277"><ele>2717.3</ele><time>2026-03-02T09:21:40.000Z</time></trkpt>
<trkpt lat="42.170458" lon="23.363277"><ele>2717.3</ele><time>2026-03-02T09:21:41.000Z</time></trkpt>
<trkpt lat="42.170458" lon="23.363277"><ele>2717.3</ele><time>2026-03-02T09:21:42.000Z</time></trkpt>
<trkpt lat="42.170458" lon="23.363277"><ele>2717.3</ele><time>2026-03-02T09:21:43.000Z</time></trkpt>
<trkpt lat="42.170458" lon="23.363276"><ele>2717.3</ele><time>2026-03-02T09:21:44.000Z</time></trkpt>
<trkpt lat="42.170458" lon="23.363276"><ele>2717.3</ele><time>2026-03-02T09:21:45.000Z</time></trkpt>
<trkpt lat="42.170458" lon="23.363276"><ele>2717.3</ele><time>2026-03-02T09:21:46.000Z</time></trkpt>
<trkpt lat="42.17046" lon="23.363274"><ele>2717.3</ele><time>2026-03-02T09:21:47.000Z</time></trkpt>
<trkpt lat="42.170462" lon="23.36327"><ele>2717.3</ele><time>2026-03-02T09:21:48.000Z</time></trkpt>
<trkpt lat="42.170464" lon="23.363266"><ele>2717.3</ele><time>2026-03-02T09:21:49.000Z</time></trkpt>
<trkpt lat="42.170467" lon="23.363261"><ele>2717.3</ele><time>2026-03-02T09:21:50.000Z</time></trkpt>
<trkpt lat="42.17047" lon="23.363254"><ele>2717.3</ele><time>2026-03-02T09:21:51.000Z</time></trkpt>
<trkpt lat="42.170473" lon="23.363249"><ele>2717.3</ele><time>2026-03-02T09:21:52.000Z</time></trkpt>
<trkpt lat="42.170477" lon="23.363244"><ele>2717.3</ele><time>2026-03-02T09:21:53.000Z</time></trkpt>
<trkpt lat="42.170481" lon="23.36324"><ele>2717.3</ele><time>2026-03-02T09:21:54.000Z</time></trkpt>
<trkpt lat="42.170484" lon="23.363237"><ele>2717.2</ele><time>2026-03-02T09:21:55.000Z</time></trkpt>
<trkpt lat="42.170486" lon="23.363234"><ele>2717.2</ele><time>2026-03-02T09:21:56.000Z</time></trkpt>
<trkpt lat="42.170488" lon="23.363233"><ele>2717.2</ele><time>2026-03-02T09:21:57.000Z</time></trkpt>
<trkpt lat="42.170488" lon="23.363233"><ele>2717.2</ele><time>2026-03-02T09:21:58.000Z</time></trkpt>
<trkpt lat="42.170487" lon="23.363232"><ele>2717.2</ele><time>2026-03-02T09:21:59.000Z</time></trkpt>
<trkpt lat="42.170487" lon="23.363231"><ele>2716.9</ele><time>2026-03-02T09:22:00.000Z</time></trkpt>
<trkpt lat="42.170485" lon="23.363232"><ele>2716.9</ele><time>2026-03-02T09:22:01.000Z</time></trkpt>
<trkpt lat="42.170485" lon="23.363232"><ele>2716.9</ele><time>2026-03-02T09:22:02.000Z</time></trkpt>
<trkpt lat="42.170484" lon="23.363232"><ele>2716.9</ele><time>2026-03-02T09:22:03.000Z</time></trkpt>
<trkpt lat="42.170484" lon="23.363233"><ele>2716.9</ele><time>2026-03-02T09:22:04.000Z</time></trkpt>
<trkpt lat="42.170484" lon="23.363234"><ele>2716.5</ele><time>2026-03-02T09:22:05.000Z</time></trkpt>
<trkpt lat="42.170485" lon="23.363234"><ele>2716.5</ele><time>2026-03-02T09:22:06.000Z</time></trkpt>
<trkpt lat="42.170485" lon="23.363234"><ele>2716.5</ele><time>2026-03-02T09:22:07.000Z</time></trkpt>
<trkpt lat="42.170486" lon="23.363234"><ele>2716.5</ele><time>2026-03-02T09:22:08.000Z</time></trkpt>
<trkpt lat="42.170487" lon="23.363234"><ele>2716.5</ele><time>2026-03-02T09:22:09.000Z</time></trkpt>
<trkpt lat="42.170487" lon="23.363234"><ele>2716.4</ele><time>2026-03-02T09:22:10.000Z</time></trkpt>
<trkpt lat="42.170487" lon="23.363234"><ele>2716.4</ele><time>2026-03-02T09:22:11.000Z</time></trkpt>
<trkpt lat="42.170486" lon="23.363234"><ele>2716.4</ele><time>2026-03-02T09:22:12.000Z</time></trkpt>
<trkpt lat="42.170486" lon="23.363234"><ele>2716.4</ele><time>2026-03-02T09:22:13.000Z</time></trkpt>
<trkpt lat="42.170486" lon="23.363235"><ele>2716.4</ele><time>2026-03-02T09:22:14.000Z</time></trkpt>
<trkpt lat="42.170486" lon="23.363235"><ele>2716.3</ele><time>2026-03-02T09:22:15.000Z</time></trkpt>
<trkpt lat="42.170486" lon="23.363235"><ele>2716.3</ele><time>2026-03-02T09:22:16.000Z</time></trkpt>
<trkpt lat="42.170486" lon="23.363235"><ele>2716.3</ele><time>2026-03-02T09:22:17.000Z</time></trkpt>
<trkpt lat="42.170487" lon="23.363234"><ele>2716.3</ele><time>2026-03-02T09:22:18.000Z</time></trkpt>
<trkpt lat="42.170489" lon="23.363231"><ele>2716.3</ele><time>2026-03-02T09:22:19.000Z</time></trkpt>
<trkpt lat="42.170491" lon="23.363228"><ele>2716.4</ele><time>2026-03-02T09:22:20.000Z</time></trkpt>
<trkpt lat="42.170493" lon="23.363224"><ele>2716.4</ele><time>2026-03-02T09:22:21.000Z</time></trkpt>
<trkpt lat="42.170494" lon="23.363222"><ele>2716.4</ele><time>2026-03-02T09:22:22.000Z</time></trkpt>
<trkpt lat="42.170496" lon="23.363221"><ele>2716.4</ele><time>2026-03-02T09:22:23.000Z</time></trkpt>
<trkpt lat="42.170497" lon="23.363221"><ele>2716.4</ele><time>2026-03-02T09:22:24.000Z</time></trkpt>
<trkpt lat="42.170498" lon="23.363222"><ele>2716.3</ele><time>2026-03-02T09:22:25.000Z</time></trkpt>
<trkpt lat="42.1705" lon="23.363223"><ele>2716.3</ele><time>2026-03-02T09:22:26.000Z</time></trkpt>
<trkpt lat="42.170502" lon="23.363224"><ele>2716.3</ele><time>2026-03-02T09:22:27.000Z</time></trkpt>
<trkpt lat="42.170504" lon="23.363225"><ele>2716.3</ele><time>2026-03-02T09:22:28.000Z</time></trkpt>
<trkpt lat="42.170505" lon="23.363225"><ele>2716.3</ele><time>2026-03-02T09:22:29.000Z</time></trkpt>
<trkpt lat="42.170505" lon="23.363225"><ele>2716.1</ele><time>2026-03-02T09:22:30.000Z</time></trkpt>
<trkpt lat="42.170506" lon="23.363223"><ele>2716.1</ele><time>2026-03-02T09:22:31.000Z</time></trkpt>
<trkpt lat="42.170508" lon="23.363219"><ele>2716.1</ele><time>2026-03-02T09:22:32.000Z</time></trkpt>
<trkpt lat="42.17051" lon="23.363214"><ele>2716.1</ele><time>2026-03-02T09:22:33.000Z</time></trkpt>
<trkpt lat="42.170512" lon="23.363209"><ele>2716.1</ele><time>2026-03-02T09:22:34.000Z</time></trkpt>
<trkpt lat="42.170514" lon="23.363204"><ele>2715.9</ele><time>2026-03-02T09:22:35.000Z</time></trkpt>
<trkpt lat="42.170515" lon="23.363198"><ele>2715.9</ele><time>2026-03-02T09:22:36.000Z</time></trkpt>
<trkpt lat="42.170517" lon="23.363193"><ele>2715.9</ele><time>2026-03-02T09:22:37.000Z</time></trkpt>
<trkpt lat="42.170519" lon="23.363187"><ele>2715.9</ele><time>2026-03-02T09:22:38.000Z</time></trkpt>
<trkpt lat="42.170522" lon="23.363178"><ele>2715.9</ele><time>2026-03-02T09:22:39.000Z</time></trkpt>
<trkpt lat="42.170526" lon="23.363171"><ele>2715.7</ele><time>2026-03-02T09:22:40.000Z</time></trkpt>
<trkpt lat="42.17053" lon="23.363166"><ele>2715.7</ele><time>2026-03-02T09:22:41.000Z</time></trkpt>
<trkpt lat="42.170532" lon="23.363163"><ele>2715.7</ele><time>2026-03-02T09:22:42.000Z</time></trkpt>
<trkpt lat="42.170534" lon="23.363161"><ele>2715.7</ele><time>2026-03-02T09:22:43.000Z</time></trkpt>
<trkpt lat="42.170534" lon="23.363162"><ele>2715.7</ele><time>2026-03-02T09:22:44.000Z</time></trkpt>
<trkpt lat="42.170535" lon="23.363162"><ele>2715.6</ele><time>2026-03-02T09:22:45.000Z</time></trkpt>
<trkpt lat="42.170535" lon="23.363161"><ele>2715.6</ele><time>2026-03-02T09:22:46.000Z</time></trkpt>
<trkpt lat="42.170535" lon="23.363161"><ele>2715.6</ele><time>2026-03-02T09:22:47.000Z</time></trkpt>
<trkpt lat="42.170535" lon="23.363161"><ele>2715.6</ele><time>2026-03-02T09:22:48.000Z</time></trkpt>
<trkpt lat="42.170535" lon="23.36316"><ele>2715.6</ele><time>2026-03-02T09:22:49.000Z</time></trkpt>
<trkpt lat="42.170535" lon="23.363157"><ele>2715.4</ele><time>2026-03-02T09:22:50.000Z</time></trkpt>
<trkpt lat="42.170537" lon="23.363152"><ele>2715.4</ele><time>2026-03-02T09:22:51.000Z</time></trkpt>
<trkpt lat="42.170539" lon="23.363144"><ele>2715.4</ele><time>2026-03-02T09:22:52.000Z</time></trkpt>
<trkpt lat="42.170542" lon="23.363134"><ele>2715.4</ele><time>2026-03-02T09:22:53.000Z</time></trkpt>
<trkpt lat="42.170545" lon="23.363125"><ele>2715.4</ele><time>2026-03-02T09:22:54.000Z</time></trkpt>
<trkpt lat="42.170548" lon="23.363118"><ele>2715.4</ele><time>2026-03-02T09:22:55.000Z</time></trkpt>
<trkpt lat="42.17055" lon="23.363112"><ele>2715.4</ele><time>2026-03-02T09:22:56.000Z</time></trkpt>
<trkpt lat="42.170552" lon="23.363109"><ele>2715.4</ele><time>2026-03-02T09:22:57.000Z</time></trkpt>
<trkpt lat="42.170554" lon="23.363107"><ele>2715.4</ele><time>2026-03-02T09:22:58.000Z</time></trkpt>
<trkpt lat="42.170554" lon="23.363106"><ele>2715.4</ele><time>2026-03-02T09:22:59.000Z</time></trkpt>
<trkpt lat="42.170555" lon="23.363106"><ele>2715.2</ele><time>2026-03-02T09:23:00.000Z</time></trkpt>
<trkpt lat="42.170556" lon="23.363105"><ele>2715.2</ele><time>2026-03-02T09:23:01.000Z</time></trkpt>
<trkpt lat="42.170556" lon="23.363104"><ele>2715.2</ele><time>2026-03-02T09:23:02.000Z</time></trkpt>
<trkpt lat="42.170557" lon="23.363103"><ele>2715.2</ele><time>2026-03-02T09:23:03.000Z</time></trkpt>
<trkpt lat="42.170557" lon="23.363103"><ele>2715.2</ele><time>2026-03-02T09:23:04.000Z</time></trkpt>
<trkpt lat="42.170558" lon="23.363101"><ele>2715.2</ele><time>2026-03-02T09:23:05.000Z</time></trkpt>
<trkpt lat="42.17056" lon="23.363097"><ele>2715.2</ele><time>2026-03-02T09:23:06.000Z</time></trkpt>
<trkpt lat="42.170563" lon="23.363089"><ele>2715.2</ele><time>2026-03-02T09:23:07.000Z</time></trkpt>
<trkpt lat="42.170567" lon="23.36308"><ele>2715.2</ele><time>2026-03-02T09:23:08.000Z</time></trkpt>
<trkpt lat="42.170571" lon="23.363067"><ele>2715.2</ele><time>2026-03-02T09:23:09.000Z</time></trkpt>
<trkpt lat="42.170577" lon="23.363054"><ele>2715.2</ele><time>2026-03-02T09:23:10.000Z</time></trkpt>
<trkpt lat="42.170582" lon="23.363041"><ele>2715.2</ele><time>2026-03-02T09:23:11.000Z</time></trkpt>
<trkpt lat="42.170587" lon="23.363029"><ele>2715.2</ele><time>2026-03-02T09:23:12.000Z</time></trkpt>
<trkpt lat="42.170594" lon="23.363018"><ele>2715.2</ele><time>2026-03-02T09:23:13.000Z</time></trkpt>
<trkpt lat="42.1706" lon="23.363006"><ele>2715.2</ele><time>2026-03-02T09:23:14.000Z</time></trkpt>
<trkpt lat="42.170607" lon="23.362996"><ele>2715.2</ele><time>2026-03-02T09:23:15.000Z</time></trkpt>
<trkpt lat="42.170613" lon="23.362985"><ele>2715.2</ele><time>2026-03-02T09:23:16.000Z</time></trkpt>
<trkpt lat="42.17062" lon="23.362974"><ele>2715.2</ele><time>2026-03-02T09:23:17.000Z</time></trkpt>
<trkpt lat="42.170626" lon="23.362963"><ele>2715.2</ele><time>2026-03-02T09:23:18.000Z</time></trkpt>
<trkpt lat="42.170633" lon="23.362953"><ele>2715.2</ele><time>2026-03-02T09:23:19.000Z</time></trkpt>
<trkpt lat="42.170639" lon="23.362944"><ele>2715.3</ele><time>2026-03-02T09:23:20.000Z</time></trkpt>
<trkpt lat="42.170645" lon="23.362935"><ele>2715.3</ele><time>2026-03-02T09:23:21.000Z</time></trkpt>
<trkpt lat="42.170652" lon="23.362927"><ele>2715.3</ele><time>2026-03-02T09:23:22.000Z</time></trkpt>
<trkpt lat="42.17066" lon="23.36292"><ele>2715.3</ele><time>2026-03-02T09:23:23.000Z</time></trkpt>
<trkpt lat="42.170667" lon="23.362914"><ele>2715.3</ele><time>2026-03-02T09:23:24.000Z</time></trkpt>
<trkpt lat="42.170675" lon="23.362908"><ele>2715.5</ele><time>2026-03-02T09:23:25.000Z</time></trkpt>
<trkpt lat="42.170684" lon="23.362903"><ele>2715.5</ele><time>2026-03-02T09:23:26.000Z</time></trkpt>
<trkpt lat="42.170694" lon="23.362897"><ele>2715.5</ele><time>2026-03-02T09:23:27.000Z</time></trkpt>
<trkpt lat="42.170702" lon="23.362891"><ele>2715.5</ele><time>2026-03-02T09:23:28.000Z</time></trkpt>
<trkpt lat="42.170712" lon="23.362885"><ele>2715.5</ele><time>2026-03-02T09:23:29.000Z</time></trkpt>
<trkpt lat="42.170722" lon="23.36288"><ele>2715.9</ele><time>2026-03-02T09:23:30.000Z</time></trkpt>
<trkpt lat="42.170732" lon="23.362874"><ele>2715.9</ele><time>2026-03-02T09:23:31.000Z</time></trkpt>
<trkpt lat="42.170741" lon="23.362868"><ele>2715.9</ele><time>2026-03-02T09:23:32.000Z</time></trkpt>
<trkpt lat="42.170751" lon="23.362862"><ele>2715.9</ele><time>2026-03-02T09:23:33.000Z</time></trkpt>
<trkpt lat="42.17076" lon="23.362855"><ele>2715.9</ele><time>2026-03-02T09:23:34.000Z</time></trkpt>
<trkpt lat="42.170768" lon="23.362847"><ele>2716.4</ele><time>2026-03-02T09:23:35.000Z</time></trkpt>
<trkpt lat="42.170777" lon="23.36284"><ele>2716.4</ele><time>2026-03-02T09:23:36.000Z</time></trkpt>
<trkpt lat="42.170786" lon="23.362833"><ele>2716.4</ele><time>2026-03-02T09:23:37.000Z</time></trkpt>
<trkpt lat="42.170795" lon="23.362827"><ele>2716.4</ele><time>2026-03-02T09:23:38.000Z</time></trkpt>
<trkpt lat="42.170805" lon="23.362821"><ele>2716.4</ele><time>2026-03-02T09:23:39.000Z</time></trkpt>
<trkpt lat="42.170815" lon="23.362816"><ele>2716.6</ele><time>2026-03-02T09:23:40.000Z</time></trkpt>
<trkpt lat="42.170825" lon="23.36281"><ele>2716.6</ele><time>2026-03-02T09:23:41.000Z</time></trkpt>
<trkpt lat="42.170835" lon="23.362804"><ele>2716.6</ele><time>2026-03-02T09:23:42.000Z</time></trkpt>
<trkpt lat="42.170845" lon="23.362798"><ele>2716.6</ele><time>2026-03-02T09:23:43.000Z</time></trkpt>
<trkpt lat="42.170855" lon="23.362791"><ele>2716.6</ele><time>2026-03-02T09:23:44.000Z</time></trkpt>
<trkpt lat="42.170865" lon="23.362785"><ele>2716.8</ele><time>2026-03-02T09:23:45.000Z</time></trkpt>
<trkpt lat="42.170875" lon="23.36278"><ele>2716.8</ele><time>2026-03-02T09:23:46.000Z</time></trkpt>
<trkpt lat="42.170886" lon="23.362774"><ele>2716.8</ele><time>2026-03-02T09:23:47.000Z</time></trkpt>
<trkpt lat="42.170897" lon="23.362769"><ele>2716.8</ele><time>2026-03-02T09:23:48.000Z</time></trkpt>
<trkpt lat="42.170908" lon="23.362766"><ele>2716.8</ele><time>2026-03-02T09:23:49.000Z</time></trkpt>
<trkpt lat="42.170919" lon="23.362763"><ele>2716.8</ele><time>2026-03-02T09:23:50.000Z</time></trkpt>
<trkpt lat="42.17093" lon="23.36276"><ele>2716.8</ele><time>2026-03-02T09:23:51.000Z</time></trkpt>
<trkpt lat="42.17094" lon="23.362759"><ele>2716.8</ele><time>2026-03-02T09:23:52.000Z</time></trkpt>
<trkpt lat="42.170951" lon="23.362758"><ele>2716.8</ele><time>2026-03-02T09:23:53.000Z</time></trkpt>
<trkpt lat="42.170961" lon="23.362757"><ele>2716.8</ele><time>2026-03-02T09:23:54.000Z</time></trkpt>
<trkpt lat="42.170972" lon="23.362756"><ele>2716.9</ele><time>2026-03-02T09:23:55.000Z</time></trkpt>
<trkpt lat="42.170983" lon="23.362756"><ele>2716.9</ele><time>2026-03-02T09:23:56.000Z</time></trkpt>
<trkpt lat="42.170994" lon="23.362756"><ele>2716.9</ele><time>2026-03-02T09:23:57.000Z</time></trkpt>
<trkpt lat="42.171006" lon="23.362755"><ele>2716.9</ele><time>2026-03-02T09:23:58.000Z</time></trkpt>
<trkpt lat="42.171017" lon="23.362755"><ele>2716.9</ele><time>2026-03-02T09:23:59.000Z</time></trkpt>
<trkpt lat="42.171027" lon="23.362755"><ele>2717</ele><time>2026-03-02T09:24:00.000Z</time></trkpt>
<trkpt lat="42.171039" lon="23.362754"><ele>2717</ele><time>2026-03-02T09:24:01.000Z</time></trkpt>
<trkpt lat="42.171051" lon="23.362753"><ele>2717</ele><time>2026-03-02T09:24:02.000Z</time></trkpt>
<trkpt lat="42.171064" lon="23.362753"><ele>2717</ele><time>2026-03-02T09:24:03.000Z</time></trkpt>
<trkpt lat="42.171076" lon="23.362753"><ele>2717</ele><time>2026-03-02T09:24:04.000Z</time></trkpt>
<trkpt lat="42.171088" lon="23.362755"><ele>2717.6</ele><time>2026-03-02T09:24:05.000Z</time></trkpt>
<trkpt lat="42.1711" lon="23.362759"><ele>2717.6</ele><time>2026-03-02T09:24:06.000Z</time></trkpt>
<trkpt lat="42.17111" lon="23.362762"><ele>2717.6</ele><time>2026-03-02T09:24:07.000Z</time></trkpt>
<trkpt lat="42.17112" lon="23.362765"><ele>2717.6</ele><time>2026-03-02T09:24:08.000Z</time></trkpt>
<trkpt lat="42.17113" lon="23.362768"><ele>2717.6</ele><time>2026-03-02T09:24:09.000Z</time></trkpt>
<trkpt lat="42.17114" lon="23.36277"><ele>2717.9</ele><time>2026-03-02T09:24:10.000Z</time></trkpt>
<trkpt lat="42.171151" lon="23.362771"><ele>2717.9</ele><time>2026-03-02T09:24:11.000Z</time></trkpt>
<trkpt lat="42.171162" lon="23.362773"><ele>2717.9</ele><time>2026-03-02T09:24:12.000Z</time></trkpt>
<trkpt lat="42.171173" lon="23.362774"><ele>2717.9</ele><time>2026-03-02T09:24:13.000Z</time></trkpt>
<trkpt lat="42.171184" lon="23.362775"><ele>2717.9</ele><time>2026-03-02T09:24:14.000Z</time></trkpt>
<trkpt lat="42.171195" lon="23.362777"><ele>2718.7</ele><time>2026-03-02T09:24:15.000Z</time></trkpt>
<trkpt lat="42.171207" lon="23.362778"><ele>2718.7</ele><time>2026-03-02T09:24:16.000Z</time></trkpt>
<trkpt lat="42.171217" lon="23.36278"><ele>2718.7</ele><time>2026-03-02T09:24:17.000Z</time></trkpt>
<trkpt lat="42.171228" lon="23.362781"><ele>2718.7</ele><time>2026-03-02T09:24:18.000Z</time></trkpt>
<trkpt lat="42.171238" lon="23.362782"><ele>2718.7</ele><time>2026-03-02T09:24:19.000Z</time></trkpt>
<trkpt lat="42.171248" lon="23.362782"><ele>2719.4</ele><time>2026-03-02T09:24:20.000Z</time></trkpt>
<trkpt lat="42.171259" lon="23.362781"><ele>2719.4</ele><time>2026-03-02T09:24:21.000Z</time></trkpt>
<trkpt lat="42.171269" lon="23.362779"><ele>2719.4</ele><time>2026-03-02T09:24:22.000Z</time></trkpt>
<trkpt lat="42.17128" lon="23.362776"><ele>2719.4</ele><time>2026-03-02T09:24:23.000Z</time></trkpt>
<trkpt lat="42.171291" lon="23.362774"><ele>2719.4</ele><time>2026-03-02T09:24:24.000Z</time></trkpt>
<trkpt lat="42.171302" lon="23.362771"><ele>2719.8</ele><time>2026-03-02T09:24:25.000Z</time></trkpt>
<trkpt lat="42.171314" lon="23.362767"><ele>2719.8</ele><time>2026-03-02T09:24:26.000Z</time></trkpt>
<trkpt lat="42.171325" lon="23.362764"><ele>2719.8</ele><time>2026-03-02T09:24:27.000Z</time></trkpt>
<trkpt lat="42.171337" lon="23.362761"><ele>2719.8</ele><time>2026-03-02T09:24:28.000Z</time></trkpt>
<trkpt lat="42.171349" lon="23.362757"><ele>2719.8</ele><time>2026-03-02T09:24:29.000Z</time></trkpt>
<trkpt lat="42.17136" lon="23.362752"><ele>2720.7</ele><time>2026-03-02T09:24:30.000Z</time></trkpt>
<trkpt lat="42.171372" lon="23.362749"><ele>2720.7</ele><time>2026-03-02T09:24:31.000Z</time></trkpt>
<trkpt lat="42.171383" lon="23.362746"><ele>2720.7</ele><time>2026-03-02T09:24:32.000Z</time></trkpt>
<trkpt lat="42.171394" lon="23.362743"><ele>2720.7</ele><time>2026-03-02T09:24:33.000Z</time></trkpt>
<trkpt lat="42.171405" lon="23.362741"><ele>2720.7</ele><time>2026-03-02T09:24:34.000Z</time></trkpt>
<trkpt lat="42.171416" lon="23.362739"><ele>2721.4</ele><time>2026-03-02T09:24:35.000Z</time></trkpt>
<trkpt lat="42.171426" lon="23.362737"><ele>2721.4</ele><time>2026-03-02T09:24:36.000Z</time></trkpt>
<trkpt lat="42.171434" lon="23.362734"><ele>2721.4</ele><time>2026-03-02T09:24:37.000Z</time></trkpt>
<trkpt lat="42.171442" lon="23.362732"><ele>2721.4</ele><time>2026-03-02T09:24:38.000Z</time></trkpt>
<trkpt lat="42.17145" lon="23.362729"><ele>2721.4</ele><time>2026-03-02T09:24:39.000Z</time></trkpt>
<trkpt lat="42.171458" lon="23.362727"><ele>2721.7</ele><time>2026-03-02T09:24:40.000Z</time></trkpt>
<trkpt lat="42.171466" lon="23.362726"><ele>2721.7</ele><time>2026-03-02T09:24:41.000Z</time></trkpt>
<trkpt lat="42.171475" lon="23.362724"><ele>2721.7</ele><time>2026-03-02T09:24:42.000Z</time></trkpt>
<trkpt lat="42.171483" lon="23.362722"><ele>2721.7</ele><time>2026-03-02T09:24:43.000Z</time></trkpt>
<trkpt lat="42.171492" lon="23.362722"><ele>2721.7</ele><time>2026-03-02T09:24:44.000Z</time></trkpt>
<trkpt lat="42.171502" lon="23.36272"><ele>2722.2</ele><time>2026-03-02T09:24:45.000Z</time></trkpt>
<trkpt lat="42.171512" lon="23.362718"><ele>2722.2</ele><time>2026-03-02T09:24:46.000Z</time></trkpt>
<trkpt lat="42.171521" lon="23.362716"><ele>2722.2</ele><time>2026-03-02T09:24:47.000Z</time></trkpt>
<trkpt lat="42.171529" lon="23.362715"><ele>2722.2</ele><time>2026-03-02T09:24:48.000Z</time></trkpt>
<trkpt lat="42.171537" lon="23.362713"><ele>2722.2</ele><time>2026-03-02T09:24:49.000Z</time></trkpt>
<trkpt lat="42.171546" lon="23.362712"><ele>2722.8</ele><time>2026-03-02T09:24:50.000Z</time></trkpt>
<trkpt lat="42.171553" lon="23.362711"><ele>2722.8</ele><time>2026-03-02T09:24:51.000Z</time></trkpt>
<trkpt lat="42.171562" lon="23.362709"><ele>2722.8</ele><time>2026-03-02T09:24:52.000Z</time></trkpt>
<trkpt lat="42.171571" lon="23.362708"><ele>2722.8</ele><time>2026-03-02T09:24:53.000Z</time></trkpt>
<trkpt lat="42.17158" lon="23.362706"><ele>2722.8</ele><time>2026-03-02T09:24:54.000Z</time></trkpt>
<trkpt lat="42.171589" lon="23.362704"><ele>2723.1</ele><time>2026-03-02T09:24:55.000Z</time></trkpt>
<trkpt lat="42.171598" lon="23.362701"><ele>2723.1</ele><time>2026-03-02T09:24:56.000Z</time></trkpt>
<trkpt lat="42.171607" lon="23.362699"><ele>2723.1</ele><time>2026-03-02T09:24:57.000Z</time></trkpt>
<trkpt lat="42.171616" lon="23.362697"><ele>2723.1</ele><time>2026-03-02T09:24:58.000Z</time></trkpt>
<trkpt lat="42.171625" lon="23.362695"><ele>2723.1</ele><time>2026-03-02T09:24:59.000Z</time></trkpt>
<trkpt lat="42.171635" lon="23.362694"><ele>2724</ele><time>2026-03-02T09:25:00.000Z</time></trkpt>
<trkpt lat="42.171645" lon="23.362692"><ele>2724</ele><time>2026-03-02T09:25:01.000Z</time></trkpt>
<trkpt lat="42.171656" lon="23.36269"><ele>2724</ele><time>2026-03-02T09:25:02.000Z</time></trkpt>
<trkpt lat="42.171667" lon="23.36269"><ele>2724</ele><time>2026-03-02T09:25:03.000Z</time></trkpt>
<trkpt lat="42.171679" lon="23.36269"><ele>2724</ele><time>2026-03-02T09:25:04.000Z</time></trkpt>
<trkpt lat="42.17169" lon="23.36269"><ele>2724.8</ele><time>2026-03-02T09:25:05.000Z</time></trkpt>
<trkpt lat="42.171703" lon="23.36269"><ele>2724.8</ele><time>2026-03-02T09:25:06.000Z</time></trkpt>
<trkpt lat="42.171715" lon="23.362691"><ele>2724.8</ele><time>2026-03-02T09:25:07.000Z</time></trkpt>
<trkpt lat="42.171725" lon="23.362691"><ele>2724.8</ele><time>2026-03-02T09:25:08.000Z</time></trkpt>
<trkpt lat="42.171735" lon="23.362691"><ele>2724.8</ele><time>2026-03-02T09:25:09.000Z</time></trkpt>
<trkpt lat="42.171744" lon="23.36269"><ele>2725.1</ele><time>2026-03-02T09:25:10.000Z</time></trkpt>
<trkpt lat="42.171752" lon="23.362689"><ele>2725.1</ele><time>2026-03-02T09:25:11.000Z</time></trkpt>
<trkpt lat="42.171761" lon="23.362687"><ele>2725.1</ele><time>2026-03-02T09:25:12.000Z</time></trkpt>
<trkpt lat="42.17177" lon="23.362685"><ele>2725.1</ele><time>2026-03-02T09:25:13.000Z</time></trkpt>
<trkpt lat="42.17178" lon="23.362683"><ele>2725.1</ele><time>2026-03-02T09:25:14.000Z</time></trkpt>
<trkpt lat="42.17179" lon="23.36268"><ele>2725.4</ele><time>2026-03-02T09:25:15.000Z</time></trkpt>
<trkpt lat="42.1718" lon="23.362678"><ele>2725.4</ele><time>2026-03-02T09:25:16.000Z</time></trkpt>
<trkpt lat="42.17181" lon="23.362675"><ele>2725.4</ele><time>2026-03-02T09:25:17.000Z</time></trkpt>
<trkpt lat="42.171822" lon="23.362672"><ele>2725.4</ele><time>2026-03-02T09:25:18.000Z</time></trkpt>
<trkpt lat="42.171833" lon="23.36267"><ele>2725.4</ele><time>2026-03-02T09:25:19.000Z</time></trkpt>
<trkpt lat="42.171844" lon="23.362668"><ele>2725.5</ele><time>2026-03-02T09:25:20.000Z</time></trkpt>
<trkpt lat="42.171856" lon="23.362666"><ele>2725.5</ele><time>2026-03-02T09:25:21.000Z</time></trkpt>
<trkpt lat="42.171867" lon="23.362664"><ele>2725.5</ele><time>2026-03-02T09:25:22.000Z</time></trkpt>
<trkpt lat="42.171879" lon="23.362663"><ele>2725.5</ele><time>2026-03-02T09:25:23.000Z</time></trkpt>
<trkpt lat="42.171889" lon="23.362661"><ele>2725.5</ele><time>2026-03-02T09:25:24.000Z</time></trkpt>
<trkpt lat="42.1719" lon="23.362659"><ele>2725.6</ele><time>2026-03-02T09:25:25.000Z</time></trkpt>
<trkpt lat="42.17191" lon="23.362658"><ele>2725.6</ele><time>2026-03-02T09:25:26.000Z</time></trkpt>
<trkpt lat="42.171921" lon="23.362657"><ele>2725.6</ele><time>2026-03-02T09:25:27.000Z</time></trkpt>
<trkpt lat="42.171931" lon="23.362655"><ele>2725.6</ele><time>2026-03-02T09:25:28.000Z</time></trkpt>
<trkpt lat="42.171941" lon="23.362654"><ele>2725.6</ele><time>2026-03-02T09:25:29.000Z</time></trkpt>
<trkpt lat="42.171952" lon="23.362653"><ele>2725.9</ele><time>2026-03-02T09:25:30.000Z</time></trkpt>
<trkpt lat="42.171963" lon="23.362651"><ele>2725.9</ele><time>2026-03-02T09:25:31.000Z</time></trkpt>
<trkpt lat="42.171974" lon="23.362649"><ele>2725.9</ele><time>2026-03-02T09:25:32.000Z</time></trkpt>
<trkpt lat="42.171986" lon="23.362648"><ele>2725.9</ele><time>2026-03-02T09:25:33.000Z</time></trkpt>
<trkpt lat="42.171998" lon="23.362647"><ele>2725.9</ele><time>2026-03-02T09:25:34.000Z</time></trkpt>
<trkpt lat="42.17201" lon="23.362646"><ele>2726.3</ele><time>2026-03-02T09:25:35.000Z</time></trkpt>
<trkpt lat="42.172022" lon="23.362645"><ele>2726.3</ele><time>2026-03-02T09:25:36.000Z</time></trkpt>
<trkpt lat="42.172034" lon="23.362646"><ele>2726.3</ele><time>2026-03-02T09:25:37.000Z</time></trkpt>
<trkpt lat="42.172045" lon="23.362646"><ele>2726.3</ele><time>2026-03-02T09:25:38.000Z</time></trkpt>
<trkpt lat="42.172055" lon="23.362647"><ele>2726.3</ele><time>2026-03-02T09:25:39.000Z</time></trkpt>
<trkpt lat="42.172065" lon="23.362648"><ele>2726.5</ele><time>2026-03-02T09:25:40.000Z</time></trkpt>
<trkpt lat="42.172076" lon="23.362648"><ele>2726.5</ele><time>2026-03-02T09:25:41.000Z</time></trkpt>
<trkpt lat="42.172086" lon="23.362647"><ele>2726.5</ele><time>2026-03-02T09:25:42.000Z</time></trkpt>
<trkpt lat="42.172095" lon="23.362645"><ele>2726.5</ele><time>2026-03-02T09:25:43.000Z</time></trkpt>
<trkpt lat="42.172105" lon="23.362642"><ele>2726.5</ele><time>2026-03-02T09:25:44.000Z</time></trkpt>
<trkpt lat="42.172115" lon="23.36264"><ele>2726.8</ele><time>2026-03-02T09:25:45.000Z</time></trkpt>
<trkpt lat="42.172124" lon="23.362638"><ele>2726.8</ele><time>2026-03-02T09:25:46.000Z</time></trkpt>
<trkpt lat="42.172132" lon="23.362636"><ele>2726.8</ele><time>2026-03-02T09:25:47.000Z</time></trkpt>
<trkpt lat="42.172143" lon="23.362635"><ele>2726.8</ele><time>2026-03-02T09:25:48.000Z</time></trkpt>
<trkpt lat="42.172153" lon="23.362633"><ele>2726.8</ele><time>2026-03-02T09:25:49.000Z</time></trkpt>
<trkpt lat="42.172164" lon="23.362631"><ele>2727.1</ele><time>2026-03-02T09:25:50.000Z</time></trkpt>
<trkpt lat="42.172174" lon="23.36263"><ele>2727.1</ele><time>2026-03-02T09:25:51.000Z</time></trkpt>
<trkpt lat="42.172185" lon="23.36263"><ele>2727.1</ele><time>2026-03-02T09:25:52.000Z</time></trkpt>
<trkpt lat="42.172196" lon="23.36263"><ele>2727.1</ele><time>2026-03-02T09:25:53.000Z</time></trkpt>
<trkpt lat="42.172206" lon="23.36263"><ele>2727.1</ele><time>2026-03-02T09:25:54.000Z</time></trkpt>
<trkpt lat="42.172215" lon="23.36263"><ele>2727.2</ele><time>2026-03-02T09:25:55.000Z</time></trkpt>
<trkpt lat="42.172226" lon="23.362628"><ele>2727.2</ele><time>2026-03-02T09:25:56.000Z</time></trkpt>
<trkpt lat="42.172236" lon="23.362626"><ele>2727.2</ele><time>2026-03-02T09:25:57.000Z</time></trkpt>
<trkpt lat="42.172247" lon="23.362623"><ele>2727.2</ele><time>2026-03-02T09:25:58.000Z</time></trkpt>
<trkpt lat="42.172258" lon="23.36262"><ele>2727.2</ele><time>2026-03-02T09:25:59.000Z</time></trkpt>
<trkpt lat="42.17227" lon="23.362619"><ele>2727.3</ele><time>2026-03-02T09:26:00.000Z</time></trkpt>
<trkpt lat="42.172282" lon="23.362617"><ele>2727.3</ele><time>2026-03-02T09:26:01.000Z</time></trkpt>
<trkpt lat="42.172294" lon="23.362617"><ele>2727.3</ele><time>2026-03-02T09:26:02.000Z</time></trkpt>
<trkpt lat="42.172306" lon="23.362616"><ele>2727.3</ele><time>2026-03-02T09:26:03.000Z</time></trkpt>
<trkpt lat="42.172318" lon="23.362614"><ele>2727.3</ele><time>2026-03-02T09:26:04.000Z</time></trkpt>
<trkpt lat="42.17233" lon="23.362613"><ele>2727.4</ele><time>2026-03-02T09:26:05.000Z</time></trkpt>
<trkpt lat="42.172341" lon="23.362611"><ele>2727.4</ele><time>2026-03-02T09:26:06.000Z</time></trkpt>
<trkpt lat="42.172353" lon="23.362608"><ele>2727.4</ele><time>2026-03-02T09:26:07.000Z</time></trkpt>
<trkpt lat="42.172363" lon="23.362607"><ele>2727.4</ele><time>2026-03-02T09:26:08.000Z</time></trkpt>
<trkpt lat="42.172372" lon="23.362606"><ele>2727.4</ele><time>2026-03-02T09:26:09.000Z</time></trkpt>
<trkpt lat="42.172382" lon="23.362605"><ele>2727.4</ele><time>2026-03-02T09:26:10.000Z</time></trkpt>
<trkpt lat="42.172392" lon="23.362603"><ele>2727.4</ele><time>2026-03-02T09:26:11.000Z</time></trkpt>
<trkpt lat="42.172403" lon="23.362601"><ele>2727.4</ele><time>2026-03-02T09:26:12.000Z</time></trkpt>
<trkpt lat="42.172414" lon="23.362599"><ele>2727.4</ele><time>2026-03-02T09:26:13.000Z</time></trkpt>
<trkpt lat="42.172425" lon="23.362596"><ele>2727.4</ele><time>2026-03-02T09:26:14.000Z</time></trkpt>
<trkpt lat="42.172437" lon="23.362593"><ele>2727.3</ele><time>2026-03-02T09:26:15.000Z</time></trkpt>
<trkpt lat="42.172449" lon="23.362591"><ele>2727.3</ele><time>2026-03-02T09:26:16.000Z</time></trkpt>
<trkpt lat="42.17246" lon="23.36259"><ele>2727.3</ele><time>2026-03-02T09:26:17.000Z</time></trkpt>
<trkpt lat="42.172471" lon="23.362589"><ele>2727.3</ele><time>2026-03-02T09:26:18.000Z</time></trkpt>
<trkpt lat="42.172482" lon="23.362588"><ele>2727.3</ele><time>2026-03-02T09:26:19.000Z</time></trkpt>
<trkpt lat="42.172493" lon="23.362587"><ele>2727.1</ele><time>2026-03-02T09:26:20.000Z</time></trkpt>
<trkpt lat="42.172504" lon="23.362586"><ele>2727.1</ele><time>2026-03-02T09:26:21.000Z</time></trkpt>
<trkpt lat="42.172516" lon="23.362585"><ele>2727.1</ele><time>2026-03-02T09:26:22.000Z</time></trkpt>
<trkpt lat="42.172529" lon="23.362582"><ele>2727.1</ele><time>2026-03-02T09:26:23.000Z</time></trkpt>
<trkpt lat="42.172542" lon="23.36258"><ele>2727.1</ele><time>2026-03-02T09:26:24.000Z</time></trkpt>
<trkpt lat="42.172555" lon="23.362579"><ele>2727.1</ele><time>2026-03-02T09:26:25.000Z</time></trkpt>
<trkpt lat="42.172567" lon="23.362577"><ele>2727.1</ele><time>2026-03-02T09:26:26.000Z</time></trkpt>
<trkpt lat="42.172578" lon="23.362574"><ele>2727.1</ele><time>2026-03-02T09:26:27.000Z</time></trkpt>
<trkpt lat="42.17259" lon="23.362571"><ele>2727.1</ele><time>2026-03-02T09:26:28.000Z</time></trkpt>
<trkpt lat="42.172601" lon="23.362568"><ele>2727.1</ele><time>2026-03-02T09:26:29.000Z</time></trkpt>
<trkpt lat="42.172612" lon="23.362565"><ele>2727.3</ele><time>2026-03-02T09:26:30.000Z</time></trkpt>
<trkpt lat="42.172623" lon="23.362563"><ele>2727.3</ele><time>2026-03-02T09:26:31.000Z</time></trkpt>
<trkpt lat="42.172633" lon="23.362561"><ele>2727.3</ele><time>2026-03-02T09:26:32.000Z</time></trkpt>
<trkpt lat="42.172643" lon="23.362558"><ele>2727.3</ele><time>2026-03-02T09:26:33.000Z</time></trkpt>
<trkpt lat="42.172653" lon="23.362556"><ele>2727.3</ele><time>2026-03-02T09:26:34.000Z</time></trkpt>
<trkpt lat="42.172663" lon="23.362555"><ele>2727.7</ele><time>2026-03-02T09:26:35.000Z</time></trkpt>
<trkpt lat="42.172673" lon="23.362553"><ele>2727.7</ele><time>2026-03-02T09:26:36.000Z</time></trkpt>
<trkpt lat="42.172683" lon="23.362552"><ele>2727.7</ele><time>2026-03-02T09:26:37.000Z</time></trkpt>
<trkpt lat="42.172693" lon="23.36255"><ele>2727.7</ele><time>2026-03-02T09:26:38.000Z</time></trkpt>
<trkpt lat="42.172704" lon="23.362549"><ele>2727.7</ele><time>2026-03-02T09:26:39.000Z</time></trkpt>
<trkpt lat="42.172715" lon="23.362547"><ele>2727.9</ele><time>2026-03-02T09:26:40.000Z</time></trkpt>
<trkpt lat="42.172726" lon="23.362546"><ele>2727.9</ele><time>2026-03-02T09:26:41.000Z</time></trkpt>
<trkpt lat="42.172736" lon="23.362544"><ele>2727.9</ele><time>2026-03-02T09:26:42.000Z</time></trkpt>
<trkpt lat="42.172747" lon="23.362543"><ele>2727.9</ele><time>2026-03-02T09:26:43.000Z</time></trkpt>
<trkpt lat="42.172757" lon="23.362541"><ele>2727.9</ele><time>2026-03-02T09:26:44.000Z</time></trkpt>
<trkpt lat="42.172768" lon="23.362539"><ele>2728.2</ele><time>2026-03-02T09:26:45.000Z</time></trkpt>
<trkpt lat="42.172779" lon="23.362536"><ele>2728.2</ele><time>2026-03-02T09:26:46.000Z</time></trkpt>
<trkpt lat="42.172789" lon="23.362534"><ele>2728.2</ele><time>2026-03-02T09:26:47.000Z</time></trkpt>
<trkpt lat="42.1728" lon="23.362531"><ele>2728.2</ele><time>2026-03-02T09:26:48.000Z</time></trkpt>
<trkpt lat="42.17281" lon="23.36253"><ele>2728.2</ele><time>2026-03-02T09:26:49.000Z</time></trkpt>
<trkpt lat="42.172821" lon="23.362528"><ele>2728.5</ele><time>2026-03-02T09:26:50.000Z</time></trkpt>
<trkpt lat="42.172832" lon="23.362528"><ele>2728.5</ele><time>2026-03-02T09:26:51.000Z</time></trkpt>
<trkpt lat="42.172844" lon="23.362528"><ele>2728.5</ele><time>2026-03-02T09:26:52.000Z</time></trkpt>
<trkpt lat="42.172855" lon="23.362528"><ele>2728.5</ele><time>2026-03-02T09:26:53.000Z</time></trkpt>
<trkpt lat="42.172867" lon="23.362527"><ele>2728.5</ele><time>2026-03-02T09:26:54.000Z</time></trkpt>
<trkpt lat="42.172879" lon="23.362526"><ele>2728.7</ele><time>2026-03-02T09:26:55.000Z</time></trkpt>
<trkpt lat="42.17289" lon="23.362524"><ele>2728.7</ele><time>2026-03-02T09:26:56.000Z</time></trkpt>
<trkpt lat="42.1729" lon="23.362521"><ele>2728.7</ele><time>2026-03-02T09:26:57.000Z</time></trkpt>
<trkpt lat="42.172911" lon="23.362519"><ele>2728.7</ele><time>2026-03-02T09:26:58.000Z</time></trkpt>
<trkpt lat="42.172922" lon="23.362518"><ele>2728.7</ele><time>2026-03-02T09:26:59.000Z</time></trkpt>
<trkpt lat="42.172932" lon="23.362515"><ele>2728.9</ele><time>2026-03-02T09:27:00.000Z</time></trkpt>
<trkpt lat="42.172942" lon="23.362514"><ele>2728.9</ele><time>2026-03-02T09:27:01.000Z</time></trkpt>
<trkpt lat="42.172953" lon="23.362513"><ele>2728.9</ele><time>2026-03-02T09:27:02.000Z</time></trkpt>
<trkpt lat="42.172964" lon="23.362512"><ele>2728.9</ele><time>2026-03-02T09:27:03.000Z</time></trkpt>
<trkpt lat="42.172975" lon="23.36251"><ele>2728.9</ele><time>2026-03-02T09:27:04.000Z</time></trkpt>
<trkpt lat="42.172986" lon="23.362508"><ele>2729.2</ele><time>2026-03-02T09:27:05.000Z</time></trkpt>
<trkpt lat="42.172997" lon="23.362507"><ele>2729.2</ele><time>2026-03-02T09:27:06.000Z</time></trkpt>
<trkpt lat="42.173009" lon="23.362505"><ele>2729.2</ele><time>2026-03-02T09:27:07.000Z</time></trkpt>
<trkpt lat="42.173019" lon="23.362503"><ele>2729.2</ele><time>2026-03-02T09:27:08.000Z</time></trkpt>
<trkpt lat="42.173029" lon="23.362503"><ele>2729.2</ele><time>2026-03-02T09:27:09.000Z</time></trkpt>
<trkpt lat="42.173039" lon="23.362502"><ele>2729.3</ele><time>2026-03-02T09:27:10.000Z</time></trkpt>
<trkpt lat="42.173048" lon="23.362501"><ele>2729.3</ele><time>2026-03-02T09:27:11.000Z</time></trkpt>
<trkpt lat="42.173058" lon="23.3625"><ele>2729.3</ele><time>2026-03-02T09:27:12.000Z</time></trkpt>
<trkpt lat="42.173068" lon="23.3625"><ele>2729.3</ele><time>2026-03-02T09:27:13.000Z</time></trkpt>
<trkpt lat="42.173078" lon="23.3625"><ele>2729.3</ele><time>2026-03-02T09:27:14.000Z</time></trkpt>
<trkpt lat="42.173089" lon="23.362499"><ele>2729.5</ele><time>2026-03-02T09:27:15.000Z</time></trkpt>
<trkpt lat="42.1731" lon="23.362498"><ele>2729.5</ele><time>2026-03-02T09:27:16.000Z</time></trkpt>
<trkpt lat="42.173111" lon="23.362499"><ele>2729.5</ele><time>2026-03-02T09:27:17.000Z</time></trkpt>
<trkpt lat="42.173121" lon="23.362499"><ele>2729.5</ele><time>2026-03-02T09:27:18.000Z</time></trkpt>
<trkpt lat="42.173131" lon="23.362502"><ele>2729.5</ele><time>2026-03-02T09:27:19.000Z</time></trkpt>
<trkpt lat="42.17314" lon="23.362505"><ele>2729.7</ele><time>2026-03-02T09:27:20.000Z</time></trkpt>
<trkpt lat="42.17315" lon="23.362509"><ele>2729.7</ele><time>2026-03-02T09:27:21.000Z</time></trkpt>
<trkpt lat="42.173159" lon="23.362511"><ele>2729.7</ele><time>2026-03-02T09:27:22.000Z</time></trkpt>
<trkpt lat="42.173168" lon="23.362512"><ele>2729.7</ele><time>2026-03-02T09:27:23.000Z</time></trkpt>
<trkpt lat="42.173177" lon="23.362511"><ele>2729.7</ele><time>2026-03-02T09:27:24.000Z</time></trkpt>
<trkpt lat="42.173187" lon="23.36251"><ele>2729.8</ele><time>2026-03-02T09:27:25.000Z</time></trkpt>
<trkpt lat="42.173196" lon="23.362511"><ele>2729.8</ele><time>2026-03-02T09:27:26.000Z</time></trkpt>
<trkpt lat="42.173205" lon="23.362513"><ele>2729.8</ele><time>2026-03-02T09:27:27.000Z</time></trkpt>
<trkpt lat="42.173213" lon="23.362517"><ele>2729.8</ele><time>2026-03-02T09:27:28.000Z</time></trkpt>
<trkpt lat="42.173221" lon="23.362523"><ele>2729.8</ele><time>2026-03-02T09:27:29.000Z</time></trkpt>
<trkpt lat="42.173227" lon="23.36253"><ele>2730.2</ele><time>2026-03-02T09:27:30.000Z</time></trkpt>
<trkpt lat="42.173233" lon="23.362536"><ele>2730.2</ele><time>2026-03-02T09:27:31.000Z</time></trkpt>
<trkpt lat="42.173239" lon="23.362542"><ele>2730.2</ele><time>2026-03-02T09:27:32.000Z</time></trkpt>
<trkpt lat="42.173245" lon="23.362549"><ele>2730.2</ele><time>2026-03-02T09:27:33.000Z</time></trkpt>
<trkpt lat="42.173253" lon="23.362555"><ele>2730.2</ele><time>2026-03-02T09:27:34.000Z</time></trkpt>
<trkpt lat="42.17326" lon="23.362559"><ele>2730.6</ele><time>2026-03-02T09:27:35.000Z</time></trkpt>
<trkpt lat="42.173268" lon="23.362563"><ele>2730.6</ele><time>2026-03-02T09:27:36.000Z</time></trkpt>
<trkpt lat="42.173277" lon="23.362568"><ele>2730.6</ele><time>2026-03-02T09:27:37.000Z</time></trkpt>
<trkpt lat="42.173286" lon="23.362573"><ele>2730.6</ele><time>2026-03-02T09:27:38.000Z</time></trkpt>
<trkpt lat="42.173294" lon="23.362576"><ele>2730.6</ele><time>2026-03-02T09:27:39.000Z</time></trkpt>
<trkpt lat="42.173304" lon="23.362579"><ele>2730.8</ele><time>2026-03-02T09:27:40.000Z</time></trkpt>
<trkpt lat="42.173314" lon="23.362584"><ele>2730.8</ele><time>2026-03-02T09:27:41.000Z</time></trkpt>
<trkpt lat="42.173323" lon="23.362588"><ele>2730.8</ele><time>2026-03-02T09:27:42.000Z</time></trkpt>
<trkpt lat="42.173333" lon="23.362592"><ele>2730.8</ele><time>2026-03-02T09:27:43.000Z</time></trkpt>
<trkpt lat="42.173343" lon="23.362596"><ele>2730.8</ele><time>2026-03-02T09:27:44.000Z</time></trkpt>
<trkpt lat="42.173351" lon="23.362602"><ele>2731.3</ele><time>2026-03-02T09:27:45.000Z</time></trkpt>
<trkpt lat="42.173358" lon="23.362606"><ele>2731.3</ele><time>2026-03-02T09:27:46.000Z</time></trkpt>
<trkpt lat="42.173364" lon="23.362611"><ele>2731.3</ele><time>2026-03-02T09:27:47.000Z</time></trkpt>
<trkpt lat="42.173367" lon="23.362617"><ele>2731.3</ele><time>2026-03-02T09:27:48.000Z</time></trkpt>
<trkpt lat="42.17337" lon="23.362624"><ele>2731.3</ele><time>2026-03-02T09:27:49.000Z</time></trkpt>
<trkpt lat="42.173374" lon="23.36263"><ele>2732</ele><time>2026-03-02T09:27:50.000Z</time></trkpt>
<trkpt lat="42.173379" lon="23.362637"><ele>2732</ele><time>2026-03-02T09:27:51.000Z</time></trkpt>
<trkpt lat="42.173383" lon="23.362644"><ele>2732</ele><time>2026-03-02T09:27:52.000Z</time></trkpt>
<trkpt lat="42.173389" lon="23.36265"><ele>2732</ele><time>2026-03-02T09:27:53.000Z</time></trkpt>
<trkpt lat="42.173394" lon="23.362655"><ele>2732</ele><time>2026-03-02T09:27:54.000Z</time></trkpt>
<trkpt lat="42.1734" lon="23.36266"><ele>2732.4</ele><time>2026-03-02T09:27:55.000Z</time></trkpt>
<trkpt lat="42.173407" lon="23.362665"><ele>2732.4</ele><time>2026-03-02T09:27:56.000Z</time></trkpt>
<trkpt lat="42.173415" lon="23.362669"><ele>2732.4</ele><time>2026-03-02T09:27:57.000Z</time></trkpt>
<trkpt lat="42.173422" lon="23.362675"><ele>2732.4</ele><time>2026-03-02T09:27:58.000Z</time></trkpt>
<trkpt lat="42.17343" lon="23.36268"><ele>2732.4</ele><time>2026-03-02T09:27:59.000Z</time></trkpt>
<trkpt lat="42.173438" lon="23.362684"><ele>2733.1</ele><time>2026-03-02T09:28:00.000Z</time></trkpt>
<trkpt lat="42.173445" lon="23.36269"><ele>2733.1</ele><time>2026-03-02T09:28:01.000Z</time></trkpt>
<trkpt lat="42.173454" lon="23.362696"><ele>2733.1</ele><time>2026-03-02T09:28:02.000Z</time></trkpt>
<trkpt lat="42.173462" lon="23.362701"><ele>2733.1</ele><time>2026-03-02T09:28:03.000Z</time></trkpt>
<trkpt lat="42.17347" lon="23.362706"><ele>2733.1</ele><time>2026-03-02T09:28:04.000Z</time></trkpt>
<trkpt lat="42.173478" lon="23.362712"><ele>2733.9</ele><time>2026-03-02T09:28:05.000Z</time></trkpt>
<trkpt lat="42.173486" lon="23.362716"><ele>2733.9</ele><time>2026-03-02T09:28:06.000Z</time></trkpt>
<trkpt lat="42.173494" lon="23.36272"><ele>2733.9</ele><time>2026-03-02T09:28:07.000Z</time></trkpt>
<trkpt lat="42.173502" lon="23.362725"><ele>2733.9</ele><time>2026-03-02T09:28:08.000Z</time></trkpt>
<trkpt lat="42.17351" lon="23.362729"><ele>2733.9</ele><time>2026-03-02T09:28:09.000Z</time></trkpt>
<trkpt lat="42.173518" lon="23.362734"><ele>2734.3</ele><time>2026-03-02T09:28:10.000Z</time></trkpt>
<trkpt lat="42.173526" lon="23.36274"><ele>2734.3</ele><time>2026-03-02T09:28:11.000Z</time></trkpt>
<trkpt lat="42.173532" lon="23.362745"><ele>2734.3</ele><time>2026-03-02T09:28:12.000Z</time></trkpt>
<trkpt lat="42.173538" lon="23.36275"><ele>2734.3</ele><time>2026-03-02T09:28:13.000Z</time></trkpt>
<trkpt lat="42.173545" lon="23.362757"><ele>2734.3</ele><time>2026-03-02T09:28:14.000Z</time></trkpt>
<trkpt lat="42.173552" lon="23.362762"><ele>2734.9</ele><time>2026-03-02T09:28:15.000Z</time></trkpt>
<trkpt lat="42.173559" lon="23.362767"><ele>2734.9</ele><time>2026-03-02T09:28:16.000Z</time></trkpt>
<trkpt lat="42.173566" lon="23.362772"><ele>2734.9</ele><time>2026-03-02T09:28:17.000Z</time></trkpt>
<trkpt lat="42.173573" lon="23.362777"><ele>2734.9</ele><time>2026-03-02T09:28:18.000Z</time></trkpt>
<trkpt lat="42.173581" lon="23.362783"><ele>2734.9</ele><time>2026-03-02T09:28:19.000Z</time></trkpt>
<trkpt lat="42.173589" lon="23.362789"><ele>2735.3</ele><time>2026-03-02T09:28:20.000Z</time></trkpt>
<trkpt lat="42.173597" lon="23.362796"><ele>2735.3</ele><time>2026-03-02T09:28:21.000Z</time></trkpt>
<trkpt lat="42.173605" lon="23.362804"><ele>2735.3</ele><time>2026-03-02T09:28:22.000Z</time></trkpt>
<trkpt lat="42.173613" lon="23.362811"><ele>2735.3</ele><time>2026-03-02T09:28:23.000Z</time></trkpt>
<trkpt lat="42.17362" lon="23.362818"><ele>2735.3</ele><time>2026-03-02T09:28:24.000Z</time></trkpt>
<trkpt lat="42.173628" lon="23.362825"><ele>2735.6</ele><time>2026-03-02T09:28:25.000Z</time></trkpt>
<trkpt lat="42.173635" lon="23.362832"><ele>2735.6</ele><time>2026-03-02T09:28:26.000Z</time></trkpt>
<trkpt lat="42.173643" lon="23.362837"><ele>2735.6</ele><time>2026-03-02T09:28:27.000Z</time></trkpt>
<trkpt lat="42.17365" lon="23.362843"><ele>2735.6</ele><time>2026-03-02T09:28:28.000Z</time></trkpt>
<trkpt lat="42.173657" lon="23.36285"><ele>2735.6</ele><time>2026-03-02T09:28:29.000Z</time></trkpt>
<trkpt lat="42.173664" lon="23.362857"><ele>2736.1</ele><time>2026-03-02T09:28:30.000Z</time></trkpt>
<trkpt lat="42.173671" lon="23.362863"><ele>2736.1</ele><time>2026-03-02T09:28:31.000Z</time></trkpt>
<trkpt lat="42.173679" lon="23.36287"><ele>2736.1</ele><time>2026-03-02T09:28:32.000Z</time></trkpt>
<trkpt lat="42.173688" lon="23.362876"><ele>2736.1</ele><time>2026-03-02T09:28:33.000Z</time></trkpt>
<trkpt lat="42.173697" lon="23.362882"><ele>2736.1</ele><time>2026-03-02T09:28:34.000Z</time></trkpt>
<trkpt lat="42.173705" lon="23.362888"><ele>2736.6</ele><time>2026-03-02T09:28:35.000Z</time></trkpt>
<trkpt lat="42.173712" lon="23.362894"><ele>2736.6</ele><time>2026-03-02T09:28:36.000Z</time></trkpt>
<trkpt lat="42.173717" lon="23.3629"><ele>2736.6</ele><time>2026-03-02T09:28:37.000Z</time></trkpt>
<trkpt lat="42.173723" lon="23.362905"><ele>2736.6</ele><time>2026-03-02T09:28:38.000Z</time></trkpt>
<trkpt lat="42.173729" lon="23.362912"><ele>2736.6</ele><time>2026-03-02T09:28:39.000Z</time></trkpt>
<trkpt lat="42.173735" lon="23.362917"><ele>2736.9</ele><time>2026-03-02T09:28:40.000Z</time></trkpt>
<trkpt lat="42.173742" lon="23.362923"><ele>2736.9</ele><time>2026-03-02T09:28:41.000Z</time></trkpt>
<trkpt lat="42.173749" lon="23.36293"><ele>2736.9</ele><time>2026-03-02T09:28:42.000Z</time></trkpt>
<trkpt lat="42.173757" lon="23.362937"><ele>2736.9</ele><time>2026-03-02T09:28:43.000Z</time></trkpt>
<trkpt lat="42.173764" lon="23.362944"><ele>2736.9</ele><time>2026-03-02T09:28:44.000Z</time></trkpt>
<trkpt lat="42.173769" lon="23.362951"><ele>2737.2</ele><time>2026-03-02T09:28:45.000Z</time></trkpt>
<trkpt lat="42.173774" lon="23.362956"><ele>2737.2</ele><time>2026-03-02T09:28:46.000Z</time></trkpt>
<trkpt lat="42.173776" lon="23.362959"><ele>2737.2</ele><time>2026-03-02T09:28:47.000Z</time></trkpt>
<trkpt lat="42.173778" lon="23.362961"><ele>2737.2</ele><time>2026-03-02T09:28:48.000Z</time></trkpt>
<trkpt lat="42.173778" lon="23.362961"><ele>2737.2</ele><time>2026-03-02T09:28:49.000Z</time></trkpt>
<trkpt lat="42.173779" lon="23.36296"><ele>2737.5</ele><time>2026-03-02T09:28:50.000Z</time></trkpt>
<trkpt lat="42.173779" lon="23.362959"><ele>2737.5</ele><time>2026-03-02T09:28:51.000Z</time></trkpt>
<trkpt lat="42.173779" lon="23.362959"><ele>2737.5</ele><time>2026-03-02T09:28:52.000Z</time></trkpt>
<trkpt lat="42.173779" lon="23.362959"><ele>2737.5</ele><time>2026-03-02T09:28:53.000Z</time></trkpt>
<trkpt lat="42.173779" lon="23.362959"><ele>2737.5</ele><time>2026-03-02T09:28:54.000Z</time></trkpt>
<trkpt lat="42.17378" lon="23.36296"><ele>2737.7</ele><time>2026-03-02T09:28:55.000Z</time></trkpt>
<trkpt lat="42.173783" lon="23.362963"><ele>2737.7</ele><time>2026-03-02T09:28:56.000Z</time></trkpt>
<trkpt lat="42.173787" lon="23.362966"><ele>2737.7</ele><time>2026-03-02T09:28:57.000Z</time></trkpt>
<trkpt lat="42.173794" lon="23.36297"><ele>2737.7</ele><time>2026-03-02T09:28:58.000Z</time></trkpt>
<trkpt lat="42.173802" lon="23.362975"><ele>2737.7</ele><time>2026-03-02T09:28:59.000Z</time></trkpt>
<trkpt lat="42.173809" lon="23.362981"><ele>2737.9</ele><time>2026-03-02T09:29:00.000Z</time></trkpt>
<trkpt lat="42.173816" lon="23.362987"><ele>2737.9</ele><time>2026-03-02T09:29:01.000Z</time></trkpt>
<trkpt lat="42.173821" lon="23.362991"><ele>2737.9</ele><time>2026-03-02T09:29:02.000Z</time></trkpt>
<trkpt lat="42.173823" lon="23.362994"><ele>2737.9</ele><time>2026-03-02T09:29:03.000Z</time></trkpt>
<trkpt lat="42.173823" lon="23.362995"><ele>2737.9</ele><time>2026-03-02T09:29:04.000Z</time></trkpt>
<trkpt lat="42.173824" lon="23.362996"><ele>2738</ele><time>2026-03-02T09:29:05.000Z</time></trkpt>
<trkpt lat="42.173823" lon="23.362995"><ele>2738</ele><time>2026-03-02T09:29:06.000Z</time></trkpt>
<trkpt lat="42.173821" lon="23.362997"><ele>2738</ele><time>2026-03-02T09:29:07.000Z</time></trkpt>
<trkpt lat="42.17382" lon="23.363"><ele>2738</ele><time>2026-03-02T09:29:08.000Z</time></trkpt>
<trkpt lat="42.173819" lon="23.363005"><ele>2738</ele><time>2026-03-02T09:29:09.000Z</time></trkpt>
<trkpt lat="42.173819" lon="23.363011"><ele>2738</ele><time>2026-03-02T09:29:10.000Z</time></trkpt>
<trkpt lat="42.17382" lon="23.363018"><ele>2738</ele><time>2026-03-02T09:29:11.000Z</time></trkpt>
<trkpt lat="42.173823" lon="23.363027"><ele>2738</ele><time>2026-03-02T09:29:12.000Z</time></trkpt>
<trkpt lat="42.173825" lon="23.363036"><ele>2738</ele><time>2026-03-02T09:29:13.000Z</time></trkpt>
<trkpt lat="42.173827" lon="23.363044"><ele>2738</ele><time>2026-03-02T09:29:14.000Z</time></trkpt>
<trkpt lat="42.173829" lon="23.363051"><ele>2738.1</ele><time>2026-03-02T09:29:15.000Z</time></trkpt>
<trkpt lat="42.173829" lon="23.363056"><ele>2738.1</ele><time>2026-03-02T09:29:16.000Z</time></trkpt>
<trkpt lat="42.173829" lon="23.363059"><ele>2738.1</ele><time>2026-03-02T09:29:17.000Z</time></trkpt>
<trkpt lat="42.17383" lon="23.363061"><ele>2738.1</ele><time>2026-03-02T09:29:18.000Z</time></trkpt>
<trkpt lat="42.17383" lon="23.363062"><ele>2738.1</ele><time>2026-03-02T09:29:19.000Z</time></trkpt>
<trkpt lat="42.17383" lon="23.363062"><ele>2738.4</ele><time>2026-03-02T09:29:20.000Z</time></trkpt>
<trkpt lat="42.173831" lon="23.363062"><ele>2738.4</ele><time>2026-03-02T09:29:21.000Z</time></trkpt>
<trkpt lat="42.173829" lon="23.36306"><ele>2738.4</ele><time>2026-03-02T09:29:22.000Z</time></trkpt>
<trkpt lat="42.173827" lon="23.363059"><ele>2738.4</ele><time>2026-03-02T09:29:23.000Z</time></trkpt>
<trkpt lat="42.173825" lon="23.363057"><ele>2738.4</ele><time>2026-03-02T09:29:24.000Z</time></trkpt>
<trkpt lat="42.173822" lon="23.363055"><ele>2738.6</ele><time>2026-03-02T09:29:25.000Z</time></trkpt>
<trkpt lat="42.17382" lon="23.363053"><ele>2738.6</ele><time>2026-03-02T09:29:26.000Z</time></trkpt>
<trkpt lat="42.173819" lon="23.363053"><ele>2738.6</ele><time>2026-03-02T09:29:27.000Z</time></trkpt>
<trkpt lat="42.173819" lon="23.363053"><ele>2738.6</ele><time>2026-03-02T09:29:28.000Z</time></trkpt>
<trkpt lat="42.17382" lon="23.363053"><ele>2738.6</ele><time>2026-03-02T09:29:29.000Z</time></trkpt>
<trkpt lat="42.17382" lon="23.363054"><ele>2738.8</ele><time>2026-03-02T09:29:30.000Z</time></trkpt>
<trkpt lat="42.173821" lon="23.363055"><ele>2738.8</ele><time>2026-03-02T09:29:31.000Z</time></trkpt>
<trkpt lat="42.173821" lon="23.363056"><ele>2738.8</ele><time>2026-03-02T09:29:32.000Z</time></trkpt>
<trkpt lat="42.173821" lon="23.363056"><ele>2738.8</ele><time>2026-03-02T09:29:33.000Z</time></trkpt>
<trkpt lat="42.173822" lon="23.363055"><ele>2738.8</ele><time>2026-03-02T09:29:34.000Z</time></trkpt>
<trkpt lat="42.173823" lon="23.363055"><ele>2739</ele><time>2026-03-02T09:29:35.000Z</time></trkpt>
<trkpt lat="42.173822" lon="23.363053"><ele>2739</ele><time>2026-03-02T09:29:36.000Z</time></trkpt>
<trkpt lat="42.17382" lon="23.363048"><ele>2739</ele><time>2026-03-02T09:29:37.000Z</time></trkpt>
<trkpt lat="42.17382" lon="23.363043"><ele>2739</ele><time>2026-03-02T09:29:38.000Z</time></trkpt>
<trkpt lat="42.173822" lon="23.363038"><ele>2739</ele><time>2026-03-02T09:29:39.000Z</time></trkpt>
<trkpt lat="42.173824" lon="23.363033"><ele>2739.1</ele><time>2026-03-02T09:29:40.000Z</time></trkpt>
<trkpt lat="42.173829" lon="23.363031"><ele>2739.1</ele><time>2026-03-02T09:29:41.000Z</time></trkpt>
<trkpt lat="42.173835" lon="23.363032"><ele>2739.1</ele><time>2026-03-02T09:29:42.000Z</time></trkpt>
<trkpt lat="42.173842" lon="23.363033"><ele>2739.1</ele><time>2026-03-02T09:29:43.000Z</time></trkpt>
<trkpt lat="42.173848" lon="23.363036"><ele>2739.1</ele><time>2026-03-02T09:29:44.000Z</time></trkpt>
<trkpt lat="42.173854" lon="23.363039"><ele>2739.1</ele><time>2026-03-02T09:29:45.000Z</time></trkpt>
<trkpt lat="42.17386" lon="23.363042"><ele>2739.1</ele><time>2026-03-02T09:29:46.000Z</time></trkpt>
<trkpt lat="42.173864" lon="23.363045"><ele>2739.1</ele><time>2026-03-02T09:29:47.000Z</time></trkpt>
<trkpt lat="42.173867" lon="23.363048"><ele>2739.1</ele><time>2026-03-02T09:29:48.000Z</time></trkpt>
<trkpt lat="42.173868" lon="23.36305"><ele>2739.1</ele><time>2026-03-02T09:29:49.000Z</time></trkpt>
<trkpt lat="42.173866" lon="23.363051"><ele>2738.7</ele><time>2026-03-02T09:29:50.000Z</time></trkpt>
<trkpt lat="42.173864" lon="23.36305"><ele>2738.7</ele><time>2026-03-02T09:29:51.000Z</time></trkpt>
<trkpt lat="42.173862" lon="23.363047"><ele>2738.7</ele><time>2026-03-02T09:29:52.000Z</time></trkpt>
<trkpt lat="42.173858" lon="23.363044"><ele>2738.7</ele><time>2026-03-02T09:29:53.000Z</time></trkpt>
<trkpt lat="42.173854" lon="23.363041"><ele>2738.7</ele><time>2026-03-02T09:29:54.000Z</time></trkpt>
<trkpt lat="42.173849" lon="23.363036"><ele>2738.6</ele><time>2026-03-02T09:29:55.000Z</time></trkpt>
<trkpt lat="42.173846" lon="23.363031"><ele>2738.6</ele><time>2026-03-02T09:29:56.000Z</time></trkpt>
<trkpt lat="42.173844" lon="23.363028"><ele>2738.6</ele><time>2026-03-02T09:29:57.000Z</time></trkpt>
<trkpt lat="42.173842" lon="23.363025"><ele>2738.6</ele><time>2026-03-02T09:29:58.000Z</time></trkpt>
<trkpt lat="42.173843" lon="23.363024"><ele>2738.6</ele><time>2026-03-02T09:29:59.000Z</time></trkpt>
<trkpt lat="42.173844" lon="23.363024"><ele>2738.6</ele><time>2026-03-02T09:30:00.000Z</time></trkpt>
<trkpt lat="42.173845" lon="23.363025"><ele>2738.6</ele><time>2026-03-02T09:30:01.000Z</time></trkpt>
<trkpt lat="42.173845" lon="23.363025"><ele>2738.6</ele><time>2026-03-02T09:30:02.000Z</time></trkpt>
<trkpt lat="42.173846" lon="23.363026"><ele>2738.6</ele><time>2026-03-02T09:30:03.000Z</time></trkpt>
<trkpt lat="42.173846" lon="23.363025"><ele>2738.6</ele><time>2026-03-02T09:30:04.000Z</time></trkpt>
<trkpt lat="42.173846" lon="23.363025"><ele>2738.8</ele><time>2026-03-02T09:30:05.000Z</time></trkpt>
<trkpt lat="42.173846" lon="23.363025"><ele>2738.8</ele><time>2026-03-02T09:30:06.000Z</time></trkpt>
<trkpt lat="42.173846" lon="23.363025"><ele>2738.8</ele><time>2026-03-02T09:30:07.000Z</time></trkpt>
<trkpt lat="42.173846" lon="23.363025"><ele>2738.8</ele><time>2026-03-02T09:30:08.000Z</time></trkpt>
<trkpt lat="42.173846" lon="23.363025"><ele>2738.8</ele><time>2026-03-02T09:30:09.000Z</time></trkpt>
<trkpt lat="42.173846" lon="23.363025"><ele>2738.9</ele><time>2026-03-02T09:30:10.000Z</time></trkpt>
<trkpt lat="42.173846" lon="23.363025"><ele>2738.9</ele><time>2026-03-02T09:30:11.000Z</time></trkpt>
<trkpt lat="42.173846" lon="23.363025"><ele>2738.9</ele><time>2026-03-02T09:30:12.000Z</time></trkpt>
<trkpt lat="42.173846" lon="23.363025"><ele>2738.9</ele><time>2026-03-02T09:30:13.000Z</time></trkpt>
<trkpt lat="42.173846" lon="23.363025"><ele>2738.9</ele><time>2026-03-02T09:30:14.000Z</time></trkpt>
<trkpt lat="42.173846" lon="23.363025"><ele>2739</ele><time>2026-03-02T09:30:15.000Z</time></trkpt>
<trkpt lat="42.173846" lon="23.363025"><ele>2739</ele><time>2026-03-02T09:30:16.000Z</time></trkpt>
<trkpt lat="42.173846" lon="23.363025"><ele>2739</ele><time>2026-03-02T09:30:17.000Z</time></trkpt>
<trkpt lat="42.173846" lon="23.363025"><ele>2739</ele><time>2026-03-02T09:30:18.000Z</time></trkpt>
<trkpt lat="42.173846" lon="23.363025"><ele>2739</ele><time>2026-03-02T09:30:19.000Z</time></trkpt>
<trkpt lat="42.173846" lon="23.363025"><ele>2739</ele><time>2026-03-02T09:30:20.000Z</time></trkpt>
<trkpt lat="42.173846" lon="23.363025"><ele>2739</ele><time>2026-03-02T09:30:21.000Z</time></trkpt>
<trkpt lat="42.173846" lon="23.363025"><ele>2739</ele><time>2026-03-02T09:30:22.000Z</time></trkpt>
<trkpt lat="42.173846" lon="23.363025"><ele>2739</ele><time>2026-03-02T09:30:23.000Z</time></trkpt>
<trkpt lat="42.173846" lon="23.363025"><ele>2739</ele><time>2026-03-02T09:30:24.000Z</time></trkpt>
<trkpt lat="42.173846" lon="23.363025"><ele>2739.1</ele><time>2026-03-02T09:30:25.000Z</time></trkpt>
<trkpt lat="42.173846" lon="23.363026"><ele>2739.1</ele><time>2026-03-02T09:30:26.000Z</time></trkpt>
<trkpt lat="42.173847" lon="23.363026"><ele>2739.1</ele><time>2026-03-02T09:30:27.000Z</time></trkpt>
<trkpt lat="42.173847" lon="23.363026"><ele>2739.1</ele><time>2026-03-02T09:30:28.000Z</time></trkpt>
<trkpt lat="42.173847" lon="23.363027"><ele>2739.1</ele><time>2026-03-02T09:30:29.000Z</time></trkpt>
<trkpt lat="42.173846" lon="23.363028"><ele>2739.2</ele><time>2026-03-02T09:30:30.000Z</time></trkpt>
<trkpt lat="42.173846" lon="23.363028"><ele>2739.2</ele><time>2026-03-02T09:30:31.000Z</time></trkpt>
<trkpt lat="42.173846" lon="23.36303"><ele>2739.2</ele><time>2026-03-02T09:30:32.000Z</time></trkpt>
<trkpt lat="42.173846" lon="23.36303"><ele>2739.2</ele><time>2026-03-02T09:30:33.000Z</time></trkpt>
<trkpt lat="42.173847" lon="23.36303"><ele>2739.2</ele><time>2026-03-02T09:30:34.000Z</time></trkpt>
<trkpt lat="42.173848" lon="23.363031"><ele>2739.2</ele><time>2026-03-02T09:30:35.000Z</time></trkpt>
<trkpt lat="42.173849" lon="23.363032"><ele>2739.2</ele><time>2026-03-02T09:30:36.000Z</time></trkpt>
<trkpt lat="42.17385" lon="23.363032"><ele>2739.2</ele><time>2026-03-02T09:30:37.000Z</time></trkpt>
<trkpt lat="42.17385" lon="23.363032"><ele>2739.2</ele><time>2026-03-02T09:30:38.000Z</time></trkpt>
<trkpt lat="42.173851" lon="23.363032"><ele>2739.2</ele><time>2026-03-02T09:30:39.000Z</time></trkpt>
<trkpt lat="42.173851" lon="23.363032"><ele>2739.1</ele><time>2026-03-02T09:30:40.000Z</time></trkpt>
<trkpt lat="42.173851" lon="23.363032"><ele>2739.1</ele><time>2026-03-02T09:30:41.000Z</time></trkpt>
<trkpt lat="42.173851" lon="23.363032"><ele>2739.1</ele><time>2026-03-02T09:30:42.000Z</time></trkpt>
<trkpt lat="42.173851" lon="23.363032"><ele>2739.1</ele><time>2026-03-02T09:30:43.000Z</time></trkpt>
<trkpt lat="42.173851" lon="23.363032"><ele>2739.1</ele><time>2026-03-02T09:30:44.000Z</time></trkpt>
<trkpt lat="42.173851" lon="23.363032"><ele>2739</ele><time>2026-03-02T09:30:45.000Z</time></trkpt>
<trkpt lat="42.173851" lon="23.363032"><ele>2739</ele><time>2026-03-02T09:30:46.000Z</time></trkpt>
<trkpt lat="42.17385" lon="23.363033"><ele>2739</ele><time>2026-03-02T09:30:47.000Z</time></trkpt>
<trkpt lat="42.17385" lon="23.363033"><ele>2739</ele><time>2026-03-02T09:30:48.000Z</time></trkpt>
<trkpt lat="42.17385" lon="23.363033"><ele>2739</ele><time>2026-03-02T09:30:49.000Z</time></trkpt>
<trkpt lat="42.173849" lon="23.363033"><ele>2739.1</ele><time>2026-03-02T09:30:50.000Z</time></trkpt>
<trkpt lat="42.173848" lon="23.363034"><ele>2739.1</ele><time>2026-03-02T09:30:51.000Z</time></trkpt>
<trkpt lat="42.173846" lon="23.363034"><ele>2739.1</ele><time>2026-03-02T09:30:52.000Z</time></trkpt>
<trkpt lat="42.173842" lon="23.363035"><ele>2739.1</ele><time>2026-03-02T09:30:53.000Z</time></trkpt>
<trkpt lat="42.173836" lon="23.363035"><ele>2739.1</ele><time>2026-03-02T09:30:54.000Z</time></trkpt>
<trkpt lat="42.173828" lon="23.363035"><ele>2739.2</ele><time>2026-03-02T09:30:55.000Z</time></trkpt>
<trkpt lat="42.173819" lon="23.363034"><ele>2739.2</ele><time>2026-03-02T09:30:56.000Z</time></trkpt>
<trkpt lat="42.17381" lon="23.363034"><ele>2739.2</ele><time>2026-03-02T09:30:57.000Z</time></trkpt>
<trkpt lat="42.173801" lon="23.363032"><ele>2739.2</ele><time>2026-03-02T09:30:58.000Z</time></trkpt>
<trkpt lat="42.173793" lon="23.363032"><ele>2739.2</ele><time>2026-03-02T09:30:59.000Z</time></trkpt>
<trkpt lat="42.173786" lon="23.363032"><ele>2739.3</ele><time>2026-03-02T09:31:00.000Z</time></trkpt>
<trkpt lat="42.173781" lon="23.363033"><ele>2739.3</ele><time>2026-03-02T09:31:01.000Z</time></trkpt>
<trkpt lat="42.173777" lon="23.363033"><ele>2739.3</ele><time>2026-03-02T09:31:02.000Z</time></trkpt>
<trkpt lat="42.173776" lon="23.363034"><ele>2739.3</ele><time>2026-03-02T09:31:03.000Z</time></trkpt>
<trkpt lat="42.173775" lon="23.363035"><ele>2739.3</ele><time>2026-03-02T09:31:04.000Z</time></trkpt>
<trkpt lat="42.173774" lon="23.363036"><ele>2739.4</ele><time>2026-03-02T09:31:05.000Z</time></trkpt>
<trkpt lat="42.173773" lon="23.363039"><ele>2739.4</ele><time>2026-03-02T09:31:06.000Z</time></trkpt>
<trkpt lat="42.173773" lon="23.363041"><ele>2739.4</ele><time>2026-03-02T09:31:07.000Z</time></trkpt>
<trkpt lat="42.173773" lon="23.363044"><ele>2739.4</ele><time>2026-03-02T09:31:08.000Z</time></trkpt>
<trkpt lat="42.173773" lon="23.363046"><ele>2739.4</ele><time>2026-03-02T09:31:09.000Z</time></trkpt>
<trkpt lat="42.173773" lon="23.363048"><ele>2739.4</ele><time>2026-03-02T09:31:10.000Z</time></trkpt>
<trkpt lat="42.173773" lon="23.363048"><ele>2739.4</ele><time>2026-03-02T09:31:11.000Z</time></trkpt>
<trkpt lat="42.173773" lon="23.363048"><ele>2739.4</ele><time>2026-03-02T09:31:12.000Z</time></trkpt>
<trkpt lat="42.173774" lon="23.363048"><ele>2739.4</ele><time>2026-03-02T09:31:13.000Z</time></trkpt>
<trkpt lat="42.173774" lon="23.363048"><ele>2739.4</ele><time>2026-03-02T09:31:14.000Z</time></trkpt>
<trkpt lat="42.173774" lon="23.363047"><ele>2739.4</ele><time>2026-03-02T09:31:15.000Z</time></trkpt>
<trkpt lat="42.173774" lon="23.363047"><ele>2739.4</ele><time>2026-03-02T09:31:16.000Z</time></trkpt>
<trkpt lat="42.173774" lon="23.363046"><ele>2739.4</ele><time>2026-03-02T09:31:17.000Z</time></trkpt>
<trkpt lat="42.173774" lon="23.363045"><ele>2739.4</ele><time>2026-03-02T09:31:18.000Z</time></trkpt>
<trkpt lat="42.173775" lon="23.363044"><ele>2739.4</ele><time>2026-03-02T09:31:19.000Z</time></trkpt>
<trkpt lat="42.173775" lon="23.363043"><ele>2739</ele><time>2026-03-02T09:31:20.000Z</time></trkpt>
<trkpt lat="42.173776" lon="23.363042"><ele>2739</ele><time>2026-03-02T09:31:21.000Z</time></trkpt>
<trkpt lat="42.173776" lon="23.363042"><ele>2739</ele><time>2026-03-02T09:31:22.000Z</time></trkpt>
<trkpt lat="42.173776" lon="23.363041"><ele>2739</ele><time>2026-03-02T09:31:23.000Z</time></trkpt>
<trkpt lat="42.173776" lon="23.363041"><ele>2739</ele><time>2026-03-02T09:31:24.000Z</time></trkpt>
<trkpt lat="42.173776" lon="23.363041"><ele>2738.9</ele><time>2026-03-02T09:31:25.000Z</time></trkpt>
<trkpt lat="42.173775" lon="23.363041"><ele>2738.9</ele><time>2026-03-02T09:31:26.000Z</time></trkpt>
<trkpt lat="42.173775" lon="23.363041"><ele>2738.9</ele><time>2026-03-02T09:31:27.000Z</time></trkpt>
<trkpt lat="42.173775" lon="23.363041"><ele>2738.9</ele><time>2026-03-02T09:31:28.000Z</time></trkpt>
<trkpt lat="42.173776" lon="23.363041"><ele>2738.9</ele><time>2026-03-02T09:31:29.000Z</time></trkpt>
<trkpt lat="42.173776" lon="23.363041"><ele>2738.7</ele><time>2026-03-02T09:31:30.000Z</time></trkpt>
<trkpt lat="42.173776" lon="23.363041"><ele>2738.7</ele><time>2026-03-02T09:31:31.000Z</time></trkpt>
<trkpt lat="42.173776" lon="23.363041"><ele>2738.7</ele><time>2026-03-02T09:31:32.000Z</time></trkpt>
<trkpt lat="42.173776" lon="23.363041"><ele>2738.7</ele><time>2026-03-02T09:31:33.000Z</time></trkpt>
<trkpt lat="42.173776" lon="23.363041"><ele>2738.7</ele><time>2026-03-02T09:31:34.000Z</time></trkpt>
<trkpt lat="42.173776" lon="23.363041"><ele>2738.6</ele><time>2026-03-02T09:31:35.000Z</time></trkpt>
<trkpt lat="42.173776" lon="23.363041"><ele>2738.6</ele><time>2026-03-02T09:31:36.000Z</time></trkpt>
<trkpt lat="42.173776" lon="23.363041"><ele>2738.6</ele><time>2026-03-02T09:31:37.000Z</time></trkpt>
<trkpt lat="42.173776" lon="23.363041"><ele>2738.6</ele><time>2026-03-02T09:31:38.000Z</time></trkpt>
<trkpt lat="42.173776" lon="23.363041"><ele>2738.6</ele><time>2026-03-02T09:31:39.000Z</time></trkpt>
<trkpt lat="42.173776" lon="23.363041"><ele>2738.7</ele><time>2026-03-02T09:31:40.000Z</time></trkpt>
<trkpt lat="42.173776" lon="23.363041"><ele>2738.7</ele><time>2026-03-02T09:31:41.000Z</time></trkpt>
<trkpt lat="42.173776" lon="23.363041"><ele>2738.7</ele><time>2026-03-02T09:31:42.000Z</time></trkpt>
<trkpt lat="42.173776" lon="23.363041"><ele>2738.7</ele><time>2026-03-02T09:31:43.000Z</time></trkpt>
<trkpt lat="42.173776" lon="23.363041"><ele>2738.7</ele><time>2026-03-02T09:31:44.000Z</time></trkpt>
<trkpt lat="42.173776" lon="23.363041"><ele>2738.8</ele><time>2026-03-02T09:31:45.000Z</time></trkpt>
<trkpt lat="42.173776" lon="23.363041"><ele>2738.8</ele><time>2026-03-02T09:31:46.000Z</time></trkpt>
<trkpt lat="42.173776" lon="23.363041"><ele>2738.8</ele><time>2026-03-02T09:31:47.000Z</time></trkpt>
<trkpt lat="42.173778" lon="23.363038"><ele>2738.8</ele><time>2026-03-02T09:31:48.000Z</time></trkpt>
<trkpt lat="42.17378" lon="23.363035"><ele>2738.8</ele><time>2026-03-02T09:31:49.000Z</time></trkpt>
<trkpt lat="42.173781" lon="23.363032"><ele>2738.8</ele><time>2026-03-02T09:31:50.000Z</time></trkpt>
<trkpt lat="42.173781" lon="23.363028"><ele>2738.8</ele><time>2026-03-02T09:31:51.000Z</time></trkpt>
<trkpt lat="42.173782" lon="23.363023"><ele>2738.8</ele><time>2026-03-02T09:31:52.000Z</time></trkpt>
<trkpt lat="42.173782" lon="23.363019"><ele>2738.8</ele><time>2026-03-02T09:31:53.000Z</time></trkpt>
<trkpt lat="42.173782" lon="23.363016"><ele>2738.8</ele><time>2026-03-02T09:31:54.000Z</time></trkpt>
<trkpt lat="42.173783" lon="23.363013"><ele>2738.7</ele><time>2026-03-02T09:31:55.000Z</time></trkpt>
<trkpt lat="42.173783" lon="23.36301"><ele>2738.7</ele><time>2026-03-02T09:31:56.000Z</time></trkpt>
<trkpt lat="42.173783" lon="23.36301"><ele>2738.7</ele><time>2026-03-02T09:31:57.000Z</time></trkpt>
<trkpt lat="42.173783" lon="23.363009"><ele>2738.7</ele><time>2026-03-02T09:31:58.000Z</time></trkpt>
<trkpt lat="42.173782" lon="23.363009"><ele>2738.7</ele><time>2026-03-02T09:31:59.000Z</time></trkpt>
<trkpt lat="42.173781" lon="23.36301"><ele>2738.7</ele><time>2026-03-02T09:32:00.000Z</time></trkpt>
<trkpt lat="42.173781" lon="23.363011"><ele>2738.7</ele><time>2026-03-02T09:32:01.000Z</time></trkpt>
<trkpt lat="42.173782" lon="23.363011"><ele>2738.7</ele><time>2026-03-02T09:32:02.000Z</time></trkpt>
<trkpt lat="42.173781" lon="23.363011"><ele>2738.7</ele><time>2026-03-02T09:32:03.000Z</time></trkpt>
<trkpt lat="42.173781" lon="23.36301"><ele>2738.7</ele><time>2026-03-02T09:32:04.000Z</time></trkpt>
<trkpt lat="42.173781" lon="23.36301"><ele>2739</ele><time>2026-03-02T09:32:05.000Z</time></trkpt>
<trkpt lat="42.17378" lon="23.363009"><ele>2739</ele><time>2026-03-02T09:32:06.000Z</time></trkpt>
<trkpt lat="42.17378" lon="23.363007"><ele>2739</ele><time>2026-03-02T09:32:07.000Z</time></trkpt>
<trkpt lat="42.17378" lon="23.363007"><ele>2739</ele><time>2026-03-02T09:32:08.000Z</time></trkpt>
<trkpt lat="42.17378" lon="23.363006"><ele>2739</ele><time>2026-03-02T09:32:09.000Z</time></trkpt>
<trkpt lat="42.173781" lon="23.363003"><ele>2739.1</ele><time>2026-03-02T09:32:10.000Z</time></trkpt>
<trkpt lat="42.173784" lon="23.362998"><ele>2739.1</ele><time>2026-03-02T09:32:11.000Z</time></trkpt>
<trkpt lat="42.173789" lon="23.362994"><ele>2739.1</ele><time>2026-03-02T09:32:12.000Z</time></trkpt>
<trkpt lat="42.173796" lon="23.362988"><ele>2739.1</ele><time>2026-03-02T09:32:13.000Z</time></trkpt>
<trkpt lat="42.173805" lon="23.362983"><ele>2739.1</ele><time>2026-03-02T09:32:14.000Z</time></trkpt>
<trkpt lat="42.173813" lon="23.362979"><ele>2739.3</ele><time>2026-03-02T09:32:15.000Z</time></trkpt>
<trkpt lat="42.173821" lon="23.362976"><ele>2739.3</ele><time>2026-03-02T09:32:16.000Z</time></trkpt>
<trkpt lat="42.173829" lon="23.362971"><ele>2739.3</ele><time>2026-03-02T09:32:17.000Z</time></trkpt>
<trkpt lat="42.173836" lon="23.362966"><ele>2739.3</ele><time>2026-03-02T09:32:18.000Z</time></trkpt>
<trkpt lat="42.173844" lon="23.36296"><ele>2739.3</ele><time>2026-03-02T09:32:19.000Z</time></trkpt>
<trkpt lat="42.173851" lon="23.362954"><ele>2739.4</ele><time>2026-03-02T09:32:20.000Z</time></trkpt>
<trkpt lat="42.173857" lon="23.362949"><ele>2739.4</ele><time>2026-03-02T09:32:21.000Z</time></trkpt>
<trkpt lat="42.173862" lon="23.362945"><ele>2739.4</ele><time>2026-03-02T09:32:22.000Z</time></trkpt>
<trkpt lat="42.173864" lon="23.362945"><ele>2739.4</ele><time>2026-03-02T09:32:23.000Z</time></trkpt>
<trkpt lat="42.173863" lon="23.362945"><ele>2739.4</ele><time>2026-03-02T09:32:24.000Z</time></trkpt>
<trkpt lat="42.173861" lon="23.362946"><ele>2739.2</ele><time>2026-03-02T09:32:25.000Z</time></trkpt>
<trkpt lat="42.173856" lon="23.362945"><ele>2739.2</ele><time>2026-03-02T09:32:26.000Z</time></trkpt>
<trkpt lat="42.173851" lon="23.362945"><ele>2739.2</ele><time>2026-03-02T09:32:27.000Z</time></trkpt>
<trkpt lat="42.173845" lon="23.362941"><ele>2739.2</ele><time>2026-03-02T09:32:28.000Z</time></trkpt>
<trkpt lat="42.173841" lon="23.36294"><ele>2739.2</ele><time>2026-03-02T09:32:29.000Z</time></trkpt>
<trkpt lat="42.173838" lon="23.362938"><ele>2738.5</ele><time>2026-03-02T09:32:30.000Z</time></trkpt>
<trkpt lat="42.173836" lon="23.362937"><ele>2738.5</ele><time>2026-03-02T09:32:31.000Z</time></trkpt>
<trkpt lat="42.173835" lon="23.362936"><ele>2738.5</ele><time>2026-03-02T09:32:32.000Z</time></trkpt>
<trkpt lat="42.173835" lon="23.362936"><ele>2738.5</ele><time>2026-03-02T09:32:33.000Z</time></trkpt>
<trkpt lat="42.173835" lon="23.362937"><ele>2738.5</ele><time>2026-03-02T09:32:34.000Z</time></trkpt>
<trkpt lat="42.173835" lon="23.36294"><ele>2737.9</ele><time>2026-03-02T09:32:35.000Z</time></trkpt>
<trkpt lat="42.173834" lon="23.362943"><ele>2737.9</ele><time>2026-03-02T09:32:36.000Z</time></trkpt>
<trkpt lat="42.173834" lon="23.362948"><ele>2737.9</ele><time>2026-03-02T09:32:37.000Z</time></trkpt>
<trkpt lat="42.173832" lon="23.362954"><ele>2737.9</ele><time>2026-03-02T09:32:38.000Z</time></trkpt>
<trkpt lat="42.173831" lon="23.36296"><ele>2737.9</ele><time>2026-03-02T09:32:39.000Z</time></trkpt>
<trkpt lat="42.173829" lon="23.362966"><ele>2737.8</ele><time>2026-03-02T09:32:40.000Z</time></trkpt>
<trkpt lat="42.173828" lon="23.362971"><ele>2737.8</ele><time>2026-03-02T09:32:41.000Z</time></trkpt>
<trkpt lat="42.173828" lon="23.362976"><ele>2737.8</ele><time>2026-03-02T09:32:42.000Z</time></trkpt>
<trkpt lat="42.17383" lon="23.36298"><ele>2737.8</ele><time>2026-03-02T09:32:43.000Z</time></trkpt>
<trkpt lat="42.173832" lon="23.362983"><ele>2737.8</ele><time>2026-03-02T09:32:44.000Z</time></trkpt>
<trkpt lat="42.173833" lon="23.362985"><ele>2738</ele><time>2026-03-02T09:32:45.000Z</time></trkpt>
<trkpt lat="42.173835" lon="23.362986"><ele>2738</ele><time>2026-03-02T09:32:46.000Z</time></trkpt>
<trkpt lat="42.173836" lon="23.362987"><ele>2738</ele><time>2026-03-02T09:32:47.000Z</time></trkpt>
<trkpt lat="42.173835" lon="23.362987"><ele>2738</ele><time>2026-03-02T09:32:48.000Z</time></trkpt>
<trkpt lat="42.173835" lon="23.362987"><ele>2738</ele><time>2026-03-02T09:32:49.000Z</time></trkpt>
<trkpt lat="42.173835" lon="23.362987"><ele>2738.5</ele><time>2026-03-02T09:32:50.000Z</time></trkpt>
<trkpt lat="42.173835" lon="23.362987"><ele>2738.5</ele><time>2026-03-02T09:32:51.000Z</time></trkpt>
<trkpt lat="42.173835" lon="23.362988"><ele>2738.5</ele><time>2026-03-02T09:32:52.000Z</time></trkpt>
<trkpt lat="42.173836" lon="23.362988"><ele>2738.5</ele><time>2026-03-02T09:32:53.000Z</time></trkpt>
<trkpt lat="42.173835" lon="23.362988"><ele>2738.5</ele><time>2026-03-02T09:32:54.000Z</time></trkpt>
<trkpt lat="42.173835" lon="23.362989"><ele>2738.7</ele><time>2026-03-02T09:32:55.000Z</time></trkpt>
<trkpt lat="42.173835" lon="23.362989"><ele>2738.7</ele><time>2026-03-02T09:32:56.000Z</time></trkpt>
<trkpt lat="42.173835" lon="23.362989"><ele>2738.7</ele><time>2026-03-02T09:32:57.000Z</time></trkpt>
<trkpt lat="42.173835" lon="23.362989"><ele>2738.7</ele><time>2026-03-02T09:32:58.000Z</time></trkpt>
<trkpt lat="42.173835" lon="23.362989"><ele>2738.7</ele><time>2026-03-02T09:32:59.000Z</time></trkpt>
<trkpt lat="42.173835" lon="23.362989"><ele>2738.8</ele><time>2026-03-02T09:33:00.000Z</time></trkpt>
<trkpt lat="42.173835" lon="23.362989"><ele>2738.8</ele><time>2026-03-02T09:33:01.000Z</time></trkpt>
<trkpt lat="42.173835" lon="23.362989"><ele>2738.8</ele><time>2026-03-02T09:33:02.000Z</time></trkpt>
<trkpt lat="42.173835" lon="23.362989"><ele>2738.8</ele><time>2026-03-02T09:33:03.000Z</time></trkpt>
<trkpt lat="42.173834" lon="23.362989"><ele>2738.8</ele><time>2026-03-02T09:33:04.000Z</time></trkpt>
<trkpt lat="42.173831" lon="23.362989"><ele>2738.8</ele><time>2026-03-02T09:33:05.000Z</time></trkpt>
<trkpt lat="42.173828" lon="23.362987"><ele>2738.8</ele><time>2026-03-02T09:33:06.000Z</time></trkpt>
<trkpt lat="42.173825" lon="23.362984"><ele>2738.8</ele><time>2026-03-02T09:33:07.000Z</time></trkpt>
<trkpt lat="42.173822" lon="23.362982"><ele>2738.8</ele><time>2026-03-02T09:33:08.000Z</time></trkpt>
<trkpt lat="42.173819" lon="23.362978"><ele>2738.8</ele><time>2026-03-02T09:33:09.000Z</time></trkpt>
<trkpt lat="42.173817" lon="23.362976"><ele>2738.7</ele><time>2026-03-02T09:33:10.000Z</time></trkpt>
<trkpt lat="42.173816" lon="23.362977"><ele>2738.7</ele><time>2026-03-02T09:33:11.000Z</time></trkpt>
<trkpt lat="42.173814" lon="23.362979"><ele>2738.7</ele><time>2026-03-02T09:33:12.000Z</time></trkpt>
<trkpt lat="42.173811" lon="23.36298"><ele>2738.7</ele><time>2026-03-02T09:33:13.000Z</time></trkpt>
<trkpt lat="42.173808" lon="23.362982"><ele>2738.7</ele><time>2026-03-02T09:33:14.000Z</time></trkpt>
<trkpt lat="42.173808" lon="23.362983"><ele>2738.7</ele><time>2026-03-02T09:33:15.000Z</time></trkpt>
<trkpt lat="42.17381" lon="23.362985"><ele>2738.7</ele><time>2026-03-02T09:33:16.000Z</time></trkpt>
<trkpt lat="42.173813" lon="23.362986"><ele>2738.7</ele><time>2026-03-02T09:33:17.000Z</time></trkpt>
<trkpt lat="42.173819" lon="23.362989"><ele>2738.7</ele><time>2026-03-02T09:33:18.000Z</time></trkpt>
<trkpt lat="42.173826" lon="23.362994"><ele>2738.7</ele><time>2026-03-02T09:33:19.000Z</time></trkpt>
<trkpt lat="42.173831" lon="23.362998"><ele>2738.6</ele><time>2026-03-02T09:33:20.000Z</time></trkpt>
<trkpt lat="42.173835" lon="23.363001"><ele>2738.6</ele><time>2026-03-02T09:33:21.000Z</time></trkpt>
<trkpt lat="42.173838" lon="23.363005"><ele>2738.6</ele><time>2026-03-02T09:33:22.000Z</time></trkpt>
<trkpt lat="42.173839" lon="23.363007"><ele>2738.6</ele><time>2026-03-02T09:33:23.000Z</time></trkpt>
<trkpt lat="42.173841" lon="23.363008"><ele>2738.6</ele><time>2026-03-02T09:33:24.000Z</time></trkpt>
<trkpt lat="42.173842" lon="23.363013"><ele>2738.6</ele><time>2026-03-02T09:33:25.000Z</time></trkpt>
<trkpt lat="42.173844" lon="23.363021"><ele>2738.6</ele><time>2026-03-02T09:33:26.000Z</time></trkpt>
<trkpt lat="42.173843" lon="23.363031"><ele>2738.6</ele><time>2026-03-02T09:33:27.000Z</time></trkpt>
<trkpt lat="42.173843" lon="23.363043"><ele>2738.6</ele><time>2026-03-02T09:33:28.000Z</time></trkpt>
<trkpt lat="42.173842" lon="23.363055"><ele>2738.6</ele><time>2026-03-02T09:33:29.000Z</time></trkpt>
<trkpt lat="42.173841" lon="23.363063"><ele>2738.7</ele><time>2026-03-02T09:33:30.000Z</time></trkpt>
<trkpt lat="42.17384" lon="23.363069"><ele>2738.7</ele><time>2026-03-02T09:33:31.000Z</time></trkpt>
<trkpt lat="42.17384" lon="23.363073"><ele>2738.7</ele><time>2026-03-02T09:33:32.000Z</time></trkpt>
<trkpt lat="42.17384" lon="23.363074"><ele>2738.7</ele><time>2026-03-02T09:33:33.000Z</time></trkpt>
<trkpt lat="42.17384" lon="23.363075"><ele>2738.7</ele><time>2026-03-02T09:33:34.000Z</time></trkpt>
<trkpt lat="42.173841" lon="23.363075"><ele>2738.9</ele><time>2026-03-02T09:33:35.000Z</time></trkpt>
<trkpt lat="42.173841" lon="23.363075"><ele>2738.9</ele><time>2026-03-02T09:33:36.000Z</time></trkpt>
<trkpt lat="42.173842" lon="23.363074"><ele>2738.9</ele><time>2026-03-02T09:33:37.000Z</time></trkpt>
<trkpt lat="42.173842" lon="23.363074"><ele>2738.9</ele><time>2026-03-02T09:33:38.000Z</time></trkpt>
<trkpt lat="42.173842" lon="23.363074"><ele>2738.9</ele><time>2026-03-02T09:33:39.000Z</time></trkpt>
<trkpt lat="42.173841" lon="23.363075"><ele>2739.1</ele><time>2026-03-02T09:33:40.000Z</time></trkpt>
<trkpt lat="42.17384" lon="23.363076"><ele>2739.1</ele><time>2026-03-02T09:33:41.000Z</time></trkpt>
<trkpt lat="42.173839" lon="23.363077"><ele>2739.1</ele><time>2026-03-02T09:33:42.000Z</time></trkpt>
<trkpt lat="42.173838" lon="23.363078"><ele>2739.1</ele><time>2026-03-02T09:33:43.000Z</time></trkpt>
<trkpt lat="42.173836" lon="23.363079"><ele>2739.1</ele><time>2026-03-02T09:33:44.000Z</time></trkpt>
<trkpt lat="42.173836" lon="23.363079"><ele>2739.4</ele><time>2026-03-02T09:33:45.000Z</time></trkpt>
<trkpt lat="42.173835" lon="23.363079"><ele>2739.4</ele><time>2026-03-02T09:33:46.000Z</time></trkpt>
<trkpt lat="42.173835" lon="23.363079"><ele>2739.4</ele><time>2026-03-02T09:33:47.000Z</time></trkpt>
<trkpt lat="42.173835" lon="23.363078"><ele>2739.4</ele><time>2026-03-02T09:33:48.000Z</time></trkpt>
<trkpt lat="42.173835" lon="23.363078"><ele>2739.4</ele><time>2026-03-02T09:33:49.000Z</time></trkpt>
<trkpt lat="42.173835" lon="23.363078"><ele>2739.7</ele><time>2026-03-02T09:33:50.000Z</time></trkpt>
<trkpt lat="42.173835" lon="23.363078"><ele>2739.7</ele><time>2026-03-02T09:33:51.000Z</time></trkpt>
<trkpt lat="42.173835" lon="23.363078"><ele>2739.7</ele><time>2026-03-02T09:33:52.000Z</time></trkpt>
<trkpt lat="42.173835" lon="23.363078"><ele>2739.7</ele><time>2026-03-02T09:33:53.000Z</time></trkpt>
<trkpt lat="42.173835" lon="23.363078"><ele>2739.7</ele><time>2026-03-02T09:33:54.000Z</time></trkpt>
<trkpt lat="42.173835" lon="23.363078"><ele>2739.7</ele><time>2026-03-02T09:33:55.000Z</time></trkpt>
<trkpt lat="42.173835" lon="23.363078"><ele>2739.7</ele><time>2026-03-02T09:33:56.000Z</time></trkpt>
<trkpt lat="42.173835" lon="23.363077"><ele>2739.7</ele><time>2026-03-02T09:33:57.000Z</time></trkpt>
<trkpt lat="42.173835" lon="23.363077"><ele>2739.7</ele><time>2026-03-02T09:33:58.000Z</time></trkpt>
<trkpt lat="42.173834" lon="23.363077"><ele>2739.7</ele><time>2026-03-02T09:33:59.000Z</time></trkpt>
<trkpt lat="42.173834" lon="23.363077"><ele>2739.9</ele><time>2026-03-02T09:34:00.000Z</time></trkpt>
<trkpt lat="42.173833" lon="23.363077"><ele>2739.9</ele><time>2026-03-02T09:34:01.000Z</time></trkpt>
<trkpt lat="42.173832" lon="23.363077"><ele>2739.9</ele><time>2026-03-02T09:34:02.000Z</time></trkpt>
<trkpt lat="42.173832" lon="23.363076"><ele>2739.9</ele><time>2026-03-02T09:34:03.000Z</time></trkpt>
<trkpt lat="42.173831" lon="23.363076"><ele>2739.9</ele><time>2026-03-02T09:34:04.000Z</time></trkpt>
<trkpt lat="42.173831" lon="23.363073"><ele>2740</ele><time>2026-03-02T09:34:05.000Z</time></trkpt>
<trkpt lat="42.173829" lon="23.363069"><ele>2740</ele><time>2026-03-02T09:34:06.000Z</time></trkpt>
<trkpt lat="42.173826" lon="23.363064"><ele>2740</ele><time>2026-03-02T09:34:07.000Z</time></trkpt>
<trkpt lat="42.173821" lon="23.363057"><ele>2740</ele><time>2026-03-02T09:34:08.000Z</time></trkpt>
<trkpt lat="42.173815" lon="23.363048"><ele>2740</ele><time>2026-03-02T09:34:09.000Z</time></trkpt>
<trkpt lat="42.173809" lon="23.36304"><ele>2740</ele><time>2026-03-02T09:34:10.000Z</time></trkpt>
<trkpt lat="42.173802" lon="23.363034"><ele>2740</ele><time>2026-03-02T09:34:11.000Z</time></trkpt>
<trkpt lat="42.173796" lon="23.363029"><ele>2740</ele><time>2026-03-02T09:34:12.000Z</time></trkpt>
<trkpt lat="42.173791" lon="23.363027"><ele>2740</ele><time>2026-03-02T09:34:13.000Z</time></trkpt>
<trkpt lat="42.173789" lon="23.363027"><ele>2740</ele><time>2026-03-02T09:34:14.000Z</time></trkpt>
<trkpt lat="42.173788" lon="23.363027"><ele>2740.1</ele><time>2026-03-02T09:34:15.000Z</time></trkpt>
<trkpt lat="42.173788" lon="23.363026"><ele>2740.1</ele><time>2026-03-02T09:34:16.000Z</time></trkpt>
<trkpt lat="42.17379" lon="23.363025"><ele>2740.1</ele><time>2026-03-02T09:34:17.000Z</time></trkpt>
<trkpt lat="42.173793" lon="23.363022"><ele>2740.1</ele><time>2026-03-02T09:34:18.000Z</time></trkpt>
<trkpt lat="42.173797" lon="23.363018"><ele>2740.1</ele><time>2026-03-02T09:34:19.000Z</time></trkpt>
<trkpt lat="42.173801" lon="23.363013"><ele>2739.8</ele><time>2026-03-02T09:34:20.000Z</time></trkpt>
<trkpt lat="42.173807" lon="23.363005"><ele>2739.8</ele><time>2026-03-02T09:34:21.000Z</time></trkpt>
<trkpt lat="42.173813" lon="23.362995"><ele>2739.8</ele><time>2026-03-02T09:34:22.000Z</time></trkpt>
<trkpt lat="42.173818" lon="23.362982"><ele>2739.8</ele><time>2026-03-02T09:34:23.000Z</time></trkpt>
<trkpt lat="42.173825" lon="23.362969"><ele>2739.8</ele><time>2026-03-02T09:34:24.000Z</time></trkpt>
<trkpt lat="42.173832" lon="23.362956"><ele>2739.6</ele><time>2026-03-02T09:34:25.000Z</time></trkpt>
<trkpt lat="42.173839" lon="23.362944"><ele>2739.6</ele><time>2026-03-02T09:34:26.000Z</time></trkpt>
<trkpt lat="42.173848" lon="23.362933"><ele>2739.6</ele><time>2026-03-02T09:34:27.000Z</time></trkpt>
<trkpt lat="42.173856" lon="23.362922"><ele>2739.6</ele><time>2026-03-02T09:34:28.000Z</time></trkpt>
<trkpt lat="42.173864" lon="23.362914"><ele>2739.6</ele><time>2026-03-02T09:34:29.000Z</time></trkpt>
<trkpt lat="42.173873" lon="23.362908"><ele>2739.1</ele><time>2026-03-02T09:34:30.000Z</time></trkpt>
<trkpt lat="42.173881" lon="23.362904"><ele>2739.1</ele><time>2026-03-02T09:34:31.000Z</time></trkpt>
<trkpt lat="42.173887" lon="23.362902"><ele>2739.1</ele><time>2026-03-02T09:34:32.000Z</time></trkpt>
<trkpt lat="42.173891" lon="23.362902"><ele>2739.1</ele><time>2026-03-02T09:34:33.000Z</time></trkpt>
<trkpt lat="42.173893" lon="23.362901"><ele>2739.1</ele><time>2026-03-02T09:34:34.000Z</time></trkpt>
<trkpt lat="42.173893" lon="23.362902"><ele>2738.4</ele><time>2026-03-02T09:34:35.000Z</time></trkpt>
<trkpt lat="42.173892" lon="23.362903"><ele>2738.4</ele><time>2026-03-02T09:34:36.000Z</time></trkpt>
<trkpt lat="42.173891" lon="23.362904"><ele>2738.4</ele><time>2026-03-02T09:34:37.000Z</time></trkpt>
<trkpt lat="42.17389" lon="23.362905"><ele>2738.4</ele><time>2026-03-02T09:34:38.000Z</time></trkpt>
<trkpt lat="42.17389" lon="23.362906"><ele>2738.4</ele><time>2026-03-02T09:34:39.000Z</time></trkpt>
<trkpt lat="42.173889" lon="23.362907"><ele>2737.8</ele><time>2026-03-02T09:34:40.000Z</time></trkpt>
<trkpt lat="42.173888" lon="23.362906"><ele>2737.8</ele><time>2026-03-02T09:34:41.000Z</time></trkpt>
<trkpt lat="42.173888" lon="23.362906"><ele>2737.8</ele><time>2026-03-02T09:34:42.000Z</time></trkpt>
<trkpt lat="42.173887" lon="23.362905"><ele>2737.8</ele><time>2026-03-02T09:34:43.000Z</time></trkpt>
<trkpt lat="42.173887" lon="23.362905"><ele>2737.8</ele><time>2026-03-02T09:34:44.000Z</time></trkpt>
<trkpt lat="42.173886" lon="23.362904"><ele>2736.8</ele><time>2026-03-02T09:34:45.000Z</time></trkpt>
<trkpt lat="42.173886" lon="23.362904"><ele>2736.8</ele><time>2026-03-02T09:34:46.000Z</time></trkpt>
<trkpt lat="42.173886" lon="23.362904"><ele>2736.8</ele><time>2026-03-02T09:34:47.000Z</time></trkpt>
<trkpt lat="42.173886" lon="23.362904"><ele>2736.8</ele><time>2026-03-02T09:34:48.000Z</time></trkpt>
<trkpt lat="42.173886" lon="23.362904"><ele>2736.8</ele><time>2026-03-02T09:34:49.000Z</time></trkpt>
<trkpt lat="42.173886" lon="23.362904"><ele>2736.5</ele><time>2026-03-02T09:34:50.000Z</time></trkpt>
<trkpt lat="42.173886" lon="23.362904"><ele>2736.5</ele><time>2026-03-02T09:34:51.000Z</time></trkpt>
<trkpt lat="42.173886" lon="23.362904"><ele>2736.5</ele><time>2026-03-02T09:34:52.000Z</time></trkpt>
<trkpt lat="42.173886" lon="23.362904"><ele>2736.5</ele><time>2026-03-02T09:34:53.000Z</time></trkpt>
<trkpt lat="42.173886" lon="23.362904"><ele>2736.5</ele><time>2026-03-02T09:34:54.000Z</time></trkpt>
<trkpt lat="42.173886" lon="23.362904"><ele>2736.5</ele><time>2026-03-02T09:34:55.000Z</time></trkpt>
<trkpt lat="42.173886" lon="23.362904"><ele>2736.5</ele><time>2026-03-02T09:34:56.000Z</time></trkpt>
<trkpt lat="42.173886" lon="23.362904"><ele>2736.5</ele><time>2026-03-02T09:34:57.000Z</time></trkpt>
<trkpt lat="42.173886" lon="23.362904"><ele>2736.5</ele><time>2026-03-02T09:34:58.000Z</time></trkpt>
<trkpt lat="42.173886" lon="23.362904"><ele>2736.5</ele><time>2026-03-02T09:34:59.000Z</time></trkpt>
<trkpt lat="42.173886" lon="23.362904"><ele>2736.4</ele><time>2026-03-02T09:35:00.000Z</time></trkpt>
<trkpt lat="42.173886" lon="23.362904"><ele>2736.4</ele><time>2026-03-02T09:35:01.000Z</time></trkpt>
<trkpt lat="42.173886" lon="23.362904"><ele>2736.4</ele><time>2026-03-02T09:35:02.000Z</time></trkpt>
<trkpt lat="42.173886" lon="23.362904"><ele>2736.4</ele><time>2026-03-02T09:35:03.000Z</time></trkpt>
<trkpt lat="42.173886" lon="23.362904"><ele>2736.4</ele><time>2026-03-02T09:35:04.000Z</time></trkpt>
<trkpt lat="42.173886" lon="23.362904"><ele>2736.2</ele><time>2026-03-02T09:35:05.000Z</time></trkpt>
<trkpt lat="42.173886" lon="23.362904"><ele>2736.2</ele><time>2026-03-02T09:35:06.000Z</time></trkpt>
<trkpt lat="42.173886" lon="23.362904"><ele>2736.2</ele><time>2026-03-02T09:35:07.000Z</time></trkpt>
<trkpt lat="42.173886" lon="23.362904"><ele>2736.2</ele><time>2026-03-02T09:35:08.000Z</time></trkpt>
<trkpt lat="42.173886" lon="23.362904"><ele>2736.2</ele><time>2026-03-02T09:35:09.000Z</time></trkpt>
<trkpt lat="42.173886" lon="23.362904"><ele>2736.2</ele><time>2026-03-02T09:35:10.000Z</time></trkpt>
<trkpt lat="42.173886" lon="23.362904"><ele>2736.2</ele><time>2026-03-02T09:35:11.000Z</time></trkpt>
<trkpt lat="42.173886" lon="23.362904"><ele>2736.2</ele><time>2026-03-02T09:35:12.000Z</time></trkpt>
<trkpt lat="42.173886" lon="23.362904"><ele>2736.2</ele><time>2026-03-02T09:35:13.000Z</time></trkpt>
<trkpt lat="42.173885" lon="23.362904"><ele>2736.2</ele><time>2026-03-02T09:35:14.000Z</time></trkpt>
<trkpt lat="42.173885" lon="23.362904"><ele>2736.2</ele><time>2026-03-02T09:35:15.000Z</time></trkpt>
<trkpt lat="42.173884" lon="23.362903"><ele>2736.2</ele><time>2026-03-02T09:35:16.000Z</time></trkpt>
<trkpt lat="42.173884" lon="23.362903"><ele>2736.2</ele><time>2026-03-02T09:35:17.000Z</time></trkpt>
<trkpt lat="42.173884" lon="23.362903"><ele>2736.2</ele><time>2026-03-02T09:35:18.000Z</time></trkpt>
<trkpt lat="42.173884" lon="23.362903"><ele>2736.2</ele><time>2026-03-02T09:35:19.000Z</time></trkpt>
<trkpt lat="42.173884" lon="23.362903"><ele>2736.4</ele><time>2026-03-02T09:35:20.000Z</time></trkpt>
<trkpt lat="42.173884" lon="23.362903"><ele>2736.4</ele><time>2026-03-02T09:35:21.000Z</time></trkpt>
<trkpt lat="42.173884" lon="23.362903"><ele>2736.4</ele><time>2026-03-02T09:35:22.000Z</time></trkpt>
<trkpt lat="42.173884" lon="23.362903"><ele>2736.4</ele><time>2026-03-02T09:35:23.000Z</time></trkpt>
<trkpt lat="42.173884" lon="23.362903"><ele>2736.4</ele><time>2026-03-02T09:35:24.000Z</time></trkpt>
<trkpt lat="42.173884" lon="23.362903"><ele>2736.4</ele><time>2026-03-02T09:35:25.000Z</time></trkpt>
<trkpt lat="42.173884" lon="23.362903"><ele>2736.4</ele><time>2026-03-02T09:35:26.000Z</time></trkpt>
<trkpt lat="42.173884" lon="23.362904"><ele>2736.4</ele><time>2026-03-02T09:35:27.000Z</time></trkpt>
<trkpt lat="42.173883" lon="23.362904"><ele>2736.4</ele><time>2026-03-02T09:35:28.000Z</time></trkpt>
<trkpt lat="42.173883" lon="23.362904"><ele>2736.4</ele><time>2026-03-02T09:35:29.000Z</time></trkpt>
<trkpt lat="42.173883" lon="23.362904"><ele>2736.3</ele><time>2026-03-02T09:35:30.000Z</time></trkpt>
<trkpt lat="42.173883" lon="23.362904"><ele>2736.3</ele><time>2026-03-02T09:35:31.000Z</time></trkpt>
<trkpt lat="42.173883" lon="23.362904"><ele>2736.3</ele><time>2026-03-02T09:35:32.000Z</time></trkpt>
<trkpt lat="42.173883" lon="23.362904"><ele>2736.3</ele><time>2026-03-02T09:35:33.000Z</time></trkpt>
<trkpt lat="42.173883" lon="23.362904"><ele>2736.3</ele><time>2026-03-02T09:35:34.000Z</time></trkpt>
<trkpt lat="42.173883" lon="23.362904"><ele>2736.3</ele><time>2026-03-02T09:35:35.000Z</time></trkpt>
<trkpt lat="42.173883" lon="23.362904"><ele>2736.3</ele><time>2026-03-02T09:35:36.000Z</time></trkpt>
<trkpt lat="42.173883" lon="23.362904"><ele>2736.3</ele><time>2026-03-02T09:35:37.000Z</time></trkpt>
<trkpt lat="42.173883" lon="23.362904"><ele>2736.3</ele><time>2026-03-02T09:35:38.000Z</time></trkpt>
<trkpt lat="42.173883" lon="23.362904"><ele>2736.3</ele><time>2026-03-02T09:35:39.000Z</time></trkpt>
<trkpt lat="42.173883" lon="23.362904"><ele>2736.3</ele><time>2026-03-02T09:35:40.000Z</time></trkpt>
<trkpt lat="42.173882" lon="23.362904"><ele>2736.3</ele><time>2026-03-02T09:35:41.000Z</time></trkpt>
<trkpt lat="42.173882" lon="23.362905"><ele>2736.3</ele><time>2026-03-02T09:35:42.000Z</time></trkpt>
<trkpt lat="42.173881" lon="23.362905"><ele>2736.3</ele><time>2026-03-02T09:35:43.000Z</time></trkpt>
<trkpt lat="42.173881" lon="23.362905"><ele>2736.3</ele><time>2026-03-02T09:35:44.000Z</time></trkpt>
<trkpt lat="42.173881" lon="23.362905"><ele>2736.4</ele><time>2026-03-02T09:35:45.000Z</time></trkpt>
<trkpt lat="42.173881" lon="23.362905"><ele>2736.4</ele><time>2026-03-02T09:35:46.000Z</time></trkpt>
<trkpt lat="42.173881" lon="23.362905"><ele>2736.4</ele><time>2026-03-02T09:35:47.000Z</time></trkpt>
<trkpt lat="42.173881" lon="23.362905"><ele>2736.4</ele><time>2026-03-02T09:35:48.000Z</time></trkpt>
<trkpt lat="42.173881" lon="23.362905"><ele>2736.4</ele><time>2026-03-02T09:35:49.000Z</time></trkpt>
<trkpt lat="42.173881" lon="23.362907"><ele>2736.4</ele><time>2026-03-02T09:35:50.000Z</time></trkpt>
<trkpt lat="42.17388" lon="23.36291"><ele>2736.4</ele><time>2026-03-02T09:35:51.000Z</time></trkpt>
<trkpt lat="42.173876" lon="23.362912"><ele>2736.4</ele><time>2026-03-02T09:35:52.000Z</time></trkpt>
<trkpt lat="42.173873" lon="23.362914"><ele>2736.4</ele><time>2026-03-02T09:35:53.000Z</time></trkpt>
<trkpt lat="42.17387" lon="23.362918"><ele>2736.4</ele><time>2026-03-02T09:35:54.000Z</time></trkpt>
<trkpt lat="42.173866" lon="23.362923"><ele>2736.4</ele><time>2026-03-02T09:35:55.000Z</time></trkpt>
<trkpt lat="42.173864" lon="23.362927"><ele>2736.4</ele><time>2026-03-02T09:35:56.000Z</time></trkpt>
<trkpt lat="42.173861" lon="23.362934"><ele>2736.4</ele><time>2026-03-02T09:35:57.000Z</time></trkpt>
<trkpt lat="42.173858" lon="23.36294"><ele>2736.4</ele><time>2026-03-02T09:35:58.000Z</time></trkpt>
<trkpt lat="42.173854" lon="23.362947"><ele>2736.4</ele><time>2026-03-02T09:35:59.000Z</time></trkpt>
<trkpt lat="42.173848" lon="23.362953"><ele>2736.6</ele><time>2026-03-02T09:36:00.000Z</time></trkpt>
<trkpt lat="42.173843" lon="23.362959"><ele>2736.6</ele><time>2026-03-02T09:36:01.000Z</time></trkpt>
<trkpt lat="42.173838" lon="23.362966"><ele>2736.6</ele><time>2026-03-02T09:36:02.000Z</time></trkpt>
<trkpt lat="42.173834" lon="23.362974"><ele>2736.6</ele><time>2026-03-02T09:36:03.000Z</time></trkpt>
<trkpt lat="42.173831" lon="23.362981"><ele>2736.6</ele><time>2026-03-02T09:36:04.000Z</time></trkpt>
<trkpt lat="42.173829" lon="23.362989"><ele>2737.1</ele><time>2026-03-02T09:36:05.000Z</time></trkpt>
<trkpt lat="42.173825" lon="23.362996"><ele>2737.1</ele><time>2026-03-02T09:36:06.000Z</time></trkpt>
<trkpt lat="42.173822" lon="23.363001"><ele>2737.1</ele><time>2026-03-02T09:36:07.000Z</time></trkpt>
<trkpt lat="42.173818" lon="23.363004"><ele>2737.1</ele><time>2026-03-02T09:36:08.000Z</time></trkpt>
<trkpt lat="42.173816" lon="23.363004"><ele>2737.1</ele><time>2026-03-02T09:36:09.000Z</time></trkpt>
<trkpt lat="42.173814" lon="23.363004"><ele>2737.5</ele><time>2026-03-02T09:36:10.000Z</time></trkpt>
<trkpt lat="42.173814" lon="23.363003"><ele>2737.5</ele><time>2026-03-02T09:36:11.000Z</time></trkpt>
<trkpt lat="42.173814" lon="23.363003"><ele>2737.5</ele><time>2026-03-02T09:36:12.000Z</time></trkpt>
<trkpt lat="42.173814" lon="23.363003"><ele>2737.5</ele><time>2026-03-02T09:36:13.000Z</time></trkpt>
<trkpt lat="42.173813" lon="23.363003"><ele>2737.5</ele><time>2026-03-02T09:36:14.000Z</time></trkpt>
<trkpt lat="42.173813" lon="23.363002"><ele>2738.3</ele><time>2026-03-02T09:36:15.000Z</time></trkpt>
<trkpt lat="42.173814" lon="23.363001"><ele>2738.3</ele><time>2026-03-02T09:36:16.000Z</time></trkpt>
<trkpt lat="42.173814" lon="23.363001"><ele>2738.3</ele><time>2026-03-02T09:36:17.000Z</time></trkpt>
<trkpt lat="42.173815" lon="23.363"><ele>2738.3</ele><time>2026-03-02T09:36:18.000Z</time></trkpt>
<trkpt lat="42.173815" lon="23.362999"><ele>2738.3</ele><time>2026-03-02T09:36:19.000Z</time></trkpt>
<trkpt lat="42.173816" lon="23.362998"><ele>2738.8</ele><time>2026-03-02T09:36:20.000Z</time></trkpt>
<trkpt lat="42.173816" lon="23.362998"><ele>2738.8</ele><time>2026-03-02T09:36:21.000Z</time></trkpt>
<trkpt lat="42.173816" lon="23.362998"><ele>2738.8</ele><time>2026-03-02T09:36:22.000Z</time></trkpt>
<trkpt lat="42.173814" lon="23.362998"><ele>2738.8</ele><time>2026-03-02T09:36:23.000Z</time></trkpt>
<trkpt lat="42.173812" lon="23.362997"><ele>2738.8</ele><time>2026-03-02T09:36:24.000Z</time></trkpt>
<trkpt lat="42.173808" lon="23.362997"><ele>2739</ele><time>2026-03-02T09:36:25.000Z</time></trkpt>
<trkpt lat="42.173803" lon="23.362997"><ele>2739</ele><time>2026-03-02T09:36:26.000Z</time></trkpt>
<trkpt lat="42.173797" lon="23.362997"><ele>2739</ele><time>2026-03-02T09:36:27.000Z</time></trkpt>
<trkpt lat="42.173793" lon="23.362999"><ele>2739</ele><time>2026-03-02T09:36:28.000Z</time></trkpt>
<trkpt lat="42.173791" lon="23.363002"><ele>2739</ele><time>2026-03-02T09:36:29.000Z</time></trkpt>
<trkpt lat="42.17379" lon="23.363005"><ele>2739.1</ele><time>2026-03-02T09:36:30.000Z</time></trkpt>
<trkpt lat="42.17379" lon="23.363007"><ele>2739.1</ele><time>2026-03-02T09:36:31.000Z</time></trkpt>
<trkpt lat="42.17379" lon="23.363009"><ele>2739.1</ele><time>2026-03-02T09:36:32.000Z</time></trkpt>
<trkpt lat="42.173791" lon="23.36301"><ele>2739.1</ele><time>2026-03-02T09:36:33.000Z</time></trkpt>
<trkpt lat="42.173792" lon="23.363011"><ele>2739.1</ele><time>2026-03-02T09:36:34.000Z</time></trkpt>
<trkpt lat="42.173793" lon="23.363011"><ele>2739</ele><time>2026-03-02T09:36:35.000Z</time></trkpt>
<trkpt lat="42.173793" lon="23.363011"><ele>2739</ele><time>2026-03-02T09:36:36.000Z</time></trkpt>
<trkpt lat="42.173794" lon="23.363011"><ele>2739</ele><time>2026-03-02T09:36:37.000Z</time></trkpt>
<trkpt lat="42.173794" lon="23.363011"><ele>2739</ele><time>2026-03-02T09:36:38.000Z</time></trkpt>
<trkpt lat="42.173794" lon="23.363011"><ele>2739</ele><time>2026-03-02T09:36:39.000Z</time></trkpt>
<trkpt lat="42.173794" lon="23.363011"><ele>2738.8</ele><time>2026-03-02T09:36:40.000Z</time></trkpt>
<trkpt lat="42.173793" lon="23.363011"><ele>2738.8</ele><time>2026-03-02T09:36:41.000Z</time></trkpt>
<trkpt lat="42.173793" lon="23.363011"><ele>2738.8</ele><time>2026-03-02T09:36:42.000Z</time></trkpt>
<trkpt lat="42.173793" lon="23.363011"><ele>2738.8</ele><time>2026-03-02T09:36:43.000Z</time></trkpt>
<trkpt lat="42.173793" lon="23.363011"><ele>2738.8</ele><time>2026-03-02T09:36:44.000Z</time></trkpt>
<trkpt lat="42.173793" lon="23.363011"><ele>2738.6</ele><time>2026-03-02T09:36:45.000Z</time></trkpt>
<trkpt lat="42.173794" lon="23.363011"><ele>2738.6</ele><time>2026-03-02T09:36:46.000Z</time></trkpt>
<trkpt lat="42.173794" lon="23.363011"><ele>2738.6</ele><time>2026-03-02T09:36:47.000Z</time></trkpt>
<trkpt lat="42.173795" lon="23.363012"><ele>2738.6</ele><time>2026-03-02T09:36:48.000Z</time></trkpt>
<trkpt lat="42.173795" lon="23.363012"><ele>2738.6</ele><time>2026-03-02T09:36:49.000Z</time></trkpt>
<trkpt lat="42.173795" lon="23.363012"><ele>2738.5</ele><time>2026-03-02T09:36:50.000Z</time></trkpt>
<trkpt lat="42.173795" lon="23.363012"><ele>2738.5</ele><time>2026-03-02T09:36:51.000Z</time></trkpt>
<trkpt lat="42.173794" lon="23.36301"><ele>2738.5</ele><time>2026-03-02T09:36:52.000Z</time></trkpt>
<trkpt lat="42.173791" lon="23.363007"><ele>2738.5</ele><time>2026-03-02T09:36:53.000Z</time></trkpt>
<trkpt lat="42.173789" lon="23.363004"><ele>2738.5</ele><time>2026-03-02T09:36:54.000Z</time></trkpt>
<trkpt lat="42.173787" lon="23.363002"><ele>2738.6</ele><time>2026-03-02T09:36:55.000Z</time></trkpt>
<trkpt lat="42.173784" lon="23.362999"><ele>2738.6</ele><time>2026-03-02T09:36:56.000Z</time></trkpt>
<trkpt lat="42.173784" lon="23.362998"><ele>2738.6</ele><time>2026-03-02T09:36:57.000Z</time></trkpt>
<trkpt lat="42.173784" lon="23.362998"><ele>2738.6</ele><time>2026-03-02T09:36:58.000Z</time></trkpt>
<trkpt lat="42.173785" lon="23.362998"><ele>2738.6</ele><time>2026-03-02T09:36:59.000Z</time></trkpt>
<trkpt lat="42.173785" lon="23.362998"><ele>2738.6</ele><time>2026-03-02T09:37:00.000Z</time></trkpt>
<trkpt lat="42.173785" lon="23.362999"><ele>2738.6</ele><time>2026-03-02T09:37:01.000Z</time></trkpt>
<trkpt lat="42.173785" lon="23.362999"><ele>2738.6</ele><time>2026-03-02T09:37:02.000Z</time></trkpt>
<trkpt lat="42.173785" lon="23.362999"><ele>2738.6</ele><time>2026-03-02T09:37:03.000Z</time></trkpt>
<trkpt lat="42.173785" lon="23.362999"><ele>2738.6</ele><time>2026-03-02T09:37:04.000Z</time></trkpt>
<trkpt lat="42.173785" lon="23.362999"><ele>2738.7</ele><time>2026-03-02T09:37:05.000Z</time></trkpt>
<trkpt lat="42.173784" lon="23.362999"><ele>2738.7</ele><time>2026-03-02T09:37:06.000Z</time></trkpt>
<trkpt lat="42.173783" lon="23.362998"><ele>2738.7</ele><time>2026-03-02T09:37:07.000Z</time></trkpt>
<trkpt lat="42.173783" lon="23.362998"><ele>2738.7</ele><time>2026-03-02T09:37:08.000Z</time></trkpt>
<trkpt lat="42.173782" lon="23.362997"><ele>2738.7</ele><time>2026-03-02T09:37:09.000Z</time></trkpt>
<trkpt lat="42.173782" lon="23.362997"><ele>2738.8</ele><time>2026-03-02T09:37:10.000Z</time></trkpt>
<trkpt lat="42.173782" lon="23.362997"><ele>2738.8</ele><time>2026-03-02T09:37:11.000Z</time></trkpt>
<trkpt lat="42.173781" lon="23.362997"><ele>2738.8</ele><time>2026-03-02T09:37:12.000Z</time></trkpt>
<trkpt lat="42.173781" lon="23.362997"><ele>2738.8</ele><time>2026-03-02T09:37:13.000Z</time></trkpt>
<trkpt lat="42.173781" lon="23.362997"><ele>2738.8</ele><time>2026-03-02T09:37:14.000Z</time></trkpt>
<trkpt lat="42.173781" lon="23.362997"><ele>2738.8</ele><time>2026-03-02T09:37:15.000Z</time></trkpt>
<trkpt lat="42.173781" lon="23.362997"><ele>2738.8</ele><time>2026-03-02T09:37:16.000Z</time></trkpt>
<trkpt lat="42.173781" lon="23.362997"><ele>2738.8</ele><time>2026-03-02T09:37:17.000Z</time></trkpt>
<trkpt lat="42.173781" lon="23.362997"><ele>2738.8</ele><time>2026-03-02T09:37:18.000Z</time></trkpt>
<trkpt lat="42.173781" lon="23.362997"><ele>2738.8</ele><time>2026-03-02T09:37:19.000Z</time></trkpt>
<trkpt lat="42.173781" lon="23.362997"><ele>2738.9</ele><time>2026-03-02T09:37:20.000Z</time></trkpt>
<trkpt lat="42.173781" lon="23.362997"><ele>2738.9</ele><time>2026-03-02T09:37:21.000Z</time></trkpt>
<trkpt lat="42.173781" lon="23.362997"><ele>2738.9</ele><time>2026-03-02T09:37:22.000Z</time></trkpt>
<trkpt lat="42.173781" lon="23.362997"><ele>2738.9</ele><time>2026-03-02T09:37:23.000Z</time></trkpt>
<trkpt lat="42.173781" lon="23.362997"><ele>2738.9</ele><time>2026-03-02T09:37:24.000Z</time></trkpt>
<trkpt lat="42.173781" lon="23.362996"><ele>2738.9</ele><time>2026-03-02T09:37:25.000Z</time></trkpt>
<trkpt lat="42.173781" lon="23.362996"><ele>2738.9</ele><time>2026-03-02T09:37:26.000Z</time></trkpt>
<trkpt lat="42.173783" lon="23.362995"><ele>2738.9</ele><time>2026-03-02T09:37:27.000Z</time></trkpt>
<trkpt lat="42.173785" lon="23.362995"><ele>2738.9</ele><time>2026-03-02T09:37:28.000Z</time></trkpt>
<trkpt lat="42.173787" lon="23.362994"><ele>2738.9</ele><time>2026-03-02T09:37:29.000Z</time></trkpt>
<trkpt lat="42.173789" lon="23.362994"><ele>2738.9</ele><time>2026-03-02T09:37:30.000Z</time></trkpt>
<trkpt lat="42.173791" lon="23.362994"><ele>2738.9</ele><time>2026-03-02T09:37:31.000Z</time></trkpt>
<trkpt lat="42.173791" lon="23.362994"><ele>2738.9</ele><time>2026-03-02T09:37:32.000Z</time></trkpt>
<trkpt lat="42.173792" lon="23.362994"><ele>2738.9</ele><time>2026-03-02T09:37:33.000Z</time></trkpt>
<trkpt lat="42.173792" lon="23.362993"><ele>2738.9</ele><time>2026-03-02T09:37:34.000Z</time></trkpt>
<trkpt lat="42.173791" lon="23.362993"><ele>2739.2</ele><time>2026-03-02T09:37:35.000Z</time></trkpt>
<trkpt lat="42.173791" lon="23.362992"><ele>2739.2</ele><time>2026-03-02T09:37:36.000Z</time></trkpt>
<trkpt lat="42.173791" lon="23.362992"><ele>2739.2</ele><time>2026-03-02T09:37:37.000Z</time></trkpt>
<trkpt lat="42.173791" lon="23.362992"><ele>2739.2</ele><time>2026-03-02T09:37:38.000Z</time></trkpt>
<trkpt lat="42.173791" lon="23.362992"><ele>2739.2</ele><time>2026-03-02T09:37:39.000Z</time></trkpt>
<trkpt lat="42.173791" lon="23.362991"><ele>2739.4</ele><time>2026-03-02T09:37:40.000Z</time></trkpt>
<trkpt lat="42.173791" lon="23.362991"><ele>2739.4</ele><time>2026-03-02T09:37:41.000Z</time></trkpt>
<trkpt lat="42.173791" lon="23.36299"><ele>2739.4</ele><time>2026-03-02T09:37:42.000Z</time></trkpt>
<trkpt lat="42.173791" lon="23.36299"><ele>2739.4</ele><time>2026-03-02T09:37:43.000Z</time></trkpt>
<trkpt lat="42.173791" lon="23.36299"><ele>2739.4</ele><time>2026-03-02T09:37:44.000Z</time></trkpt>
<trkpt lat="42.173791" lon="23.36299"><ele>2739.5</ele><time>2026-03-02T09:37:45.000Z</time></trkpt>
<trkpt lat="42.173791" lon="23.36299"><ele>2739.5</ele><time>2026-03-02T09:37:46.000Z</time></trkpt>
<trkpt lat="42.173791" lon="23.36299"><ele>2739.5</ele><time>2026-03-02T09:37:47.000Z</time></trkpt>
<trkpt lat="42.173791" lon="23.36299"><ele>2739.5</ele><time>2026-03-02T09:37:48.000Z</time></trkpt>
<trkpt lat="42.173791" lon="23.36299"><ele>2739.5</ele><time>2026-03-02T09:37:49.000Z</time></trkpt>
<trkpt lat="42.173791" lon="23.36299"><ele>2739.4</ele><time>2026-03-02T09:37:50.000Z</time></trkpt>
<trkpt lat="42.17379" lon="23.36299"><ele>2739.4</ele><time>2026-03-02T09:37:51.000Z</time></trkpt>
<trkpt lat="42.17379" lon="23.36299"><ele>2739.4</ele><time>2026-03-02T09:37:52.000Z</time></trkpt>
<trkpt lat="42.173789" lon="23.362989"><ele>2739.4</ele><time>2026-03-02T09:37:53.000Z</time></trkpt>
<trkpt lat="42.173789" lon="23.362989"><ele>2739.4</ele><time>2026-03-02T09:37:54.000Z</time></trkpt>
<trkpt lat="42.173789" lon="23.362989"><ele>2739.4</ele><time>2026-03-02T09:37:55.000Z</time></trkpt>
<trkpt lat="42.173789" lon="23.362989"><ele>2739.4</ele><time>2026-03-02T09:37:56.000Z</time></trkpt>
<trkpt lat="42.173789" lon="23.362991"><ele>2739.4</ele><time>2026-03-02T09:37:57.000Z</time></trkpt>
<trkpt lat="42.173789" lon="23.362993"><ele>2739.4</ele><time>2026-03-02T09:37:58.000Z</time></trkpt>
<trkpt lat="42.173788" lon="23.362994"><ele>2739.4</ele><time>2026-03-02T09:37:59.000Z</time></trkpt>
<trkpt lat="42.173787" lon="23.362996"><ele>2739.3</ele><time>2026-03-02T09:38:00.000Z</time></trkpt>
<trkpt lat="42.173786" lon="23.362996"><ele>2739.3</ele><time>2026-03-02T09:38:01.000Z</time></trkpt>
<trkpt lat="42.173785" lon="23.362995"><ele>2739.3</ele><time>2026-03-02T09:38:02.000Z</time></trkpt>
<trkpt lat="42.173784" lon="23.362993"><ele>2739.3</ele><time>2026-03-02T09:38:03.000Z</time></trkpt>
<trkpt lat="42.173784" lon="23.362991"><ele>2739.3</ele><time>2026-03-02T09:38:04.000Z</time></trkpt>
<trkpt lat="42.173784" lon="23.362991"><ele>2739.3</ele><time>2026-03-02T09:38:05.000Z</time></trkpt>
<trkpt lat="42.173784" lon="23.36299"><ele>2739.3</ele><time>2026-03-02T09:38:06.000Z</time></trkpt>
<trkpt lat="42.173784" lon="23.36299"><ele>2739.3</ele><time>2026-03-02T09:38:07.000Z</time></trkpt>
<trkpt lat="42.173784" lon="23.36299"><ele>2739.3</ele><time>2026-03-02T09:38:08.000Z</time></trkpt>
<trkpt lat="42.173784" lon="23.36299"><ele>2739.3</ele><time>2026-03-02T09:38:09.000Z</time></trkpt>
<trkpt lat="42.173784" lon="23.36299"><ele>2739.3</ele><time>2026-03-02T09:38:10.000Z</time></trkpt>
<trkpt lat="42.173784" lon="23.36299"><ele>2739.3</ele><time>2026-03-02T09:38:11.000Z</time></trkpt>
<trkpt lat="42.173784" lon="23.36299"><ele>2739.3</ele><time>2026-03-02T09:38:12.000Z</time></trkpt>
<trkpt lat="42.173785" lon="23.362991"><ele>2739.3</ele><time>2026-03-02T09:38:13.000Z</time></trkpt>
<trkpt lat="42.173785" lon="23.362991"><ele>2739.3</ele><time>2026-03-02T09:38:14.000Z</time></trkpt>
<trkpt lat="42.173786" lon="23.362991"><ele>2739.6</ele><time>2026-03-02T09:38:15.000Z</time></trkpt>
<trkpt lat="42.173786" lon="23.362991"><ele>2739.6</ele><time>2026-03-02T09:38:16.000Z</time></trkpt>
<trkpt lat="42.173786" lon="23.362991"><ele>2739.6</ele><time>2026-03-02T09:38:17.000Z</time></trkpt>
<trkpt lat="42.173786" lon="23.362991"><ele>2739.6</ele><time>2026-03-02T09:38:18.000Z</time></trkpt>
<trkpt lat="42.173786" lon="23.362991"><ele>2739.6</ele><time>2026-03-02T09:38:19.000Z</time></trkpt>
<trkpt lat="42.173786" lon="23.362991"><ele>2739.8</ele><time>2026-03-02T09:38:20.000Z</time></trkpt>
<trkpt lat="42.173786" lon="23.362991"><ele>2739.8</ele><time>2026-03-02T09:38:21.000Z</time></trkpt>
<trkpt lat="42.173786" lon="23.362991"><ele>2739.8</ele><time>2026-03-02T09:38:22.000Z</time></trkpt>
<trkpt lat="42.173786" lon="23.362991"><ele>2739.8</ele><time>2026-03-02T09:38:23.000Z</time></trkpt>
<trkpt lat="42.173786" lon="23.362991"><ele>2739.8</ele><time>2026-03-02T09:38:24.000Z</time></trkpt>
<trkpt lat="42.173786" lon="23.362991"><ele>2739.8</ele><time>2026-03-02T09:38:25.000Z</time></trkpt>
<trkpt lat="42.173786" lon="23.362991"><ele>2739.8</ele><time>2026-03-02T09:38:26.000Z</time></trkpt>
<trkpt lat="42.173787" lon="23.362991"><ele>2739.8</ele><time>2026-03-02T09:38:27.000Z</time></trkpt>
<trkpt lat="42.173787" lon="23.362991"><ele>2739.8</ele><time>2026-03-02T09:38:28.000Z</time></trkpt>
<trkpt lat="42.173787" lon="23.362991"><ele>2739.8</ele><time>2026-03-02T09:38:29.000Z</time></trkpt>
<trkpt lat="42.173787" lon="23.362991"><ele>2739.8</ele><time>2026-03-02T09:38:30.000Z</time></trkpt>
<trkpt lat="42.173787" lon="23.362991"><ele>2739.8</ele><time>2026-03-02T09:38:31.000Z</time></trkpt>
<trkpt lat="42.173787" lon="23.362991"><ele>2739.8</ele><time>2026-03-02T09:38:32.000Z</time></trkpt>
<trkpt lat="42.173786" lon="23.362992"><ele>2739.8</ele><time>2026-03-02T09:38:33.000Z</time></trkpt>
<trkpt lat="42.173786" lon="23.362992"><ele>2739.8</ele><time>2026-03-02T09:38:34.000Z</time></trkpt>
<trkpt lat="42.173785" lon="23.362993"><ele>2739.8</ele><time>2026-03-02T09:38:35.000Z</time></trkpt>
<trkpt lat="42.173784" lon="23.362995"><ele>2739.8</ele><time>2026-03-02T09:38:36.000Z</time></trkpt>
<trkpt lat="42.173785" lon="23.362995"><ele>2739.8</ele><time>2026-03-02T09:38:37.000Z</time></trkpt>
<trkpt lat="42.173785" lon="23.362996"><ele>2739.8</ele><time>2026-03-02T09:38:38.000Z</time></trkpt>
<trkpt lat="42.173786" lon="23.362997"><ele>2739.8</ele><time>2026-03-02T09:38:39.000Z</time></trkpt>
<trkpt lat="42.173786" lon="23.362997"><ele>2739.8</ele><time>2026-03-02T09:38:40.000Z</time></trkpt>
<trkpt lat="42.173787" lon="23.362998"><ele>2739.8</ele><time>2026-03-02T09:38:41.000Z</time></trkpt>
<trkpt lat="42.173788" lon="23.362998"><ele>2739.8</ele><time>2026-03-02T09:38:42.000Z</time></trkpt>
<trkpt lat="42.173788" lon="23.362998"><ele>2739.8</ele><time>2026-03-02T09:38:43.000Z</time></trkpt>
<trkpt lat="42.173788" lon="23.362997"><ele>2739.8</ele><time>2026-03-02T09:38:44.000Z</time></trkpt>
<trkpt lat="42.173789" lon="23.362997"><ele>2739.7</ele><time>2026-03-02T09:38:45.000Z</time></trkpt>
<trkpt lat="42.173789" lon="23.362997"><ele>2739.7</ele><time>2026-03-02T09:38:46.000Z</time></trkpt>
<trkpt lat="42.173789" lon="23.362997"><ele>2739.7</ele><time>2026-03-02T09:38:47.000Z</time></trkpt>
<trkpt lat="42.17379" lon="23.362997"><ele>2739.7</ele><time>2026-03-02T09:38:48.000Z</time></trkpt>
<trkpt lat="42.17379" lon="23.362997"><ele>2739.7</ele><time>2026-03-02T09:38:49.000Z</time></trkpt>
<trkpt lat="42.17379" lon="23.362997"><ele>2739.4</ele><time>2026-03-02T09:38:50.000Z</time></trkpt>
<trkpt lat="42.17379" lon="23.362997"><ele>2739.4</ele><time>2026-03-02T09:38:51.000Z</time></trkpt>
<trkpt lat="42.173791" lon="23.362999"><ele>2739.4</ele><time>2026-03-02T09:38:52.000Z</time></trkpt>
<trkpt lat="42.173793" lon="23.363001"><ele>2739.4</ele><time>2026-03-02T09:38:53.000Z</time></trkpt>
<trkpt lat="42.173795" lon="23.363004"><ele>2739.4</ele><time>2026-03-02T09:38:54.000Z</time></trkpt>
<trkpt lat="42.173797" lon="23.363008"><ele>2739.3</ele><time>2026-03-02T09:38:55.000Z</time></trkpt>
<trkpt lat="42.173799" lon="23.363013"><ele>2739.3</ele><time>2026-03-02T09:38:56.000Z</time></trkpt>
<trkpt lat="42.1738" lon="23.363016"><ele>2739.3</ele><time>2026-03-02T09:38:57.000Z</time></trkpt>
<trkpt lat="42.173799" lon="23.363018"><ele>2739.3</ele><time>2026-03-02T09:38:58.000Z</time></trkpt>
<trkpt lat="42.173798" lon="23.363018"><ele>2739.3</ele><time>2026-03-02T09:38:59.000Z</time></trkpt>
<trkpt lat="42.173798" lon="23.363017"><ele>2739.5</ele><time>2026-03-02T09:39:00.000Z</time></trkpt>
<trkpt lat="42.173796" lon="23.363016"><ele>2739.5</ele><time>2026-03-02T09:39:01.000Z</time></trkpt>
<trkpt lat="42.173796" lon="23.363014"><ele>2739.5</ele><time>2026-03-02T09:39:02.000Z</time></trkpt>
<trkpt lat="42.173796" lon="23.363014"><ele>2739.5</ele><time>2026-03-02T09:39:03.000Z</time></trkpt>
<trkpt lat="42.173796" lon="23.363014"><ele>2739.5</ele><time>2026-03-02T09:39:04.000Z</time></trkpt>
<trkpt lat="42.173796" lon="23.363014"><ele>2739.9</ele><time>2026-03-02T09:39:05.000Z</time></trkpt>
<trkpt lat="42.173795" lon="23.363014"><ele>2739.9</ele><time>2026-03-02T09:39:06.000Z</time></trkpt>
<trkpt lat="42.173795" lon="23.363014"><ele>2739.9</ele><time>2026-03-02T09:39:07.000Z</time></trkpt>
<trkpt lat="42.173795" lon="23.363014"><ele>2739.9</ele><time>2026-03-02T09:39:08.000Z</time></trkpt>
<trkpt lat="42.173795" lon="23.363014"><ele>2739.9</ele><time>2026-03-02T09:39:09.000Z</time></trkpt>
<trkpt lat="42.173795" lon="23.363014"><ele>2740</ele><time>2026-03-02T09:39:10.000Z</time></trkpt>
<trkpt lat="42.173795" lon="23.363014"><ele>2740</ele><time>2026-03-02T09:39:11.000Z</time></trkpt>
<trkpt lat="42.173795" lon="23.363014"><ele>2740</ele><time>2026-03-02T09:39:12.000Z</time></trkpt>
<trkpt lat="42.173795" lon="23.363014"><ele>2740</ele><time>2026-03-02T09:39:13.000Z</time></trkpt>
<trkpt lat="42.173795" lon="23.363014"><ele>2740</ele><time>2026-03-02T09:39:14.000Z</time></trkpt>
<trkpt lat="42.173795" lon="23.363014"><ele>2740.1</ele><time>2026-03-02T09:39:15.000Z</time></trkpt>
<trkpt lat="42.173795" lon="23.363014"><ele>2740.1</ele><time>2026-03-02T09:39:16.000Z</time></trkpt>
<trkpt lat="42.173795" lon="23.363014"><ele>2740.1</ele><time>2026-03-02T09:39:17.000Z</time></trkpt>
<trkpt lat="42.173795" lon="23.363014"><ele>2740.1</ele><time>2026-03-02T09:39:18.000Z</time></trkpt>
<trkpt lat="42.173795" lon="23.363014"><ele>2740.1</ele><time>2026-03-02T09:39:19.000Z</time></trkpt>
<trkpt lat="42.173795" lon="23.363014"><ele>2740.2</ele><time>2026-03-02T09:39:20.000Z</time></trkpt>
<trkpt lat="42.173795" lon="23.363014"><ele>2740.2</ele><time>2026-03-02T09:39:21.000Z</time></trkpt>
<trkpt lat="42.173795" lon="23.363014"><ele>2740.2</ele><time>2026-03-02T09:39:22.000Z</time></trkpt>
<trkpt lat="42.173796" lon="23.363014"><ele>2740.2</ele><time>2026-03-02T09:39:23.000Z</time></trkpt>
<trkpt lat="42.173796" lon="23.363014"><ele>2740.2</ele><time>2026-03-02T09:39:24.000Z</time></trkpt>
<trkpt lat="42.173797" lon="23.363013"><ele>2740.2</ele><time>2026-03-02T09:39:25.000Z</time></trkpt>
<trkpt lat="42.173797" lon="23.363013"><ele>2740.2</ele><time>2026-03-02T09:39:26.000Z</time></trkpt>
<trkpt lat="42.173798" lon="23.363014"><ele>2740.2</ele><time>2026-03-02T09:39:27.000Z</time></trkpt>
<trkpt lat="42.173799" lon="23.363015"><ele>2740.2</ele><time>2026-03-02T09:39:28.000Z</time></trkpt>
<trkpt lat="42.173798" lon="23.363016"><ele>2740.2</ele><time>2026-03-02T09:39:29.000Z</time></trkpt>
<trkpt lat="42.173799" lon="23.363018"><ele>2740.1</ele><time>2026-03-02T09:39:30.000Z</time></trkpt>
<trkpt lat="42.173799" lon="23.36302"><ele>2740.1</ele><time>2026-03-02T09:39:31.000Z</time></trkpt>
<trkpt lat="42.173799" lon="23.36302"><ele>2740.1</ele><time>2026-03-02T09:39:32.000Z</time></trkpt>
<trkpt lat="42.173799" lon="23.36302"><ele>2740.1</ele><time>2026-03-02T09:39:33.000Z</time></trkpt>
<trkpt lat="42.173799" lon="23.36302"><ele>2740.1</ele><time>2026-03-02T09:39:34.000Z</time></trkpt>
<trkpt lat="42.173799" lon="23.363018"><ele>2740</ele><time>2026-03-02T09:39:35.000Z</time></trkpt>
<trkpt lat="42.173799" lon="23.363018"><ele>2740</ele><time>2026-03-02T09:39:36.000Z</time></trkpt>
<trkpt lat="42.173797" lon="23.363018"><ele>2740</ele><time>2026-03-02T09:39:37.000Z</time></trkpt>
<trkpt lat="42.173797" lon="23.363017"><ele>2740</ele><time>2026-03-02T09:39:38.000Z</time></trkpt>
<trkpt lat="42.173797" lon="23.363017"><ele>2740</ele><time>2026-03-02T09:39:39.000Z</time></trkpt>
<trkpt lat="42.173797" lon="23.363017"><ele>2740</ele><time>2026-03-02T09:39:40.000Z</time></trkpt>
<trkpt lat="42.173798" lon="23.363017"><ele>2740</ele><time>2026-03-02T09:39:41.000Z</time></trkpt>
<trkpt lat="42.173798" lon="23.363017"><ele>2740</ele><time>2026-03-02T09:39:42.000Z</time></trkpt>
<trkpt lat="42.173799" lon="23.363017"><ele>2740</ele><time>2026-03-02T09:39:43.000Z</time></trkpt>
<trkpt lat="42.173799" lon="23.363017"><ele>2740</ele><time>2026-03-02T09:39:44.000Z</time></trkpt>
<trkpt lat="42.173799" lon="23.363017"><ele>2740</ele><time>2026-03-02T09:39:45.000Z</time></trkpt>
<trkpt lat="42.173799" lon="23.363017"><ele>2740</ele><time>2026-03-02T09:39:46.000Z</time></trkpt>
<trkpt lat="42.173799" lon="23.363017"><ele>2740</ele><time>2026-03-02T09:39:47.000Z</time></trkpt>
<trkpt lat="42.173799" lon="23.363017"><ele>2740</ele><time>2026-03-02T09:39:48.000Z</time></trkpt>
<trkpt lat="42.173799" lon="23.363017"><ele>2740</ele><time>2026-03-02T09:39:49.000Z</time></trkpt>
<trkpt lat="42.173799" lon="23.363017"><ele>2740.1</ele><time>2026-03-02T09:39:50.000Z</time></trkpt>
<trkpt lat="42.173799" lon="23.363017"><ele>2740.1</ele><time>2026-03-02T09:39:51.000Z</time></trkpt>
<trkpt lat="42.173799" lon="23.363017"><ele>2740.1</ele><time>2026-03-02T09:39:52.000Z</time></trkpt>
<trkpt lat="42.173799" lon="23.363017"><ele>2740.1</ele><time>2026-03-02T09:39:53.000Z</time></trkpt>
<trkpt lat="42.173799" lon="23.363016"><ele>2740.1</ele><time>2026-03-02T09:39:54.000Z</time></trkpt>
<trkpt lat="42.173799" lon="23.363016"><ele>2740.1</ele><time>2026-03-02T09:39:55.000Z</time></trkpt>
<trkpt lat="42.173798" lon="23.363015"><ele>2740.1</ele><time>2026-03-02T09:39:56.000Z</time></trkpt>
<trkpt lat="42.173798" lon="23.363013"><ele>2740.1</ele><time>2026-03-02T09:39:57.000Z</time></trkpt>
<trkpt lat="42.173797" lon="23.363012"><ele>2740.1</ele><time>2026-03-02T09:39:58.000Z</time></trkpt>
<trkpt lat="42.173797" lon="23.36301"><ele>2740.1</ele><time>2026-03-02T09:39:59.000Z</time></trkpt>
<trkpt lat="42.173796" lon="23.363009"><ele>2740.2</ele><time>2026-03-02T09:40:00.000Z</time></trkpt>
<trkpt lat="42.173797" lon="23.363009"><ele>2740.2</ele><time>2026-03-02T09:40:01.000Z</time></trkpt>
<trkpt lat="42.173798" lon="23.363009"><ele>2740.2</ele><time>2026-03-02T09:40:02.000Z</time></trkpt>
<trkpt lat="42.173798" lon="23.36301"><ele>2740.2</ele><time>2026-03-02T09:40:03.000Z</time></trkpt>
<trkpt lat="42.173799" lon="23.36301"><ele>2740.2</ele><time>2026-03-02T09:40:04.000Z</time></trkpt>
<trkpt lat="42.173799" lon="23.36301"><ele>2740.2</ele><time>2026-03-02T09:40:05.000Z</time></trkpt>
<trkpt lat="42.173799" lon="23.36301"><ele>2740.2</ele><time>2026-03-02T09:40:06.000Z</time></trkpt>
<trkpt lat="42.173799" lon="23.36301"><ele>2740.2</ele><time>2026-03-02T09:40:07.000Z</time></trkpt>
<trkpt lat="42.173798" lon="23.363012"><ele>2740.2</ele><time>2026-03-02T09:40:08.000Z</time></trkpt>
<trkpt lat="42.173795" lon="23.363015"><ele>2740.2</ele><time>2026-03-02T09:40:09.000Z</time></trkpt>
<trkpt lat="42.173792" lon="23.36302"><ele>2740.1</ele><time>2026-03-02T09:40:10.000Z</time></trkpt>
<trkpt lat="42.173788" lon="23.363024"><ele>2740.1</ele><time>2026-03-02T09:40:11.000Z</time></trkpt>
<trkpt lat="42.173784" lon="23.363028"><ele>2740.1</ele><time>2026-03-02T09:40:12.000Z</time></trkpt>
<trkpt lat="42.173782" lon="23.36303"><ele>2740.1</ele><time>2026-03-02T09:40:13.000Z</time></trkpt>
<trkpt lat="42.173782" lon="23.36303"><ele>2740.1</ele><time>2026-03-02T09:40:14.000Z</time></trkpt>
<trkpt lat="42.173783" lon="23.36303"><ele>2739.9</ele><time>2026-03-02T09:40:15.000Z</time></trkpt>
<trkpt lat="42.173784" lon="23.363029"><ele>2739.9</ele><time>2026-03-02T09:40:16.000Z</time></trkpt>
<trkpt lat="42.173785" lon="23.363029"><ele>2739.9</ele><time>2026-03-02T09:40:17.000Z</time></trkpt>
<trkpt lat="42.173788" lon="23.363029"><ele>2739.9</ele><time>2026-03-02T09:40:18.000Z</time></trkpt>
<trkpt lat="42.173791" lon="23.363028"><ele>2739.9</ele><time>2026-03-02T09:40:19.000Z</time></trkpt>
<trkpt lat="42.173795" lon="23.363027"><ele>2739.8</ele><time>2026-03-02T09:40:20.000Z</time></trkpt>
<trkpt lat="42.173798" lon="23.363028"><ele>2739.8</ele><time>2026-03-02T09:40:21.000Z</time></trkpt>
<trkpt lat="42.173802" lon="23.363028"><ele>2739.8</ele><time>2026-03-02T09:40:22.000Z</time></trkpt>
<trkpt lat="42.173805" lon="23.363029"><ele>2739.8</ele><time>2026-03-02T09:40:23.000Z</time></trkpt>
<trkpt lat="42.173807" lon="23.36303"><ele>2739.8</ele><time>2026-03-02T09:40:24.000Z</time></trkpt>
<trkpt lat="42.173808" lon="23.363031"><ele>2739.8</ele><time>2026-03-02T09:40:25.000Z</time></trkpt>
<trkpt lat="42.17381" lon="23.36303"><ele>2739.8</ele><time>2026-03-02T09:40:26.000Z</time></trkpt>
<trkpt lat="42.173812" lon="23.363029"><ele>2739.8</ele><time>2026-03-02T09:40:27.000Z</time></trkpt>
<trkpt lat="42.173813" lon="23.363028"><ele>2739.8</ele><time>2026-03-02T09:40:28.000Z</time></trkpt>
<trkpt lat="42.173814" lon="23.363028"><ele>2739.8</ele><time>2026-03-02T09:40:29.000Z</time></trkpt>
<trkpt lat="42.173815" lon="23.363027"><ele>2739.8</ele><time>2026-03-02T09:40:30.000Z</time></trkpt>
<trkpt lat="42.173815" lon="23.363027"><ele>2739.8</ele><time>2026-03-02T09:40:31.000Z</time></trkpt>
<trkpt lat="42.173815" lon="23.363027"><ele>2739.8</ele><time>2026-03-02T09:40:32.000Z</time></trkpt>
<trkpt lat="42.173815" lon="23.363027"><ele>2739.8</ele><time>2026-03-02T09:40:33.000Z</time></trkpt>
<trkpt lat="42.173815" lon="23.363027"><ele>2739.8</ele><time>2026-03-02T09:40:34.000Z</time></trkpt>
<trkpt lat="42.173815" lon="23.363027"><ele>2739.9</ele><time>2026-03-02T09:40:35.000Z</time></trkpt>
<trkpt lat="42.173815" lon="23.363027"><ele>2739.9</ele><time>2026-03-02T09:40:36.000Z</time></trkpt>
<trkpt lat="42.173815" lon="23.363027"><ele>2739.9</ele><time>2026-03-02T09:40:37.000Z</time></trkpt>
<trkpt lat="42.173815" lon="23.363027"><ele>2739.9</ele><time>2026-03-02T09:40:38.000Z</time></trkpt>
<trkpt lat="42.173815" lon="23.363027"><ele>2739.9</ele><time>2026-03-02T09:40:39.000Z</time></trkpt>
<trkpt lat="42.173815" lon="23.363027"><ele>2740</ele><time>2026-03-02T09:40:40.000Z</time></trkpt>
<trkpt lat="42.173814" lon="23.363027"><ele>2740</ele><time>2026-03-02T09:40:41.000Z</time></trkpt>
<trkpt lat="42.173811" lon="23.363025"><ele>2740</ele><time>2026-03-02T09:40:42.000Z</time></trkpt>
<trkpt lat="42.173808" lon="23.363022"><ele>2740</ele><time>2026-03-02T09:40:43.000Z</time></trkpt>
<trkpt lat="42.173805" lon="23.363019"><ele>2740</ele><time>2026-03-02T09:40:44.000Z</time></trkpt>
<trkpt lat="42.173801" lon="23.363015"><ele>2740</ele><time>2026-03-02T09:40:45.000Z</time></trkpt>
<trkpt lat="42.173797" lon="23.363013"><ele>2740</ele><time>2026-03-02T09:40:46.000Z</time></trkpt>
<trkpt lat="42.173792" lon="23.36301"><ele>2740</ele><time>2026-03-02T09:40:47.000Z</time></trkpt>
<trkpt lat="42.173787" lon="23.363009"><ele>2740</ele><time>2026-03-02T09:40:48.000Z</time></trkpt>
<trkpt lat="42.173781" lon="23.363008"><ele>2740</ele><time>2026-03-02T09:40:49.000Z</time></trkpt>
<trkpt lat="42.173775" lon="23.363008"><ele>2740</ele><time>2026-03-02T09:40:50.000Z</time></trkpt>
<trkpt lat="42.17377" lon="23.363008"><ele>2740</ele><time>2026-03-02T09:40:51.000Z</time></trkpt>
<trkpt lat="42.173767" lon="23.363009"><ele>2740</ele><time>2026-03-02T09:40:52.000Z</time></trkpt>
<trkpt lat="42.173764" lon="23.363011"><ele>2740</ele><time>2026-03-02T09:40:53.000Z</time></trkpt>
<trkpt lat="42.173763" lon="23.363012"><ele>2740</ele><time>2026-03-02T09:40:54.000Z</time></trkpt>
<trkpt lat="42.173762" lon="23.363013"><ele>2739.9</ele><time>2026-03-02T09:40:55.000Z</time></trkpt>
<trkpt lat="42.173762" lon="23.363014"><ele>2739.9</ele><time>2026-03-02T09:40:56.000Z</time></trkpt>
<trkpt lat="42.173762" lon="23.363014"><ele>2739.9</ele><time>2026-03-02T09:40:57.000Z</time></trkpt>
<trkpt lat="42.173762" lon="23.363015"><ele>2739.9</ele><time>2026-03-02T09:40:58.000Z</time></trkpt>
<trkpt lat="42.173762" lon="23.363015"><ele>2739.9</ele><time>2026-03-02T09:40:59.000Z</time></trkpt>
<trkpt lat="42.173762" lon="23.363016"><ele>2740</ele><time>2026-03-02T09:41:00.000Z</time></trkpt>
<trkpt lat="42.173762" lon="23.363016"><ele>2740</ele><time>2026-03-02T09:41:01.000Z</time></trkpt>
<trkpt lat="42.173762" lon="23.363016"><ele>2740</ele><time>2026-03-02T09:41:02.000Z</time></trkpt>
<trkpt lat="42.173761" lon="23.363016"><ele>2740</ele><time>2026-03-02T09:41:03.000Z</time></trkpt>
<trkpt lat="42.173761" lon="23.363016"><ele>2740</ele><time>2026-03-02T09:41:04.000Z</time></trkpt>
<trkpt lat="42.17376" lon="23.363016"><ele>2740.2</ele><time>2026-03-02T09:41:05.000Z</time></trkpt>
<trkpt lat="42.17376" lon="23.363016"><ele>2740.2</ele><time>2026-03-02T09:41:06.000Z</time></trkpt>
<trkpt lat="42.17376" lon="23.363016"><ele>2740.2</ele><time>2026-03-02T09:41:07.000Z</time></trkpt>
<trkpt lat="42.173761" lon="23.363017"><ele>2740.2</ele><time>2026-03-02T09:41:08.000Z</time></trkpt>
<trkpt lat="42.173764" lon="23.363018"><ele>2740.2</ele><time>2026-03-02T09:41:09.000Z</time></trkpt>
<trkpt lat="42.173767" lon="23.363021"><ele>2740.2</ele><time>2026-03-02T09:41:10.000Z</time></trkpt>
<trkpt lat="42.173771" lon="23.363025"><ele>2740.2</ele><time>2026-03-02T09:41:11.000Z</time></trkpt>
<trkpt lat="42.173775" lon="23.363031"><ele>2740.2</ele><time>2026-03-02T09:41:12.000Z</time></trkpt>
<trkpt lat="42.173777" lon="23.363035"><ele>2740.2</ele><time>2026-03-02T09:41:13.000Z</time></trkpt>
<trkpt lat="42.173779" lon="23.363037"><ele>2740.2</ele><time>2026-03-02T09:41:14.000Z</time></trkpt>
<trkpt lat="42.173779" lon="23.363039"><ele>2740.1</ele><time>2026-03-02T09:41:15.000Z</time></trkpt>
<trkpt lat="42.17378" lon="23.363039"><ele>2740.1</ele><time>2026-03-02T09:41:16.000Z</time></trkpt>
<trkpt lat="42.17378" lon="23.363039"><ele>2740.1</ele><time>2026-03-02T09:41:17.000Z</time></trkpt>
<trkpt lat="42.173781" lon="23.363039"><ele>2740.1</ele><time>2026-03-02T09:41:18.000Z</time></trkpt>
<trkpt lat="42.173781" lon="23.363039"><ele>2740.1</ele><time>2026-03-02T09:41:19.000Z</time></trkpt>
<trkpt lat="42.173781" lon="23.363039"><ele>2740</ele><time>2026-03-02T09:41:20.000Z</time></trkpt>
<trkpt lat="42.173781" lon="23.363039"><ele>2740</ele><time>2026-03-02T09:41:21.000Z</time></trkpt>
<trkpt lat="42.173781" lon="23.36304"><ele>2740</ele><time>2026-03-02T09:41:22.000Z</time></trkpt>
<trkpt lat="42.173781" lon="23.36304"><ele>2740</ele><time>2026-03-02T09:41:23.000Z</time></trkpt>
<trkpt lat="42.173781" lon="23.36304"><ele>2740</ele><time>2026-03-02T09:41:24.000Z</time></trkpt>
<trkpt lat="42.173781" lon="23.36304"><ele>2740.1</ele><time>2026-03-02T09:41:25.000Z</time></trkpt>
<trkpt lat="42.17378" lon="23.363039"><ele>2740.1</ele><time>2026-03-02T09:41:26.000Z</time></trkpt>
<trkpt lat="42.17378" lon="23.363039"><ele>2740.1</ele><time>2026-03-02T09:41:27.000Z</time></trkpt>
<trkpt lat="42.173779" lon="23.36304"><ele>2740.1</ele><time>2026-03-02T09:41:28.000Z</time></trkpt>
<trkpt lat="42.173778" lon="23.363041"><ele>2740.1</ele><time>2026-03-02T09:41:29.000Z</time></trkpt>
<trkpt lat="42.173777" lon="23.363042"><ele>2740.1</ele><time>2026-03-02T09:41:30.000Z</time></trkpt>
<trkpt lat="42.173776" lon="23.363043"><ele>2740.1</ele><time>2026-03-02T09:41:31.000Z</time></trkpt>
<trkpt lat="42.173775" lon="23.363044"><ele>2740.1</ele><time>2026-03-02T09:41:32.000Z</time></trkpt>
<trkpt lat="42.173773" lon="23.363045"><ele>2740.1</ele><time>2026-03-02T09:41:33.000Z</time></trkpt>
<trkpt lat="42.173772" lon="23.363045"><ele>2740.1</ele><time>2026-03-02T09:41:34.000Z</time></trkpt>
<trkpt lat="42.173772" lon="23.363044"><ele>2739.8</ele><time>2026-03-02T09:41:35.000Z</time></trkpt>
<trkpt lat="42.173771" lon="23.363044"><ele>2739.8</ele><time>2026-03-02T09:41:36.000Z</time></trkpt>
<trkpt lat="42.17377" lon="23.363044"><ele>2739.8</ele><time>2026-03-02T09:41:37.000Z</time></trkpt>
<trkpt lat="42.17377" lon="23.363044"><ele>2739.8</ele><time>2026-03-02T09:41:38.000Z</time></trkpt>
<trkpt lat="42.17377" lon="23.363043"><ele>2739.8</ele><time>2026-03-02T09:41:39.000Z</time></trkpt>
<trkpt lat="42.17377" lon="23.36304"><ele>2739.6</ele><time>2026-03-02T09:41:40.000Z</time></trkpt>
<trkpt lat="42.17377" lon="23.363036"><ele>2739.6</ele><time>2026-03-02T09:41:41.000Z</time></trkpt>
<trkpt lat="42.17377" lon="23.36303"><ele>2739.6</ele><time>2026-03-02T09:41:42.000Z</time></trkpt>
<trkpt lat="42.17377" lon="23.363022"><ele>2739.6</ele><time>2026-03-02T09:41:43.000Z</time></trkpt>
<trkpt lat="42.17377" lon="23.363015"><ele>2739.6</ele><time>2026-03-02T09:41:44.000Z</time></trkpt>
<trkpt lat="42.173771" lon="23.363011"><ele>2739.3</ele><time>2026-03-02T09:41:45.000Z</time></trkpt>
<trkpt lat="42.173771" lon="23.363007"><ele>2739.3</ele><time>2026-03-02T09:41:46.000Z</time></trkpt>
<trkpt lat="42.173772" lon="23.363006"><ele>2739.3</ele><time>2026-03-02T09:41:47.000Z</time></trkpt>
<trkpt lat="42.173773" lon="23.363005"><ele>2739.3</ele><time>2026-03-02T09:41:48.000Z</time></trkpt>
<trkpt lat="42.173773" lon="23.363004"><ele>2739.3</ele><time>2026-03-02T09:41:49.000Z</time></trkpt>
<trkpt lat="42.173773" lon="23.363004"><ele>2739.5</ele><time>2026-03-02T09:41:50.000Z</time></trkpt>
<trkpt lat="42.173773" lon="23.363004"><ele>2739.5</ele><time>2026-03-02T09:41:51.000Z</time></trkpt>
<trkpt lat="42.173773" lon="23.363004"><ele>2739.5</ele><time>2026-03-02T09:41:52.000Z</time></trkpt>
<trkpt lat="42.173773" lon="23.363004"><ele>2739.5</ele><time>2026-03-02T09:41:53.000Z</time></trkpt>
<trkpt lat="42.173773" lon="23.363004"><ele>2739.5</ele><time>2026-03-02T09:41:54.000Z</time></trkpt>
<trkpt lat="42.173773" lon="23.363004"><ele>2739.6</ele><time>2026-03-02T09:41:55.000Z</time></trkpt>
<trkpt lat="42.173773" lon="23.363004"><ele>2739.6</ele><time>2026-03-02T09:41:56.000Z</time></trkpt>
<trkpt lat="42.173773" lon="23.363004"><ele>2739.6</ele><time>2026-03-02T09:41:57.000Z</time></trkpt>
<trkpt lat="42.173773" lon="23.363004"><ele>2739.6</ele><time>2026-03-02T09:41:58.000Z</time></trkpt>
<trkpt lat="42.173773" lon="23.363004"><ele>2739.6</ele><time>2026-03-02T09:41:59.000Z</time></trkpt>
<trkpt lat="42.173773" lon="23.363004"><ele>2739.7</ele><time>2026-03-02T09:42:00.000Z</time></trkpt>
<trkpt lat="42.173773" lon="23.363004"><ele>2739.7</ele><time>2026-03-02T09:42:01.000Z</time></trkpt>
<trkpt lat="42.173773" lon="23.363004"><ele>2739.7</ele><time>2026-03-02T09:42:02.000Z</time></trkpt>
<trkpt lat="42.173773" lon="23.363003"><ele>2739.7</ele><time>2026-03-02T09:42:03.000Z</time></trkpt>
<trkpt lat="42.173773" lon="23.363003"><ele>2739.7</ele><time>2026-03-02T09:42:04.000Z</time></trkpt>
<trkpt lat="42.173773" lon="23.363003"><ele>2739.7</ele><time>2026-03-02T09:42:05.000Z</time></trkpt>
<trkpt lat="42.173773" lon="23.363003"><ele>2739.7</ele><time>2026-03-02T09:42:06.000Z</time></trkpt>
<trkpt lat="42.173773" lon="23.363003"><ele>2739.7</ele><time>2026-03-02T09:42:07.000Z</time></trkpt>
<trkpt lat="42.173773" lon="23.363003"><ele>2739.7</ele><time>2026-03-02T09:42:08.000Z</time></trkpt>
<trkpt lat="42.173773" lon="23.363004"><ele>2739.7</ele><time>2026-03-02T09:42:09.000Z</time></trkpt>
<trkpt lat="42.173773" lon="23.363004"><ele>2739.8</ele><time>2026-03-02T09:42:10.000Z</time></trkpt>
<trkpt lat="42.173773" lon="23.363004"><ele>2739.8</ele><time>2026-03-02T09:42:11.000Z</time></trkpt>
<trkpt lat="42.173773" lon="23.363004"><ele>2739.8</ele><time>2026-03-02T09:42:12.000Z</time></trkpt>
<trkpt lat="42.173773" lon="23.363004"><ele>2739.8</ele><time>2026-03-02T09:42:13.000Z</time></trkpt>
<trkpt lat="42.173774" lon="23.363004"><ele>2739.8</ele><time>2026-03-02T09:42:14.000Z</time></trkpt>
<trkpt lat="42.173774" lon="23.363004"><ele>2739.9</ele><time>2026-03-02T09:42:15.000Z</time></trkpt>
<trkpt lat="42.173774" lon="23.363003"><ele>2739.9</ele><time>2026-03-02T09:42:16.000Z</time></trkpt>
<trkpt lat="42.173774" lon="23.363003"><ele>2739.9</ele><time>2026-03-02T09:42:17.000Z</time></trkpt>
<trkpt lat="42.173774" lon="23.363003"><ele>2739.9</ele><time>2026-03-02T09:42:18.000Z</time></trkpt>
<trkpt lat="42.173774" lon="23.363003"><ele>2739.9</ele><time>2026-03-02T09:42:19.000Z</time></trkpt>
<trkpt lat="42.173774" lon="23.363003"><ele>2739.9</ele><time>2026-03-02T09:42:20.000Z</time></trkpt>
<trkpt lat="42.173775" lon="23.363002"><ele>2739.9</ele><time>2026-03-02T09:42:21.000Z</time></trkpt>
<trkpt lat="42.173775" lon="23.363001"><ele>2739.9</ele><time>2026-03-02T09:42:22.000Z</time></trkpt>
<trkpt lat="42.173775" lon="23.363001"><ele>2739.9</ele><time>2026-03-02T09:42:23.000Z</time></trkpt>
<trkpt lat="42.173775" lon="23.363"><ele>2739.9</ele><time>2026-03-02T09:42:24.000Z</time></trkpt>
<trkpt lat="42.173774" lon="23.362997"><ele>2739.9</ele><time>2026-03-02T09:42:25.000Z</time></trkpt>
<trkpt lat="42.173772" lon="23.362995"><ele>2739.9</ele><time>2026-03-02T09:42:26.000Z</time></trkpt>
<trkpt lat="42.173771" lon="23.362992"><ele>2739.9</ele><time>2026-03-02T09:42:27.000Z</time></trkpt>
<trkpt lat="42.17377" lon="23.36299"><ele>2739.9</ele><time>2026-03-02T09:42:28.000Z</time></trkpt>
<trkpt lat="42.173769" lon="23.362988"><ele>2739.9</ele><time>2026-03-02T09:42:29.000Z</time></trkpt>
<trkpt lat="42.173769" lon="23.362988"><ele>2739.9</ele><time>2026-03-02T09:42:30.000Z</time></trkpt>
<trkpt lat="42.173769" lon="23.362987"><ele>2739.9</ele><time>2026-03-02T09:42:31.000Z</time></trkpt>
<trkpt lat="42.173768" lon="23.362987"><ele>2739.9</ele><time>2026-03-02T09:42:32.000Z</time></trkpt>
<trkpt lat="42.173768" lon="23.362988"><ele>2739.9</ele><time>2026-03-02T09:42:33.000Z</time></trkpt>
<trkpt lat="42.173768" lon="23.362988"><ele>2739.9</ele><time>2026-03-02T09:42:34.000Z</time></trkpt>
<trkpt lat="42.173768" lon="23.362988"><ele>2739.8</ele><time>2026-03-02T09:42:35.000Z</time></trkpt>
<trkpt lat="42.173769" lon="23.362989"><ele>2739.8</ele><time>2026-03-02T09:42:36.000Z</time></trkpt>
<trkpt lat="42.173769" lon="23.362989"><ele>2739.8</ele><time>2026-03-02T09:42:37.000Z</time></trkpt>
<trkpt lat="42.173769" lon="23.362989"><ele>2739.8</ele><time>2026-03-02T09:42:38.000Z</time></trkpt>
<trkpt lat="42.173769" lon="23.362989"><ele>2739.8</ele><time>2026-03-02T09:42:39.000Z</time></trkpt>
<trkpt lat="42.173769" lon="23.362989"><ele>2739.7</ele><time>2026-03-02T09:42:40.000Z</time></trkpt>
<trkpt lat="42.173769" lon="23.362989"><ele>2739.7</ele><time>2026-03-02T09:42:41.000Z</time></trkpt>
<trkpt lat="42.173768" lon="23.362989"><ele>2739.7</ele><time>2026-03-02T09:42:42.000Z</time></trkpt>
<trkpt lat="42.173768" lon="23.362989"><ele>2739.7</ele><time>2026-03-02T09:42:43.000Z</time></trkpt>
<trkpt lat="42.173768" lon="23.362989"><ele>2739.7</ele><time>2026-03-02T09:42:44.000Z</time></trkpt>
<trkpt lat="42.173768" lon="23.362989"><ele>2739.6</ele><time>2026-03-02T09:42:45.000Z</time></trkpt>
<trkpt lat="42.173768" lon="23.362989"><ele>2739.6</ele><time>2026-03-02T09:42:46.000Z</time></trkpt>
<trkpt lat="42.173768" lon="23.362989"><ele>2739.6</ele><time>2026-03-02T09:42:47.000Z</time></trkpt>
<trkpt lat="42.173768" lon="23.362989"><ele>2739.6</ele><time>2026-03-02T09:42:48.000Z</time></trkpt>
<trkpt lat="42.173768" lon="23.362989"><ele>2739.6</ele><time>2026-03-02T09:42:49.000Z</time></trkpt>
<trkpt lat="42.173768" lon="23.362989"><ele>2739.6</ele><time>2026-03-02T09:42:50.000Z</time></trkpt>
<trkpt lat="42.173767" lon="23.362989"><ele>2739.6</ele><time>2026-03-02T09:42:51.000Z</time></trkpt>
<trkpt lat="42.173767" lon="23.362989"><ele>2739.6</ele><time>2026-03-02T09:42:52.000Z</time></trkpt>
<trkpt lat="42.173766" lon="23.362989"><ele>2739.6</ele><time>2026-03-02T09:42:53.000Z</time></trkpt>
<trkpt lat="42.173766" lon="23.362989"><ele>2739.6</ele><time>2026-03-02T09:42:54.000Z</time></trkpt>
<trkpt lat="42.173766" lon="23.362989"><ele>2739.6</ele><time>2026-03-02T09:42:55.000Z</time></trkpt>
<trkpt lat="42.173766" lon="23.362989"><ele>2739.6</ele><time>2026-03-02T09:42:56.000Z</time></trkpt>
<trkpt lat="42.173766" lon="23.362989"><ele>2739.6</ele><time>2026-03-02T09:42:57.000Z</time></trkpt>
<trkpt lat="42.173766" lon="23.362989"><ele>2739.6</ele><time>2026-03-02T09:42:58.000Z</time></trkpt>
<trkpt lat="42.173766" lon="23.362989"><ele>2739.6</ele><time>2026-03-02T09:42:59.000Z</time></trkpt>
<trkpt lat="42.173766" lon="23.362989"><ele>2739.7</ele><time>2026-03-02T09:43:00.000Z</time></trkpt>
<trkpt lat="42.173766" lon="23.362989"><ele>2739.7</ele><time>2026-03-02T09:43:01.000Z</time></trkpt>
<trkpt lat="42.173766" lon="23.362989"><ele>2739.7</ele><time>2026-03-02T09:43:02.000Z</time></trkpt>
<trkpt lat="42.173766" lon="23.362989"><ele>2739.7</ele><time>2026-03-02T09:43:03.000Z</time></trkpt>
<trkpt lat="42.173766" lon="23.362989"><ele>2739.7</ele><time>2026-03-02T09:43:04.000Z</time></trkpt>
<trkpt lat="42.173766" lon="23.362989"><ele>2739.7</ele><time>2026-03-02T09:43:05.000Z</time></trkpt>
<trkpt lat="42.173766" lon="23.362989"><ele>2739.7</ele><time>2026-03-02T09:43:06.000Z</time></trkpt>
<trkpt lat="42.173766" lon="23.362989"><ele>2739.7</ele><time>2026-03-02T09:43:07.000Z</time></trkpt>
<trkpt lat="42.173766" lon="23.362989"><ele>2739.7</ele><time>2026-03-02T09:43:08.000Z</time></trkpt>
<trkpt lat="42.173766" lon="23.362989"><ele>2739.7</ele><time>2026-03-02T09:43:09.000Z</time></trkpt>
<trkpt lat="42.173766" lon="23.362989"><ele>2739.7</ele><time>2026-03-02T09:43:10.000Z</time></trkpt>
<trkpt lat="42.173766" lon="23.362989"><ele>2739.7</ele><time>2026-03-02T09:43:11.000Z</time></trkpt>
<trkpt lat="42.173766" lon="23.362989"><ele>2739.7</ele><time>2026-03-02T09:43:12.000Z</time></trkpt>
<trkpt lat="42.173766" lon="23.362989"><ele>2739.7</ele><time>2026-03-02T09:43:13.000Z</time></trkpt>
<trkpt lat="42.173766" lon="23.362989"><ele>2739.7</ele><time>2026-03-02T09:43:14.000Z</time></trkpt>
<trkpt lat="42.173766" lon="23.362989"><ele>2739.7</ele><time>2026-03-02T09:43:15.000Z</time></trkpt>
<trkpt lat="42.173766" lon="23.362989"><ele>2739.7</ele><time>2026-03-02T09:43:16.000Z</time></trkpt>
<trkpt lat="42.173766" lon="23.362989"><ele>2739.7</ele><time>2026-03-02T09:43:17.000Z</time></trkpt>
<trkpt lat="42.173765" lon="23.362989"><ele>2739.7</ele><time>2026-03-02T09:43:18.000Z</time></trkpt>
<trkpt lat="42.173765" lon="23.362989"><ele>2739.7</ele><time>2026-03-02T09:43:19.000Z</time></trkpt>
<trkpt lat="42.173764" lon="23.362989"><ele>2739.8</ele><time>2026-03-02T09:43:20.000Z</time></trkpt>
<trkpt lat="42.173764" lon="23.362989"><ele>2739.8</ele><time>2026-03-02T09:43:21.000Z</time></trkpt>
<trkpt lat="42.173764" lon="23.362989"><ele>2739.8</ele><time>2026-03-02T09:43:22.000Z</time></trkpt>
<trkpt lat="42.173764" lon="23.362989"><ele>2739.8</ele><time>2026-03-02T09:43:23.000Z</time></trkpt>
<trkpt lat="42.173764" lon="23.362989"><ele>2739.8</ele><time>2026-03-02T09:43:24.000Z</time></trkpt>
<trkpt lat="42.173764" lon="23.362989"><ele>2739.8</ele><time>2026-03-02T09:43:25.000Z</time></trkpt>
<trkpt lat="42.173764" lon="23.362989"><ele>2739.8</ele><time>2026-03-02T09:43:26.000Z</time></trkpt>
<trkpt lat="42.173764" lon="23.362989"><ele>2739.8</ele><time>2026-03-02T09:43:27.000Z</time></trkpt>
<trkpt lat="42.173764" lon="23.362989"><ele>2739.8</ele><time>2026-03-02T09:43:28.000Z</time></trkpt>
<trkpt lat="42.173763" lon="23.362989"><ele>2739.8</ele><time>2026-03-02T09:43:29.000Z</time></trkpt>
<trkpt lat="42.173763" lon="23.362989"><ele>2739.7</ele><time>2026-03-02T09:43:30.000Z</time></trkpt>
<trkpt lat="42.173763" lon="23.362988"><ele>2739.7</ele><time>2026-03-02T09:43:31.000Z</time></trkpt>
<trkpt lat="42.173763" lon="23.362987"><ele>2739.7</ele><time>2026-03-02T09:43:32.000Z</time></trkpt>
<trkpt lat="42.173763" lon="23.362987"><ele>2739.7</ele><time>2026-03-02T09:43:33.000Z</time></trkpt>
<trkpt lat="42.173763" lon="23.362987"><ele>2739.7</ele><time>2026-03-02T09:43:34.000Z</time></trkpt>
<trkpt lat="42.173763" lon="23.362986"><ele>2739.7</ele><time>2026-03-02T09:43:35.000Z</time></trkpt>
<trkpt lat="42.173763" lon="23.362986"><ele>2739.7</ele><time>2026-03-02T09:43:36.000Z</time></trkpt>
<trkpt lat="42.173763" lon="23.362986"><ele>2739.7</ele><time>2026-03-02T09:43:37.000Z</time></trkpt>
<trkpt lat="42.173763" lon="23.362986"><ele>2739.7</ele><time>2026-03-02T09:43:38.000Z</time></trkpt>
<trkpt lat="42.173763" lon="23.362987"><ele>2739.7</ele><time>2026-03-02T09:43:39.000Z</time></trkpt>
<trkpt lat="42.173763" lon="23.362987"><ele>2739.7</ele><time>2026-03-02T09:43:40.000Z</time></trkpt>
<trkpt lat="42.173763" lon="23.362988"><ele>2739.7</ele><time>2026-03-02T09:43:41.000Z</time></trkpt>
<trkpt lat="42.173763" lon="23.362988"><ele>2739.7</ele><time>2026-03-02T09:43:42.000Z</time></trkpt>
<trkpt lat="42.173763" lon="23.362989"><ele>2739.7</ele><time>2026-03-02T09:43:43.000Z</time></trkpt>
<trkpt lat="42.173763" lon="23.362989"><ele>2739.7</ele><time>2026-03-02T09:43:44.000Z</time></trkpt>
<trkpt lat="42.173763" lon="23.362989"><ele>2739.6</ele><time>2026-03-02T09:43:45.000Z</time></trkpt>
<trkpt lat="42.173763" lon="23.362989"><ele>2739.6</ele><time>2026-03-02T09:43:46.000Z</time></trkpt>
<trkpt lat="42.173763" lon="23.362989"><ele>2739.6</ele><time>2026-03-02T09:43:47.000Z</time></trkpt>
<trkpt lat="42.173763" lon="23.362989"><ele>2739.6</ele><time>2026-03-02T09:43:48.000Z</time></trkpt>
<trkpt lat="42.173763" lon="23.362989"><ele>2739.6</ele><time>2026-03-02T09:43:49.000Z</time></trkpt>
<trkpt lat="42.173763" lon="23.362989"><ele>2739.5</ele><time>2026-03-02T09:43:50.000Z</time></trkpt>
<trkpt lat="42.173763" lon="23.362989"><ele>2739.5</ele><time>2026-03-02T09:43:51.000Z</time></trkpt>
<trkpt lat="42.173763" lon="23.362989"><ele>2739.5</ele><time>2026-03-02T09:43:52.000Z</time></trkpt>
<trkpt lat="42.173763" lon="23.362989"><ele>2739.5</ele><time>2026-03-02T09:43:53.000Z</time></trkpt>
<trkpt lat="42.173763" lon="23.362989"><ele>2739.5</ele><time>2026-03-02T09:43:54.000Z</time></trkpt>
<trkpt lat="42.173763" lon="23.362989"><ele>2739.5</ele><time>2026-03-02T09:43:55.000Z</time></trkpt>
<trkpt lat="42.173763" lon="23.362989"><ele>2739.5</ele><time>2026-03-02T09:43:56.000Z</time></trkpt>
<trkpt lat="42.173764" lon="23.362989"><ele>2739.5</ele><time>2026-03-02T09:43:57.000Z</time></trkpt>
<trkpt lat="42.173766" lon="23.362989"><ele>2739.5</ele><time>2026-03-02T09:43:58.000Z</time></trkpt>
<trkpt lat="42.173766" lon="23.362987"><ele>2739.5</ele><time>2026-03-02T09:43:59.000Z</time></trkpt>
<trkpt lat="42.173766" lon="23.362984"><ele>2739.5</ele><time>2026-03-02T09:44:00.000Z</time></trkpt>
<trkpt lat="42.173766" lon="23.362981"><ele>2739.5</ele><time>2026-03-02T09:44:01.000Z</time></trkpt>
<trkpt lat="42.173764" lon="23.362979"><ele>2739.5</ele><time>2026-03-02T09:44:02.000Z</time></trkpt>
<trkpt lat="42.173761" lon="23.362977"><ele>2739.5</ele><time>2026-03-02T09:44:03.000Z</time></trkpt>
<trkpt lat="42.173759" lon="23.362975"><ele>2739.5</ele><time>2026-03-02T09:44:04.000Z</time></trkpt>
<trkpt lat="42.173757" lon="23.362973"><ele>2739.4</ele><time>2026-03-02T09:44:05.000Z</time></trkpt>
<trkpt lat="42.173756" lon="23.362971"><ele>2739.4</ele><time>2026-03-02T09:44:06.000Z</time></trkpt>
<trkpt lat="42.173756" lon="23.36297"><ele>2739.4</ele><time>2026-03-02T09:44:07.000Z</time></trkpt>
<trkpt lat="42.173757" lon="23.362968"><ele>2739.4</ele><time>2026-03-02T09:44:08.000Z</time></trkpt>
<trkpt lat="42.173759" lon="23.362967"><ele>2739.4</ele><time>2026-03-02T09:44:09.000Z</time></trkpt>
<trkpt lat="42.17376" lon="23.362967"><ele>2739.2</ele><time>2026-03-02T09:44:10.000Z</time></trkpt>
<trkpt lat="42.17376" lon="23.362967"><ele>2739.2</ele><time>2026-03-02T09:44:11.000Z</time></trkpt>
<trkpt lat="42.17376" lon="23.362967"><ele>2739.2</ele><time>2026-03-02T09:44:12.000Z</time></trkpt>
<trkpt lat="42.17376" lon="23.362967"><ele>2739.2</ele><time>2026-03-02T09:44:13.000Z</time></trkpt>
<trkpt lat="42.17376" lon="23.362967"><ele>2739.2</ele><time>2026-03-02T09:44:14.000Z</time></trkpt>
<trkpt lat="42.17376" lon="23.362967"><ele>2739</ele><time>2026-03-02T09:44:15.000Z</time></trkpt>
<trkpt lat="42.17376" lon="23.362967"><ele>2739</ele><time>2026-03-02T09:44:16.000Z</time></trkpt>
<trkpt lat="42.17376" lon="23.362967"><ele>2739</ele><time>2026-03-02T09:44:17.000Z</time></trkpt>
<trkpt lat="42.17376" lon="23.362967"><ele>2739</ele><time>2026-03-02T09:44:18.000Z</time></trkpt>
<trkpt lat="42.17376" lon="23.362967"><ele>2739</ele><time>2026-03-02T09:44:19.000Z</time></trkpt>
<trkpt lat="42.17376" lon="23.362967"><ele>2739</ele><time>2026-03-02T09:44:20.000Z</time></trkpt>
<trkpt lat="42.17376" lon="23.362967"><ele>2739</ele><time>2026-03-02T09:44:21.000Z</time></trkpt>
<trkpt lat="42.17376" lon="23.362967"><ele>2739</ele><time>2026-03-02T09:44:22.000Z</time></trkpt>
<trkpt lat="42.17376" lon="23.362967"><ele>2739</ele><time>2026-03-02T09:44:23.000Z</time></trkpt>
<trkpt lat="42.17376" lon="23.362967"><ele>2739</ele><time>2026-03-02T09:44:24.000Z</time></trkpt>
<trkpt lat="42.17376" lon="23.362967"><ele>2739</ele><time>2026-03-02T09:44:25.000Z</time></trkpt>
<trkpt lat="42.17376" lon="23.362967"><ele>2739</ele><time>2026-03-02T09:44:26.000Z</time></trkpt>
<trkpt lat="42.17376" lon="23.362967"><ele>2739</ele><time>2026-03-02T09:44:27.000Z</time></trkpt>
<trkpt lat="42.17376" lon="23.362967"><ele>2739</ele><time>2026-03-02T09:44:28.000Z</time></trkpt>
<trkpt lat="42.17376" lon="23.362967"><ele>2739</ele><time>2026-03-02T09:44:29.000Z</time></trkpt>
<trkpt lat="42.17376" lon="23.362967"><ele>2739</ele><time>2026-03-02T09:44:30.000Z</time></trkpt>
<trkpt lat="42.17376" lon="23.362967"><ele>2739</ele><time>2026-03-02T09:44:31.000Z</time></trkpt>
<trkpt lat="42.17376" lon="23.362967"><ele>2739</ele><time>2026-03-02T09:44:32.000Z</time></trkpt>
<trkpt lat="42.17376" lon="23.362967"><ele>2739</ele><time>2026-03-02T09:44:33.000Z</time></trkpt>
<trkpt lat="42.17376" lon="23.362967"><ele>2739</ele><time>2026-03-02T09:44:34.000Z</time></trkpt>
<trkpt lat="42.17376" lon="23.362967"><ele>2738.9</ele><time>2026-03-02T09:44:35.000Z</time></trkpt>
<trkpt lat="42.17376" lon="23.362967"><ele>2738.9</ele><time>2026-03-02T09:44:36.000Z</time></trkpt>
<trkpt lat="42.173761" lon="23.362968"><ele>2738.9</ele><time>2026-03-02T09:44:37.000Z</time></trkpt>
<trkpt lat="42.173762" lon="23.362969"><ele>2738.9</ele><time>2026-03-02T09:44:38.000Z</time></trkpt>
<trkpt lat="42.173766" lon="23.362972"><ele>2738.9</ele><time>2026-03-02T09:44:39.000Z</time></trkpt>
<trkpt lat="42.17377" lon="23.362975"><ele>2738.8</ele><time>2026-03-02T09:44:40.000Z</time></trkpt>
<trkpt lat="42.173775" lon="23.362979"><ele>2738.8</ele><time>2026-03-02T09:44:41.000Z</time></trkpt>
<trkpt lat="42.17378" lon="23.362982"><ele>2738.8</ele><time>2026-03-02T09:44:42.000Z</time></trkpt>
<trkpt lat="42.173785" lon="23.362986"><ele>2738.8</ele><time>2026-03-02T09:44:43.000Z</time></trkpt>
<trkpt lat="42.173788" lon="23.362988"><ele>2738.8</ele><time>2026-03-02T09:44:44.000Z</time></trkpt>
<trkpt lat="42.173791" lon="23.362989"><ele>2738.8</ele><time>2026-03-02T09:44:45.000Z</time></trkpt>
<trkpt lat="42.173793" lon="23.36299"><ele>2738.8</ele><time>2026-03-02T09:44:46.000Z</time></trkpt>
<trkpt lat="42.173793" lon="23.362991"><ele>2738.8</ele><time>2026-03-02T09:44:47.000Z</time></trkpt>
<trkpt lat="42.173794" lon="23.362991"><ele>2738.8</ele><time>2026-03-02T09:44:48.000Z</time></trkpt>
<trkpt lat="42.173795" lon="23.362991"><ele>2738.8</ele><time>2026-03-02T09:44:49.000Z</time></trkpt>
<trkpt lat="42.173795" lon="23.362991"><ele>2738.9</ele><time>2026-03-02T09:44:50.000Z</time></trkpt>
<trkpt lat="42.173795" lon="23.362991"><ele>2738.9</ele><time>2026-03-02T09:44:51.000Z</time></trkpt>
<trkpt lat="42.173795" lon="23.362991"><ele>2738.9</ele><time>2026-03-02T09:44:52.000Z</time></trkpt>
<trkpt lat="42.173795" lon="23.362991"><ele>2738.9</ele><time>2026-03-02T09:44:53.000Z</time></trkpt>
<trkpt lat="42.173795" lon="23.362991"><ele>2738.9</ele><time>2026-03-02T09:44:54.000Z</time></trkpt>
<trkpt lat="42.173795" lon="23.362991"><ele>2738.9</ele><time>2026-03-02T09:44:55.000Z</time></trkpt>
<trkpt lat="42.173795" lon="23.362991"><ele>2738.9</ele><time>2026-03-02T09:44:56.000Z</time></trkpt>
<trkpt lat="42.173795" lon="23.362991"><ele>2738.9</ele><time>2026-03-02T09:44:57.000Z</time></trkpt>
<trkpt lat="42.173794" lon="23.36299"><ele>2738.9</ele><time>2026-03-02T09:44:58.000Z</time></trkpt>
<trkpt lat="42.173792" lon="23.362988"><ele>2738.9</ele><time>2026-03-02T09:44:59.000Z</time></trkpt>
<trkpt lat="42.17379" lon="23.362987"><ele>2739</ele><time>2026-03-02T09:45:00.000Z</time></trkpt>
<trkpt lat="42.173786" lon="23.362986"><ele>2739</ele><time>2026-03-02T09:45:01.000Z</time></trkpt>
<trkpt lat="42.173783" lon="23.362985"><ele>2739</ele><time>2026-03-02T09:45:02.000Z</time></trkpt>
<trkpt lat="42.17378" lon="23.362986"><ele>2739</ele><time>2026-03-02T09:45:03.000Z</time></trkpt>
<trkpt lat="42.173778" lon="23.362986"><ele>2739</ele><time>2026-03-02T09:45:04.000Z</time></trkpt>
<trkpt lat="42.173776" lon="23.362988"><ele>2739</ele><time>2026-03-02T09:45:05.000Z</time></trkpt>
<trkpt lat="42.173775" lon="23.362988"><ele>2739</ele><time>2026-03-02T09:45:06.000Z</time></trkpt>
<trkpt lat="42.173773" lon="23.362987"><ele>2739</ele><time>2026-03-02T09:45:07.000Z</time></trkpt>
<trkpt lat="42.173772" lon="23.362986"><ele>2739</ele><time>2026-03-02T09:45:08.000Z</time></trkpt>
<trkpt lat="42.173772" lon="23.362986"><ele>2739</ele><time>2026-03-02T09:45:09.000Z</time></trkpt>
<trkpt lat="42.173772" lon="23.362985"><ele>2738.9</ele><time>2026-03-02T09:45:10.000Z</time></trkpt>
<trkpt lat="42.173772" lon="23.362984"><ele>2738.9</ele><time>2026-03-02T09:45:11.000Z</time></trkpt>
<trkpt lat="42.173772" lon="23.362984"><ele>2738.9</ele><time>2026-03-02T09:45:12.000Z</time></trkpt>
<trkpt lat="42.173772" lon="23.362985"><ele>2738.9</ele><time>2026-03-02T09:45:13.000Z</time></trkpt>
<trkpt lat="42.173772" lon="23.362985"><ele>2738.9</ele><time>2026-03-02T09:45:14.000Z</time></trkpt>
<trkpt lat="42.173771" lon="23.362984"><ele>2738.8</ele><time>2026-03-02T09:45:15.000Z</time></trkpt>
<trkpt lat="42.173771" lon="23.362984"><ele>2738.8</ele><time>2026-03-02T09:45:16.000Z</time></trkpt>
<trkpt lat="42.173771" lon="23.362984"><ele>2738.8</ele><time>2026-03-02T09:45:17.000Z</time></trkpt>
<trkpt lat="42.173771" lon="23.362984"><ele>2738.8</ele><time>2026-03-02T09:45:18.000Z</time></trkpt>
<trkpt lat="42.173771" lon="23.362985"><ele>2738.8</ele><time>2026-03-02T09:45:19.000Z</time></trkpt>
<trkpt lat="42.173771" lon="23.362985"><ele>2738.8</ele><time>2026-03-02T09:45:20.000Z</time></trkpt>
<trkpt lat="42.17377" lon="23.362983"><ele>2738.8</ele><time>2026-03-02T09:45:21.000Z</time></trkpt>
<trkpt lat="42.173769" lon="23.362982"><ele>2738.8</ele><time>2026-03-02T09:45:22.000Z</time></trkpt>
<trkpt lat="42.173768" lon="23.36298"><ele>2738.8</ele><time>2026-03-02T09:45:23.000Z</time></trkpt>
<trkpt lat="42.173768" lon="23.362977"><ele>2738.8</ele><time>2026-03-02T09:45:24.000Z</time></trkpt>
<trkpt lat="42.173769" lon="23.362974"><ele>2738.9</ele><time>2026-03-02T09:45:25.000Z</time></trkpt>
<trkpt lat="42.17377" lon="23.362973"><ele>2738.9</ele><time>2026-03-02T09:45:26.000Z</time></trkpt>
<trkpt lat="42.173772" lon="23.362972"><ele>2738.9</ele><time>2026-03-02T09:45:27.000Z</time></trkpt>
<trkpt lat="42.173773" lon="23.362973"><ele>2738.9</ele><time>2026-03-02T09:45:28.000Z</time></trkpt>
<trkpt lat="42.173773" lon="23.362973"><ele>2738.9</ele><time>2026-03-02T09:45:29.000Z</time></trkpt>
<trkpt lat="42.173772" lon="23.362973"><ele>2738.8</ele><time>2026-03-02T09:45:30.000Z</time></trkpt>
<trkpt lat="42.173772" lon="23.362973"><ele>2738.8</ele><time>2026-03-02T09:45:31.000Z</time></trkpt>
<trkpt lat="42.173771" lon="23.362972"><ele>2738.8</ele><time>2026-03-02T09:45:32.000Z</time></trkpt>
<trkpt lat="42.17377" lon="23.362971"><ele>2738.8</ele><time>2026-03-02T09:45:33.000Z</time></trkpt>
<trkpt lat="42.17377" lon="23.36297"><ele>2738.8</ele><time>2026-03-02T09:45:34.000Z</time></trkpt>
<trkpt lat="42.17377" lon="23.36297"><ele>2738.9</ele><time>2026-03-02T09:45:35.000Z</time></trkpt>
<trkpt lat="42.17377" lon="23.36297"><ele>2738.9</ele><time>2026-03-02T09:45:36.000Z</time></trkpt>
<trkpt lat="42.173771" lon="23.36297"><ele>2738.9</ele><time>2026-03-02T09:45:37.000Z</time></trkpt>
<trkpt lat="42.173771" lon="23.36297"><ele>2738.9</ele><time>2026-03-02T09:45:38.000Z</time></trkpt>
<trkpt lat="42.173771" lon="23.36297"><ele>2738.9</ele><time>2026-03-02T09:45:39.000Z</time></trkpt>
<trkpt lat="42.173771" lon="23.36297"><ele>2739</ele><time>2026-03-02T09:45:40.000Z</time></trkpt>
<trkpt lat="42.173771" lon="23.36297"><ele>2739</ele><time>2026-03-02T09:45:41.000Z</time></trkpt>
<trkpt lat="42.173771" lon="23.362969"><ele>2739</ele><time>2026-03-02T09:45:42.000Z</time></trkpt>
<trkpt lat="42.173771" lon="23.362969"><ele>2739</ele><time>2026-03-02T09:45:43.000Z</time></trkpt>
<trkpt lat="42.173771" lon="23.36297"><ele>2739</ele><time>2026-03-02T09:45:44.000Z</time></trkpt>
<trkpt lat="42.173771" lon="23.36297"><ele>2739.3</ele><time>2026-03-02T09:45:45.000Z</time></trkpt>
<trkpt lat="42.173771" lon="23.362972"><ele>2739.3</ele><time>2026-03-02T09:45:46.000Z</time></trkpt>
<trkpt lat="42.173771" lon="23.362973"><ele>2739.3</ele><time>2026-03-02T09:45:47.000Z</time></trkpt>
<trkpt lat="42.173771" lon="23.362974"><ele>2739.3</ele><time>2026-03-02T09:45:48.000Z</time></trkpt>
<trkpt lat="42.173772" lon="23.362975"><ele>2739.3</ele><time>2026-03-02T09:45:49.000Z</time></trkpt>
<trkpt lat="42.173771" lon="23.362975"><ele>2739.4</ele><time>2026-03-02T09:45:50.000Z</time></trkpt>
<trkpt lat="42.173771" lon="23.362976"><ele>2739.4</ele><time>2026-03-02T09:45:51.000Z</time></trkpt>
<trkpt lat="42.173771" lon="23.362976"><ele>2739.4</ele><time>2026-03-02T09:45:52.000Z</time></trkpt>
<trkpt lat="42.17377" lon="23.362976"><ele>2739.4</ele><time>2026-03-02T09:45:53.000Z</time></trkpt>
<trkpt lat="42.17377" lon="23.362976"><ele>2739.4</ele><time>2026-03-02T09:45:54.000Z</time></trkpt>
<trkpt lat="42.173769" lon="23.362976"><ele>2739.4</ele><time>2026-03-02T09:45:55.000Z</time></trkpt>
<trkpt lat="42.173769" lon="23.362976"><ele>2739.4</ele><time>2026-03-02T09:45:56.000Z</time></trkpt>
<trkpt lat="42.173769" lon="23.362976"><ele>2739.4</ele><time>2026-03-02T09:45:57.000Z</time></trkpt>
<trkpt lat="42.173769" lon="23.362977"><ele>2739.4</ele><time>2026-03-02T09:45:58.000Z</time></trkpt>
<trkpt lat="42.173769" lon="23.362977"><ele>2739.4</ele><time>2026-03-02T09:45:59.000Z</time></trkpt>
<trkpt lat="42.173769" lon="23.362977"><ele>2739.4</ele><time>2026-03-02T09:46:00.000Z</time></trkpt>
<trkpt lat="42.173769" lon="23.362977"><ele>2739.4</ele><time>2026-03-02T09:46:01.000Z</time></trkpt>
<trkpt lat="42.173768" lon="23.362977"><ele>2739.4</ele><time>2026-03-02T09:46:02.000Z</time></trkpt>
<trkpt lat="42.173768" lon="23.362977"><ele>2739.4</ele><time>2026-03-02T09:46:03.000Z</time></trkpt>
<trkpt lat="42.173768" lon="23.362977"><ele>2739.4</ele><time>2026-03-02T09:46:04.000Z</time></trkpt>
<trkpt lat="42.173767" lon="23.362977"><ele>2739.6</ele><time>2026-03-02T09:46:05.000Z</time></trkpt>
<trkpt lat="42.173767" lon="23.362977"><ele>2739.6</ele><time>2026-03-02T09:46:06.000Z</time></trkpt>
<trkpt lat="42.173766" lon="23.362978"><ele>2739.6</ele><time>2026-03-02T09:46:07.000Z</time></trkpt>
<trkpt lat="42.173766" lon="23.362978"><ele>2739.6</ele><time>2026-03-02T09:46:08.000Z</time></trkpt>
<trkpt lat="42.173766" lon="23.362978"><ele>2739.6</ele><time>2026-03-02T09:46:09.000Z</time></trkpt>
<trkpt lat="42.173765" lon="23.362977"><ele>2739.6</ele><time>2026-03-02T09:46:10.000Z</time></trkpt>
<trkpt lat="42.173765" lon="23.362977"><ele>2739.6</ele><time>2026-03-02T09:46:11.000Z</time></trkpt>
<trkpt lat="42.173765" lon="23.362976"><ele>2739.6</ele><time>2026-03-02T09:46:12.000Z</time></trkpt>
<trkpt lat="42.173765" lon="23.362976"><ele>2739.6</ele><time>2026-03-02T09:46:13.000Z</time></trkpt>
<trkpt lat="42.173765" lon="23.362975"><ele>2739.6</ele><time>2026-03-02T09:46:14.000Z</time></trkpt>
<trkpt lat="42.173765" lon="23.362975"><ele>2739.7</ele><time>2026-03-02T09:46:15.000Z</time></trkpt>
<trkpt lat="42.173766" lon="23.362975"><ele>2739.7</ele><time>2026-03-02T09:46:16.000Z</time></trkpt>
<trkpt lat="42.173765" lon="23.362975"><ele>2739.7</ele><time>2026-03-02T09:46:17.000Z</time></trkpt>
<trkpt lat="42.173765" lon="23.362973"><ele>2739.7</ele><time>2026-03-02T09:46:18.000Z</time></trkpt>
<trkpt lat="42.173767" lon="23.362972"><ele>2739.7</ele><time>2026-03-02T09:46:19.000Z</time></trkpt>
<trkpt lat="42.173767" lon="23.362972"><ele>2739.5</ele><time>2026-03-02T09:46:20.000Z</time></trkpt>
<trkpt lat="42.173767" lon="23.362971"><ele>2739.5</ele><time>2026-03-02T09:46:21.000Z</time></trkpt>
<trkpt lat="42.173768" lon="23.362972"><ele>2739.5</ele><time>2026-03-02T09:46:22.000Z</time></trkpt>
<trkpt lat="42.173768" lon="23.362974"><ele>2739.5</ele><time>2026-03-02T09:46:23.000Z</time></trkpt>
<trkpt lat="42.173766" lon="23.362978"><ele>2739.5</ele><time>2026-03-02T09:46:24.000Z</time></trkpt>
<trkpt lat="42.173764" lon="23.362981"><ele>2739.3</ele><time>2026-03-02T09:46:25.000Z</time></trkpt>
<trkpt lat="42.173763" lon="23.362985"><ele>2739.3</ele><time>2026-03-02T09:46:26.000Z</time></trkpt>
<trkpt lat="42.173762" lon="23.362989"><ele>2739.3</ele><time>2026-03-02T09:46:27.000Z</time></trkpt>
<trkpt lat="42.173761" lon="23.362992"><ele>2739.3</ele><time>2026-03-02T09:46:28.000Z</time></trkpt>
<trkpt lat="42.173761" lon="23.362992"><ele>2739.3</ele><time>2026-03-02T09:46:29.000Z</time></trkpt>
<trkpt lat="42.173761" lon="23.362993"><ele>2739</ele><time>2026-03-02T09:46:30.000Z</time></trkpt>
<trkpt lat="42.173761" lon="23.362992"><ele>2739</ele><time>2026-03-02T09:46:31.000Z</time></trkpt>
<trkpt lat="42.173761" lon="23.362991"><ele>2739</ele><time>2026-03-02T09:46:32.000Z</time></trkpt>
<trkpt lat="42.173761" lon="23.362989"><ele>2739</ele><time>2026-03-02T09:46:33.000Z</time></trkpt>
<trkpt lat="42.173761" lon="23.362988"><ele>2739</ele><time>2026-03-02T09:46:34.000Z</time></trkpt>
<trkpt lat="42.173762" lon="23.362987"><ele>2738.9</ele><time>2026-03-02T09:46:35.000Z</time></trkpt>
<trkpt lat="42.173764" lon="23.362987"><ele>2738.9</ele><time>2026-03-02T09:46:36.000Z</time></trkpt>
<trkpt lat="42.173767" lon="23.362987"><ele>2738.9</ele><time>2026-03-02T09:46:37.000Z</time></trkpt>
<trkpt lat="42.173769" lon="23.362988"><ele>2738.9</ele><time>2026-03-02T09:46:38.000Z</time></trkpt>
<trkpt lat="42.173772" lon="23.36299"><ele>2738.9</ele><time>2026-03-02T09:46:39.000Z</time></trkpt>
<trkpt lat="42.173774" lon="23.362992"><ele>2738.9</ele><time>2026-03-02T09:46:40.000Z</time></trkpt>
<trkpt lat="42.173776" lon="23.362993"><ele>2738.9</ele><time>2026-03-02T09:46:41.000Z</time></trkpt>
<trkpt lat="42.173777" lon="23.362994"><ele>2738.9</ele><time>2026-03-02T09:46:42.000Z</time></trkpt>
<trkpt lat="42.173778" lon="23.362994"><ele>2738.9</ele><time>2026-03-02T09:46:43.000Z</time></trkpt>
<trkpt lat="42.173778" lon="23.362994"><ele>2738.9</ele><time>2026-03-02T09:46:44.000Z</time></trkpt>
<trkpt lat="42.173778" lon="23.362994"><ele>2739</ele><time>2026-03-02T09:46:45.000Z</time></trkpt>
<trkpt lat="42.173778" lon="23.362994"><ele>2739</ele><time>2026-03-02T09:46:46.000Z</time></trkpt>
<trkpt lat="42.173778" lon="23.362994"><ele>2739</ele><time>2026-03-02T09:46:47.000Z</time></trkpt>
<trkpt lat="42.173779" lon="23.362994"><ele>2739</ele><time>2026-03-02T09:46:48.000Z</time></trkpt>
<trkpt lat="42.173779" lon="23.362994"><ele>2739</ele><time>2026-03-02T09:46:49.000Z</time></trkpt>
<trkpt lat="42.173778" lon="23.362994"><ele>2739</ele><time>2026-03-02T09:46:50.000Z</time></trkpt>
<trkpt lat="42.173779" lon="23.362994"><ele>2739</ele><time>2026-03-02T09:46:51.000Z</time></trkpt>
<trkpt lat="42.173779" lon="23.362994"><ele>2739</ele><time>2026-03-02T09:46:52.000Z</time></trkpt>
<trkpt lat="42.17378" lon="23.362993"><ele>2739</ele><time>2026-03-02T09:46:53.000Z</time></trkpt>
<trkpt lat="42.17378" lon="23.362992"><ele>2739</ele><time>2026-03-02T09:46:54.000Z</time></trkpt>
<trkpt lat="42.17378" lon="23.362991"><ele>2739</ele><time>2026-03-02T09:46:55.000Z</time></trkpt>
<trkpt lat="42.17378" lon="23.36299"><ele>2739</ele><time>2026-03-02T09:46:56.000Z</time></trkpt>
<trkpt lat="42.17378" lon="23.362989"><ele>2739</ele><time>2026-03-02T09:46:57.000Z</time></trkpt>
<trkpt lat="42.17378" lon="23.362988"><ele>2739</ele><time>2026-03-02T09:46:58.000Z</time></trkpt>
<trkpt lat="42.17378" lon="23.362988"><ele>2739</ele><time>2026-03-02T09:46:59.000Z</time></trkpt>
<trkpt lat="42.17378" lon="23.362988"><ele>2739.1</ele><time>2026-03-02T09:47:00.000Z</time></trkpt>
<trkpt lat="42.17378" lon="23.362988"><ele>2739.1</ele><time>2026-03-02T09:47:01.000Z</time></trkpt>
<trkpt lat="42.173781" lon="23.36299"><ele>2739.1</ele><time>2026-03-02T09:47:02.000Z</time></trkpt>
<trkpt lat="42.173782" lon="23.362991"><ele>2739.1</ele><time>2026-03-02T09:47:03.000Z</time></trkpt>
<trkpt lat="42.173783" lon="23.362993"><ele>2739.1</ele><time>2026-03-02T09:47:04.000Z</time></trkpt>
<trkpt lat="42.173787" lon="23.362994"><ele>2739.1</ele><time>2026-03-02T09:47:05.000Z</time></trkpt>
<trkpt lat="42.17379" lon="23.362995"><ele>2739.1</ele><time>2026-03-02T09:47:06.000Z</time></trkpt>
<trkpt lat="42.173793" lon="23.362995"><ele>2739.1</ele><time>2026-03-02T09:47:07.000Z</time></trkpt>
<trkpt lat="42.173796" lon="23.362994"><ele>2739.1</ele><time>2026-03-02T09:47:08.000Z</time></trkpt>
<trkpt lat="42.173798" lon="23.362993"><ele>2739.1</ele><time>2026-03-02T09:47:09.000Z</time></trkpt>
<trkpt lat="42.173799" lon="23.362991"><ele>2739.2</ele><time>2026-03-02T09:47:10.000Z</time></trkpt>
<trkpt lat="42.173799" lon="23.36299"><ele>2739.2</ele><time>2026-03-02T09:47:11.000Z</time></trkpt>
<trkpt lat="42.173799" lon="23.362988"><ele>2739.2</ele><time>2026-03-02T09:47:12.000Z</time></trkpt>
<trkpt lat="42.173799" lon="23.362987"><ele>2739.2</ele><time>2026-03-02T09:47:13.000Z</time></trkpt>
<trkpt lat="42.173799" lon="23.362986"><ele>2739.2</ele><time>2026-03-02T09:47:14.000Z</time></trkpt>
<trkpt lat="42.173799" lon="23.362986"><ele>2739.2</ele><time>2026-03-02T09:47:15.000Z</time></trkpt>
<trkpt lat="42.173799" lon="23.362986"><ele>2739.2</ele><time>2026-03-02T09:47:16.000Z</time></trkpt>
<trkpt lat="42.173799" lon="23.362986"><ele>2739.2</ele><time>2026-03-02T09:47:17.000Z</time></trkpt>
<trkpt lat="42.173799" lon="23.362986"><ele>2739.2</ele><time>2026-03-02T09:47:18.000Z</time></trkpt>
<trkpt lat="42.173799" lon="23.362986"><ele>2739.2</ele><time>2026-03-02T09:47:19.000Z</time></trkpt>
<trkpt lat="42.173799" lon="23.362986"><ele>2739.2</ele><time>2026-03-02T09:47:20.000Z</time></trkpt>
<trkpt lat="42.173799" lon="23.362986"><ele>2739.2</ele><time>2026-03-02T09:47:21.000Z</time></trkpt>
<trkpt lat="42.173799" lon="23.362987"><ele>2739.2</ele><time>2026-03-02T09:47:22.000Z</time></trkpt>
<trkpt lat="42.173798" lon="23.362988"><ele>2739.2</ele><time>2026-03-02T09:47:23.000Z</time></trkpt>
<trkpt lat="42.173798" lon="23.362988"><ele>2739.2</ele><time>2026-03-02T09:47:24.000Z</time></trkpt>
<trkpt lat="42.173798" lon="23.362989"><ele>2739.2</ele><time>2026-03-02T09:47:25.000Z</time></trkpt>
<trkpt lat="42.173797" lon="23.362989"><ele>2739.2</ele><time>2026-03-02T09:47:26.000Z</time></trkpt>
<trkpt lat="42.173798" lon="23.362989"><ele>2739.2</ele><time>2026-03-02T09:47:27.000Z</time></trkpt>
<trkpt lat="42.173798" lon="23.362989"><ele>2739.2</ele><time>2026-03-02T09:47:28.000Z</time></trkpt>
<trkpt lat="42.173798" lon="23.362989"><ele>2739.2</ele><time>2026-03-02T09:47:29.000Z</time></trkpt>
<trkpt lat="42.173799" lon="23.362989"><ele>2739.2</ele><time>2026-03-02T09:47:30.000Z</time></trkpt>
<trkpt lat="42.173799" lon="23.362989"><ele>2739.2</ele><time>2026-03-02T09:47:31.000Z</time></trkpt>
<trkpt lat="42.173799" lon="23.362989"><ele>2739.2</ele><time>2026-03-02T09:47:32.000Z</time></trkpt>
<trkpt lat="42.173799" lon="23.362989"><ele>2739.2</ele><time>2026-03-02T09:47:33.000Z</time></trkpt>
<trkpt lat="42.173799" lon="23.362989"><ele>2739.2</ele><time>2026-03-02T09:47:34.000Z</time></trkpt>
<trkpt lat="42.173799" lon="23.362989"><ele>2739.4</ele><time>2026-03-02T09:47:35.000Z</time></trkpt>
<trkpt lat="42.173799" lon="23.362989"><ele>2739.4</ele><time>2026-03-02T09:47:36.000Z</time></trkpt>
<trkpt lat="42.173799" lon="23.362989"><ele>2739.4</ele><time>2026-03-02T09:47:37.000Z</time></trkpt>
<trkpt lat="42.173799" lon="23.362989"><ele>2739.4</ele><time>2026-03-02T09:47:38.000Z</time></trkpt>
<trkpt lat="42.173799" lon="23.362989"><ele>2739.4</ele><time>2026-03-02T09:47:39.000Z</time></trkpt>
<trkpt lat="42.173799" lon="23.362989"><ele>2739.4</ele><time>2026-03-02T09:47:40.000Z</time></trkpt>
<trkpt lat="42.173799" lon="23.362989"><ele>2739.4</ele><time>2026-03-02T09:47:41.000Z</time></trkpt>
<trkpt lat="42.173799" lon="23.362989"><ele>2739.4</ele><time>2026-03-02T09:47:42.000Z</time></trkpt>
<trkpt lat="42.173799" lon="23.362989"><ele>2739.4</ele><time>2026-03-02T09:47:43.000Z</time></trkpt>
<trkpt lat="42.173799" lon="23.362989"><ele>2739.4</ele><time>2026-03-02T09:47:44.000Z</time></trkpt>
<trkpt lat="42.173799" lon="23.362989"><ele>2739.4</ele><time>2026-03-02T09:47:45.000Z</time></trkpt>
<trkpt lat="42.173799" lon="23.362989"><ele>2739.4</ele><time>2026-03-02T09:47:46.000Z</time></trkpt>
<trkpt lat="42.173799" lon="23.362989"><ele>2739.4</ele><time>2026-03-02T09:47:47.000Z</time></trkpt>
<trkpt lat="42.173799" lon="23.362989"><ele>2739.4</ele><time>2026-03-02T09:47:48.000Z</time></trkpt>
<trkpt lat="42.173799" lon="23.362989"><ele>2739.4</ele><time>2026-03-02T09:47:49.000Z</time></trkpt>
<trkpt lat="42.173799" lon="23.362989"><ele>2739.4</ele><time>2026-03-02T09:47:50.000Z</time></trkpt>
<trkpt lat="42.173799" lon="23.362989"><ele>2739.4</ele><time>2026-03-02T09:47:51.000Z</time></trkpt>
<trkpt lat="42.173799" lon="23.362989"><ele>2739.4</ele><time>2026-03-02T09:47:52.000Z</time></trkpt>
<trkpt lat="42.173799" lon="23.362989"><ele>2739.4</ele><time>2026-03-02T09:47:53.000Z</time></trkpt>
<trkpt lat="42.173798" lon="23.36299"><ele>2739.4</ele><time>2026-03-02T09:47:54.000Z</time></trkpt>
<trkpt lat="42.173798" lon="23.36299"><ele>2739.4</ele><time>2026-03-02T09:47:55.000Z</time></trkpt>
<trkpt lat="42.173798" lon="23.36299"><ele>2739.4</ele><time>2026-03-02T09:47:56.000Z</time></trkpt>
<trkpt lat="42.173799" lon="23.362989"><ele>2739.4</ele><time>2026-03-02T09:47:57.000Z</time></trkpt>
<trkpt lat="42.173799" lon="23.362988"><ele>2739.4</ele><time>2026-03-02T09:47:58.000Z</time></trkpt>
<trkpt lat="42.173799" lon="23.362989"><ele>2739.4</ele><time>2026-03-02T09:47:59.000Z</time></trkpt>
<trkpt lat="42.1738" lon="23.362988"><ele>2739.5</ele><time>2026-03-02T09:48:00.000Z</time></trkpt>
<trkpt lat="42.1738" lon="23.362988"><ele>2739.5</ele><time>2026-03-02T09:48:01.000Z</time></trkpt>
<trkpt lat="42.1738" lon="23.362988"><ele>2739.5</ele><time>2026-03-02T09:48:02.000Z</time></trkpt>
<trkpt lat="42.1738" lon="23.362988"><ele>2739.5</ele><time>2026-03-02T09:48:03.000Z</time></trkpt>
<trkpt lat="42.173802" lon="23.362987"><ele>2739.5</ele><time>2026-03-02T09:48:04.000Z</time></trkpt>
<trkpt lat="42.173803" lon="23.362986"><ele>2739.6</ele><time>2026-03-02T09:48:05.000Z</time></trkpt>
<trkpt lat="42.173805" lon="23.362985"><ele>2739.6</ele><time>2026-03-02T09:48:06.000Z</time></trkpt>
<trkpt lat="42.173807" lon="23.362985"><ele>2739.6</ele><time>2026-03-02T09:48:07.000Z</time></trkpt>
<trkpt lat="42.173807" lon="23.362985"><ele>2739.6</ele><time>2026-03-02T09:48:08.000Z</time></trkpt>
<trkpt lat="42.173807" lon="23.362985"><ele>2739.6</ele><time>2026-03-02T09:48:09.000Z</time></trkpt>
<trkpt lat="42.173808" lon="23.362986"><ele>2739.6</ele><time>2026-03-02T09:48:10.000Z</time></trkpt>
<trkpt lat="42.173807" lon="23.362986"><ele>2739.6</ele><time>2026-03-02T09:48:11.000Z</time></trkpt>
<trkpt lat="42.173806" lon="23.362986"><ele>2739.6</ele><time>2026-03-02T09:48:12.000Z</time></trkpt>
<trkpt lat="42.173805" lon="23.362987"><ele>2739.6</ele><time>2026-03-02T09:48:13.000Z</time></trkpt>
<trkpt lat="42.173804" lon="23.362987"><ele>2739.6</ele><time>2026-03-02T09:48:14.000Z</time></trkpt>
<trkpt lat="42.173802" lon="23.362987"><ele>2739.6</ele><time>2026-03-02T09:48:15.000Z</time></trkpt>
<trkpt lat="42.173802" lon="23.362987"><ele>2739.6</ele><time>2026-03-02T09:48:16.000Z</time></trkpt>
<trkpt lat="42.173802" lon="23.362987"><ele>2739.6</ele><time>2026-03-02T09:48:17.000Z</time></trkpt>
<trkpt lat="42.173801" lon="23.362987"><ele>2739.6</ele><time>2026-03-02T09:48:18.000Z</time></trkpt>
<trkpt lat="42.173801" lon="23.362986"><ele>2739.6</ele><time>2026-03-02T09:48:19.000Z</time></trkpt>
<trkpt lat="42.173801" lon="23.362986"><ele>2739.3</ele><time>2026-03-02T09:48:20.000Z</time></trkpt>
<trkpt lat="42.173801" lon="23.362985"><ele>2739.3</ele><time>2026-03-02T09:48:21.000Z</time></trkpt>
<trkpt lat="42.173802" lon="23.362986"><ele>2739.3</ele><time>2026-03-02T09:48:22.000Z</time></trkpt>
<trkpt lat="42.173802" lon="23.362986"><ele>2739.3</ele><time>2026-03-02T09:48:23.000Z</time></trkpt>
<trkpt lat="42.173803" lon="23.362986"><ele>2739.3</ele><time>2026-03-02T09:48:24.000Z</time></trkpt>
<trkpt lat="42.173804" lon="23.362985"><ele>2739.1</ele><time>2026-03-02T09:48:25.000Z</time></trkpt>
<trkpt lat="42.173805" lon="23.362984"><ele>2739.1</ele><time>2026-03-02T09:48:26.000Z</time></trkpt>
<trkpt lat="42.173806" lon="23.362984"><ele>2739.1</ele><time>2026-03-02T09:48:27.000Z</time></trkpt>
<trkpt lat="42.173807" lon="23.362983"><ele>2739.1</ele><time>2026-03-02T09:48:28.000Z</time></trkpt>
<trkpt lat="42.173808" lon="23.362982"><ele>2739.1</ele><time>2026-03-02T09:48:29.000Z</time></trkpt>
<trkpt lat="42.173808" lon="23.362982"><ele>2738.9</ele><time>2026-03-02T09:48:30.000Z</time></trkpt>
<trkpt lat="42.173808" lon="23.362982"><ele>2738.9</ele><time>2026-03-02T09:48:31.000Z</time></trkpt>
<trkpt lat="42.173807" lon="23.362982"><ele>2738.9</ele><time>2026-03-02T09:48:32.000Z</time></trkpt>
<trkpt lat="42.173806" lon="23.362982"><ele>2738.9</ele><time>2026-03-02T09:48:33.000Z</time></trkpt>
<trkpt lat="42.173805" lon="23.362982"><ele>2738.9</ele><time>2026-03-02T09:48:34.000Z</time></trkpt>
<trkpt lat="42.173804" lon="23.362982"><ele>2738.7</ele><time>2026-03-02T09:48:35.000Z</time></trkpt>
<trkpt lat="42.173804" lon="23.362981"><ele>2738.7</ele><time>2026-03-02T09:48:36.000Z</time></trkpt>
<trkpt lat="42.173803" lon="23.362981"><ele>2738.7</ele><time>2026-03-02T09:48:37.000Z</time></trkpt>
<trkpt lat="42.173803" lon="23.36298"><ele>2738.7</ele><time>2026-03-02T09:48:38.000Z</time></trkpt>
<trkpt lat="42.173803" lon="23.362979"><ele>2738.7</ele><time>2026-03-02T09:48:39.000Z</time></trkpt>
<trkpt lat="42.173803" lon="23.362979"><ele>2738.7</ele><time>2026-03-02T09:48:40.000Z</time></trkpt>
<trkpt lat="42.173803" lon="23.362978"><ele>2738.7</ele><time>2026-03-02T09:48:41.000Z</time></trkpt>
<trkpt lat="42.173803" lon="23.362978"><ele>2738.7</ele><time>2026-03-02T09:48:42.000Z</time></trkpt>
<trkpt lat="42.173803" lon="23.362979"><ele>2738.7</ele><time>2026-03-02T09:48:43.000Z</time></trkpt>
<trkpt lat="42.173803" lon="23.362979"><ele>2738.7</ele><time>2026-03-02T09:48:44.000Z</time></trkpt>
<trkpt lat="42.173802" lon="23.362979"><ele>2738.6</ele><time>2026-03-02T09:48:45.000Z</time></trkpt>
<trkpt lat="42.173802" lon="23.362979"><ele>2738.6</ele><time>2026-03-02T09:48:46.000Z</time></trkpt>
<trkpt lat="42.173802" lon="23.362979"><ele>2738.6</ele><time>2026-03-02T09:48:47.000Z</time></trkpt>
<trkpt lat="42.173802" lon="23.362979"><ele>2738.6</ele><time>2026-03-02T09:48:48.000Z</time></trkpt>
<trkpt lat="42.173802" lon="23.362979"><ele>2738.6</ele><time>2026-03-02T09:48:49.000Z</time></trkpt>
<trkpt lat="42.173802" lon="23.362979"><ele>2738.5</ele><time>2026-03-02T09:48:50.000Z</time></trkpt>
<trkpt lat="42.173802" lon="23.362979"><ele>2738.5</ele><time>2026-03-02T09:48:51.000Z</time></trkpt>
<trkpt lat="42.173802" lon="23.362979"><ele>2738.5</ele><time>2026-03-02T09:48:52.000Z</time></trkpt>
<trkpt lat="42.173802" lon="23.362979"><ele>2738.5</ele><time>2026-03-02T09:48:53.000Z</time></trkpt>
<trkpt lat="42.173802" lon="23.362979"><ele>2738.5</ele><time>2026-03-02T09:48:54.000Z</time></trkpt>
<trkpt lat="42.173802" lon="23.362979"><ele>2738.5</ele><time>2026-03-02T09:48:55.000Z</time></trkpt>
<trkpt lat="42.173802" lon="23.362979"><ele>2738.5</ele><time>2026-03-02T09:48:56.000Z</time></trkpt>
<trkpt lat="42.173802" lon="23.362979"><ele>2738.5</ele><time>2026-03-02T09:48:57.000Z</time></trkpt>
<trkpt lat="42.173802" lon="23.362979"><ele>2738.5</ele><time>2026-03-02T09:48:58.000Z</time></trkpt>
<trkpt lat="42.173802" lon="23.362979"><ele>2738.5</ele><time>2026-03-02T09:48:59.000Z</time></trkpt>
<trkpt lat="42.173802" lon="23.362979"><ele>2738.4</ele><time>2026-03-02T09:49:00.000Z</time></trkpt>
<trkpt lat="42.173802" lon="23.362979"><ele>2738.4</ele><time>2026-03-02T09:49:01.000Z</time></trkpt>
<trkpt lat="42.173802" lon="23.362979"><ele>2738.4</ele><time>2026-03-02T09:49:02.000Z</time></trkpt>
<trkpt lat="42.173802" lon="23.362978"><ele>2738.4</ele><time>2026-03-02T09:49:03.000Z</time></trkpt>
<trkpt lat="42.173802" lon="23.362978"><ele>2738.4</ele><time>2026-03-02T09:49:04.000Z</time></trkpt>
<trkpt lat="42.173801" lon="23.362978"><ele>2738.4</ele><time>2026-03-02T09:49:05.000Z</time></trkpt>
<trkpt lat="42.173801" lon="23.362977"><ele>2738.4</ele><time>2026-03-02T09:49:06.000Z</time></trkpt>
<trkpt lat="42.173801" lon="23.362977"><ele>2738.4</ele><time>2026-03-02T09:49:07.000Z</time></trkpt>
<trkpt lat="42.173801" lon="23.362977"><ele>2738.4</ele><time>2026-03-02T09:49:08.000Z</time></trkpt>
<trkpt lat="42.173801" lon="23.362977"><ele>2738.4</ele><time>2026-03-02T09:49:09.000Z</time></trkpt>
<trkpt lat="42.173801" lon="23.362977"><ele>2738.4</ele><time>2026-03-02T09:49:10.000Z</time></trkpt>
<trkpt lat="42.173802" lon="23.362977"><ele>2738.4</ele><time>2026-03-02T09:49:11.000Z</time></trkpt>
<trkpt lat="42.173802" lon="23.362977"><ele>2738.4</ele><time>2026-03-02T09:49:12.000Z</time></trkpt>
<trkpt lat="42.173802" lon="23.362977"><ele>2738.4</ele><time>2026-03-02T09:49:13.000Z</time></trkpt>
<trkpt lat="42.173803" lon="23.362977"><ele>2738.4</ele><time>2026-03-02T09:49:14.000Z</time></trkpt>
<trkpt lat="42.173804" lon="23.362977"><ele>2738.4</ele><time>2026-03-02T09:49:15.000Z</time></trkpt>
<trkpt lat="42.173804" lon="23.362977"><ele>2738.4</ele><time>2026-03-02T09:49:16.000Z</time></trkpt>
<trkpt lat="42.173805" lon="23.362977"><ele>2738.4</ele><time>2026-03-02T09:49:17.000Z</time></trkpt>
<trkpt lat="42.173806" lon="23.362977"><ele>2738.4</ele><time>2026-03-02T09:49:18.000Z</time></trkpt>
<trkpt lat="42.173806" lon="23.362977"><ele>2738.4</ele><time>2026-03-02T09:49:19.000Z</time></trkpt>
<trkpt lat="42.173806" lon="23.362977"><ele>2738.4</ele><time>2026-03-02T09:49:20.000Z</time></trkpt>
<trkpt lat="42.173807" lon="23.362977"><ele>2738.4</ele><time>2026-03-02T09:49:21.000Z</time></trkpt>
<trkpt lat="42.173807" lon="23.362977"><ele>2738.4</ele><time>2026-03-02T09:49:22.000Z</time></trkpt>
<trkpt lat="42.173806" lon="23.362977"><ele>2738.4</ele><time>2026-03-02T09:49:23.000Z</time></trkpt>
<trkpt lat="42.173806" lon="23.362977"><ele>2738.4</ele><time>2026-03-02T09:49:24.000Z</time></trkpt>
<trkpt lat="42.173806" lon="23.362977"><ele>2738.5</ele><time>2026-03-02T09:49:25.000Z</time></trkpt>
<trkpt lat="42.173806" lon="23.362977"><ele>2738.5</ele><time>2026-03-02T09:49:26.000Z</time></trkpt>
<trkpt lat="42.173806" lon="23.362977"><ele>2738.5</ele><time>2026-03-02T09:49:27.000Z</time></trkpt>
<trkpt lat="42.173807" lon="23.362977"><ele>2738.5</ele><time>2026-03-02T09:49:28.000Z</time></trkpt>
<trkpt lat="42.173807" lon="23.362977"><ele>2738.5</ele><time>2026-03-02T09:49:29.000Z</time></trkpt>
<trkpt lat="42.173807" lon="23.362977"><ele>2738.5</ele><time>2026-03-02T09:49:30.000Z</time></trkpt>
<trkpt lat="42.173807" lon="23.362977"><ele>2738.5</ele><time>2026-03-02T09:49:31.000Z</time></trkpt>
<trkpt lat="42.173808" lon="23.362978"><ele>2738.5</ele><time>2026-03-02T09:49:32.000Z</time></trkpt>
<trkpt lat="42.173808" lon="23.362978"><ele>2738.5</ele><time>2026-03-02T09:49:33.000Z</time></trkpt>
<trkpt lat="42.173808" lon="23.362978"><ele>2738.5</ele><time>2026-03-02T09:49:34.000Z</time></trkpt>
<trkpt lat="42.173808" lon="23.362979"><ele>2738.6</ele><time>2026-03-02T09:49:35.000Z</time></trkpt>
<trkpt lat="42.173808" lon="23.362979"><ele>2738.6</ele><time>2026-03-02T09:49:36.000Z</time></trkpt>
<trkpt lat="42.173808" lon="23.362979"><ele>2738.6</ele><time>2026-03-02T09:49:37.000Z</time></trkpt>
<trkpt lat="42.173808" lon="23.362979"><ele>2738.6</ele><time>2026-03-02T09:49:38.000Z</time></trkpt>
<trkpt lat="42.173807" lon="23.36298"><ele>2738.6</ele><time>2026-03-02T09:49:39.000Z</time></trkpt>
<trkpt lat="42.173807" lon="23.36298"><ele>2738.6</ele><time>2026-03-02T09:49:40.000Z</time></trkpt>
<trkpt lat="42.173807" lon="23.36298"><ele>2738.6</ele><time>2026-03-02T09:49:41.000Z</time></trkpt>
<trkpt lat="42.173807" lon="23.36298"><ele>2738.6</ele><time>2026-03-02T09:49:42.000Z</time></trkpt>
<trkpt lat="42.173808" lon="23.36298"><ele>2738.6</ele><time>2026-03-02T09:49:43.000Z</time></trkpt>
<trkpt lat="42.173808" lon="23.36298"><ele>2738.6</ele><time>2026-03-02T09:49:44.000Z</time></trkpt>
<trkpt lat="42.173809" lon="23.36298"><ele>2738.6</ele><time>2026-03-02T09:49:45.000Z</time></trkpt>
<trkpt lat="42.173809" lon="23.36298"><ele>2738.6</ele><time>2026-03-02T09:49:46.000Z</time></trkpt>
<trkpt lat="42.17381" lon="23.36298"><ele>2738.6</ele><time>2026-03-02T09:49:47.000Z</time></trkpt>
<trkpt lat="42.17381" lon="23.36298"><ele>2738.6</ele><time>2026-03-02T09:49:48.000Z</time></trkpt>
<trkpt lat="42.17381" lon="23.36298"><ele>2738.6</ele><time>2026-03-02T09:49:49.000Z</time></trkpt>
<trkpt lat="42.17381" lon="23.36298"><ele>2738.6</ele><time>2026-03-02T09:49:50.000Z</time></trkpt>
<trkpt lat="42.17381" lon="23.362981"><ele>2738.6</ele><time>2026-03-02T09:49:51.000Z</time></trkpt>
<trkpt lat="42.173809" lon="23.362981"><ele>2738.6</ele><time>2026-03-02T09:49:52.000Z</time></trkpt>
<trkpt lat="42.173809" lon="23.362981"><ele>2738.6</ele><time>2026-03-02T09:49:53.000Z</time></trkpt>
<trkpt lat="42.173809" lon="23.362981"><ele>2738.6</ele><time>2026-03-02T09:49:54.000Z</time></trkpt>
<trkpt lat="42.173809" lon="23.362981"><ele>2738.7</ele><time>2026-03-02T09:49:55.000Z</time></trkpt>
<trkpt lat="42.173809" lon="23.362981"><ele>2738.7</ele><time>2026-03-02T09:49:56.000Z</time></trkpt>
<trkpt lat="42.173809" lon="23.362981"><ele>2738.7</ele><time>2026-03-02T09:49:57.000Z</time></trkpt>
<trkpt lat="42.173809" lon="23.362981"><ele>2738.7</ele><time>2026-03-02T09:49:58.000Z</time></trkpt>
<trkpt lat="42.173809" lon="23.362981"><ele>2738.7</ele><time>2026-03-02T09:49:59.000Z</time></trkpt>
<trkpt lat="42.173809" lon="23.362981"><ele>2738.7</ele><time>2026-03-02T09:50:00.000Z</time></trkpt>
<trkpt lat="42.173809" lon="23.362981"><ele>2738.7</ele><time>2026-03-02T09:50:01.000Z</time></trkpt>
<trkpt lat="42.173809" lon="23.36298"><ele>2738.7</ele><time>2026-03-02T09:50:02.000Z</time></trkpt>
<trkpt lat="42.173809" lon="23.36298"><ele>2738.7</ele><time>2026-03-02T09:50:03.000Z</time></trkpt>
<trkpt lat="42.173808" lon="23.36298"><ele>2738.7</ele><time>2026-03-02T09:50:04.000Z</time></trkpt>
<trkpt lat="42.173808" lon="23.36298"><ele>2738.7</ele><time>2026-03-02T09:50:05.000Z</time></trkpt>
<trkpt lat="42.173807" lon="23.362979"><ele>2738.7</ele><time>2026-03-02T09:50:06.000Z</time></trkpt>
<trkpt lat="42.173806" lon="23.362978"><ele>2738.7</ele><time>2026-03-02T09:50:07.000Z</time></trkpt>
<trkpt lat="42.173806" lon="23.362977"><ele>2738.7</ele><time>2026-03-02T09:50:08.000Z</time></trkpt>
<trkpt lat="42.173805" lon="23.362976"><ele>2738.7</ele><time>2026-03-02T09:50:09.000Z</time></trkpt>
<trkpt lat="42.173805" lon="23.362975"><ele>2738.6</ele><time>2026-03-02T09:50:10.000Z</time></trkpt>
<trkpt lat="42.173805" lon="23.362975"><ele>2738.6</ele><time>2026-03-02T09:50:11.000Z</time></trkpt>
<trkpt lat="42.173804" lon="23.362975"><ele>2738.6</ele><time>2026-03-02T09:50:12.000Z</time></trkpt>
<trkpt lat="42.173803" lon="23.362974"><ele>2738.6</ele><time>2026-03-02T09:50:13.000Z</time></trkpt>
<trkpt lat="42.173803" lon="23.362973"><ele>2738.6</ele><time>2026-03-02T09:50:14.000Z</time></trkpt>
<trkpt lat="42.173803" lon="23.362973"><ele>2738.5</ele><time>2026-03-02T09:50:15.000Z</time></trkpt>
<trkpt lat="42.173803" lon="23.362973"><ele>2738.5</ele><time>2026-03-02T09:50:16.000Z</time></trkpt>
<trkpt lat="42.173803" lon="23.362972"><ele>2738.5</ele><time>2026-03-02T09:50:17.000Z</time></trkpt>
<trkpt lat="42.173804" lon="23.362973"><ele>2738.5</ele><time>2026-03-02T09:50:18.000Z</time></trkpt>
<trkpt lat="42.173804" lon="23.362973"><ele>2738.5</ele><time>2026-03-02T09:50:19.000Z</time></trkpt>
<trkpt lat="42.173805" lon="23.362974"><ele>2738.5</ele><time>2026-03-02T09:50:20.000Z</time></trkpt>
<trkpt lat="42.173805" lon="23.362974"><ele>2738.5</ele><time>2026-03-02T09:50:21.000Z</time></trkpt>
<trkpt lat="42.173806" lon="23.362975"><ele>2738.5</ele><time>2026-03-02T09:50:22.000Z</time></trkpt>
<trkpt lat="42.173806" lon="23.362976"><ele>2738.5</ele><time>2026-03-02T09:50:23.000Z</time></trkpt>
<trkpt lat="42.173806" lon="23.362976"><ele>2738.5</ele><time>2026-03-02T09:50:24.000Z</time></trkpt>
<trkpt lat="42.173806" lon="23.362977"><ele>2738.5</ele><time>2026-03-02T09:50:25.000Z</time></trkpt>
<trkpt lat="42.173806" lon="23.362977"><ele>2738.5</ele><time>2026-03-02T09:50:26.000Z</time></trkpt>
<trkpt lat="42.173806" lon="23.362977"><ele>2738.5</ele><time>2026-03-02T09:50:27.000Z</time></trkpt>
<trkpt lat="42.173806" lon="23.362977"><ele>2738.5</ele><time>2026-03-02T09:50:28.000Z</time></trkpt>
<trkpt lat="42.173806" lon="23.362977"><ele>2738.5</ele><time>2026-03-02T09:50:29.000Z</time></trkpt>
<trkpt lat="42.173806" lon="23.362977"><ele>2738.5</ele><time>2026-03-02T09:50:30.000Z</time></trkpt>
<trkpt lat="42.173806" lon="23.362977"><ele>2738.5</ele><time>2026-03-02T09:50:31.000Z</time></trkpt>
<trkpt lat="42.173806" lon="23.362977"><ele>2738.5</ele><time>2026-03-02T09:50:32.000Z</time></trkpt>
<trkpt lat="42.173806" lon="23.362977"><ele>2738.5</ele><time>2026-03-02T09:50:33.000Z</time></trkpt>
<trkpt lat="42.173806" lon="23.362977"><ele>2738.5</ele><time>2026-03-02T09:50:34.000Z</time></trkpt>
<trkpt lat="42.173806" lon="23.362977"><ele>2738.6</ele><time>2026-03-02T09:50:35.000Z</time></trkpt>
<trkpt lat="42.173806" lon="23.362977"><ele>2738.6</ele><time>2026-03-02T09:50:36.000Z</time></trkpt>
<trkpt lat="42.173806" lon="23.362977"><ele>2738.6</ele><time>2026-03-02T09:50:37.000Z</time></trkpt>
<trkpt lat="42.173806" lon="23.362977"><ele>2738.6</ele><time>2026-03-02T09:50:38.000Z</time></trkpt>
<trkpt lat="42.173805" lon="23.362978"><ele>2738.6</ele><time>2026-03-02T09:50:39.000Z</time></trkpt>
<trkpt lat="42.173805" lon="23.362978"><ele>2738.6</ele><time>2026-03-02T09:50:40.000Z</time></trkpt>
<trkpt lat="42.173805" lon="23.362978"><ele>2738.6</ele><time>2026-03-02T09:50:41.000Z</time></trkpt>
<trkpt lat="42.173804" lon="23.362979"><ele>2738.6</ele><time>2026-03-02T09:50:42.000Z</time></trkpt>
<trkpt lat="42.173804" lon="23.362979"><ele>2738.6</ele><time>2026-03-02T09:50:43.000Z</time></trkpt>
<trkpt lat="42.173804" lon="23.362979"><ele>2738.6</ele><time>2026-03-02T09:50:44.000Z</time></trkpt>
<trkpt lat="42.173804" lon="23.362979"><ele>2738.7</ele><time>2026-03-02T09:50:45.000Z</time></trkpt>
<trkpt lat="42.173804" lon="23.362979"><ele>2738.7</ele><time>2026-03-02T09:50:46.000Z</time></trkpt>
<trkpt lat="42.173804" lon="23.362979"><ele>2738.7</ele><time>2026-03-02T09:50:47.000Z</time></trkpt>
<trkpt lat="42.173804" lon="23.362979"><ele>2738.7</ele><time>2026-03-02T09:50:48.000Z</time></trkpt>
<trkpt lat="42.173803" lon="23.362979"><ele>2738.7</ele><time>2026-03-02T09:50:49.000Z</time></trkpt>
<trkpt lat="42.173803" lon="23.36298"><ele>2738.7</ele><time>2026-03-02T09:50:50.000Z</time></trkpt>
<trkpt lat="42.173803" lon="23.36298"><ele>2738.7</ele><time>2026-03-02T09:50:51.000Z</time></trkpt>
<trkpt lat="42.173803" lon="23.36298"><ele>2738.7</ele><time>2026-03-02T09:50:52.000Z</time></trkpt>
<trkpt lat="42.173803" lon="23.36298"><ele>2738.7</ele><time>2026-03-02T09:50:53.000Z</time></trkpt>
<trkpt lat="42.173803" lon="23.362981"><ele>2738.7</ele><time>2026-03-02T09:50:54.000Z</time></trkpt>
<trkpt lat="42.173803" lon="23.36298"><ele>2738.7</ele><time>2026-03-02T09:50:55.000Z</time></trkpt>
<trkpt lat="42.173802" lon="23.36298"><ele>2738.7</ele><time>2026-03-02T09:50:56.000Z</time></trkpt>
<trkpt lat="42.173802" lon="23.362979"><ele>2738.7</ele><time>2026-03-02T09:50:57.000Z</time></trkpt>
<trkpt lat="42.173802" lon="23.362979"><ele>2738.7</ele><time>2026-03-02T09:50:58.000Z</time></trkpt>
<trkpt lat="42.173801" lon="23.362979"><ele>2738.7</ele><time>2026-03-02T09:50:59.000Z</time></trkpt>
<trkpt lat="42.173801" lon="23.362979"><ele>2738.5</ele><time>2026-03-02T09:51:00.000Z</time></trkpt>
<trkpt lat="42.173801" lon="23.36298"><ele>2738.5</ele><time>2026-03-02T09:51:01.000Z</time></trkpt>
<trkpt lat="42.173801" lon="23.36298"><ele>2738.5</ele><time>2026-03-02T09:51:02.000Z</time></trkpt>
<trkpt lat="42.173801" lon="23.362981"><ele>2738.5</ele><time>2026-03-02T09:51:03.000Z</time></trkpt>
<trkpt lat="42.173801" lon="23.362981"><ele>2738.5</ele><time>2026-03-02T09:51:04.000Z</time></trkpt>
<trkpt lat="42.173801" lon="23.362981"><ele>2738.4</ele><time>2026-03-02T09:51:05.000Z</time></trkpt>
<trkpt lat="42.173801" lon="23.362981"><ele>2738.4</ele><time>2026-03-02T09:51:06.000Z</time></trkpt>
<trkpt lat="42.1738" lon="23.362981"><ele>2738.4</ele><time>2026-03-02T09:51:07.000Z</time></trkpt>
<trkpt lat="42.1738" lon="23.36298"><ele>2738.4</ele><time>2026-03-02T09:51:08.000Z</time></trkpt>
<trkpt lat="42.173799" lon="23.36298"><ele>2738.4</ele><time>2026-03-02T09:51:09.000Z</time></trkpt>
<trkpt lat="42.173798" lon="23.362979"><ele>2738.4</ele><time>2026-03-02T09:51:10.000Z</time></trkpt>
<trkpt lat="42.173798" lon="23.362979"><ele>2738.4</ele><time>2026-03-02T09:51:11.000Z</time></trkpt>
<trkpt lat="42.173797" lon="23.362979"><ele>2738.4</ele><time>2026-03-02T09:51:12.000Z</time></trkpt>
<trkpt lat="42.173797" lon="23.362978"><ele>2738.4</ele><time>2026-03-02T09:51:13.000Z</time></trkpt>
<trkpt lat="42.173797" lon="23.362978"><ele>2738.4</ele><time>2026-03-02T09:51:14.000Z</time></trkpt>
<trkpt lat="42.173797" lon="23.362978"><ele>2738.4</ele><time>2026-03-02T09:51:15.000Z</time></trkpt>
<trkpt lat="42.173797" lon="23.362978"><ele>2738.4</ele><time>2026-03-02T09:51:16.000Z</time></trkpt>
<trkpt lat="42.173797" lon="23.362978"><ele>2738.4</ele><time>2026-03-02T09:51:17.000Z</time></trkpt>
<trkpt lat="42.173797" lon="23.362978"><ele>2738.4</ele><time>2026-03-02T09:51:18.000Z</time></trkpt>
<trkpt lat="42.173797" lon="23.362978"><ele>2738.4</ele><time>2026-03-02T09:51:19.000Z</time></trkpt>
<trkpt lat="42.173797" lon="23.362978"><ele>2738.5</ele><time>2026-03-02T09:51:20.000Z</time></trkpt>
<trkpt lat="42.173798" lon="23.362978"><ele>2738.5</ele><time>2026-03-02T09:51:21.000Z</time></trkpt>
<trkpt lat="42.173798" lon="23.362978"><ele>2738.5</ele><time>2026-03-02T09:51:22.000Z</time></trkpt>
<trkpt lat="42.173798" lon="23.362979"><ele>2738.5</ele><time>2026-03-02T09:51:23.000Z</time></trkpt>
<trkpt lat="42.173799" lon="23.362979"><ele>2738.5</ele><time>2026-03-02T09:51:24.000Z</time></trkpt>
<trkpt lat="42.173799" lon="23.362979"><ele>2738.5</ele><time>2026-03-02T09:51:25.000Z</time></trkpt>
<trkpt lat="42.173799" lon="23.362979"><ele>2738.5</ele><time>2026-03-02T09:51:26.000Z</time></trkpt>
<trkpt lat="42.173799" lon="23.362979"><ele>2738.5</ele><time>2026-03-02T09:51:27.000Z</time></trkpt>
<trkpt lat="42.173799" lon="23.36298"><ele>2738.5</ele><time>2026-03-02T09:51:28.000Z</time></trkpt>
<trkpt lat="42.1738" lon="23.362981"><ele>2738.5</ele><time>2026-03-02T09:51:29.000Z</time></trkpt>
<trkpt lat="42.1738" lon="23.362982"><ele>2738.4</ele><time>2026-03-02T09:51:30.000Z</time></trkpt>
<trkpt lat="42.173801" lon="23.362983"><ele>2738.4</ele><time>2026-03-02T09:51:31.000Z</time></trkpt>
<trkpt lat="42.173802" lon="23.362984"><ele>2738.4</ele><time>2026-03-02T09:51:32.000Z</time></trkpt>
<trkpt lat="42.173803" lon="23.362984"><ele>2738.4</ele><time>2026-03-02T09:51:33.000Z</time></trkpt>
<trkpt lat="42.173803" lon="23.362985"><ele>2738.4</ele><time>2026-03-02T09:51:34.000Z</time></trkpt>
<trkpt lat="42.173803" lon="23.362985"><ele>2738.4</ele><time>2026-03-02T09:51:35.000Z</time></trkpt>
<trkpt lat="42.173803" lon="23.362985"><ele>2738.4</ele><time>2026-03-02T09:51:36.000Z</time></trkpt>
<trkpt lat="42.173802" lon="23.362985"><ele>2738.4</ele><time>2026-03-02T09:51:37.000Z</time></trkpt>
<trkpt lat="42.173801" lon="23.362985"><ele>2738.4</ele><time>2026-03-02T09:51:38.000Z</time></trkpt>
<trkpt lat="42.173801" lon="23.362985"><ele>2738.4</ele><time>2026-03-02T09:51:39.000Z</time></trkpt>
<trkpt lat="42.173801" lon="23.362985"><ele>2738.4</ele><time>2026-03-02T09:51:40.000Z</time></trkpt>
<trkpt lat="42.173801" lon="23.362985"><ele>2738.4</ele><time>2026-03-02T09:51:41.000Z</time></trkpt>
<trkpt lat="42.173801" lon="23.362985"><ele>2738.4</ele><time>2026-03-02T09:51:42.000Z</time></trkpt>
<trkpt lat="42.173801" lon="23.362985"><ele>2738.4</ele><time>2026-03-02T09:51:43.000Z</time></trkpt>
<trkpt lat="42.173801" lon="23.362985"><ele>2738.4</ele><time>2026-03-02T09:51:44.000Z</time></trkpt>
<trkpt lat="42.173801" lon="23.362985"><ele>2738.4</ele><time>2026-03-02T09:51:45.000Z</time></trkpt>
<trkpt lat="42.173801" lon="23.362985"><ele>2738.4</ele><time>2026-03-02T09:51:46.000Z</time></trkpt>
<trkpt lat="42.173801" lon="23.362985"><ele>2738.4</ele><time>2026-03-02T09:51:47.000Z</time></trkpt>
<trkpt lat="42.173801" lon="23.362985"><ele>2738.4</ele><time>2026-03-02T09:51:48.000Z</time></trkpt>
<trkpt lat="42.173801" lon="23.362985"><ele>2738.4</ele><time>2026-03-02T09:51:49.000Z</time></trkpt>
<trkpt lat="42.173801" lon="23.362985"><ele>2738.4</ele><time>2026-03-02T09:51:50.000Z</time></trkpt>
<trkpt lat="42.173801" lon="23.362985"><ele>2738.4</ele><time>2026-03-02T09:51:51.000Z</time></trkpt>
<trkpt lat="42.173801" lon="23.362985"><ele>2738.4</ele><time>2026-03-02T09:51:52.000Z</time></trkpt>
<trkpt lat="42.173801" lon="23.362985"><ele>2738.4</ele><time>2026-03-02T09:51:53.000Z</time></trkpt>
<trkpt lat="42.173801" lon="23.362985"><ele>2738.4</ele><time>2026-03-02T09:51:54.000Z</time></trkpt>
<trkpt lat="42.173801" lon="23.362985"><ele>2738.4</ele><time>2026-03-02T09:51:55.000Z</time></trkpt>
<trkpt lat="42.173801" lon="23.362985"><ele>2738.4</ele><time>2026-03-02T09:51:56.000Z</time></trkpt>
<trkpt lat="42.173801" lon="23.362984"><ele>2738.4</ele><time>2026-03-02T09:51:57.000Z</time></trkpt>
<trkpt lat="42.1738" lon="23.362984"><ele>2738.4</ele><time>2026-03-02T09:51:58.000Z</time></trkpt>
<trkpt lat="42.1738" lon="23.362984"><ele>2738.4</ele><time>2026-03-02T09:51:59.000Z</time></trkpt>
<trkpt lat="42.1738" lon="23.362984"><ele>2738.2</ele><time>2026-03-02T09:52:00.000Z</time></trkpt>
<trkpt lat="42.1738" lon="23.362984"><ele>2738.2</ele><time>2026-03-02T09:52:01.000Z</time></trkpt>
<trkpt lat="42.1738" lon="23.362984"><ele>2738.2</ele><time>2026-03-02T09:52:02.000Z</time></trkpt>
<trkpt lat="42.1738" lon="23.362984"><ele>2738.2</ele><time>2026-03-02T09:52:03.000Z</time></trkpt>
<trkpt lat="42.1738" lon="23.362984"><ele>2738.2</ele><time>2026-03-02T09:52:04.000Z</time></trkpt>
<trkpt lat="42.1738" lon="23.362984"><ele>2738</ele><time>2026-03-02T09:52:05.000Z</time></trkpt>
<trkpt lat="42.1738" lon="23.362984"><ele>2738</ele><time>2026-03-02T09:52:06.000Z</time></trkpt>
<trkpt lat="42.1738" lon="23.362984"><ele>2738</ele><time>2026-03-02T09:52:07.000Z</time></trkpt>
<trkpt lat="42.1738" lon="23.362984"><ele>2738</ele><time>2026-03-02T09:52:08.000Z</time></trkpt>
<trkpt lat="42.173801" lon="23.362984"><ele>2738</ele><time>2026-03-02T09:52:09.000Z</time></trkpt>
<trkpt lat="42.173801" lon="23.362984"><ele>2738</ele><time>2026-03-02T09:52:10.000Z</time></trkpt>
<trkpt lat="42.173801" lon="23.362984"><ele>2738</ele><time>2026-03-02T09:52:11.000Z</time></trkpt>
<trkpt lat="42.173801" lon="23.362984"><ele>2738</ele><time>2026-03-02T09:52:12.000Z</time></trkpt>
<trkpt lat="42.173801" lon="23.362985"><ele>2738</ele><time>2026-03-02T09:52:13.000Z</time></trkpt>
<trkpt lat="42.1738" lon="23.362985"><ele>2738</ele><time>2026-03-02T09:52:14.000Z</time></trkpt>
<trkpt lat="42.1738" lon="23.362985"><ele>2738.2</ele><time>2026-03-02T09:52:15.000Z</time></trkpt>
<trkpt lat="42.1738" lon="23.362986"><ele>2738.2</ele><time>2026-03-02T09:52:16.000Z</time></trkpt>
<trkpt lat="42.1738" lon="23.362986"><ele>2738.2</ele><time>2026-03-02T09:52:17.000Z</time></trkpt>
<trkpt lat="42.1738" lon="23.362986"><ele>2738.2</ele><time>2026-03-02T09:52:18.000Z</time></trkpt>
<trkpt lat="42.1738" lon="23.362986"><ele>2738.2</ele><time>2026-03-02T09:52:19.000Z</time></trkpt>
<trkpt lat="42.1738" lon="23.362986"><ele>2738.6</ele><time>2026-03-02T09:52:20.000Z</time></trkpt>
<trkpt lat="42.173799" lon="23.362986"><ele>2738.6</ele><time>2026-03-02T09:52:21.000Z</time></trkpt>
<trkpt lat="42.173799" lon="23.362986"><ele>2738.6</ele><time>2026-03-02T09:52:22.000Z</time></trkpt>
<trkpt lat="42.173799" lon="23.362985"><ele>2738.6</ele><time>2026-03-02T09:52:23.000Z</time></trkpt>
<trkpt lat="42.173798" lon="23.362985"><ele>2738.6</ele><time>2026-03-02T09:52:24.000Z</time></trkpt>
<trkpt lat="42.173798" lon="23.362985"><ele>2738.7</ele><time>2026-03-02T09:52:25.000Z</time></trkpt>
<trkpt lat="42.173798" lon="23.362985"><ele>2738.7</ele><time>2026-03-02T09:52:26.000Z</time></trkpt>
<trkpt lat="42.173798" lon="23.362985"><ele>2738.7</ele><time>2026-03-02T09:52:27.000Z</time></trkpt>
<trkpt lat="42.173798" lon="23.362985"><ele>2738.7</ele><time>2026-03-02T09:52:28.000Z</time></trkpt>
<trkpt lat="42.173798" lon="23.362985"><ele>2738.7</ele><time>2026-03-02T09:52:29.000Z</time></trkpt>
<trkpt lat="42.173798" lon="23.362985"><ele>2738.6</ele><time>2026-03-02T09:52:30.000Z</time></trkpt>
<trkpt lat="42.173798" lon="23.362985"><ele>2738.6</ele><time>2026-03-02T09:52:31.000Z</time></trkpt>
<trkpt lat="42.173798" lon="23.362985"><ele>2738.6</ele><time>2026-03-02T09:52:32.000Z</time></trkpt>
<trkpt lat="42.173798" lon="23.362985"><ele>2738.6</ele><time>2026-03-02T09:52:33.000Z</time></trkpt>
<trkpt lat="42.173798" lon="23.362985"><ele>2738.6</ele><time>2026-03-02T09:52:34.000Z</time></trkpt>
<trkpt lat="42.173797" lon="23.362984"><ele>2738.4</ele><time>2026-03-02T09:52:35.000Z</time></trkpt>
<trkpt lat="42.173797" lon="23.362984"><ele>2738.4</ele><time>2026-03-02T09:52:36.000Z</time></trkpt>
<trkpt lat="42.173798" lon="23.362984"><ele>2738.4</ele><time>2026-03-02T09:52:37.000Z</time></trkpt>
<trkpt lat="42.173799" lon="23.362984"><ele>2738.4</ele><time>2026-03-02T09:52:38.000Z</time></trkpt>
<trkpt lat="42.173799" lon="23.362985"><ele>2738.4</ele><time>2026-03-02T09:52:39.000Z</time></trkpt>
<trkpt lat="42.1738" lon="23.362986"><ele>2738.3</ele><time>2026-03-02T09:52:40.000Z</time></trkpt>
<trkpt lat="42.173801" lon="23.362986"><ele>2738.3</ele><time>2026-03-02T09:52:41.000Z</time></trkpt>
<trkpt lat="42.173801" lon="23.362986"><ele>2738.3</ele><time>2026-03-02T09:52:42.000Z</time></trkpt>
<trkpt lat="42.173801" lon="23.362986"><ele>2738.3</ele><time>2026-03-02T09:52:43.000Z</time></trkpt>
<trkpt lat="42.173801" lon="23.362986"><ele>2738.3</ele><time>2026-03-02T09:52:44.000Z</time></trkpt>
<trkpt lat="42.173801" lon="23.362986"><ele>2738.3</ele><time>2026-03-02T09:52:45.000Z</time></trkpt>
<trkpt lat="42.173801" lon="23.362986"><ele>2738.3</ele><time>2026-03-02T09:52:46.000Z</time></trkpt>
<trkpt lat="42.173801" lon="23.362986"><ele>2738.3</ele><time>2026-03-02T09:52:47.000Z</time></trkpt>
<trkpt lat="42.173801" lon="23.362986"><ele>2738.3</ele><time>2026-03-02T09:52:48.000Z</time></trkpt>
<trkpt lat="42.173801" lon="23.362986"><ele>2738.3</ele><time>2026-03-02T09:52:49.000Z</time></trkpt>
<trkpt lat="42.173801" lon="23.362986"><ele>2738.3</ele><time>2026-03-02T09:52:50.000Z</time></trkpt>
<trkpt lat="42.173801" lon="23.362986"><ele>2738.3</ele><time>2026-03-02T09:52:51.000Z</time></trkpt>
<trkpt lat="42.173801" lon="23.362985"><ele>2738.3</ele><time>2026-03-02T09:52:52.000Z</time></trkpt>
<trkpt lat="42.173801" lon="23.362985"><ele>2738.3</ele><time>2026-03-02T09:52:53.000Z</time></trkpt>
<trkpt lat="42.1738" lon="23.362985"><ele>2738.3</ele><time>2026-03-02T09:52:54.000Z</time></trkpt>
<trkpt lat="42.1738" lon="23.362985"><ele>2738.4</ele><time>2026-03-02T09:52:55.000Z</time></trkpt>
<trkpt lat="42.173799" lon="23.362984"><ele>2738.4</ele><time>2026-03-02T09:52:56.000Z</time></trkpt>
<trkpt lat="42.173798" lon="23.362984"><ele>2738.4</ele><time>2026-03-02T09:52:57.000Z</time></trkpt>
<trkpt lat="42.173796" lon="23.362982"><ele>2738.4</ele><time>2026-03-02T09:52:58.000Z</time></trkpt>
<trkpt lat="42.173795" lon="23.362982"><ele>2738.4</ele><time>2026-03-02T09:52:59.000Z</time></trkpt>
<trkpt lat="42.173794" lon="23.362981"><ele>2738.8</ele><time>2026-03-02T09:53:00.000Z</time></trkpt>
<trkpt lat="42.173794" lon="23.36298"><ele>2738.8</ele><time>2026-03-02T09:53:01.000Z</time></trkpt>
<trkpt lat="42.173795" lon="23.362978"><ele>2738.8</ele><time>2026-03-02T09:53:02.000Z</time></trkpt>
<trkpt lat="42.173796" lon="23.362979"><ele>2738.8</ele><time>2026-03-02T09:53:03.000Z</time></trkpt>
<trkpt lat="42.173797" lon="23.362978"><ele>2738.8</ele><time>2026-03-02T09:53:04.000Z</time></trkpt>
<trkpt lat="42.173798" lon="23.362978"><ele>2739</ele><time>2026-03-02T09:53:05.000Z</time></trkpt>
<trkpt lat="42.173797" lon="23.362977"><ele>2739</ele><time>2026-03-02T09:53:06.000Z</time></trkpt>
<trkpt lat="42.173797" lon="23.362977"><ele>2739</ele><time>2026-03-02T09:53:07.000Z</time></trkpt>
<trkpt lat="42.173796" lon="23.362976"><ele>2739</ele><time>2026-03-02T09:53:08.000Z</time></trkpt>
<trkpt lat="42.173795" lon="23.362976"><ele>2739</ele><time>2026-03-02T09:53:09.000Z</time></trkpt>
<trkpt lat="42.173794" lon="23.362975"><ele>2739.1</ele><time>2026-03-02T09:53:10.000Z</time></trkpt>
<trkpt lat="42.173794" lon="23.362974"><ele>2739.1</ele><time>2026-03-02T09:53:11.000Z</time></trkpt>
<trkpt lat="42.173793" lon="23.362974"><ele>2739.1</ele><time>2026-03-02T09:53:12.000Z</time></trkpt>
<trkpt lat="42.173792" lon="23.362974"><ele>2739.1</ele><time>2026-03-02T09:53:13.000Z</time></trkpt>
<trkpt lat="42.173792" lon="23.362974"><ele>2739.1</ele><time>2026-03-02T09:53:14.000Z</time></trkpt>
<trkpt lat="42.173791" lon="23.362975"><ele>2739.1</ele><time>2026-03-02T09:53:15.000Z</time></trkpt>
<trkpt lat="42.17379" lon="23.362975"><ele>2739.1</ele><time>2026-03-02T09:53:16.000Z</time></trkpt>
<trkpt lat="42.17379" lon="23.362976"><ele>2739.1</ele><time>2026-03-02T09:53:17.000Z</time></trkpt>
<trkpt lat="42.17379" lon="23.362977"><ele>2739.1</ele><time>2026-03-02T09:53:18.000Z</time></trkpt>
<trkpt lat="42.17379" lon="23.362977"><ele>2739.1</ele><time>2026-03-02T09:53:19.000Z</time></trkpt>
<trkpt lat="42.17379" lon="23.362977"><ele>2738.9</ele><time>2026-03-02T09:53:20.000Z</time></trkpt>
<trkpt lat="42.17379" lon="23.362978"><ele>2738.9</ele><time>2026-03-02T09:53:21.000Z</time></trkpt>
<trkpt lat="42.17379" lon="23.362978"><ele>2738.9</ele><time>2026-03-02T09:53:22.000Z</time></trkpt>
<trkpt lat="42.17379" lon="23.362978"><ele>2738.9</ele><time>2026-03-02T09:53:23.000Z</time></trkpt>
<trkpt lat="42.17379" lon="23.362978"><ele>2738.9</ele><time>2026-03-02T09:53:24.000Z</time></trkpt>
<trkpt lat="42.17379" lon="23.362978"><ele>2738.8</ele><time>2026-03-02T09:53:25.000Z</time></trkpt>
<trkpt lat="42.17379" lon="23.362978"><ele>2738.8</ele><time>2026-03-02T09:53:26.000Z</time></trkpt>
<trkpt lat="42.17379" lon="23.362978"><ele>2738.8</ele><time>2026-03-02T09:53:27.000Z</time></trkpt>
<trkpt lat="42.17379" lon="23.362978"><ele>2738.8</ele><time>2026-03-02T09:53:28.000Z</time></trkpt>
<trkpt lat="42.17379" lon="23.362978"><ele>2738.8</ele><time>2026-03-02T09:53:29.000Z</time></trkpt>
<trkpt lat="42.17379" lon="23.362978"><ele>2738.5</ele><time>2026-03-02T09:53:30.000Z</time></trkpt>
<trkpt lat="42.17379" lon="23.362978"><ele>2738.5</ele><time>2026-03-02T09:53:31.000Z</time></trkpt>
<trkpt lat="42.17379" lon="23.362979"><ele>2738.5</ele><time>2026-03-02T09:53:32.000Z</time></trkpt>
<trkpt lat="42.173791" lon="23.362979"><ele>2738.5</ele><time>2026-03-02T09:53:33.000Z</time></trkpt>
<trkpt lat="42.173791" lon="23.36298"><ele>2738.5</ele><time>2026-03-02T09:53:34.000Z</time></trkpt>
<trkpt lat="42.173792" lon="23.36298"><ele>2738.5</ele><time>2026-03-02T09:53:35.000Z</time></trkpt>
<trkpt lat="42.173792" lon="23.36298"><ele>2738.5</ele><time>2026-03-02T09:53:36.000Z</time></trkpt>
<trkpt lat="42.173792" lon="23.36298"><ele>2738.5</ele><time>2026-03-02T09:53:37.000Z</time></trkpt>
<trkpt lat="42.173792" lon="23.36298"><ele>2738.5</ele><time>2026-03-02T09:53:38.000Z</time></trkpt>
<trkpt lat="42.173792" lon="23.362983"><ele>2738.5</ele><time>2026-03-02T09:53:39.000Z</time></trkpt>
<trkpt lat="42.173793" lon="23.362988"><ele>2738.5</ele><time>2026-03-02T09:53:40.000Z</time></trkpt>
<trkpt lat="42.173793" lon="23.362997"><ele>2738.5</ele><time>2026-03-02T09:53:41.000Z</time></trkpt>
<trkpt lat="42.173792" lon="23.363009"><ele>2738.5</ele><time>2026-03-02T09:53:42.000Z</time></trkpt>
<trkpt lat="42.173791" lon="23.363021"><ele>2738.5</ele><time>2026-03-02T09:53:43.000Z</time></trkpt>
<trkpt lat="42.173789" lon="23.363032"><ele>2738.5</ele><time>2026-03-02T09:53:44.000Z</time></trkpt>
<trkpt lat="42.173787" lon="23.363038"><ele>2738.6</ele><time>2026-03-02T09:53:45.000Z</time></trkpt>
<trkpt lat="42.173787" lon="23.36304"><ele>2738.6</ele><time>2026-03-02T09:53:46.000Z</time></trkpt>
<trkpt lat="42.173789" lon="23.36304"><ele>2738.6</ele><time>2026-03-02T09:53:47.000Z</time></trkpt>
<trkpt lat="42.173793" lon="23.363037"><ele>2738.6</ele><time>2026-03-02T09:53:48.000Z</time></trkpt>
<trkpt lat="42.173798" lon="23.363033"><ele>2738.6</ele><time>2026-03-02T09:53:49.000Z</time></trkpt>
<trkpt lat="42.173804" lon="23.363031"><ele>2738.9</ele><time>2026-03-02T09:53:50.000Z</time></trkpt>
<trkpt lat="42.173808" lon="23.363029"><ele>2738.9</ele><time>2026-03-02T09:53:51.000Z</time></trkpt>
<trkpt lat="42.17381" lon="23.363027"><ele>2738.9</ele><time>2026-03-02T09:53:52.000Z</time></trkpt>
<trkpt lat="42.17381" lon="23.363025"><ele>2738.9</ele><time>2026-03-02T09:53:53.000Z</time></trkpt>
<trkpt lat="42.173809" lon="23.363024"><ele>2738.9</ele><time>2026-03-02T09:53:54.000Z</time></trkpt>
<trkpt lat="42.173807" lon="23.363023"><ele>2739</ele><time>2026-03-02T09:53:55.000Z</time></trkpt>
<trkpt lat="42.173805" lon="23.363022"><ele>2739</ele><time>2026-03-02T09:53:56.000Z</time></trkpt>
<trkpt lat="42.173803" lon="23.363021"><ele>2739</ele><time>2026-03-02T09:53:57.000Z</time></trkpt>
<trkpt lat="42.173802" lon="23.36302"><ele>2739</ele><time>2026-03-02T09:53:58.000Z</time></trkpt>
<trkpt lat="42.173801" lon="23.36302"><ele>2739</ele><time>2026-03-02T09:53:59.000Z</time></trkpt>
<trkpt lat="42.1738" lon="23.363019"><ele>2739.4</ele><time>2026-03-02T09:54:00.000Z</time></trkpt>
<trkpt lat="42.1738" lon="23.363019"><ele>2739.4</ele><time>2026-03-02T09:54:01.000Z</time></trkpt>
<trkpt lat="42.1738" lon="23.363019"><ele>2739.4</ele><time>2026-03-02T09:54:02.000Z</time></trkpt>
<trkpt lat="42.1738" lon="23.363018"><ele>2739.4</ele><time>2026-03-02T09:54:03.000Z</time></trkpt>
<trkpt lat="42.1738" lon="23.363018"><ele>2739.4</ele><time>2026-03-02T09:54:04.000Z</time></trkpt>
<trkpt lat="42.1738" lon="23.363017"><ele>2739.5</ele><time>2026-03-02T09:54:05.000Z</time></trkpt>
<trkpt lat="42.1738" lon="23.363016"><ele>2739.5</ele><time>2026-03-02T09:54:06.000Z</time></trkpt>
<trkpt lat="42.173799" lon="23.363015"><ele>2739.5</ele><time>2026-03-02T09:54:07.000Z</time></trkpt>
<trkpt lat="42.173799" lon="23.363014"><ele>2739.5</ele><time>2026-03-02T09:54:08.000Z</time></trkpt>
<trkpt lat="42.173799" lon="23.363013"><ele>2739.5</ele><time>2026-03-02T09:54:09.000Z</time></trkpt>
<trkpt lat="42.173799" lon="23.363012"><ele>2739.4</ele><time>2026-03-02T09:54:10.000Z</time></trkpt>
<trkpt lat="42.1738" lon="23.363011"><ele>2739.4</ele><time>2026-03-02T09:54:11.000Z</time></trkpt>
<trkpt lat="42.1738" lon="23.363011"><ele>2739.4</ele><time>2026-03-02T09:54:12.000Z</time></trkpt>
<trkpt lat="42.173801" lon="23.363011"><ele>2739.4</ele><time>2026-03-02T09:54:13.000Z</time></trkpt>
<trkpt lat="42.173802" lon="23.363013"><ele>2739.4</ele><time>2026-03-02T09:54:14.000Z</time></trkpt>
<trkpt lat="42.173803" lon="23.363013"><ele>2739.3</ele><time>2026-03-02T09:54:15.000Z</time></trkpt>
<trkpt lat="42.173803" lon="23.363014"><ele>2739.3</ele><time>2026-03-02T09:54:16.000Z</time></trkpt>
<trkpt lat="42.173803" lon="23.363014"><ele>2739.3</ele><time>2026-03-02T09:54:17.000Z</time></trkpt>
<trkpt lat="42.173802" lon="23.363014"><ele>2739.3</ele><time>2026-03-02T09:54:18.000Z</time></trkpt>
<trkpt lat="42.1738" lon="23.363012"><ele>2739.3</ele><time>2026-03-02T09:54:19.000Z</time></trkpt>
<trkpt lat="42.173799" lon="23.363011"><ele>2739.2</ele><time>2026-03-02T09:54:20.000Z</time></trkpt>
<trkpt lat="42.173798" lon="23.363009"><ele>2739.2</ele><time>2026-03-02T09:54:21.000Z</time></trkpt>
<trkpt lat="42.173799" lon="23.363007"><ele>2739.2</ele><time>2026-03-02T09:54:22.000Z</time></trkpt>
<trkpt lat="42.1738" lon="23.363005"><ele>2739.2</ele><time>2026-03-02T09:54:23.000Z</time></trkpt>
<trkpt lat="42.173801" lon="23.363004"><ele>2739.2</ele><time>2026-03-02T09:54:24.000Z</time></trkpt>
<trkpt lat="42.173803" lon="23.363003"><ele>2739.2</ele><time>2026-03-02T09:54:25.000Z</time></trkpt>
<trkpt lat="42.173804" lon="23.363002"><ele>2739.2</ele><time>2026-03-02T09:54:26.000Z</time></trkpt>
<trkpt lat="42.173804" lon="23.363002"><ele>2739.2</ele><time>2026-03-02T09:54:27.000Z</time></trkpt>
<trkpt lat="42.173804" lon="23.363002"><ele>2739.2</ele><time>2026-03-02T09:54:28.000Z</time></trkpt>
<trkpt lat="42.173805" lon="23.363002"><ele>2739.2</ele><time>2026-03-02T09:54:29.000Z</time></trkpt>
<trkpt lat="42.173805" lon="23.363002"><ele>2739.2</ele><time>2026-03-02T09:54:30.000Z</time></trkpt>
<trkpt lat="42.173805" lon="23.363002"><ele>2739.2</ele><time>2026-03-02T09:54:31.000Z</time></trkpt>
<trkpt lat="42.173805" lon="23.363002"><ele>2739.2</ele><time>2026-03-02T09:54:32.000Z</time></trkpt>
<trkpt lat="42.173805" lon="23.363002"><ele>2739.2</ele><time>2026-03-02T09:54:33.000Z</time></trkpt>
<trkpt lat="42.173805" lon="23.363002"><ele>2739.2</ele><time>2026-03-02T09:54:34.000Z</time></trkpt>
<trkpt lat="42.173805" lon="23.363002"><ele>2739.2</ele><time>2026-03-02T09:54:35.000Z</time></trkpt>
<trkpt lat="42.173805" lon="23.363002"><ele>2739.2</ele><time>2026-03-02T09:54:36.000Z</time></trkpt>
<trkpt lat="42.173805" lon="23.363002"><ele>2739.2</ele><time>2026-03-02T09:54:37.000Z</time></trkpt>
<trkpt lat="42.173802" lon="23.363"><ele>2739.2</ele><time>2026-03-02T09:54:38.000Z</time></trkpt>
<trkpt lat="42.173797" lon="23.362997"><ele>2739.2</ele><time>2026-03-02T09:54:39.000Z</time></trkpt>
<trkpt lat="42.173789" lon="23.362994"><ele>2739.2</ele><time>2026-03-02T09:54:40.000Z</time></trkpt>
<trkpt lat="42.173783" lon="23.362991"><ele>2739.2</ele><time>2026-03-02T09:54:41.000Z</time></trkpt>
<trkpt lat="42.173779" lon="23.362987"><ele>2739.2</ele><time>2026-03-02T09:54:42.000Z</time></trkpt>
<trkpt lat="42.17378" lon="23.362986"><ele>2739.2</ele><time>2026-03-02T09:54:43.000Z</time></trkpt>
<trkpt lat="42.173785" lon="23.362989"><ele>2739.2</ele><time>2026-03-02T09:54:44.000Z</time></trkpt>
<trkpt lat="42.173792" lon="23.362993"><ele>2739.2</ele><time>2026-03-02T09:54:45.000Z</time></trkpt>
<trkpt lat="42.173798" lon="23.362997"><ele>2739.2</ele><time>2026-03-02T09:54:46.000Z</time></trkpt>
<trkpt lat="42.173802" lon="23.363001"><ele>2739.2</ele><time>2026-03-02T09:54:47.000Z</time></trkpt>
<trkpt lat="42.173803" lon="23.363003"><ele>2739.2</ele><time>2026-03-02T09:54:48.000Z</time></trkpt>
<trkpt lat="42.173803" lon="23.363003"><ele>2739.2</ele><time>2026-03-02T09:54:49.000Z</time></trkpt>
<trkpt lat="42.173804" lon="23.363003"><ele>2739.2</ele><time>2026-03-02T09:54:50.000Z</time></trkpt>
<trkpt lat="42.173805" lon="23.363001"><ele>2739.2</ele><time>2026-03-02T09:54:51.000Z</time></trkpt>
<trkpt lat="42.173805" lon="23.363001"><ele>2739.2</ele><time>2026-03-02T09:54:52.000Z</time></trkpt>
<trkpt lat="42.173805" lon="23.363"><ele>2739.2</ele><time>2026-03-02T09:54:53.000Z</time></trkpt>
<trkpt lat="42.173804" lon="23.363"><ele>2739.2</ele><time>2026-03-02T09:54:54.000Z</time></trkpt>
<trkpt lat="42.173803" lon="23.362999"><ele>2739.2</ele><time>2026-03-02T09:54:55.000Z</time></trkpt>
<trkpt lat="42.173802" lon="23.363"><ele>2739.2</ele><time>2026-03-02T09:54:56.000Z</time></trkpt>
<trkpt lat="42.173802" lon="23.363"><ele>2739.2</ele><time>2026-03-02T09:54:57.000Z</time></trkpt>
<trkpt lat="42.173802" lon="23.363"><ele>2739.2</ele><time>2026-03-02T09:54:58.000Z</time></trkpt>
<trkpt lat="42.173802" lon="23.363"><ele>2739.2</ele><time>2026-03-02T09:54:59.000Z</time></trkpt>
<trkpt lat="42.173802" lon="23.363001"><ele>2739</ele><time>2026-03-02T09:55:00.000Z</time></trkpt>
<trkpt lat="42.173802" lon="23.363001"><ele>2739</ele><time>2026-03-02T09:55:01.000Z</time></trkpt>
<trkpt lat="42.173802" lon="23.363001"><ele>2739</ele><time>2026-03-02T09:55:02.000Z</time></trkpt>
<trkpt lat="42.173802" lon="23.363001"><ele>2739</ele><time>2026-03-02T09:55:03.000Z</time></trkpt>
<trkpt lat="42.173802" lon="23.363001"><ele>2739</ele><time>2026-03-02T09:55:04.000Z</time></trkpt>
<trkpt lat="42.173802" lon="23.363001"><ele>2738.9</ele><time>2026-03-02T09:55:05.000Z</time></trkpt>
<trkpt lat="42.173802" lon="23.363001"><ele>2738.9</ele><time>2026-03-02T09:55:06.000Z</time></trkpt>
<trkpt lat="42.173802" lon="23.363001"><ele>2738.9</ele><time>2026-03-02T09:55:07.000Z</time></trkpt>
<trkpt lat="42.173802" lon="23.363001"><ele>2738.9</ele><time>2026-03-02T09:55:08.000Z</time></trkpt>
<trkpt lat="42.173802" lon="23.363001"><ele>2738.9</ele><time>2026-03-02T09:55:09.000Z</time></trkpt>
<trkpt lat="42.173802" lon="23.363001"><ele>2739</ele><time>2026-03-02T09:55:10.000Z</time></trkpt>
<trkpt lat="42.173802" lon="23.363001"><ele>2739</ele><time>2026-03-02T09:55:11.000Z</time></trkpt>
<trkpt lat="42.173801" lon="23.363002"><ele>2739</ele><time>2026-03-02T09:55:12.000Z</time></trkpt>
<trkpt lat="42.1738" lon="23.363003"><ele>2739</ele><time>2026-03-02T09:55:13.000Z</time></trkpt>
<trkpt lat="42.173799" lon="23.363005"><ele>2739</ele><time>2026-03-02T09:55:14.000Z</time></trkpt>
<trkpt lat="42.173798" lon="23.363007"><ele>2739.1</ele><time>2026-03-02T09:55:15.000Z</time></trkpt>
<trkpt lat="42.173797" lon="23.363008"><ele>2739.1</ele><time>2026-03-02T09:55:16.000Z</time></trkpt>
<trkpt lat="42.173797" lon="23.363008"><ele>2739.1</ele><time>2026-03-02T09:55:17.000Z</time></trkpt>
<trkpt lat="42.173796" lon="23.363009"><ele>2739.1</ele><time>2026-03-02T09:55:18.000Z</time></trkpt>
<trkpt lat="42.173794" lon="23.363007"><ele>2739.1</ele><time>2026-03-02T09:55:19.000Z</time></trkpt>
<trkpt lat="42.173793" lon="23.363007"><ele>2739.1</ele><time>2026-03-02T09:55:20.000Z</time></trkpt>
<trkpt lat="42.173791" lon="23.363006"><ele>2739.1</ele><time>2026-03-02T09:55:21.000Z</time></trkpt>
<trkpt lat="42.17379" lon="23.363005"><ele>2739.1</ele><time>2026-03-02T09:55:22.000Z</time></trkpt>
<trkpt lat="42.17379" lon="23.363003"><ele>2739.1</ele><time>2026-03-02T09:55:23.000Z</time></trkpt>
<trkpt lat="42.173791" lon="23.363001"><ele>2739.1</ele><time>2026-03-02T09:55:24.000Z</time></trkpt>
<trkpt lat="42.173794" lon="23.363001"><ele>2739</ele><time>2026-03-02T09:55:25.000Z</time></trkpt>
<trkpt lat="42.173796" lon="23.363"><ele>2739</ele><time>2026-03-02T09:55:26.000Z</time></trkpt>
<trkpt lat="42.173798" lon="23.363001"><ele>2739</ele><time>2026-03-02T09:55:27.000Z</time></trkpt>
<trkpt lat="42.173799" lon="23.363001"><ele>2739</ele><time>2026-03-02T09:55:28.000Z</time></trkpt>
<trkpt lat="42.173799" lon="23.363002"><ele>2739</ele><time>2026-03-02T09:55:29.000Z</time></trkpt>
<trkpt lat="42.173798" lon="23.363002"><ele>2738.9</ele><time>2026-03-02T09:55:30.000Z</time></trkpt>
<trkpt lat="42.173797" lon="23.363002"><ele>2738.9</ele><time>2026-03-02T09:55:31.000Z</time></trkpt>
<trkpt lat="42.173796" lon="23.363002"><ele>2738.9</ele><time>2026-03-02T09:55:32.000Z</time></trkpt>
<trkpt lat="42.173796" lon="23.363001"><ele>2738.9</ele><time>2026-03-02T09:55:33.000Z</time></trkpt>
<trkpt lat="42.173796" lon="23.363001"><ele>2738.9</ele><time>2026-03-02T09:55:34.000Z</time></trkpt>
<trkpt lat="42.173795" lon="23.363001"><ele>2738.8</ele><time>2026-03-02T09:55:35.000Z</time></trkpt>
<trkpt lat="42.173795" lon="23.363001"><ele>2738.8</ele><time>2026-03-02T09:55:36.000Z</time></trkpt>
<trkpt lat="42.173795" lon="23.363001"><ele>2738.8</ele><time>2026-03-02T09:55:37.000Z</time></trkpt>
<trkpt lat="42.173795" lon="23.363001"><ele>2738.8</ele><time>2026-03-02T09:55:38.000Z</time></trkpt>
<trkpt lat="42.173795" lon="23.363002"><ele>2738.8</ele><time>2026-03-02T09:55:39.000Z</time></trkpt>
<trkpt lat="42.173794" lon="23.363003"><ele>2738.8</ele><time>2026-03-02T09:55:40.000Z</time></trkpt>
<trkpt lat="42.173794" lon="23.363004"><ele>2738.8</ele><time>2026-03-02T09:55:41.000Z</time></trkpt>
<trkpt lat="42.173794" lon="23.363005"><ele>2738.8</ele><time>2026-03-02T09:55:42.000Z</time></trkpt>
<trkpt lat="42.173794" lon="23.363005"><ele>2738.8</ele><time>2026-03-02T09:55:43.000Z</time></trkpt>
<trkpt lat="42.173795" lon="23.363005"><ele>2738.8</ele><time>2026-03-02T09:55:44.000Z</time></trkpt>
<trkpt lat="42.173795" lon="23.363005"><ele>2739</ele><time>2026-03-02T09:55:45.000Z</time></trkpt>
<trkpt lat="42.173796" lon="23.363005"><ele>2739</ele><time>2026-03-02T09:55:46.000Z</time></trkpt>
<trkpt lat="42.173796" lon="23.363005"><ele>2739</ele><time>2026-03-02T09:55:47.000Z</time></trkpt>
<trkpt lat="42.173797" lon="23.363006"><ele>2739</ele><time>2026-03-02T09:55:48.000Z</time></trkpt>
<trkpt lat="42.173797" lon="23.363006"><ele>2739</ele><time>2026-03-02T09:55:49.000Z</time></trkpt>
<trkpt lat="42.173796" lon="23.363006"><ele>2739.2</ele><time>2026-03-02T09:55:50.000Z</time></trkpt>
<trkpt lat="42.173796" lon="23.363006"><ele>2739.2</ele><time>2026-03-02T09:55:51.000Z</time></trkpt>
<trkpt lat="42.173796" lon="23.363005"><ele>2739.2</ele><time>2026-03-02T09:55:52.000Z</time></trkpt>
<trkpt lat="42.173796" lon="23.363003"><ele>2739.2</ele><time>2026-03-02T09:55:53.000Z</time></trkpt>
<trkpt lat="42.173796" lon="23.363002"><ele>2739.2</ele><time>2026-03-02T09:55:54.000Z</time></trkpt>
<trkpt lat="42.173797" lon="23.363"><ele>2739.2</ele><time>2026-03-02T09:55:55.000Z</time></trkpt>
<trkpt lat="42.173797" lon="23.362999"><ele>2739.2</ele><time>2026-03-02T09:55:56.000Z</time></trkpt>
<trkpt lat="42.173797" lon="23.362998"><ele>2739.2</ele><time>2026-03-02T09:55:57.000Z</time></trkpt>
<trkpt lat="42.173797" lon="23.362999"><ele>2739.2</ele><time>2026-03-02T09:55:58.000Z</time></trkpt>
<trkpt lat="42.173797" lon="23.363001"><ele>2739.2</ele><time>2026-03-02T09:55:59.000Z</time></trkpt>
<trkpt lat="42.173798" lon="23.363003"><ele>2739.2</ele><time>2026-03-02T09:56:00.000Z</time></trkpt>
<trkpt lat="42.1738" lon="23.363003"><ele>2739.2</ele><time>2026-03-02T09:56:01.000Z</time></trkpt>
<trkpt lat="42.173802" lon="23.363004"><ele>2739.2</ele><time>2026-03-02T09:56:02.000Z</time></trkpt>
<trkpt lat="42.173803" lon="23.363003"><ele>2739.2</ele><time>2026-03-02T09:56:03.000Z</time></trkpt>
<trkpt lat="42.173804" lon="23.363002"><ele>2739.2</ele><time>2026-03-02T09:56:04.000Z</time></trkpt>
<trkpt lat="42.173805" lon="23.363001"><ele>2739.2</ele><time>2026-03-02T09:56:05.000Z</time></trkpt>
<trkpt lat="42.173806" lon="23.363001"><ele>2739.2</ele><time>2026-03-02T09:56:06.000Z</time></trkpt>
<trkpt lat="42.173806" lon="23.363"><ele>2739.2</ele><time>2026-03-02T09:56:07.000Z</time></trkpt>
<trkpt lat="42.173806" lon="23.363"><ele>2739.2</ele><time>2026-03-02T09:56:08.000Z</time></trkpt>
<trkpt lat="42.173806" lon="23.363"><ele>2739.2</ele><time>2026-03-02T09:56:09.000Z</time></trkpt>
<trkpt lat="42.173806" lon="23.363"><ele>2739.2</ele><time>2026-03-02T09:56:10.000Z</time></trkpt>
<trkpt lat="42.173806" lon="23.363"><ele>2739.2</ele><time>2026-03-02T09:56:11.000Z</time></trkpt>
<trkpt lat="42.173806" lon="23.363001"><ele>2739.2</ele><time>2026-03-02T09:56:12.000Z</time></trkpt>
<trkpt lat="42.173806" lon="23.363001"><ele>2739.2</ele><time>2026-03-02T09:56:13.000Z</time></trkpt>
<trkpt lat="42.173806" lon="23.363001"><ele>2739.2</ele><time>2026-03-02T09:56:14.000Z</time></trkpt>
<trkpt lat="42.173806" lon="23.363001"><ele>2739.3</ele><time>2026-03-02T09:56:15.000Z</time></trkpt>
<trkpt lat="42.173806" lon="23.363001"><ele>2739.3</ele><time>2026-03-02T09:56:16.000Z</time></trkpt>
<trkpt lat="42.173805" lon="23.363"><ele>2739.3</ele><time>2026-03-02T09:56:17.000Z</time></trkpt>
<trkpt lat="42.173805" lon="23.362999"><ele>2739.3</ele><time>2026-03-02T09:56:18.000Z</time></trkpt>
<trkpt lat="42.173804" lon="23.362999"><ele>2739.3</ele><time>2026-03-02T09:56:19.000Z</time></trkpt>
<trkpt lat="42.173803" lon="23.362998"><ele>2739.4</ele><time>2026-03-02T09:56:20.000Z</time></trkpt>
<trkpt lat="42.173802" lon="23.362997"><ele>2739.4</ele><time>2026-03-02T09:56:21.000Z</time></trkpt>
<trkpt lat="42.173803" lon="23.362996"><ele>2739.4</ele><time>2026-03-02T09:56:22.000Z</time></trkpt>
<trkpt lat="42.173803" lon="23.362995"><ele>2739.4</ele><time>2026-03-02T09:56:23.000Z</time></trkpt>
<trkpt lat="42.173802" lon="23.362993"><ele>2739.4</ele><time>2026-03-02T09:56:24.000Z</time></trkpt>
<trkpt lat="42.173801" lon="23.362992"><ele>2739.4</ele><time>2026-03-02T09:56:25.000Z</time></trkpt>
<trkpt lat="42.1738" lon="23.362993"><ele>2739.4</ele><time>2026-03-02T09:56:26.000Z</time></trkpt>
<trkpt lat="42.173797" lon="23.362993"><ele>2739.4</ele><time>2026-03-02T09:56:27.000Z</time></trkpt>
<trkpt lat="42.173795" lon="23.362994"><ele>2739.4</ele><time>2026-03-02T09:56:28.000Z</time></trkpt>
<trkpt lat="42.173794" lon="23.362995"><ele>2739.4</ele><time>2026-03-02T09:56:29.000Z</time></trkpt>
<trkpt lat="42.173793" lon="23.362995"><ele>2739.5</ele><time>2026-03-02T09:56:30.000Z</time></trkpt>
<trkpt lat="42.173794" lon="23.362994"><ele>2739.5</ele><time>2026-03-02T09:56:31.000Z</time></trkpt>
<trkpt lat="42.173795" lon="23.362994"><ele>2739.5</ele><time>2026-03-02T09:56:32.000Z</time></trkpt>
<trkpt lat="42.173796" lon="23.362994"><ele>2739.5</ele><time>2026-03-02T09:56:33.000Z</time></trkpt>
<trkpt lat="42.173796" lon="23.362994"><ele>2739.5</ele><time>2026-03-02T09:56:34.000Z</time></trkpt>
<trkpt lat="42.173797" lon="23.362994"><ele>2739.4</ele><time>2026-03-02T09:56:35.000Z</time></trkpt>
<trkpt lat="42.173797" lon="23.362994"><ele>2739.4</ele><time>2026-03-02T09:56:36.000Z</time></trkpt>
<trkpt lat="42.173798" lon="23.362994"><ele>2739.4</ele><time>2026-03-02T09:56:37.000Z</time></trkpt>
<trkpt lat="42.173799" lon="23.362994"><ele>2739.4</ele><time>2026-03-02T09:56:38.000Z</time></trkpt>
<trkpt lat="42.1738" lon="23.362994"><ele>2739.4</ele><time>2026-03-02T09:56:39.000Z</time></trkpt>
<trkpt lat="42.173802" lon="23.362994"><ele>2739.3</ele><time>2026-03-02T09:56:40.000Z</time></trkpt>
<trkpt lat="42.173804" lon="23.362994"><ele>2739.3</ele><time>2026-03-02T09:56:41.000Z</time></trkpt>
<trkpt lat="42.173806" lon="23.362995"><ele>2739.3</ele><time>2026-03-02T09:56:42.000Z</time></trkpt>
<trkpt lat="42.173807" lon="23.362996"><ele>2739.3</ele><time>2026-03-02T09:56:43.000Z</time></trkpt>
<trkpt lat="42.173808" lon="23.362998"><ele>2739.3</ele><time>2026-03-02T09:56:44.000Z</time></trkpt>
<trkpt lat="42.173808" lon="23.362999"><ele>2739</ele><time>2026-03-02T09:56:45.000Z</time></trkpt>
<trkpt lat="42.173806" lon="23.363001"><ele>2739</ele><time>2026-03-02T09:56:46.000Z</time></trkpt>
<trkpt lat="42.173804" lon="23.363003"><ele>2739</ele><time>2026-03-02T09:56:47.000Z</time></trkpt>
<trkpt lat="42.173803" lon="23.363004"><ele>2739</ele><time>2026-03-02T09:56:48.000Z</time></trkpt>
<trkpt lat="42.173803" lon="23.363005"><ele>2739</ele><time>2026-03-02T09:56:49.000Z</time></trkpt>
<trkpt lat="42.173804" lon="23.363004"><ele>2739</ele><time>2026-03-02T09:56:50.000Z</time></trkpt>
<trkpt lat="42.173806" lon="23.363003"><ele>2739</ele><time>2026-03-02T09:56:51.000Z</time></trkpt>
<trkpt lat="42.173808" lon="23.363001"><ele>2739</ele><time>2026-03-02T09:56:52.000Z</time></trkpt>
<trkpt lat="42.173809" lon="23.362998"><ele>2739</ele><time>2026-03-02T09:56:53.000Z</time></trkpt>
<trkpt lat="42.17381" lon="23.362997"><ele>2739</ele><time>2026-03-02T09:56:54.000Z</time></trkpt>
<trkpt lat="42.17381" lon="23.362996"><ele>2739.1</ele><time>2026-03-02T09:56:55.000Z</time></trkpt>
<trkpt lat="42.173809" lon="23.362996"><ele>2739.1</ele><time>2026-03-02T09:56:56.000Z</time></trkpt>
<trkpt lat="42.173808" lon="23.362996"><ele>2739.1</ele><time>2026-03-02T09:56:57.000Z</time></trkpt>
<trkpt lat="42.173808" lon="23.362996"><ele>2739.1</ele><time>2026-03-02T09:56:58.000Z</time></trkpt>
<trkpt lat="42.173807" lon="23.362996"><ele>2739.1</ele><time>2026-03-02T09:56:59.000Z</time></trkpt>
<trkpt lat="42.173807" lon="23.362996"><ele>2739.1</ele><time>2026-03-02T09:57:00.000Z</time></trkpt>
<trkpt lat="42.173807" lon="23.362996"><ele>2739.1</ele><time>2026-03-02T09:57:01.000Z</time></trkpt>
<trkpt lat="42.173806" lon="23.362996"><ele>2739.1</ele><time>2026-03-02T09:57:02.000Z</time></trkpt>
<trkpt lat="42.173806" lon="23.362997"><ele>2739.1</ele><time>2026-03-02T09:57:03.000Z</time></trkpt>
<trkpt lat="42.173806" lon="23.362997"><ele>2739.1</ele><time>2026-03-02T09:57:04.000Z</time></trkpt>
<trkpt lat="42.173807" lon="23.362997"><ele>2739</ele><time>2026-03-02T09:57:05.000Z</time></trkpt>
<trkpt lat="42.173807" lon="23.362997"><ele>2739</ele><time>2026-03-02T09:57:06.000Z</time></trkpt>
<trkpt lat="42.173807" lon="23.362997"><ele>2739</ele><time>2026-03-02T09:57:07.000Z</time></trkpt>
<trkpt lat="42.173807" lon="23.362997"><ele>2739</ele><time>2026-03-02T09:57:08.000Z</time></trkpt>
<trkpt lat="42.173807" lon="23.362997"><ele>2739</ele><time>2026-03-02T09:57:09.000Z</time></trkpt>
<trkpt lat="42.173807" lon="23.362997"><ele>2739</ele><time>2026-03-02T09:57:10.000Z</time></trkpt>
<trkpt lat="42.173807" lon="23.362997"><ele>2739</ele><time>2026-03-02T09:57:11.000Z</time></trkpt>
<trkpt lat="42.173807" lon="23.362997"><ele>2739</ele><time>2026-03-02T09:57:12.000Z</time></trkpt>
<trkpt lat="42.173807" lon="23.362997"><ele>2739</ele><time>2026-03-02T09:57:13.000Z</time></trkpt>
<trkpt lat="42.173807" lon="23.362997"><ele>2739</ele><time>2026-03-02T09:57:14.000Z</time></trkpt>
<trkpt lat="42.173807" lon="23.362997"><ele>2739.1</ele><time>2026-03-02T09:57:15.000Z</time></trkpt>
<trkpt lat="42.173807" lon="23.362997"><ele>2739.1</ele><time>2026-03-02T09:57:16.000Z</time></trkpt>
<trkpt lat="42.173807" lon="23.362996"><ele>2739.1</ele><time>2026-03-02T09:57:17.000Z</time></trkpt>
<trkpt lat="42.173807" lon="23.362996"><ele>2739.1</ele><time>2026-03-02T09:57:18.000Z</time></trkpt>
<trkpt lat="42.173807" lon="23.362996"><ele>2739.1</ele><time>2026-03-02T09:57:19.000Z</time></trkpt>
<trkpt lat="42.173807" lon="23.362996"><ele>2739.1</ele><time>2026-03-02T09:57:20.000Z</time></trkpt>
<trkpt lat="42.173807" lon="23.362996"><ele>2739.1</ele><time>2026-03-02T09:57:21.000Z</time></trkpt>
<trkpt lat="42.173806" lon="23.362997"><ele>2739.1</ele><time>2026-03-02T09:57:22.000Z</time></trkpt>
<trkpt lat="42.173806" lon="23.362997"><ele>2739.1</ele><time>2026-03-02T09:57:23.000Z</time></trkpt>
<trkpt lat="42.173806" lon="23.362998"><ele>2739.1</ele><time>2026-03-02T09:57:24.000Z</time></trkpt>
<trkpt lat="42.173805" lon="23.362998"><ele>2739</ele><time>2026-03-02T09:57:25.000Z</time></trkpt>
<trkpt lat="42.173805" lon="23.362998"><ele>2739</ele><time>2026-03-02T09:57:26.000Z</time></trkpt>
<trkpt lat="42.173805" lon="23.362998"><ele>2739</ele><time>2026-03-02T09:57:27.000Z</time></trkpt>
<trkpt lat="42.173805" lon="23.362998"><ele>2739</ele><time>2026-03-02T09:57:28.000Z</time></trkpt>
<trkpt lat="42.173805" lon="23.362998"><ele>2739</ele><time>2026-03-02T09:57:29.000Z</time></trkpt>
<trkpt lat="42.173805" lon="23.362998"><ele>2738.8</ele><time>2026-03-02T09:57:30.000Z</time></trkpt>
<trkpt lat="42.173804" lon="23.362997"><ele>2738.8</ele><time>2026-03-02T09:57:31.000Z</time></trkpt>
<trkpt lat="42.173804" lon="23.362997"><ele>2738.8</ele><time>2026-03-02T09:57:32.000Z</time></trkpt>
<trkpt lat="42.173804" lon="23.362997"><ele>2738.8</ele><time>2026-03-02T09:57:33.000Z</time></trkpt>
<trkpt lat="42.173804" lon="23.362998"><ele>2738.8</ele><time>2026-03-02T09:57:34.000Z</time></trkpt>
<trkpt lat="42.173805" lon="23.362998"><ele>2738.6</ele><time>2026-03-02T09:57:35.000Z</time></trkpt>
<trkpt lat="42.173805" lon="23.362998"><ele>2738.6</ele><time>2026-03-02T09:57:36.000Z</time></trkpt>
<trkpt lat="42.173805" lon="23.362998"><ele>2738.6</ele><time>2026-03-02T09:57:37.000Z</time></trkpt>
<trkpt lat="42.173806" lon="23.362997"><ele>2738.6</ele><time>2026-03-02T09:57:38.000Z</time></trkpt>
<trkpt lat="42.173806" lon="23.362996"><ele>2738.6</ele><time>2026-03-02T09:57:39.000Z</time></trkpt>
<trkpt lat="42.173806" lon="23.362995"><ele>2738.5</ele><time>2026-03-02T09:57:40.000Z</time></trkpt>
<trkpt lat="42.173807" lon="23.362995"><ele>2738.5</ele><time>2026-03-02T09:57:41.000Z</time></trkpt>
<trkpt lat="42.173806" lon="23.362995"><ele>2738.5</ele><time>2026-03-02T09:57:42.000Z</time></trkpt>
<trkpt lat="42.173806" lon="23.362995"><ele>2738.5</ele><time>2026-03-02T09:57:43.000Z</time></trkpt>
<trkpt lat="42.173806" lon="23.362996"><ele>2738.5</ele><time>2026-03-02T09:57:44.000Z</time></trkpt>
<trkpt lat="42.173805" lon="23.362998"><ele>2738.4</ele><time>2026-03-02T09:57:45.000Z</time></trkpt>
<trkpt lat="42.173804" lon="23.362998"><ele>2738.4</ele><time>2026-03-02T09:57:46.000Z</time></trkpt>
<trkpt lat="42.173804" lon="23.362999"><ele>2738.4</ele><time>2026-03-02T09:57:47.000Z</time></trkpt>
<trkpt lat="42.173803" lon="23.363001"><ele>2738.4</ele><time>2026-03-02T09:57:48.000Z</time></trkpt>
<trkpt lat="42.173803" lon="23.363"><ele>2738.4</ele><time>2026-03-02T09:57:49.000Z</time></trkpt>
<trkpt lat="42.173803" lon="23.363"><ele>2738.7</ele><time>2026-03-02T09:57:50.000Z</time></trkpt>
<trkpt lat="42.173802" lon="23.363"><ele>2738.7</ele><time>2026-03-02T09:57:51.000Z</time></trkpt>
<trkpt lat="42.173802" lon="23.363"><ele>2738.7</ele><time>2026-03-02T09:57:52.000Z</time></trkpt>
<trkpt lat="42.173802" lon="23.362999"><ele>2738.7</ele><time>2026-03-02T09:57:53.000Z</time></trkpt>
<trkpt lat="42.173801" lon="23.362998"><ele>2738.7</ele><time>2026-03-02T09:57:54.000Z</time></trkpt>
<trkpt lat="42.173801" lon="23.362998"><ele>2738.8</ele><time>2026-03-02T09:57:55.000Z</time></trkpt>
<trkpt lat="42.173801" lon="23.362998"><ele>2738.8</ele><time>2026-03-02T09:57:56.000Z</time></trkpt>
<trkpt lat="42.173801" lon="23.362998"><ele>2738.8</ele><time>2026-03-02T09:57:57.000Z</time></trkpt>
<trkpt lat="42.1738" lon="23.362997"><ele>2738.8</ele><time>2026-03-02T09:57:58.000Z</time></trkpt>
<trkpt lat="42.1738" lon="23.362998"><ele>2738.8</ele><time>2026-03-02T09:57:59.000Z</time></trkpt>
<trkpt lat="42.173799" lon="23.362999"><ele>2739</ele><time>2026-03-02T09:58:00.000Z</time></trkpt>
<trkpt lat="42.173799" lon="23.363"><ele>2739</ele><time>2026-03-02T09:58:01.000Z</time></trkpt>
<trkpt lat="42.173799" lon="23.363001"><ele>2739</ele><time>2026-03-02T09:58:02.000Z</time></trkpt>
<trkpt lat="42.1738" lon="23.363002"><ele>2739</ele><time>2026-03-02T09:58:03.000Z</time></trkpt>
<trkpt lat="42.173801" lon="23.363002"><ele>2739</ele><time>2026-03-02T09:58:04.000Z</time></trkpt>
<trkpt lat="42.173801" lon="23.363001"><ele>2739</ele><time>2026-03-02T09:58:05.000Z</time></trkpt>
<trkpt lat="42.173802" lon="23.363001"><ele>2739</ele><time>2026-03-02T09:58:06.000Z</time></trkpt>
<trkpt lat="42.173802" lon="23.363"><ele>2739</ele><time>2026-03-02T09:58:07.000Z</time></trkpt>
<trkpt lat="42.173802" lon="23.363"><ele>2739</ele><time>2026-03-02T09:58:08.000Z</time></trkpt>
<trkpt lat="42.173801" lon="23.363001"><ele>2739</ele><time>2026-03-02T09:58:09.000Z</time></trkpt>
<trkpt lat="42.173801" lon="23.363001"><ele>2739</ele><time>2026-03-02T09:58:10.000Z</time></trkpt>
<trkpt lat="42.173801" lon="23.363002"><ele>2739</ele><time>2026-03-02T09:58:11.000Z</time></trkpt>
<trkpt lat="42.173801" lon="23.363003"><ele>2739</ele><time>2026-03-02T09:58:12.000Z</time></trkpt>
<trkpt lat="42.173802" lon="23.363002"><ele>2739</ele><time>2026-03-02T09:58:13.000Z</time></trkpt>
<trkpt lat="42.173803" lon="23.363"><ele>2739</ele><time>2026-03-02T09:58:14.000Z</time></trkpt>
<trkpt lat="42.173806" lon="23.362997"><ele>2738.9</ele><time>2026-03-02T09:58:15.000Z</time></trkpt>
<trkpt lat="42.173811" lon="23.362994"><ele>2738.9</ele><time>2026-03-02T09:58:16.000Z</time></trkpt>
<trkpt lat="42.173816" lon="23.362993"><ele>2738.9</ele><time>2026-03-02T09:58:17.000Z</time></trkpt>
<trkpt lat="42.173819" lon="23.362991"><ele>2738.9</ele><time>2026-03-02T09:58:18.000Z</time></trkpt>
<trkpt lat="42.173821" lon="23.36299"><ele>2738.9</ele><time>2026-03-02T09:58:19.000Z</time></trkpt>
<trkpt lat="42.173821" lon="23.36299"><ele>2738.7</ele><time>2026-03-02T09:58:20.000Z</time></trkpt>
<trkpt lat="42.173818" lon="23.362991"><ele>2738.7</ele><time>2026-03-02T09:58:21.000Z</time></trkpt>
<trkpt lat="42.173816" lon="23.362988"><ele>2738.7</ele><time>2026-03-02T09:58:22.000Z</time></trkpt>
<trkpt lat="42.173815" lon="23.362985"><ele>2738.7</ele><time>2026-03-02T09:58:23.000Z</time></trkpt>
<trkpt lat="42.173815" lon="23.362984"><ele>2738.7</ele><time>2026-03-02T09:58:24.000Z</time></trkpt>
<trkpt lat="42.173815" lon="23.362983"><ele>2738.6</ele><time>2026-03-02T09:58:25.000Z</time></trkpt>
<trkpt lat="42.173814" lon="23.362983"><ele>2738.6</ele><time>2026-03-02T09:58:26.000Z</time></trkpt>
<trkpt lat="42.173813" lon="23.362983"><ele>2738.6</ele><time>2026-03-02T09:58:27.000Z</time></trkpt>
<trkpt lat="42.173811" lon="23.362984"><ele>2738.6</ele><time>2026-03-02T09:58:28.000Z</time></trkpt>
<trkpt lat="42.173809" lon="23.362985"><ele>2738.6</ele><time>2026-03-02T09:58:29.000Z</time></trkpt>
<trkpt lat="42.173808" lon="23.362986"><ele>2738.6</ele><time>2026-03-02T09:58:30.000Z</time></trkpt>
<trkpt lat="42.173807" lon="23.362986"><ele>2738.6</ele><time>2026-03-02T09:58:31.000Z</time></trkpt>
<trkpt lat="42.173807" lon="23.362986"><ele>2738.6</ele><time>2026-03-02T09:58:32.000Z</time></trkpt>
<trkpt lat="42.173807" lon="23.362986"><ele>2738.6</ele><time>2026-03-02T09:58:33.000Z</time></trkpt>
<trkpt lat="42.173807" lon="23.362986"><ele>2738.6</ele><time>2026-03-02T09:58:34.000Z</time></trkpt>
<trkpt lat="42.173807" lon="23.362986"><ele>2739.1</ele><time>2026-03-02T09:58:35.000Z</time></trkpt>
<trkpt lat="42.173808" lon="23.362986"><ele>2739.1</ele><time>2026-03-02T09:58:36.000Z</time></trkpt>
<trkpt lat="42.173808" lon="23.362986"><ele>2739.1</ele><time>2026-03-02T09:58:37.000Z</time></trkpt>
<trkpt lat="42.173807" lon="23.362986"><ele>2739.1</ele><time>2026-03-02T09:58:38.000Z</time></trkpt>
<trkpt lat="42.173806" lon="23.362986"><ele>2739.1</ele><time>2026-03-02T09:58:39.000Z</time></trkpt>
<trkpt lat="42.173805" lon="23.362987"><ele>2739.4</ele><time>2026-03-02T09:58:40.000Z</time></trkpt>
<trkpt lat="42.173803" lon="23.362988"><ele>2739.4</ele><time>2026-03-02T09:58:41.000Z</time></trkpt>
<trkpt lat="42.173802" lon="23.362988"><ele>2739.4</ele><time>2026-03-02T09:58:42.000Z</time></trkpt>
<trkpt lat="42.173801" lon="23.362989"><ele>2739.4</ele><time>2026-03-02T09:58:43.000Z</time></trkpt>
<trkpt lat="42.1738" lon="23.362989"><ele>2739.4</ele><time>2026-03-02T09:58:44.000Z</time></trkpt>
<trkpt lat="42.1738" lon="23.36299"><ele>2739.6</ele><time>2026-03-02T09:58:45.000Z</time></trkpt>
<trkpt lat="42.1738" lon="23.36299"><ele>2739.6</ele><time>2026-03-02T09:58:46.000Z</time></trkpt>
<trkpt lat="42.173799" lon="23.36299"><ele>2739.6</ele><time>2026-03-02T09:58:47.000Z</time></trkpt>
<trkpt lat="42.1738" lon="23.362991"><ele>2739.6</ele><time>2026-03-02T09:58:48.000Z</time></trkpt>
<trkpt lat="42.173803" lon="23.362993"><ele>2739.6</ele><time>2026-03-02T09:58:49.000Z</time></trkpt>
<trkpt lat="42.173805" lon="23.362996"><ele>2739.5</ele><time>2026-03-02T09:58:50.000Z</time></trkpt>
<trkpt lat="42.173807" lon="23.363"><ele>2739.5</ele><time>2026-03-02T09:58:51.000Z</time></trkpt>
<trkpt lat="42.17381" lon="23.363003"><ele>2739.5</ele><time>2026-03-02T09:58:52.000Z</time></trkpt>
<trkpt lat="42.173811" lon="23.363006"><ele>2739.5</ele><time>2026-03-02T09:58:53.000Z</time></trkpt>
<trkpt lat="42.173811" lon="23.363008"><ele>2739.5</ele><time>2026-03-02T09:58:54.000Z</time></trkpt>
<trkpt lat="42.173811" lon="23.363009"><ele>2739.5</ele><time>2026-03-02T09:58:55.000Z</time></trkpt>
<trkpt lat="42.173811" lon="23.36301"><ele>2739.5</ele><time>2026-03-02T09:58:56.000Z</time></trkpt>
<trkpt lat="42.173811" lon="23.363011"><ele>2739.5</ele><time>2026-03-02T09:58:57.000Z</time></trkpt>
<trkpt lat="42.173811" lon="23.363011"><ele>2739.5</ele><time>2026-03-02T09:58:58.000Z</time></trkpt>
<trkpt lat="42.173811" lon="23.363011"><ele>2739.5</ele><time>2026-03-02T09:58:59.000Z</time></trkpt>
<trkpt lat="42.173812" lon="23.363011"><ele>2739.3</ele><time>2026-03-02T09:59:00.000Z</time></trkpt>
<trkpt lat="42.173812" lon="23.363011"><ele>2739.3</ele><time>2026-03-02T09:59:01.000Z</time></trkpt>
<trkpt lat="42.173813" lon="23.363011"><ele>2739.3</ele><time>2026-03-02T09:59:02.000Z</time></trkpt>
<trkpt lat="42.173813" lon="23.363011"><ele>2739.3</ele><time>2026-03-02T09:59:03.000Z</time></trkpt>
<trkpt lat="42.173813" lon="23.363011"><ele>2739.3</ele><time>2026-03-02T09:59:04.000Z</time></trkpt>
<trkpt lat="42.173813" lon="23.363011"><ele>2739.2</ele><time>2026-03-02T09:59:05.000Z</time></trkpt>
<trkpt lat="42.173813" lon="23.363011"><ele>2739.2</ele><time>2026-03-02T09:59:06.000Z</time></trkpt>
<trkpt lat="42.173813" lon="23.363011"><ele>2739.2</ele><time>2026-03-02T09:59:07.000Z</time></trkpt>
<trkpt lat="42.173813" lon="23.363011"><ele>2739.2</ele><time>2026-03-02T09:59:08.000Z</time></trkpt>
<trkpt lat="42.173813" lon="23.363011"><ele>2739.2</ele><time>2026-03-02T09:59:09.000Z</time></trkpt>
<trkpt lat="42.173813" lon="23.363011"><ele>2739.2</ele><time>2026-03-02T09:59:10.000Z</time></trkpt>
<trkpt lat="42.173813" lon="23.363011"><ele>2739.2</ele><time>2026-03-02T09:59:11.000Z</time></trkpt>
<trkpt lat="42.173813" lon="23.363011"><ele>2739.2</ele><time>2026-03-02T09:59:12.000Z</time></trkpt>
<trkpt lat="42.173813" lon="23.363011"><ele>2739.2</ele><time>2026-03-02T09:59:13.000Z</time></trkpt>
<trkpt lat="42.173813" lon="23.363011"><ele>2739.2</ele><time>2026-03-02T09:59:14.000Z</time></trkpt>
<trkpt lat="42.173813" lon="23.363011"><ele>2739.1</ele><time>2026-03-02T09:59:15.000Z</time></trkpt>
<trkpt lat="42.173813" lon="23.363011"><ele>2739.1</ele><time>2026-03-02T09:59:16.000Z</time></trkpt>
<trkpt lat="42.173813" lon="23.363011"><ele>2739.1</ele><time>2026-03-02T09:59:17.000Z</time></trkpt>
<trkpt lat="42.173813" lon="23.363011"><ele>2739.1</ele><time>2026-03-02T09:59:18.000Z</time></trkpt>
<trkpt lat="42.173813" lon="23.363011"><ele>2739.1</ele><time>2026-03-02T09:59:19.000Z</time></trkpt>
<trkpt lat="42.173813" lon="23.363011"><ele>2739.1</ele><time>2026-03-02T09:59:20.000Z</time></trkpt>
<trkpt lat="42.173812" lon="23.36301"><ele>2739.1</ele><time>2026-03-02T09:59:21.000Z</time></trkpt>
<trkpt lat="42.173811" lon="23.363009"><ele>2739.1</ele><time>2026-03-02T09:59:22.000Z</time></trkpt>
<trkpt lat="42.173809" lon="23.363008"><ele>2739.1</ele><time>2026-03-02T09:59:23.000Z</time></trkpt>
<trkpt lat="42.173807" lon="23.363007"><ele>2739.1</ele><time>2026-03-02T09:59:24.000Z</time></trkpt>
<trkpt lat="42.173805" lon="23.363007"><ele>2739.2</ele><time>2026-03-02T09:59:25.000Z</time></trkpt>
<trkpt lat="42.173803" lon="23.363007"><ele>2739.2</ele><time>2026-03-02T09:59:26.000Z</time></trkpt>
<trkpt lat="42.173802" lon="23.363007"><ele>2739.2</ele><time>2026-03-02T09:59:27.000Z</time></trkpt>
<trkpt lat="42.173801" lon="23.363007"><ele>2739.2</ele><time>2026-03-02T09:59:28.000Z</time></trkpt>
<trkpt lat="42.173802" lon="23.363007"><ele>2739.2</ele><time>2026-03-02T09:59:29.000Z</time></trkpt>
<trkpt lat="42.173803" lon="23.363007"><ele>2739.4</ele><time>2026-03-02T09:59:30.000Z</time></trkpt>
<trkpt lat="42.173804" lon="23.363007"><ele>2739.4</ele><time>2026-03-02T09:59:31.000Z</time></trkpt>
<trkpt lat="42.173805" lon="23.363007"><ele>2739.4</ele><time>2026-03-02T09:59:32.000Z</time></trkpt>
<trkpt lat="42.173805" lon="23.363006"><ele>2739.4</ele><time>2026-03-02T09:59:33.000Z</time></trkpt>
<trkpt lat="42.173803" lon="23.363005"><ele>2739.4</ele><time>2026-03-02T09:59:34.000Z</time></trkpt>
<trkpt lat="42.173802" lon="23.363003"><ele>2739.6</ele><time>2026-03-02T09:59:35.000Z</time></trkpt>
<trkpt lat="42.173801" lon="23.363002"><ele>2739.6</ele><time>2026-03-02T09:59:36.000Z</time></trkpt>
<trkpt lat="42.1738" lon="23.363"><ele>2739.6</ele><time>2026-03-02T09:59:37.000Z</time></trkpt>
<trkpt lat="42.173801" lon="23.363"><ele>2739.6</ele><time>2026-03-02T09:59:38.000Z</time></trkpt>
<trkpt lat="42.173801" lon="23.363"><ele>2739.6</ele><time>2026-03-02T09:59:39.000Z</time></trkpt>
<trkpt lat="42.173802" lon="23.363"><ele>2739.7</ele><time>2026-03-02T09:59:40.000Z</time></trkpt>
<trkpt lat="42.173803" lon="23.363001"><ele>2739.7</ele><time>2026-03-02T09:59:41.000Z</time></trkpt>
<trkpt lat="42.173803" lon="23.363001"><ele>2739.7</ele><time>2026-03-02T09:59:42.000Z</time></trkpt>
<trkpt lat="42.173803" lon="23.363001"><ele>2739.7</ele><time>2026-03-02T09:59:43.000Z</time></trkpt>
<trkpt lat="42.173803" lon="23.363001"><ele>2739.7</ele><time>2026-03-02T09:59:44.000Z</time></trkpt>
<trkpt lat="42.173803" lon="23.363001"><ele>2739.7</ele><time>2026-03-02T09:59:45.000Z</time></trkpt>
<trkpt lat="42.173802" lon="23.363001"><ele>2739.7</ele><time>2026-03-02T09:59:46.000Z</time></trkpt>
<trkpt lat="42.173802" lon="23.363001"><ele>2739.7</ele><time>2026-03-02T09:59:47.000Z</time></trkpt>
<trkpt lat="42.173802" lon="23.363002"><ele>2739.7</ele><time>2026-03-02T09:59:48.000Z</time></trkpt>
<trkpt lat="42.173802" lon="23.363002"><ele>2739.7</ele><time>2026-03-02T09:59:49.000Z</time></trkpt>
<trkpt lat="42.173802" lon="23.363001"><ele>2739.4</ele><time>2026-03-02T09:59:50.000Z</time></trkpt>
<trkpt lat="42.173802" lon="23.363"><ele>2739.4</ele><time>2026-03-02T09:59:51.000Z</time></trkpt>
<trkpt lat="42.173802" lon="23.362998"><ele>2739.4</ele><time>2026-03-02T09:59:52.000Z</time></trkpt>
<trkpt lat="42.173802" lon="23.362997"><ele>2739.4</ele><time>2026-03-02T09:59:53.000Z</time></trkpt>
<trkpt lat="42.173801" lon="23.362996"><ele>2739.4</ele><time>2026-03-02T09:59:54.000Z</time></trkpt>
<trkpt lat="42.173801" lon="23.362996"><ele>2739.2</ele><time>2026-03-02T09:59:55.000Z</time></trkpt>
<trkpt lat="42.1738" lon="23.362996"><ele>2739.2</ele><time>2026-03-02T09:59:56.000Z</time></trkpt>
<trkpt lat="42.1738" lon="23.362997"><ele>2739.2</ele><time>2026-03-02T09:59:57.000Z</time></trkpt>
<trkpt lat="42.1738" lon="23.362997"><ele>2739.2</ele><time>2026-03-02T09:59:58.000Z</time></trkpt>
<trkpt lat="42.1738" lon="23.362997"><ele>2739.2</ele><time>2026-03-02T09:59:59.000Z</time></trkpt>
<trkpt lat="42.1738" lon="23.362997"><ele>2738.9</ele><time>2026-03-02T10:00:00.000Z</time></trkpt>
<trkpt lat="42.1738" lon="23.362997"><ele>2738.9</ele><time>2026-03-02T10:00:01.000Z</time></trkpt>
<trkpt lat="42.1738" lon="23.362997"><ele>2738.9</ele><time>2026-03-02T10:00:02.000Z</time></trkpt>
<trkpt lat="42.1738" lon="23.362997"><ele>2738.9</ele><time>2026-03-02T10:00:03.000Z</time></trkpt>
<trkpt lat="42.1738" lon="23.362997"><ele>2738.9</ele><time>2026-03-02T10:00:04.000Z</time></trkpt>
<trkpt lat="42.1738" lon="23.362997"><ele>2738.8</ele><time>2026-03-02T10:00:05.000Z</time></trkpt>
<trkpt lat="42.1738" lon="23.362997"><ele>2738.8</ele><time>2026-03-02T10:00:06.000Z</time></trkpt>
<trkpt lat="42.1738" lon="23.362997"><ele>2738.8</ele><time>2026-03-02T10:00:07.000Z</time></trkpt>
<trkpt lat="42.1738" lon="23.362997"><ele>2738.8</ele><time>2026-03-02T10:00:08.000Z</time></trkpt>
<trkpt lat="42.1738" lon="23.362997"><ele>2738.8</ele><time>2026-03-02T10:00:09.000Z</time></trkpt>
<trkpt lat="42.1738" lon="23.362998"><ele>2738.8</ele><time>2026-03-02T10:00:10.000Z</time></trkpt>
<trkpt lat="42.1738" lon="23.362998"><ele>2738.8</ele><time>2026-03-02T10:00:11.000Z</time></trkpt>
<trkpt lat="42.173801" lon="23.362998"><ele>2738.8</ele><time>2026-03-02T10:00:12.000Z</time></trkpt>
<trkpt lat="42.173802" lon="23.362997"><ele>2738.8</ele><time>2026-03-02T10:00:13.000Z</time></trkpt>
<trkpt lat="42.173803" lon="23.362997"><ele>2738.8</ele><time>2026-03-02T10:00:14.000Z</time></trkpt>
<trkpt lat="42.173804" lon="23.362996"><ele>2738.7</ele><time>2026-03-02T10:00:15.000Z</time></trkpt>
<trkpt lat="42.173805" lon="23.362995"><ele>2738.7</ele><time>2026-03-02T10:00:16.000Z</time></trkpt>
<trkpt lat="42.173805" lon="23.362995"><ele>2738.7</ele><time>2026-03-02T10:00:17.000Z</time></trkpt>
<trkpt lat="42.173805" lon="23.362995"><ele>2738.7</ele><time>2026-03-02T10:00:18.000Z</time></trkpt>
<trkpt lat="42.173805" lon="23.362995"><ele>2738.7</ele><time>2026-03-02T10:00:19.000Z</time></trkpt>
<trkpt lat="42.173805" lon="23.362995"><ele>2738.7</ele><time>2026-03-02T10:00:20.000Z</time></trkpt>
<trkpt lat="42.173805" lon="23.362995"><ele>2738.7</ele><time>2026-03-02T10:00:21.000Z</time></trkpt>
<trkpt lat="42.173805" lon="23.362995"><ele>2738.7</ele><time>2026-03-02T10:00:22.000Z</time></trkpt>
<trkpt lat="42.173805" lon="23.362996"><ele>2738.7</ele><time>2026-03-02T10:00:23.000Z</time></trkpt>
<trkpt lat="42.173804" lon="23.362996"><ele>2738.7</ele><time>2026-03-02T10:00:24.000Z</time></trkpt>
<trkpt lat="42.173804" lon="23.362996"><ele>2738.8</ele><time>2026-03-02T10:00:25.000Z</time></trkpt>
<trkpt lat="42.173803" lon="23.362996"><ele>2738.8</ele><time>2026-03-02T10:00:26.000Z</time></trkpt>
<trkpt lat="42.173802" lon="23.362996"><ele>2738.8</ele><time>2026-03-02T10:00:27.000Z</time></trkpt>
<trkpt lat="42.173802" lon="23.362997"><ele>2738.8</ele><time>2026-03-02T10:00:28.000Z</time></trkpt>
<trkpt lat="42.173802" lon="23.362996"><ele>2738.8</ele><time>2026-03-02T10:00:29.000Z</time></trkpt>
<trkpt lat="42.173801" lon="23.362996"><ele>2739.1</ele><time>2026-03-02T10:00:30.000Z</time></trkpt>
<trkpt lat="42.173801" lon="23.362996"><ele>2739.1</ele><time>2026-03-02T10:00:31.000Z</time></trkpt>
<trkpt lat="42.173801" lon="23.362996"><ele>2739.1</ele><time>2026-03-02T10:00:32.000Z</time></trkpt>
<trkpt lat="42.173801" lon="23.362995"><ele>2739.1</ele><time>2026-03-02T10:00:33.000Z</time></trkpt>
<trkpt lat="42.173801" lon="23.362995"><ele>2739.1</ele><time>2026-03-02T10:00:34.000Z</time></trkpt>
<trkpt lat="42.173801" lon="23.362995"><ele>2739.3</ele><time>2026-03-02T10:00:35.000Z</time></trkpt>
<trkpt lat="42.1738" lon="23.362995"><ele>2739.3</ele><time>2026-03-02T10:00:36.000Z</time></trkpt>
<trkpt lat="42.1738" lon="23.362994"><ele>2739.3</ele><time>2026-03-02T10:00:37.000Z</time></trkpt>
<trkpt lat="42.173799" lon="23.362994"><ele>2739.3</ele><time>2026-03-02T10:00:38.000Z</time></trkpt>
<trkpt lat="42.173799" lon="23.362994"><ele>2739.3</ele><time>2026-03-02T10:00:39.000Z</time></trkpt>
<trkpt lat="42.1738" lon="23.362993"><ele>2739.3</ele><time>2026-03-02T10:00:40.000Z</time></trkpt>
<trkpt lat="42.173804" lon="23.362993"><ele>2739.3</ele><time>2026-03-02T10:00:41.000Z</time></trkpt>
<trkpt lat="42.173809" lon="23.362993"><ele>2739.3</ele><time>2026-03-02T10:00:42.000Z</time></trkpt>
<trkpt lat="42.173814" lon="23.362994"><ele>2739.3</ele><time>2026-03-02T10:00:43.000Z</time></trkpt>
<trkpt lat="42.17382" lon="23.362993"><ele>2739.3</ele><time>2026-03-02T10:00:44.000Z</time></trkpt>
<trkpt lat="42.173826" lon="23.362993"><ele>2739.2</ele><time>2026-03-02T10:00:45.000Z</time></trkpt>
<trkpt lat="42.173831" lon="23.362994"><ele>2739.2</ele><time>2026-03-02T10:00:46.000Z</time></trkpt>
<trkpt lat="42.173835" lon="23.362996"><ele>2739.2</ele><time>2026-03-02T10:00:47.000Z</time></trkpt>
<trkpt lat="42.173837" lon="23.363"><ele>2739.2</ele><time>2026-03-02T10:00:48.000Z</time></trkpt>
<trkpt lat="42.17384" lon="23.363005"><ele>2739.2</ele><time>2026-03-02T10:00:49.000Z</time></trkpt>
<trkpt lat="42.173841" lon="23.363011"><ele>2739.2</ele><time>2026-03-02T10:00:50.000Z</time></trkpt>
<trkpt lat="42.17384" lon="23.363015"><ele>2739.2</ele><time>2026-03-02T10:00:51.000Z</time></trkpt>
<trkpt lat="42.173839" lon="23.363018"><ele>2739.2</ele><time>2026-03-02T10:00:52.000Z</time></trkpt>
<trkpt lat="42.173839" lon="23.36302"><ele>2739.2</ele><time>2026-03-02T10:00:53.000Z</time></trkpt>
<trkpt lat="42.173839" lon="23.36302"><ele>2739.2</ele><time>2026-03-02T10:00:54.000Z</time></trkpt>
<trkpt lat="42.173838" lon="23.363021"><ele>2739.2</ele><time>2026-03-02T10:00:55.000Z</time></trkpt>
<trkpt lat="42.173837" lon="23.363022"><ele>2739.2</ele><time>2026-03-02T10:00:56.000Z</time></trkpt>
<trkpt lat="42.173836" lon="23.363023"><ele>2739.2</ele><time>2026-03-02T10:00:57.000Z</time></trkpt>
<trkpt lat="42.173836" lon="23.363022"><ele>2739.2</ele><time>2026-03-02T10:00:58.000Z</time></trkpt>
<trkpt lat="42.173836" lon="23.363022"><ele>2739.2</ele><time>2026-03-02T10:00:59.000Z</time></trkpt>
<trkpt lat="42.173836" lon="23.363022"><ele>2739.2</ele><time>2026-03-02T10:01:00.000Z</time></trkpt>
<trkpt lat="42.173837" lon="23.363021"><ele>2739.2</ele><time>2026-03-02T10:01:01.000Z</time></trkpt>
<trkpt lat="42.173839" lon="23.36302"><ele>2739.2</ele><time>2026-03-02T10:01:02.000Z</time></trkpt>
<trkpt lat="42.17384" lon="23.36302"><ele>2739.2</ele><time>2026-03-02T10:01:03.000Z</time></trkpt>
<trkpt lat="42.173841" lon="23.36302"><ele>2739.2</ele><time>2026-03-02T10:01:04.000Z</time></trkpt>
<trkpt lat="42.173842" lon="23.363018"><ele>2739.1</ele><time>2026-03-02T10:01:05.000Z</time></trkpt>
<trkpt lat="42.173842" lon="23.363018"><ele>2739.1</ele><time>2026-03-02T10:01:06.000Z</time></trkpt>
<trkpt lat="42.173842" lon="23.363017"><ele>2739.1</ele><time>2026-03-02T10:01:07.000Z</time></trkpt>
<trkpt lat="42.173842" lon="23.363016"><ele>2739.1</ele><time>2026-03-02T10:01:08.000Z</time></trkpt>
<trkpt lat="42.173841" lon="23.363015"><ele>2739.1</ele><time>2026-03-02T10:01:09.000Z</time></trkpt>
<trkpt lat="42.173841" lon="23.363015"><ele>2739.1</ele><time>2026-03-02T10:01:10.000Z</time></trkpt>
<trkpt lat="42.173842" lon="23.363014"><ele>2739.1</ele><time>2026-03-02T10:01:11.000Z</time></trkpt>
<trkpt lat="42.173842" lon="23.363014"><ele>2739.1</ele><time>2026-03-02T10:01:12.000Z</time></trkpt>
<trkpt lat="42.173841" lon="23.363013"><ele>2739.1</ele><time>2026-03-02T10:01:13.000Z</time></trkpt>
<trkpt lat="42.173838" lon="23.36301"><ele>2739.1</ele><time>2026-03-02T10:01:14.000Z</time></trkpt>
<trkpt lat="42.173834" lon="23.363004"><ele>2739</ele><time>2026-03-02T10:01:15.000Z</time></trkpt>
<trkpt lat="42.173829" lon="23.362998"><ele>2739</ele><time>2026-03-02T10:01:16.000Z</time></trkpt>
<trkpt lat="42.173822" lon="23.362993"><ele>2739</ele><time>2026-03-02T10:01:17.000Z</time></trkpt>
<trkpt lat="42.173815" lon="23.362989"><ele>2739</ele><time>2026-03-02T10:01:18.000Z</time></trkpt>
<trkpt lat="42.17381" lon="23.362987"><ele>2739</ele><time>2026-03-02T10:01:19.000Z</time></trkpt>
<trkpt lat="42.173807" lon="23.362987"><ele>2739.1</ele><time>2026-03-02T10:01:20.000Z</time></trkpt>
<trkpt lat="42.173805" lon="23.362986"><ele>2739.1</ele><time>2026-03-02T10:01:21.000Z</time></trkpt>
<trkpt lat="42.173805" lon="23.362982"><ele>2739.1</ele><time>2026-03-02T10:01:22.000Z</time></trkpt>
<trkpt lat="42.173804" lon="23.362979"><ele>2739.1</ele><time>2026-03-02T10:01:23.000Z</time></trkpt>
<trkpt lat="42.173804" lon="23.362977"><ele>2739.1</ele><time>2026-03-02T10:01:24.000Z</time></trkpt>
<trkpt lat="42.173802" lon="23.362976"><ele>2739.3</ele><time>2026-03-02T10:01:25.000Z</time></trkpt>
<trkpt lat="42.173799" lon="23.362976"><ele>2739.3</ele><time>2026-03-02T10:01:26.000Z</time></trkpt>
<trkpt lat="42.173795" lon="23.362979"><ele>2739.3</ele><time>2026-03-02T10:01:27.000Z</time></trkpt>
<trkpt lat="42.173792" lon="23.362983"><ele>2739.3</ele><time>2026-03-02T10:01:28.000Z</time></trkpt>
<trkpt lat="42.173789" lon="23.362986"><ele>2739.3</ele><time>2026-03-02T10:01:29.000Z</time></trkpt>
<trkpt lat="42.173788" lon="23.362989"><ele>2739.5</ele><time>2026-03-02T10:01:30.000Z</time></trkpt>
<trkpt lat="42.173789" lon="23.362992"><ele>2739.5</ele><time>2026-03-02T10:01:31.000Z</time></trkpt>
<trkpt lat="42.173791" lon="23.362994"><ele>2739.5</ele><time>2026-03-02T10:01:32.000Z</time></trkpt>
<trkpt lat="42.173793" lon="23.362995"><ele>2739.5</ele><time>2026-03-02T10:01:33.000Z</time></trkpt>
<trkpt lat="42.173795" lon="23.362996"><ele>2739.5</ele><time>2026-03-02T10:01:34.000Z</time></trkpt>
<trkpt lat="42.173797" lon="23.362997"><ele>2739.6</ele><time>2026-03-02T10:01:35.000Z</time></trkpt>
<trkpt lat="42.173798" lon="23.362998"><ele>2739.6</ele><time>2026-03-02T10:01:36.000Z</time></trkpt>
<trkpt lat="42.173798" lon="23.363"><ele>2739.6</ele><time>2026-03-02T10:01:37.000Z</time></trkpt>
<trkpt lat="42.173799" lon="23.363002"><ele>2739.6</ele><time>2026-03-02T10:01:38.000Z</time></trkpt>
<trkpt lat="42.1738" lon="23.363003"><ele>2739.6</ele><time>2026-03-02T10:01:39.000Z</time></trkpt>
<trkpt lat="42.173801" lon="23.363002"><ele>2739.6</ele><time>2026-03-02T10:01:40.000Z</time></trkpt>
<trkpt lat="42.173803" lon="23.363003"><ele>2739.6</ele><time>2026-03-02T10:01:41.000Z</time></trkpt>
<trkpt lat="42.173805" lon="23.363003"><ele>2739.6</ele><time>2026-03-02T10:01:42.000Z</time></trkpt>
<trkpt lat="42.173805" lon="23.363001"><ele>2739.6</ele><time>2026-03-02T10:01:43.000Z</time></trkpt>
<trkpt lat="42.173806" lon="23.363001"><ele>2739.6</ele><time>2026-03-02T10:01:44.000Z</time></trkpt>
<trkpt lat="42.173806" lon="23.363"><ele>2739.8</ele><time>2026-03-02T10:01:45.000Z</time></trkpt>
<trkpt lat="42.173805" lon="23.362999"><ele>2739.8</ele><time>2026-03-02T10:01:46.000Z</time></trkpt>
<trkpt lat="42.173804" lon="23.362999"><ele>2739.8</ele><time>2026-03-02T10:01:47.000Z</time></trkpt>
<trkpt lat="42.173803" lon="23.362999"><ele>2739.8</ele><time>2026-03-02T10:01:48.000Z</time></trkpt>
<trkpt lat="42.173802" lon="23.362999"><ele>2739.8</ele><time>2026-03-02T10:01:49.000Z</time></trkpt>
<trkpt lat="42.173801" lon="23.362997"><ele>2739.8</ele><time>2026-03-02T10:01:50.000Z</time></trkpt>
<trkpt lat="42.1738" lon="23.362995"><ele>2739.8</ele><time>2026-03-02T10:01:51.000Z</time></trkpt>
<trkpt lat="42.173799" lon="23.362991"><ele>2739.8</ele><time>2026-03-02T10:01:52.000Z</time></trkpt>
<trkpt lat="42.173798" lon="23.362989"><ele>2739.8</ele><time>2026-03-02T10:01:53.000Z</time></trkpt>
<trkpt lat="42.173798" lon="23.362987"><ele>2739.8</ele><time>2026-03-02T10:01:54.000Z</time></trkpt>
<trkpt lat="42.173799" lon="23.362987"><ele>2739.6</ele><time>2026-03-02T10:01:55.000Z</time></trkpt>
<trkpt lat="42.173799" lon="23.362989"><ele>2739.6</ele><time>2026-03-02T10:01:56.000Z</time></trkpt>
<trkpt lat="42.173801" lon="23.362993"><ele>2739.6</ele><time>2026-03-02T10:01:57.000Z</time></trkpt>
<trkpt lat="42.173803" lon="23.362996"><ele>2739.6</ele><time>2026-03-02T10:01:58.000Z</time></trkpt>
<trkpt lat="42.173805" lon="23.363001"><ele>2739.6</ele><time>2026-03-02T10:01:59.000Z</time></trkpt>
<trkpt lat="42.173805" lon="23.363005"><ele>2739.3</ele><time>2026-03-02T10:02:00.000Z</time></trkpt>
<trkpt lat="42.173805" lon="23.36301"><ele>2739.3</ele><time>2026-03-02T10:02:01.000Z</time></trkpt>
<trkpt lat="42.173804" lon="23.363013"><ele>2739.3</ele><time>2026-03-02T10:02:02.000Z</time></trkpt>
<trkpt lat="42.1738" lon="23.363016"><ele>2739.3</ele><time>2026-03-02T10:02:03.000Z</time></trkpt>
<trkpt lat="42.173796" lon="23.363017"><ele>2739.3</ele><time>2026-03-02T10:02:04.000Z</time></trkpt>
<trkpt lat="42.173791" lon="23.363017"><ele>2739.3</ele><time>2026-03-02T10:02:05.000Z</time></trkpt>
<trkpt lat="42.173788" lon="23.363018"><ele>2739.3</ele><time>2026-03-02T10:02:06.000Z</time></trkpt>
<trkpt lat="42.173786" lon="23.363019"><ele>2739.3</ele><time>2026-03-02T10:02:07.000Z</time></trkpt>
<trkpt lat="42.173787" lon="23.363022"><ele>2739.3</ele><time>2026-03-02T10:02:08.000Z</time></trkpt>
<trkpt lat="42.173789" lon="23.363027"><ele>2739.3</ele><time>2026-03-02T10:02:09.000Z</time></trkpt>
<trkpt lat="42.173791" lon="23.363034"><ele>2739.4</ele><time>2026-03-02T10:02:10.000Z</time></trkpt>
<trkpt lat="42.173792" lon="23.363041"><ele>2739.4</ele><time>2026-03-02T10:02:11.000Z</time></trkpt>
<trkpt lat="42.173791" lon="23.363047"><ele>2739.4</ele><time>2026-03-02T10:02:12.000Z</time></trkpt>
<trkpt lat="42.173789" lon="23.363051"><ele>2739.4</ele><time>2026-03-02T10:02:13.000Z</time></trkpt>
<trkpt lat="42.173787" lon="23.363054"><ele>2739.4</ele><time>2026-03-02T10:02:14.000Z</time></trkpt>
<trkpt lat="42.173786" lon="23.363053"><ele>2739.7</ele><time>2026-03-02T10:02:15.000Z</time></trkpt>
<trkpt lat="42.173786" lon="23.363051"><ele>2739.7</ele><time>2026-03-02T10:02:16.000Z</time></trkpt>
<trkpt lat="42.173787" lon="23.363049"><ele>2739.7</ele><time>2026-03-02T10:02:17.000Z</time></trkpt>
<trkpt lat="42.173788" lon="23.363048"><ele>2739.7</ele><time>2026-03-02T10:02:18.000Z</time></trkpt>
<trkpt lat="42.173789" lon="23.363047"><ele>2739.7</ele><time>2026-03-02T10:02:19.000Z</time></trkpt>
<trkpt lat="42.173789" lon="23.363046"><ele>2739.9</ele><time>2026-03-02T10:02:20.000Z</time></trkpt>
<trkpt lat="42.173788" lon="23.363046"><ele>2739.9</ele><time>2026-03-02T10:02:21.000Z</time></trkpt>
<trkpt lat="42.173787" lon="23.363045"><ele>2739.9</ele><time>2026-03-02T10:02:22.000Z</time></trkpt>
<trkpt lat="42.173787" lon="23.363045"><ele>2739.9</ele><time>2026-03-02T10:02:23.000Z</time></trkpt>
<trkpt lat="42.173787" lon="23.363045"><ele>2739.9</ele><time>2026-03-02T10:02:24.000Z</time></trkpt>
<trkpt lat="42.173787" lon="23.363045"><ele>2740</ele><time>2026-03-02T10:02:25.000Z</time></trkpt>
<trkpt lat="42.173787" lon="23.363045"><ele>2740</ele><time>2026-03-02T10:02:26.000Z</time></trkpt>
<trkpt lat="42.173787" lon="23.363045"><ele>2740</ele><time>2026-03-02T10:02:27.000Z</time></trkpt>
<trkpt lat="42.173788" lon="23.363046"><ele>2740</ele><time>2026-03-02T10:02:28.000Z</time></trkpt>
<trkpt lat="42.173788" lon="23.363046"><ele>2740</ele><time>2026-03-02T10:02:29.000Z</time></trkpt>
<trkpt lat="42.173789" lon="23.363047"><ele>2740.1</ele><time>2026-03-02T10:02:30.000Z</time></trkpt>
<trkpt lat="42.173789" lon="23.363047"><ele>2740.1</ele><time>2026-03-02T10:02:31.000Z</time></trkpt>
<trkpt lat="42.17379" lon="23.363048"><ele>2740.1</ele><time>2026-03-02T10:02:32.000Z</time></trkpt>
<trkpt lat="42.17379" lon="23.363048"><ele>2740.1</ele><time>2026-03-02T10:02:33.000Z</time></trkpt>
<trkpt lat="42.17379" lon="23.363048"><ele>2740.1</ele><time>2026-03-02T10:02:34.000Z</time></trkpt>
<trkpt lat="42.173789" lon="23.363046"><ele>2740.2</ele><time>2026-03-02T10:02:35.000Z</time></trkpt>
<trkpt lat="42.173788" lon="23.363044"><ele>2740.2</ele><time>2026-03-02T10:02:36.000Z</time></trkpt>
<trkpt lat="42.173787" lon="23.363042"><ele>2740.2</ele><time>2026-03-02T10:02:37.000Z</time></trkpt>
<trkpt lat="42.173785" lon="23.363037"><ele>2740.2</ele><time>2026-03-02T10:02:38.000Z</time></trkpt>
<trkpt lat="42.173782" lon="23.363032"><ele>2740.2</ele><time>2026-03-02T10:02:39.000Z</time></trkpt>
<trkpt lat="42.173781" lon="23.363027"><ele>2740.2</ele><time>2026-03-02T10:02:40.000Z</time></trkpt>
<trkpt lat="42.17378" lon="23.363024"><ele>2740.2</ele><time>2026-03-02T10:02:41.000Z</time></trkpt>
<trkpt lat="42.173779" lon="23.36302"><ele>2740.2</ele><time>2026-03-02T10:02:42.000Z</time></trkpt>
<trkpt lat="42.17378" lon="23.363018"><ele>2740.2</ele><time>2026-03-02T10:02:43.000Z</time></trkpt>
<trkpt lat="42.173781" lon="23.363017"><ele>2740.2</ele><time>2026-03-02T10:02:44.000Z</time></trkpt>
<trkpt lat="42.173781" lon="23.363017"><ele>2740.2</ele><time>2026-03-02T10:02:45.000Z</time></trkpt>
<trkpt lat="42.173782" lon="23.363017"><ele>2740.2</ele><time>2026-03-02T10:02:46.000Z</time></trkpt>
<trkpt lat="42.173782" lon="23.363017"><ele>2740.2</ele><time>2026-03-02T10:02:47.000Z</time></trkpt>
<trkpt lat="42.173782" lon="23.363018"><ele>2740.2</ele><time>2026-03-02T10:02:48.000Z</time></trkpt>
<trkpt lat="42.173782" lon="23.363019"><ele>2740.2</ele><time>2026-03-02T10:02:49.000Z</time></trkpt>
<trkpt lat="42.173782" lon="23.363019"><ele>2740.2</ele><time>2026-03-02T10:02:50.000Z</time></trkpt>
<trkpt lat="42.173783" lon="23.36302"><ele>2740.2</ele><time>2026-03-02T10:02:51.000Z</time></trkpt>
<trkpt lat="42.173783" lon="23.363021"><ele>2740.2</ele><time>2026-03-02T10:02:52.000Z</time></trkpt>
<trkpt lat="42.173784" lon="23.363021"><ele>2740.2</ele><time>2026-03-02T10:02:53.000Z</time></trkpt>
<trkpt lat="42.173784" lon="23.363021"><ele>2740.2</ele><time>2026-03-02T10:02:54.000Z</time></trkpt>
<trkpt lat="42.173785" lon="23.36302"><ele>2740.2</ele><time>2026-03-02T10:02:55.000Z</time></trkpt>
<trkpt lat="42.173786" lon="23.36302"><ele>2740.2</ele><time>2026-03-02T10:02:56.000Z</time></trkpt>
<trkpt lat="42.173786" lon="23.363019"><ele>2740.2</ele><time>2026-03-02T10:02:57.000Z</time></trkpt>
<trkpt lat="42.173786" lon="23.363015"><ele>2740.2</ele><time>2026-03-02T10:02:58.000Z</time></trkpt>
<trkpt lat="42.173787" lon="23.363011"><ele>2740.2</ele><time>2026-03-02T10:02:59.000Z</time></trkpt>
<trkpt lat="42.173788" lon="23.363004"><ele>2740.2</ele><time>2026-03-02T10:03:00.000Z</time></trkpt>
<trkpt lat="42.173791" lon="23.362998"><ele>2740.2</ele><time>2026-03-02T10:03:01.000Z</time></trkpt>
<trkpt lat="42.173795" lon="23.362993"><ele>2740.2</ele><time>2026-03-02T10:03:02.000Z</time></trkpt>
<trkpt lat="42.173801" lon="23.36299"><ele>2740.2</ele><time>2026-03-02T10:03:03.000Z</time></trkpt>
<trkpt lat="42.173805" lon="23.362988"><ele>2740.2</ele><time>2026-03-02T10:03:04.000Z</time></trkpt>
<trkpt lat="42.173807" lon="23.36299"><ele>2740</ele><time>2026-03-02T10:03:05.000Z</time></trkpt>
<trkpt lat="42.173807" lon="23.362992"><ele>2740</ele><time>2026-03-02T10:03:06.000Z</time></trkpt>
<trkpt lat="42.173806" lon="23.362995"><ele>2740</ele><time>2026-03-02T10:03:07.000Z</time></trkpt>
<trkpt lat="42.173803" lon="23.362996"><ele>2740</ele><time>2026-03-02T10:03:08.000Z</time></trkpt>
<trkpt lat="42.173801" lon="23.362997"><ele>2740</ele><time>2026-03-02T10:03:09.000Z</time></trkpt>
<trkpt lat="42.173801" lon="23.362996"><ele>2739.8</ele><time>2026-03-02T10:03:10.000Z</time></trkpt>
<trkpt lat="42.173801" lon="23.362996"><ele>2739.8</ele><time>2026-03-02T10:03:11.000Z</time></trkpt>
<trkpt lat="42.173802" lon="23.362996"><ele>2739.8</ele><time>2026-03-02T10:03:12.000Z</time></trkpt>
<trkpt lat="42.173802" lon="23.362996"><ele>2739.8</ele><time>2026-03-02T10:03:13.000Z</time></trkpt>
<trkpt lat="42.173802" lon="23.362997"><ele>2739.8</ele><time>2026-03-02T10:03:14.000Z</time></trkpt>
<trkpt lat="42.173802" lon="23.362997"><ele>2739.4</ele><time>2026-03-02T10:03:15.000Z</time></trkpt>
<trkpt lat="42.173802" lon="23.362996"><ele>2739.4</ele><time>2026-03-02T10:03:16.000Z</time></trkpt>
<trkpt lat="42.173801" lon="23.362996"><ele>2739.4</ele><time>2026-03-02T10:03:17.000Z</time></trkpt>
<trkpt lat="42.1738" lon="23.362995"><ele>2739.4</ele><time>2026-03-02T10:03:18.000Z</time></trkpt>
<trkpt lat="42.173798" lon="23.362995"><ele>2739.4</ele><time>2026-03-02T10:03:19.000Z</time></trkpt>
<trkpt lat="42.173796" lon="23.362994"><ele>2739.2</ele><time>2026-03-02T10:03:20.000Z</time></trkpt>
<trkpt lat="42.173795" lon="23.362994"><ele>2739.2</ele><time>2026-03-02T10:03:21.000Z</time></trkpt>
<trkpt lat="42.173794" lon="23.362995"><ele>2739.2</ele><time>2026-03-02T10:03:22.000Z</time></trkpt>
<trkpt lat="42.173793" lon="23.362995"><ele>2739.2</ele><time>2026-03-02T10:03:23.000Z</time></trkpt>
<trkpt lat="42.173794" lon="23.362995"><ele>2739.2</ele><time>2026-03-02T10:03:24.000Z</time></trkpt>
<trkpt lat="42.173793" lon="23.362995"><ele>2739.3</ele><time>2026-03-02T10:03:25.000Z</time></trkpt>
<trkpt lat="42.173793" lon="23.362995"><ele>2739.3</ele><time>2026-03-02T10:03:26.000Z</time></trkpt>
<trkpt lat="42.173793" lon="23.362995"><ele>2739.3</ele><time>2026-03-02T10:03:27.000Z</time></trkpt>
<trkpt lat="42.173793" lon="23.362996"><ele>2739.3</ele><time>2026-03-02T10:03:28.000Z</time></trkpt>
<trkpt lat="42.173793" lon="23.362998"><ele>2739.3</ele><time>2026-03-02T10:03:29.000Z</time></trkpt>
<trkpt lat="42.173792" lon="23.362999"><ele>2739.6</ele><time>2026-03-02T10:03:30.000Z</time></trkpt>
<trkpt lat="42.173791" lon="23.363"><ele>2739.6</ele><time>2026-03-02T10:03:31.000Z</time></trkpt>
<trkpt lat="42.17379" lon="23.363001"><ele>2739.6</ele><time>2026-03-02T10:03:32.000Z</time></trkpt>
<trkpt lat="42.173789" lon="23.363001"><ele>2739.6</ele><time>2026-03-02T10:03:33.000Z</time></trkpt>
<trkpt lat="42.173789" lon="23.363"><ele>2739.6</ele><time>2026-03-02T10:03:34.000Z</time></trkpt>
<trkpt lat="42.173788" lon="23.362999"><ele>2739.8</ele><time>2026-03-02T10:03:35.000Z</time></trkpt>
<trkpt lat="42.173788" lon="23.362999"><ele>2739.8</ele><time>2026-03-02T10:03:36.000Z</time></trkpt>
<trkpt lat="42.173787" lon="23.362999"><ele>2739.8</ele><time>2026-03-02T10:03:37.000Z</time></trkpt>
<trkpt lat="42.173787" lon="23.362999"><ele>2739.8</ele><time>2026-03-02T10:03:38.000Z</time></trkpt>
<trkpt lat="42.173787" lon="23.362999"><ele>2739.8</ele><time>2026-03-02T10:03:39.000Z</time></trkpt>
<trkpt lat="42.173787" lon="23.362999"><ele>2739.8</ele><time>2026-03-02T10:03:40.000Z</time></trkpt>
<trkpt lat="42.173787" lon="23.362999"><ele>2739.8</ele><time>2026-03-02T10:03:41.000Z</time></trkpt>
<trkpt lat="42.173787" lon="23.362999"><ele>2739.8</ele><time>2026-03-02T10:03:42.000Z</time></trkpt>
<trkpt lat="42.173787" lon="23.362999"><ele>2739.8</ele><time>2026-03-02T10:03:43.000Z</time></trkpt>
<trkpt lat="42.173787" lon="23.362999"><ele>2739.8</ele><time>2026-03-02T10:03:44.000Z</time></trkpt>
<trkpt lat="42.173787" lon="23.362999"><ele>2739.7</ele><time>2026-03-02T10:03:45.000Z</time></trkpt>
<trkpt lat="42.173787" lon="23.362999"><ele>2739.7</ele><time>2026-03-02T10:03:46.000Z</time></trkpt>
<trkpt lat="42.173787" lon="23.362999"><ele>2739.7</ele><time>2026-03-02T10:03:47.000Z</time></trkpt>
<trkpt lat="42.173787" lon="23.362999"><ele>2739.7</ele><time>2026-03-02T10:03:48.000Z</time></trkpt>
<trkpt lat="42.173787" lon="23.362999"><ele>2739.7</ele><time>2026-03-02T10:03:49.000Z</time></trkpt>
<trkpt lat="42.173787" lon="23.362999"><ele>2739.5</ele><time>2026-03-02T10:03:50.000Z</time></trkpt>
<trkpt lat="42.173787" lon="23.362999"><ele>2739.5</ele><time>2026-03-02T10:03:51.000Z</time></trkpt>
<trkpt lat="42.173787" lon="23.362999"><ele>2739.5</ele><time>2026-03-02T10:03:52.000Z</time></trkpt>
<trkpt lat="42.173787" lon="23.362999"><ele>2739.5</ele><time>2026-03-02T10:03:53.000Z</time></trkpt>
<trkpt lat="42.173788" lon="23.362999"><ele>2739.5</ele><time>2026-03-02T10:03:54.000Z</time></trkpt>
<trkpt lat="42.173789" lon="23.362998"><ele>2739.4</ele><time>2026-03-02T10:03:55.000Z</time></trkpt>
<trkpt lat="42.173789" lon="23.362998"><ele>2739.4</ele><time>2026-03-02T10:03:56.000Z</time></trkpt>
<trkpt lat="42.173791" lon="23.362996"><ele>2739.4</ele><time>2026-03-02T10:03:57.000Z</time></trkpt>
<trkpt lat="42.173793" lon="23.362994"><ele>2739.4</ele><time>2026-03-02T10:03:58.000Z</time></trkpt>
<trkpt lat="42.173795" lon="23.362994"><ele>2739.4</ele><time>2026-03-02T10:03:59.000Z</time></trkpt>
<trkpt lat="42.173799" lon="23.362994"><ele>2739.1</ele><time>2026-03-02T10:04:00.000Z</time></trkpt>
<trkpt lat="42.173803" lon="23.362996"><ele>2739.1</ele><time>2026-03-02T10:04:01.000Z</time></trkpt>
<trkpt lat="42.173807" lon="23.363"><ele>2739.1</ele><time>2026-03-02T10:04:02.000Z</time></trkpt>
<trkpt lat="42.173809" lon="23.363005"><ele>2739.1</ele><time>2026-03-02T10:04:03.000Z</time></trkpt>
<trkpt lat="42.173811" lon="23.363008"><ele>2739.1</ele><time>2026-03-02T10:04:04.000Z</time></trkpt>
<trkpt lat="42.173811" lon="23.363011"><ele>2738.9</ele><time>2026-03-02T10:04:05.000Z</time></trkpt>
<trkpt lat="42.173809" lon="23.363012"><ele>2738.9</ele><time>2026-03-02T10:04:06.000Z</time></trkpt>
<trkpt lat="42.173808" lon="23.363013"><ele>2738.9</ele><time>2026-03-02T10:04:07.000Z</time></trkpt>
<trkpt lat="42.173807" lon="23.363014"><ele>2738.9</ele><time>2026-03-02T10:04:08.000Z</time></trkpt>
<trkpt lat="42.173807" lon="23.363015"><ele>2738.9</ele><time>2026-03-02T10:04:09.000Z</time></trkpt>
<trkpt lat="42.173806" lon="23.363016"><ele>2738.9</ele><time>2026-03-02T10:04:10.000Z</time></trkpt>
<trkpt lat="42.173805" lon="23.363017"><ele>2738.9</ele><time>2026-03-02T10:04:11.000Z</time></trkpt>
<trkpt lat="42.173806" lon="23.363019"><ele>2738.9</ele><time>2026-03-02T10:04:12.000Z</time></trkpt>
<trkpt lat="42.173805" lon="23.36302"><ele>2738.9</ele><time>2026-03-02T10:04:13.000Z</time></trkpt>
<trkpt lat="42.173804" lon="23.363021"><ele>2738.9</ele><time>2026-03-02T10:04:14.000Z</time></trkpt>
<trkpt lat="42.173804" lon="23.363022"><ele>2739.1</ele><time>2026-03-02T10:04:15.000Z</time></trkpt>
<trkpt lat="42.173804" lon="23.363022"><ele>2739.1</ele><time>2026-03-02T10:04:16.000Z</time></trkpt>
<trkpt lat="42.173804" lon="23.363022"><ele>2739.1</ele><time>2026-03-02T10:04:17.000Z</time></trkpt>
<trkpt lat="42.173804" lon="23.363022"><ele>2739.1</ele><time>2026-03-02T10:04:18.000Z</time></trkpt>
<trkpt lat="42.173805" lon="23.363022"><ele>2739.1</ele><time>2026-03-02T10:04:19.000Z</time></trkpt>
<trkpt lat="42.173806" lon="23.363022"><ele>2739.2</ele><time>2026-03-02T10:04:20.000Z</time></trkpt>
<trkpt lat="42.173807" lon="23.363022"><ele>2739.2</ele><time>2026-03-02T10:04:21.000Z</time></trkpt>
<trkpt lat="42.173808" lon="23.363021"><ele>2739.2</ele><time>2026-03-02T10:04:22.000Z</time></trkpt>
<trkpt lat="42.17381" lon="23.363021"><ele>2739.2</ele><time>2026-03-02T10:04:23.000Z</time></trkpt>
<trkpt lat="42.173811" lon="23.36302"><ele>2739.2</ele><time>2026-03-02T10:04:24.000Z</time></trkpt>
<trkpt lat="42.173811" lon="23.363019"><ele>2739.3</ele><time>2026-03-02T10:04:25.000Z</time></trkpt>
<trkpt lat="42.173811" lon="23.363018"><ele>2739.3</ele><time>2026-03-02T10:04:26.000Z</time></trkpt>
<trkpt lat="42.173811" lon="23.363016"><ele>2739.3</ele><time>2026-03-02T10:04:27.000Z</time></trkpt>
<trkpt lat="42.173811" lon="23.363013"><ele>2739.3</ele><time>2026-03-02T10:04:28.000Z</time></trkpt>
<trkpt lat="42.17381" lon="23.363012"><ele>2739.3</ele><time>2026-03-02T10:04:29.000Z</time></trkpt>
<trkpt lat="42.17381" lon="23.36301"><ele>2739.3</ele><time>2026-03-02T10:04:30.000Z</time></trkpt>
<trkpt lat="42.17381" lon="23.363007"><ele>2739.3</ele><time>2026-03-02T10:04:31.000Z</time></trkpt>
<trkpt lat="42.173807" lon="23.363006"><ele>2739.3</ele><time>2026-03-02T10:04:32.000Z</time></trkpt>
<trkpt lat="42.173804" lon="23.363004"><ele>2739.3</ele><time>2026-03-02T10:04:33.000Z</time></trkpt>
<trkpt lat="42.1738" lon="23.363002"><ele>2739.3</ele><time>2026-03-02T10:04:34.000Z</time></trkpt>
<trkpt lat="42.173796" lon="23.363001"><ele>2739.3</ele><time>2026-03-02T10:04:35.000Z</time></trkpt>
<trkpt lat="42.173791" lon="23.363002"><ele>2739.3</ele><time>2026-03-02T10:04:36.000Z</time></trkpt>
<trkpt lat="42.173788" lon="23.363004"><ele>2739.3</ele><time>2026-03-02T10:04:37.000Z</time></trkpt>
<trkpt lat="42.173786" lon="23.363005"><ele>2739.3</ele><time>2026-03-02T10:04:38.000Z</time></trkpt>
<trkpt lat="42.173785" lon="23.363005"><ele>2739.3</ele><time>2026-03-02T10:04:39.000Z</time></trkpt>
<trkpt lat="42.173785" lon="23.363005"><ele>2739.3</ele><time>2026-03-02T10:04:40.000Z</time></trkpt>
<trkpt lat="42.173786" lon="23.363006"><ele>2739.3</ele><time>2026-03-02T10:04:41.000Z</time></trkpt>
<trkpt lat="42.173787" lon="23.363005"><ele>2739.3</ele><time>2026-03-02T10:04:42.000Z</time></trkpt>
<trkpt lat="42.173788" lon="23.363006"><ele>2739.3</ele><time>2026-03-02T10:04:43.000Z</time></trkpt>
<trkpt lat="42.173788" lon="23.363006"><ele>2739.3</ele><time>2026-03-02T10:04:44.000Z</time></trkpt>
<trkpt lat="42.173788" lon="23.363007"><ele>2739.3</ele><time>2026-03-02T10:04:45.000Z</time></trkpt>
<trkpt lat="42.173788" lon="23.363007"><ele>2739.3</ele><time>2026-03-02T10:04:46.000Z</time></trkpt>
<trkpt lat="42.173788" lon="23.363008"><ele>2739.3</ele><time>2026-03-02T10:04:47.000Z</time></trkpt>
<trkpt lat="42.173788" lon="23.363011"><ele>2739.3</ele><time>2026-03-02T10:04:48.000Z</time></trkpt>
<trkpt lat="42.173788" lon="23.363014"><ele>2739.3</ele><time>2026-03-02T10:04:49.000Z</time></trkpt>
<trkpt lat="42.173788" lon="23.363018"><ele>2739.4</ele><time>2026-03-02T10:04:50.000Z</time></trkpt>
<trkpt lat="42.173788" lon="23.363022"><ele>2739.4</ele><time>2026-03-02T10:04:51.000Z</time></trkpt>
<trkpt lat="42.173789" lon="23.363026"><ele>2739.4</ele><time>2026-03-02T10:04:52.000Z</time></trkpt>
<trkpt lat="42.17379" lon="23.363029"><ele>2739.4</ele><time>2026-03-02T10:04:53.000Z</time></trkpt>
<trkpt lat="42.173792" lon="23.363031"><ele>2739.4</ele><time>2026-03-02T10:04:54.000Z</time></trkpt>
<trkpt lat="42.173794" lon="23.363032"><ele>2739.5</ele><time>2026-03-02T10:04:55.000Z</time></trkpt>
<trkpt lat="42.173796" lon="23.363033"><ele>2739.5</ele><time>2026-03-02T10:04:56.000Z</time></trkpt>
<trkpt lat="42.173797" lon="23.363033"><ele>2739.5</ele><time>2026-03-02T10:04:57.000Z</time></trkpt>
<trkpt lat="42.173798" lon="23.363032"><ele>2739.5</ele><time>2026-03-02T10:04:58.000Z</time></trkpt>
<trkpt lat="42.173798" lon="23.363032"><ele>2739.5</ele><time>2026-03-02T10:04:59.000Z</time></trkpt>
<trkpt lat="42.173797" lon="23.363033"><ele>2739.7</ele><time>2026-03-02T10:05:00.000Z</time></trkpt>
<trkpt lat="42.173797" lon="23.363033"><ele>2739.7</ele><time>2026-03-02T10:05:01.000Z</time></trkpt>
<trkpt lat="42.173796" lon="23.363033"><ele>2739.7</ele><time>2026-03-02T10:05:02.000Z</time></trkpt>
<trkpt lat="42.173794" lon="23.363033"><ele>2739.7</ele><time>2026-03-02T10:05:03.000Z</time></trkpt>
<trkpt lat="42.173793" lon="23.363033"><ele>2739.7</ele><time>2026-03-02T10:05:04.000Z</time></trkpt>
<trkpt lat="42.173791" lon="23.363033"><ele>2739.6</ele><time>2026-03-02T10:05:05.000Z</time></trkpt>
<trkpt lat="42.17379" lon="23.363032"><ele>2739.6</ele><time>2026-03-02T10:05:06.000Z</time></trkpt>
<trkpt lat="42.173789" lon="23.363032"><ele>2739.6</ele><time>2026-03-02T10:05:07.000Z</time></trkpt>
<trkpt lat="42.173789" lon="23.363032"><ele>2739.6</ele><time>2026-03-02T10:05:08.000Z</time></trkpt>
<trkpt lat="42.173789" lon="23.363032"><ele>2739.6</ele><time>2026-03-02T10:05:09.000Z</time></trkpt>
<trkpt lat="42.173789" lon="23.363032"><ele>2739.5</ele><time>2026-03-02T10:05:10.000Z</time></trkpt>
<trkpt lat="42.173789" lon="23.363032"><ele>2739.5</ele><time>2026-03-02T10:05:11.000Z</time></trkpt>
<trkpt lat="42.173789" lon="23.363033"><ele>2739.5</ele><time>2026-03-02T10:05:12.000Z</time></trkpt>
<trkpt lat="42.173789" lon="23.363034"><ele>2739.5</ele><time>2026-03-02T10:05:13.000Z</time></trkpt>
<trkpt lat="42.173789" lon="23.363034"><ele>2739.5</ele><time>2026-03-02T10:05:14.000Z</time></trkpt>
<trkpt lat="42.173789" lon="23.363034"><ele>2739.3</ele><time>2026-03-02T10:05:15.000Z</time></trkpt>
<trkpt lat="42.17379" lon="23.363033"><ele>2739.3</ele><time>2026-03-02T10:05:16.000Z</time></trkpt>
<trkpt lat="42.173789" lon="23.363031"><ele>2739.3</ele><time>2026-03-02T10:05:17.000Z</time></trkpt>
<trkpt lat="42.173788" lon="23.363028"><ele>2739.3</ele><time>2026-03-02T10:05:18.000Z</time></trkpt>
<trkpt lat="42.173786" lon="23.363024"><ele>2739.3</ele><time>2026-03-02T10:05:19.000Z</time></trkpt>
<trkpt lat="42.173784" lon="23.363019"><ele>2739.3</ele><time>2026-03-02T10:05:20.000Z</time></trkpt>
<trkpt lat="42.17378" lon="23.363015"><ele>2739.3</ele><time>2026-03-02T10:05:21.000Z</time></trkpt>
<trkpt lat="42.173778" lon="23.363012"><ele>2739.3</ele><time>2026-03-02T10:05:22.000Z</time></trkpt>
<trkpt lat="42.173776" lon="23.363009"><ele>2739.3</ele><time>2026-03-02T10:05:23.000Z</time></trkpt>
<trkpt lat="42.173775" lon="23.363008"><ele>2739.3</ele><time>2026-03-02T10:05:24.000Z</time></trkpt>
<trkpt lat="42.173775" lon="23.363007"><ele>2739.4</ele><time>2026-03-02T10:05:25.000Z</time></trkpt>
<trkpt lat="42.173775" lon="23.363007"><ele>2739.4</ele><time>2026-03-02T10:05:26.000Z</time></trkpt>
<trkpt lat="42.173776" lon="23.363008"><ele>2739.4</ele><time>2026-03-02T10:05:27.000Z</time></trkpt>
<trkpt lat="42.173776" lon="23.363008"><ele>2739.4</ele><time>2026-03-02T10:05:28.000Z</time></trkpt>
<trkpt lat="42.173775" lon="23.363008"><ele>2739.4</ele><time>2026-03-02T10:05:29.000Z</time></trkpt>
<trkpt lat="42.173775" lon="23.363008"><ele>2739.6</ele><time>2026-03-02T10:05:30.000Z</time></trkpt>
<trkpt lat="42.173775" lon="23.363008"><ele>2739.6</ele><time>2026-03-02T10:05:31.000Z</time></trkpt>
<trkpt lat="42.173775" lon="23.363008"><ele>2739.6</ele><time>2026-03-02T10:05:32.000Z</time></trkpt>
<trkpt lat="42.173775" lon="23.36301"><ele>2739.6</ele><time>2026-03-02T10:05:33.000Z</time></trkpt>
<trkpt lat="42.173774" lon="23.363011"><ele>2739.6</ele><time>2026-03-02T10:05:34.000Z</time></trkpt>
<trkpt lat="42.173774" lon="23.363012"><ele>2739.8</ele><time>2026-03-02T10:05:35.000Z</time></trkpt>
<trkpt lat="42.173774" lon="23.363014"><ele>2739.8</ele><time>2026-03-02T10:05:36.000Z</time></trkpt>
<trkpt lat="42.173773" lon="23.363014"><ele>2739.8</ele><time>2026-03-02T10:05:37.000Z</time></trkpt>
<trkpt lat="42.173773" lon="23.363014"><ele>2739.8</ele><time>2026-03-02T10:05:38.000Z</time></trkpt>
<trkpt lat="42.173773" lon="23.363014"><ele>2739.8</ele><time>2026-03-02T10:05:39.000Z</time></trkpt>
<trkpt lat="42.173774" lon="23.363014"><ele>2739.9</ele><time>2026-03-02T10:05:40.000Z</time></trkpt>
<trkpt lat="42.173774" lon="23.363014"><ele>2739.9</ele><time>2026-03-02T10:05:41.000Z</time></trkpt>
<trkpt lat="42.173775" lon="23.363012"><ele>2739.9</ele><time>2026-03-02T10:05:42.000Z</time></trkpt>
<trkpt lat="42.173777" lon="23.36301"><ele>2739.9</ele><time>2026-03-02T10:05:43.000Z</time></trkpt>
<trkpt lat="42.173779" lon="23.363008"><ele>2739.9</ele><time>2026-03-02T10:05:44.000Z</time></trkpt>
<trkpt lat="42.173782" lon="23.363006"><ele>2739.9</ele><time>2026-03-02T10:05:45.000Z</time></trkpt>
<trkpt lat="42.173787" lon="23.363004"><ele>2739.9</ele><time>2026-03-02T10:05:46.000Z</time></trkpt>
<trkpt lat="42.173792" lon="23.363004"><ele>2739.9</ele><time>2026-03-02T10:05:47.000Z</time></trkpt>
<trkpt lat="42.173796" lon="23.363005"><ele>2739.9</ele><time>2026-03-02T10:05:48.000Z</time></trkpt>
<trkpt lat="42.173799" lon="23.363005"><ele>2739.9</ele><time>2026-03-02T10:05:49.000Z</time></trkpt>
<trkpt lat="42.173802" lon="23.363005"><ele>2739.8</ele><time>2026-03-02T10:05:50.000Z</time></trkpt>
<trkpt lat="42.173804" lon="23.363006"><ele>2739.8</ele><time>2026-03-02T10:05:51.000Z</time></trkpt>
<trkpt lat="42.173806" lon="23.363006"><ele>2739.8</ele><time>2026-03-02T10:05:52.000Z</time></trkpt>
<trkpt lat="42.173809" lon="23.363006"><ele>2739.8</ele><time>2026-03-02T10:05:53.000Z</time></trkpt>
<trkpt lat="42.173811" lon="23.363007"><ele>2739.8</ele><time>2026-03-02T10:05:54.000Z</time></trkpt>
<trkpt lat="42.173813" lon="23.363007"><ele>2739.6</ele><time>2026-03-02T10:05:55.000Z</time></trkpt>
<trkpt lat="42.173813" lon="23.363007"><ele>2739.6</ele><time>2026-03-02T10:05:56.000Z</time></trkpt>
<trkpt lat="42.173813" lon="23.363006"><ele>2739.6</ele><time>2026-03-02T10:05:57.000Z</time></trkpt>
<trkpt lat="42.173812" lon="23.363005"><ele>2739.6</ele><time>2026-03-02T10:05:58.000Z</time></trkpt>
<trkpt lat="42.173811" lon="23.363004"><ele>2739.6</ele><time>2026-03-02T10:05:59.000Z</time></trkpt>
<trkpt lat="42.17381" lon="23.363003"><ele>2739</ele><time>2026-03-02T10:06:00.000Z</time></trkpt>
<trkpt lat="42.173809" lon="23.363003"><ele>2739</ele><time>2026-03-02T10:06:01.000Z</time></trkpt>
<trkpt lat="42.17381" lon="23.363002"><ele>2739</ele><time>2026-03-02T10:06:02.000Z</time></trkpt>
<trkpt lat="42.17381" lon="23.363002"><ele>2739</ele><time>2026-03-02T10:06:03.000Z</time></trkpt>
<trkpt lat="42.17381" lon="23.363002"><ele>2739</ele><time>2026-03-02T10:06:04.000Z</time></trkpt>
<trkpt lat="42.17381" lon="23.363001"><ele>2738.7</ele><time>2026-03-02T10:06:05.000Z</time></trkpt>
<trkpt lat="42.17381" lon="23.363001"><ele>2738.7</ele><time>2026-03-02T10:06:06.000Z</time></trkpt>
<trkpt lat="42.17381" lon="23.363001"><ele>2738.7</ele><time>2026-03-02T10:06:07.000Z</time></trkpt>
<trkpt lat="42.17381" lon="23.363001"><ele>2738.7</ele><time>2026-03-02T10:06:08.000Z</time></trkpt>
<trkpt lat="42.17381" lon="23.363001"><ele>2738.7</ele><time>2026-03-02T10:06:09.000Z</time></trkpt>
<trkpt lat="42.17381" lon="23.363001"><ele>2738.6</ele><time>2026-03-02T10:06:10.000Z</time></trkpt>
<trkpt lat="42.17381" lon="23.363001"><ele>2738.6</ele><time>2026-03-02T10:06:11.000Z</time></trkpt>
<trkpt lat="42.173811" lon="23.363001"><ele>2738.6</ele><time>2026-03-02T10:06:12.000Z</time></trkpt>
<trkpt lat="42.173811" lon="23.363002"><ele>2738.6</ele><time>2026-03-02T10:06:13.000Z</time></trkpt>
<trkpt lat="42.173811" lon="23.363002"><ele>2738.6</ele><time>2026-03-02T10:06:14.000Z</time></trkpt>
<trkpt lat="42.173811" lon="23.363002"><ele>2738.6</ele><time>2026-03-02T10:06:15.000Z</time></trkpt>
<trkpt lat="42.173811" lon="23.363002"><ele>2738.6</ele><time>2026-03-02T10:06:16.000Z</time></trkpt>
<trkpt lat="42.173811" lon="23.363002"><ele>2738.6</ele><time>2026-03-02T10:06:17.000Z</time></trkpt>
<trkpt lat="42.173811" lon="23.363002"><ele>2738.6</ele><time>2026-03-02T10:06:18.000Z</time></trkpt>
<trkpt lat="42.173811" lon="23.363002"><ele>2738.6</ele><time>2026-03-02T10:06:19.000Z</time></trkpt>
<trkpt lat="42.173811" lon="23.363002"><ele>2738.6</ele><time>2026-03-02T10:06:20.000Z</time></trkpt>
<trkpt lat="42.173811" lon="23.363002"><ele>2738.6</ele><time>2026-03-02T10:06:21.000Z</time></trkpt>
<trkpt lat="42.173811" lon="23.363002"><ele>2738.6</ele><time>2026-03-02T10:06:22.000Z</time></trkpt>
<trkpt lat="42.173811" lon="23.363002"><ele>2738.6</ele><time>2026-03-02T10:06:23.000Z</time></trkpt>
<trkpt lat="42.173811" lon="23.363002"><ele>2738.6</ele><time>2026-03-02T10:06:24.000Z</time></trkpt>
<trkpt lat="42.173811" lon="23.363002"><ele>2738.6</ele><time>2026-03-02T10:06:25.000Z</time></trkpt>
<trkpt lat="42.17381" lon="23.363001"><ele>2738.6</ele><time>2026-03-02T10:06:26.000Z</time></trkpt>
<trkpt lat="42.173807" lon="23.363"><ele>2738.6</ele><time>2026-03-02T10:06:27.000Z</time></trkpt>
<trkpt lat="42.173803" lon="23.362999"><ele>2738.6</ele><time>2026-03-02T10:06:28.000Z</time></trkpt>
<trkpt lat="42.173798" lon="23.362999"><ele>2738.6</ele><time>2026-03-02T10:06:29.000Z</time></trkpt>
<trkpt lat="42.173791" lon="23.363"><ele>2738.5</ele><time>2026-03-02T10:06:30.000Z</time></trkpt>
<trkpt lat="42.173784" lon="23.363002"><ele>2738.5</ele><time>2026-03-02T10:06:31.000Z</time></trkpt>
<trkpt lat="42.173778" lon="23.363005"><ele>2738.5</ele><time>2026-03-02T10:06:32.000Z</time></trkpt>
<trkpt lat="42.173773" lon="23.363008"><ele>2738.5</ele><time>2026-03-02T10:06:33.000Z</time></trkpt>
<trkpt lat="42.173769" lon="23.36301"><ele>2738.5</ele><time>2026-03-02T10:06:34.000Z</time></trkpt>
<trkpt lat="42.173766" lon="23.363012"><ele>2738.5</ele><time>2026-03-02T10:06:35.000Z</time></trkpt>
<trkpt lat="42.173765" lon="23.363013"><ele>2738.5</ele><time>2026-03-02T10:06:36.000Z</time></trkpt>
<trkpt lat="42.173764" lon="23.363013"><ele>2738.5</ele><time>2026-03-02T10:06:37.000Z</time></trkpt>
<trkpt lat="42.173764" lon="23.363013"><ele>2738.5</ele><time>2026-03-02T10:06:38.000Z</time></trkpt>
<trkpt lat="42.173763" lon="23.363013"><ele>2738.5</ele><time>2026-03-02T10:06:39.000Z</time></trkpt>
<trkpt lat="42.173764" lon="23.363013"><ele>2738.5</ele><time>2026-03-02T10:06:40.000Z</time></trkpt>
<trkpt lat="42.173765" lon="23.363012"><ele>2738.5</ele><time>2026-03-02T10:06:41.000Z</time></trkpt>
<trkpt lat="42.173767" lon="23.363011"><ele>2738.5</ele><time>2026-03-02T10:06:42.000Z</time></trkpt>
<trkpt lat="42.17377" lon="23.363012"><ele>2738.5</ele><time>2026-03-02T10:06:43.000Z</time></trkpt>
<trkpt lat="42.173774" lon="23.363013"><ele>2738.5</ele><time>2026-03-02T10:06:44.000Z</time></trkpt>
<trkpt lat="42.173776" lon="23.363014"><ele>2738.5</ele><time>2026-03-02T10:06:45.000Z</time></trkpt>
<trkpt lat="42.173778" lon="23.363015"><ele>2738.5</ele><time>2026-03-02T10:06:46.000Z</time></trkpt>
<trkpt lat="42.173779" lon="23.363017"><ele>2738.5</ele><time>2026-03-02T10:06:47.000Z</time></trkpt>
<trkpt lat="42.17378" lon="23.363017"><ele>2738.5</ele><time>2026-03-02T10:06:48.000Z</time></trkpt>
<trkpt lat="42.17378" lon="23.363017"><ele>2738.5</ele><time>2026-03-02T10:06:49.000Z</time></trkpt>
<trkpt lat="42.17378" lon="23.363017"><ele>2738.6</ele><time>2026-03-02T10:06:50.000Z</time></trkpt>
<trkpt lat="42.17378" lon="23.363017"><ele>2738.6</ele><time>2026-03-02T10:06:51.000Z</time></trkpt>
<trkpt lat="42.17378" lon="23.363017"><ele>2738.6</ele><time>2026-03-02T10:06:52.000Z</time></trkpt>
<trkpt lat="42.173779" lon="23.363017"><ele>2738.6</ele><time>2026-03-02T10:06:53.000Z</time></trkpt>
<trkpt lat="42.173779" lon="23.363017"><ele>2738.6</ele><time>2026-03-02T10:06:54.000Z</time></trkpt>
<trkpt lat="42.173779" lon="23.363018"><ele>2738.6</ele><time>2026-03-02T10:06:55.000Z</time></trkpt>
<trkpt lat="42.173779" lon="23.363019"><ele>2738.6</ele><time>2026-03-02T10:06:56.000Z</time></trkpt>
<trkpt lat="42.173779" lon="23.36302"><ele>2738.6</ele><time>2026-03-02T10:06:57.000Z</time></trkpt>
<trkpt lat="42.173779" lon="23.363021"><ele>2738.6</ele><time>2026-03-02T10:06:58.000Z</time></trkpt>
<trkpt lat="42.173779" lon="23.363021"><ele>2738.6</ele><time>2026-03-02T10:06:59.000Z</time></trkpt>
<trkpt lat="42.173779" lon="23.363021"><ele>2738.6</ele><time>2026-03-02T10:07:00.000Z</time></trkpt>
<trkpt lat="42.173779" lon="23.363021"><ele>2738.6</ele><time>2026-03-02T10:07:01.000Z</time></trkpt>
<trkpt lat="42.173779" lon="23.363021"><ele>2738.6</ele><time>2026-03-02T10:07:02.000Z</time></trkpt>
<trkpt lat="42.173779" lon="23.363021"><ele>2738.6</ele><time>2026-03-02T10:07:03.000Z</time></trkpt>
<trkpt lat="42.173779" lon="23.36302"><ele>2738.6</ele><time>2026-03-02T10:07:04.000Z</time></trkpt>
<trkpt lat="42.173779" lon="23.363016"><ele>2738.7</ele><time>2026-03-02T10:07:05.000Z</time></trkpt>
<trkpt lat="42.173779" lon="23.363012"><ele>2738.7</ele><time>2026-03-02T10:07:06.000Z</time></trkpt>
<trkpt lat="42.173779" lon="23.363007"><ele>2738.7</ele><time>2026-03-02T10:07:07.000Z</time></trkpt>
<trkpt lat="42.173779" lon="23.363001"><ele>2738.7</ele><time>2026-03-02T10:07:08.000Z</time></trkpt>
<trkpt lat="42.173779" lon="23.362998"><ele>2738.7</ele><time>2026-03-02T10:07:09.000Z</time></trkpt>
<trkpt lat="42.173778" lon="23.362995"><ele>2738.7</ele><time>2026-03-02T10:07:10.000Z</time></trkpt>
<trkpt lat="42.173779" lon="23.362994"><ele>2738.7</ele><time>2026-03-02T10:07:11.000Z</time></trkpt>
<trkpt lat="42.17378" lon="23.362993"><ele>2738.7</ele><time>2026-03-02T10:07:12.000Z</time></trkpt>
<trkpt lat="42.173783" lon="23.362994"><ele>2738.7</ele><time>2026-03-02T10:07:13.000Z</time></trkpt>
<trkpt lat="42.173787" lon="23.362994"><ele>2738.7</ele><time>2026-03-02T10:07:14.000Z</time></trkpt>
<trkpt lat="42.173791" lon="23.362994"><ele>2738.5</ele><time>2026-03-02T10:07:15.000Z</time></trkpt>
<trkpt lat="42.173794" lon="23.362994"><ele>2738.5</ele><time>2026-03-02T10:07:16.000Z</time></trkpt>
<trkpt lat="42.173797" lon="23.362994"><ele>2738.5</ele><time>2026-03-02T10:07:17.000Z</time></trkpt>
<trkpt lat="42.173797" lon="23.362994"><ele>2738.5</ele><time>2026-03-02T10:07:18.000Z</time></trkpt>
<trkpt lat="42.173796" lon="23.362993"><ele>2738.5</ele><time>2026-03-02T10:07:19.000Z</time></trkpt>
<trkpt lat="42.173795" lon="23.362992"><ele>2738.3</ele><time>2026-03-02T10:07:20.000Z</time></trkpt>
<trkpt lat="42.173793" lon="23.362992"><ele>2738.3</ele><time>2026-03-02T10:07:21.000Z</time></trkpt>
<trkpt lat="42.17379" lon="23.362991"><ele>2738.3</ele><time>2026-03-02T10:07:22.000Z</time></trkpt>
<trkpt lat="42.173787" lon="23.36299"><ele>2738.3</ele><time>2026-03-02T10:07:23.000Z</time></trkpt>
<trkpt lat="42.173784" lon="23.36299"><ele>2738.3</ele><time>2026-03-02T10:07:24.000Z</time></trkpt>
<trkpt lat="42.173782" lon="23.36299"><ele>2738.1</ele><time>2026-03-02T10:07:25.000Z</time></trkpt>
<trkpt lat="42.173781" lon="23.362991"><ele>2738.1</ele><time>2026-03-02T10:07:26.000Z</time></trkpt>
<trkpt lat="42.17378" lon="23.362991"><ele>2738.1</ele><time>2026-03-02T10:07:27.000Z</time></trkpt>
<trkpt lat="42.17378" lon="23.362991"><ele>2738.1</ele><time>2026-03-02T10:07:28.000Z</time></trkpt>
<trkpt lat="42.173781" lon="23.362991"><ele>2738.1</ele><time>2026-03-02T10:07:29.000Z</time></trkpt>
<trkpt lat="42.173782" lon="23.362992"><ele>2738.1</ele><time>2026-03-02T10:07:30.000Z</time></trkpt>
<trkpt lat="42.173783" lon="23.362992"><ele>2738.1</ele><time>2026-03-02T10:07:31.000Z</time></trkpt>
<trkpt lat="42.173784" lon="23.362991"><ele>2738.1</ele><time>2026-03-02T10:07:32.000Z</time></trkpt>
<trkpt lat="42.173785" lon="23.362991"><ele>2738.1</ele><time>2026-03-02T10:07:33.000Z</time></trkpt>
<trkpt lat="42.173785" lon="23.362992"><ele>2738.1</ele><time>2026-03-02T10:07:34.000Z</time></trkpt>
<trkpt lat="42.173784" lon="23.362992"><ele>2738.2</ele><time>2026-03-02T10:07:35.000Z</time></trkpt>
<trkpt lat="42.173784" lon="23.362992"><ele>2738.2</ele><time>2026-03-02T10:07:36.000Z</time></trkpt>
<trkpt lat="42.173784" lon="23.362992"><ele>2738.2</ele><time>2026-03-02T10:07:37.000Z</time></trkpt>
<trkpt lat="42.173783" lon="23.362991"><ele>2738.2</ele><time>2026-03-02T10:07:38.000Z</time></trkpt>
<trkpt lat="42.173783" lon="23.362991"><ele>2738.2</ele><time>2026-03-02T10:07:39.000Z</time></trkpt>
<trkpt lat="42.173783" lon="23.362991"><ele>2738.3</ele><time>2026-03-02T10:07:40.000Z</time></trkpt>
<trkpt lat="42.173783" lon="23.362991"><ele>2738.3</ele><time>2026-03-02T10:07:41.000Z</time></trkpt>
<trkpt lat="42.173783" lon="23.362991"><ele>2738.3</ele><time>2026-03-02T10:07:42.000Z</time></trkpt>
<trkpt lat="42.173782" lon="23.362992"><ele>2738.3</ele><time>2026-03-02T10:07:43.000Z</time></trkpt>
<trkpt lat="42.173782" lon="23.362992"><ele>2738.3</ele><time>2026-03-02T10:07:44.000Z</time></trkpt>
<trkpt lat="42.173781" lon="23.362993"><ele>2738.3</ele><time>2026-03-02T10:07:45.000Z</time></trkpt>
<trkpt lat="42.173779" lon="23.362992"><ele>2738.3</ele><time>2026-03-02T10:07:46.000Z</time></trkpt>
<trkpt lat="42.173778" lon="23.362993"><ele>2738.3</ele><time>2026-03-02T10:07:47.000Z</time></trkpt>
<trkpt lat="42.173779" lon="23.362993"><ele>2738.3</ele><time>2026-03-02T10:07:48.000Z</time></trkpt>
<trkpt lat="42.17378" lon="23.362993"><ele>2738.3</ele><time>2026-03-02T10:07:49.000Z</time></trkpt>
<trkpt lat="42.173779" lon="23.362992"><ele>2738.3</ele><time>2026-03-02T10:07:50.000Z</time></trkpt>
<trkpt lat="42.17378" lon="23.362993"><ele>2738.3</ele><time>2026-03-02T10:07:51.000Z</time></trkpt>
<trkpt lat="42.173779" lon="23.362993"><ele>2738.3</ele><time>2026-03-02T10:07:52.000Z</time></trkpt>
<trkpt lat="42.173778" lon="23.362992"><ele>2738.3</ele><time>2026-03-02T10:07:53.000Z</time></trkpt>
<trkpt lat="42.173776" lon="23.362992"><ele>2738.3</ele><time>2026-03-02T10:07:54.000Z</time></trkpt>
<trkpt lat="42.173776" lon="23.362993"><ele>2738.4</ele><time>2026-03-02T10:07:55.000Z</time></trkpt>
<trkpt lat="42.173776" lon="23.362993"><ele>2738.4</ele><time>2026-03-02T10:07:56.000Z</time></trkpt>
<trkpt lat="42.173776" lon="23.362994"><ele>2738.4</ele><time>2026-03-02T10:07:57.000Z</time></trkpt>
<trkpt lat="42.173777" lon="23.362994"><ele>2738.4</ele><time>2026-03-02T10:07:58.000Z</time></trkpt>
<trkpt lat="42.173777" lon="23.362995"><ele>2738.4</ele><time>2026-03-02T10:07:59.000Z</time></trkpt>
<trkpt lat="42.173778" lon="23.362995"><ele>2738.4</ele><time>2026-03-02T10:08:00.000Z</time></trkpt>
<trkpt lat="42.173778" lon="23.362995"><ele>2738.4</ele><time>2026-03-02T10:08:01.000Z</time></trkpt>
<trkpt lat="42.173778" lon="23.362995"><ele>2738.4</ele><time>2026-03-02T10:08:02.000Z</time></trkpt>
<trkpt lat="42.173778" lon="23.362995"><ele>2738.4</ele><time>2026-03-02T10:08:03.000Z</time></trkpt>
<trkpt lat="42.173778" lon="23.362995"><ele>2738.4</ele><time>2026-03-02T10:08:04.000Z</time></trkpt>
<trkpt lat="42.173778" lon="23.362995"><ele>2738.6</ele><time>2026-03-02T10:08:05.000Z</time></trkpt>
<trkpt lat="42.173778" lon="23.362995"><ele>2738.6</ele><time>2026-03-02T10:08:06.000Z</time></trkpt>
<trkpt lat="42.173778" lon="23.362995"><ele>2738.6</ele><time>2026-03-02T10:08:07.000Z</time></trkpt>
<trkpt lat="42.173778" lon="23.362995"><ele>2738.6</ele><time>2026-03-02T10:08:08.000Z</time></trkpt>
<trkpt lat="42.173778" lon="23.362995"><ele>2738.6</ele><time>2026-03-02T10:08:09.000Z</time></trkpt>
<trkpt lat="42.173778" lon="23.362995"><ele>2738.8</ele><time>2026-03-02T10:08:10.000Z</time></trkpt>
<trkpt lat="42.173778" lon="23.362995"><ele>2738.8</ele><time>2026-03-02T10:08:11.000Z</time></trkpt>
<trkpt lat="42.173778" lon="23.362995"><ele>2738.8</ele><time>2026-03-02T10:08:12.000Z</time></trkpt>
<trkpt lat="42.173778" lon="23.362995"><ele>2738.8</ele><time>2026-03-02T10:08:13.000Z</time></trkpt>
<trkpt lat="42.173779" lon="23.362994"><ele>2738.8</ele><time>2026-03-02T10:08:14.000Z</time></trkpt>
<trkpt lat="42.173779" lon="23.362994"><ele>2739</ele><time>2026-03-02T10:08:15.000Z</time></trkpt>
<trkpt lat="42.173779" lon="23.362994"><ele>2739</ele><time>2026-03-02T10:08:16.000Z</time></trkpt>
<trkpt lat="42.173779" lon="23.362995"><ele>2739</ele><time>2026-03-02T10:08:17.000Z</time></trkpt>
<trkpt lat="42.173779" lon="23.362995"><ele>2739</ele><time>2026-03-02T10:08:18.000Z</time></trkpt>
<trkpt lat="42.173779" lon="23.362995"><ele>2739</ele><time>2026-03-02T10:08:19.000Z</time></trkpt>
<trkpt lat="42.173779" lon="23.362995"><ele>2739</ele><time>2026-03-02T10:08:20.000Z</time></trkpt>
<trkpt lat="42.173778" lon="23.362995"><ele>2739</ele><time>2026-03-02T10:08:21.000Z</time></trkpt>
<trkpt lat="42.173779" lon="23.362995"><ele>2739</ele><time>2026-03-02T10:08:22.000Z</time></trkpt>
<trkpt lat="42.17378" lon="23.362995"><ele>2739</ele><time>2026-03-02T10:08:23.000Z</time></trkpt>
<trkpt lat="42.17378" lon="23.362996"><ele>2739</ele><time>2026-03-02T10:08:24.000Z</time></trkpt>
<trkpt lat="42.173781" lon="23.362997"><ele>2739</ele><time>2026-03-02T10:08:25.000Z</time></trkpt>
<trkpt lat="42.173782" lon="23.362999"><ele>2739</ele><time>2026-03-02T10:08:26.000Z</time></trkpt>
<trkpt lat="42.173782" lon="23.363"><ele>2739</ele><time>2026-03-02T10:08:27.000Z</time></trkpt>
<trkpt lat="42.173782" lon="23.363002"><ele>2739</ele><time>2026-03-02T10:08:28.000Z</time></trkpt>
<trkpt lat="42.173782" lon="23.363002"><ele>2739</ele><time>2026-03-02T10:08:29.000Z</time></trkpt>
<trkpt lat="42.173782" lon="23.363003"><ele>2738.9</ele><time>2026-03-02T10:08:30.000Z</time></trkpt>
<trkpt lat="42.173782" lon="23.363003"><ele>2738.9</ele><time>2026-03-02T10:08:31.000Z</time></trkpt>
<trkpt lat="42.173782" lon="23.363003"><ele>2738.9</ele><time>2026-03-02T10:08:32.000Z</time></trkpt>
<trkpt lat="42.173783" lon="23.363003"><ele>2738.9</ele><time>2026-03-02T10:08:33.000Z</time></trkpt>
<trkpt lat="42.173784" lon="23.363003"><ele>2738.9</ele><time>2026-03-02T10:08:34.000Z</time></trkpt>
<trkpt lat="42.173785" lon="23.363002"><ele>2738.7</ele><time>2026-03-02T10:08:35.000Z</time></trkpt>
<trkpt lat="42.173787" lon="23.363002"><ele>2738.7</ele><time>2026-03-02T10:08:36.000Z</time></trkpt>
<trkpt lat="42.173789" lon="23.363001"><ele>2738.7</ele><time>2026-03-02T10:08:37.000Z</time></trkpt>
<trkpt lat="42.173789" lon="23.363001"><ele>2738.7</ele><time>2026-03-02T10:08:38.000Z</time></trkpt>
<trkpt lat="42.17379" lon="23.363"><ele>2738.7</ele><time>2026-03-02T10:08:39.000Z</time></trkpt>
<trkpt lat="42.173791" lon="23.363001"><ele>2738.7</ele><time>2026-03-02T10:08:40.000Z</time></trkpt>
<trkpt lat="42.173791" lon="23.363001"><ele>2738.7</ele><time>2026-03-02T10:08:41.000Z</time></trkpt>
<trkpt lat="42.173792" lon="23.363001"><ele>2738.7</ele><time>2026-03-02T10:08:42.000Z</time></trkpt>
<trkpt lat="42.173792" lon="23.363002"><ele>2738.7</ele><time>2026-03-02T10:08:43.000Z</time></trkpt>
<trkpt lat="42.173792" lon="23.363002"><ele>2738.7</ele><time>2026-03-02T10:08:44.000Z</time></trkpt>
<trkpt lat="42.173792" lon="23.363002"><ele>2738.7</ele><time>2026-03-02T10:08:45.000Z</time></trkpt>
<trkpt lat="42.173792" lon="23.363002"><ele>2738.7</ele><time>2026-03-02T10:08:46.000Z</time></trkpt>
<trkpt lat="42.173792" lon="23.363001"><ele>2738.7</ele><time>2026-03-02T10:08:47.000Z</time></trkpt>
<trkpt lat="42.173793" lon="23.363001"><ele>2738.7</ele><time>2026-03-02T10:08:48.000Z</time></trkpt>
<trkpt lat="42.173793" lon="23.363"><ele>2738.7</ele><time>2026-03-02T10:08:49.000Z</time></trkpt>
<trkpt lat="42.173794" lon="23.362999"><ele>2738.7</ele><time>2026-03-02T10:08:50.000Z</time></trkpt>
<trkpt lat="42.173794" lon="23.362999"><ele>2738.7</ele><time>2026-03-02T10:08:51.000Z</time></trkpt>
<trkpt lat="42.173794" lon="23.362999"><ele>2738.7</ele><time>2026-03-02T10:08:52.000Z</time></trkpt>
<trkpt lat="42.173794" lon="23.362999"><ele>2738.7</ele><time>2026-03-02T10:08:53.000Z</time></trkpt>
<trkpt lat="42.173793" lon="23.362999"><ele>2738.7</ele><time>2026-03-02T10:08:54.000Z</time></trkpt>
<trkpt lat="42.173792" lon="23.363"><ele>2738.6</ele><time>2026-03-02T10:08:55.000Z</time></trkpt>
<trkpt lat="42.173791" lon="23.363"><ele>2738.6</ele><time>2026-03-02T10:08:56.000Z</time></trkpt>
<trkpt lat="42.173791" lon="23.363"><ele>2738.6</ele><time>2026-03-02T10:08:57.000Z</time></trkpt>
<trkpt lat="42.173791" lon="23.363"><ele>2738.6</ele><time>2026-03-02T10:08:58.000Z</time></trkpt>
<trkpt lat="42.173791" lon="23.363"><ele>2738.6</ele><time>2026-03-02T10:08:59.000Z</time></trkpt>
<trkpt lat="42.173791" lon="23.363"><ele>2738.6</ele><time>2026-03-02T10:09:00.000Z</time></trkpt>
<trkpt lat="42.173791" lon="23.363001"><ele>2738.6</ele><time>2026-03-02T10:09:01.000Z</time></trkpt>
<trkpt lat="42.173791" lon="23.363001"><ele>2738.6</ele><time>2026-03-02T10:09:02.000Z</time></trkpt>
<trkpt lat="42.173791" lon="23.363001"><ele>2738.6</ele><time>2026-03-02T10:09:03.000Z</time></trkpt>
<trkpt lat="42.173791" lon="23.363001"><ele>2738.6</ele><time>2026-03-02T10:09:04.000Z</time></trkpt>
<trkpt lat="42.173791" lon="23.363001"><ele>2738.8</ele><time>2026-03-02T10:09:05.000Z</time></trkpt>
<trkpt lat="42.173791" lon="23.363001"><ele>2738.8</ele><time>2026-03-02T10:09:06.000Z</time></trkpt>
<trkpt lat="42.173791" lon="23.363001"><ele>2738.8</ele><time>2026-03-02T10:09:07.000Z</time></trkpt>
<trkpt lat="42.173791" lon="23.363001"><ele>2738.8</ele><time>2026-03-02T10:09:08.000Z</time></trkpt>
<trkpt lat="42.173791" lon="23.363001"><ele>2738.8</ele><time>2026-03-02T10:09:09.000Z</time></trkpt>
<trkpt lat="42.173791" lon="23.363001"><ele>2738.9</ele><time>2026-03-02T10:09:10.000Z</time></trkpt>
<trkpt lat="42.173791" lon="23.363001"><ele>2738.9</ele><time>2026-03-02T10:09:11.000Z</time></trkpt>
<trkpt lat="42.173791" lon="23.363001"><ele>2738.9</ele><time>2026-03-02T10:09:12.000Z</time></trkpt>
<trkpt lat="42.173791" lon="23.363001"><ele>2738.9</ele><time>2026-03-02T10:09:13.000Z</time></trkpt>
<trkpt lat="42.173791" lon="23.363001"><ele>2738.9</ele><time>2026-03-02T10:09:14.000Z</time></trkpt>
<trkpt lat="42.173791" lon="23.363001"><ele>2739</ele><time>2026-03-02T10:09:15.000Z</time></trkpt>
<trkpt lat="42.173791" lon="23.363001"><ele>2739</ele><time>2026-03-02T10:09:16.000Z</time></trkpt>
<trkpt lat="42.173791" lon="23.363001"><ele>2739</ele><time>2026-03-02T10:09:17.000Z</time></trkpt>
<trkpt lat="42.173791" lon="23.363001"><ele>2739</ele><time>2026-03-02T10:09:18.000Z</time></trkpt>
<trkpt lat="42.173791" lon="23.363001"><ele>2739</ele><time>2026-03-02T10:09:19.000Z</time></trkpt>
<trkpt lat="42.173792" lon="23.363001"><ele>2739.2</ele><time>2026-03-02T10:09:20.000Z</time></trkpt>
<trkpt lat="42.173792" lon="23.363"><ele>2739.2</ele><time>2026-03-02T10:09:21.000Z</time></trkpt>
<trkpt lat="42.173792" lon="23.363"><ele>2739.2</ele><time>2026-03-02T10:09:22.000Z</time></trkpt>
<trkpt lat="42.173792" lon="23.363"><ele>2739.2</ele><time>2026-03-02T10:09:23.000Z</time></trkpt>
<trkpt lat="42.173792" lon="23.363"><ele>2739.2</ele><time>2026-03-02T10:09:24.000Z</time></trkpt>
<trkpt lat="42.173792" lon="23.363"><ele>2739.3</ele><time>2026-03-02T10:09:25.000Z</time></trkpt>
<trkpt lat="42.173792" lon="23.363"><ele>2739.3</ele><time>2026-03-02T10:09:26.000Z</time></trkpt>
<trkpt lat="42.173793" lon="23.363"><ele>2739.3</ele><time>2026-03-02T10:09:27.000Z</time></trkpt>
<trkpt lat="42.173794" lon="23.363002"><ele>2739.3</ele><time>2026-03-02T10:09:28.000Z</time></trkpt>
<trkpt lat="42.173796" lon="23.363002"><ele>2739.3</ele><time>2026-03-02T10:09:29.000Z</time></trkpt>
<trkpt lat="42.173797" lon="23.363003"><ele>2739.3</ele><time>2026-03-02T10:09:30.000Z</time></trkpt>
<trkpt lat="42.173799" lon="23.363003"><ele>2739.3</ele><time>2026-03-02T10:09:31.000Z</time></trkpt>
<trkpt lat="42.1738" lon="23.363002"><ele>2739.3</ele><time>2026-03-02T10:09:32.000Z</time></trkpt>
<trkpt lat="42.1738" lon="23.363001"><ele>2739.3</ele><time>2026-03-02T10:09:33.000Z</time></trkpt>
<trkpt lat="42.173801" lon="23.363"><ele>2739.3</ele><time>2026-03-02T10:09:34.000Z</time></trkpt>
<trkpt lat="42.173802" lon="23.362999"><ele>2739.1</ele><time>2026-03-02T10:09:35.000Z</time></trkpt>
<trkpt lat="42.173802" lon="23.362999"><ele>2739.1</ele><time>2026-03-02T10:09:36.000Z</time></trkpt>
<trkpt lat="42.173802" lon="23.362998"><ele>2739.1</ele><time>2026-03-02T10:09:37.000Z</time></trkpt>
<trkpt lat="42.173802" lon="23.362998"><ele>2739.1</ele><time>2026-03-02T10:09:38.000Z</time></trkpt>
<trkpt lat="42.173801" lon="23.362998"><ele>2739.1</ele><time>2026-03-02T10:09:39.000Z</time></trkpt>
<trkpt lat="42.173801" lon="23.362998"><ele>2739</ele><time>2026-03-02T10:09:40.000Z</time></trkpt>
<trkpt lat="42.173801" lon="23.362998"><ele>2739</ele><time>2026-03-02T10:09:41.000Z</time></trkpt>
<trkpt lat="42.1738" lon="23.362999"><ele>2739</ele><time>2026-03-02T10:09:42.000Z</time></trkpt>
<trkpt lat="42.1738" lon="23.362999"><ele>2739</ele><time>2026-03-02T10:09:43.000Z</time></trkpt>
<trkpt lat="42.1738" lon="23.362999"><ele>2739</ele><time>2026-03-02T10:09:44.000Z</time></trkpt>
<trkpt lat="42.1738" lon="23.363"><ele>2738.7</ele><time>2026-03-02T10:09:45.000Z</time></trkpt>
<trkpt lat="42.1738" lon="23.363"><ele>2738.7</ele><time>2026-03-02T10:09:46.000Z</time></trkpt>
<trkpt lat="42.1738" lon="23.363"><ele>2738.7</ele><time>2026-03-02T10:09:47.000Z</time></trkpt>
<trkpt lat="42.1738" lon="23.363"><ele>2738.7</ele><time>2026-03-02T10:09:48.000Z</time></trkpt>
<trkpt lat="42.173801" lon="23.363"><ele>2738.7</ele><time>2026-03-02T10:09:49.000Z</time></trkpt>
<trkpt lat="42.173801" lon="23.363001"><ele>2738.5</ele><time>2026-03-02T10:09:50.000Z</time></trkpt>
<trkpt lat="42.173801" lon="23.363002"><ele>2738.5</ele><time>2026-03-02T10:09:51.000Z</time></trkpt>
<trkpt lat="42.173802" lon="23.363003"><ele>2738.5</ele><time>2026-03-02T10:09:52.000Z</time></trkpt>
<trkpt lat="42.173802" lon="23.363004"><ele>2738.5</ele><time>2026-03-02T10:09:53.000Z</time></trkpt>
<trkpt lat="42.173802" lon="23.363004"><ele>2738.5</ele><time>2026-03-02T10:09:54.000Z</time></trkpt>
<trkpt lat="42.173801" lon="23.363005"><ele>2738.5</ele><time>2026-03-02T10:09:55.000Z</time></trkpt>
<trkpt lat="42.173801" lon="23.363005"><ele>2738.5</ele><time>2026-03-02T10:09:56.000Z</time></trkpt>
<trkpt lat="42.173801" lon="23.363004"><ele>2738.5</ele><time>2026-03-02T10:09:57.000Z</time></trkpt>
<trkpt lat="42.173801" lon="23.363004"><ele>2738.5</ele><time>2026-03-02T10:09:58.000Z</time></trkpt>
<trkpt lat="42.1738" lon="23.363003"><ele>2738.5</ele><time>2026-03-02T10:09:59.000Z</time></trkpt>
<trkpt lat="42.1738" lon="23.363003"><ele>2738.8</ele><time>2026-03-02T10:10:00.000Z</time></trkpt>
<trkpt lat="42.1738" lon="23.363003"><ele>2738.8</ele><time>2026-03-02T10:10:01.000Z</time></trkpt>
<trkpt lat="42.1738" lon="23.363003"><ele>2738.8</ele><time>2026-03-02T10:10:02.000Z</time></trkpt>
<trkpt lat="42.1738" lon="23.363003"><ele>2738.8</ele><time>2026-03-02T10:10:03.000Z</time></trkpt>
<trkpt lat="42.1738" lon="23.363003"><ele>2738.8</ele><time>2026-03-02T10:10:04.000Z</time></trkpt>
<trkpt lat="42.1738" lon="23.363003"><ele>2739</ele><time>2026-03-02T10:10:05.000Z</time></trkpt>
<trkpt lat="42.1738" lon="23.363003"><ele>2739</ele><time>2026-03-02T10:10:06.000Z</time></trkpt>
<trkpt lat="42.1738" lon="23.363002"><ele>2739</ele><time>2026-03-02T10:10:07.000Z</time></trkpt>
<trkpt lat="42.1738" lon="23.363002"><ele>2739</ele><time>2026-03-02T10:10:08.000Z</time></trkpt>
<trkpt lat="42.173799" lon="23.363002"><ele>2739</ele><time>2026-03-02T10:10:09.000Z</time></trkpt>
<trkpt lat="42.173799" lon="23.363002"><ele>2739.1</ele><time>2026-03-02T10:10:10.000Z</time></trkpt>
<trkpt lat="42.173798" lon="23.363002"><ele>2739.1</ele><time>2026-03-02T10:10:11.000Z</time></trkpt>
<trkpt lat="42.173798" lon="23.363002"><ele>2739.1</ele><time>2026-03-02T10:10:12.000Z</time></trkpt>
<trkpt lat="42.173798" lon="23.363001"><ele>2739.1</ele><time>2026-03-02T10:10:13.000Z</time></trkpt>
<trkpt lat="42.173798" lon="23.363001"><ele>2739.1</ele><time>2026-03-02T10:10:14.000Z</time></trkpt>
<trkpt lat="42.173798" lon="23.363001"><ele>2739.1</ele><time>2026-03-02T10:10:15.000Z</time></trkpt>
<trkpt lat="42.173799" lon="23.363001"><ele>2739.1</ele><time>2026-03-02T10:10:16.000Z</time></trkpt>
<trkpt lat="42.173799" lon="23.363001"><ele>2739.1</ele><time>2026-03-02T10:10:17.000Z</time></trkpt>
<trkpt lat="42.173799" lon="23.363002"><ele>2739.1</ele><time>2026-03-02T10:10:18.000Z</time></trkpt>
<trkpt lat="42.173801" lon="23.363003"><ele>2739.1</ele><time>2026-03-02T10:10:19.000Z</time></trkpt>
<trkpt lat="42.173802" lon="23.363005"><ele>2739.3</ele><time>2026-03-02T10:10:20.000Z</time></trkpt>
<trkpt lat="42.173803" lon="23.363007"><ele>2739.3</ele><time>2026-03-02T10:10:21.000Z</time></trkpt>
<trkpt lat="42.173803" lon="23.363009"><ele>2739.3</ele><time>2026-03-02T10:10:22.000Z</time></trkpt>
<trkpt lat="42.173804" lon="23.36301"><ele>2739.3</ele><time>2026-03-02T10:10:23.000Z</time></trkpt>
<trkpt lat="42.173803" lon="23.363013"><ele>2739.3</ele><time>2026-03-02T10:10:24.000Z</time></trkpt>
<trkpt lat="42.173801" lon="23.363017"><ele>2739.4</ele><time>2026-03-02T10:10:25.000Z</time></trkpt>
<trkpt lat="42.1738" lon="23.363022"><ele>2739.4</ele><time>2026-03-02T10:10:26.000Z</time></trkpt>
<trkpt lat="42.173798" lon="23.363028"><ele>2739.4</ele><time>2026-03-02T10:10:27.000Z</time></trkpt>
<trkpt lat="42.173795" lon="23.363034"><ele>2739.4</ele><time>2026-03-02T10:10:28.000Z</time></trkpt>
<trkpt lat="42.17379" lon="23.363039"><ele>2739.4</ele><time>2026-03-02T10:10:29.000Z</time></trkpt>
<trkpt lat="42.173788" lon="23.363041"><ele>2739.4</ele><time>2026-03-02T10:10:30.000Z</time></trkpt>
<trkpt lat="42.173785" lon="23.363043"><ele>2739.4</ele><time>2026-03-02T10:10:31.000Z</time></trkpt>
<trkpt lat="42.173782" lon="23.363045"><ele>2739.4</ele><time>2026-03-02T10:10:32.000Z</time></trkpt>
<trkpt lat="42.173782" lon="23.363045"><ele>2739.4</ele><time>2026-03-02T10:10:33.000Z</time></trkpt>
<trkpt lat="42.173783" lon="23.363045"><ele>2739.4</ele><time>2026-03-02T10:10:34.000Z</time></trkpt>
<trkpt lat="42.173782" lon="23.363045"><ele>2739.5</ele><time>2026-03-02T10:10:35.000Z</time></trkpt>
<trkpt lat="42.173781" lon="23.363045"><ele>2739.5</ele><time>2026-03-02T10:10:36.000Z</time></trkpt>
<trkpt lat="42.17378" lon="23.363045"><ele>2739.5</ele><time>2026-03-02T10:10:37.000Z</time></trkpt>
<trkpt lat="42.173779" lon="23.363045"><ele>2739.5</ele><time>2026-03-02T10:10:38.000Z</time></trkpt>
<trkpt lat="42.173779" lon="23.363045"><ele>2739.5</ele><time>2026-03-02T10:10:39.000Z</time></trkpt>
<trkpt lat="42.173779" lon="23.363045"><ele>2739.6</ele><time>2026-03-02T10:10:40.000Z</time></trkpt>
<trkpt lat="42.173779" lon="23.363045"><ele>2739.6</ele><time>2026-03-02T10:10:41.000Z</time></trkpt>
<trkpt lat="42.173778" lon="23.363045"><ele>2739.6</ele><time>2026-03-02T10:10:42.000Z</time></trkpt>
<trkpt lat="42.173777" lon="23.363044"><ele>2739.6</ele><time>2026-03-02T10:10:43.000Z</time></trkpt>
<trkpt lat="42.173777" lon="23.363044"><ele>2739.6</ele><time>2026-03-02T10:10:44.000Z</time></trkpt>
<trkpt lat="42.173776" lon="23.363044"><ele>2739.9</ele><time>2026-03-02T10:10:45.000Z</time></trkpt>
<trkpt lat="42.173776" lon="23.363043"><ele>2739.9</ele><time>2026-03-02T10:10:46.000Z</time></trkpt>
<trkpt lat="42.173776" lon="23.363043"><ele>2739.9</ele><time>2026-03-02T10:10:47.000Z</time></trkpt>
<trkpt lat="42.173776" lon="23.363043"><ele>2739.9</ele><time>2026-03-02T10:10:48.000Z</time></trkpt>
<trkpt lat="42.173775" lon="23.363043"><ele>2739.9</ele><time>2026-03-02T10:10:49.000Z</time></trkpt>
<trkpt lat="42.173775" lon="23.363042"><ele>2740.1</ele><time>2026-03-02T10:10:50.000Z</time></trkpt>
<trkpt lat="42.173775" lon="23.363042"><ele>2740.1</ele><time>2026-03-02T10:10:51.000Z</time></trkpt>
<trkpt lat="42.173775" lon="23.363041"><ele>2740.1</ele><time>2026-03-02T10:10:52.000Z</time></trkpt>
<trkpt lat="42.173775" lon="23.363041"><ele>2740.1</ele><time>2026-03-02T10:10:53.000Z</time></trkpt>
<trkpt lat="42.173775" lon="23.36304"><ele>2740.1</ele><time>2026-03-02T10:10:54.000Z</time></trkpt>
<trkpt lat="42.173775" lon="23.36304"><ele>2740.1</ele><time>2026-03-02T10:10:55.000Z</time></trkpt>
<trkpt lat="42.173775" lon="23.36304"><ele>2740.1</ele><time>2026-03-02T10:10:56.000Z</time></trkpt>
<trkpt lat="42.173775" lon="23.36304"><ele>2740.1</ele><time>2026-03-02T10:10:57.000Z</time></trkpt>
<trkpt lat="42.173775" lon="23.36304"><ele>2740.1</ele><time>2026-03-02T10:10:58.000Z</time></trkpt>
<trkpt lat="42.173775" lon="23.36304"><ele>2740.1</ele><time>2026-03-02T10:10:59.000Z</time></trkpt>
<trkpt lat="42.173775" lon="23.36304"><ele>2740.2</ele><time>2026-03-02T10:11:00.000Z</time></trkpt>
<trkpt lat="42.173775" lon="23.36304"><ele>2740.2</ele><time>2026-03-02T10:11:01.000Z</time></trkpt>
<trkpt lat="42.173775" lon="23.36304"><ele>2740.2</ele><time>2026-03-02T10:11:02.000Z</time></trkpt>
<trkpt lat="42.173775" lon="23.36304"><ele>2740.2</ele><time>2026-03-02T10:11:03.000Z</time></trkpt>
<trkpt lat="42.173775" lon="23.36304"><ele>2740.2</ele><time>2026-03-02T10:11:04.000Z</time></trkpt>
<trkpt lat="42.173774" lon="23.363039"><ele>2739.9</ele><time>2026-03-02T10:11:05.000Z</time></trkpt>
<trkpt lat="42.173775" lon="23.363037"><ele>2739.9</ele><time>2026-03-02T10:11:06.000Z</time></trkpt>
<trkpt lat="42.173774" lon="23.363036"><ele>2739.9</ele><time>2026-03-02T10:11:07.000Z</time></trkpt>
<trkpt lat="42.173773" lon="23.363035"><ele>2739.9</ele><time>2026-03-02T10:11:08.000Z</time></trkpt>
<trkpt lat="42.173772" lon="23.363033"><ele>2739.9</ele><time>2026-03-02T10:11:09.000Z</time></trkpt>
<trkpt lat="42.173772" lon="23.363032"><ele>2739.8</ele><time>2026-03-02T10:11:10.000Z</time></trkpt>
<trkpt lat="42.17377" lon="23.363032"><ele>2739.8</ele><time>2026-03-02T10:11:11.000Z</time></trkpt>
<trkpt lat="42.17377" lon="23.363032"><ele>2739.8</ele><time>2026-03-02T10:11:12.000Z</time></trkpt>
<trkpt lat="42.17377" lon="23.363031"><ele>2739.8</ele><time>2026-03-02T10:11:13.000Z</time></trkpt>
<trkpt lat="42.173769" lon="23.363031"><ele>2739.8</ele><time>2026-03-02T10:11:14.000Z</time></trkpt>
<trkpt lat="42.173769" lon="23.363031"><ele>2739.7</ele><time>2026-03-02T10:11:15.000Z</time></trkpt>
<trkpt lat="42.173769" lon="23.363031"><ele>2739.7</ele><time>2026-03-02T10:11:16.000Z</time></trkpt>
<trkpt lat="42.173769" lon="23.363031"><ele>2739.7</ele><time>2026-03-02T10:11:17.000Z</time></trkpt>
<trkpt lat="42.173771" lon="23.363031"><ele>2739.7</ele><time>2026-03-02T10:11:18.000Z</time></trkpt>
<trkpt lat="42.173774" lon="23.36303"><ele>2739.7</ele><time>2026-03-02T10:11:19.000Z</time></trkpt>
<trkpt lat="42.173777" lon="23.363029"><ele>2739.6</ele><time>2026-03-02T10:11:20.000Z</time></trkpt>
<trkpt lat="42.173781" lon="23.363027"><ele>2739.6</ele><time>2026-03-02T10:11:21.000Z</time></trkpt>
<trkpt lat="42.173785" lon="23.363025"><ele>2739.6</ele><time>2026-03-02T10:11:22.000Z</time></trkpt>
<trkpt lat="42.173788" lon="23.363025"><ele>2739.6</ele><time>2026-03-02T10:11:23.000Z</time></trkpt>
<trkpt lat="42.173789" lon="23.363025"><ele>2739.6</ele><time>2026-03-02T10:11:24.000Z</time></trkpt>
<trkpt lat="42.17379" lon="23.363024"><ele>2739.6</ele><time>2026-03-02T10:11:25.000Z</time></trkpt>
<trkpt lat="42.173791" lon="23.363025"><ele>2739.6</ele><time>2026-03-02T10:11:26.000Z</time></trkpt>
<trkpt lat="42.173792" lon="23.363025"><ele>2739.6</ele><time>2026-03-02T10:11:27.000Z</time></trkpt>
<trkpt lat="42.173793" lon="23.363024"><ele>2739.6</ele><time>2026-03-02T10:11:28.000Z</time></trkpt>
<trkpt lat="42.173793" lon="23.363023"><ele>2739.6</ele><time>2026-03-02T10:11:29.000Z</time></trkpt>
<trkpt lat="42.173793" lon="23.363023"><ele>2739.6</ele><time>2026-03-02T10:11:30.000Z</time></trkpt>
<trkpt lat="42.173793" lon="23.363024"><ele>2739.6</ele><time>2026-03-02T10:11:31.000Z</time></trkpt>
<trkpt lat="42.173792" lon="23.363026"><ele>2739.6</ele><time>2026-03-02T10:11:32.000Z</time></trkpt>
<trkpt lat="42.173791" lon="23.363027"><ele>2739.6</ele><time>2026-03-02T10:11:33.000Z</time></trkpt>
<trkpt lat="42.173791" lon="23.363029"><ele>2739.6</ele><time>2026-03-02T10:11:34.000Z</time></trkpt>
<trkpt lat="42.173792" lon="23.36303"><ele>2739.8</ele><time>2026-03-02T10:11:35.000Z</time></trkpt>
<trkpt lat="42.173794" lon="23.363029"><ele>2739.8</ele><time>2026-03-02T10:11:36.000Z</time></trkpt>
<trkpt lat="42.173795" lon="23.363029"><ele>2739.8</ele><time>2026-03-02T10:11:37.000Z</time></trkpt>
<trkpt lat="42.173797" lon="23.363028"><ele>2739.8</ele><time>2026-03-02T10:11:38.000Z</time></trkpt>
<trkpt lat="42.173798" lon="23.363027"><ele>2739.8</ele><time>2026-03-02T10:11:39.000Z</time></trkpt>
<trkpt lat="42.173798" lon="23.363025"><ele>2739.9</ele><time>2026-03-02T10:11:40.000Z</time></trkpt>
<trkpt lat="42.173798" lon="23.363024"><ele>2739.9</ele><time>2026-03-02T10:11:41.000Z</time></trkpt>
<trkpt lat="42.173798" lon="23.363024"><ele>2739.9</ele><time>2026-03-02T10:11:42.000Z</time></trkpt>
<trkpt lat="42.173798" lon="23.363024"><ele>2739.9</ele><time>2026-03-02T10:11:43.000Z</time></trkpt>
<trkpt lat="42.173798" lon="23.363024"><ele>2739.9</ele><time>2026-03-02T10:11:44.000Z</time></trkpt>
<trkpt lat="42.173796" lon="23.363023"><ele>2740.3</ele><time>2026-03-02T10:11:45.000Z</time></trkpt>
<trkpt lat="42.173795" lon="23.363019"><ele>2740.3</ele><time>2026-03-02T10:11:46.000Z</time></trkpt>
<trkpt lat="42.173793" lon="23.363014"><ele>2740.3</ele><time>2026-03-02T10:11:47.000Z</time></trkpt>
<trkpt lat="42.17379" lon="23.363008"><ele>2740.3</ele><time>2026-03-02T10:11:48.000Z</time></trkpt>
<trkpt lat="42.173789" lon="23.363002"><ele>2740.3</ele><time>2026-03-02T10:11:49.000Z</time></trkpt>
<trkpt lat="42.173788" lon="23.362998"><ele>2740.6</ele><time>2026-03-02T10:11:50.000Z</time></trkpt>
<trkpt lat="42.173788" lon="23.362997"><ele>2740.6</ele><time>2026-03-02T10:11:51.000Z</time></trkpt>
<trkpt lat="42.173786" lon="23.362998"><ele>2740.6</ele><time>2026-03-02T10:11:52.000Z</time></trkpt>
<trkpt lat="42.173783" lon="23.362997"><ele>2740.6</ele><time>2026-03-02T10:11:53.000Z</time></trkpt>
<trkpt lat="42.17378" lon="23.362997"><ele>2740.6</ele><time>2026-03-02T10:11:54.000Z</time></trkpt>
<trkpt lat="42.173777" lon="23.362997"><ele>2740.7</ele><time>2026-03-02T10:11:55.000Z</time></trkpt>
<trkpt lat="42.173776" lon="23.362995"><ele>2740.7</ele><time>2026-03-02T10:11:56.000Z</time></trkpt>
<trkpt lat="42.173775" lon="23.362995"><ele>2740.7</ele><time>2026-03-02T10:11:57.000Z</time></trkpt>
<trkpt lat="42.173776" lon="23.362995"><ele>2740.7</ele><time>2026-03-02T10:11:58.000Z</time></trkpt>
<trkpt lat="42.173777" lon="23.362996"><ele>2740.7</ele><time>2026-03-02T10:11:59.000Z</time></trkpt>
<trkpt lat="42.173778" lon="23.362997"><ele>2740.5</ele><time>2026-03-02T10:12:00.000Z</time></trkpt>
<trkpt lat="42.173778" lon="23.362998"><ele>2740.5</ele><time>2026-03-02T10:12:01.000Z</time></trkpt>
<trkpt lat="42.173778" lon="23.362998"><ele>2740.5</ele><time>2026-03-02T10:12:02.000Z</time></trkpt>
<trkpt lat="42.173778" lon="23.362998"><ele>2740.5</ele><time>2026-03-02T10:12:03.000Z</time></trkpt>
<trkpt lat="42.173778" lon="23.362998"><ele>2740.5</ele><time>2026-03-02T10:12:04.000Z</time></trkpt>
<trkpt lat="42.173778" lon="23.362998"><ele>2740.2</ele><time>2026-03-02T10:12:05.000Z</time></trkpt>
<trkpt lat="42.173778" lon="23.362998"><ele>2740.2</ele><time>2026-03-02T10:12:06.000Z</time></trkpt>
<trkpt lat="42.173778" lon="23.362998"><ele>2740.2</ele><time>2026-03-02T10:12:07.000Z</time></trkpt>
<trkpt lat="42.173778" lon="23.362998"><ele>2740.2</ele><time>2026-03-02T10:12:08.000Z</time></trkpt>
<trkpt lat="42.173778" lon="23.362998"><ele>2740.2</ele><time>2026-03-02T10:12:09.000Z</time></trkpt>
<trkpt lat="42.173778" lon="23.362998"><ele>2740.2</ele><time>2026-03-02T10:12:10.000Z</time></trkpt>
<trkpt lat="42.173778" lon="23.362998"><ele>2740.2</ele><time>2026-03-02T10:12:11.000Z</time></trkpt>
<trkpt lat="42.173778" lon="23.362998"><ele>2740.2</ele><time>2026-03-02T10:12:12.000Z</time></trkpt>
<trkpt lat="42.173778" lon="23.362998"><ele>2740.2</ele><time>2026-03-02T10:12:13.000Z</time></trkpt>
<trkpt lat="42.173778" lon="23.362998"><ele>2740.2</ele><time>2026-03-02T10:12:14.000Z</time></trkpt>
<trkpt lat="42.173778" lon="23.362998"><ele>2740.2</ele><time>2026-03-02T10:12:15.000Z</time></trkpt>
<trkpt lat="42.173778" lon="23.362999"><ele>2740.2</ele><time>2026-03-02T10:12:16.000Z</time></trkpt>
<trkpt lat="42.173777" lon="23.363001"><ele>2740.2</ele><time>2026-03-02T10:12:17.000Z</time></trkpt>
<trkpt lat="42.173777" lon="23.363003"><ele>2740.2</ele><time>2026-03-02T10:12:18.000Z</time></trkpt>
<trkpt lat="42.173776" lon="23.363005"><ele>2740.2</ele><time>2026-03-02T10:12:19.000Z</time></trkpt>
<trkpt lat="42.173775" lon="23.363007"><ele>2740.3</ele><time>2026-03-02T10:12:20.000Z</time></trkpt>
<trkpt lat="42.173775" lon="23.363007"><ele>2740.3</ele><time>2026-03-02T10:12:21.000Z</time></trkpt>
<trkpt lat="42.173775" lon="23.363007"><ele>2740.3</ele><time>2026-03-02T10:12:22.000Z</time></trkpt>
<trkpt lat="42.173775" lon="23.363006"><ele>2740.3</ele><time>2026-03-02T10:12:23.000Z</time></trkpt>
<trkpt lat="42.173775" lon="23.363007"><ele>2740.3</ele><time>2026-03-02T10:12:24.000Z</time></trkpt>
<trkpt lat="42.173775" lon="23.363009"><ele>2740.3</ele><time>2026-03-02T10:12:25.000Z</time></trkpt>
<trkpt lat="42.173775" lon="23.36301"><ele>2740.3</ele><time>2026-03-02T10:12:26.000Z</time></trkpt>
<trkpt lat="42.173776" lon="23.363012"><ele>2740.3</ele><time>2026-03-02T10:12:27.000Z</time></trkpt>
<trkpt lat="42.173775" lon="23.363015"><ele>2740.3</ele><time>2026-03-02T10:12:28.000Z</time></trkpt>
<trkpt lat="42.173775" lon="23.363017"><ele>2740.3</ele><time>2026-03-02T10:12:29.000Z</time></trkpt>
<trkpt lat="42.173773" lon="23.363018"><ele>2740.3</ele><time>2026-03-02T10:12:30.000Z</time></trkpt>
<trkpt lat="42.173773" lon="23.36302"><ele>2740.3</ele><time>2026-03-02T10:12:31.000Z</time></trkpt>
<trkpt lat="42.173772" lon="23.363021"><ele>2740.3</ele><time>2026-03-02T10:12:32.000Z</time></trkpt>
<trkpt lat="42.173772" lon="23.363023"><ele>2740.3</ele><time>2026-03-02T10:12:33.000Z</time></trkpt>
<trkpt lat="42.173774" lon="23.363023"><ele>2740.3</ele><time>2026-03-02T10:12:34.000Z</time></trkpt>
<trkpt lat="42.173775" lon="23.363024"><ele>2740.3</ele><time>2026-03-02T10:12:35.000Z</time></trkpt>
<trkpt lat="42.173775" lon="23.363025"><ele>2740.3</ele><time>2026-03-02T10:12:36.000Z</time></trkpt>
<trkpt lat="42.173776" lon="23.363025"><ele>2740.3</ele><time>2026-03-02T10:12:37.000Z</time></trkpt>
<trkpt lat="42.173777" lon="23.363024"><ele>2740.3</ele><time>2026-03-02T10:12:38.000Z</time></trkpt>
<trkpt lat="42.173779" lon="23.363023"><ele>2740.3</ele><time>2026-03-02T10:12:39.000Z</time></trkpt>
<trkpt lat="42.173781" lon="23.363022"><ele>2740.3</ele><time>2026-03-02T10:12:40.000Z</time></trkpt>
<trkpt lat="42.173783" lon="23.363022"><ele>2740.3</ele><time>2026-03-02T10:12:41.000Z</time></trkpt>
<trkpt lat="42.173785" lon="23.363021"><ele>2740.3</ele><time>2026-03-02T10:12:42.000Z</time></trkpt>
<trkpt lat="42.173787" lon="23.363021"><ele>2740.3</ele><time>2026-03-02T10:12:43.000Z</time></trkpt>
<trkpt lat="42.173787" lon="23.363021"><ele>2740.3</ele><time>2026-03-02T10:12:44.000Z</time></trkpt>
<trkpt lat="42.173787" lon="23.363021"><ele>2740.4</ele><time>2026-03-02T10:12:45.000Z</time></trkpt>
<trkpt lat="42.173787" lon="23.36302"><ele>2740.4</ele><time>2026-03-02T10:12:46.000Z</time></trkpt>
<trkpt lat="42.173787" lon="23.36302"><ele>2740.4</ele><time>2026-03-02T10:12:47.000Z</time></trkpt>
<trkpt lat="42.173787" lon="23.36302"><ele>2740.4</ele><time>2026-03-02T10:12:48.000Z</time></trkpt>
<trkpt lat="42.173788" lon="23.36302"><ele>2740.4</ele><time>2026-03-02T10:12:49.000Z</time></trkpt>
<trkpt lat="42.173788" lon="23.36302"><ele>2740.3</ele><time>2026-03-02T10:12:50.000Z</time></trkpt>
<trkpt lat="42.173788" lon="23.363019"><ele>2740.3</ele><time>2026-03-02T10:12:51.000Z</time></trkpt>
<trkpt lat="42.173789" lon="23.363018"><ele>2740.3</ele><time>2026-03-02T10:12:52.000Z</time></trkpt>
<trkpt lat="42.17379" lon="23.363018"><ele>2740.3</ele><time>2026-03-02T10:12:53.000Z</time></trkpt>
<trkpt lat="42.17379" lon="23.363017"><ele>2740.3</ele><time>2026-03-02T10:12:54.000Z</time></trkpt>
<trkpt lat="42.173791" lon="23.363017"><ele>2740.3</ele><time>2026-03-02T10:12:55.000Z</time></trkpt>
<trkpt lat="42.173791" lon="23.363017"><ele>2740.3</ele><time>2026-03-02T10:12:56.000Z</time></trkpt>
<trkpt lat="42.173791" lon="23.363017"><ele>2740.3</ele><time>2026-03-02T10:12:57.000Z</time></trkpt>
<trkpt lat="42.173791" lon="23.363017"><ele>2740.3</ele><time>2026-03-02T10:12:58.000Z</time></trkpt>
<trkpt lat="42.173791" lon="23.363017"><ele>2740.3</ele><time>2026-03-02T10:12:59.000Z</time></trkpt>
<trkpt lat="42.173791" lon="23.363017"><ele>2740.3</ele><time>2026-03-02T10:13:00.000Z</time></trkpt>
<trkpt lat="42.173791" lon="23.363017"><ele>2740.3</ele><time>2026-03-02T10:13:01.000Z</time></trkpt>
<trkpt lat="42.173791" lon="23.363017"><ele>2740.3</ele><time>2026-03-02T10:13:02.000Z</time></trkpt>
<trkpt lat="42.17379" lon="23.363016"><ele>2740.3</ele><time>2026-03-02T10:13:03.000Z</time></trkpt>
<trkpt lat="42.173789" lon="23.363015"><ele>2740.3</ele><time>2026-03-02T10:13:04.000Z</time></trkpt>
<trkpt lat="42.173786" lon="23.363013"><ele>2740.4</ele><time>2026-03-02T10:13:05.000Z</time></trkpt>
<trkpt lat="42.173783" lon="23.363012"><ele>2740.4</ele><time>2026-03-02T10:13:06.000Z</time></trkpt>
<trkpt lat="42.173778" lon="23.36301"><ele>2740.4</ele><time>2026-03-02T10:13:07.000Z</time></trkpt>
<trkpt lat="42.173772" lon="23.36301"><ele>2740.4</ele><time>2026-03-02T10:13:08.000Z</time></trkpt>
<trkpt lat="42.173768" lon="23.36301"><ele>2740.4</ele><time>2026-03-02T10:13:09.000Z</time></trkpt>
<trkpt lat="42.173765" lon="23.363011"><ele>2740.5</ele><time>2026-03-02T10:13:10.000Z</time></trkpt>
<trkpt lat="42.173763" lon="23.363013"><ele>2740.5</ele><time>2026-03-02T10:13:11.000Z</time></trkpt>
<trkpt lat="42.173762" lon="23.363015"><ele>2740.5</ele><time>2026-03-02T10:13:12.000Z</time></trkpt>
<trkpt lat="42.173763" lon="23.363015"><ele>2740.5</ele><time>2026-03-02T10:13:13.000Z</time></trkpt>
<trkpt lat="42.173763" lon="23.363017"><ele>2740.5</ele><time>2026-03-02T10:13:14.000Z</time></trkpt>
<trkpt lat="42.173763" lon="23.363018"><ele>2740.6</ele><time>2026-03-02T10:13:15.000Z</time></trkpt>
<trkpt lat="42.173763" lon="23.363019"><ele>2740.6</ele><time>2026-03-02T10:13:16.000Z</time></trkpt>
<trkpt lat="42.173763" lon="23.36302"><ele>2740.6</ele><time>2026-03-02T10:13:17.000Z</time></trkpt>
<trkpt lat="42.173763" lon="23.363021"><ele>2740.6</ele><time>2026-03-02T10:13:18.000Z</time></trkpt>
<trkpt lat="42.173764" lon="23.363019"><ele>2740.6</ele><time>2026-03-02T10:13:19.000Z</time></trkpt>
<trkpt lat="42.173767" lon="23.363015"><ele>2740.7</ele><time>2026-03-02T10:13:20.000Z</time></trkpt>
<trkpt lat="42.173771" lon="23.363011"><ele>2740.7</ele><time>2026-03-02T10:13:21.000Z</time></trkpt>
<trkpt lat="42.173778" lon="23.363007"><ele>2740.7</ele><time>2026-03-02T10:13:22.000Z</time></trkpt>
<trkpt lat="42.173785" lon="23.363002"><ele>2740.7</ele><time>2026-03-02T10:13:23.000Z</time></trkpt>
<trkpt lat="42.17379" lon="23.362999"><ele>2740.7</ele><time>2026-03-02T10:13:24.000Z</time></trkpt>
<trkpt lat="42.173795" lon="23.362997"><ele>2740.7</ele><time>2026-03-02T10:13:25.000Z</time></trkpt>
<trkpt lat="42.173797" lon="23.362994"><ele>2740.7</ele><time>2026-03-02T10:13:26.000Z</time></trkpt>
<trkpt lat="42.173797" lon="23.362993"><ele>2740.7</ele><time>2026-03-02T10:13:27.000Z</time></trkpt>
<trkpt lat="42.173796" lon="23.36299"><ele>2740.7</ele><time>2026-03-02T10:13:28.000Z</time></trkpt>
<trkpt lat="42.173796" lon="23.362989"><ele>2740.7</ele><time>2026-03-02T10:13:29.000Z</time></trkpt>
<trkpt lat="42.173796" lon="23.362988"><ele>2740.4</ele><time>2026-03-02T10:13:30.000Z</time></trkpt>
<trkpt lat="42.173796" lon="23.362988"><ele>2740.4</ele><time>2026-03-02T10:13:31.000Z</time></trkpt>
<trkpt lat="42.173796" lon="23.362988"><ele>2740.4</ele><time>2026-03-02T10:13:32.000Z</time></trkpt>
<trkpt lat="42.173795" lon="23.362989"><ele>2740.4</ele><time>2026-03-02T10:13:33.000Z</time></trkpt>
<trkpt lat="42.173795" lon="23.36299"><ele>2740.4</ele><time>2026-03-02T10:13:34.000Z</time></trkpt>
<trkpt lat="42.173794" lon="23.362992"><ele>2739.9</ele><time>2026-03-02T10:13:35.000Z</time></trkpt>
<trkpt lat="42.173793" lon="23.362996"><ele>2739.9</ele><time>2026-03-02T10:13:36.000Z</time></trkpt>
<trkpt lat="42.173791" lon="23.362998"><ele>2739.9</ele><time>2026-03-02T10:13:37.000Z</time></trkpt>
<trkpt lat="42.17379" lon="23.363"><ele>2739.9</ele><time>2026-03-02T10:13:38.000Z</time></trkpt>
<trkpt lat="42.173789" lon="23.362999"><ele>2739.9</ele><time>2026-03-02T10:13:39.000Z</time></trkpt>
<trkpt lat="42.173788" lon="23.362995"><ele>2739.7</ele><time>2026-03-02T10:13:40.000Z</time></trkpt>
<trkpt lat="42.173788" lon="23.362989"><ele>2739.7</ele><time>2026-03-02T10:13:41.000Z</time></trkpt>
<trkpt lat="42.173788" lon="23.362984"><ele>2739.7</ele><time>2026-03-02T10:13:42.000Z</time></trkpt>
<trkpt lat="42.173788" lon="23.36298"><ele>2739.7</ele><time>2026-03-02T10:13:43.000Z</time></trkpt>
<trkpt lat="42.173787" lon="23.362978"><ele>2739.7</ele><time>2026-03-02T10:13:44.000Z</time></trkpt>
<trkpt lat="42.173787" lon="23.362977"><ele>2739.5</ele><time>2026-03-02T10:13:45.000Z</time></trkpt>
<trkpt lat="42.173787" lon="23.362977"><ele>2739.5</ele><time>2026-03-02T10:13:46.000Z</time></trkpt>
<trkpt lat="42.173787" lon="23.362977"><ele>2739.5</ele><time>2026-03-02T10:13:47.000Z</time></trkpt>
<trkpt lat="42.173787" lon="23.362978"><ele>2739.5</ele><time>2026-03-02T10:13:48.000Z</time></trkpt>
<trkpt lat="42.173788" lon="23.362977"><ele>2739.5</ele><time>2026-03-02T10:13:49.000Z</time></trkpt>
<trkpt lat="42.173788" lon="23.362977"><ele>2739.5</ele><time>2026-03-02T10:13:50.000Z</time></trkpt>
<trkpt lat="42.173788" lon="23.362977"><ele>2739.5</ele><time>2026-03-02T10:13:51.000Z</time></trkpt>
<trkpt lat="42.173788" lon="23.362977"><ele>2739.5</ele><time>2026-03-02T10:13:52.000Z</time></trkpt>
<trkpt lat="42.173788" lon="23.362977"><ele>2739.5</ele><time>2026-03-02T10:13:53.000Z</time></trkpt>
<trkpt lat="42.173788" lon="23.362977"><ele>2739.5</ele><time>2026-03-02T10:13:54.000Z</time></trkpt>
<trkpt lat="42.173787" lon="23.362977"><ele>2739.6</ele><time>2026-03-02T10:13:55.000Z</time></trkpt>
<trkpt lat="42.173787" lon="23.362977"><ele>2739.6</ele><time>2026-03-02T10:13:56.000Z</time></trkpt>
<trkpt lat="42.173787" lon="23.362977"><ele>2739.6</ele><time>2026-03-02T10:13:57.000Z</time></trkpt>
<trkpt lat="42.173787" lon="23.362977"><ele>2739.6</ele><time>2026-03-02T10:13:58.000Z</time></trkpt>
<trkpt lat="42.173787" lon="23.362976"><ele>2739.6</ele><time>2026-03-02T10:13:59.000Z</time></trkpt>
<trkpt lat="42.173787" lon="23.362976"><ele>2739.7</ele><time>2026-03-02T10:14:00.000Z</time></trkpt>
<trkpt lat="42.173787" lon="23.362976"><ele>2739.7</ele><time>2026-03-02T10:14:01.000Z</time></trkpt>
<trkpt lat="42.173787" lon="23.362976"><ele>2739.7</ele><time>2026-03-02T10:14:02.000Z</time></trkpt>
<trkpt lat="42.173787" lon="23.362977"><ele>2739.7</ele><time>2026-03-02T10:14:03.000Z</time></trkpt>
<trkpt lat="42.173787" lon="23.362978"><ele>2739.7</ele><time>2026-03-02T10:14:04.000Z</time></trkpt>
<trkpt lat="42.173787" lon="23.36298"><ele>2739.8</ele><time>2026-03-02T10:14:05.000Z</time></trkpt>
<trkpt lat="42.173786" lon="23.362981"><ele>2739.8</ele><time>2026-03-02T10:14:06.000Z</time></trkpt>
<trkpt lat="42.173786" lon="23.362983"><ele>2739.8</ele><time>2026-03-02T10:14:07.000Z</time></trkpt>
<trkpt lat="42.173786" lon="23.362985"><ele>2739.8</ele><time>2026-03-02T10:14:08.000Z</time></trkpt>
<trkpt lat="42.173786" lon="23.362986"><ele>2739.8</ele><time>2026-03-02T10:14:09.000Z</time></trkpt>
<trkpt lat="42.173786" lon="23.362987"><ele>2739.8</ele><time>2026-03-02T10:14:10.000Z</time></trkpt>
<trkpt lat="42.173786" lon="23.362987"><ele>2739.8</ele><time>2026-03-02T10:14:11.000Z</time></trkpt>
<trkpt lat="42.173786" lon="23.362987"><ele>2739.8</ele><time>2026-03-02T10:14:12.000Z</time></trkpt>
<trkpt lat="42.173786" lon="23.362987"><ele>2739.8</ele><time>2026-03-02T10:14:13.000Z</time></trkpt>
<trkpt lat="42.173786" lon="23.362987"><ele>2739.8</ele><time>2026-03-02T10:14:14.000Z</time></trkpt>
<trkpt lat="42.173786" lon="23.362987"><ele>2739.7</ele><time>2026-03-02T10:14:15.000Z</time></trkpt>
<trkpt lat="42.173786" lon="23.362987"><ele>2739.7</ele><time>2026-03-02T10:14:16.000Z</time></trkpt>
<trkpt lat="42.173786" lon="23.362987"><ele>2739.7</ele><time>2026-03-02T10:14:17.000Z</time></trkpt>
<trkpt lat="42.173786" lon="23.362988"><ele>2739.7</ele><time>2026-03-02T10:14:18.000Z</time></trkpt>
<trkpt lat="42.173786" lon="23.362988"><ele>2739.7</ele><time>2026-03-02T10:14:19.000Z</time></trkpt>
<trkpt lat="42.173786" lon="23.362989"><ele>2739.4</ele><time>2026-03-02T10:14:20.000Z</time></trkpt>
<trkpt lat="42.173786" lon="23.36299"><ele>2739.4</ele><time>2026-03-02T10:14:21.000Z</time></trkpt>
<trkpt lat="42.173787" lon="23.36299"><ele>2739.4</ele><time>2026-03-02T10:14:22.000Z</time></trkpt>
<trkpt lat="42.173787" lon="23.362991"><ele>2739.4</ele><time>2026-03-02T10:14:23.000Z</time></trkpt>
<trkpt lat="42.173787" lon="23.362991"><ele>2739.4</ele><time>2026-03-02T10:14:24.000Z</time></trkpt>
<trkpt lat="42.173787" lon="23.362991"><ele>2739.3</ele><time>2026-03-02T10:14:25.000Z</time></trkpt>
<trkpt lat="42.173787" lon="23.362991"><ele>2739.3</ele><time>2026-03-02T10:14:26.000Z</time></trkpt>
<trkpt lat="42.173787" lon="23.362991"><ele>2739.3</ele><time>2026-03-02T10:14:27.000Z</time></trkpt>
<trkpt lat="42.173787" lon="23.362991"><ele>2739.3</ele><time>2026-03-02T10:14:28.000Z</time></trkpt>
<trkpt lat="42.173787" lon="23.362992"><ele>2739.3</ele><time>2026-03-02T10:14:29.000Z</time></trkpt>
<trkpt lat="42.173787" lon="23.362993"><ele>2739.3</ele><time>2026-03-02T10:14:30.000Z</time></trkpt>
<trkpt lat="42.173787" lon="23.362994"><ele>2739.3</ele><time>2026-03-02T10:14:31.000Z</time></trkpt>
<trkpt lat="42.173787" lon="23.362995"><ele>2739.3</ele><time>2026-03-02T10:14:32.000Z</time></trkpt>
<trkpt lat="42.173787" lon="23.362997"><ele>2739.3</ele><time>2026-03-02T10:14:33.000Z</time></trkpt>
<trkpt lat="42.173787" lon="23.362998"><ele>2739.3</ele><time>2026-03-02T10:14:34.000Z</time></trkpt>
<trkpt lat="42.173787" lon="23.362999"><ele>2739.2</ele><time>2026-03-02T10:14:35.000Z</time></trkpt>
<trkpt lat="42.173788" lon="23.362999"><ele>2739.2</ele><time>2026-03-02T10:14:36.000Z</time></trkpt>
<trkpt lat="42.173789" lon="23.363"><ele>2739.2</ele><time>2026-03-02T10:14:37.000Z</time></trkpt>
<trkpt lat="42.173789" lon="23.363001"><ele>2739.2</ele><time>2026-03-02T10:14:38.000Z</time></trkpt>
<trkpt lat="42.173789" lon="23.363001"><ele>2739.2</ele><time>2026-03-02T10:14:39.000Z</time></trkpt>
<trkpt lat="42.173789" lon="23.363001"><ele>2739.2</ele><time>2026-03-02T10:14:40.000Z</time></trkpt>
<trkpt lat="42.173789" lon="23.363001"><ele>2739.2</ele><time>2026-03-02T10:14:41.000Z</time></trkpt>
<trkpt lat="42.173789" lon="23.363001"><ele>2739.2</ele><time>2026-03-02T10:14:42.000Z</time></trkpt>
<trkpt lat="42.17379" lon="23.363001"><ele>2739.2</ele><time>2026-03-02T10:14:43.000Z</time></trkpt>
<trkpt lat="42.17379" lon="23.363001"><ele>2739.2</ele><time>2026-03-02T10:14:44.000Z</time></trkpt>
<trkpt lat="42.17379" lon="23.363"><ele>2739.1</ele><time>2026-03-02T10:14:45.000Z</time></trkpt>
<trkpt lat="42.17379" lon="23.363"><ele>2739.1</ele><time>2026-03-02T10:14:46.000Z</time></trkpt>
<trkpt lat="42.17379" lon="23.363"><ele>2739.1</ele><time>2026-03-02T10:14:47.000Z</time></trkpt>
<trkpt lat="42.173791" lon="23.363"><ele>2739.1</ele><time>2026-03-02T10:14:48.000Z</time></trkpt>
<trkpt lat="42.173791" lon="23.362999"><ele>2739.1</ele><time>2026-03-02T10:14:49.000Z</time></trkpt>
<trkpt lat="42.173791" lon="23.362999"><ele>2739</ele><time>2026-03-02T10:14:50.000Z</time></trkpt>
<trkpt lat="42.173791" lon="23.362998"><ele>2739</ele><time>2026-03-02T10:14:51.000Z</time></trkpt>
<trkpt lat="42.173791" lon="23.362998"><ele>2739</ele><time>2026-03-02T10:14:52.000Z</time></trkpt>
<trkpt lat="42.173791" lon="23.362997"><ele>2739</ele><time>2026-03-02T10:14:53.000Z</time></trkpt>
<trkpt lat="42.17379" lon="23.362997"><ele>2739</ele><time>2026-03-02T10:14:54.000Z</time></trkpt>
<trkpt lat="42.17379" lon="23.362996"><ele>2739</ele><time>2026-03-02T10:14:55.000Z</time></trkpt>
<trkpt lat="42.173791" lon="23.362996"><ele>2739</ele><time>2026-03-02T10:14:56.000Z</time></trkpt>
<trkpt lat="42.173791" lon="23.362996"><ele>2739</ele><time>2026-03-02T10:14:57.000Z</time></trkpt>
<trkpt lat="42.173791" lon="23.362996"><ele>2739</ele><time>2026-03-02T10:14:58.000Z</time></trkpt>
<trkpt lat="42.173792" lon="23.362996"><ele>2739</ele><time>2026-03-02T10:14:59.000Z</time></trkpt>
<trkpt lat="42.173792" lon="23.362996"><ele>2739</ele><time>2026-03-02T10:15:00.000Z</time></trkpt>
<trkpt lat="42.173792" lon="23.362996"><ele>2739</ele><time>2026-03-02T10:15:01.000Z</time></trkpt>
<trkpt lat="42.173793" lon="23.362996"><ele>2739</ele><time>2026-03-02T10:15:02.000Z</time></trkpt>
<trkpt lat="42.173793" lon="23.362995"><ele>2739</ele><time>2026-03-02T10:15:03.000Z</time></trkpt>
<trkpt lat="42.173793" lon="23.362995"><ele>2739</ele><time>2026-03-02T10:15:04.000Z</time></trkpt>
<trkpt lat="42.173792" lon="23.362995"><ele>2739</ele><time>2026-03-02T10:15:05.000Z</time></trkpt>
<trkpt lat="42.173792" lon="23.362995"><ele>2739</ele><time>2026-03-02T10:15:06.000Z</time></trkpt>
<trkpt lat="42.173792" lon="23.362995"><ele>2739</ele><time>2026-03-02T10:15:07.000Z</time></trkpt>
<trkpt lat="42.173792" lon="23.362995"><ele>2739</ele><time>2026-03-02T10:15:08.000Z</time></trkpt>
<trkpt lat="42.173792" lon="23.362995"><ele>2739</ele><time>2026-03-02T10:15:09.000Z</time></trkpt>
<trkpt lat="42.173792" lon="23.362995"><ele>2739.1</ele><time>2026-03-02T10:15:10.000Z</time></trkpt>
<trkpt lat="42.173792" lon="23.362995"><ele>2739.1</ele><time>2026-03-02T10:15:11.000Z</time></trkpt>
<trkpt lat="42.173792" lon="23.362995"><ele>2739.1</ele><time>2026-03-02T10:15:12.000Z</time></trkpt>
<trkpt lat="42.173792" lon="23.362995"><ele>2739.1</ele><time>2026-03-02T10:15:13.000Z</time></trkpt>
<trkpt lat="42.173792" lon="23.362995"><ele>2739.1</ele><time>2026-03-02T10:15:14.000Z</time></trkpt>
<trkpt lat="42.173792" lon="23.362995"><ele>2739.3</ele><time>2026-03-02T10:15:15.000Z</time></trkpt>
<trkpt lat="42.173792" lon="23.362995"><ele>2739.3</ele><time>2026-03-02T10:15:16.000Z</time></trkpt>
<trkpt lat="42.173792" lon="23.362995"><ele>2739.3</ele><time>2026-03-02T10:15:17.000Z</time></trkpt>
<trkpt lat="42.173792" lon="23.362995"><ele>2739.3</ele><time>2026-03-02T10:15:18.000Z</time></trkpt>
<trkpt lat="42.173792" lon="23.362995"><ele>2739.3</ele><time>2026-03-02T10:15:19.000Z</time></trkpt>
<trkpt lat="42.173791" lon="23.362994"><ele>2739.4</ele><time>2026-03-02T10:15:20.000Z</time></trkpt>
<trkpt lat="42.173791" lon="23.362994"><ele>2739.4</ele><time>2026-03-02T10:15:21.000Z</time></trkpt>
<trkpt lat="42.17379" lon="23.362992"><ele>2739.4</ele><time>2026-03-02T10:15:22.000Z</time></trkpt>
<trkpt lat="42.173788" lon="23.36299"><ele>2739.4</ele><time>2026-03-02T10:15:23.000Z</time></trkpt>
<trkpt lat="42.173787" lon="23.362989"><ele>2739.4</ele><time>2026-03-02T10:15:24.000Z</time></trkpt>
<trkpt lat="42.173786" lon="23.362988"><ele>2739.3</ele><time>2026-03-02T10:15:25.000Z</time></trkpt>
<trkpt lat="42.173785" lon="23.362987"><ele>2739.3</ele><time>2026-03-02T10:15:26.000Z</time></trkpt>
<trkpt lat="42.173784" lon="23.362989"><ele>2739.3</ele><time>2026-03-02T10:15:27.000Z</time></trkpt>
<trkpt lat="42.173784" lon="23.362994"><ele>2739.3</ele><time>2026-03-02T10:15:28.000Z</time></trkpt>
<trkpt lat="42.173783" lon="23.362999"><ele>2739.3</ele><time>2026-03-02T10:15:29.000Z</time></trkpt>
<trkpt lat="42.173781" lon="23.363005"><ele>2739.4</ele><time>2026-03-02T10:15:30.000Z</time></trkpt>
<trkpt lat="42.173781" lon="23.363009"><ele>2739.4</ele><time>2026-03-02T10:15:31.000Z</time></trkpt>
<trkpt lat="42.173781" lon="23.363012"><ele>2739.4</ele><time>2026-03-02T10:15:32.000Z</time></trkpt>
<trkpt lat="42.173782" lon="23.363013"><ele>2739.4</ele><time>2026-03-02T10:15:33.000Z</time></trkpt>
<trkpt lat="42.173784" lon="23.363013"><ele>2739.4</ele><time>2026-03-02T10:15:34.000Z</time></trkpt>
<trkpt lat="42.173786" lon="23.363013"><ele>2739.6</ele><time>2026-03-02T10:15:35.000Z</time></trkpt>
<trkpt lat="42.173788" lon="23.363013"><ele>2739.6</ele><time>2026-03-02T10:15:36.000Z</time></trkpt>
<trkpt lat="42.173788" lon="23.363013"><ele>2739.6</ele><time>2026-03-02T10:15:37.000Z</time></trkpt>
<trkpt lat="42.173787" lon="23.363013"><ele>2739.6</ele><time>2026-03-02T10:15:38.000Z</time></trkpt>
<trkpt lat="42.173787" lon="23.363013"><ele>2739.6</ele><time>2026-03-02T10:15:39.000Z</time></trkpt>
<trkpt lat="42.173786" lon="23.363014"><ele>2739.7</ele><time>2026-03-02T10:15:40.000Z</time></trkpt>
<trkpt lat="42.173786" lon="23.363015"><ele>2739.7</ele><time>2026-03-02T10:15:41.000Z</time></trkpt>
<trkpt lat="42.173786" lon="23.363015"><ele>2739.7</ele><time>2026-03-02T10:15:42.000Z</time></trkpt>
<trkpt lat="42.173788" lon="23.363016"><ele>2739.7</ele><time>2026-03-02T10:15:43.000Z</time></trkpt>
<trkpt lat="42.173788" lon="23.363017"><ele>2739.7</ele><time>2026-03-02T10:15:44.000Z</time></trkpt>
<trkpt lat="42.173789" lon="23.363018"><ele>2739.9</ele><time>2026-03-02T10:15:45.000Z</time></trkpt>
<trkpt lat="42.173789" lon="23.363018"><ele>2739.9</ele><time>2026-03-02T10:15:46.000Z</time></trkpt>
<trkpt lat="42.173789" lon="23.363018"><ele>2739.9</ele><time>2026-03-02T10:15:47.000Z</time></trkpt>
<trkpt lat="42.173788" lon="23.363017"><ele>2739.9</ele><time>2026-03-02T10:15:48.000Z</time></trkpt>
<trkpt lat="42.173788" lon="23.363015"><ele>2739.9</ele><time>2026-03-02T10:15:49.000Z</time></trkpt>
<trkpt lat="42.173787" lon="23.363013"><ele>2740</ele><time>2026-03-02T10:15:50.000Z</time></trkpt>
<trkpt lat="42.173787" lon="23.363012"><ele>2740</ele><time>2026-03-02T10:15:51.000Z</time></trkpt>
<trkpt lat="42.173786" lon="23.363011"><ele>2740</ele><time>2026-03-02T10:15:52.000Z</time></trkpt>
<trkpt lat="42.173786" lon="23.363011"><ele>2740</ele><time>2026-03-02T10:15:53.000Z</time></trkpt>
<trkpt lat="42.173786" lon="23.36301"><ele>2740</ele><time>2026-03-02T10:15:54.000Z</time></trkpt>
<trkpt lat="42.173786" lon="23.36301"><ele>2740.1</ele><time>2026-03-02T10:15:55.000Z</time></trkpt>
<trkpt lat="42.173786" lon="23.36301"><ele>2740.1</ele><time>2026-03-02T10:15:56.000Z</time></trkpt>
<trkpt lat="42.173786" lon="23.36301"><ele>2740.1</ele><time>2026-03-02T10:15:57.000Z</time></trkpt>
<trkpt lat="42.173786" lon="23.363011"><ele>2740.1</ele><time>2026-03-02T10:15:58.000Z</time></trkpt>
<trkpt lat="42.173787" lon="23.363011"><ele>2740.1</ele><time>2026-03-02T10:15:59.000Z</time></trkpt>
<trkpt lat="42.173787" lon="23.363012"><ele>2740.3</ele><time>2026-03-02T10:16:00.000Z</time></trkpt>
<trkpt lat="42.173788" lon="23.363012"><ele>2740.3</ele><time>2026-03-02T10:16:01.000Z</time></trkpt>
<trkpt lat="42.173789" lon="23.363013"><ele>2740.3</ele><time>2026-03-02T10:16:02.000Z</time></trkpt>
<trkpt lat="42.173791" lon="23.363014"><ele>2740.3</ele><time>2026-03-02T10:16:03.000Z</time></trkpt>
<trkpt lat="42.173793" lon="23.363016"><ele>2740.3</ele><time>2026-03-02T10:16:04.000Z</time></trkpt>
<trkpt lat="42.173795" lon="23.363017"><ele>2740.5</ele><time>2026-03-02T10:16:05.000Z</time></trkpt>
<trkpt lat="42.173796" lon="23.363018"><ele>2740.5</ele><time>2026-03-02T10:16:06.000Z</time></trkpt>
<trkpt lat="42.173799" lon="23.36302"><ele>2740.5</ele><time>2026-03-02T10:16:07.000Z</time></trkpt>
<trkpt lat="42.173802" lon="23.363023"><ele>2740.5</ele><time>2026-03-02T10:16:08.000Z</time></trkpt>
<trkpt lat="42.173804" lon="23.363024"><ele>2740.5</ele><time>2026-03-02T10:16:09.000Z</time></trkpt>
<trkpt lat="42.173806" lon="23.363024"><ele>2740.6</ele><time>2026-03-02T10:16:10.000Z</time></trkpt>
<trkpt lat="42.173807" lon="23.363024"><ele>2740.6</ele><time>2026-03-02T10:16:11.000Z</time></trkpt>
<trkpt lat="42.173806" lon="23.363023"><ele>2740.6</ele><time>2026-03-02T10:16:12.000Z</time></trkpt>
<trkpt lat="42.173805" lon="23.363021"><ele>2740.6</ele><time>2026-03-02T10:16:13.000Z</time></trkpt>
<trkpt lat="42.173804" lon="23.363019"><ele>2740.6</ele><time>2026-03-02T10:16:14.000Z</time></trkpt>
<trkpt lat="42.173803" lon="23.363019"><ele>2740.7</ele><time>2026-03-02T10:16:15.000Z</time></trkpt>
<trkpt lat="42.173801" lon="23.363018"><ele>2740.7</ele><time>2026-03-02T10:16:16.000Z</time></trkpt>
<trkpt lat="42.1738" lon="23.363018"><ele>2740.7</ele><time>2026-03-02T10:16:17.000Z</time></trkpt>
<trkpt lat="42.173798" lon="23.363018"><ele>2740.7</ele><time>2026-03-02T10:16:18.000Z</time></trkpt>
<trkpt lat="42.173798" lon="23.363018"><ele>2740.7</ele><time>2026-03-02T10:16:19.000Z</time></trkpt>
<trkpt lat="42.173797" lon="23.363018"><ele>2740.8</ele><time>2026-03-02T10:16:20.000Z</time></trkpt>
<trkpt lat="42.173797" lon="23.363017"><ele>2740.8</ele><time>2026-03-02T10:16:21.000Z</time></trkpt>
<trkpt lat="42.173797" lon="23.363017"><ele>2740.8</ele><time>2026-03-02T10:16:22.000Z</time></trkpt>
<trkpt lat="42.173797" lon="23.363017"><ele>2740.8</ele><time>2026-03-02T10:16:23.000Z</time></trkpt>
<trkpt lat="42.173797" lon="23.363017"><ele>2740.8</ele><time>2026-03-02T10:16:24.000Z</time></trkpt>
<trkpt lat="42.173798" lon="23.363015"><ele>2740.9</ele><time>2026-03-02T10:16:25.000Z</time></trkpt>
<trkpt lat="42.173801" lon="23.363013"><ele>2740.9</ele><time>2026-03-02T10:16:26.000Z</time></trkpt>
<trkpt lat="42.173803" lon="23.36301"><ele>2740.9</ele><time>2026-03-02T10:16:27.000Z</time></trkpt>
<trkpt lat="42.173807" lon="23.363007"><ele>2740.9</ele><time>2026-03-02T10:16:28.000Z</time></trkpt>
<trkpt lat="42.173813" lon="23.363003"><ele>2740.9</ele><time>2026-03-02T10:16:29.000Z</time></trkpt>
<trkpt lat="42.173821" lon="23.363003"><ele>2740.9</ele><time>2026-03-02T10:16:30.000Z</time></trkpt>
<trkpt lat="42.173827" lon="23.363006"><ele>2740.9</ele><time>2026-03-02T10:16:31.000Z</time></trkpt>
<trkpt lat="42.173834" lon="23.363009"><ele>2740.9</ele><time>2026-03-02T10:16:32.000Z</time></trkpt>
<trkpt lat="42.17384" lon="23.363014"><ele>2740.9</ele><time>2026-03-02T10:16:33.000Z</time></trkpt>
<trkpt lat="42.173844" lon="23.363019"><ele>2740.9</ele><time>2026-03-02T10:16:34.000Z</time></trkpt>
<trkpt lat="42.173846" lon="23.363022"><ele>2740.7</ele><time>2026-03-02T10:16:35.000Z</time></trkpt>
<trkpt lat="42.173848" lon="23.363022"><ele>2740.7</ele><time>2026-03-02T10:16:36.000Z</time></trkpt>
<trkpt lat="42.173849" lon="23.363022"><ele>2740.7</ele><time>2026-03-02T10:16:37.000Z</time></trkpt>
<trkpt lat="42.173851" lon="23.363022"><ele>2740.7</ele><time>2026-03-02T10:16:38.000Z</time></trkpt>
<trkpt lat="42.173852" lon="23.363022"><ele>2740.7</ele><time>2026-03-02T10:16:39.000Z</time></trkpt>
<trkpt lat="42.173853" lon="23.363022"><ele>2740.6</ele><time>2026-03-02T10:16:40.000Z</time></trkpt>
<trkpt lat="42.173853" lon="23.363022"><ele>2740.6</ele><time>2026-03-02T10:16:41.000Z</time></trkpt>
<trkpt lat="42.173853" lon="23.363023"><ele>2740.6</ele><time>2026-03-02T10:16:42.000Z</time></trkpt>
<trkpt lat="42.173853" lon="23.363023"><ele>2740.6</ele><time>2026-03-02T10:16:43.000Z</time></trkpt>
<trkpt lat="42.173853" lon="23.363023"><ele>2740.6</ele><time>2026-03-02T10:16:44.000Z</time></trkpt>
<trkpt lat="42.173853" lon="23.363023"><ele>2740.3</ele><time>2026-03-02T10:16:45.000Z</time></trkpt>
<trkpt lat="42.173853" lon="23.363023"><ele>2740.3</ele><time>2026-03-02T10:16:46.000Z</time></trkpt>
<trkpt lat="42.173853" lon="23.363023"><ele>2740.3</ele><time>2026-03-02T10:16:47.000Z</time></trkpt>
<trkpt lat="42.173853" lon="23.363024"><ele>2740.3</ele><time>2026-03-02T10:16:48.000Z</time></trkpt>
<trkpt lat="42.173852" lon="23.363022"><ele>2740.3</ele><time>2026-03-02T10:16:49.000Z</time></trkpt>
<trkpt lat="42.173849" lon="23.363019"><ele>2740.3</ele><time>2026-03-02T10:16:50.000Z</time></trkpt>
<trkpt lat="42.173845" lon="23.363014"><ele>2740.3</ele><time>2026-03-02T10:16:51.000Z</time></trkpt>
<trkpt lat="42.17384" lon="23.363009"><ele>2740.3</ele><time>2026-03-02T10:16:52.000Z</time></trkpt>
<trkpt lat="42.173834" lon="23.363005"><ele>2740.3</ele><time>2026-03-02T10:16:53.000Z</time></trkpt>
<trkpt lat="42.173827" lon="23.363003"><ele>2740.3</ele><time>2026-03-02T10:16:54.000Z</time></trkpt>
<trkpt lat="42.173819" lon="23.363004"><ele>2740.4</ele><time>2026-03-02T10:16:55.000Z</time></trkpt>
<trkpt lat="42.173811" lon="23.363005"><ele>2740.4</ele><time>2026-03-02T10:16:56.000Z</time></trkpt>
<trkpt lat="42.173803" lon="23.363007"><ele>2740.4</ele><time>2026-03-02T10:16:57.000Z</time></trkpt>
<trkpt lat="42.173796" lon="23.363008"><ele>2740.4</ele><time>2026-03-02T10:16:58.000Z</time></trkpt>
<trkpt lat="42.173791" lon="23.363009"><ele>2740.4</ele><time>2026-03-02T10:16:59.000Z</time></trkpt>
<trkpt lat="42.173787" lon="23.36301"><ele>2740.4</ele><time>2026-03-02T10:17:00.000Z</time></trkpt>
<trkpt lat="42.173785" lon="23.363011"><ele>2740.4</ele><time>2026-03-02T10:17:01.000Z</time></trkpt>
<trkpt lat="42.173784" lon="23.363013"><ele>2740.4</ele><time>2026-03-02T10:17:02.000Z</time></trkpt>
<trkpt lat="42.173784" lon="23.363015"><ele>2740.4</ele><time>2026-03-02T10:17:03.000Z</time></trkpt>
<trkpt lat="42.173784" lon="23.363016"><ele>2740.4</ele><time>2026-03-02T10:17:04.000Z</time></trkpt>
<trkpt lat="42.173784" lon="23.363017"><ele>2740.4</ele><time>2026-03-02T10:17:05.000Z</time></trkpt>
<trkpt lat="42.173785" lon="23.363018"><ele>2740.4</ele><time>2026-03-02T10:17:06.000Z</time></trkpt>
<trkpt lat="42.173785" lon="23.363018"><ele>2740.4</ele><time>2026-03-02T10:17:07.000Z</time></trkpt>
<trkpt lat="42.173784" lon="23.363019"><ele>2740.4</ele><time>2026-03-02T10:17:08.000Z</time></trkpt>
<trkpt lat="42.173784" lon="23.363019"><ele>2740.4</ele><time>2026-03-02T10:17:09.000Z</time></trkpt>
<trkpt lat="42.173783" lon="23.36302"><ele>2740.4</ele><time>2026-03-02T10:17:10.000Z</time></trkpt>
<trkpt lat="42.173782" lon="23.36302"><ele>2740.4</ele><time>2026-03-02T10:17:11.000Z</time></trkpt>
<trkpt lat="42.173782" lon="23.363021"><ele>2740.4</ele><time>2026-03-02T10:17:12.000Z</time></trkpt>
<trkpt lat="42.173782" lon="23.363021"><ele>2740.4</ele><time>2026-03-02T10:17:13.000Z</time></trkpt>
<trkpt lat="42.173783" lon="23.363021"><ele>2740.4</ele><time>2026-03-02T10:17:14.000Z</time></trkpt>
<trkpt lat="42.173784" lon="23.363021"><ele>2740.4</ele><time>2026-03-02T10:17:15.000Z</time></trkpt>
<trkpt lat="42.173784" lon="23.363022"><ele>2740.4</ele><time>2026-03-02T10:17:16.000Z</time></trkpt>
<trkpt lat="42.173785" lon="23.363022"><ele>2740.4</ele><time>2026-03-02T10:17:17.000Z</time></trkpt>
<trkpt lat="42.173785" lon="23.363022"><ele>2740.4</ele><time>2026-03-02T10:17:18.000Z</time></trkpt>
<trkpt lat="42.173785" lon="23.363022"><ele>2740.4</ele><time>2026-03-02T10:17:19.000Z</time></trkpt>
<trkpt lat="42.173785" lon="23.363023"><ele>2740.6</ele><time>2026-03-02T10:17:20.000Z</time></trkpt>
<trkpt lat="42.173785" lon="23.363023"><ele>2740.6</ele><time>2026-03-02T10:17:21.000Z</time></trkpt>
<trkpt lat="42.173786" lon="23.363024"><ele>2740.6</ele><time>2026-03-02T10:17:22.000Z</time></trkpt>
<trkpt lat="42.173787" lon="23.363025"><ele>2740.6</ele><time>2026-03-02T10:17:23.000Z</time></trkpt>
<trkpt lat="42.173787" lon="23.363026"><ele>2740.6</ele><time>2026-03-02T10:17:24.000Z</time></trkpt>
<trkpt lat="42.173788" lon="23.363027"><ele>2740.6</ele><time>2026-03-02T10:17:25.000Z</time></trkpt>
<trkpt lat="42.173789" lon="23.363027"><ele>2740.6</ele><time>2026-03-02T10:17:26.000Z</time></trkpt>
<trkpt lat="42.173789" lon="23.363027"><ele>2740.6</ele><time>2026-03-02T10:17:27.000Z</time></trkpt>
<trkpt lat="42.173788" lon="23.363027"><ele>2740.6</ele><time>2026-03-02T10:17:28.000Z</time></trkpt>
<trkpt lat="42.173788" lon="23.363026"><ele>2740.6</ele><time>2026-03-02T10:17:29.000Z</time></trkpt>
<trkpt lat="42.173788" lon="23.363026"><ele>2740.6</ele><time>2026-03-02T10:17:30.000Z</time></trkpt>
<trkpt lat="42.173788" lon="23.363026"><ele>2740.6</ele><time>2026-03-02T10:17:31.000Z</time></trkpt>
<trkpt lat="42.173788" lon="23.363026"><ele>2740.6</ele><time>2026-03-02T10:17:32.000Z</time></trkpt>
<trkpt lat="42.173788" lon="23.363026"><ele>2740.6</ele><time>2026-03-02T10:17:33.000Z</time></trkpt>
<trkpt lat="42.173788" lon="23.363026"><ele>2740.6</ele><time>2026-03-02T10:17:34.000Z</time></trkpt>
<trkpt lat="42.173787" lon="23.363025"><ele>2740.5</ele><time>2026-03-02T10:17:35.000Z</time></trkpt>
<trkpt lat="42.173787" lon="23.363025"><ele>2740.5</ele><time>2026-03-02T10:17:36.000Z</time></trkpt>
<trkpt lat="42.173787" lon="23.363025"><ele>2740.5</ele><time>2026-03-02T10:17:37.000Z</time></trkpt>
<trkpt lat="42.173787" lon="23.363024"><ele>2740.5</ele><time>2026-03-02T10:17:38.000Z</time></trkpt>
<trkpt lat="42.173787" lon="23.363024"><ele>2740.5</ele><time>2026-03-02T10:17:39.000Z</time></trkpt>
<trkpt lat="42.173787" lon="23.363024"><ele>2740.5</ele><time>2026-03-02T10:17:40.000Z</time></trkpt>
<trkpt lat="42.173787" lon="23.363024"><ele>2740.5</ele><time>2026-03-02T10:17:41.000Z</time></trkpt>
<trkpt lat="42.173787" lon="23.363024"><ele>2740.5</ele><time>2026-03-02T10:17:42.000Z</time></trkpt>
<trkpt lat="42.173787" lon="23.363024"><ele>2740.5</ele><time>2026-03-02T10:17:43.000Z</time></trkpt>
<trkpt lat="42.173787" lon="23.363024"><ele>2740.5</ele><time>2026-03-02T10:17:44.000Z</time></trkpt>
<trkpt lat="42.173787" lon="23.363024"><ele>2740.5</ele><time>2026-03-02T10:17:45.000Z</time></trkpt>
<trkpt lat="42.173787" lon="23.363024"><ele>2740.5</ele><time>2026-03-02T10:17:46.000Z</time></trkpt>
<trkpt lat="42.173787" lon="23.363024"><ele>2740.5</ele><time>2026-03-02T10:17:47.000Z</time></trkpt>
<trkpt lat="42.173787" lon="23.363024"><ele>2740.5</ele><time>2026-03-02T10:17:48.000Z</time></trkpt>
<trkpt lat="42.173787" lon="23.363024"><ele>2740.5</ele><time>2026-03-02T10:17:49.000Z</time></trkpt>
<trkpt lat="42.173787" lon="23.363024"><ele>2740.6</ele><time>2026-03-02T10:17:50.000Z</time></trkpt>
<trkpt lat="42.173787" lon="23.363024"><ele>2740.6</ele><time>2026-03-02T10:17:51.000Z</time></trkpt>
<trkpt lat="42.173787" lon="23.363024"><ele>2740.6</ele><time>2026-03-02T10:17:52.000Z</time></trkpt>
<trkpt lat="42.173787" lon="23.363024"><ele>2740.6</ele><time>2026-03-02T10:17:53.000Z</time></trkpt>
<trkpt lat="42.173786" lon="23.363023"><ele>2740.6</ele><time>2026-03-02T10:17:54.000Z</time></trkpt>
<trkpt lat="42.173786" lon="23.363021"><ele>2740.6</ele><time>2026-03-02T10:17:55.000Z</time></trkpt>
<trkpt lat="42.173785" lon="23.363019"><ele>2740.6</ele><time>2026-03-02T10:17:56.000Z</time></trkpt>
<trkpt lat="42.173785" lon="23.363016"><ele>2740.6</ele><time>2026-03-02T10:17:57.000Z</time></trkpt>
<trkpt lat="42.173783" lon="23.363013"><ele>2740.6</ele><time>2026-03-02T10:17:58.000Z</time></trkpt>
<trkpt lat="42.173782" lon="23.36301"><ele>2740.6</ele><time>2026-03-02T10:17:59.000Z</time></trkpt>
<trkpt lat="42.173781" lon="23.363008"><ele>2740.4</ele><time>2026-03-02T10:18:00.000Z</time></trkpt>
<trkpt lat="42.17378" lon="23.363006"><ele>2740.4</ele><time>2026-03-02T10:18:01.000Z</time></trkpt>
<trkpt lat="42.173779" lon="23.363005"><ele>2740.4</ele><time>2026-03-02T10:18:02.000Z</time></trkpt>
<trkpt lat="42.173778" lon="23.363004"><ele>2740.4</ele><time>2026-03-02T10:18:03.000Z</time></trkpt>
<trkpt lat="42.173778" lon="23.363005"><ele>2740.4</ele><time>2026-03-02T10:18:04.000Z</time></trkpt>
<trkpt lat="42.173778" lon="23.363005"><ele>2740.1</ele><time>2026-03-02T10:18:05.000Z</time></trkpt>
<trkpt lat="42.173778" lon="23.363005"><ele>2740.1</ele><time>2026-03-02T10:18:06.000Z</time></trkpt>
<trkpt lat="42.173778" lon="23.363005"><ele>2740.1</ele><time>2026-03-02T10:18:07.000Z</time></trkpt>
<trkpt lat="42.173778" lon="23.363005"><ele>2740.1</ele><time>2026-03-02T10:18:08.000Z</time></trkpt>
<trkpt lat="42.173778" lon="23.363005"><ele>2740.1</ele><time>2026-03-02T10:18:09.000Z</time></trkpt>
<trkpt lat="42.173778" lon="23.363005"><ele>2740</ele><time>2026-03-02T10:18:10.000Z</time></trkpt>
<trkpt lat="42.173778" lon="23.363005"><ele>2740</ele><time>2026-03-02T10:18:11.000Z</time></trkpt>
<trkpt lat="42.173778" lon="23.363005"><ele>2740</ele><time>2026-03-02T10:18:12.000Z</time></trkpt>
<trkpt lat="42.173778" lon="23.363004"><ele>2740</ele><time>2026-03-02T10:18:13.000Z</time></trkpt>
<trkpt lat="42.173779" lon="23.363002"><ele>2740</ele><time>2026-03-02T10:18:14.000Z</time></trkpt>
<trkpt lat="42.173779" lon="23.362998"><ele>2739.8</ele><time>2026-03-02T10:18:15.000Z</time></trkpt>
<trkpt lat="42.17378" lon="23.362994"><ele>2739.8</ele><time>2026-03-02T10:18:16.000Z</time></trkpt>
<trkpt lat="42.173781" lon="23.36299"><ele>2739.8</ele><time>2026-03-02T10:18:17.000Z</time></trkpt>
<trkpt lat="42.173782" lon="23.362987"><ele>2739.8</ele><time>2026-03-02T10:18:18.000Z</time></trkpt>
<trkpt lat="42.173783" lon="23.362984"><ele>2739.8</ele><time>2026-03-02T10:18:19.000Z</time></trkpt>
<trkpt lat="42.173785" lon="23.362983"><ele>2739.8</ele><time>2026-03-02T10:18:20.000Z</time></trkpt>
<trkpt lat="42.173785" lon="23.362982"><ele>2739.8</ele><time>2026-03-02T10:18:21.000Z</time></trkpt>
<trkpt lat="42.173785" lon="23.362981"><ele>2739.8</ele><time>2026-03-02T10:18:22.000Z</time></trkpt>
<trkpt lat="42.173785" lon="23.362981"><ele>2739.8</ele><time>2026-03-02T10:18:23.000Z</time></trkpt>
<trkpt lat="42.173785" lon="23.36298"><ele>2739.8</ele><time>2026-03-02T10:18:24.000Z</time></trkpt>
<trkpt lat="42.173785" lon="23.362979"><ele>2739.8</ele><time>2026-03-02T10:18:25.000Z</time></trkpt>
<trkpt lat="42.173784" lon="23.362979"><ele>2739.8</ele><time>2026-03-02T10:18:26.000Z</time></trkpt>
<trkpt lat="42.173784" lon="23.362979"><ele>2739.8</ele><time>2026-03-02T10:18:27.000Z</time></trkpt>
<trkpt lat="42.173784" lon="23.362978"><ele>2739.8</ele><time>2026-03-02T10:18:28.000Z</time></trkpt>
<trkpt lat="42.173784" lon="23.362978"><ele>2739.8</ele><time>2026-03-02T10:18:29.000Z</time></trkpt>
<trkpt lat="42.173784" lon="23.362978"><ele>2739.8</ele><time>2026-03-02T10:18:30.000Z</time></trkpt>
<trkpt lat="42.173784" lon="23.362978"><ele>2739.8</ele><time>2026-03-02T10:18:31.000Z</time></trkpt>
<trkpt lat="42.173784" lon="23.362978"><ele>2739.8</ele><time>2026-03-02T10:18:32.000Z</time></trkpt>
<trkpt lat="42.173784" lon="23.362978"><ele>2739.8</ele><time>2026-03-02T10:18:33.000Z</time></trkpt>
<trkpt lat="42.173784" lon="23.362979"><ele>2739.8</ele><time>2026-03-02T10:18:34.000Z</time></trkpt>
<trkpt lat="42.173784" lon="23.362979"><ele>2739.7</ele><time>2026-03-02T10:18:35.000Z</time></trkpt>
<trkpt lat="42.173785" lon="23.36298"><ele>2739.7</ele><time>2026-03-02T10:18:36.000Z</time></trkpt>
<trkpt lat="42.173785" lon="23.36298"><ele>2739.7</ele><time>2026-03-02T10:18:37.000Z</time></trkpt>
<trkpt lat="42.173785" lon="23.362981"><ele>2739.7</ele><time>2026-03-02T10:18:38.000Z</time></trkpt>
<trkpt lat="42.173785" lon="23.362981"><ele>2739.7</ele><time>2026-03-02T10:18:39.000Z</time></trkpt>
<trkpt lat="42.173785" lon="23.362981"><ele>2739.7</ele><time>2026-03-02T10:18:40.000Z</time></trkpt>
<trkpt lat="42.173785" lon="23.362981"><ele>2739.7</ele><time>2026-03-02T10:18:41.000Z</time></trkpt>
<trkpt lat="42.173785" lon="23.362981"><ele>2739.7</ele><time>2026-03-02T10:18:42.000Z</time></trkpt>
<trkpt lat="42.173785" lon="23.362981"><ele>2739.7</ele><time>2026-03-02T10:18:43.000Z</time></trkpt>
<trkpt lat="42.173785" lon="23.362981"><ele>2739.7</ele><time>2026-03-02T10:18:44.000Z</time></trkpt>
<trkpt lat="42.173785" lon="23.362981"><ele>2739.8</ele><time>2026-03-02T10:18:45.000Z</time></trkpt>
<trkpt lat="42.173785" lon="23.362981"><ele>2739.8</ele><time>2026-03-02T10:18:46.000Z</time></trkpt>
<trkpt lat="42.173785" lon="23.362981"><ele>2739.8</ele><time>2026-03-02T10:18:47.000Z</time></trkpt>
<trkpt lat="42.173785" lon="23.362981"><ele>2739.8</ele><time>2026-03-02T10:18:48.000Z</time></trkpt>
<trkpt lat="42.173785" lon="23.362981"><ele>2739.8</ele><time>2026-03-02T10:18:49.000Z</time></trkpt>
<trkpt lat="42.173785" lon="23.362981"><ele>2740</ele><time>2026-03-02T10:18:50.000Z</time></trkpt>
<trkpt lat="42.173785" lon="23.362981"><ele>2740</ele><time>2026-03-02T10:18:51.000Z</time></trkpt>
<trkpt lat="42.173785" lon="23.362981"><ele>2740</ele><time>2026-03-02T10:18:52.000Z</time></trkpt>
<trkpt lat="42.173786" lon="23.362981"><ele>2740</ele><time>2026-03-02T10:18:53.000Z</time></trkpt>
<trkpt lat="42.173786" lon="23.362981"><ele>2740</ele><time>2026-03-02T10:18:54.000Z</time></trkpt>
<trkpt lat="42.173787" lon="23.362981"><ele>2740</ele><time>2026-03-02T10:18:55.000Z</time></trkpt>
<trkpt lat="42.173787" lon="23.362981"><ele>2740</ele><time>2026-03-02T10:18:56.000Z</time></trkpt>
<trkpt lat="42.173787" lon="23.362981"><ele>2740</ele><time>2026-03-02T10:18:57.000Z</time></trkpt>
<trkpt lat="42.173787" lon="23.362981"><ele>2740</ele><time>2026-03-02T10:18:58.000Z</time></trkpt>
<trkpt lat="42.173787" lon="23.362981"><ele>2740</ele><time>2026-03-02T10:18:59.000Z</time></trkpt>
<trkpt lat="42.173787" lon="23.362981"><ele>2739.9</ele><time>2026-03-02T10:19:00.000Z</time></trkpt>
<trkpt lat="42.173787" lon="23.362981"><ele>2739.9</ele><time>2026-03-02T10:19:01.000Z</time></trkpt>
<trkpt lat="42.173787" lon="23.362981"><ele>2739.9</ele><time>2026-03-02T10:19:02.000Z</time></trkpt>
<trkpt lat="42.173787" lon="23.362981"><ele>2739.9</ele><time>2026-03-02T10:19:03.000Z</time></trkpt>
<trkpt lat="42.173787" lon="23.362981"><ele>2739.9</ele><time>2026-03-02T10:19:04.000Z</time></trkpt>
<trkpt lat="42.173787" lon="23.362981"><ele>2739.8</ele><time>2026-03-02T10:19:05.000Z</time></trkpt>
<trkpt lat="42.173787" lon="23.362981"><ele>2739.8</ele><time>2026-03-02T10:19:06.000Z</time></trkpt>
<trkpt lat="42.173787" lon="23.362981"><ele>2739.8</ele><time>2026-03-02T10:19:07.000Z</time></trkpt>
<trkpt lat="42.173787" lon="23.362981"><ele>2739.8</ele><time>2026-03-02T10:19:08.000Z</time></trkpt>
<trkpt lat="42.173787" lon="23.362981"><ele>2739.8</ele><time>2026-03-02T10:19:09.000Z</time></trkpt>
<trkpt lat="42.173787" lon="23.362981"><ele>2739.7</ele><time>2026-03-02T10:19:10.000Z</time></trkpt>
<trkpt lat="42.173787" lon="23.36298"><ele>2739.7</ele><time>2026-03-02T10:19:11.000Z</time></trkpt>
<trkpt lat="42.173788" lon="23.362979"><ele>2739.7</ele><time>2026-03-02T10:19:12.000Z</time></trkpt>
<trkpt lat="42.173789" lon="23.362978"><ele>2739.7</ele><time>2026-03-02T10:19:13.000Z</time></trkpt>
<trkpt lat="42.173789" lon="23.362978"><ele>2739.7</ele><time>2026-03-02T10:19:14.000Z</time></trkpt>
<trkpt lat="42.173789" lon="23.362977"><ele>2739.7</ele><time>2026-03-02T10:19:15.000Z</time></trkpt>
<trkpt lat="42.173788" lon="23.362978"><ele>2739.7</ele><time>2026-03-02T10:19:16.000Z</time></trkpt>
<trkpt lat="42.173787" lon="23.362977"><ele>2739.7</ele><time>2026-03-02T10:19:17.000Z</time></trkpt>
<trkpt lat="42.173786" lon="23.362976"><ele>2739.7</ele><time>2026-03-02T10:19:18.000Z</time></trkpt>
<trkpt lat="42.173785" lon="23.362975"><ele>2739.7</ele><time>2026-03-02T10:19:19.000Z</time></trkpt>
<trkpt lat="42.173784" lon="23.362975"><ele>2739.8</ele><time>2026-03-02T10:19:20.000Z</time></trkpt>
<trkpt lat="42.173785" lon="23.362975"><ele>2739.8</ele><time>2026-03-02T10:19:21.000Z</time></trkpt>
<trkpt lat="42.173786" lon="23.362977"><ele>2739.8</ele><time>2026-03-02T10:19:22.000Z</time></trkpt>
<trkpt lat="42.173786" lon="23.362978"><ele>2739.8</ele><time>2026-03-02T10:19:23.000Z</time></trkpt>
<trkpt lat="42.173785" lon="23.362979"><ele>2739.8</ele><time>2026-03-02T10:19:24.000Z</time></trkpt>
<trkpt lat="42.173785" lon="23.362979"><ele>2739.9</ele><time>2026-03-02T10:19:25.000Z</time></trkpt>
<trkpt lat="42.173785" lon="23.362979"><ele>2739.9</ele><time>2026-03-02T10:19:26.000Z</time></trkpt>
<trkpt lat="42.173784" lon="23.362979"><ele>2739.9</ele><time>2026-03-02T10:19:27.000Z</time></trkpt>
<trkpt lat="42.173784" lon="23.362979"><ele>2739.9</ele><time>2026-03-02T10:19:28.000Z</time></trkpt>
<trkpt lat="42.173784" lon="23.362979"><ele>2739.9</ele><time>2026-03-02T10:19:29.000Z</time></trkpt>
<trkpt lat="42.173784" lon="23.362979"><ele>2740.1</ele><time>2026-03-02T10:19:30.000Z</time></trkpt>
<trkpt lat="42.173784" lon="23.362979"><ele>2740.1</ele><time>2026-03-02T10:19:31.000Z</time></trkpt>
<trkpt lat="42.173784" lon="23.362979"><ele>2740.1</ele><time>2026-03-02T10:19:32.000Z</time></trkpt>
<trkpt lat="42.173784" lon="23.362979"><ele>2740.1</ele><time>2026-03-02T10:19:33.000Z</time></trkpt>
<trkpt lat="42.173784" lon="23.362979"><ele>2740.1</ele><time>2026-03-02T10:19:34.000Z</time></trkpt>
<trkpt lat="42.173784" lon="23.362979"><ele>2740.1</ele><time>2026-03-02T10:19:35.000Z</time></trkpt>
<trkpt lat="42.173784" lon="23.362979"><ele>2740.1</ele><time>2026-03-02T10:19:36.000Z</time></trkpt>
<trkpt lat="42.173784" lon="23.362979"><ele>2740.1</ele><time>2026-03-02T10:19:37.000Z</time></trkpt>
<trkpt lat="42.173784" lon="23.362979"><ele>2740.1</ele><time>2026-03-02T10:19:38.000Z</time></trkpt>
<trkpt lat="42.173784" lon="23.362979"><ele>2740.1</ele><time>2026-03-02T10:19:39.000Z</time></trkpt>
<trkpt lat="42.173784" lon="23.362979"><ele>2740.2</ele><time>2026-03-02T10:19:40.000Z</time></trkpt>
<trkpt lat="42.173784" lon="23.362979"><ele>2740.2</ele><time>2026-03-02T10:19:41.000Z</time></trkpt>
<trkpt lat="42.173784" lon="23.362979"><ele>2740.2</ele><time>2026-03-02T10:19:42.000Z</time></trkpt>
<trkpt lat="42.173784" lon="23.362979"><ele>2740.2</ele><time>2026-03-02T10:19:43.000Z</time></trkpt>
<trkpt lat="42.173784" lon="23.362979"><ele>2740.2</ele><time>2026-03-02T10:19:44.000Z</time></trkpt>
<trkpt lat="42.173784" lon="23.362979"><ele>2740.2</ele><time>2026-03-02T10:19:45.000Z</time></trkpt>
<trkpt lat="42.173784" lon="23.362979"><ele>2740.2</ele><time>2026-03-02T10:19:46.000Z</time></trkpt>
<trkpt lat="42.173784" lon="23.362979"><ele>2740.2</ele><time>2026-03-02T10:19:47.000Z</time></trkpt>
<trkpt lat="42.173784" lon="23.362979"><ele>2740.2</ele><time>2026-03-02T10:19:48.000Z</time></trkpt>
<trkpt lat="42.173784" lon="23.362979"><ele>2740.2</ele><time>2026-03-02T10:19:49.000Z</time></trkpt>
<trkpt lat="42.173784" lon="23.362979"><ele>2740.2</ele><time>2026-03-02T10:19:50.000Z</time></trkpt>
<trkpt lat="42.173784" lon="23.362979"><ele>2740.2</ele><time>2026-03-02T10:19:51.000Z</time></trkpt>
<trkpt lat="42.173784" lon="23.362979"><ele>2740.2</ele><time>2026-03-02T10:19:52.000Z</time></trkpt>
<trkpt lat="42.173784" lon="23.362979"><ele>2740.2</ele><time>2026-03-02T10:19:53.000Z</time></trkpt>
<trkpt lat="42.173784" lon="23.362979"><ele>2740.2</ele><time>2026-03-02T10:19:54.000Z</time></trkpt>
<trkpt lat="42.173783" lon="23.362979"><ele>2740.2</ele><time>2026-03-02T10:19:55.000Z</time></trkpt>
<trkpt lat="42.173783" lon="23.362979"><ele>2740.2</ele><time>2026-03-02T10:19:56.000Z</time></trkpt>
<trkpt lat="42.173783" lon="23.362979"><ele>2740.2</ele><time>2026-03-02T10:19:57.000Z</time></trkpt>
<trkpt lat="42.173782" lon="23.36298"><ele>2740.2</ele><time>2026-03-02T10:19:58.000Z</time></trkpt>
<trkpt lat="42.173782" lon="23.36298"><ele>2740.2</ele><time>2026-03-02T10:19:59.000Z</time></trkpt>
<trkpt lat="42.173783" lon="23.36298"><ele>2740.2</ele><time>2026-03-02T10:20:00.000Z</time></trkpt>
<trkpt lat="42.173783" lon="23.36298"><ele>2740.2</ele><time>2026-03-02T10:20:01.000Z</time></trkpt>
<trkpt lat="42.173784" lon="23.362983"><ele>2740.2</ele><time>2026-03-02T10:20:02.000Z</time></trkpt>
<trkpt lat="42.173784" lon="23.362987"><ele>2740.2</ele><time>2026-03-02T10:20:03.000Z</time></trkpt>
<trkpt lat="42.173782" lon="23.362992"><ele>2740.2</ele><time>2026-03-02T10:20:04.000Z</time></trkpt>
<trkpt lat="42.173781" lon="23.362997"><ele>2740.1</ele><time>2026-03-02T10:20:05.000Z</time></trkpt>
<trkpt lat="42.173778" lon="23.363001"><ele>2740.1</ele><time>2026-03-02T10:20:06.000Z</time></trkpt>
<trkpt lat="42.173777" lon="23.363001"><ele>2740.1</ele><time>2026-03-02T10:20:07.000Z</time></trkpt>
<trkpt lat="42.173776" lon="23.363"><ele>2740.1</ele><time>2026-03-02T10:20:08.000Z</time></trkpt>
<trkpt lat="42.173776" lon="23.362998"><ele>2740.1</ele><time>2026-03-02T10:20:09.000Z</time></trkpt>
<trkpt lat="42.173776" lon="23.362997"><ele>2740</ele><time>2026-03-02T10:20:10.000Z</time></trkpt>
<trkpt lat="42.173777" lon="23.362996"><ele>2740</ele><time>2026-03-02T10:20:11.000Z</time></trkpt>
<trkpt lat="42.173777" lon="23.362997"><ele>2740</ele><time>2026-03-02T10:20:12.000Z</time></trkpt>
<trkpt lat="42.173776" lon="23.362996"><ele>2740</ele><time>2026-03-02T10:20:13.000Z</time></trkpt>
<trkpt lat="42.173775" lon="23.362996"><ele>2740</ele><time>2026-03-02T10:20:14.000Z</time></trkpt>
<trkpt lat="42.173774" lon="23.362995"><ele>2740.1</ele><time>2026-03-02T10:20:15.000Z</time></trkpt>
<trkpt lat="42.173774" lon="23.362995"><ele>2740.1</ele><time>2026-03-02T10:20:16.000Z</time></trkpt>
<trkpt lat="42.173773" lon="23.362995"><ele>2740.1</ele><time>2026-03-02T10:20:17.000Z</time></trkpt>
<trkpt lat="42.173773" lon="23.362995"><ele>2740.1</ele><time>2026-03-02T10:20:18.000Z</time></trkpt>
<trkpt lat="42.173774" lon="23.362995"><ele>2740.1</ele><time>2026-03-02T10:20:19.000Z</time></trkpt>
<trkpt lat="42.173773" lon="23.362995"><ele>2740.3</ele><time>2026-03-02T10:20:20.000Z</time></trkpt>
<trkpt lat="42.173773" lon="23.362995"><ele>2740.3</ele><time>2026-03-02T10:20:21.000Z</time></trkpt>
<trkpt lat="42.173773" lon="23.362995"><ele>2740.3</ele><time>2026-03-02T10:20:22.000Z</time></trkpt>
<trkpt lat="42.173772" lon="23.362995"><ele>2740.3</ele><time>2026-03-02T10:20:23.000Z</time></trkpt>
<trkpt lat="42.173771" lon="23.362995"><ele>2740.3</ele><time>2026-03-02T10:20:24.000Z</time></trkpt>
<trkpt lat="42.173771" lon="23.362995"><ele>2740.3</ele><time>2026-03-02T10:20:25.000Z</time></trkpt>
<trkpt lat="42.173771" lon="23.362995"><ele>2740.3</ele><time>2026-03-02T10:20:26.000Z</time></trkpt>
<trkpt lat="42.17377" lon="23.362995"><ele>2740.3</ele><time>2026-03-02T10:20:27.000Z</time></trkpt>
<trkpt lat="42.17377" lon="23.362995"><ele>2740.3</ele><time>2026-03-02T10:20:28.000Z</time></trkpt>
<trkpt lat="42.17377" lon="23.362995"><ele>2740.3</ele><time>2026-03-02T10:20:29.000Z</time></trkpt>
<trkpt lat="42.17377" lon="23.362995"><ele>2740.5</ele><time>2026-03-02T10:20:30.000Z</time></trkpt>
<trkpt lat="42.17377" lon="23.362995"><ele>2740.5</ele><time>2026-03-02T10:20:31.000Z</time></trkpt>
<trkpt lat="42.173771" lon="23.362994"><ele>2740.5</ele><time>2026-03-02T10:20:32.000Z</time></trkpt>
<trkpt lat="42.173771" lon="23.362993"><ele>2740.5</ele><time>2026-03-02T10:20:33.000Z</time></trkpt>
<trkpt lat="42.173772" lon="23.36299"><ele>2740.5</ele><time>2026-03-02T10:20:34.000Z</time></trkpt>
<trkpt lat="42.173773" lon="23.362988"><ele>2740.7</ele><time>2026-03-02T10:20:35.000Z</time></trkpt>
<trkpt lat="42.173772" lon="23.362986"><ele>2740.7</ele><time>2026-03-02T10:20:36.000Z</time></trkpt>
<trkpt lat="42.173773" lon="23.362986"><ele>2740.7</ele><time>2026-03-02T10:20:37.000Z</time></trkpt>
<trkpt lat="42.173773" lon="23.362986"><ele>2740.7</ele><time>2026-03-02T10:20:38.000Z</time></trkpt>
<trkpt lat="42.173773" lon="23.362987"><ele>2740.7</ele><time>2026-03-02T10:20:39.000Z</time></trkpt>
<trkpt lat="42.173774" lon="23.362989"><ele>2740.7</ele><time>2026-03-02T10:20:40.000Z</time></trkpt>
<trkpt lat="42.173775" lon="23.36299"><ele>2740.7</ele><time>2026-03-02T10:20:41.000Z</time></trkpt>
<trkpt lat="42.173776" lon="23.362991"><ele>2740.7</ele><time>2026-03-02T10:20:42.000Z</time></trkpt>
<trkpt lat="42.173777" lon="23.362992"><ele>2740.7</ele><time>2026-03-02T10:20:43.000Z</time></trkpt>
<trkpt lat="42.173777" lon="23.362992"><ele>2740.7</ele><time>2026-03-02T10:20:44.000Z</time></trkpt>
<trkpt lat="42.173777" lon="23.362992"><ele>2740.6</ele><time>2026-03-02T10:20:45.000Z</time></trkpt>
<trkpt lat="42.173777" lon="23.362992"><ele>2740.6</ele><time>2026-03-02T10:20:46.000Z</time></trkpt>
<trkpt lat="42.173777" lon="23.362992"><ele>2740.6</ele><time>2026-03-02T10:20:47.000Z</time></trkpt>
<trkpt lat="42.173777" lon="23.362992"><ele>2740.6</ele><time>2026-03-02T10:20:48.000Z</time></trkpt>
<trkpt lat="42.173777" lon="23.362992"><ele>2740.6</ele><time>2026-03-02T10:20:49.000Z</time></trkpt>
<trkpt lat="42.173777" lon="23.362992"><ele>2740.4</ele><time>2026-03-02T10:20:50.000Z</time></trkpt>
<trkpt lat="42.173777" lon="23.362992"><ele>2740.4</ele><time>2026-03-02T10:20:51.000Z</time></trkpt>
<trkpt lat="42.173777" lon="23.362992"><ele>2740.4</ele><time>2026-03-02T10:20:52.000Z</time></trkpt>
<trkpt lat="42.173777" lon="23.362992"><ele>2740.4</ele><time>2026-03-02T10:20:53.000Z</time></trkpt>
<trkpt lat="42.173777" lon="23.362992"><ele>2740.4</ele><time>2026-03-02T10:20:54.000Z</time></trkpt>
<trkpt lat="42.173777" lon="23.362992"><ele>2740.3</ele><time>2026-03-02T10:20:55.000Z</time></trkpt>
<trkpt lat="42.173777" lon="23.362992"><ele>2740.3</ele><time>2026-03-02T10:20:56.000Z</time></trkpt>
<trkpt lat="42.173777" lon="23.362992"><ele>2740.3</ele><time>2026-03-02T10:20:57.000Z</time></trkpt>
<trkpt lat="42.173777" lon="23.362992"><ele>2740.3</ele><time>2026-03-02T10:20:58.000Z</time></trkpt>
<trkpt lat="42.173777" lon="23.362992"><ele>2740.3</ele><time>2026-03-02T10:20:59.000Z</time></trkpt>
<trkpt lat="42.173777" lon="23.362992"><ele>2740.5</ele><time>2026-03-02T10:21:00.000Z</time></trkpt>
<trkpt lat="42.173777" lon="23.362992"><ele>2740.5</ele><time>2026-03-02T10:21:01.000Z</time></trkpt>
<trkpt lat="42.173777" lon="23.362992"><ele>2740.5</ele><time>2026-03-02T10:21:02.000Z</time></trkpt>
<trkpt lat="42.173777" lon="23.362992"><ele>2740.5</ele><time>2026-03-02T10:21:03.000Z</time></trkpt>
<trkpt lat="42.173777" lon="23.362992"><ele>2740.5</ele><time>2026-03-02T10:21:04.000Z</time></trkpt>
<trkpt lat="42.173777" lon="23.362992"><ele>2740.7</ele><time>2026-03-02T10:21:05.000Z</time></trkpt>
<trkpt lat="42.173777" lon="23.362992"><ele>2740.7</ele><time>2026-03-02T10:21:06.000Z</time></trkpt>
<trkpt lat="42.173777" lon="23.362992"><ele>2740.7</ele><time>2026-03-02T10:21:07.000Z</time></trkpt>
<trkpt lat="42.173777" lon="23.362992"><ele>2740.7</ele><time>2026-03-02T10:21:08.000Z</time></trkpt>
<trkpt lat="42.173777" lon="23.362992"><ele>2740.7</ele><time>2026-03-02T10:21:09.000Z</time></trkpt>
<trkpt lat="42.173777" lon="23.362992"><ele>2740.8</ele><time>2026-03-02T10:21:10.000Z</time></trkpt>
<trkpt lat="42.173777" lon="23.362992"><ele>2740.8</ele><time>2026-03-02T10:21:11.000Z</time></trkpt>
<trkpt lat="42.173777" lon="23.362992"><ele>2740.8</ele><time>2026-03-02T10:21:12.000Z</time></trkpt>
<trkpt lat="42.173777" lon="23.362992"><ele>2740.8</ele><time>2026-03-02T10:21:13.000Z</time></trkpt>
<trkpt lat="42.173777" lon="23.362992"><ele>2740.8</ele><time>2026-03-02T10:21:14.000Z</time></trkpt>
<trkpt lat="42.173777" lon="23.362992"><ele>2740.8</ele><time>2026-03-02T10:21:15.000Z</time></trkpt>
<trkpt lat="42.173777" lon="23.362992"><ele>2740.8</ele><time>2026-03-02T10:21:16.000Z</time></trkpt>
<trkpt lat="42.173777" lon="23.362992"><ele>2740.8</ele><time>2026-03-02T10:21:17.000Z</time></trkpt>
<trkpt lat="42.173777" lon="23.362992"><ele>2740.8</ele><time>2026-03-02T10:21:18.000Z</time></trkpt>
<trkpt lat="42.173777" lon="23.362992"><ele>2740.8</ele><time>2026-03-02T10:21:19.000Z</time></trkpt>
<trkpt lat="42.173777" lon="23.362992"><ele>2740.8</ele><time>2026-03-02T10:21:20.000Z</time></trkpt>
<trkpt lat="42.173777" lon="23.362992"><ele>2740.8</ele><time>2026-03-02T10:21:21.000Z</time></trkpt>
<trkpt lat="42.173777" lon="23.362992"><ele>2740.8</ele><time>2026-03-02T10:21:22.000Z</time></trkpt>
<trkpt lat="42.173777" lon="23.362992"><ele>2740.8</ele><time>2026-03-02T10:21:23.000Z</time></trkpt>
<trkpt lat="42.173777" lon="23.362992"><ele>2740.8</ele><time>2026-03-02T10:21:24.000Z</time></trkpt>
<trkpt lat="42.173777" lon="23.362992"><ele>2740.8</ele><time>2026-03-02T10:21:25.000Z</time></trkpt>
<trkpt lat="42.173777" lon="23.362992"><ele>2740.8</ele><time>2026-03-02T10:21:26.000Z</time></trkpt>
<trkpt lat="42.173777" lon="23.362992"><ele>2740.8</ele><time>2026-03-02T10:21:27.000Z</time></trkpt>
<trkpt lat="42.173777" lon="23.362992"><ele>2740.8</ele><time>2026-03-02T10:21:28.000Z</time></trkpt>
<trkpt lat="42.173777" lon="23.362992"><ele>2740.8</ele><time>2026-03-02T10:21:29.000Z</time></trkpt>
<trkpt lat="42.173777" lon="23.362992"><ele>2740.9</ele><time>2026-03-02T10:21:30.000Z</time></trkpt>
<trkpt lat="42.173777" lon="23.362993"><ele>2740.9</ele><time>2026-03-02T10:21:31.000Z</time></trkpt>
<trkpt lat="42.173777" lon="23.362993"><ele>2740.9</ele><time>2026-03-02T10:21:32.000Z</time></trkpt>
<trkpt lat="42.173776" lon="23.362993"><ele>2740.9</ele><time>2026-03-02T10:21:33.000Z</time></trkpt>
<trkpt lat="42.173776" lon="23.362993"><ele>2740.9</ele><time>2026-03-02T10:21:34.000Z</time></trkpt>
<trkpt lat="42.173777" lon="23.362993"><ele>2740.9</ele><time>2026-03-02T10:21:35.000Z</time></trkpt>
<trkpt lat="42.173777" lon="23.362993"><ele>2740.9</ele><time>2026-03-02T10:21:36.000Z</time></trkpt>
<trkpt lat="42.173777" lon="23.362994"><ele>2740.9</ele><time>2026-03-02T10:21:37.000Z</time></trkpt>
<trkpt lat="42.173778" lon="23.362994"><ele>2740.9</ele><time>2026-03-02T10:21:38.000Z</time></trkpt>
<trkpt lat="42.173778" lon="23.362994"><ele>2740.9</ele><time>2026-03-02T10:21:39.000Z</time></trkpt>
<trkpt lat="42.173778" lon="23.362995"><ele>2740.9</ele><time>2026-03-02T10:21:40.000Z</time></trkpt>
<trkpt lat="42.173778" lon="23.362997"><ele>2740.9</ele><time>2026-03-02T10:21:41.000Z</time></trkpt>
<trkpt lat="42.173778" lon="23.362998"><ele>2740.9</ele><time>2026-03-02T10:21:42.000Z</time></trkpt>
<trkpt lat="42.173777" lon="23.362999"><ele>2740.9</ele><time>2026-03-02T10:21:43.000Z</time></trkpt>
<trkpt lat="42.173777" lon="23.363"><ele>2740.9</ele><time>2026-03-02T10:21:44.000Z</time></trkpt>
<trkpt lat="42.173777" lon="23.363001"><ele>2741</ele><time>2026-03-02T10:21:45.000Z</time></trkpt>
<trkpt lat="42.173777" lon="23.363001"><ele>2741</ele><time>2026-03-02T10:21:46.000Z</time></trkpt>
<trkpt lat="42.173777" lon="23.363001"><ele>2741</ele><time>2026-03-02T10:21:47.000Z</time></trkpt>
<trkpt lat="42.173777" lon="23.363001"><ele>2741</ele><time>2026-03-02T10:21:48.000Z</time></trkpt>
<trkpt lat="42.173777" lon="23.363001"><ele>2741</ele><time>2026-03-02T10:21:49.000Z</time></trkpt>
<trkpt lat="42.173777" lon="23.363"><ele>2741</ele><time>2026-03-02T10:21:50.000Z</time></trkpt>
<trkpt lat="42.173776" lon="23.363"><ele>2741</ele><time>2026-03-02T10:21:51.000Z</time></trkpt>
<trkpt lat="42.173776" lon="23.363"><ele>2741</ele><time>2026-03-02T10:21:52.000Z</time></trkpt>
<trkpt lat="42.173776" lon="23.362999"><ele>2741</ele><time>2026-03-02T10:21:53.000Z</time></trkpt>
<trkpt lat="42.173776" lon="23.362999"><ele>2741</ele><time>2026-03-02T10:21:54.000Z</time></trkpt>
<trkpt lat="42.173776" lon="23.362999"><ele>2741</ele><time>2026-03-02T10:21:55.000Z</time></trkpt>
<trkpt lat="42.173776" lon="23.362999"><ele>2741</ele><time>2026-03-02T10:21:56.000Z</time></trkpt>
<trkpt lat="42.173776" lon="23.362998"><ele>2741</ele><time>2026-03-02T10:21:57.000Z</time></trkpt>
<trkpt lat="42.173776" lon="23.362998"><ele>2741</ele><time>2026-03-02T10:21:58.000Z</time></trkpt>
<trkpt lat="42.173776" lon="23.362998"><ele>2741</ele><time>2026-03-02T10:21:59.000Z</time></trkpt>
<trkpt lat="42.173776" lon="23.362998"><ele>2740.8</ele><time>2026-03-02T10:22:00.000Z</time></trkpt>
<trkpt lat="42.173776" lon="23.362998"><ele>2740.8</ele><time>2026-03-02T10:22:01.000Z</time></trkpt>
<trkpt lat="42.173776" lon="23.362998"><ele>2740.8</ele><time>2026-03-02T10:22:02.000Z</time></trkpt>
<trkpt lat="42.173776" lon="23.362998"><ele>2740.8</ele><time>2026-03-02T10:22:03.000Z</time></trkpt>
<trkpt lat="42.173777" lon="23.362999"><ele>2740.8</ele><time>2026-03-02T10:22:04.000Z</time></trkpt>
<trkpt lat="42.173777" lon="23.363"><ele>2740.6</ele><time>2026-03-02T10:22:05.000Z</time></trkpt>
<trkpt lat="42.173778" lon="23.363"><ele>2740.6</ele><time>2026-03-02T10:22:06.000Z</time></trkpt>
<trkpt lat="42.173779" lon="23.363001"><ele>2740.6</ele><time>2026-03-02T10:22:07.000Z</time></trkpt>
<trkpt lat="42.17378" lon="23.363002"><ele>2740.6</ele><time>2026-03-02T10:22:08.000Z</time></trkpt>
<trkpt lat="42.17378" lon="23.363002"><ele>2740.6</ele><time>2026-03-02T10:22:09.000Z</time></trkpt>
<trkpt lat="42.173781" lon="23.363001"><ele>2740.5</ele><time>2026-03-02T10:22:10.000Z</time></trkpt>
<trkpt lat="42.173782" lon="23.363001"><ele>2740.5</ele><time>2026-03-02T10:22:11.000Z</time></trkpt>
<trkpt lat="42.173782" lon="23.363002"><ele>2740.5</ele><time>2026-03-02T10:22:12.000Z</time></trkpt>
<trkpt lat="42.173782" lon="23.363002"><ele>2740.5</ele><time>2026-03-02T10:22:13.000Z</time></trkpt>
<trkpt lat="42.173782" lon="23.363002"><ele>2740.5</ele><time>2026-03-02T10:22:14.000Z</time></trkpt>
<trkpt lat="42.173782" lon="23.363002"><ele>2740.4</ele><time>2026-03-02T10:22:15.000Z</time></trkpt>
<trkpt lat="42.173782" lon="23.363002"><ele>2740.4</ele><time>2026-03-02T10:22:16.000Z</time></trkpt>
<trkpt lat="42.173782" lon="23.363002"><ele>2740.4</ele><time>2026-03-02T10:22:17.000Z</time></trkpt>
<trkpt lat="42.173782" lon="23.363002"><ele>2740.4</ele><time>2026-03-02T10:22:18.000Z</time></trkpt>
<trkpt lat="42.173782" lon="23.363002"><ele>2740.4</ele><time>2026-03-02T10:22:19.000Z</time></trkpt>
<trkpt lat="42.173783" lon="23.363001"><ele>2740.4</ele><time>2026-03-02T10:22:20.000Z</time></trkpt>
<trkpt lat="42.173785" lon="23.363001"><ele>2740.4</ele><time>2026-03-02T10:22:21.000Z</time></trkpt>
<trkpt lat="42.173788" lon="23.363002"><ele>2740.4</ele><time>2026-03-02T10:22:22.000Z</time></trkpt>
<trkpt lat="42.17379" lon="23.363002"><ele>2740.4</ele><time>2026-03-02T10:22:23.000Z</time></trkpt>
<trkpt lat="42.173793" lon="23.363003"><ele>2740.4</ele><time>2026-03-02T10:22:24.000Z</time></trkpt>
<trkpt lat="42.173795" lon="23.363003"><ele>2740.4</ele><time>2026-03-02T10:22:25.000Z</time></trkpt>
<trkpt lat="42.173796" lon="23.363002"><ele>2740.4</ele><time>2026-03-02T10:22:26.000Z</time></trkpt>
<trkpt lat="42.173796" lon="23.363"><ele>2740.4</ele><time>2026-03-02T10:22:27.000Z</time></trkpt>
<trkpt lat="42.173797" lon="23.362998"><ele>2740.4</ele><time>2026-03-02T10:22:28.000Z</time></trkpt>
<trkpt lat="42.173797" lon="23.362996"><ele>2740.4</ele><time>2026-03-02T10:22:29.000Z</time></trkpt>
<trkpt lat="42.173798" lon="23.362995"><ele>2740.4</ele><time>2026-03-02T10:22:30.000Z</time></trkpt>
<trkpt lat="42.173798" lon="23.362995"><ele>2740.4</ele><time>2026-03-02T10:22:31.000Z</time></trkpt>
<trkpt lat="42.173799" lon="23.362995"><ele>2740.4</ele><time>2026-03-02T10:22:32.000Z</time></trkpt>
<trkpt lat="42.1738" lon="23.362995"><ele>2740.4</ele><time>2026-03-02T10:22:33.000Z</time></trkpt>
<trkpt lat="42.1738" lon="23.362995"><ele>2740.4</ele><time>2026-03-02T10:22:34.000Z</time></trkpt>
<trkpt lat="42.1738" lon="23.362996"><ele>2740.3</ele><time>2026-03-02T10:22:35.000Z</time></trkpt>
<trkpt lat="42.173799" lon="23.362996"><ele>2740.3</ele><time>2026-03-02T10:22:36.000Z</time></trkpt>
<trkpt lat="42.173799" lon="23.362997"><ele>2740.3</ele><time>2026-03-02T10:22:37.000Z</time></trkpt>
<trkpt lat="42.173798" lon="23.362998"><ele>2740.3</ele><time>2026-03-02T10:22:38.000Z</time></trkpt>
<trkpt lat="42.173798" lon="23.362998"><ele>2740.3</ele><time>2026-03-02T10:22:39.000Z</time></trkpt>
<trkpt lat="42.173797" lon="23.362998"><ele>2740.3</ele><time>2026-03-02T10:22:40.000Z</time></trkpt>
<trkpt lat="42.173797" lon="23.362998"><ele>2740.3</ele><time>2026-03-02T10:22:41.000Z</time></trkpt>
<trkpt lat="42.173796" lon="23.362998"><ele>2740.3</ele><time>2026-03-02T10:22:42.000Z</time></trkpt>
<trkpt lat="42.173796" lon="23.362998"><ele>2740.3</ele><time>2026-03-02T10:22:43.000Z</time></trkpt>
<trkpt lat="42.173795" lon="23.362998"><ele>2740.3</ele><time>2026-03-02T10:22:44.000Z</time></trkpt>
<trkpt lat="42.173795" lon="23.362997"><ele>2740.3</ele><time>2026-03-02T10:22:45.000Z</time></trkpt>
<trkpt lat="42.173794" lon="23.362997"><ele>2740.3</ele><time>2026-03-02T10:22:46.000Z</time></trkpt>
<trkpt lat="42.173794" lon="23.362996"><ele>2740.3</ele><time>2026-03-02T10:22:47.000Z</time></trkpt>
<trkpt lat="42.173793" lon="23.362997"><ele>2740.3</ele><time>2026-03-02T10:22:48.000Z</time></trkpt>
<trkpt lat="42.173793" lon="23.362999"><ele>2740.3</ele><time>2026-03-02T10:22:49.000Z</time></trkpt>
<trkpt lat="42.173793" lon="23.363001"><ele>2740.2</ele><time>2026-03-02T10:22:50.000Z</time></trkpt>
<trkpt lat="42.173793" lon="23.363002"><ele>2740.2</ele><time>2026-03-02T10:22:51.000Z</time></trkpt>
<trkpt lat="42.173794" lon="23.363004"><ele>2740.2</ele><time>2026-03-02T10:22:52.000Z</time></trkpt>
<trkpt lat="42.173794" lon="23.363004"><ele>2740.2</ele><time>2026-03-02T10:22:53.000Z</time></trkpt>
<trkpt lat="42.173795" lon="23.363005"><ele>2740.2</ele><time>2026-03-02T10:22:54.000Z</time></trkpt>
<trkpt lat="42.173795" lon="23.363005"><ele>2740.2</ele><time>2026-03-02T10:22:55.000Z</time></trkpt>
<trkpt lat="42.173795" lon="23.363005"><ele>2740.2</ele><time>2026-03-02T10:22:56.000Z</time></trkpt>
<trkpt lat="42.173795" lon="23.363005"><ele>2740.2</ele><time>2026-03-02T10:22:57.000Z</time></trkpt>
<trkpt lat="42.173795" lon="23.363005"><ele>2740.2</ele><time>2026-03-02T10:22:58.000Z</time></trkpt>
<trkpt lat="42.173795" lon="23.363004"><ele>2740.2</ele><time>2026-03-02T10:22:59.000Z</time></trkpt>
<trkpt lat="42.173795" lon="23.363004"><ele>2740.2</ele><time>2026-03-02T10:23:00.000Z</time></trkpt>
<trkpt lat="42.173795" lon="23.363005"><ele>2740.2</ele><time>2026-03-02T10:23:01.000Z</time></trkpt>
<trkpt lat="42.173795" lon="23.363005"><ele>2740.2</ele><time>2026-03-02T10:23:02.000Z</time></trkpt>
<trkpt lat="42.173796" lon="23.363005"><ele>2740.2</ele><time>2026-03-02T10:23:03.000Z</time></trkpt>
<trkpt lat="42.173796" lon="23.363005"><ele>2740.2</ele><time>2026-03-02T10:23:04.000Z</time></trkpt>
<trkpt lat="42.173796" lon="23.363005"><ele>2740.3</ele><time>2026-03-02T10:23:05.000Z</time></trkpt>
<trkpt lat="42.173796" lon="23.363006"><ele>2740.3</ele><time>2026-03-02T10:23:06.000Z</time></trkpt>
<trkpt lat="42.173796" lon="23.363006"><ele>2740.3</ele><time>2026-03-02T10:23:07.000Z</time></trkpt>
<trkpt lat="42.173796" lon="23.363006"><ele>2740.3</ele><time>2026-03-02T10:23:08.000Z</time></trkpt>
<trkpt lat="42.173796" lon="23.363006"><ele>2740.3</ele><time>2026-03-02T10:23:09.000Z</time></trkpt>
<trkpt lat="42.173796" lon="23.363006"><ele>2740.3</ele><time>2026-03-02T10:23:10.000Z</time></trkpt>
<trkpt lat="42.173796" lon="23.363006"><ele>2740.3</ele><time>2026-03-02T10:23:11.000Z</time></trkpt>
<trkpt lat="42.173796" lon="23.363006"><ele>2740.3</ele><time>2026-03-02T10:23:12.000Z</time></trkpt>
<trkpt lat="42.173796" lon="23.363006"><ele>2740.3</ele><time>2026-03-02T10:23:13.000Z</time></trkpt>
<trkpt lat="42.173796" lon="23.363006"><ele>2740.3</ele><time>2026-03-02T10:23:14.000Z</time></trkpt>
<trkpt lat="42.173796" lon="23.363006"><ele>2740.3</ele><time>2026-03-02T10:23:15.000Z</time></trkpt>
<trkpt lat="42.173796" lon="23.363006"><ele>2740.3</ele><time>2026-03-02T10:23:16.000Z</time></trkpt>
<trkpt lat="42.173796" lon="23.363006"><ele>2740.3</ele><time>2026-03-02T10:23:17.000Z</time></trkpt>
<trkpt lat="42.173796" lon="23.363006"><ele>2740.3</ele><time>2026-03-02T10:23:18.000Z</time></trkpt>
<trkpt lat="42.173796" lon="23.363006"><ele>2740.3</ele><time>2026-03-02T10:23:19.000Z</time></trkpt>
<trkpt lat="42.173797" lon="23.363006"><ele>2740.2</ele><time>2026-03-02T10:23:20.000Z</time></trkpt>
<trkpt lat="42.173799" lon="23.363006"><ele>2740.2</ele><time>2026-03-02T10:23:21.000Z</time></trkpt>
<trkpt lat="42.1738" lon="23.363007"><ele>2740.2</ele><time>2026-03-02T10:23:22.000Z</time></trkpt>
<trkpt lat="42.173801" lon="23.363008"><ele>2740.2</ele><time>2026-03-02T10:23:23.000Z</time></trkpt>
<trkpt lat="42.173801" lon="23.363008"><ele>2740.2</ele><time>2026-03-02T10:23:24.000Z</time></trkpt>
<trkpt lat="42.1738" lon="23.363009"><ele>2740.2</ele><time>2026-03-02T10:23:25.000Z</time></trkpt>
<trkpt lat="42.173798" lon="23.363009"><ele>2740.2</ele><time>2026-03-02T10:23:26.000Z</time></trkpt>
<trkpt lat="42.173797" lon="23.363008"><ele>2740.2</ele><time>2026-03-02T10:23:27.000Z</time></trkpt>
<trkpt lat="42.173795" lon="23.363008"><ele>2740.2</ele><time>2026-03-02T10:23:28.000Z</time></trkpt>
<trkpt lat="42.173794" lon="23.363008"><ele>2740.2</ele><time>2026-03-02T10:23:29.000Z</time></trkpt>
<trkpt lat="42.173794" lon="23.363008"><ele>2740.2</ele><time>2026-03-02T10:23:30.000Z</time></trkpt>
<trkpt lat="42.173794" lon="23.363008"><ele>2740.2</ele><time>2026-03-02T10:23:31.000Z</time></trkpt>
<trkpt lat="42.173794" lon="23.363008"><ele>2740.2</ele><time>2026-03-02T10:23:32.000Z</time></trkpt>
<trkpt lat="42.173794" lon="23.363008"><ele>2740.2</ele><time>2026-03-02T10:23:33.000Z</time></trkpt>
<trkpt lat="42.173794" lon="23.363008"><ele>2740.2</ele><time>2026-03-02T10:23:34.000Z</time></trkpt>
<trkpt lat="42.173794" lon="23.363008"><ele>2740.1</ele><time>2026-03-02T10:23:35.000Z</time></trkpt>
<trkpt lat="42.173794" lon="23.363008"><ele>2740.1</ele><time>2026-03-02T10:23:36.000Z</time></trkpt>
<trkpt lat="42.173794" lon="23.363008"><ele>2740.1</ele><time>2026-03-02T10:23:37.000Z</time></trkpt>
<trkpt lat="42.173794" lon="23.363009"><ele>2740.1</ele><time>2026-03-02T10:23:38.000Z</time></trkpt>
<trkpt lat="42.173794" lon="23.363009"><ele>2740.1</ele><time>2026-03-02T10:23:39.000Z</time></trkpt>
<trkpt lat="42.173794" lon="23.363009"><ele>2740.1</ele><time>2026-03-02T10:23:40.000Z</time></trkpt>
<trkpt lat="42.173794" lon="23.36301"><ele>2740.1</ele><time>2026-03-02T10:23:41.000Z</time></trkpt>
<trkpt lat="42.173794" lon="23.36301"><ele>2740.1</ele><time>2026-03-02T10:23:42.000Z</time></trkpt>
<trkpt lat="42.173794" lon="23.363009"><ele>2740.1</ele><time>2026-03-02T10:23:43.000Z</time></trkpt>
<trkpt lat="42.173794" lon="23.363009"><ele>2740.1</ele><time>2026-03-02T10:23:44.000Z</time></trkpt>
<trkpt lat="42.173792" lon="23.363007"><ele>2740.1</ele><time>2026-03-02T10:23:45.000Z</time></trkpt>
<trkpt lat="42.17379" lon="23.363003"><ele>2740.1</ele><time>2026-03-02T10:23:46.000Z</time></trkpt>
<trkpt lat="42.173786" lon="23.362998"><ele>2740.1</ele><time>2026-03-02T10:23:47.000Z</time></trkpt>
<trkpt lat="42.173781" lon="23.362992"><ele>2740.1</ele><time>2026-03-02T10:23:48.000Z</time></trkpt>
<trkpt lat="42.173776" lon="23.362983"><ele>2740.1</ele><time>2026-03-02T10:23:49.000Z</time></trkpt>
<trkpt lat="42.17377" lon="23.362973"><ele>2740</ele><time>2026-03-02T10:23:50.000Z</time></trkpt>
<trkpt lat="42.173765" lon="23.362963"><ele>2740</ele><time>2026-03-02T10:23:51.000Z</time></trkpt>
<trkpt lat="42.17376" lon="23.362952"><ele>2740</ele><time>2026-03-02T10:23:52.000Z</time></trkpt>
<trkpt lat="42.173753" lon="23.362941"><ele>2740</ele><time>2026-03-02T10:23:53.000Z</time></trkpt>
<trkpt lat="42.173746" lon="23.362929"><ele>2740</ele><time>2026-03-02T10:23:54.000Z</time></trkpt>
<trkpt lat="42.17374" lon="23.362919"><ele>2740</ele><time>2026-03-02T10:23:55.000Z</time></trkpt>
<trkpt lat="42.173732" lon="23.362908"><ele>2740</ele><time>2026-03-02T10:23:56.000Z</time></trkpt>
<trkpt lat="42.173725" lon="23.362899"><ele>2740</ele><time>2026-03-02T10:23:57.000Z</time></trkpt>
<trkpt lat="42.173717" lon="23.362891"><ele>2740</ele><time>2026-03-02T10:23:58.000Z</time></trkpt>
<trkpt lat="42.173709" lon="23.362883"><ele>2740</ele><time>2026-03-02T10:23:59.000Z</time></trkpt>
<trkpt lat="42.173701" lon="23.362876"><ele>2739.8</ele><time>2026-03-02T10:24:00.000Z</time></trkpt>
<trkpt lat="42.173693" lon="23.362868"><ele>2739.8</ele><time>2026-03-02T10:24:01.000Z</time></trkpt>
<trkpt lat="42.173686" lon="23.362859"><ele>2739.8</ele><time>2026-03-02T10:24:02.000Z</time></trkpt>
<trkpt lat="42.173679" lon="23.36285"><ele>2739.8</ele><time>2026-03-02T10:24:03.000Z</time></trkpt>
<trkpt lat="42.173672" lon="23.362841"><ele>2739.8</ele><time>2026-03-02T10:24:04.000Z</time></trkpt>
<trkpt lat="42.173667" lon="23.362831"><ele>2739.6</ele><time>2026-03-02T10:24:05.000Z</time></trkpt>
<trkpt lat="42.173662" lon="23.362822"><ele>2739.6</ele><time>2026-03-02T10:24:06.000Z</time></trkpt>
<trkpt lat="42.173655" lon="23.362813"><ele>2739.6</ele><time>2026-03-02T10:24:07.000Z</time></trkpt>
<trkpt lat="42.173649" lon="23.362805"><ele>2739.6</ele><time>2026-03-02T10:24:08.000Z</time></trkpt>
<trkpt lat="42.173641" lon="23.362798"><ele>2739.6</ele><time>2026-03-02T10:24:09.000Z</time></trkpt>
<trkpt lat="42.173631" lon="23.362791"><ele>2739.4</ele><time>2026-03-02T10:24:10.000Z</time></trkpt>
<trkpt lat="42.173621" lon="23.362784"><ele>2739.4</ele><time>2026-03-02T10:24:11.000Z</time></trkpt>
<trkpt lat="42.173611" lon="23.362776"><ele>2739.4</ele><time>2026-03-02T10:24:12.000Z</time></trkpt>
<trkpt lat="42.173601" lon="23.362768"><ele>2739.4</ele><time>2026-03-02T10:24:13.000Z</time></trkpt>
<trkpt lat="42.173592" lon="23.362761"><ele>2739.4</ele><time>2026-03-02T10:24:14.000Z</time></trkpt>
<trkpt lat="42.173583" lon="23.362754"><ele>2738.8</ele><time>2026-03-02T10:24:15.000Z</time></trkpt>
<trkpt lat="42.173575" lon="23.362747"><ele>2738.8</ele><time>2026-03-02T10:24:16.000Z</time></trkpt>
<trkpt lat="42.173567" lon="23.362741"><ele>2738.8</ele><time>2026-03-02T10:24:17.000Z</time></trkpt>
<trkpt lat="42.17356" lon="23.362735"><ele>2738.8</ele><time>2026-03-02T10:24:18.000Z</time></trkpt>
<trkpt lat="42.173553" lon="23.362729"><ele>2738.8</ele><time>2026-03-02T10:24:19.000Z</time></trkpt>
<trkpt lat="42.173545" lon="23.362721"><ele>2738.1</ele><time>2026-03-02T10:24:20.000Z</time></trkpt>
<trkpt lat="42.173538" lon="23.362714"><ele>2738.1</ele><time>2026-03-02T10:24:21.000Z</time></trkpt>
<trkpt lat="42.17353" lon="23.362707"><ele>2738.1</ele><time>2026-03-02T10:24:22.000Z</time></trkpt>
<trkpt lat="42.173521" lon="23.3627"><ele>2738.1</ele><time>2026-03-02T10:24:23.000Z</time></trkpt>
<trkpt lat="42.173514" lon="23.362694"><ele>2738.1</ele><time>2026-03-02T10:24:24.000Z</time></trkpt>
<trkpt lat="42.173506" lon="23.362688"><ele>2737.8</ele><time>2026-03-02T10:24:25.000Z</time></trkpt>
<trkpt lat="42.173498" lon="23.362681"><ele>2737.8</ele><time>2026-03-02T10:24:26.000Z</time></trkpt>
<trkpt lat="42.173489" lon="23.362674"><ele>2737.8</ele><time>2026-03-02T10:24:27.000Z</time></trkpt>
<trkpt lat="42.17348" lon="23.362667"><ele>2737.8</ele><time>2026-03-02T10:24:28.000Z</time></trkpt>
<trkpt lat="42.17347" lon="23.362659"><ele>2737.8</ele><time>2026-03-02T10:24:29.000Z</time></trkpt>
<trkpt lat="42.17346" lon="23.362651"><ele>2737.3</ele><time>2026-03-02T10:24:30.000Z</time></trkpt>
<trkpt lat="42.17345" lon="23.362644"><ele>2737.3</ele><time>2026-03-02T10:24:31.000Z</time></trkpt>
<trkpt lat="42.173441" lon="23.362638"><ele>2737.3</ele><time>2026-03-02T10:24:32.000Z</time></trkpt>
<trkpt lat="42.173431" lon="23.362631"><ele>2737.3</ele><time>2026-03-02T10:24:33.000Z</time></trkpt>
<trkpt lat="42.173423" lon="23.362624"><ele>2737.3</ele><time>2026-03-02T10:24:34.000Z</time></trkpt>
<trkpt lat="42.173414" lon="23.362618"><ele>2736.8</ele><time>2026-03-02T10:24:35.000Z</time></trkpt>
<trkpt lat="42.173406" lon="23.36261"><ele>2736.8</ele><time>2026-03-02T10:24:36.000Z</time></trkpt>
<trkpt lat="42.173397" lon="23.362602"><ele>2736.8</ele><time>2026-03-02T10:24:37.000Z</time></trkpt>
<trkpt lat="42.173388" lon="23.362594"><ele>2736.8</ele><time>2026-03-02T10:24:38.000Z</time></trkpt>
<trkpt lat="42.173378" lon="23.362587"><ele>2736.8</ele><time>2026-03-02T10:24:39.000Z</time></trkpt>
<trkpt lat="42.173368" lon="23.362579"><ele>2736.5</ele><time>2026-03-02T10:24:40.000Z</time></trkpt>
<trkpt lat="42.173359" lon="23.362572"><ele>2736.5</ele><time>2026-03-02T10:24:41.000Z</time></trkpt>
<trkpt lat="42.173349" lon="23.362565"><ele>2736.5</ele><time>2026-03-02T10:24:42.000Z</time></trkpt>
<trkpt lat="42.17334" lon="23.36256"><ele>2736.5</ele><time>2026-03-02T10:24:43.000Z</time></trkpt>
<trkpt lat="42.17333" lon="23.362555"><ele>2736.5</ele><time>2026-03-02T10:24:44.000Z</time></trkpt>
<trkpt lat="42.173321" lon="23.36255"><ele>2735.8</ele><time>2026-03-02T10:24:45.000Z</time></trkpt>
<trkpt lat="42.173312" lon="23.362546"><ele>2735.8</ele><time>2026-03-02T10:24:46.000Z</time></trkpt>
<trkpt lat="42.173303" lon="23.362542"><ele>2735.8</ele><time>2026-03-02T10:24:47.000Z</time></trkpt>
<trkpt lat="42.173294" lon="23.362537"><ele>2735.8</ele><time>2026-03-02T10:24:48.000Z</time></trkpt>
<trkpt lat="42.173284" lon="23.362533"><ele>2735.8</ele><time>2026-03-02T10:24:49.000Z</time></trkpt>
<trkpt lat="42.173275" lon="23.362531"><ele>2734.9</ele><time>2026-03-02T10:24:50.000Z</time></trkpt>
<trkpt lat="42.173265" lon="23.362529"><ele>2734.9</ele><time>2026-03-02T10:24:51.000Z</time></trkpt>
<trkpt lat="42.173255" lon="23.362527"><ele>2734.9</ele><time>2026-03-02T10:24:52.000Z</time></trkpt>
<trkpt lat="42.173246" lon="23.362526"><ele>2734.9</ele><time>2026-03-02T10:24:53.000Z</time></trkpt>
<trkpt lat="42.173237" lon="23.362523"><ele>2734.9</ele><time>2026-03-02T10:24:54.000Z</time></trkpt>
<trkpt lat="42.173227" lon="23.362521"><ele>2734.5</ele><time>2026-03-02T10:24:55.000Z</time></trkpt>
<trkpt lat="42.173218" lon="23.362518"><ele>2734.5</ele><time>2026-03-02T10:24:56.000Z</time></trkpt>
<trkpt lat="42.173209" lon="23.362515"><ele>2734.5</ele><time>2026-03-02T10:24:57.000Z</time></trkpt>
<trkpt lat="42.1732" lon="23.362513"><ele>2734.5</ele><time>2026-03-02T10:24:58.000Z</time></trkpt>
<trkpt lat="42.17319" lon="23.362512"><ele>2734.5</ele><time>2026-03-02T10:24:59.000Z</time></trkpt>
<trkpt lat="42.173181" lon="23.362511"><ele>2733.9</ele><time>2026-03-02T10:25:00.000Z</time></trkpt>
<trkpt lat="42.17317" lon="23.36251"><ele>2733.9</ele><time>2026-03-02T10:25:01.000Z</time></trkpt>
<trkpt lat="42.17316" lon="23.362509"><ele>2733.9</ele><time>2026-03-02T10:25:02.000Z</time></trkpt>
<trkpt lat="42.173149" lon="23.362509"><ele>2733.9</ele><time>2026-03-02T10:25:03.000Z</time></trkpt>
<trkpt lat="42.173137" lon="23.362509"><ele>2733.9</ele><time>2026-03-02T10:25:04.000Z</time></trkpt>
<trkpt lat="42.173125" lon="23.36251"><ele>2733.4</ele><time>2026-03-02T10:25:05.000Z</time></trkpt>
<trkpt lat="42.173114" lon="23.362512"><ele>2733.4</ele><time>2026-03-02T10:25:06.000Z</time></trkpt>
<trkpt lat="42.173102" lon="23.362515"><ele>2733.4</ele><time>2026-03-02T10:25:07.000Z</time></trkpt>
<trkpt lat="42.17309" lon="23.362518"><ele>2733.4</ele><time>2026-03-02T10:25:08.000Z</time></trkpt>
<trkpt lat="42.173078" lon="23.362522"><ele>2733.4</ele><time>2026-03-02T10:25:09.000Z</time></trkpt>
<trkpt lat="42.173066" lon="23.362525"><ele>2733.1</ele><time>2026-03-02T10:25:10.000Z</time></trkpt>
<trkpt lat="42.173054" lon="23.362527"><ele>2733.1</ele><time>2026-03-02T10:25:11.000Z</time></trkpt>
<trkpt lat="42.173042" lon="23.36253"><ele>2733.1</ele><time>2026-03-02T10:25:12.000Z</time></trkpt>
<trkpt lat="42.173031" lon="23.362531"><ele>2733.1</ele><time>2026-03-02T10:25:13.000Z</time></trkpt>
<trkpt lat="42.173021" lon="23.362532"><ele>2733.1</ele><time>2026-03-02T10:25:14.000Z</time></trkpt>
<trkpt lat="42.173012" lon="23.362532"><ele>2732.5</ele><time>2026-03-02T10:25:15.000Z</time></trkpt>
<trkpt lat="42.173003" lon="23.362533"><ele>2732.5</ele><time>2026-03-02T10:25:16.000Z</time></trkpt>
<trkpt lat="42.172995" lon="23.362534"><ele>2732.5</ele><time>2026-03-02T10:25:17.000Z</time></trkpt>
<trkpt lat="42.172986" lon="23.362535"><ele>2732.5</ele><time>2026-03-02T10:25:18.000Z</time></trkpt>
<trkpt lat="42.172977" lon="23.362536"><ele>2732.5</ele><time>2026-03-02T10:25:19.000Z</time></trkpt>
<trkpt lat="42.172967" lon="23.362537"><ele>2731.9</ele><time>2026-03-02T10:25:20.000Z</time></trkpt>
<trkpt lat="42.172957" lon="23.362537"><ele>2731.9</ele><time>2026-03-02T10:25:21.000Z</time></trkpt>
<trkpt lat="42.172947" lon="23.362535"><ele>2731.9</ele><time>2026-03-02T10:25:22.000Z</time></trkpt>
<trkpt lat="42.172937" lon="23.362534"><ele>2731.9</ele><time>2026-03-02T10:25:23.000Z</time></trkpt>
<trkpt lat="42.172928" lon="23.362533"><ele>2731.9</ele><time>2026-03-02T10:25:24.000Z</time></trkpt>
<trkpt lat="42.172919" lon="23.362532"><ele>2731.8</ele><time>2026-03-02T10:25:25.000Z</time></trkpt>
<trkpt lat="42.172911" lon="23.362531"><ele>2731.8</ele><time>2026-03-02T10:25:26.000Z</time></trkpt>
<trkpt lat="42.172902" lon="23.362531"><ele>2731.8</ele><time>2026-03-02T10:25:27.000Z</time></trkpt>
<trkpt lat="42.172892" lon="23.362531"><ele>2731.8</ele><time>2026-03-02T10:25:28.000Z</time></trkpt>
<trkpt lat="42.172882" lon="23.362531"><ele>2731.8</ele><time>2026-03-02T10:25:29.000Z</time></trkpt>
<trkpt lat="42.172871" lon="23.362531"><ele>2731.5</ele><time>2026-03-02T10:25:30.000Z</time></trkpt>
<trkpt lat="42.17286" lon="23.362532"><ele>2731.5</ele><time>2026-03-02T10:25:31.000Z</time></trkpt>
<trkpt lat="42.172849" lon="23.362533"><ele>2731.5</ele><time>2026-03-02T10:25:32.000Z</time></trkpt>
<trkpt lat="42.172838" lon="23.362534"><ele>2731.5</ele><time>2026-03-02T10:25:33.000Z</time></trkpt>
<trkpt lat="42.172827" lon="23.362535"><ele>2731.5</ele><time>2026-03-02T10:25:34.000Z</time></trkpt>
<trkpt lat="42.172816" lon="23.362536"><ele>2731.3</ele><time>2026-03-02T10:25:35.000Z</time></trkpt>
<trkpt lat="42.172804" lon="23.362535"><ele>2731.3</ele><time>2026-03-02T10:25:36.000Z</time></trkpt>
<trkpt lat="42.172792" lon="23.362535"><ele>2731.3</ele><time>2026-03-02T10:25:37.000Z</time></trkpt>
<trkpt lat="42.172781" lon="23.362535"><ele>2731.3</ele><time>2026-03-02T10:25:38.000Z</time></trkpt>
<trkpt lat="42.172769" lon="23.362537"><ele>2731.3</ele><time>2026-03-02T10:25:39.000Z</time></trkpt>
<trkpt lat="42.172758" lon="23.362539"><ele>2731.1</ele><time>2026-03-02T10:25:40.000Z</time></trkpt>
<trkpt lat="42.172746" lon="23.362542"><ele>2731.1</ele><time>2026-03-02T10:25:41.000Z</time></trkpt>
<trkpt lat="42.172734" lon="23.362546"><ele>2731.1</ele><time>2026-03-02T10:25:42.000Z</time></trkpt>
<trkpt lat="42.172723" lon="23.362549"><ele>2731.1</ele><time>2026-03-02T10:25:43.000Z</time></trkpt>
<trkpt lat="42.172712" lon="23.362552"><ele>2731.1</ele><time>2026-03-02T10:25:44.000Z</time></trkpt>
<trkpt lat="42.172701" lon="23.362554"><ele>2730.8</ele><time>2026-03-02T10:25:45.000Z</time></trkpt>
<trkpt lat="42.172689" lon="23.362555"><ele>2730.8</ele><time>2026-03-02T10:25:46.000Z</time></trkpt>
<trkpt lat="42.172677" lon="23.362555"><ele>2730.8</ele><time>2026-03-02T10:25:47.000Z</time></trkpt>
<trkpt lat="42.172665" lon="23.362556"><ele>2730.8</ele><time>2026-03-02T10:25:48.000Z</time></trkpt>
<trkpt lat="42.172651" lon="23.362556"><ele>2730.8</ele><time>2026-03-02T10:25:49.000Z</time></trkpt>
<trkpt lat="42.172638" lon="23.362557"><ele>2730.4</ele><time>2026-03-02T10:25:50.000Z</time></trkpt>
<trkpt lat="42.172625" lon="23.362559"><ele>2730.4</ele><time>2026-03-02T10:25:51.000Z</time></trkpt>
<trkpt lat="42.172612" lon="23.362561"><ele>2730.4</ele><time>2026-03-02T10:25:52.000Z</time></trkpt>
<trkpt lat="42.172599" lon="23.362563"><ele>2730.4</ele><time>2026-03-02T10:25:53.000Z</time></trkpt>
<trkpt lat="42.172586" lon="23.362565"><ele>2730.4</ele><time>2026-03-02T10:25:54.000Z</time></trkpt>
<trkpt lat="42.172573" lon="23.362567"><ele>2730.1</ele><time>2026-03-02T10:25:55.000Z</time></trkpt>
<trkpt lat="42.172559" lon="23.36257"><ele>2730.1</ele><time>2026-03-02T10:25:56.000Z</time></trkpt>
<trkpt lat="42.172546" lon="23.362572"><ele>2730.1</ele><time>2026-03-02T10:25:57.000Z</time></trkpt>
<trkpt lat="42.172533" lon="23.362574"><ele>2730.1</ele><time>2026-03-02T10:25:58.000Z</time></trkpt>
<trkpt lat="42.17252" lon="23.362577"><ele>2730.1</ele><time>2026-03-02T10:25:59.000Z</time></trkpt>
<trkpt lat="42.172508" lon="23.362581"><ele>2729.6</ele><time>2026-03-02T10:26:00.000Z</time></trkpt>
<trkpt lat="42.172497" lon="23.362584"><ele>2729.6</ele><time>2026-03-02T10:26:01.000Z</time></trkpt>
<trkpt lat="42.172486" lon="23.362587"><ele>2729.6</ele><time>2026-03-02T10:26:02.000Z</time></trkpt>
<trkpt lat="42.172474" lon="23.36259"><ele>2729.6</ele><time>2026-03-02T10:26:03.000Z</time></trkpt>
<trkpt lat="42.172462" lon="23.362592"><ele>2729.6</ele><time>2026-03-02T10:26:04.000Z</time></trkpt>
<trkpt lat="42.172449" lon="23.362593"><ele>2729.2</ele><time>2026-03-02T10:26:05.000Z</time></trkpt>
<trkpt lat="42.172436" lon="23.362594"><ele>2729.2</ele><time>2026-03-02T10:26:06.000Z</time></trkpt>
<trkpt lat="42.172424" lon="23.362594"><ele>2729.2</ele><time>2026-03-02T10:26:07.000Z</time></trkpt>
<trkpt lat="42.172414" lon="23.362595"><ele>2729.2</ele><time>2026-03-02T10:26:08.000Z</time></trkpt>
<trkpt lat="42.172404" lon="23.362596"><ele>2729.2</ele><time>2026-03-02T10:26:09.000Z</time></trkpt>
<trkpt lat="42.172394" lon="23.362598"><ele>2729.1</ele><time>2026-03-02T10:26:10.000Z</time></trkpt>
<trkpt lat="42.172384" lon="23.362599"><ele>2729.1</ele><time>2026-03-02T10:26:11.000Z</time></trkpt>
<trkpt lat="42.172373" lon="23.362601"><ele>2729.1</ele><time>2026-03-02T10:26:12.000Z</time></trkpt>
<trkpt lat="42.172362" lon="23.362602"><ele>2729.1</ele><time>2026-03-02T10:26:13.000Z</time></trkpt>
<trkpt lat="42.17235" lon="23.362603"><ele>2729.1</ele><time>2026-03-02T10:26:14.000Z</time></trkpt>
<trkpt lat="42.172338" lon="23.362604"><ele>2729</ele><time>2026-03-02T10:26:15.000Z</time></trkpt>
<trkpt lat="42.172326" lon="23.362606"><ele>2729</ele><time>2026-03-02T10:26:16.000Z</time></trkpt>
<trkpt lat="42.172313" lon="23.362609"><ele>2729</ele><time>2026-03-02T10:26:17.000Z</time></trkpt>
<trkpt lat="42.172301" lon="23.362611"><ele>2729</ele><time>2026-03-02T10:26:18.000Z</time></trkpt>
<trkpt lat="42.172289" lon="23.362615"><ele>2729</ele><time>2026-03-02T10:26:19.000Z</time></trkpt>
<trkpt lat="42.172277" lon="23.362617"><ele>2729</ele><time>2026-03-02T10:26:20.000Z</time></trkpt>
<trkpt lat="42.172266" lon="23.362618"><ele>2729</ele><time>2026-03-02T10:26:21.000Z</time></trkpt>
<trkpt lat="42.172256" lon="23.36262"><ele>2729</ele><time>2026-03-02T10:26:22.000Z</time></trkpt>
<trkpt lat="42.172246" lon="23.362621"><ele>2729</ele><time>2026-03-02T10:26:23.000Z</time></trkpt>
<trkpt lat="42.172236" lon="23.362621"><ele>2729</ele><time>2026-03-02T10:26:24.000Z</time></trkpt>
<trkpt lat="42.172226" lon="23.362622"><ele>2729</ele><time>2026-03-02T10:26:25.000Z</time></trkpt>
<trkpt lat="42.172217" lon="23.362622"><ele>2729</ele><time>2026-03-02T10:26:26.000Z</time></trkpt>
<trkpt lat="42.172207" lon="23.362623"><ele>2729</ele><time>2026-03-02T10:26:27.000Z</time></trkpt>
<trkpt lat="42.172198" lon="23.362624"><ele>2729</ele><time>2026-03-02T10:26:28.000Z</time></trkpt>
<trkpt lat="42.172188" lon="23.362626"><ele>2729</ele><time>2026-03-02T10:26:29.000Z</time></trkpt>
<trkpt lat="42.172179" lon="23.362629"><ele>2729</ele><time>2026-03-02T10:26:30.000Z</time></trkpt>
<trkpt lat="42.172169" lon="23.362632"><ele>2729</ele><time>2026-03-02T10:26:31.000Z</time></trkpt>
<trkpt lat="42.17216" lon="23.362634"><ele>2729</ele><time>2026-03-02T10:26:32.000Z</time></trkpt>
<trkpt lat="42.172151" lon="23.362637"><ele>2729</ele><time>2026-03-02T10:26:33.000Z</time></trkpt>
<trkpt lat="42.172141" lon="23.362639"><ele>2729</ele><time>2026-03-02T10:26:34.000Z</time></trkpt>
<trkpt lat="42.172131" lon="23.362639"><ele>2729</ele><time>2026-03-02T10:26:35.000Z</time></trkpt>
<trkpt lat="42.172121" lon="23.362638"><ele>2729</ele><time>2026-03-02T10:26:36.000Z</time></trkpt>
<trkpt lat="42.17211" lon="23.362636"><ele>2729</ele><time>2026-03-02T10:26:37.000Z</time></trkpt>
<trkpt lat="42.1721" lon="23.362633"><ele>2729</ele><time>2026-03-02T10:26:38.000Z</time></trkpt>
<trkpt lat="42.172089" lon="23.36263"><ele>2729</ele><time>2026-03-02T10:26:39.000Z</time></trkpt>
<trkpt lat="42.172078" lon="23.362628"><ele>2729</ele><time>2026-03-02T10:26:40.000Z</time></trkpt>
<trkpt lat="42.172067" lon="23.362628"><ele>2729</ele><time>2026-03-02T10:26:41.000Z</time></trkpt>
<trkpt lat="42.172056" lon="23.362629"><ele>2729</ele><time>2026-03-02T10:26:42.000Z</time></trkpt>
<trkpt lat="42.172044" lon="23.36263"><ele>2729</ele><time>2026-03-02T10:26:43.000Z</time></trkpt>
<trkpt lat="42.172033" lon="23.362632"><ele>2729</ele><time>2026-03-02T10:26:44.000Z</time></trkpt>
<trkpt lat="42.172021" lon="23.362634"><ele>2729</ele><time>2026-03-02T10:26:45.000Z</time></trkpt>
<trkpt lat="42.17201" lon="23.362636"><ele>2729</ele><time>2026-03-02T10:26:46.000Z</time></trkpt>
<trkpt lat="42.171999" lon="23.362638"><ele>2729</ele><time>2026-03-02T10:26:47.000Z</time></trkpt>
<trkpt lat="42.171988" lon="23.362639"><ele>2729</ele><time>2026-03-02T10:26:48.000Z</time></trkpt>
<trkpt lat="42.171977" lon="23.36264"><ele>2729</ele><time>2026-03-02T10:26:49.000Z</time></trkpt>
<trkpt lat="42.171966" lon="23.362641"><ele>2728.8</ele><time>2026-03-02T10:26:50.000Z</time></trkpt>
<trkpt lat="42.171956" lon="23.362643"><ele>2728.8</ele><time>2026-03-02T10:26:51.000Z</time></trkpt>
<trkpt lat="42.171946" lon="23.362645"><ele>2728.8</ele><time>2026-03-02T10:26:52.000Z</time></trkpt>
<trkpt lat="42.171935" lon="23.362646"><ele>2728.8</ele><time>2026-03-02T10:26:53.000Z</time></trkpt>
<trkpt lat="42.171925" lon="23.362647"><ele>2728.8</ele><time>2026-03-02T10:26:54.000Z</time></trkpt>
<trkpt lat="42.171914" lon="23.362648"><ele>2728.7</ele><time>2026-03-02T10:26:55.000Z</time></trkpt>
<trkpt lat="42.171904" lon="23.362649"><ele>2728.7</ele><time>2026-03-02T10:26:56.000Z</time></trkpt>
<trkpt lat="42.171894" lon="23.36265"><ele>2728.7</ele><time>2026-03-02T10:26:57.000Z</time></trkpt>
<trkpt lat="42.171885" lon="23.362651"><ele>2728.7</ele><time>2026-03-02T10:26:58.000Z</time></trkpt>
<trkpt lat="42.171876" lon="23.362652"><ele>2728.7</ele><time>2026-03-02T10:26:59.000Z</time></trkpt>
<trkpt lat="42.171867" lon="23.362652"><ele>2728.3</ele><time>2026-03-02T10:27:00.000Z</time></trkpt>
<trkpt lat="42.171859" lon="23.362652"><ele>2728.3</ele><time>2026-03-02T10:27:01.000Z</time></trkpt>
<trkpt lat="42.17185" lon="23.362653"><ele>2728.3</ele><time>2026-03-02T10:27:02.000Z</time></trkpt>
<trkpt lat="42.171841" lon="23.362654"><ele>2728.3</ele><time>2026-03-02T10:27:03.000Z</time></trkpt>
<trkpt lat="42.171832" lon="23.362656"><ele>2728.3</ele><time>2026-03-02T10:27:04.000Z</time></trkpt>
<trkpt lat="42.171823" lon="23.362659"><ele>2727.9</ele><time>2026-03-02T10:27:05.000Z</time></trkpt>
<trkpt lat="42.171814" lon="23.362661"><ele>2727.9</ele><time>2026-03-02T10:27:06.000Z</time></trkpt>
<trkpt lat="42.171806" lon="23.362664"><ele>2727.9</ele><time>2026-03-02T10:27:07.000Z</time></trkpt>
<trkpt lat="42.171797" lon="23.362666"><ele>2727.9</ele><time>2026-03-02T10:27:08.000Z</time></trkpt>
<trkpt lat="42.171788" lon="23.362668"><ele>2727.9</ele><time>2026-03-02T10:27:09.000Z</time></trkpt>
<trkpt lat="42.171779" lon="23.362669"><ele>2727.7</ele><time>2026-03-02T10:27:10.000Z</time></trkpt>
<trkpt lat="42.17177" lon="23.362671"><ele>2727.7</ele><time>2026-03-02T10:27:11.000Z</time></trkpt>
<trkpt lat="42.171759" lon="23.362673"><ele>2727.7</ele><time>2026-03-02T10:27:12.000Z</time></trkpt>
<trkpt lat="42.171749" lon="23.362675"><ele>2727.7</ele><time>2026-03-02T10:27:13.000Z</time></trkpt>
<trkpt lat="42.171739" lon="23.362677"><ele>2727.7</ele><time>2026-03-02T10:27:14.000Z</time></trkpt>
<trkpt lat="42.17173" lon="23.362679"><ele>2727.3</ele><time>2026-03-02T10:27:15.000Z</time></trkpt>
<trkpt lat="42.171722" lon="23.362682"><ele>2727.3</ele><time>2026-03-02T10:27:16.000Z</time></trkpt>
<trkpt lat="42.171714" lon="23.362684"><ele>2727.3</ele><time>2026-03-02T10:27:17.000Z</time></trkpt>
<trkpt lat="42.171704" lon="23.362687"><ele>2727.3</ele><time>2026-03-02T10:27:18.000Z</time></trkpt>
<trkpt lat="42.171693" lon="23.362689"><ele>2727.3</ele><time>2026-03-02T10:27:19.000Z</time></trkpt>
<trkpt lat="42.171681" lon="23.36269"><ele>2727.1</ele><time>2026-03-02T10:27:20.000Z</time></trkpt>
<trkpt lat="42.171669" lon="23.36269"><ele>2727.1</ele><time>2026-03-02T10:27:21.000Z</time></trkpt>
<trkpt lat="42.171657" lon="23.362691"><ele>2727.1</ele><time>2026-03-02T10:27:22.000Z</time></trkpt>
<trkpt lat="42.171647" lon="23.362691"><ele>2727.1</ele><time>2026-03-02T10:27:23.000Z</time></trkpt>
<trkpt lat="42.171637" lon="23.362692"><ele>2727.1</ele><time>2026-03-02T10:27:24.000Z</time></trkpt>
<trkpt lat="42.171628" lon="23.362693"><ele>2727</ele><time>2026-03-02T10:27:25.000Z</time></trkpt>
<trkpt lat="42.171618" lon="23.362695"><ele>2727</ele><time>2026-03-02T10:27:26.000Z</time></trkpt>
<trkpt lat="42.171609" lon="23.362697"><ele>2727</ele><time>2026-03-02T10:27:27.000Z</time></trkpt>
<trkpt lat="42.171599" lon="23.3627"><ele>2727</ele><time>2026-03-02T10:27:28.000Z</time></trkpt>
<trkpt lat="42.17159" lon="23.362704"><ele>2727</ele><time>2026-03-02T10:27:29.000Z</time></trkpt>
<trkpt lat="42.17158" lon="23.362708"><ele>2726.7</ele><time>2026-03-02T10:27:30.000Z</time></trkpt>
<trkpt lat="42.171571" lon="23.362712"><ele>2726.7</ele><time>2026-03-02T10:27:31.000Z</time></trkpt>
<trkpt lat="42.171562" lon="23.362716"><ele>2726.7</ele><time>2026-03-02T10:27:32.000Z</time></trkpt>
<trkpt lat="42.171552" lon="23.362721"><ele>2726.7</ele><time>2026-03-02T10:27:33.000Z</time></trkpt>
<trkpt lat="42.171541" lon="23.362725"><ele>2726.7</ele><time>2026-03-02T10:27:34.000Z</time></trkpt>
<trkpt lat="42.171531" lon="23.36273"><ele>2726.6</ele><time>2026-03-02T10:27:35.000Z</time></trkpt>
<trkpt lat="42.171521" lon="23.362734"><ele>2726.6</ele><time>2026-03-02T10:27:36.000Z</time></trkpt>
<trkpt lat="42.17151" lon="23.362737"><ele>2726.6</ele><time>2026-03-02T10:27:37.000Z</time></trkpt>
<trkpt lat="42.171499" lon="23.36274"><ele>2726.6</ele><time>2026-03-02T10:27:38.000Z</time></trkpt>
<trkpt lat="42.171489" lon="23.362742"><ele>2726.6</ele><time>2026-03-02T10:27:39.000Z</time></trkpt>
<trkpt lat="42.17148" lon="23.362742"><ele>2726.5</ele><time>2026-03-02T10:27:40.000Z</time></trkpt>
<trkpt lat="42.17147" lon="23.362743"><ele>2726.5</ele><time>2026-03-02T10:27:41.000Z</time></trkpt>
<trkpt lat="42.171461" lon="23.362745"><ele>2726.5</ele><time>2026-03-02T10:27:42.000Z</time></trkpt>
<trkpt lat="42.171452" lon="23.362747"><ele>2726.5</ele><time>2026-03-02T10:27:43.000Z</time></trkpt>
<trkpt lat="42.171444" lon="23.362749"><ele>2726.5</ele><time>2026-03-02T10:27:44.000Z</time></trkpt>
<trkpt lat="42.171437" lon="23.362751"><ele>2725.7</ele><time>2026-03-02T10:27:45.000Z</time></trkpt>
<trkpt lat="42.171432" lon="23.362752"><ele>2725.7</ele><time>2026-03-02T10:27:46.000Z</time></trkpt>
<trkpt lat="42.171427" lon="23.362754"><ele>2725.7</ele><time>2026-03-02T10:27:47.000Z</time></trkpt>
<trkpt lat="42.171421" lon="23.362756"><ele>2725.7</ele><time>2026-03-02T10:27:48.000Z</time></trkpt>
<trkpt lat="42.171415" lon="23.362757"><ele>2725.7</ele><time>2026-03-02T10:27:49.000Z</time></trkpt>
<trkpt lat="42.171407" lon="23.362758"><ele>2724.4</ele><time>2026-03-02T10:27:50.000Z</time></trkpt>
<trkpt lat="42.171398" lon="23.36276"><ele>2724.4</ele><time>2026-03-02T10:27:51.000Z</time></trkpt>
<trkpt lat="42.17139" lon="23.362759"><ele>2724.4</ele><time>2026-03-02T10:27:52.000Z</time></trkpt>
<trkpt lat="42.171385" lon="23.36276"><ele>2724.4</ele><time>2026-03-02T10:27:53.000Z</time></trkpt>
<trkpt lat="42.171382" lon="23.362761"><ele>2724.4</ele><time>2026-03-02T10:27:54.000Z</time></trkpt>
<trkpt lat="42.171378" lon="23.362763"><ele>2723.8</ele><time>2026-03-02T10:27:55.000Z</time></trkpt>
<trkpt lat="42.171374" lon="23.362765"><ele>2723.8</ele><time>2026-03-02T10:27:56.000Z</time></trkpt>
<trkpt lat="42.171369" lon="23.362768"><ele>2723.8</ele><time>2026-03-02T10:27:57.000Z</time></trkpt>
<trkpt lat="42.171359" lon="23.362772"><ele>2723.8</ele><time>2026-03-02T10:27:58.000Z</time></trkpt>
<trkpt lat="42.171349" lon="23.362775"><ele>2723.8</ele><time>2026-03-02T10:27:59.000Z</time></trkpt>
<trkpt lat="42.171339" lon="23.362778"><ele>2723</ele><time>2026-03-02T10:28:00.000Z</time></trkpt>
<trkpt lat="42.171331" lon="23.362779"><ele>2723</ele><time>2026-03-02T10:28:01.000Z</time></trkpt>
<trkpt lat="42.171325" lon="23.362779"><ele>2723</ele><time>2026-03-02T10:28:02.000Z</time></trkpt>
<trkpt lat="42.171322" lon="23.362778"><ele>2723</ele><time>2026-03-02T10:28:03.000Z</time></trkpt>
<trkpt lat="42.17132" lon="23.362778"><ele>2723</ele><time>2026-03-02T10:28:04.000Z</time></trkpt>
<trkpt lat="42.171319" lon="23.362778"><ele>2722.3</ele><time>2026-03-02T10:28:05.000Z</time></trkpt>
<trkpt lat="42.171316" lon="23.362779"><ele>2722.3</ele><time>2026-03-02T10:28:06.000Z</time></trkpt>
<trkpt lat="42.171311" lon="23.362782"><ele>2722.3</ele><time>2026-03-02T10:28:07.000Z</time></trkpt>
<trkpt lat="42.171306" lon="23.362786"><ele>2722.3</ele><time>2026-03-02T10:28:08.000Z</time></trkpt>
<trkpt lat="42.171299" lon="23.362789"><ele>2722.3</ele><time>2026-03-02T10:28:09.000Z</time></trkpt>
<trkpt lat="42.171294" lon="23.362791"><ele>2721.9</ele><time>2026-03-02T10:28:10.000Z</time></trkpt>
<trkpt lat="42.171289" lon="23.362793"><ele>2721.9</ele><time>2026-03-02T10:28:11.000Z</time></trkpt>
<trkpt lat="42.171284" lon="23.362794"><ele>2721.9</ele><time>2026-03-02T10:28:12.000Z</time></trkpt>
<trkpt lat="42.17128" lon="23.362794"><ele>2721.9</ele><time>2026-03-02T10:28:13.000Z</time></trkpt>
<trkpt lat="42.171277" lon="23.362794"><ele>2721.9</ele><time>2026-03-02T10:28:14.000Z</time></trkpt>
<trkpt lat="42.171274" lon="23.362793"><ele>2721.2</ele><time>2026-03-02T10:28:15.000Z</time></trkpt>
<trkpt lat="42.17127" lon="23.362793"><ele>2721.2</ele><time>2026-03-02T10:28:16.000Z</time></trkpt>
<trkpt lat="42.171269" lon="23.362793"><ele>2721.2</ele><time>2026-03-02T10:28:17.000Z</time></trkpt>
<trkpt lat="42.171268" lon="23.362792"><ele>2721.2</ele><time>2026-03-02T10:28:18.000Z</time></trkpt>
<trkpt lat="42.171265" lon="23.362791"><ele>2721.2</ele><time>2026-03-02T10:28:19.000Z</time></trkpt>
<trkpt lat="42.171263" lon="23.362789"><ele>2721</ele><time>2026-03-02T10:28:20.000Z</time></trkpt>
<trkpt lat="42.171262" lon="23.362788"><ele>2721</ele><time>2026-03-02T10:28:21.000Z</time></trkpt>
<trkpt lat="42.17126" lon="23.362787"><ele>2721</ele><time>2026-03-02T10:28:22.000Z</time></trkpt>
<trkpt lat="42.171259" lon="23.362786"><ele>2721</ele><time>2026-03-02T10:28:23.000Z</time></trkpt>
<trkpt lat="42.171258" lon="23.362786"><ele>2721</ele><time>2026-03-02T10:28:24.000Z</time></trkpt>
<trkpt lat="42.171256" lon="23.362788"><ele>2720.9</ele><time>2026-03-02T10:28:25.000Z</time></trkpt>
<trkpt lat="42.171253" lon="23.362789"><ele>2720.9</ele><time>2026-03-02T10:28:26.000Z</time></trkpt>
<trkpt lat="42.171248" lon="23.362791"><ele>2720.9</ele><time>2026-03-02T10:28:27.000Z</time></trkpt>
<trkpt lat="42.171242" lon="23.362793"><ele>2720.9</ele><time>2026-03-02T10:28:28.000Z</time></trkpt>
<trkpt lat="42.171237" lon="23.362791"><ele>2720.9</ele><time>2026-03-02T10:28:29.000Z</time></trkpt>
<trkpt lat="42.171234" lon="23.36279"><ele>2720.8</ele><time>2026-03-02T10:28:30.000Z</time></trkpt>
<trkpt lat="42.17123" lon="23.36279"><ele>2720.8</ele><time>2026-03-02T10:28:31.000Z</time></trkpt>
<trkpt lat="42.171228" lon="23.362787"><ele>2720.8</ele><time>2026-03-02T10:28:32.000Z</time></trkpt>
<trkpt lat="42.171228" lon="23.362785"><ele>2720.8</ele><time>2026-03-02T10:28:33.000Z</time></trkpt>
<trkpt lat="42.171227" lon="23.362786"><ele>2720.8</ele><time>2026-03-02T10:28:34.000Z</time></trkpt>
<trkpt lat="42.171227" lon="23.362786"><ele>2720.7</ele><time>2026-03-02T10:28:35.000Z</time></trkpt>
<trkpt lat="42.171227" lon="23.362786"><ele>2720.7</ele><time>2026-03-02T10:28:36.000Z</time></trkpt>
<trkpt lat="42.171227" lon="23.362785"><ele>2720.7</ele><time>2026-03-02T10:28:37.000Z</time></trkpt>
<trkpt lat="42.171228" lon="23.362785"><ele>2720.7</ele><time>2026-03-02T10:28:38.000Z</time></trkpt>
<trkpt lat="42.171228" lon="23.362784"><ele>2720.7</ele><time>2026-03-02T10:28:39.000Z</time></trkpt>
<trkpt lat="42.171228" lon="23.362783"><ele>2720.7</ele><time>2026-03-02T10:28:40.000Z</time></trkpt>
<trkpt lat="42.171228" lon="23.362783"><ele>2720.7</ele><time>2026-03-02T10:28:41.000Z</time></trkpt>
<trkpt lat="42.171227" lon="23.362783"><ele>2720.7</ele><time>2026-03-02T10:28:42.000Z</time></trkpt>
<trkpt lat="42.171227" lon="23.362783"><ele>2720.7</ele><time>2026-03-02T10:28:43.000Z</time></trkpt>
<trkpt lat="42.171227" lon="23.362784"><ele>2720.7</ele><time>2026-03-02T10:28:44.000Z</time></trkpt>
<trkpt lat="42.171227" lon="23.362784"><ele>2720.6</ele><time>2026-03-02T10:28:45.000Z</time></trkpt>
<trkpt lat="42.171227" lon="23.362784"><ele>2720.6</ele><time>2026-03-02T10:28:46.000Z</time></trkpt>
<trkpt lat="42.171227" lon="23.362784"><ele>2720.6</ele><time>2026-03-02T10:28:47.000Z</time></trkpt>
<trkpt lat="42.171228" lon="23.362784"><ele>2720.6</ele><time>2026-03-02T10:28:48.000Z</time></trkpt>
<trkpt lat="42.171229" lon="23.362785"><ele>2720.6</ele><time>2026-03-02T10:28:49.000Z</time></trkpt>
<trkpt lat="42.17123" lon="23.362785"><ele>2720.5</ele><time>2026-03-02T10:28:50.000Z</time></trkpt>
<trkpt lat="42.171231" lon="23.362786"><ele>2720.5</ele><time>2026-03-02T10:28:51.000Z</time></trkpt>
<trkpt lat="42.171232" lon="23.362786"><ele>2720.5</ele><time>2026-03-02T10:28:52.000Z</time></trkpt>
<trkpt lat="42.171232" lon="23.362786"><ele>2720.5</ele><time>2026-03-02T10:28:53.000Z</time></trkpt>
<trkpt lat="42.171232" lon="23.362785"><ele>2720.5</ele><time>2026-03-02T10:28:54.000Z</time></trkpt>
<trkpt lat="42.171231" lon="23.362785"><ele>2720.5</ele><time>2026-03-02T10:28:55.000Z</time></trkpt>
<trkpt lat="42.171231" lon="23.362785"><ele>2720.5</ele><time>2026-03-02T10:28:56.000Z</time></trkpt>
<trkpt lat="42.171231" lon="23.362785"><ele>2720.5</ele><time>2026-03-02T10:28:57.000Z</time></trkpt>
<trkpt lat="42.171231" lon="23.362785"><ele>2720.5</ele><time>2026-03-02T10:28:58.000Z</time></trkpt>
<trkpt lat="42.171231" lon="23.362785"><ele>2720.5</ele><time>2026-03-02T10:28:59.000Z</time></trkpt>
<trkpt lat="42.171231" lon="23.362785"><ele>2720.5</ele><time>2026-03-02T10:29:00.000Z</time></trkpt>
<trkpt lat="42.171231" lon="23.362785"><ele>2720.5</ele><time>2026-03-02T10:29:01.000Z</time></trkpt>
<trkpt lat="42.171231" lon="23.362785"><ele>2720.5</ele><time>2026-03-02T10:29:02.000Z</time></trkpt>
<trkpt lat="42.17123" lon="23.362784"><ele>2720.5</ele><time>2026-03-02T10:29:03.000Z</time></trkpt>
<trkpt lat="42.171229" lon="23.362783"><ele>2720.5</ele><time>2026-03-02T10:29:04.000Z</time></trkpt>
<trkpt lat="42.171228" lon="23.362782"><ele>2720.4</ele><time>2026-03-02T10:29:05.000Z</time></trkpt>
<trkpt lat="42.171227" lon="23.362781"><ele>2720.4</ele><time>2026-03-02T10:29:06.000Z</time></trkpt>
<trkpt lat="42.171226" lon="23.362781"><ele>2720.4</ele><time>2026-03-02T10:29:07.000Z</time></trkpt>
<trkpt lat="42.171225" lon="23.362782"><ele>2720.4</ele><time>2026-03-02T10:29:08.000Z</time></trkpt>
<trkpt lat="42.171225" lon="23.362782"><ele>2720.4</ele><time>2026-03-02T10:29:09.000Z</time></trkpt>
<trkpt lat="42.171225" lon="23.362783"><ele>2720.3</ele><time>2026-03-02T10:29:10.000Z</time></trkpt>
<trkpt lat="42.171224" lon="23.362784"><ele>2720.3</ele><time>2026-03-02T10:29:11.000Z</time></trkpt>
<trkpt lat="42.171223" lon="23.362784"><ele>2720.3</ele><time>2026-03-02T10:29:12.000Z</time></trkpt>
<trkpt lat="42.17122" lon="23.362784"><ele>2720.3</ele><time>2026-03-02T10:29:13.000Z</time></trkpt>
<trkpt lat="42.171217" lon="23.362785"><ele>2720.3</ele><time>2026-03-02T10:29:14.000Z</time></trkpt>
<trkpt lat="42.171211" lon="23.362784"><ele>2720.3</ele><time>2026-03-02T10:29:15.000Z</time></trkpt>
<trkpt lat="42.171203" lon="23.362783"><ele>2720.3</ele><time>2026-03-02T10:29:16.000Z</time></trkpt>
<trkpt lat="42.171195" lon="23.362782"><ele>2720.3</ele><time>2026-03-02T10:29:17.000Z</time></trkpt>
<trkpt lat="42.171186" lon="23.362782"><ele>2720.3</ele><time>2026-03-02T10:29:18.000Z</time></trkpt>
<trkpt lat="42.171176" lon="23.36278"><ele>2720.3</ele><time>2026-03-02T10:29:19.000Z</time></trkpt>
<trkpt lat="42.171167" lon="23.362778"><ele>2720.3</ele><time>2026-03-02T10:29:20.000Z</time></trkpt>
<trkpt lat="42.171158" lon="23.362776"><ele>2720.3</ele><time>2026-03-02T10:29:21.000Z</time></trkpt>
<trkpt lat="42.171149" lon="23.362774"><ele>2720.3</ele><time>2026-03-02T10:29:22.000Z</time></trkpt>
<trkpt lat="42.17114" lon="23.362772"><ele>2720.3</ele><time>2026-03-02T10:29:23.000Z</time></trkpt>
<trkpt lat="42.171131" lon="23.362769"><ele>2720.3</ele><time>2026-03-02T10:29:24.000Z</time></trkpt>
<trkpt lat="42.171121" lon="23.362767"><ele>2720.3</ele><time>2026-03-02T10:29:25.000Z</time></trkpt>
<trkpt lat="42.17111" lon="23.362765"><ele>2720.3</ele><time>2026-03-02T10:29:26.000Z</time></trkpt>
<trkpt lat="42.171098" lon="23.362763"><ele>2720.3</ele><time>2026-03-02T10:29:27.000Z</time></trkpt>
<trkpt lat="42.171086" lon="23.362762"><ele>2720.3</ele><time>2026-03-02T10:29:28.000Z</time></trkpt>
<trkpt lat="42.171075" lon="23.362762"><ele>2720.3</ele><time>2026-03-02T10:29:29.000Z</time></trkpt>
<trkpt lat="42.171063" lon="23.362762"><ele>2720.2</ele><time>2026-03-02T10:29:30.000Z</time></trkpt>
<trkpt lat="42.171052" lon="23.362763"><ele>2720.2</ele><time>2026-03-02T10:29:31.000Z</time></trkpt>
<trkpt lat="42.171041" lon="23.362765"><ele>2720.2</ele><time>2026-03-02T10:29:32.000Z</time></trkpt>
<trkpt lat="42.17103" lon="23.362767"><ele>2720.2</ele><time>2026-03-02T10:29:33.000Z</time></trkpt>
<trkpt lat="42.171019" lon="23.36277"><ele>2720.2</ele><time>2026-03-02T10:29:34.000Z</time></trkpt>
<trkpt lat="42.171007" lon="23.362771"><ele>2719.6</ele><time>2026-03-02T10:29:35.000Z</time></trkpt>
<trkpt lat="42.170996" lon="23.362773"><ele>2719.6</ele><time>2026-03-02T10:29:36.000Z</time></trkpt>
<trkpt lat="42.170986" lon="23.362774"><ele>2719.6</ele><time>2026-03-02T10:29:37.000Z</time></trkpt>
<trkpt lat="42.170975" lon="23.362776"><ele>2719.6</ele><time>2026-03-02T10:29:38.000Z</time></trkpt>
<trkpt lat="42.170964" lon="23.362777"><ele>2719.6</ele><time>2026-03-02T10:29:39.000Z</time></trkpt>
<trkpt lat="42.170955" lon="23.362778"><ele>2719.2</ele><time>2026-03-02T10:29:40.000Z</time></trkpt>
<trkpt lat="42.170946" lon="23.362779"><ele>2719.2</ele><time>2026-03-02T10:29:41.000Z</time></trkpt>
<trkpt lat="42.170937" lon="23.362779"><ele>2719.2</ele><time>2026-03-02T10:29:42.000Z</time></trkpt>
<trkpt lat="42.170927" lon="23.36278"><ele>2719.2</ele><time>2026-03-02T10:29:43.000Z</time></trkpt>
<trkpt lat="42.170917" lon="23.362782"><ele>2719.2</ele><time>2026-03-02T10:29:44.000Z</time></trkpt>
<trkpt lat="42.170907" lon="23.362785"><ele>2718.6</ele><time>2026-03-02T10:29:45.000Z</time></trkpt>
<trkpt lat="42.170898" lon="23.362789"><ele>2718.6</ele><time>2026-03-02T10:29:46.000Z</time></trkpt>
<trkpt lat="42.170889" lon="23.362794"><ele>2718.6</ele><time>2026-03-02T10:29:47.000Z</time></trkpt>
<trkpt lat="42.170881" lon="23.3628"><ele>2718.6</ele><time>2026-03-02T10:29:48.000Z</time></trkpt>
<trkpt lat="42.170872" lon="23.362807"><ele>2718.6</ele><time>2026-03-02T10:29:49.000Z</time></trkpt>
<trkpt lat="42.170864" lon="23.362813"><ele>2718.2</ele><time>2026-03-02T10:29:50.000Z</time></trkpt>
<trkpt lat="42.170856" lon="23.362819"><ele>2718.2</ele><time>2026-03-02T10:29:51.000Z</time></trkpt>
<trkpt lat="42.170847" lon="23.362825"><ele>2718.2</ele><time>2026-03-02T10:29:52.000Z</time></trkpt>
<trkpt lat="42.170838" lon="23.362831"><ele>2718.2</ele><time>2026-03-02T10:29:53.000Z</time></trkpt>
<trkpt lat="42.170828" lon="23.362838"><ele>2718.2</ele><time>2026-03-02T10:29:54.000Z</time></trkpt>
<trkpt lat="42.170818" lon="23.362843"><ele>2718.1</ele><time>2026-03-02T10:29:55.000Z</time></trkpt>
<trkpt lat="42.170809" lon="23.362848"><ele>2718.1</ele><time>2026-03-02T10:29:56.000Z</time></trkpt>
<trkpt lat="42.170799" lon="23.362854"><ele>2718.1</ele><time>2026-03-02T10:29:57.000Z</time></trkpt>
<trkpt lat="42.17079" lon="23.362859"><ele>2718.1</ele><time>2026-03-02T10:29:58.000Z</time></trkpt>
<trkpt lat="42.170781" lon="23.362863"><ele>2718.1</ele><time>2026-03-02T10:29:59.000Z</time></trkpt>
<trkpt lat="42.170773" lon="23.362867"><ele>2717.8</ele><time>2026-03-02T10:30:00.000Z</time></trkpt>
<trkpt lat="42.170765" lon="23.362872"><ele>2717.8</ele><time>2026-03-02T10:30:01.000Z</time></trkpt>
<trkpt lat="42.170758" lon="23.362875"><ele>2717.8</ele><time>2026-03-02T10:30:02.000Z</time></trkpt>
<trkpt lat="42.170752" lon="23.362877"><ele>2717.8</ele><time>2026-03-02T10:30:03.000Z</time></trkpt>
<trkpt lat="42.170746" lon="23.36288"><ele>2717.8</ele><time>2026-03-02T10:30:04.000Z</time></trkpt>
<trkpt lat="42.170739" lon="23.362882"><ele>2717.8</ele><time>2026-03-02T10:30:05.000Z</time></trkpt>
<trkpt lat="42.170734" lon="23.362885"><ele>2717.8</ele><time>2026-03-02T10:30:06.000Z</time></trkpt>
<trkpt lat="42.170731" lon="23.362887"><ele>2717.8</ele><time>2026-03-02T10:30:07.000Z</time></trkpt>
<trkpt lat="42.170727" lon="23.36289"><ele>2717.8</ele><time>2026-03-02T10:30:08.000Z</time></trkpt>
<trkpt lat="42.170724" lon="23.362892"><ele>2717.8</ele><time>2026-03-02T10:30:09.000Z</time></trkpt>
<trkpt lat="42.17072" lon="23.362895"><ele>2717.8</ele><time>2026-03-02T10:30:10.000Z</time></trkpt>
<trkpt lat="42.170716" lon="23.362897"><ele>2717.8</ele><time>2026-03-02T10:30:11.000Z</time></trkpt>
<trkpt lat="42.170712" lon="23.3629"><ele>2717.8</ele><time>2026-03-02T10:30:12.000Z</time></trkpt>
<trkpt lat="42.170709" lon="23.362901"><ele>2717.8</ele><time>2026-03-02T10:30:13.000Z</time></trkpt>
<trkpt lat="42.170708" lon="23.362904"><ele>2717.8</ele><time>2026-03-02T10:30:14.000Z</time></trkpt>
<trkpt lat="42.170709" lon="23.362906"><ele>2717.8</ele><time>2026-03-02T10:30:15.000Z</time></trkpt>
<trkpt lat="42.170711" lon="23.362909"><ele>2717.8</ele><time>2026-03-02T10:30:16.000Z</time></trkpt>
<trkpt lat="42.170712" lon="23.362911"><ele>2717.8</ele><time>2026-03-02T10:30:17.000Z</time></trkpt>
<trkpt lat="42.170714" lon="23.362913"><ele>2717.8</ele><time>2026-03-02T10:30:18.000Z</time></trkpt>
<trkpt lat="42.170714" lon="23.362914"><ele>2717.8</ele><time>2026-03-02T10:30:19.000Z</time></trkpt>
<trkpt lat="42.170713" lon="23.362915"><ele>2717.7</ele><time>2026-03-02T10:30:20.000Z</time></trkpt>
<trkpt lat="42.170713" lon="23.362916"><ele>2717.7</ele><time>2026-03-02T10:30:21.000Z</time></trkpt>
<trkpt lat="42.170713" lon="23.362918"><ele>2717.7</ele><time>2026-03-02T10:30:22.000Z</time></trkpt>
<trkpt lat="42.170713" lon="23.362919"><ele>2717.7</ele><time>2026-03-02T10:30:23.000Z</time></trkpt>
<trkpt lat="42.170714" lon="23.36292"><ele>2717.7</ele><time>2026-03-02T10:30:24.000Z</time></trkpt>
<trkpt lat="42.170715" lon="23.36292"><ele>2717.7</ele><time>2026-03-02T10:30:25.000Z</time></trkpt>
<trkpt lat="42.170715" lon="23.36292"><ele>2717.7</ele><time>2026-03-02T10:30:26.000Z</time></trkpt>
<trkpt lat="42.170716" lon="23.362921"><ele>2717.7</ele><time>2026-03-02T10:30:27.000Z</time></trkpt>
<trkpt lat="42.170715" lon="23.362921"><ele>2717.7</ele><time>2026-03-02T10:30:28.000Z</time></trkpt>
<trkpt lat="42.170712" lon="23.362919"><ele>2717.7</ele><time>2026-03-02T10:30:29.000Z</time></trkpt>
<trkpt lat="42.17071" lon="23.362917"><ele>2717.9</ele><time>2026-03-02T10:30:30.000Z</time></trkpt>
<trkpt lat="42.170707" lon="23.362914"><ele>2717.9</ele><time>2026-03-02T10:30:31.000Z</time></trkpt>
<trkpt lat="42.170704" lon="23.362913"><ele>2717.9</ele><time>2026-03-02T10:30:32.000Z</time></trkpt>
<trkpt lat="42.170701" lon="23.362913"><ele>2717.9</ele><time>2026-03-02T10:30:33.000Z</time></trkpt>
<trkpt lat="42.170697" lon="23.362915"><ele>2717.9</ele><time>2026-03-02T10:30:34.000Z</time></trkpt>
<trkpt lat="42.170691" lon="23.362919"><ele>2718.2</ele><time>2026-03-02T10:30:35.000Z</time></trkpt>
<trkpt lat="42.170683" lon="23.362926"><ele>2718.2</ele><time>2026-03-02T10:30:36.000Z</time></trkpt>
<trkpt lat="42.170676" lon="23.362933"><ele>2718.2</ele><time>2026-03-02T10:30:37.000Z</time></trkpt>
<trkpt lat="42.170668" lon="23.362941"><ele>2718.2</ele><time>2026-03-02T10:30:38.000Z</time></trkpt>
<trkpt lat="42.170662" lon="23.362951"><ele>2718.2</ele><time>2026-03-02T10:30:39.000Z</time></trkpt>
<trkpt lat="42.170657" lon="23.362962"><ele>2718.3</ele><time>2026-03-02T10:30:40.000Z</time></trkpt>
<trkpt lat="42.170652" lon="23.362973"><ele>2718.3</ele><time>2026-03-02T10:30:41.000Z</time></trkpt>
<trkpt lat="42.170647" lon="23.362984"><ele>2718.3</ele><time>2026-03-02T10:30:42.000Z</time></trkpt>
<trkpt lat="42.170642" lon="23.362995"><ele>2718.3</ele><time>2026-03-02T10:30:43.000Z</time></trkpt>
<trkpt lat="42.170636" lon="23.363005"><ele>2718.3</ele><time>2026-03-02T10:30:44.000Z</time></trkpt>
<trkpt lat="42.170631" lon="23.363013"><ele>2718.1</ele><time>2026-03-02T10:30:45.000Z</time></trkpt>
<trkpt lat="42.170626" lon="23.363021"><ele>2718.1</ele><time>2026-03-02T10:30:46.000Z</time></trkpt>
<trkpt lat="42.170622" lon="23.363027"><ele>2718.1</ele><time>2026-03-02T10:30:47.000Z</time></trkpt>
<trkpt lat="42.170619" lon="23.363033"><ele>2718.1</ele><time>2026-03-02T10:30:48.000Z</time></trkpt>
<trkpt lat="42.170615" lon="23.363039"><ele>2718.1</ele><time>2026-03-02T10:30:49.000Z</time></trkpt>
<trkpt lat="42.170612" lon="23.363043"><ele>2717.7</ele><time>2026-03-02T10:30:50.000Z</time></trkpt>
<trkpt lat="42.170608" lon="23.36305"><ele>2717.7</ele><time>2026-03-02T10:30:51.000Z</time></trkpt>
<trkpt lat="42.170604" lon="23.363056"><ele>2717.7</ele><time>2026-03-02T10:30:52.000Z</time></trkpt>
<trkpt lat="42.170599" lon="23.363063"><ele>2717.7</ele><time>2026-03-02T10:30:53.000Z</time></trkpt>
<trkpt lat="42.170594" lon="23.363071"><ele>2717.7</ele><time>2026-03-02T10:30:54.000Z</time></trkpt>
<trkpt lat="42.17059" lon="23.36308"><ele>2717.3</ele><time>2026-03-02T10:30:55.000Z</time></trkpt>
<trkpt lat="42.170585" lon="23.363087"><ele>2717.3</ele><time>2026-03-02T10:30:56.000Z</time></trkpt>
<trkpt lat="42.17058" lon="23.363095"><ele>2717.3</ele><time>2026-03-02T10:30:57.000Z</time></trkpt>
<trkpt lat="42.170576" lon="23.363101"><ele>2717.3</ele><time>2026-03-02T10:30:58.000Z</time></trkpt>
<trkpt lat="42.170572" lon="23.363105"><ele>2717.3</ele><time>2026-03-02T10:30:59.000Z</time></trkpt>
<trkpt lat="42.170569" lon="23.36311"><ele>2716.7</ele><time>2026-03-02T10:31:00.000Z</time></trkpt>
<trkpt lat="42.170565" lon="23.363115"><ele>2716.7</ele><time>2026-03-02T10:31:01.000Z</time></trkpt>
<trkpt lat="42.170562" lon="23.363121"><ele>2716.7</ele><time>2026-03-02T10:31:02.000Z</time></trkpt>
<trkpt lat="42.170558" lon="23.363129"><ele>2716.7</ele><time>2026-03-02T10:31:03.000Z</time></trkpt>
<trkpt lat="42.170554" lon="23.363136"><ele>2716.7</ele><time>2026-03-02T10:31:04.000Z</time></trkpt>
<trkpt lat="42.170551" lon="23.36314"><ele>2716.5</ele><time>2026-03-02T10:31:05.000Z</time></trkpt>
<trkpt lat="42.17055" lon="23.363145"><ele>2716.5</ele><time>2026-03-02T10:31:06.000Z</time></trkpt>
<trkpt lat="42.170547" lon="23.36315"><ele>2716.5</ele><time>2026-03-02T10:31:07.000Z</time></trkpt>
<trkpt lat="42.170545" lon="23.363156"><ele>2716.5</ele><time>2026-03-02T10:31:08.000Z</time></trkpt>
<trkpt lat="42.170544" lon="23.363164"><ele>2716.5</ele><time>2026-03-02T10:31:09.000Z</time></trkpt>
<trkpt lat="42.170541" lon="23.363174"><ele>2716.5</ele><time>2026-03-02T10:31:10.000Z</time></trkpt>
<trkpt lat="42.170538" lon="23.363184"><ele>2716.5</ele><time>2026-03-02T10:31:11.000Z</time></trkpt>
<trkpt lat="42.170534" lon="23.363195"><ele>2716.5</ele><time>2026-03-02T10:31:12.000Z</time></trkpt>
<trkpt lat="42.17053" lon="23.363204"><ele>2716.5</ele><time>2026-03-02T10:31:13.000Z</time></trkpt>
<trkpt lat="42.170525" lon="23.363213"><ele>2716.5</ele><time>2026-03-02T10:31:14.000Z</time></trkpt>
<trkpt lat="42.17052" lon="23.363222"><ele>2716.6</ele><time>2026-03-02T10:31:15.000Z</time></trkpt>
<trkpt lat="42.170515" lon="23.36323"><ele>2716.6</ele><time>2026-03-02T10:31:16.000Z</time></trkpt>
<trkpt lat="42.17051" lon="23.363238"><ele>2716.6</ele><time>2026-03-02T10:31:17.000Z</time></trkpt>
<trkpt lat="42.170506" lon="23.363244"><ele>2716.6</ele><time>2026-03-02T10:31:18.000Z</time></trkpt>
<trkpt lat="42.170503" lon="23.36325"><ele>2716.6</ele><time>2026-03-02T10:31:19.000Z</time></trkpt>
<trkpt lat="42.170499" lon="23.363255"><ele>2717</ele><time>2026-03-02T10:31:20.000Z</time></trkpt>
<trkpt lat="42.170495" lon="23.363258"><ele>2717</ele><time>2026-03-02T10:31:21.000Z</time></trkpt>
<trkpt lat="42.170492" lon="23.36326"><ele>2717</ele><time>2026-03-02T10:31:22.000Z</time></trkpt>
<trkpt lat="42.170488" lon="23.363262"><ele>2717</ele><time>2026-03-02T10:31:23.000Z</time></trkpt>
<trkpt lat="42.170485" lon="23.363264"><ele>2717</ele><time>2026-03-02T10:31:24.000Z</time></trkpt>
<trkpt lat="42.170482" lon="23.363266"><ele>2717.3</ele><time>2026-03-02T10:31:25.000Z</time></trkpt>
<trkpt lat="42.170481" lon="23.363268"><ele>2717.3</ele><time>2026-03-02T10:31:26.000Z</time></trkpt>
<trkpt lat="42.170479" lon="23.363271"><ele>2717.3</ele><time>2026-03-02T10:31:27.000Z</time></trkpt>
<trkpt lat="42.170478" lon="23.363275"><ele>2717.3</ele><time>2026-03-02T10:31:28.000Z</time></trkpt>
<trkpt lat="42.170476" lon="23.363282"><ele>2717.3</ele><time>2026-03-02T10:31:29.000Z</time></trkpt>
<trkpt lat="42.170473" lon="23.36329"><ele>2718</ele><time>2026-03-02T10:31:30.000Z</time></trkpt>
<trkpt lat="42.17047" lon="23.363301"><ele>2718</ele><time>2026-03-02T10:31:31.000Z</time></trkpt>
<trkpt lat="42.170467" lon="23.363313"><ele>2718</ele><time>2026-03-02T10:31:32.000Z</time></trkpt>
<trkpt lat="42.170462" lon="23.363324"><ele>2718</ele><time>2026-03-02T10:31:33.000Z</time></trkpt>
<trkpt lat="42.170458" lon="23.36333"><ele>2718</ele><time>2026-03-02T10:31:34.000Z</time></trkpt>
<trkpt lat="42.170454" lon="23.363333"><ele>2718.6</ele><time>2026-03-02T10:31:35.000Z</time></trkpt>
<trkpt lat="42.17045" lon="23.363333"><ele>2718.6</ele><time>2026-03-02T10:31:36.000Z</time></trkpt>
<trkpt lat="42.170447" lon="23.363332"><ele>2718.6</ele><time>2026-03-02T10:31:37.000Z</time></trkpt>
<trkpt lat="42.170447" lon="23.36333"><ele>2718.6</ele><time>2026-03-02T10:31:38.000Z</time></trkpt>
<trkpt lat="42.170448" lon="23.36333"><ele>2718.6</ele><time>2026-03-02T10:31:39.000Z</time></trkpt>
<trkpt lat="42.170449" lon="23.36333"><ele>2718.9</ele><time>2026-03-02T10:31:40.000Z</time></trkpt>
<trkpt lat="42.17045" lon="23.363331"><ele>2718.9</ele><time>2026-03-02T10:31:41.000Z</time></trkpt>
<trkpt lat="42.17045" lon="23.363332"><ele>2718.9</ele><time>2026-03-02T10:31:42.000Z</time></trkpt>
<trkpt lat="42.17045" lon="23.363333"><ele>2718.9</ele><time>2026-03-02T10:31:43.000Z</time></trkpt>
<trkpt lat="42.17045" lon="23.363334"><ele>2718.9</ele><time>2026-03-02T10:31:44.000Z</time></trkpt>
<trkpt lat="42.170451" lon="23.363334"><ele>2719</ele><time>2026-03-02T10:31:45.000Z</time></trkpt>
<trkpt lat="42.170451" lon="23.363335"><ele>2719</ele><time>2026-03-02T10:31:46.000Z</time></trkpt>
<trkpt lat="42.170451" lon="23.363335"><ele>2719</ele><time>2026-03-02T10:31:47.000Z</time></trkpt>
<trkpt lat="42.170451" lon="23.363335"><ele>2719</ele><time>2026-03-02T10:31:48.000Z</time></trkpt>
<trkpt lat="42.170451" lon="23.363335"><ele>2719</ele><time>2026-03-02T10:31:49.000Z</time></trkpt>
<trkpt lat="42.170451" lon="23.363335"><ele>2719</ele><time>2026-03-02T10:31:50.000Z</time></trkpt>
<trkpt lat="42.170451" lon="23.363335"><ele>2719</ele><time>2026-03-02T10:31:51.000Z</time></trkpt>
<trkpt lat="42.170451" lon="23.363335"><ele>2719</ele><time>2026-03-02T10:31:52.000Z</time></trkpt>
<trkpt lat="42.170451" lon="23.363335"><ele>2719</ele><time>2026-03-02T10:31:53.000Z</time></trkpt>
<trkpt lat="42.170452" lon="23.363333"><ele>2719</ele><time>2026-03-02T10:31:54.000Z</time></trkpt>
<trkpt lat="42.170452" lon="23.36333"><ele>2718.9</ele><time>2026-03-02T10:31:55.000Z</time></trkpt>
<trkpt lat="42.170455" lon="23.363324"><ele>2718.9</ele><time>2026-03-02T10:31:56.000Z</time></trkpt>
<trkpt lat="42.170458" lon="23.363318"><ele>2718.9</ele><time>2026-03-02T10:31:57.000Z</time></trkpt>
<trkpt lat="42.170461" lon="23.363312"><ele>2718.9</ele><time>2026-03-02T10:31:58.000Z</time></trkpt>
<trkpt lat="42.170464" lon="23.363308"><ele>2718.9</ele><time>2026-03-02T10:31:59.000Z</time></trkpt>
<trkpt lat="42.170466" lon="23.363307"><ele>2718.9</ele><time>2026-03-02T10:32:00.000Z</time></trkpt>
<trkpt lat="42.170467" lon="23.363307"><ele>2718.9</ele><time>2026-03-02T10:32:01.000Z</time></trkpt>
<trkpt lat="42.170467" lon="23.363309"><ele>2718.9</ele><time>2026-03-02T10:32:02.000Z</time></trkpt>
<trkpt lat="42.170467" lon="23.363311"><ele>2718.9</ele><time>2026-03-02T10:32:03.000Z</time></trkpt>
<trkpt lat="42.170466" lon="23.363311"><ele>2718.9</ele><time>2026-03-02T10:32:04.000Z</time></trkpt>
<trkpt lat="42.170466" lon="23.363311"><ele>2719.1</ele><time>2026-03-02T10:32:05.000Z</time></trkpt>
<trkpt lat="42.170466" lon="23.363312"><ele>2719.1</ele><time>2026-03-02T10:32:06.000Z</time></trkpt>
<trkpt lat="42.170466" lon="23.363312"><ele>2719.1</ele><time>2026-03-02T10:32:07.000Z</time></trkpt>
<trkpt lat="42.170466" lon="23.363312"><ele>2719.1</ele><time>2026-03-02T10:32:08.000Z</time></trkpt>
<trkpt lat="42.170466" lon="23.363312"><ele>2719.1</ele><time>2026-03-02T10:32:09.000Z</time></trkpt>
<trkpt lat="42.170466" lon="23.363312"><ele>2719.2</ele><time>2026-03-02T10:32:10.000Z</time></trkpt>
<trkpt lat="42.170466" lon="23.363312"><ele>2719.2</ele><time>2026-03-02T10:32:11.000Z</time></trkpt>
<trkpt lat="42.170466" lon="23.363312"><ele>2719.2</ele><time>2026-03-02T10:32:12.000Z</time></trkpt>
<trkpt lat="42.170466" lon="23.363313"><ele>2719.2</ele><time>2026-03-02T10:32:13.000Z</time></trkpt>
<trkpt lat="42.170466" lon="23.363314"><ele>2719.2</ele><time>2026-03-02T10:32:14.000Z</time></trkpt>
<trkpt lat="42.170466" lon="23.363313"><ele>2719.3</ele><time>2026-03-02T10:32:15.000Z</time></trkpt>
<trkpt lat="42.170467" lon="23.363313"><ele>2719.3</ele><time>2026-03-02T10:32:16.000Z</time></trkpt>
<trkpt lat="42.170469" lon="23.363312"><ele>2719.3</ele><time>2026-03-02T10:32:17.000Z</time></trkpt>
<trkpt lat="42.170471" lon="23.36331"><ele>2719.3</ele><time>2026-03-02T10:32:18.000Z</time></trkpt>
<trkpt lat="42.170473" lon="23.363308"><ele>2719.3</ele><time>2026-03-02T10:32:19.000Z</time></trkpt>
<trkpt lat="42.170475" lon="23.363308"><ele>2719.3</ele><time>2026-03-02T10:32:20.000Z</time></trkpt>
<trkpt lat="42.170477" lon="23.363306"><ele>2719.3</ele><time>2026-03-02T10:32:21.000Z</time></trkpt>
<trkpt lat="42.170479" lon="23.363306"><ele>2719.3</ele><time>2026-03-02T10:32:22.000Z</time></trkpt>
<trkpt lat="42.17048" lon="23.363305"><ele>2719.3</ele><time>2026-03-02T10:32:23.000Z</time></trkpt>
<trkpt lat="42.170481" lon="23.363307"><ele>2719.3</ele><time>2026-03-02T10:32:24.000Z</time></trkpt>
<trkpt lat="42.170481" lon="23.36331"><ele>2719.3</ele><time>2026-03-02T10:32:25.000Z</time></trkpt>
<trkpt lat="42.170479" lon="23.363316"><ele>2719.3</ele><time>2026-03-02T10:32:26.000Z</time></trkpt>
<trkpt lat="42.170476" lon="23.363323"><ele>2719.3</ele><time>2026-03-02T10:32:27.000Z</time></trkpt>
<trkpt lat="42.170471" lon="23.363333"><ele>2719.3</ele><time>2026-03-02T10:32:28.000Z</time></trkpt>
<trkpt lat="42.170468" lon="23.363342"><ele>2719.3</ele><time>2026-03-02T10:32:29.000Z</time></trkpt>
<trkpt lat="42.170464" lon="23.363352"><ele>2719.4</ele><time>2026-03-02T10:32:30.000Z</time></trkpt>
<trkpt lat="42.170461" lon="23.36336"><ele>2719.4</ele><time>2026-03-02T10:32:31.000Z</time></trkpt>
<trkpt lat="42.170459" lon="23.363368"><ele>2719.4</ele><time>2026-03-02T10:32:32.000Z</time></trkpt>
<trkpt lat="42.170457" lon="23.363375"><ele>2719.4</ele><time>2026-03-02T10:32:33.000Z</time></trkpt>
<trkpt lat="42.170455" lon="23.363383"><ele>2719.4</ele><time>2026-03-02T10:32:34.000Z</time></trkpt>
<trkpt lat="42.170454" lon="23.363392"><ele>2719.3</ele><time>2026-03-02T10:32:35.000Z</time></trkpt>
<trkpt lat="42.170452" lon="23.3634"><ele>2719.3</ele><time>2026-03-02T10:32:36.000Z</time></trkpt>
<trkpt lat="42.170451" lon="23.36341"><ele>2719.3</ele><time>2026-03-02T10:32:37.000Z</time></trkpt>
<trkpt lat="42.17045" lon="23.363419"><ele>2719.3</ele><time>2026-03-02T10:32:38.000Z</time></trkpt>
<trkpt lat="42.170448" lon="23.363427"><ele>2719.3</ele><time>2026-03-02T10:32:39.000Z</time></trkpt>
<trkpt lat="42.170446" lon="23.363435"><ele>2719.1</ele><time>2026-03-02T10:32:40.000Z</time></trkpt>
<trkpt lat="42.170444" lon="23.363442"><ele>2719.1</ele><time>2026-03-02T10:32:41.000Z</time></trkpt>
<trkpt lat="42.170442" lon="23.363448"><ele>2719.1</ele><time>2026-03-02T10:32:42.000Z</time></trkpt>
<trkpt lat="42.170439" lon="23.363456"><ele>2719.1</ele><time>2026-03-02T10:32:43.000Z</time></trkpt>
<trkpt lat="42.170436" lon="23.363463"><ele>2719.1</ele><time>2026-03-02T10:32:44.000Z</time></trkpt>
<trkpt lat="42.170431" lon="23.363472"><ele>2718.4</ele><time>2026-03-02T10:32:45.000Z</time></trkpt>
<trkpt lat="42.170427" lon="23.363481"><ele>2718.4</ele><time>2026-03-02T10:32:46.000Z</time></trkpt>
<trkpt lat="42.170422" lon="23.363489"><ele>2718.4</ele><time>2026-03-02T10:32:47.000Z</time></trkpt>
<trkpt lat="42.170418" lon="23.363497"><ele>2718.4</ele><time>2026-03-02T10:32:48.000Z</time></trkpt>
<trkpt lat="42.170414" lon="23.363504"><ele>2718.4</ele><time>2026-03-02T10:32:49.000Z</time></trkpt>
<trkpt lat="42.170409" lon="23.363511"><ele>2717.2</ele><time>2026-03-02T10:32:50.000Z</time></trkpt>
<trkpt lat="42.170406" lon="23.363518"><ele>2717.2</ele><time>2026-03-02T10:32:51.000Z</time></trkpt>
<trkpt lat="42.170402" lon="23.363525"><ele>2717.2</ele><time>2026-03-02T10:32:52.000Z</time></trkpt>
<trkpt lat="42.170399" lon="23.363532"><ele>2717.2</ele><time>2026-03-02T10:32:53.000Z</time></trkpt>
<trkpt lat="42.170397" lon="23.363539"><ele>2717.2</ele><time>2026-03-02T10:32:54.000Z</time></trkpt>
<trkpt lat="42.170395" lon="23.363545"><ele>2716.6</ele><time>2026-03-02T10:32:55.000Z</time></trkpt>
<trkpt lat="42.170393" lon="23.36355"><ele>2716.6</ele><time>2026-03-02T10:32:56.000Z</time></trkpt>
<trkpt lat="42.170391" lon="23.363554"><ele>2716.6</ele><time>2026-03-02T10:32:57.000Z</time></trkpt>
<trkpt lat="42.170389" lon="23.363559"><ele>2716.6</ele><time>2026-03-02T10:32:58.000Z</time></trkpt>
<trkpt lat="42.170387" lon="23.363564"><ele>2716.6</ele><time>2026-03-02T10:32:59.000Z</time></trkpt>
<trkpt lat="42.170386" lon="23.363569"><ele>2715.3</ele><time>2026-03-02T10:33:00.000Z</time></trkpt>
<trkpt lat="42.170384" lon="23.363575"><ele>2715.3</ele><time>2026-03-02T10:33:01.000Z</time></trkpt>
<trkpt lat="42.170383" lon="23.363581"><ele>2715.3</ele><time>2026-03-02T10:33:02.000Z</time></trkpt>
<trkpt lat="42.170382" lon="23.363586"><ele>2715.3</ele><time>2026-03-02T10:33:03.000Z</time></trkpt>
<trkpt lat="42.170381" lon="23.36359"><ele>2715.3</ele><time>2026-03-02T10:33:04.000Z</time></trkpt>
<trkpt lat="42.170379" lon="23.363594"><ele>2714</ele><time>2026-03-02T10:33:05.000Z</time></trkpt>
<trkpt lat="42.170376" lon="23.363598"><ele>2714</ele><time>2026-03-02T10:33:06.000Z</time></trkpt>
<trkpt lat="42.170373" lon="23.363602"><ele>2714</ele><time>2026-03-02T10:33:07.000Z</time></trkpt>
<trkpt lat="42.170368" lon="23.363606"><ele>2714</ele><time>2026-03-02T10:33:08.000Z</time></trkpt>
<trkpt lat="42.170364" lon="23.36361"><ele>2714</ele><time>2026-03-02T10:33:09.000Z</time></trkpt>
<trkpt lat="42.17036" lon="23.363615"><ele>2713.3</ele><time>2026-03-02T10:33:10.000Z</time></trkpt>
<trkpt lat="42.170357" lon="23.363621"><ele>2713.3</ele><time>2026-03-02T10:33:11.000Z</time></trkpt>
<trkpt lat="42.170354" lon="23.363627"><ele>2713.3</ele><time>2026-03-02T10:33:12.000Z</time></trkpt>
<trkpt lat="42.170352" lon="23.363633"><ele>2713.3</ele><time>2026-03-02T10:33:13.000Z</time></trkpt>
<trkpt lat="42.170349" lon="23.36364"><ele>2713.3</ele><time>2026-03-02T10:33:14.000Z</time></trkpt>
<trkpt lat="42.170347" lon="23.363646"><ele>2712.3</ele><time>2026-03-02T10:33:15.000Z</time></trkpt>
<trkpt lat="42.170344" lon="23.363651"><ele>2712.3</ele><time>2026-03-02T10:33:16.000Z</time></trkpt>
<trkpt lat="42.170342" lon="23.363657"><ele>2712.3</ele><time>2026-03-02T10:33:17.000Z</time></trkpt>
<trkpt lat="42.170339" lon="23.363661"><ele>2712.3</ele><time>2026-03-02T10:33:18.000Z</time></trkpt>
<trkpt lat="42.170337" lon="23.363666"><ele>2712.3</ele><time>2026-03-02T10:33:19.000Z</time></trkpt>
<trkpt lat="42.170334" lon="23.363671"><ele>2711.3</ele><time>2026-03-02T10:33:20.000Z</time></trkpt>
<trkpt lat="42.170331" lon="23.363675"><ele>2711.3</ele><time>2026-03-02T10:33:21.000Z</time></trkpt>
<trkpt lat="42.170329" lon="23.363679"><ele>2711.3</ele><time>2026-03-02T10:33:22.000Z</time></trkpt>
<trkpt lat="42.170325" lon="23.363684"><ele>2711.3</ele><time>2026-03-02T10:33:23.000Z</time></trkpt>
<trkpt lat="42.170322" lon="23.36369"><ele>2711.3</ele><time>2026-03-02T10:33:24.000Z</time></trkpt>
<trkpt lat="42.170318" lon="23.363695"><ele>2710.7</ele><time>2026-03-02T10:33:25.000Z</time></trkpt>
<trkpt lat="42.170314" lon="23.3637"><ele>2710.7</ele><time>2026-03-02T10:33:26.000Z</time></trkpt>
<trkpt lat="42.17031" lon="23.363706"><ele>2710.7</ele><time>2026-03-02T10:33:27.000Z</time></trkpt>
<trkpt lat="42.170307" lon="23.363712"><ele>2710.7</ele><time>2026-03-02T10:33:28.000Z</time></trkpt>
<trkpt lat="42.170302" lon="23.363717"><ele>2710.7</ele><time>2026-03-02T10:33:29.000Z</time></trkpt>
<trkpt lat="42.170299" lon="23.363722"><ele>2709.3</ele><time>2026-03-02T10:33:30.000Z</time></trkpt>
<trkpt lat="42.170295" lon="23.363727"><ele>2709.3</ele><time>2026-03-02T10:33:31.000Z</time></trkpt>
<trkpt lat="42.170291" lon="23.363733"><ele>2709.3</ele><time>2026-03-02T10:33:32.000Z</time></trkpt>
<trkpt lat="42.170287" lon="23.363738"><ele>2709.3</ele><time>2026-03-02T10:33:33.000Z</time></trkpt>
<trkpt lat="42.170284" lon="23.363743"><ele>2709.3</ele><time>2026-03-02T10:33:34.000Z</time></trkpt>
<trkpt lat="42.17028" lon="23.363749"><ele>2707.9</ele><time>2026-03-02T10:33:35.000Z</time></trkpt>
<trkpt lat="42.170276" lon="23.363756"><ele>2707.9</ele><time>2026-03-02T10:33:36.000Z</time></trkpt>
<trkpt lat="42.170273" lon="23.363761"><ele>2707.9</ele><time>2026-03-02T10:33:37.000Z</time></trkpt>
<trkpt lat="42.170271" lon="23.363766"><ele>2707.9</ele><time>2026-03-02T10:33:38.000Z</time></trkpt>
<trkpt lat="42.170269" lon="23.363771"><ele>2707.9</ele><time>2026-03-02T10:33:39.000Z</time></trkpt>
<trkpt lat="42.170267" lon="23.363776"><ele>2707.2</ele><time>2026-03-02T10:33:40.000Z</time></trkpt>
<trkpt lat="42.170267" lon="23.363779"><ele>2707.2</ele><time>2026-03-02T10:33:41.000Z</time></trkpt>
<trkpt lat="42.170266" lon="23.363783"><ele>2707.2</ele><time>2026-03-02T10:33:42.000Z</time></trkpt>
<trkpt lat="42.170264" lon="23.363789"><ele>2707.2</ele><time>2026-03-02T10:33:43.000Z</time></trkpt>
<trkpt lat="42.170263" lon="23.363794"><ele>2707.2</ele><time>2026-03-02T10:33:44.000Z</time></trkpt>
<trkpt lat="42.17026" lon="23.3638"><ele>2706</ele><time>2026-03-02T10:33:45.000Z</time></trkpt>
<trkpt lat="42.170258" lon="23.363808"><ele>2706</ele><time>2026-03-02T10:33:46.000Z</time></trkpt>
<trkpt lat="42.170255" lon="23.363816"><ele>2706</ele><time>2026-03-02T10:33:47.000Z</time></trkpt>
<trkpt lat="42.170252" lon="23.363824"><ele>2706</ele><time>2026-03-02T10:33:48.000Z</time></trkpt>
<trkpt lat="42.170249" lon="23.363833"><ele>2706</ele><time>2026-03-02T10:33:49.000Z</time></trkpt>
<trkpt lat="42.170247" lon="23.363842"><ele>2704.9</ele><time>2026-03-02T10:33:50.000Z</time></trkpt>
<trkpt lat="42.170246" lon="23.363852"><ele>2704.9</ele><time>2026-03-02T10:33:51.000Z</time></trkpt>
<trkpt lat="42.170243" lon="23.363862"><ele>2704.9</ele><time>2026-03-02T10:33:52.000Z</time></trkpt>
<trkpt lat="42.170239" lon="23.363872"><ele>2704.9</ele><time>2026-03-02T10:33:53.000Z</time></trkpt>
<trkpt lat="42.170235" lon="23.363883"><ele>2704.9</ele><time>2026-03-02T10:33:54.000Z</time></trkpt>
<trkpt lat="42.17023" lon="23.363895"><ele>2704.3</ele><time>2026-03-02T10:33:55.000Z</time></trkpt>
<trkpt lat="42.170224" lon="23.363906"><ele>2704.3</ele><time>2026-03-02T10:33:56.000Z</time></trkpt>
<trkpt lat="42.170217" lon="23.363918"><ele>2704.3</ele><time>2026-03-02T10:33:57.000Z</time></trkpt>
<trkpt lat="42.170211" lon="23.363929"><ele>2704.3</ele><time>2026-03-02T10:33:58.000Z</time></trkpt>
<trkpt lat="42.170205" lon="23.363939"><ele>2704.3</ele><time>2026-03-02T10:33:59.000Z</time></trkpt>
<trkpt lat="42.170199" lon="23.36395"><ele>2703.2</ele><time>2026-03-02T10:34:00.000Z</time></trkpt>
<trkpt lat="42.170193" lon="23.363958"><ele>2703.2</ele><time>2026-03-02T10:34:01.000Z</time></trkpt>
<trkpt lat="42.170187" lon="23.363968"><ele>2703.2</ele><time>2026-03-02T10:34:02.000Z</time></trkpt>
<trkpt lat="42.17018" lon="23.363977"><ele>2703.2</ele><time>2026-03-02T10:34:03.000Z</time></trkpt>
<trkpt lat="42.170174" lon="23.363986"><ele>2703.2</ele><time>2026-03-02T10:34:04.000Z</time></trkpt>
<trkpt lat="42.170168" lon="23.363992"><ele>2702.1</ele><time>2026-03-02T10:34:05.000Z</time></trkpt>
<trkpt lat="42.170163" lon="23.363996"><ele>2702.1</ele><time>2026-03-02T10:34:06.000Z</time></trkpt>
<trkpt lat="42.170159" lon="23.363998"><ele>2702.1</ele><time>2026-03-02T10:34:07.000Z</time></trkpt>
<trkpt lat="42.170157" lon="23.363998"><ele>2702.1</ele><time>2026-03-02T10:34:08.000Z</time></trkpt>
<trkpt lat="42.170156" lon="23.363996"><ele>2702.1</ele><time>2026-03-02T10:34:09.000Z</time></trkpt>
<trkpt lat="42.170155" lon="23.363996"><ele>2701.6</ele><time>2026-03-02T10:34:10.000Z</time></trkpt>
<trkpt lat="42.170154" lon="23.363995"><ele>2701.6</ele><time>2026-03-02T10:34:11.000Z</time></trkpt>
<trkpt lat="42.170154" lon="23.363994"><ele>2701.6</ele><time>2026-03-02T10:34:12.000Z</time></trkpt>
<trkpt lat="42.170154" lon="23.363993"><ele>2701.6</ele><time>2026-03-02T10:34:13.000Z</time></trkpt>
<trkpt lat="42.170154" lon="23.363993"><ele>2701.6</ele><time>2026-03-02T10:34:14.000Z</time></trkpt>
<trkpt lat="42.170154" lon="23.363992"><ele>2701</ele><time>2026-03-02T10:34:15.000Z</time></trkpt>
<trkpt lat="42.170153" lon="23.363991"><ele>2701</ele><time>2026-03-02T10:34:16.000Z</time></trkpt>
<trkpt lat="42.170153" lon="23.363991"><ele>2701</ele><time>2026-03-02T10:34:17.000Z</time></trkpt>
<trkpt lat="42.170153" lon="23.363991"><ele>2701</ele><time>2026-03-02T10:34:18.000Z</time></trkpt>
<trkpt lat="42.170153" lon="23.363991"><ele>2701</ele><time>2026-03-02T10:34:19.000Z</time></trkpt>
<trkpt lat="42.170153" lon="23.363991"><ele>2700.6</ele><time>2026-03-02T10:34:20.000Z</time></trkpt>
<trkpt lat="42.170154" lon="23.363991"><ele>2700.6</ele><time>2026-03-02T10:34:21.000Z</time></trkpt>
<trkpt lat="42.170154" lon="23.363991"><ele>2700.6</ele><time>2026-03-02T10:34:22.000Z</time></trkpt>
<trkpt lat="42.170154" lon="23.36399"><ele>2700.6</ele><time>2026-03-02T10:34:23.000Z</time></trkpt>
<trkpt lat="42.170156" lon="23.363987"><ele>2700.6</ele><time>2026-03-02T10:34:24.000Z</time></trkpt>
<trkpt lat="42.170157" lon="23.363985"><ele>2700.5</ele><time>2026-03-02T10:34:25.000Z</time></trkpt>
<trkpt lat="42.170158" lon="23.363982"><ele>2700.5</ele><time>2026-03-02T10:34:26.000Z</time></trkpt>
<trkpt lat="42.170159" lon="23.363979"><ele>2700.5</ele><time>2026-03-02T10:34:27.000Z</time></trkpt>
<trkpt lat="42.170159" lon="23.363978"><ele>2700.5</ele><time>2026-03-02T10:34:28.000Z</time></trkpt>
<trkpt lat="42.170158" lon="23.363977"><ele>2700.5</ele><time>2026-03-02T10:34:29.000Z</time></trkpt>
<trkpt lat="42.170157" lon="23.363976"><ele>2700.5</ele><time>2026-03-02T10:34:30.000Z</time></trkpt>
<trkpt lat="42.170157" lon="23.363975"><ele>2700.5</ele><time>2026-03-02T10:34:31.000Z</time></trkpt>
<trkpt lat="42.170156" lon="23.363974"><ele>2700.5</ele><time>2026-03-02T10:34:32.000Z</time></trkpt>
<trkpt lat="42.170156" lon="23.363974"><ele>2700.5</ele><time>2026-03-02T10:34:33.000Z</time></trkpt>
<trkpt lat="42.170156" lon="23.363973"><ele>2700.5</ele><time>2026-03-02T10:34:34.000Z</time></trkpt>
<trkpt lat="42.170156" lon="23.363973"><ele>2700.5</ele><time>2026-03-02T10:34:35.000Z</time></trkpt>
<trkpt lat="42.170156" lon="23.363973"><ele>2700.5</ele><time>2026-03-02T10:34:36.000Z</time></trkpt>
<trkpt lat="42.170156" lon="23.363973"><ele>2700.5</ele><time>2026-03-02T10:34:37.000Z</time></trkpt>
<trkpt lat="42.170156" lon="23.363973"><ele>2700.5</ele><time>2026-03-02T10:34:38.000Z</time></trkpt>
<trkpt lat="42.170156" lon="23.363973"><ele>2700.5</ele><time>2026-03-02T10:34:39.000Z</time></trkpt>
<trkpt lat="42.170156" lon="23.363973"><ele>2700.5</ele><time>2026-03-02T10:34:40.000Z</time></trkpt>
<trkpt lat="42.170156" lon="23.363973"><ele>2700.5</ele><time>2026-03-02T10:34:41.000Z</time></trkpt>
<trkpt lat="42.170156" lon="23.363973"><ele>2700.5</ele><time>2026-03-02T10:34:42.000Z</time></trkpt>
<trkpt lat="42.170156" lon="23.363974"><ele>2700.5</ele><time>2026-03-02T10:34:43.000Z</time></trkpt>
<trkpt lat="42.170155" lon="23.363974"><ele>2700.5</ele><time>2026-03-02T10:34:44.000Z</time></trkpt>
<trkpt lat="42.170155" lon="23.363975"><ele>2700.5</ele><time>2026-03-02T10:34:45.000Z</time></trkpt>
<trkpt lat="42.170154" lon="23.363975"><ele>2700.5</ele><time>2026-03-02T10:34:46.000Z</time></trkpt>
<trkpt lat="42.170153" lon="23.363975"><ele>2700.5</ele><time>2026-03-02T10:34:47.000Z</time></trkpt>
<trkpt lat="42.170153" lon="23.363975"><ele>2700.5</ele><time>2026-03-02T10:34:48.000Z</time></trkpt>
<trkpt lat="42.170153" lon="23.363975"><ele>2700.5</ele><time>2026-03-02T10:34:49.000Z</time></trkpt>
<trkpt lat="42.170153" lon="23.363974"><ele>2700.6</ele><time>2026-03-02T10:34:50.000Z</time></trkpt>
<trkpt lat="42.170152" lon="23.363974"><ele>2700.6</ele><time>2026-03-02T10:34:51.000Z</time></trkpt>
<trkpt lat="42.170152" lon="23.363974"><ele>2700.6</ele><time>2026-03-02T10:34:52.000Z</time></trkpt>
<trkpt lat="42.170152" lon="23.363974"><ele>2700.6</ele><time>2026-03-02T10:34:53.000Z</time></trkpt>
<trkpt lat="42.170152" lon="23.363974"><ele>2700.6</ele><time>2026-03-02T10:34:54.000Z</time></trkpt>
<trkpt lat="42.170152" lon="23.363975"><ele>2700.7</ele><time>2026-03-02T10:34:55.000Z</time></trkpt>
<trkpt lat="42.170152" lon="23.363975"><ele>2700.7</ele><time>2026-03-02T10:34:56.000Z</time></trkpt>
<trkpt lat="42.170152" lon="23.363975"><ele>2700.7</ele><time>2026-03-02T10:34:57.000Z</time></trkpt>
<trkpt lat="42.170151" lon="23.363975"><ele>2700.7</ele><time>2026-03-02T10:34:58.000Z</time></trkpt>
<trkpt lat="42.170151" lon="23.363975"><ele>2700.7</ele><time>2026-03-02T10:34:59.000Z</time></trkpt>
<trkpt lat="42.17015" lon="23.363975"><ele>2701</ele><time>2026-03-02T10:35:00.000Z</time></trkpt>
<trkpt lat="42.17015" lon="23.363973"><ele>2701</ele><time>2026-03-02T10:35:01.000Z</time></trkpt>
<trkpt lat="42.170151" lon="23.363971"><ele>2701</ele><time>2026-03-02T10:35:02.000Z</time></trkpt>
<trkpt lat="42.170154" lon="23.363966"><ele>2701</ele><time>2026-03-02T10:35:03.000Z</time></trkpt>
<trkpt lat="42.170158" lon="23.36396"><ele>2701</ele><time>2026-03-02T10:35:04.000Z</time></trkpt>
<trkpt lat="42.170163" lon="23.363953"><ele>2701</ele><time>2026-03-02T10:35:05.000Z</time></trkpt>
<trkpt lat="42.170167" lon="23.363947"><ele>2701</ele><time>2026-03-02T10:35:06.000Z</time></trkpt>
<trkpt lat="42.17017" lon="23.363942"><ele>2701</ele><time>2026-03-02T10:35:07.000Z</time></trkpt>
<trkpt lat="42.170171" lon="23.36394"><ele>2701</ele><time>2026-03-02T10:35:08.000Z</time></trkpt>
<trkpt lat="42.170172" lon="23.36394"><ele>2701</ele><time>2026-03-02T10:35:09.000Z</time></trkpt>
<trkpt lat="42.170171" lon="23.363942"><ele>2700.9</ele><time>2026-03-02T10:35:10.000Z</time></trkpt>
<trkpt lat="42.170171" lon="23.363944"><ele>2700.9</ele><time>2026-03-02T10:35:11.000Z</time></trkpt>
<trkpt lat="42.170171" lon="23.363946"><ele>2700.9</ele><time>2026-03-02T10:35:12.000Z</time></trkpt>
<trkpt lat="42.170171" lon="23.363948"><ele>2700.9</ele><time>2026-03-02T10:35:13.000Z</time></trkpt>
<trkpt lat="42.17017" lon="23.363951"><ele>2700.9</ele><time>2026-03-02T10:35:14.000Z</time></trkpt>
<trkpt lat="42.170169" lon="23.363953"><ele>2700.7</ele><time>2026-03-02T10:35:15.000Z</time></trkpt>
<trkpt lat="42.170168" lon="23.363956"><ele>2700.7</ele><time>2026-03-02T10:35:16.000Z</time></trkpt>
<trkpt lat="42.170165" lon="23.363961"><ele>2700.7</ele><time>2026-03-02T10:35:17.000Z</time></trkpt>
<trkpt lat="42.170162" lon="23.363968"><ele>2700.7</ele><time>2026-03-02T10:35:18.000Z</time></trkpt>
<trkpt lat="42.170158" lon="23.363977"><ele>2700.7</ele><time>2026-03-02T10:35:19.000Z</time></trkpt>
<trkpt lat="42.170154" lon="23.363987"><ele>2700.7</ele><time>2026-03-02T10:35:20.000Z</time></trkpt>
<trkpt lat="42.170149" lon="23.363998"><ele>2700.7</ele><time>2026-03-02T10:35:21.000Z</time></trkpt>
<trkpt lat="42.170144" lon="23.36401"><ele>2700.7</ele><time>2026-03-02T10:35:22.000Z</time></trkpt>
<trkpt lat="42.170138" lon="23.364021"><ele>2700.7</ele><time>2026-03-02T10:35:23.000Z</time></trkpt>
<trkpt lat="42.170132" lon="23.364033"><ele>2700.7</ele><time>2026-03-02T10:35:24.000Z</time></trkpt>
<trkpt lat="42.170125" lon="23.364044"><ele>2700.8</ele><time>2026-03-02T10:35:25.000Z</time></trkpt>
<trkpt lat="42.170119" lon="23.364054"><ele>2700.8</ele><time>2026-03-02T10:35:26.000Z</time></trkpt>
<trkpt lat="42.170112" lon="23.364062"><ele>2700.8</ele><time>2026-03-02T10:35:27.000Z</time></trkpt>
<trkpt lat="42.170107" lon="23.364067"><ele>2700.8</ele><time>2026-03-02T10:35:28.000Z</time></trkpt>
<trkpt lat="42.170103" lon="23.364071"><ele>2700.8</ele><time>2026-03-02T10:35:29.000Z</time></trkpt>
<trkpt lat="42.170099" lon="23.364073"><ele>2700.8</ele><time>2026-03-02T10:35:30.000Z</time></trkpt>
<trkpt lat="42.170097" lon="23.364074"><ele>2700.8</ele><time>2026-03-02T10:35:31.000Z</time></trkpt>
<trkpt lat="42.170096" lon="23.364074"><ele>2700.8</ele><time>2026-03-02T10:35:32.000Z</time></trkpt>
<trkpt lat="42.170096" lon="23.364075"><ele>2700.8</ele><time>2026-03-02T10:35:33.000Z</time></trkpt>
<trkpt lat="42.170095" lon="23.364076"><ele>2700.8</ele><time>2026-03-02T10:35:34.000Z</time></trkpt>
<trkpt lat="42.170095" lon="23.364076"><ele>2700.6</ele><time>2026-03-02T10:35:35.000Z</time></trkpt>
<trkpt lat="42.170094" lon="23.364076"><ele>2700.6</ele><time>2026-03-02T10:35:36.000Z</time></trkpt>
<trkpt lat="42.170094" lon="23.364076"><ele>2700.6</ele><time>2026-03-02T10:35:37.000Z</time></trkpt>
<trkpt lat="42.170094" lon="23.364077"><ele>2700.6</ele><time>2026-03-02T10:35:38.000Z</time></trkpt>
<trkpt lat="42.170093" lon="23.364077"><ele>2700.6</ele><time>2026-03-02T10:35:39.000Z</time></trkpt>
<trkpt lat="42.170093" lon="23.364077"><ele>2700.4</ele><time>2026-03-02T10:35:40.000Z</time></trkpt>
<trkpt lat="42.170093" lon="23.364077"><ele>2700.4</ele><time>2026-03-02T10:35:41.000Z</time></trkpt>
<trkpt lat="42.170093" lon="23.364077"><ele>2700.4</ele><time>2026-03-02T10:35:42.000Z</time></trkpt>
<trkpt lat="42.170093" lon="23.364077"><ele>2700.4</ele><time>2026-03-02T10:35:43.000Z</time></trkpt>
<trkpt lat="42.170092" lon="23.364078"><ele>2700.4</ele><time>2026-03-02T10:35:44.000Z</time></trkpt>
<trkpt lat="42.17009" lon="23.364079"><ele>2700</ele><time>2026-03-02T10:35:45.000Z</time></trkpt>
<trkpt lat="42.170087" lon="23.364082"><ele>2700</ele><time>2026-03-02T10:35:46.000Z</time></trkpt>
<trkpt lat="42.170083" lon="23.364087"><ele>2700</ele><time>2026-03-02T10:35:47.000Z</time></trkpt>
<trkpt lat="42.170078" lon="23.364093"><ele>2700</ele><time>2026-03-02T10:35:48.000Z</time></trkpt>
<trkpt lat="42.170073" lon="23.364101"><ele>2700</ele><time>2026-03-02T10:35:49.000Z</time></trkpt>
<trkpt lat="42.170068" lon="23.364109"><ele>2699.8</ele><time>2026-03-02T10:35:50.000Z</time></trkpt>
<trkpt lat="42.170064" lon="23.364117"><ele>2699.8</ele><time>2026-03-02T10:35:51.000Z</time></trkpt>
<trkpt lat="42.170061" lon="23.364125"><ele>2699.8</ele><time>2026-03-02T10:35:52.000Z</time></trkpt>
<trkpt lat="42.170057" lon="23.364133"><ele>2699.8</ele><time>2026-03-02T10:35:53.000Z</time></trkpt>
<trkpt lat="42.170054" lon="23.364143"><ele>2699.8</ele><time>2026-03-02T10:35:54.000Z</time></trkpt>
<trkpt lat="42.170052" lon="23.364151"><ele>2699.8</ele><time>2026-03-02T10:35:55.000Z</time></trkpt>
<trkpt lat="42.170049" lon="23.364162"><ele>2699.8</ele><time>2026-03-02T10:35:56.000Z</time></trkpt>
<trkpt lat="42.170047" lon="23.364171"><ele>2699.8</ele><time>2026-03-02T10:35:57.000Z</time></trkpt>
<trkpt lat="42.170046" lon="23.364178"><ele>2699.8</ele><time>2026-03-02T10:35:58.000Z</time></trkpt>
<trkpt lat="42.170046" lon="23.364182"><ele>2699.8</ele><time>2026-03-02T10:35:59.000Z</time></trkpt>
<trkpt lat="42.170046" lon="23.364185"><ele>2699.7</ele><time>2026-03-02T10:36:00.000Z</time></trkpt>
<trkpt lat="42.170046" lon="23.364185"><ele>2699.7</ele><time>2026-03-02T10:36:01.000Z</time></trkpt>
<trkpt lat="42.170047" lon="23.364184"><ele>2699.7</ele><time>2026-03-02T10:36:02.000Z</time></trkpt>
<trkpt lat="42.170047" lon="23.364183"><ele>2699.7</ele><time>2026-03-02T10:36:03.000Z</time></trkpt>
<trkpt lat="42.170048" lon="23.364182"><ele>2699.7</ele><time>2026-03-02T10:36:04.000Z</time></trkpt>
<trkpt lat="42.170048" lon="23.364182"><ele>2699.2</ele><time>2026-03-02T10:36:05.000Z</time></trkpt>
<trkpt lat="42.170046" lon="23.364184"><ele>2699.2</ele><time>2026-03-02T10:36:06.000Z</time></trkpt>
<trkpt lat="42.170045" lon="23.364188"><ele>2699.2</ele><time>2026-03-02T10:36:07.000Z</time></trkpt>
<trkpt lat="42.170044" lon="23.364195"><ele>2699.2</ele><time>2026-03-02T10:36:08.000Z</time></trkpt>
<trkpt lat="42.170041" lon="23.364205"><ele>2699.2</ele><time>2026-03-02T10:36:09.000Z</time></trkpt>
<trkpt lat="42.170039" lon="23.364216"><ele>2698.9</ele><time>2026-03-02T10:36:10.000Z</time></trkpt>
<trkpt lat="42.170037" lon="23.364227"><ele>2698.9</ele><time>2026-03-02T10:36:11.000Z</time></trkpt>
<trkpt lat="42.170035" lon="23.364238"><ele>2698.9</ele><time>2026-03-02T10:36:12.000Z</time></trkpt>
<trkpt lat="42.170032" lon="23.364249"><ele>2698.9</ele><time>2026-03-02T10:36:13.000Z</time></trkpt>
<trkpt lat="42.17003" lon="23.364259"><ele>2698.9</ele><time>2026-03-02T10:36:14.000Z</time></trkpt>
<trkpt lat="42.170027" lon="23.36427"><ele>2698.6</ele><time>2026-03-02T10:36:15.000Z</time></trkpt>
<trkpt lat="42.170025" lon="23.364281"><ele>2698.6</ele><time>2026-03-02T10:36:16.000Z</time></trkpt>
<trkpt lat="42.170022" lon="23.364292"><ele>2698.6</ele><time>2026-03-02T10:36:17.000Z</time></trkpt>
<trkpt lat="42.17002" lon="23.3643"><ele>2698.6</ele><time>2026-03-02T10:36:18.000Z</time></trkpt>
<trkpt lat="42.170018" lon="23.364308"><ele>2698.6</ele><time>2026-03-02T10:36:19.000Z</time></trkpt>
<trkpt lat="42.170015" lon="23.364316"><ele>2698.7</ele><time>2026-03-02T10:36:20.000Z</time></trkpt>
<trkpt lat="42.170012" lon="23.364324"><ele>2698.7</ele><time>2026-03-02T10:36:21.000Z</time></trkpt>
<trkpt lat="42.17001" lon="23.364332"><ele>2698.7</ele><time>2026-03-02T10:36:22.000Z</time></trkpt>
<trkpt lat="42.170007" lon="23.364342"><ele>2698.7</ele><time>2026-03-02T10:36:23.000Z</time></trkpt>
<trkpt lat="42.170004" lon="23.364354"><ele>2698.7</ele><time>2026-03-02T10:36:24.000Z</time></trkpt>
<trkpt lat="42.170001" lon="23.364364"><ele>2698.8</ele><time>2026-03-02T10:36:25.000Z</time></trkpt>
<trkpt lat="42.169998" lon="23.364374"><ele>2698.8</ele><time>2026-03-02T10:36:26.000Z</time></trkpt>
<trkpt lat="42.169994" lon="23.364386"><ele>2698.8</ele><time>2026-03-02T10:36:27.000Z</time></trkpt>
<trkpt lat="42.169991" lon="23.364396"><ele>2698.8</ele><time>2026-03-02T10:36:28.000Z</time></trkpt>
<trkpt lat="42.169989" lon="23.364407"><ele>2698.8</ele><time>2026-03-02T10:36:29.000Z</time></trkpt>
<trkpt lat="42.169988" lon="23.364417"><ele>2698.8</ele><time>2026-03-02T10:36:30.000Z</time></trkpt>
<trkpt lat="42.169987" lon="23.364427"><ele>2698.8</ele><time>2026-03-02T10:36:31.000Z</time></trkpt>
<trkpt lat="42.169987" lon="23.364437"><ele>2698.8</ele><time>2026-03-02T10:36:32.000Z</time></trkpt>
<trkpt lat="42.169987" lon="23.364447"><ele>2698.8</ele><time>2026-03-02T10:36:33.000Z</time></trkpt>
<trkpt lat="42.169989" lon="23.364458"><ele>2698.8</ele><time>2026-03-02T10:36:34.000Z</time></trkpt>
<trkpt lat="42.169989" lon="23.364469"><ele>2698.4</ele><time>2026-03-02T10:36:35.000Z</time></trkpt>
<trkpt lat="42.169989" lon="23.36448"><ele>2698.4</ele><time>2026-03-02T10:36:36.000Z</time></trkpt>
<trkpt lat="42.169988" lon="23.364491"><ele>2698.4</ele><time>2026-03-02T10:36:37.000Z</time></trkpt>
<trkpt lat="42.169986" lon="23.364501"><ele>2698.4</ele><time>2026-03-02T10:36:38.000Z</time></trkpt>
<trkpt lat="42.169983" lon="23.364509"><ele>2698.4</ele><time>2026-03-02T10:36:39.000Z</time></trkpt>
<trkpt lat="42.169981" lon="23.364518"><ele>2698.2</ele><time>2026-03-02T10:36:40.000Z</time></trkpt>
<trkpt lat="42.169978" lon="23.364526"><ele>2698.2</ele><time>2026-03-02T10:36:41.000Z</time></trkpt>
<trkpt lat="42.169976" lon="23.364531"><ele>2698.2</ele><time>2026-03-02T10:36:42.000Z</time></trkpt>
<trkpt lat="42.169972" lon="23.364534"><ele>2698.2</ele><time>2026-03-02T10:36:43.000Z</time></trkpt>
<trkpt lat="42.169969" lon="23.364541"><ele>2698.2</ele><time>2026-03-02T10:36:44.000Z</time></trkpt>
<trkpt lat="42.169967" lon="23.364548"><ele>2697.7</ele><time>2026-03-02T10:36:45.000Z</time></trkpt>
<trkpt lat="42.169966" lon="23.364558"><ele>2697.7</ele><time>2026-03-02T10:36:46.000Z</time></trkpt>
<trkpt lat="42.169964" lon="23.364571"><ele>2697.7</ele><time>2026-03-02T10:36:47.000Z</time></trkpt>
<trkpt lat="42.169965" lon="23.364586"><ele>2697.7</ele><time>2026-03-02T10:36:48.000Z</time></trkpt>
<trkpt lat="42.169965" lon="23.364599"><ele>2697.7</ele><time>2026-03-02T10:36:49.000Z</time></trkpt>
<trkpt lat="42.169964" lon="23.364611"><ele>2697</ele><time>2026-03-02T10:36:50.000Z</time></trkpt>
<trkpt lat="42.169962" lon="23.364619"><ele>2697</ele><time>2026-03-02T10:36:51.000Z</time></trkpt>
<trkpt lat="42.16996" lon="23.364625"><ele>2697</ele><time>2026-03-02T10:36:52.000Z</time></trkpt>
<trkpt lat="42.169959" lon="23.364629"><ele>2697</ele><time>2026-03-02T10:36:53.000Z</time></trkpt>
<trkpt lat="42.169957" lon="23.364633"><ele>2697</ele><time>2026-03-02T10:36:54.000Z</time></trkpt>
<trkpt lat="42.169957" lon="23.364637"><ele>2696.5</ele><time>2026-03-02T10:36:55.000Z</time></trkpt>
<trkpt lat="42.169957" lon="23.364642"><ele>2696.5</ele><time>2026-03-02T10:36:56.000Z</time></trkpt>
<trkpt lat="42.169958" lon="23.364649"><ele>2696.5</ele><time>2026-03-02T10:36:57.000Z</time></trkpt>
<trkpt lat="42.169959" lon="23.364659"><ele>2696.5</ele><time>2026-03-02T10:36:58.000Z</time></trkpt>
<trkpt lat="42.169959" lon="23.364671"><ele>2696.5</ele><time>2026-03-02T10:36:59.000Z</time></trkpt>
<trkpt lat="42.169959" lon="23.364685"><ele>2695.7</ele><time>2026-03-02T10:37:00.000Z</time></trkpt>
<trkpt lat="42.169958" lon="23.364699"><ele>2695.7</ele><time>2026-03-02T10:37:01.000Z</time></trkpt>
<trkpt lat="42.169956" lon="23.364714"><ele>2695.7</ele><time>2026-03-02T10:37:02.000Z</time></trkpt>
<trkpt lat="42.169955" lon="23.364726"><ele>2695.7</ele><time>2026-03-02T10:37:03.000Z</time></trkpt>
<trkpt lat="42.169954" lon="23.364736"><ele>2695.7</ele><time>2026-03-02T10:37:04.000Z</time></trkpt>
<trkpt lat="42.169953" lon="23.364745"><ele>2695</ele><time>2026-03-02T10:37:05.000Z</time></trkpt>
<trkpt lat="42.169953" lon="23.364755"><ele>2695</ele><time>2026-03-02T10:37:06.000Z</time></trkpt>
<trkpt lat="42.169951" lon="23.364766"><ele>2695</ele><time>2026-03-02T10:37:07.000Z</time></trkpt>
<trkpt lat="42.169949" lon="23.364778"><ele>2695</ele><time>2026-03-02T10:37:08.000Z</time></trkpt>
<trkpt lat="42.169947" lon="23.36479"><ele>2695</ele><time>2026-03-02T10:37:09.000Z</time></trkpt>
<trkpt lat="42.169946" lon="23.364804"><ele>2694.6</ele><time>2026-03-02T10:37:10.000Z</time></trkpt>
<trkpt lat="42.169944" lon="23.364818"><ele>2694.6</ele><time>2026-03-02T10:37:11.000Z</time></trkpt>
<trkpt lat="42.169944" lon="23.364831"><ele>2694.6</ele><time>2026-03-02T10:37:12.000Z</time></trkpt>
<trkpt lat="42.169943" lon="23.364846"><ele>2694.6</ele><time>2026-03-02T10:37:13.000Z</time></trkpt>
<trkpt lat="42.169943" lon="23.36486"><ele>2694.6</ele><time>2026-03-02T10:37:14.000Z</time></trkpt>
<trkpt lat="42.169942" lon="23.364875"><ele>2694</ele><time>2026-03-02T10:37:15.000Z</time></trkpt>
<trkpt lat="42.169942" lon="23.364888"><ele>2694</ele><time>2026-03-02T10:37:16.000Z</time></trkpt>
<trkpt lat="42.169941" lon="23.364899"><ele>2694</ele><time>2026-03-02T10:37:17.000Z</time></trkpt>
<trkpt lat="42.16994" lon="23.364908"><ele>2694</ele><time>2026-03-02T10:37:18.000Z</time></trkpt>
<trkpt lat="42.169938" lon="23.364914"><ele>2694</ele><time>2026-03-02T10:37:19.000Z</time></trkpt>
<trkpt lat="42.169936" lon="23.364918"><ele>2693.5</ele><time>2026-03-02T10:37:20.000Z</time></trkpt>
<trkpt lat="42.169934" lon="23.36492"><ele>2693.5</ele><time>2026-03-02T10:37:21.000Z</time></trkpt>
<trkpt lat="42.169932" lon="23.364922"><ele>2693.5</ele><time>2026-03-02T10:37:22.000Z</time></trkpt>
<trkpt lat="42.16993" lon="23.364923"><ele>2693.5</ele><time>2026-03-02T10:37:23.000Z</time></trkpt>
<trkpt lat="42.169928" lon="23.364923"><ele>2693.5</ele><time>2026-03-02T10:37:24.000Z</time></trkpt>
<trkpt lat="42.169927" lon="23.364924"><ele>2693.4</ele><time>2026-03-02T10:37:25.000Z</time></trkpt>
<trkpt lat="42.169926" lon="23.364924"><ele>2693.4</ele><time>2026-03-02T10:37:26.000Z</time></trkpt>
<trkpt lat="42.169926" lon="23.364924"><ele>2693.4</ele><time>2026-03-02T10:37:27.000Z</time></trkpt>
<trkpt lat="42.169925" lon="23.364923"><ele>2693.4</ele><time>2026-03-02T10:37:28.000Z</time></trkpt>
<trkpt lat="42.169924" lon="23.364922"><ele>2693.4</ele><time>2026-03-02T10:37:29.000Z</time></trkpt>
<trkpt lat="42.169923" lon="23.364921"><ele>2693.2</ele><time>2026-03-02T10:37:30.000Z</time></trkpt>
<trkpt lat="42.169922" lon="23.36492"><ele>2693.2</ele><time>2026-03-02T10:37:31.000Z</time></trkpt>
<trkpt lat="42.169922" lon="23.364919"><ele>2693.2</ele><time>2026-03-02T10:37:32.000Z</time></trkpt>
<trkpt lat="42.169923" lon="23.364918"><ele>2693.2</ele><time>2026-03-02T10:37:33.000Z</time></trkpt>
<trkpt lat="42.169924" lon="23.364918"><ele>2693.2</ele><time>2026-03-02T10:37:34.000Z</time></trkpt>
<trkpt lat="42.169924" lon="23.36492"><ele>2693.1</ele><time>2026-03-02T10:37:35.000Z</time></trkpt>
<trkpt lat="42.169923" lon="23.364925"><ele>2693.1</ele><time>2026-03-02T10:37:36.000Z</time></trkpt>
<trkpt lat="42.169921" lon="23.364932"><ele>2693.1</ele><time>2026-03-02T10:37:37.000Z</time></trkpt>
<trkpt lat="42.169918" lon="23.364941"><ele>2693.1</ele><time>2026-03-02T10:37:38.000Z</time></trkpt>
<trkpt lat="42.169913" lon="23.364951"><ele>2693.1</ele><time>2026-03-02T10:37:39.000Z</time></trkpt>
<trkpt lat="42.169908" lon="23.364959"><ele>2693.1</ele><time>2026-03-02T10:37:40.000Z</time></trkpt>
<trkpt lat="42.169904" lon="23.364965"><ele>2693.1</ele><time>2026-03-02T10:37:41.000Z</time></trkpt>
<trkpt lat="42.1699" lon="23.364971"><ele>2693.1</ele><time>2026-03-02T10:37:42.000Z</time></trkpt>
<trkpt lat="42.169899" lon="23.364978"><ele>2693.1</ele><time>2026-03-02T10:37:43.000Z</time></trkpt>
<trkpt lat="42.169899" lon="23.364986"><ele>2693.1</ele><time>2026-03-02T10:37:44.000Z</time></trkpt>
<trkpt lat="42.1699" lon="23.364996"><ele>2693.3</ele><time>2026-03-02T10:37:45.000Z</time></trkpt>
<trkpt lat="42.169901" lon="23.365008"><ele>2693.3</ele><time>2026-03-02T10:37:46.000Z</time></trkpt>
<trkpt lat="42.169903" lon="23.36502"><ele>2693.3</ele><time>2026-03-02T10:37:47.000Z</time></trkpt>
<trkpt lat="42.169905" lon="23.365032"><ele>2693.3</ele><time>2026-03-02T10:37:48.000Z</time></trkpt>
<trkpt lat="42.169907" lon="23.365043"><ele>2693.3</ele><time>2026-03-02T10:37:49.000Z</time></trkpt>
<trkpt lat="42.169908" lon="23.365053"><ele>2693.9</ele><time>2026-03-02T10:37:50.000Z</time></trkpt>
<trkpt lat="42.169908" lon="23.365061"><ele>2693.9</ele><time>2026-03-02T10:37:51.000Z</time></trkpt>
<trkpt lat="42.169908" lon="23.365067"><ele>2693.9</ele><time>2026-03-02T10:37:52.000Z</time></trkpt>
<trkpt lat="42.169909" lon="23.365072"><ele>2693.9</ele><time>2026-03-02T10:37:53.000Z</time></trkpt>
<trkpt lat="42.16991" lon="23.365076"><ele>2693.9</ele><time>2026-03-02T10:37:54.000Z</time></trkpt>
<trkpt lat="42.169911" lon="23.365078"><ele>2694.1</ele><time>2026-03-02T10:37:55.000Z</time></trkpt>
<trkpt lat="42.169914" lon="23.365081"><ele>2694.1</ele><time>2026-03-02T10:37:56.000Z</time></trkpt>
<trkpt lat="42.169917" lon="23.365086"><ele>2694.1</ele><time>2026-03-02T10:37:57.000Z</time></trkpt>
<trkpt lat="42.16992" lon="23.36509"><ele>2694.1</ele><time>2026-03-02T10:37:58.000Z</time></trkpt>
<trkpt lat="42.169923" lon="23.365095"><ele>2694.1</ele><time>2026-03-02T10:37:59.000Z</time></trkpt>
<trkpt lat="42.169926" lon="23.3651"><ele>2694.3</ele><time>2026-03-02T10:38:00.000Z</time></trkpt>
<trkpt lat="42.169929" lon="23.365105"><ele>2694.3</ele><time>2026-03-02T10:38:01.000Z</time></trkpt>
<trkpt lat="42.169932" lon="23.365109"><ele>2694.3</ele><time>2026-03-02T10:38:02.000Z</time></trkpt>
<trkpt lat="42.169935" lon="23.365112"><ele>2694.3</ele><time>2026-03-02T10:38:03.000Z</time></trkpt>
<trkpt lat="42.169937" lon="23.365116"><ele>2694.3</ele><time>2026-03-02T10:38:04.000Z</time></trkpt>
<trkpt lat="42.169939" lon="23.365119"><ele>2693.9</ele><time>2026-03-02T10:38:05.000Z</time></trkpt>
<trkpt lat="42.16994" lon="23.36512"><ele>2693.9</ele><time>2026-03-02T10:38:06.000Z</time></trkpt>
<trkpt lat="42.169942" lon="23.365119"><ele>2693.9</ele><time>2026-03-02T10:38:07.000Z</time></trkpt>
<trkpt lat="42.169945" lon="23.365115"><ele>2693.9</ele><time>2026-03-02T10:38:08.000Z</time></trkpt>
<trkpt lat="42.169948" lon="23.36511"><ele>2693.9</ele><time>2026-03-02T10:38:09.000Z</time></trkpt>
<trkpt lat="42.169953" lon="23.365105"><ele>2693.6</ele><time>2026-03-02T10:38:10.000Z</time></trkpt>
<trkpt lat="42.169959" lon="23.365102"><ele>2693.6</ele><time>2026-03-02T10:38:11.000Z</time></trkpt>
<trkpt lat="42.169964" lon="23.365101"><ele>2693.6</ele><time>2026-03-02T10:38:12.000Z</time></trkpt>
<trkpt lat="42.169969" lon="23.365103"><ele>2693.6</ele><time>2026-03-02T10:38:13.000Z</time></trkpt>
<trkpt lat="42.169974" lon="23.365106"><ele>2693.6</ele><time>2026-03-02T10:38:14.000Z</time></trkpt>
<trkpt lat="42.169979" lon="23.365108"><ele>2692.6</ele><time>2026-03-02T10:38:15.000Z</time></trkpt>
<trkpt lat="42.169983" lon="23.365109"><ele>2692.6</ele><time>2026-03-02T10:38:16.000Z</time></trkpt>
<trkpt lat="42.169986" lon="23.365111"><ele>2692.6</ele><time>2026-03-02T10:38:17.000Z</time></trkpt>
<trkpt lat="42.169988" lon="23.365112"><ele>2692.6</ele><time>2026-03-02T10:38:18.000Z</time></trkpt>
<trkpt lat="42.16999" lon="23.365113"><ele>2692.6</ele><time>2026-03-02T10:38:19.000Z</time></trkpt>
<trkpt lat="42.16999" lon="23.365116"><ele>2691.4</ele><time>2026-03-02T10:38:20.000Z</time></trkpt>
<trkpt lat="42.169992" lon="23.365118"><ele>2691.4</ele><time>2026-03-02T10:38:21.000Z</time></trkpt>
<trkpt lat="42.169993" lon="23.36512"><ele>2691.4</ele><time>2026-03-02T10:38:22.000Z</time></trkpt>
<trkpt lat="42.169994" lon="23.365122"><ele>2691.4</ele><time>2026-03-02T10:38:23.000Z</time></trkpt>
<trkpt lat="42.169994" lon="23.365124"><ele>2691.4</ele><time>2026-03-02T10:38:24.000Z</time></trkpt>
<trkpt lat="42.169994" lon="23.365125"><ele>2690.8</ele><time>2026-03-02T10:38:25.000Z</time></trkpt>
<trkpt lat="42.169993" lon="23.365126"><ele>2690.8</ele><time>2026-03-02T10:38:26.000Z</time></trkpt>
<trkpt lat="42.169991" lon="23.365126"><ele>2690.8</ele><time>2026-03-02T10:38:27.000Z</time></trkpt>
<trkpt lat="42.16999" lon="23.365127"><ele>2690.8</ele><time>2026-03-02T10:38:28.000Z</time></trkpt>
<trkpt lat="42.169991" lon="23.365128"><ele>2690.8</ele><time>2026-03-02T10:38:29.000Z</time></trkpt>
<trkpt lat="42.169992" lon="23.36513"><ele>2689.8</ele><time>2026-03-02T10:38:30.000Z</time></trkpt>
<trkpt lat="42.169995" lon="23.365132"><ele>2689.8</ele><time>2026-03-02T10:38:31.000Z</time></trkpt>
<trkpt lat="42.169996" lon="23.365134"><ele>2689.8</ele><time>2026-03-02T10:38:32.000Z</time></trkpt>
<trkpt lat="42.169998" lon="23.365135"><ele>2689.8</ele><time>2026-03-02T10:38:33.000Z</time></trkpt>
<trkpt lat="42.169999" lon="23.365136"><ele>2689.8</ele><time>2026-03-02T10:38:34.000Z</time></trkpt>
<trkpt lat="42.169999" lon="23.365135"><ele>2689.3</ele><time>2026-03-02T10:38:35.000Z</time></trkpt>
<trkpt lat="42.169999" lon="23.365134"><ele>2689.3</ele><time>2026-03-02T10:38:36.000Z</time></trkpt>
<trkpt lat="42.169999" lon="23.365133"><ele>2689.3</ele><time>2026-03-02T10:38:37.000Z</time></trkpt>
<trkpt lat="42.169999" lon="23.365132"><ele>2689.3</ele><time>2026-03-02T10:38:38.000Z</time></trkpt>
<trkpt lat="42.169999" lon="23.365131"><ele>2689.3</ele><time>2026-03-02T10:38:39.000Z</time></trkpt>
<trkpt lat="42.169999" lon="23.365131"><ele>2689.1</ele><time>2026-03-02T10:38:40.000Z</time></trkpt>
<trkpt lat="42.169999" lon="23.36513"><ele>2689.1</ele><time>2026-03-02T10:38:41.000Z</time></trkpt>
<trkpt lat="42.169999" lon="23.36513"><ele>2689.1</ele><time>2026-03-02T10:38:42.000Z</time></trkpt>
<trkpt lat="42.169999" lon="23.36513"><ele>2689.1</ele><time>2026-03-02T10:38:43.000Z</time></trkpt>
<trkpt lat="42.169999" lon="23.36513"><ele>2689.1</ele><time>2026-03-02T10:38:44.000Z</time></trkpt>
<trkpt lat="42.17" lon="23.36513"><ele>2688.9</ele><time>2026-03-02T10:38:45.000Z</time></trkpt>
<trkpt lat="42.17" lon="23.36513"><ele>2688.9</ele><time>2026-03-02T10:38:46.000Z</time></trkpt>
<trkpt lat="42.17" lon="23.36513"><ele>2688.9</ele><time>2026-03-02T10:38:47.000Z</time></trkpt>
<trkpt lat="42.170001" lon="23.36513"><ele>2688.9</ele><time>2026-03-02T10:38:48.000Z</time></trkpt>
<trkpt lat="42.170001" lon="23.36513"><ele>2688.9</ele><time>2026-03-02T10:38:49.000Z</time></trkpt>
<trkpt lat="42.170001" lon="23.36513"><ele>2688.7</ele><time>2026-03-02T10:38:50.000Z</time></trkpt>
<trkpt lat="42.170001" lon="23.36513"><ele>2688.7</ele><time>2026-03-02T10:38:51.000Z</time></trkpt>
<trkpt lat="42.170001" lon="23.36513"><ele>2688.7</ele><time>2026-03-02T10:38:52.000Z</time></trkpt>
<trkpt lat="42.170001" lon="23.36513"><ele>2688.7</ele><time>2026-03-02T10:38:53.000Z</time></trkpt>
<trkpt lat="42.170001" lon="23.36513"><ele>2688.7</ele><time>2026-03-02T10:38:54.000Z</time></trkpt>
<trkpt lat="42.170001" lon="23.36513"><ele>2688.6</ele><time>2026-03-02T10:38:55.000Z</time></trkpt>
<trkpt lat="42.170001" lon="23.36513"><ele>2688.6</ele><time>2026-03-02T10:38:56.000Z</time></trkpt>
<trkpt lat="42.170001" lon="23.36513"><ele>2688.6</ele><time>2026-03-02T10:38:57.000Z</time></trkpt>
<trkpt lat="42.170001" lon="23.36513"><ele>2688.6</ele><time>2026-03-02T10:38:58.000Z</time></trkpt>
<trkpt lat="42.170002" lon="23.365131"><ele>2688.6</ele><time>2026-03-02T10:38:59.000Z</time></trkpt>
<trkpt lat="42.170004" lon="23.365134"><ele>2688.7</ele><time>2026-03-02T10:39:00.000Z</time></trkpt>
<trkpt lat="42.170007" lon="23.365139"><ele>2688.7</ele><time>2026-03-02T10:39:01.000Z</time></trkpt>
<trkpt lat="42.170011" lon="23.365147"><ele>2688.7</ele><time>2026-03-02T10:39:02.000Z</time></trkpt>
<trkpt lat="42.170015" lon="23.365158"><ele>2688.7</ele><time>2026-03-02T10:39:03.000Z</time></trkpt>
<trkpt lat="42.17002" lon="23.36517"><ele>2688.7</ele><time>2026-03-02T10:39:04.000Z</time></trkpt>
<trkpt lat="42.170024" lon="23.365183"><ele>2688.8</ele><time>2026-03-02T10:39:05.000Z</time></trkpt>
<trkpt lat="42.170029" lon="23.365195"><ele>2688.8</ele><time>2026-03-02T10:39:06.000Z</time></trkpt>
<trkpt lat="42.170034" lon="23.365208"><ele>2688.8</ele><time>2026-03-02T10:39:07.000Z</time></trkpt>
<trkpt lat="42.17004" lon="23.365221"><ele>2688.8</ele><time>2026-03-02T10:39:08.000Z</time></trkpt>
<trkpt lat="42.170047" lon="23.365235"><ele>2688.8</ele><time>2026-03-02T10:39:09.000Z</time></trkpt>
<trkpt lat="42.170053" lon="23.36525"><ele>2688.8</ele><time>2026-03-02T10:39:10.000Z</time></trkpt>
<trkpt lat="42.170059" lon="23.365265"><ele>2688.8</ele><time>2026-03-02T10:39:11.000Z</time></trkpt>
<trkpt lat="42.170065" lon="23.36528"><ele>2688.8</ele><time>2026-03-02T10:39:12.000Z</time></trkpt>
<trkpt lat="42.170069" lon="23.365294"><ele>2688.8</ele><time>2026-03-02T10:39:13.000Z</time></trkpt>
<trkpt lat="42.170074" lon="23.365307"><ele>2688.8</ele><time>2026-03-02T10:39:14.000Z</time></trkpt>
<trkpt lat="42.170078" lon="23.365318"><ele>2688.2</ele><time>2026-03-02T10:39:15.000Z</time></trkpt>
<trkpt lat="42.170083" lon="23.365329"><ele>2688.2</ele><time>2026-03-02T10:39:16.000Z</time></trkpt>
<trkpt lat="42.170088" lon="23.365339"><ele>2688.2</ele><time>2026-03-02T10:39:17.000Z</time></trkpt>
<trkpt lat="42.170094" lon="23.365349"><ele>2688.2</ele><time>2026-03-02T10:39:18.000Z</time></trkpt>
<trkpt lat="42.170099" lon="23.365358"><ele>2688.2</ele><time>2026-03-02T10:39:19.000Z</time></trkpt>
<trkpt lat="42.170105" lon="23.365368"><ele>2686.8</ele><time>2026-03-02T10:39:20.000Z</time></trkpt>
<trkpt lat="42.170112" lon="23.365377"><ele>2686.8</ele><time>2026-03-02T10:39:21.000Z</time></trkpt>
<trkpt lat="42.170119" lon="23.365386"><ele>2686.8</ele><time>2026-03-02T10:39:22.000Z</time></trkpt>
<trkpt lat="42.170127" lon="23.365396"><ele>2686.8</ele><time>2026-03-02T10:39:23.000Z</time></trkpt>
<trkpt lat="42.170134" lon="23.365405"><ele>2686.8</ele><time>2026-03-02T10:39:24.000Z</time></trkpt>
<trkpt lat="42.170142" lon="23.365414"><ele>2685.9</ele><time>2026-03-02T10:39:25.000Z</time></trkpt>
<trkpt lat="42.170149" lon="23.365423"><ele>2685.9</ele><time>2026-03-02T10:39:26.000Z</time></trkpt>
<trkpt lat="42.170156" lon="23.365432"><ele>2685.9</ele><time>2026-03-02T10:39:27.000Z</time></trkpt>
<trkpt lat="42.170163" lon="23.365442"><ele>2685.9</ele><time>2026-03-02T10:39:28.000Z</time></trkpt>
<trkpt lat="42.170171" lon="23.365454"><ele>2685.9</ele><time>2026-03-02T10:39:29.000Z</time></trkpt>
<trkpt lat="42.170178" lon="23.365466"><ele>2684</ele><time>2026-03-02T10:39:30.000Z</time></trkpt>
<trkpt lat="42.170186" lon="23.365479"><ele>2684</ele><time>2026-03-02T10:39:31.000Z</time></trkpt>
<trkpt lat="42.170194" lon="23.365493"><ele>2684</ele><time>2026-03-02T10:39:32.000Z</time></trkpt>
<trkpt lat="42.170201" lon="23.365508"><ele>2684</ele><time>2026-03-02T10:39:33.000Z</time></trkpt>
<trkpt lat="42.170207" lon="23.365523"><ele>2684</ele><time>2026-03-02T10:39:34.000Z</time></trkpt>
<trkpt lat="42.170213" lon="23.365537"><ele>2682</ele><time>2026-03-02T10:39:35.000Z</time></trkpt>
<trkpt lat="42.170218" lon="23.365551"><ele>2682</ele><time>2026-03-02T10:39:36.000Z</time></trkpt>
<trkpt lat="42.170223" lon="23.365564"><ele>2682</ele><time>2026-03-02T10:39:37.000Z</time></trkpt>
<trkpt lat="42.170228" lon="23.365576"><ele>2682</ele><time>2026-03-02T10:39:38.000Z</time></trkpt>
<trkpt lat="42.170234" lon="23.365587"><ele>2682</ele><time>2026-03-02T10:39:39.000Z</time></trkpt>
<trkpt lat="42.17024" lon="23.365598"><ele>2681</ele><time>2026-03-02T10:39:40.000Z</time></trkpt>
<trkpt lat="42.170247" lon="23.36561"><ele>2681</ele><time>2026-03-02T10:39:41.000Z</time></trkpt>
<trkpt lat="42.170254" lon="23.365621"><ele>2681</ele><time>2026-03-02T10:39:42.000Z</time></trkpt>
<trkpt lat="42.170262" lon="23.365633"><ele>2681</ele><time>2026-03-02T10:39:43.000Z</time></trkpt>
<trkpt lat="42.170269" lon="23.365644"><ele>2681</ele><time>2026-03-02T10:39:44.000Z</time></trkpt>
<trkpt lat="42.170277" lon="23.365657"><ele>2679.1</ele><time>2026-03-02T10:39:45.000Z</time></trkpt>
<trkpt lat="42.170284" lon="23.365669"><ele>2679.1</ele><time>2026-03-02T10:39:46.000Z</time></trkpt>
<trkpt lat="42.170292" lon="23.365681"><ele>2679.1</ele><time>2026-03-02T10:39:47.000Z</time></trkpt>
<trkpt lat="42.170299" lon="23.365693"><ele>2679.1</ele><time>2026-03-02T10:39:48.000Z</time></trkpt>
<trkpt lat="42.170306" lon="23.365704"><ele>2679.1</ele><time>2026-03-02T10:39:49.000Z</time></trkpt>
<trkpt lat="42.170313" lon="23.365714"><ele>2677.4</ele><time>2026-03-02T10:39:50.000Z</time></trkpt>
<trkpt lat="42.17032" lon="23.365723"><ele>2677.4</ele><time>2026-03-02T10:39:51.000Z</time></trkpt>
<trkpt lat="42.170326" lon="23.365732"><ele>2677.4</ele><time>2026-03-02T10:39:52.000Z</time></trkpt>
<trkpt lat="42.170331" lon="23.36574"><ele>2677.4</ele><time>2026-03-02T10:39:53.000Z</time></trkpt>
<trkpt lat="42.170337" lon="23.365749"><ele>2677.4</ele><time>2026-03-02T10:39:54.000Z</time></trkpt>
<trkpt lat="42.170343" lon="23.365758"><ele>2676.6</ele><time>2026-03-02T10:39:55.000Z</time></trkpt>
<trkpt lat="42.170349" lon="23.365767"><ele>2676.6</ele><time>2026-03-02T10:39:56.000Z</time></trkpt>
<trkpt lat="42.170354" lon="23.365776"><ele>2676.6</ele><time>2026-03-02T10:39:57.000Z</time></trkpt>
<trkpt lat="42.170361" lon="23.365785"><ele>2676.6</ele><time>2026-03-02T10:39:58.000Z</time></trkpt>
<trkpt lat="42.170367" lon="23.365794"><ele>2676.6</ele><time>2026-03-02T10:39:59.000Z</time></trkpt>
<trkpt lat="42.170374" lon="23.365803"><ele>2675</ele><time>2026-03-02T10:40:00.000Z</time></trkpt>
<trkpt lat="42.170381" lon="23.365812"><ele>2675</ele><time>2026-03-02T10:40:01.000Z</time></trkpt>
<trkpt lat="42.170388" lon="23.365821"><ele>2675</ele><time>2026-03-02T10:40:02.000Z</time></trkpt>
<trkpt lat="42.170396" lon="23.365829"><ele>2675</ele><time>2026-03-02T10:40:03.000Z</time></trkpt>
<trkpt lat="42.170404" lon="23.365837"><ele>2675</ele><time>2026-03-02T10:40:04.000Z</time></trkpt>
<trkpt lat="42.170412" lon="23.365846"><ele>2673.3</ele><time>2026-03-02T10:40:05.000Z</time></trkpt>
<trkpt lat="42.170421" lon="23.365854"><ele>2673.3</ele><time>2026-03-02T10:40:06.000Z</time></trkpt>
<trkpt lat="42.17043" lon="23.365862"><ele>2673.3</ele><time>2026-03-02T10:40:07.000Z</time></trkpt>
<trkpt lat="42.170439" lon="23.36587"><ele>2673.3</ele><time>2026-03-02T10:40:08.000Z</time></trkpt>
<trkpt lat="42.170449" lon="23.365878"><ele>2673.3</ele><time>2026-03-02T10:40:09.000Z</time></trkpt>
<trkpt lat="42.170459" lon="23.365885"><ele>2672.4</ele><time>2026-03-02T10:40:10.000Z</time></trkpt>
<trkpt lat="42.170469" lon="23.365891"><ele>2672.4</ele><time>2026-03-02T10:40:11.000Z</time></trkpt>
<trkpt lat="42.170478" lon="23.365898"><ele>2672.4</ele><time>2026-03-02T10:40:12.000Z</time></trkpt>
<trkpt lat="42.170486" lon="23.365904"><ele>2672.4</ele><time>2026-03-02T10:40:13.000Z</time></trkpt>
<trkpt lat="42.170495" lon="23.365909"><ele>2672.4</ele><time>2026-03-02T10:40:14.000Z</time></trkpt>
<trkpt lat="42.170504" lon="23.365915"><ele>2670.6</ele><time>2026-03-02T10:40:15.000Z</time></trkpt>
<trkpt lat="42.170513" lon="23.365919"><ele>2670.6</ele><time>2026-03-02T10:40:16.000Z</time></trkpt>
<trkpt lat="42.170523" lon="23.365922"><ele>2670.6</ele><time>2026-03-02T10:40:17.000Z</time></trkpt>
<trkpt lat="42.170533" lon="23.365925"><ele>2670.6</ele><time>2026-03-02T10:40:18.000Z</time></trkpt>
<trkpt lat="42.170543" lon="23.365927"><ele>2670.6</ele><time>2026-03-02T10:40:19.000Z</time></trkpt>
<trkpt lat="42.170553" lon="23.365929"><ele>2668.6</ele><time>2026-03-02T10:40:20.000Z</time></trkpt>
<trkpt lat="42.170563" lon="23.365932"><ele>2668.6</ele><time>2026-03-02T10:40:21.000Z</time></trkpt>
<trkpt lat="42.170571" lon="23.365936"><ele>2668.6</ele><time>2026-03-02T10:40:22.000Z</time></trkpt>
<trkpt lat="42.170579" lon="23.36594"><ele>2668.6</ele><time>2026-03-02T10:40:23.000Z</time></trkpt>
<trkpt lat="42.170586" lon="23.365945"><ele>2668.6</ele><time>2026-03-02T10:40:24.000Z</time></trkpt>
<trkpt lat="42.170594" lon="23.365951"><ele>2667.6</ele><time>2026-03-02T10:40:25.000Z</time></trkpt>
<trkpt lat="42.170602" lon="23.365956"><ele>2667.6</ele><time>2026-03-02T10:40:26.000Z</time></trkpt>
<trkpt lat="42.17061" lon="23.365963"><ele>2667.6</ele><time>2026-03-02T10:40:27.000Z</time></trkpt>
<trkpt lat="42.170619" lon="23.365969"><ele>2667.6</ele><time>2026-03-02T10:40:28.000Z</time></trkpt>
<trkpt lat="42.170629" lon="23.365974"><ele>2667.6</ele><time>2026-03-02T10:40:29.000Z</time></trkpt>
<trkpt lat="42.170638" lon="23.365978"><ele>2665.5</ele><time>2026-03-02T10:40:30.000Z</time></trkpt>
<trkpt lat="42.170646" lon="23.365981"><ele>2665.5</ele><time>2026-03-02T10:40:31.000Z</time></trkpt>
<trkpt lat="42.170654" lon="23.365983"><ele>2665.5</ele><time>2026-03-02T10:40:32.000Z</time></trkpt>
<trkpt lat="42.170661" lon="23.365985"><ele>2665.5</ele><time>2026-03-02T10:40:33.000Z</time></trkpt>
<trkpt lat="42.170668" lon="23.365988"><ele>2665.5</ele><time>2026-03-02T10:40:34.000Z</time></trkpt>
<trkpt lat="42.170676" lon="23.365992"><ele>2663.6</ele><time>2026-03-02T10:40:35.000Z</time></trkpt>
<trkpt lat="42.170683" lon="23.365997"><ele>2663.6</ele><time>2026-03-02T10:40:36.000Z</time></trkpt>
<trkpt lat="42.17069" lon="23.366003"><ele>2663.6</ele><time>2026-03-02T10:40:37.000Z</time></trkpt>
<trkpt lat="42.170697" lon="23.366008"><ele>2663.6</ele><time>2026-03-02T10:40:38.000Z</time></trkpt>
<trkpt lat="42.1707" lon="23.366012"><ele>2663.6</ele><time>2026-03-02T10:40:39.000Z</time></trkpt>
<trkpt lat="42.170702" lon="23.366015"><ele>2662.7</ele><time>2026-03-02T10:40:40.000Z</time></trkpt>
<trkpt lat="42.170702" lon="23.366018"><ele>2662.7</ele><time>2026-03-02T10:40:41.000Z</time></trkpt>
<trkpt lat="42.170702" lon="23.366019"><ele>2662.7</ele><time>2026-03-02T10:40:42.000Z</time></trkpt>
<trkpt lat="42.170702" lon="23.366019"><ele>2662.7</ele><time>2026-03-02T10:40:43.000Z</time></trkpt>
<trkpt lat="42.170704" lon="23.36602"><ele>2662.7</ele><time>2026-03-02T10:40:44.000Z</time></trkpt>
<trkpt lat="42.170708" lon="23.366021"><ele>2660.9</ele><time>2026-03-02T10:40:45.000Z</time></trkpt>
<trkpt lat="42.170712" lon="23.366023"><ele>2660.9</ele><time>2026-03-02T10:40:46.000Z</time></trkpt>
<trkpt lat="42.170716" lon="23.366026"><ele>2660.9</ele><time>2026-03-02T10:40:47.000Z</time></trkpt>
<trkpt lat="42.170721" lon="23.366029"><ele>2660.9</ele><time>2026-03-02T10:40:48.000Z</time></trkpt>
<trkpt lat="42.170726" lon="23.366032"><ele>2660.9</ele><time>2026-03-02T10:40:49.000Z</time></trkpt>
<trkpt lat="42.170731" lon="23.366034"><ele>2659</ele><time>2026-03-02T10:40:50.000Z</time></trkpt>
<trkpt lat="42.170735" lon="23.366035"><ele>2659</ele><time>2026-03-02T10:40:51.000Z</time></trkpt>
<trkpt lat="42.170741" lon="23.366037"><ele>2659</ele><time>2026-03-02T10:40:52.000Z</time></trkpt>
<trkpt lat="42.170746" lon="23.366039"><ele>2659</ele><time>2026-03-02T10:40:53.000Z</time></trkpt>
<trkpt lat="42.170752" lon="23.36604"><ele>2659</ele><time>2026-03-02T10:40:54.000Z</time></trkpt>
<trkpt lat="42.170759" lon="23.366043"><ele>2658.1</ele><time>2026-03-02T10:40:55.000Z</time></trkpt>
<trkpt lat="42.170766" lon="23.366046"><ele>2658.1</ele><time>2026-03-02T10:40:56.000Z</time></trkpt>
<trkpt lat="42.170773" lon="23.366049"><ele>2658.1</ele><time>2026-03-02T10:40:57.000Z</time></trkpt>
<trkpt lat="42.17078" lon="23.366051"><ele>2658.1</ele><time>2026-03-02T10:40:58.000Z</time></trkpt>
<trkpt lat="42.170788" lon="23.366054"><ele>2658.1</ele><time>2026-03-02T10:40:59.000Z</time></trkpt>
<trkpt lat="42.170795" lon="23.366057"><ele>2656.4</ele><time>2026-03-02T10:41:00.000Z</time></trkpt>
<trkpt lat="42.170803" lon="23.366059"><ele>2656.4</ele><time>2026-03-02T10:41:01.000Z</time></trkpt>
<trkpt lat="42.170811" lon="23.366062"><ele>2656.4</ele><time>2026-03-02T10:41:02.000Z</time></trkpt>
<trkpt lat="42.17082" lon="23.366065"><ele>2656.4</ele><time>2026-03-02T10:41:03.000Z</time></trkpt>
<trkpt lat="42.170829" lon="23.366068"><ele>2656.4</ele><time>2026-03-02T10:41:04.000Z</time></trkpt>
<trkpt lat="42.170837" lon="23.366072"><ele>2654.7</ele><time>2026-03-02T10:41:05.000Z</time></trkpt>
<trkpt lat="42.170847" lon="23.366076"><ele>2654.7</ele><time>2026-03-02T10:41:06.000Z</time></trkpt>
<trkpt lat="42.170856" lon="23.366079"><ele>2654.7</ele><time>2026-03-02T10:41:07.000Z</time></trkpt>
<trkpt lat="42.170865" lon="23.366082"><ele>2654.7</ele><time>2026-03-02T10:41:08.000Z</time></trkpt>
<trkpt lat="42.170874" lon="23.366085"><ele>2654.7</ele><time>2026-03-02T10:41:09.000Z</time></trkpt>
<trkpt lat="42.170883" lon="23.366088"><ele>2653.8</ele><time>2026-03-02T10:41:10.000Z</time></trkpt>
<trkpt lat="42.170892" lon="23.36609"><ele>2653.8</ele><time>2026-03-02T10:41:11.000Z</time></trkpt>
<trkpt lat="42.1709" lon="23.366092"><ele>2653.8</ele><time>2026-03-02T10:41:12.000Z</time></trkpt>
<trkpt lat="42.170908" lon="23.366094"><ele>2653.8</ele><time>2026-03-02T10:41:13.000Z</time></trkpt>
<trkpt lat="42.170917" lon="23.366095"><ele>2653.8</ele><time>2026-03-02T10:41:14.000Z</time></trkpt>
<trkpt lat="42.170925" lon="23.366097"><ele>2651.9</ele><time>2026-03-02T10:41:15.000Z</time></trkpt>
<trkpt lat="42.170932" lon="23.3661"><ele>2651.9</ele><time>2026-03-02T10:41:16.000Z</time></trkpt>
<trkpt lat="42.17094" lon="23.366102"><ele>2651.9</ele><time>2026-03-02T10:41:17.000Z</time></trkpt>
<trkpt lat="42.170946" lon="23.366104"><ele>2651.9</ele><time>2026-03-02T10:41:18.000Z</time></trkpt>
<trkpt lat="42.170951" lon="23.366106"><ele>2651.9</ele><time>2026-03-02T10:41:19.000Z</time></trkpt>
<trkpt lat="42.170955" lon="23.366108"><ele>2650.1</ele><time>2026-03-02T10:41:20.000Z</time></trkpt>
<trkpt lat="42.170958" lon="23.366109"><ele>2650.1</ele><time>2026-03-02T10:41:21.000Z</time></trkpt>
<trkpt lat="42.17096" lon="23.366109"><ele>2650.1</ele><time>2026-03-02T10:41:22.000Z</time></trkpt>
<trkpt lat="42.17096" lon="23.36611"><ele>2650.1</ele><time>2026-03-02T10:41:23.000Z</time></trkpt>
<trkpt lat="42.170961" lon="23.36611"><ele>2650.1</ele><time>2026-03-02T10:41:24.000Z</time></trkpt>
<trkpt lat="42.170961" lon="23.366111"><ele>2649.3</ele><time>2026-03-02T10:41:25.000Z</time></trkpt>
<trkpt lat="42.170961" lon="23.366111"><ele>2649.3</ele><time>2026-03-02T10:41:26.000Z</time></trkpt>
<trkpt lat="42.170962" lon="23.366112"><ele>2649.3</ele><time>2026-03-02T10:41:27.000Z</time></trkpt>
<trkpt lat="42.170962" lon="23.366113"><ele>2649.3</ele><time>2026-03-02T10:41:28.000Z</time></trkpt>
<trkpt lat="42.170962" lon="23.366113"><ele>2649.3</ele><time>2026-03-02T10:41:29.000Z</time></trkpt>
<trkpt lat="42.170962" lon="23.366114"><ele>2648</ele><time>2026-03-02T10:41:30.000Z</time></trkpt>
<trkpt lat="42.170962" lon="23.366114"><ele>2648</ele><time>2026-03-02T10:41:31.000Z</time></trkpt>
<trkpt lat="42.170962" lon="23.366114"><ele>2648</ele><time>2026-03-02T10:41:32.000Z</time></trkpt>
<trkpt lat="42.170962" lon="23.366114"><ele>2648</ele><time>2026-03-02T10:41:33.000Z</time></trkpt>
<trkpt lat="42.170962" lon="23.366114"><ele>2648</ele><time>2026-03-02T10:41:34.000Z</time></trkpt>
<trkpt lat="42.170962" lon="23.366114"><ele>2647.4</ele><time>2026-03-02T10:41:35.000Z</time></trkpt>
<trkpt lat="42.170962" lon="23.366114"><ele>2647.4</ele><time>2026-03-02T10:41:36.000Z</time></trkpt>
<trkpt lat="42.170962" lon="23.366114"><ele>2647.4</ele><time>2026-03-02T10:41:37.000Z</time></trkpt>
<trkpt lat="42.170962" lon="23.366114"><ele>2647.4</ele><time>2026-03-02T10:41:38.000Z</time></trkpt>
<trkpt lat="42.170962" lon="23.366114"><ele>2647.4</ele><time>2026-03-02T10:41:39.000Z</time></trkpt>
<trkpt lat="42.170962" lon="23.366114"><ele>2647.3</ele><time>2026-03-02T10:41:40.000Z</time></trkpt>
<trkpt lat="42.170962" lon="23.366114"><ele>2647.3</ele><time>2026-03-02T10:41:41.000Z</time></trkpt>
<trkpt lat="42.170962" lon="23.366114"><ele>2647.3</ele><time>2026-03-02T10:41:42.000Z</time></trkpt>
<trkpt lat="42.170962" lon="23.366114"><ele>2647.3</ele><time>2026-03-02T10:41:43.000Z</time></trkpt>
<trkpt lat="42.170962" lon="23.366114"><ele>2647.3</ele><time>2026-03-02T10:41:44.000Z</time></trkpt>
<trkpt lat="42.170962" lon="23.366114"><ele>2647.3</ele><time>2026-03-02T10:41:45.000Z</time></trkpt>
<trkpt lat="42.170962" lon="23.366114"><ele>2647.3</ele><time>2026-03-02T10:41:46.000Z</time></trkpt>
<trkpt lat="42.170963" lon="23.366114"><ele>2647.3</ele><time>2026-03-02T10:41:47.000Z</time></trkpt>
<trkpt lat="42.170964" lon="23.366115"><ele>2647.3</ele><time>2026-03-02T10:41:48.000Z</time></trkpt>
<trkpt lat="42.170964" lon="23.366116"><ele>2647.3</ele><time>2026-03-02T10:41:49.000Z</time></trkpt>
<trkpt lat="42.170965" lon="23.366117"><ele>2647.4</ele><time>2026-03-02T10:41:50.000Z</time></trkpt>
<trkpt lat="42.170965" lon="23.366118"><ele>2647.4</ele><time>2026-03-02T10:41:51.000Z</time></trkpt>
<trkpt lat="42.170965" lon="23.366119"><ele>2647.4</ele><time>2026-03-02T10:41:52.000Z</time></trkpt>
<trkpt lat="42.170965" lon="23.36612"><ele>2647.4</ele><time>2026-03-02T10:41:53.000Z</time></trkpt>
<trkpt lat="42.170966" lon="23.366121"><ele>2647.4</ele><time>2026-03-02T10:41:54.000Z</time></trkpt>
<trkpt lat="42.170969" lon="23.366123"><ele>2647.5</ele><time>2026-03-02T10:41:55.000Z</time></trkpt>
<trkpt lat="42.170973" lon="23.366124"><ele>2647.5</ele><time>2026-03-02T10:41:56.000Z</time></trkpt>
<trkpt lat="42.170979" lon="23.366127"><ele>2647.5</ele><time>2026-03-02T10:41:57.000Z</time></trkpt>
<trkpt lat="42.170987" lon="23.366129"><ele>2647.5</ele><time>2026-03-02T10:41:58.000Z</time></trkpt>
<trkpt lat="42.170995" lon="23.366132"><ele>2647.5</ele><time>2026-03-02T10:41:59.000Z</time></trkpt>
<trkpt lat="42.171003" lon="23.366135"><ele>2647.4</ele><time>2026-03-02T10:42:00.000Z</time></trkpt>
<trkpt lat="42.171012" lon="23.366138"><ele>2647.4</ele><time>2026-03-02T10:42:01.000Z</time></trkpt>
<trkpt lat="42.17102" lon="23.36614"><ele>2647.4</ele><time>2026-03-02T10:42:02.000Z</time></trkpt>
<trkpt lat="42.171029" lon="23.366142"><ele>2647.4</ele><time>2026-03-02T10:42:03.000Z</time></trkpt>
<trkpt lat="42.171038" lon="23.366144"><ele>2647.4</ele><time>2026-03-02T10:42:04.000Z</time></trkpt>
<trkpt lat="42.171046" lon="23.366145"><ele>2647.1</ele><time>2026-03-02T10:42:05.000Z</time></trkpt>
<trkpt lat="42.171054" lon="23.366146"><ele>2647.1</ele><time>2026-03-02T10:42:06.000Z</time></trkpt>
<trkpt lat="42.171063" lon="23.366148"><ele>2647.1</ele><time>2026-03-02T10:42:07.000Z</time></trkpt>
<trkpt lat="42.171072" lon="23.366149"><ele>2647.1</ele><time>2026-03-02T10:42:08.000Z</time></trkpt>
<trkpt lat="42.17108" lon="23.366151"><ele>2647.1</ele><time>2026-03-02T10:42:09.000Z</time></trkpt>
<trkpt lat="42.171089" lon="23.366153"><ele>2646.7</ele><time>2026-03-02T10:42:10.000Z</time></trkpt>
<trkpt lat="42.171099" lon="23.366153"><ele>2646.7</ele><time>2026-03-02T10:42:11.000Z</time></trkpt>
<trkpt lat="42.171107" lon="23.366154"><ele>2646.7</ele><time>2026-03-02T10:42:12.000Z</time></trkpt>
<trkpt lat="42.171115" lon="23.366155"><ele>2646.7</ele><time>2026-03-02T10:42:13.000Z</time></trkpt>
<trkpt lat="42.171123" lon="23.366155"><ele>2646.7</ele><time>2026-03-02T10:42:14.000Z</time></trkpt>
<trkpt lat="42.17113" lon="23.366156"><ele>2645.8</ele><time>2026-03-02T10:42:15.000Z</time></trkpt>
<trkpt lat="42.171136" lon="23.366157"><ele>2645.8</ele><time>2026-03-02T10:42:16.000Z</time></trkpt>
<trkpt lat="42.171143" lon="23.366157"><ele>2645.8</ele><time>2026-03-02T10:42:17.000Z</time></trkpt>
<trkpt lat="42.17115" lon="23.366157"><ele>2645.8</ele><time>2026-03-02T10:42:18.000Z</time></trkpt>
<trkpt lat="42.171156" lon="23.366157"><ele>2645.8</ele><time>2026-03-02T10:42:19.000Z</time></trkpt>
<trkpt lat="42.171163" lon="23.366156"><ele>2644.7</ele><time>2026-03-02T10:42:20.000Z</time></trkpt>
<trkpt lat="42.171169" lon="23.366156"><ele>2644.7</ele><time>2026-03-02T10:42:21.000Z</time></trkpt>
<trkpt lat="42.171175" lon="23.366156"><ele>2644.7</ele><time>2026-03-02T10:42:22.000Z</time></trkpt>
<trkpt lat="42.171181" lon="23.366156"><ele>2644.7</ele><time>2026-03-02T10:42:23.000Z</time></trkpt>
<trkpt lat="42.171188" lon="23.366155"><ele>2644.7</ele><time>2026-03-02T10:42:24.000Z</time></trkpt>
<trkpt lat="42.171194" lon="23.366154"><ele>2644.1</ele><time>2026-03-02T10:42:25.000Z</time></trkpt>
<trkpt lat="42.1712" lon="23.366153"><ele>2644.1</ele><time>2026-03-02T10:42:26.000Z</time></trkpt>
<trkpt lat="42.171207" lon="23.366152"><ele>2644.1</ele><time>2026-03-02T10:42:27.000Z</time></trkpt>
<trkpt lat="42.171212" lon="23.36615"><ele>2644.1</ele><time>2026-03-02T10:42:28.000Z</time></trkpt>
<trkpt lat="42.171217" lon="23.366147"><ele>2644.1</ele><time>2026-03-02T10:42:29.000Z</time></trkpt>
<trkpt lat="42.171223" lon="23.366144"><ele>2642.8</ele><time>2026-03-02T10:42:30.000Z</time></trkpt>
<trkpt lat="42.17123" lon="23.366142"><ele>2642.8</ele><time>2026-03-02T10:42:31.000Z</time></trkpt>
<trkpt lat="42.171237" lon="23.366139"><ele>2642.8</ele><time>2026-03-02T10:42:32.000Z</time></trkpt>
<trkpt lat="42.171245" lon="23.366138"><ele>2642.8</ele><time>2026-03-02T10:42:33.000Z</time></trkpt>
<trkpt lat="42.171254" lon="23.366138"><ele>2642.8</ele><time>2026-03-02T10:42:34.000Z</time></trkpt>
<trkpt lat="42.171261" lon="23.366137"><ele>2641.4</ele><time>2026-03-02T10:42:35.000Z</time></trkpt>
<trkpt lat="42.171267" lon="23.366135"><ele>2641.4</ele><time>2026-03-02T10:42:36.000Z</time></trkpt>
<trkpt lat="42.171273" lon="23.366133"><ele>2641.4</ele><time>2026-03-02T10:42:37.000Z</time></trkpt>
<trkpt lat="42.171279" lon="23.36613"><ele>2641.4</ele><time>2026-03-02T10:42:38.000Z</time></trkpt>
<trkpt lat="42.171285" lon="23.366126"><ele>2641.4</ele><time>2026-03-02T10:42:39.000Z</time></trkpt>
<trkpt lat="42.171291" lon="23.366122"><ele>2640.7</ele><time>2026-03-02T10:42:40.000Z</time></trkpt>
<trkpt lat="42.171299" lon="23.366118"><ele>2640.7</ele><time>2026-03-02T10:42:41.000Z</time></trkpt>
<trkpt lat="42.171307" lon="23.366114"><ele>2640.7</ele><time>2026-03-02T10:42:42.000Z</time></trkpt>
<trkpt lat="42.171315" lon="23.36611"><ele>2640.7</ele><time>2026-03-02T10:42:43.000Z</time></trkpt>
<trkpt lat="42.171323" lon="23.366105"><ele>2640.7</ele><time>2026-03-02T10:42:44.000Z</time></trkpt>
<trkpt lat="42.171332" lon="23.366102"><ele>2639.4</ele><time>2026-03-02T10:42:45.000Z</time></trkpt>
<trkpt lat="42.171341" lon="23.366099"><ele>2639.4</ele><time>2026-03-02T10:42:46.000Z</time></trkpt>
<trkpt lat="42.171349" lon="23.366097"><ele>2639.4</ele><time>2026-03-02T10:42:47.000Z</time></trkpt>
<trkpt lat="42.171358" lon="23.366095"><ele>2639.4</ele><time>2026-03-02T10:42:48.000Z</time></trkpt>
<trkpt lat="42.171368" lon="23.366093"><ele>2639.4</ele><time>2026-03-02T10:42:49.000Z</time></trkpt>
<trkpt lat="42.171377" lon="23.366093"><ele>2637.9</ele><time>2026-03-02T10:42:50.000Z</time></trkpt>
<trkpt lat="42.171385" lon="23.366093"><ele>2637.9</ele><time>2026-03-02T10:42:51.000Z</time></trkpt>
<trkpt lat="42.171394" lon="23.366094"><ele>2637.9</ele><time>2026-03-02T10:42:52.000Z</time></trkpt>
<trkpt lat="42.171403" lon="23.366094"><ele>2637.9</ele><time>2026-03-02T10:42:53.000Z</time></trkpt>
<trkpt lat="42.171411" lon="23.366094"><ele>2637.9</ele><time>2026-03-02T10:42:54.000Z</time></trkpt>
<trkpt lat="42.17142" lon="23.366093"><ele>2637</ele><time>2026-03-02T10:42:55.000Z</time></trkpt>
<trkpt lat="42.171429" lon="23.366091"><ele>2637</ele><time>2026-03-02T10:42:56.000Z</time></trkpt>
<trkpt lat="42.171437" lon="23.366088"><ele>2637</ele><time>2026-03-02T10:42:57.000Z</time></trkpt>
<trkpt lat="42.171444" lon="23.366086"><ele>2637</ele><time>2026-03-02T10:42:58.000Z</time></trkpt>
<trkpt lat="42.171452" lon="23.366083"><ele>2637</ele><time>2026-03-02T10:42:59.000Z</time></trkpt>
<trkpt lat="42.171459" lon="23.366081"><ele>2635.2</ele><time>2026-03-02T10:43:00.000Z</time></trkpt>
<trkpt lat="42.171465" lon="23.366077"><ele>2635.2</ele><time>2026-03-02T10:43:01.000Z</time></trkpt>
<trkpt lat="42.171472" lon="23.366074"><ele>2635.2</ele><time>2026-03-02T10:43:02.000Z</time></trkpt>
<trkpt lat="42.17148" lon="23.366069"><ele>2635.2</ele><time>2026-03-02T10:43:03.000Z</time></trkpt>
<trkpt lat="42.171487" lon="23.366065"><ele>2635.2</ele><time>2026-03-02T10:43:04.000Z</time></trkpt>
<trkpt lat="42.171495" lon="23.366062"><ele>2633.2</ele><time>2026-03-02T10:43:05.000Z</time></trkpt>
<trkpt lat="42.171503" lon="23.36606"><ele>2633.2</ele><time>2026-03-02T10:43:06.000Z</time></trkpt>
<trkpt lat="42.171511" lon="23.366056"><ele>2633.2</ele><time>2026-03-02T10:43:07.000Z</time></trkpt>
<trkpt lat="42.171518" lon="23.366054"><ele>2633.2</ele><time>2026-03-02T10:43:08.000Z</time></trkpt>
<trkpt lat="42.171526" lon="23.366049"><ele>2633.2</ele><time>2026-03-02T10:43:09.000Z</time></trkpt>
<trkpt lat="42.171535" lon="23.366044"><ele>2632.3</ele><time>2026-03-02T10:43:10.000Z</time></trkpt>
<trkpt lat="42.171543" lon="23.366037"><ele>2632.3</ele><time>2026-03-02T10:43:11.000Z</time></trkpt>
<trkpt lat="42.171552" lon="23.366031"><ele>2632.3</ele><time>2026-03-02T10:43:12.000Z</time></trkpt>
<trkpt lat="42.171561" lon="23.366024"><ele>2632.3</ele><time>2026-03-02T10:43:13.000Z</time></trkpt>
<trkpt lat="42.17157" lon="23.366017"><ele>2632.3</ele><time>2026-03-02T10:43:14.000Z</time></trkpt>
<trkpt lat="42.171579" lon="23.366011"><ele>2630.3</ele><time>2026-03-02T10:43:15.000Z</time></trkpt>
<trkpt lat="42.171588" lon="23.366005"><ele>2630.3</ele><time>2026-03-02T10:43:16.000Z</time></trkpt>
<trkpt lat="42.171597" lon="23.365997"><ele>2630.3</ele><time>2026-03-02T10:43:17.000Z</time></trkpt>
<trkpt lat="42.171607" lon="23.365989"><ele>2630.3</ele><time>2026-03-02T10:43:18.000Z</time></trkpt>
<trkpt lat="42.171616" lon="23.36598"><ele>2630.3</ele><time>2026-03-02T10:43:19.000Z</time></trkpt>
<trkpt lat="42.171625" lon="23.365971"><ele>2628.4</ele><time>2026-03-02T10:43:20.000Z</time></trkpt>
<trkpt lat="42.171633" lon="23.365961"><ele>2628.4</ele><time>2026-03-02T10:43:21.000Z</time></trkpt>
<trkpt lat="42.171641" lon="23.365951"><ele>2628.4</ele><time>2026-03-02T10:43:22.000Z</time></trkpt>
<trkpt lat="42.17165" lon="23.365942"><ele>2628.4</ele><time>2026-03-02T10:43:23.000Z</time></trkpt>
<trkpt lat="42.171657" lon="23.365933"><ele>2628.4</ele><time>2026-03-02T10:43:24.000Z</time></trkpt>
<trkpt lat="42.171666" lon="23.365924"><ele>2627.5</ele><time>2026-03-02T10:43:25.000Z</time></trkpt>
<trkpt lat="42.171675" lon="23.365917"><ele>2627.5</ele><time>2026-03-02T10:43:26.000Z</time></trkpt>
<trkpt lat="42.171684" lon="23.365912"><ele>2627.5</ele><time>2026-03-02T10:43:27.000Z</time></trkpt>
<trkpt lat="42.171694" lon="23.365907"><ele>2627.5</ele><time>2026-03-02T10:43:28.000Z</time></trkpt>
<trkpt lat="42.171703" lon="23.365902"><ele>2627.5</ele><time>2026-03-02T10:43:29.000Z</time></trkpt>
<trkpt lat="42.171713" lon="23.365897"><ele>2625.8</ele><time>2026-03-02T10:43:30.000Z</time></trkpt>
<trkpt lat="42.171723" lon="23.365892"><ele>2625.8</ele><time>2026-03-02T10:43:31.000Z</time></trkpt>
<trkpt lat="42.171733" lon="23.365886"><ele>2625.8</ele><time>2026-03-02T10:43:32.000Z</time></trkpt>
<trkpt lat="42.171743" lon="23.36588"><ele>2625.8</ele><time>2026-03-02T10:43:33.000Z</time></trkpt>
<trkpt lat="42.171753" lon="23.365875"><ele>2625.8</ele><time>2026-03-02T10:43:34.000Z</time></trkpt>
<trkpt lat="42.171763" lon="23.36587"><ele>2624.3</ele><time>2026-03-02T10:43:35.000Z</time></trkpt>
<trkpt lat="42.171773" lon="23.365866"><ele>2624.3</ele><time>2026-03-02T10:43:36.000Z</time></trkpt>
<trkpt lat="42.171782" lon="23.365863"><ele>2624.3</ele><time>2026-03-02T10:43:37.000Z</time></trkpt>
<trkpt lat="42.171793" lon="23.36586"><ele>2624.3</ele><time>2026-03-02T10:43:38.000Z</time></trkpt>
<trkpt lat="42.171803" lon="23.365857"><ele>2624.3</ele><time>2026-03-02T10:43:39.000Z</time></trkpt>
<trkpt lat="42.171814" lon="23.365855"><ele>2623.5</ele><time>2026-03-02T10:43:40.000Z</time></trkpt>
<trkpt lat="42.171824" lon="23.365855"><ele>2623.5</ele><time>2026-03-02T10:43:41.000Z</time></trkpt>
<trkpt lat="42.171833" lon="23.365855"><ele>2623.5</ele><time>2026-03-02T10:43:42.000Z</time></trkpt>
<trkpt lat="42.17184" lon="23.365857"><ele>2623.5</ele><time>2026-03-02T10:43:43.000Z</time></trkpt>
<trkpt lat="42.171845" lon="23.36586"><ele>2623.5</ele><time>2026-03-02T10:43:44.000Z</time></trkpt>
<trkpt lat="42.171849" lon="23.365863"><ele>2621.8</ele><time>2026-03-02T10:43:45.000Z</time></trkpt>
<trkpt lat="42.171852" lon="23.365866"><ele>2621.8</ele><time>2026-03-02T10:43:46.000Z</time></trkpt>
<trkpt lat="42.171854" lon="23.365869"><ele>2621.8</ele><time>2026-03-02T10:43:47.000Z</time></trkpt>
<trkpt lat="42.171856" lon="23.365871"><ele>2621.8</ele><time>2026-03-02T10:43:48.000Z</time></trkpt>
<trkpt lat="42.171858" lon="23.365873"><ele>2621.8</ele><time>2026-03-02T10:43:49.000Z</time></trkpt>
<trkpt lat="42.171858" lon="23.365874"><ele>2620</ele><time>2026-03-02T10:43:50.000Z</time></trkpt>
<trkpt lat="42.171858" lon="23.365874"><ele>2620</ele><time>2026-03-02T10:43:51.000Z</time></trkpt>
<trkpt lat="42.171859" lon="23.365874"><ele>2620</ele><time>2026-03-02T10:43:52.000Z</time></trkpt>
<trkpt lat="42.171859" lon="23.365875"><ele>2620</ele><time>2026-03-02T10:43:53.000Z</time></trkpt>
<trkpt lat="42.171859" lon="23.365875"><ele>2620</ele><time>2026-03-02T10:43:54.000Z</time></trkpt>
<trkpt lat="42.171859" lon="23.365875"><ele>2619.3</ele><time>2026-03-02T10:43:55.000Z</time></trkpt>
<trkpt lat="42.171859" lon="23.365875"><ele>2619.3</ele><time>2026-03-02T10:43:56.000Z</time></trkpt>
<trkpt lat="42.171859" lon="23.365875"><ele>2619.3</ele><time>2026-03-02T10:43:57.000Z</time></trkpt>
<trkpt lat="42.171859" lon="23.365875"><ele>2619.3</ele><time>2026-03-02T10:43:58.000Z</time></trkpt>
<trkpt lat="42.171859" lon="23.365875"><ele>2619.3</ele><time>2026-03-02T10:43:59.000Z</time></trkpt>
<trkpt lat="42.171859" lon="23.365875"><ele>2618.5</ele><time>2026-03-02T10:44:00.000Z</time></trkpt>
<trkpt lat="42.171859" lon="23.365875"><ele>2618.5</ele><time>2026-03-02T10:44:01.000Z</time></trkpt>
<trkpt lat="42.171859" lon="23.365875"><ele>2618.5</ele><time>2026-03-02T10:44:02.000Z</time></trkpt>
<trkpt lat="42.171859" lon="23.365875"><ele>2618.5</ele><time>2026-03-02T10:44:03.000Z</time></trkpt>
<trkpt lat="42.171859" lon="23.365875"><ele>2618.5</ele><time>2026-03-02T10:44:04.000Z</time></trkpt>
<trkpt lat="42.171859" lon="23.365875"><ele>2618.2</ele><time>2026-03-02T10:44:05.000Z</time></trkpt>
<trkpt lat="42.171859" lon="23.365874"><ele>2618.2</ele><time>2026-03-02T10:44:06.000Z</time></trkpt>
<trkpt lat="42.171859" lon="23.365874"><ele>2618.2</ele><time>2026-03-02T10:44:07.000Z</time></trkpt>
<trkpt lat="42.171859" lon="23.365874"><ele>2618.2</ele><time>2026-03-02T10:44:08.000Z</time></trkpt>
<trkpt lat="42.171859" lon="23.365874"><ele>2618.2</ele><time>2026-03-02T10:44:09.000Z</time></trkpt>
<trkpt lat="42.171859" lon="23.365874"><ele>2618.3</ele><time>2026-03-02T10:44:10.000Z</time></trkpt>
<trkpt lat="42.171859" lon="23.365874"><ele>2618.3</ele><time>2026-03-02T10:44:11.000Z</time></trkpt>
<trkpt lat="42.171859" lon="23.365874"><ele>2618.3</ele><time>2026-03-02T10:44:12.000Z</time></trkpt>
<trkpt lat="42.171859" lon="23.365874"><ele>2618.3</ele><time>2026-03-02T10:44:13.000Z</time></trkpt>
<trkpt lat="42.171859" lon="23.365874"><ele>2618.3</ele><time>2026-03-02T10:44:14.000Z</time></trkpt>
<trkpt lat="42.171859" lon="23.365874"><ele>2618.3</ele><time>2026-03-02T10:44:15.000Z</time></trkpt>
<trkpt lat="42.171859" lon="23.365874"><ele>2618.3</ele><time>2026-03-02T10:44:16.000Z</time></trkpt>
<trkpt lat="42.171859" lon="23.365874"><ele>2618.3</ele><time>2026-03-02T10:44:17.000Z</time></trkpt>
<trkpt lat="42.171859" lon="23.365874"><ele>2618.3</ele><time>2026-03-02T10:44:18.000Z</time></trkpt>
<trkpt lat="42.171859" lon="23.365874"><ele>2618.3</ele><time>2026-03-02T10:44:19.000Z</time></trkpt>
<trkpt lat="42.171859" lon="23.365874"><ele>2618.3</ele><time>2026-03-02T10:44:20.000Z</time></trkpt>
<trkpt lat="42.171859" lon="23.365874"><ele>2618.3</ele><time>2026-03-02T10:44:21.000Z</time></trkpt>
<trkpt lat="42.171859" lon="23.365874"><ele>2618.3</ele><time>2026-03-02T10:44:22.000Z</time></trkpt>
<trkpt lat="42.171859" lon="23.365874"><ele>2618.3</ele><time>2026-03-02T10:44:23.000Z</time></trkpt>
<trkpt lat="42.171859" lon="23.365874"><ele>2618.3</ele><time>2026-03-02T10:44:24.000Z</time></trkpt>
<trkpt lat="42.171859" lon="23.365874"><ele>2618.2</ele><time>2026-03-02T10:44:25.000Z</time></trkpt>
<trkpt lat="42.17186" lon="23.365875"><ele>2618.2</ele><time>2026-03-02T10:44:26.000Z</time></trkpt>
<trkpt lat="42.17186" lon="23.365876"><ele>2618.2</ele><time>2026-03-02T10:44:27.000Z</time></trkpt>
<trkpt lat="42.171861" lon="23.365877"><ele>2618.2</ele><time>2026-03-02T10:44:28.000Z</time></trkpt>
<trkpt lat="42.171861" lon="23.365877"><ele>2618.2</ele><time>2026-03-02T10:44:29.000Z</time></trkpt>
<trkpt lat="42.171861" lon="23.365877"><ele>2618.2</ele><time>2026-03-02T10:44:30.000Z</time></trkpt>
<trkpt lat="42.171862" lon="23.365877"><ele>2618.2</ele><time>2026-03-02T10:44:31.000Z</time></trkpt>
<trkpt lat="42.171863" lon="23.365875"><ele>2618.2</ele><time>2026-03-02T10:44:32.000Z</time></trkpt>
<trkpt lat="42.171866" lon="23.365875"><ele>2618.2</ele><time>2026-03-02T10:44:33.000Z</time></trkpt>
<trkpt lat="42.171869" lon="23.365874"><ele>2618.2</ele><time>2026-03-02T10:44:34.000Z</time></trkpt>
<trkpt lat="42.171872" lon="23.365874"><ele>2618.2</ele><time>2026-03-02T10:44:35.000Z</time></trkpt>
<trkpt lat="42.171874" lon="23.365874"><ele>2618.2</ele><time>2026-03-02T10:44:36.000Z</time></trkpt>
<trkpt lat="42.171875" lon="23.365876"><ele>2618.2</ele><time>2026-03-02T10:44:37.000Z</time></trkpt>
<trkpt lat="42.171875" lon="23.365877"><ele>2618.2</ele><time>2026-03-02T10:44:38.000Z</time></trkpt>
<trkpt lat="42.171875" lon="23.365879"><ele>2618.2</ele><time>2026-03-02T10:44:39.000Z</time></trkpt>
<trkpt lat="42.171875" lon="23.36588"><ele>2618.1</ele><time>2026-03-02T10:44:40.000Z</time></trkpt>
<trkpt lat="42.171875" lon="23.365881"><ele>2618.1</ele><time>2026-03-02T10:44:41.000Z</time></trkpt>
<trkpt lat="42.171875" lon="23.365882"><ele>2618.1</ele><time>2026-03-02T10:44:42.000Z</time></trkpt>
<trkpt lat="42.171875" lon="23.365882"><ele>2618.1</ele><time>2026-03-02T10:44:43.000Z</time></trkpt>
<trkpt lat="42.171876" lon="23.365882"><ele>2618.1</ele><time>2026-03-02T10:44:44.000Z</time></trkpt>
<trkpt lat="42.171876" lon="23.365882"><ele>2617.7</ele><time>2026-03-02T10:44:45.000Z</time></trkpt>
<trkpt lat="42.171877" lon="23.365882"><ele>2617.7</ele><time>2026-03-02T10:44:46.000Z</time></trkpt>
<trkpt lat="42.171877" lon="23.365881"><ele>2617.7</ele><time>2026-03-02T10:44:47.000Z</time></trkpt>
<trkpt lat="42.171877" lon="23.365881"><ele>2617.7</ele><time>2026-03-02T10:44:48.000Z</time></trkpt>
<trkpt lat="42.171877" lon="23.365881"><ele>2617.7</ele><time>2026-03-02T10:44:49.000Z</time></trkpt>
<trkpt lat="42.171877" lon="23.365881"><ele>2617.5</ele><time>2026-03-02T10:44:50.000Z</time></trkpt>
<trkpt lat="42.171878" lon="23.36588"><ele>2617.5</ele><time>2026-03-02T10:44:51.000Z</time></trkpt>
<trkpt lat="42.171878" lon="23.36588"><ele>2617.5</ele><time>2026-03-02T10:44:52.000Z</time></trkpt>
<trkpt lat="42.17188" lon="23.36588"><ele>2617.5</ele><time>2026-03-02T10:44:53.000Z</time></trkpt>
<trkpt lat="42.171885" lon="23.365879"><ele>2617.5</ele><time>2026-03-02T10:44:54.000Z</time></trkpt>
<trkpt lat="42.171891" lon="23.365878"><ele>2617.4</ele><time>2026-03-02T10:44:55.000Z</time></trkpt>
<trkpt lat="42.171898" lon="23.365876"><ele>2617.4</ele><time>2026-03-02T10:44:56.000Z</time></trkpt>
<trkpt lat="42.171907" lon="23.365873"><ele>2617.4</ele><time>2026-03-02T10:44:57.000Z</time></trkpt>
<trkpt lat="42.171916" lon="23.36587"><ele>2617.4</ele><time>2026-03-02T10:44:58.000Z</time></trkpt>
<trkpt lat="42.171924" lon="23.365866"><ele>2617.4</ele><time>2026-03-02T10:44:59.000Z</time></trkpt>
<trkpt lat="42.171931" lon="23.365863"><ele>2617.3</ele><time>2026-03-02T10:45:00.000Z</time></trkpt>
<trkpt lat="42.171938" lon="23.365861"><ele>2617.3</ele><time>2026-03-02T10:45:01.000Z</time></trkpt>
<trkpt lat="42.171944" lon="23.36586"><ele>2617.3</ele><time>2026-03-02T10:45:02.000Z</time></trkpt>
<trkpt lat="42.171949" lon="23.36586"><ele>2617.3</ele><time>2026-03-02T10:45:03.000Z</time></trkpt>
<trkpt lat="42.171955" lon="23.365859"><ele>2617.3</ele><time>2026-03-02T10:45:04.000Z</time></trkpt>
<trkpt lat="42.171961" lon="23.365856"><ele>2616.9</ele><time>2026-03-02T10:45:05.000Z</time></trkpt>
<trkpt lat="42.171967" lon="23.365851"><ele>2616.9</ele><time>2026-03-02T10:45:06.000Z</time></trkpt>
<trkpt lat="42.171972" lon="23.365843"><ele>2616.9</ele><time>2026-03-02T10:45:07.000Z</time></trkpt>
<trkpt lat="42.171978" lon="23.365834"><ele>2616.9</ele><time>2026-03-02T10:45:08.000Z</time></trkpt>
<trkpt lat="42.171984" lon="23.365824"><ele>2616.9</ele><time>2026-03-02T10:45:09.000Z</time></trkpt>
<trkpt lat="42.171989" lon="23.365813"><ele>2616.6</ele><time>2026-03-02T10:45:10.000Z</time></trkpt>
<trkpt lat="42.171993" lon="23.365803"><ele>2616.6</ele><time>2026-03-02T10:45:11.000Z</time></trkpt>
<trkpt lat="42.171997" lon="23.365791"><ele>2616.6</ele><time>2026-03-02T10:45:12.000Z</time></trkpt>
<trkpt lat="42.172001" lon="23.365781"><ele>2616.6</ele><time>2026-03-02T10:45:13.000Z</time></trkpt>
<trkpt lat="42.172005" lon="23.365772"><ele>2616.6</ele><time>2026-03-02T10:45:14.000Z</time></trkpt>
<trkpt lat="42.172009" lon="23.365764"><ele>2615.6</ele><time>2026-03-02T10:45:15.000Z</time></trkpt>
<trkpt lat="42.172013" lon="23.365755"><ele>2615.6</ele><time>2026-03-02T10:45:16.000Z</time></trkpt>
<trkpt lat="42.172017" lon="23.365748"><ele>2615.6</ele><time>2026-03-02T10:45:17.000Z</time></trkpt>
<trkpt lat="42.172022" lon="23.36574"><ele>2615.6</ele><time>2026-03-02T10:45:18.000Z</time></trkpt>
<trkpt lat="42.172026" lon="23.365731"><ele>2615.6</ele><time>2026-03-02T10:45:19.000Z</time></trkpt>
<trkpt lat="42.172031" lon="23.365722"><ele>2614.2</ele><time>2026-03-02T10:45:20.000Z</time></trkpt>
<trkpt lat="42.172036" lon="23.365714"><ele>2614.2</ele><time>2026-03-02T10:45:21.000Z</time></trkpt>
<trkpt lat="42.172041" lon="23.365706"><ele>2614.2</ele><time>2026-03-02T10:45:22.000Z</time></trkpt>
<trkpt lat="42.172046" lon="23.365698"><ele>2614.2</ele><time>2026-03-02T10:45:23.000Z</time></trkpt>
<trkpt lat="42.172051" lon="23.36569"><ele>2614.2</ele><time>2026-03-02T10:45:24.000Z</time></trkpt>
<trkpt lat="42.172056" lon="23.365683"><ele>2613.5</ele><time>2026-03-02T10:45:25.000Z</time></trkpt>
<trkpt lat="42.172062" lon="23.365676"><ele>2613.5</ele><time>2026-03-02T10:45:26.000Z</time></trkpt>
<trkpt lat="42.172067" lon="23.365671"><ele>2613.5</ele><time>2026-03-02T10:45:27.000Z</time></trkpt>
<trkpt lat="42.172072" lon="23.365665"><ele>2613.5</ele><time>2026-03-02T10:45:28.000Z</time></trkpt>
<trkpt lat="42.172078" lon="23.36566"><ele>2613.5</ele><time>2026-03-02T10:45:29.000Z</time></trkpt>
<trkpt lat="42.172083" lon="23.365655"><ele>2611.8</ele><time>2026-03-02T10:45:30.000Z</time></trkpt>
<trkpt lat="42.172089" lon="23.365651"><ele>2611.8</ele><time>2026-03-02T10:45:31.000Z</time></trkpt>
<trkpt lat="42.172094" lon="23.365646"><ele>2611.8</ele><time>2026-03-02T10:45:32.000Z</time></trkpt>
<trkpt lat="42.1721" lon="23.365643"><ele>2611.8</ele><time>2026-03-02T10:45:33.000Z</time></trkpt>
<trkpt lat="42.172105" lon="23.36564"><ele>2611.8</ele><time>2026-03-02T10:45:34.000Z</time></trkpt>
<trkpt lat="42.17211" lon="23.365637"><ele>2610</ele><time>2026-03-02T10:45:35.000Z</time></trkpt>
<trkpt lat="42.172115" lon="23.365634"><ele>2610</ele><time>2026-03-02T10:45:36.000Z</time></trkpt>
<trkpt lat="42.17212" lon="23.365631"><ele>2610</ele><time>2026-03-02T10:45:37.000Z</time></trkpt>
<trkpt lat="42.172124" lon="23.365628"><ele>2610</ele><time>2026-03-02T10:45:38.000Z</time></trkpt>
<trkpt lat="42.172129" lon="23.365625"><ele>2610</ele><time>2026-03-02T10:45:39.000Z</time></trkpt>
<trkpt lat="42.172135" lon="23.365622"><ele>2609.1</ele><time>2026-03-02T10:45:40.000Z</time></trkpt>
<trkpt lat="42.172139" lon="23.365621"><ele>2609.1</ele><time>2026-03-02T10:45:41.000Z</time></trkpt>
<trkpt lat="42.172143" lon="23.365618"><ele>2609.1</ele><time>2026-03-02T10:45:42.000Z</time></trkpt>
<trkpt lat="42.172148" lon="23.365616"><ele>2609.1</ele><time>2026-03-02T10:45:43.000Z</time></trkpt>
<trkpt lat="42.172152" lon="23.365614"><ele>2609.1</ele><time>2026-03-02T10:45:44.000Z</time></trkpt>
<trkpt lat="42.172156" lon="23.365612"><ele>2607.3</ele><time>2026-03-02T10:45:45.000Z</time></trkpt>
<trkpt lat="42.172159" lon="23.36561"><ele>2607.3</ele><time>2026-03-02T10:45:46.000Z</time></trkpt>
<trkpt lat="42.172163" lon="23.365608"><ele>2607.3</ele><time>2026-03-02T10:45:47.000Z</time></trkpt>
<trkpt lat="42.172166" lon="23.365606"><ele>2607.3</ele><time>2026-03-02T10:45:48.000Z</time></trkpt>
<trkpt lat="42.17217" lon="23.365603"><ele>2607.3</ele><time>2026-03-02T10:45:49.000Z</time></trkpt>
<trkpt lat="42.172174" lon="23.3656"><ele>2605.8</ele><time>2026-03-02T10:45:50.000Z</time></trkpt>
<trkpt lat="42.172178" lon="23.365596"><ele>2605.8</ele><time>2026-03-02T10:45:51.000Z</time></trkpt>
<trkpt lat="42.172182" lon="23.365592"><ele>2605.8</ele><time>2026-03-02T10:45:52.000Z</time></trkpt>
<trkpt lat="42.172185" lon="23.365589"><ele>2605.8</ele><time>2026-03-02T10:45:53.000Z</time></trkpt>
<trkpt lat="42.172189" lon="23.365587"><ele>2605.8</ele><time>2026-03-02T10:45:54.000Z</time></trkpt>
<trkpt lat="42.172193" lon="23.365586"><ele>2605.1</ele><time>2026-03-02T10:45:55.000Z</time></trkpt>
<trkpt lat="42.172197" lon="23.365584"><ele>2605.1</ele><time>2026-03-02T10:45:56.000Z</time></trkpt>
<trkpt lat="42.172201" lon="23.365584"><ele>2605.1</ele><time>2026-03-02T10:45:57.000Z</time></trkpt>
<trkpt lat="42.172204" lon="23.365583"><ele>2605.1</ele><time>2026-03-02T10:45:58.000Z</time></trkpt>
<trkpt lat="42.172207" lon="23.365582"><ele>2605.1</ele><time>2026-03-02T10:45:59.000Z</time></trkpt>
<trkpt lat="42.17221" lon="23.36558"><ele>2603.5</ele><time>2026-03-02T10:46:00.000Z</time></trkpt>
<trkpt lat="42.172213" lon="23.365579"><ele>2603.5</ele><time>2026-03-02T10:46:01.000Z</time></trkpt>
<trkpt lat="42.172216" lon="23.365578"><ele>2603.5</ele><time>2026-03-02T10:46:02.000Z</time></trkpt>
<trkpt lat="42.172218" lon="23.365576"><ele>2603.5</ele><time>2026-03-02T10:46:03.000Z</time></trkpt>
<trkpt lat="42.172221" lon="23.365575"><ele>2603.5</ele><time>2026-03-02T10:46:04.000Z</time></trkpt>
<trkpt lat="42.172224" lon="23.365573"><ele>2601.8</ele><time>2026-03-02T10:46:05.000Z</time></trkpt>
<trkpt lat="42.172227" lon="23.36557"><ele>2601.8</ele><time>2026-03-02T10:46:06.000Z</time></trkpt>
<trkpt lat="42.17223" lon="23.365568"><ele>2601.8</ele><time>2026-03-02T10:46:07.000Z</time></trkpt>
<trkpt lat="42.172234" lon="23.365566"><ele>2601.8</ele><time>2026-03-02T10:46:08.000Z</time></trkpt>
<trkpt lat="42.172237" lon="23.365563"><ele>2601.8</ele><time>2026-03-02T10:46:09.000Z</time></trkpt>
<trkpt lat="42.172242" lon="23.36556"><ele>2600.9</ele><time>2026-03-02T10:46:10.000Z</time></trkpt>
<trkpt lat="42.172246" lon="23.365558"><ele>2600.9</ele><time>2026-03-02T10:46:11.000Z</time></trkpt>
<trkpt lat="42.172252" lon="23.365554"><ele>2600.9</ele><time>2026-03-02T10:46:12.000Z</time></trkpt>
<trkpt lat="42.172259" lon="23.365551"><ele>2600.9</ele><time>2026-03-02T10:46:13.000Z</time></trkpt>
<trkpt lat="42.172266" lon="23.365549"><ele>2600.9</ele><time>2026-03-02T10:46:14.000Z</time></trkpt>
<trkpt lat="42.172274" lon="23.365548"><ele>2599.2</ele><time>2026-03-02T10:46:15.000Z</time></trkpt>
<trkpt lat="42.172283" lon="23.365547"><ele>2599.2</ele><time>2026-03-02T10:46:16.000Z</time></trkpt>
<trkpt lat="42.172293" lon="23.365546"><ele>2599.2</ele><time>2026-03-02T10:46:17.000Z</time></trkpt>
<trkpt lat="42.172302" lon="23.365547"><ele>2599.2</ele><time>2026-03-02T10:46:18.000Z</time></trkpt>
<trkpt lat="42.172311" lon="23.365548"><ele>2599.2</ele><time>2026-03-02T10:46:19.000Z</time></trkpt>
<trkpt lat="42.172321" lon="23.36555"><ele>2597.6</ele><time>2026-03-02T10:46:20.000Z</time></trkpt>
<trkpt lat="42.17233" lon="23.365551"><ele>2597.6</ele><time>2026-03-02T10:46:21.000Z</time></trkpt>
<trkpt lat="42.172339" lon="23.365552"><ele>2597.6</ele><time>2026-03-02T10:46:22.000Z</time></trkpt>
<trkpt lat="42.172348" lon="23.365552"><ele>2597.6</ele><time>2026-03-02T10:46:23.000Z</time></trkpt>
<trkpt lat="42.172356" lon="23.365549"><ele>2597.6</ele><time>2026-03-02T10:46:24.000Z</time></trkpt>
<trkpt lat="42.172363" lon="23.365545"><ele>2596.7</ele><time>2026-03-02T10:46:25.000Z</time></trkpt>
<trkpt lat="42.17237" lon="23.36554"><ele>2596.7</ele><time>2026-03-02T10:46:26.000Z</time></trkpt>
<trkpt lat="42.172377" lon="23.365534"><ele>2596.7</ele><time>2026-03-02T10:46:27.000Z</time></trkpt>
<trkpt lat="42.172385" lon="23.365528"><ele>2596.7</ele><time>2026-03-02T10:46:28.000Z</time></trkpt>
<trkpt lat="42.172393" lon="23.365523"><ele>2596.7</ele><time>2026-03-02T10:46:29.000Z</time></trkpt>
<trkpt lat="42.172402" lon="23.365517"><ele>2594.8</ele><time>2026-03-02T10:46:30.000Z</time></trkpt>
<trkpt lat="42.172412" lon="23.365513"><ele>2594.8</ele><time>2026-03-02T10:46:31.000Z</time></trkpt>
<trkpt lat="42.172422" lon="23.365508"><ele>2594.8</ele><time>2026-03-02T10:46:32.000Z</time></trkpt>
<trkpt lat="42.172432" lon="23.365504"><ele>2594.8</ele><time>2026-03-02T10:46:33.000Z</time></trkpt>
<trkpt lat="42.172441" lon="23.3655"><ele>2594.8</ele><time>2026-03-02T10:46:34.000Z</time></trkpt>
<trkpt lat="42.17245" lon="23.365495"><ele>2592.8</ele><time>2026-03-02T10:46:35.000Z</time></trkpt>
<trkpt lat="42.172458" lon="23.36549"><ele>2592.8</ele><time>2026-03-02T10:46:36.000Z</time></trkpt>
<trkpt lat="42.172467" lon="23.365485"><ele>2592.8</ele><time>2026-03-02T10:46:37.000Z</time></trkpt>
<trkpt lat="42.172476" lon="23.365479"><ele>2592.8</ele><time>2026-03-02T10:46:38.000Z</time></trkpt>
<trkpt lat="42.172485" lon="23.365474"><ele>2592.8</ele><time>2026-03-02T10:46:39.000Z</time></trkpt>
<trkpt lat="42.172493" lon="23.365468"><ele>2591.8</ele><time>2026-03-02T10:46:40.000Z</time></trkpt>
<trkpt lat="42.1725" lon="23.365462"><ele>2591.8</ele><time>2026-03-02T10:46:41.000Z</time></trkpt>
<trkpt lat="42.172507" lon="23.365457"><ele>2591.8</ele><time>2026-03-02T10:46:42.000Z</time></trkpt>
<trkpt lat="42.172513" lon="23.365452"><ele>2591.8</ele><time>2026-03-02T10:46:43.000Z</time></trkpt>
<trkpt lat="42.17252" lon="23.365447"><ele>2591.8</ele><time>2026-03-02T10:46:44.000Z</time></trkpt>
<trkpt lat="42.172526" lon="23.365441"><ele>2590</ele><time>2026-03-02T10:46:45.000Z</time></trkpt>
<trkpt lat="42.172533" lon="23.365434"><ele>2590</ele><time>2026-03-02T10:46:46.000Z</time></trkpt>
<trkpt lat="42.172539" lon="23.365426"><ele>2590</ele><time>2026-03-02T10:46:47.000Z</time></trkpt>
<trkpt lat="42.172545" lon="23.365416"><ele>2590</ele><time>2026-03-02T10:46:48.000Z</time></trkpt>
<trkpt lat="42.172551" lon="23.365405"><ele>2590</ele><time>2026-03-02T10:46:49.000Z</time></trkpt>
<trkpt lat="42.172557" lon="23.365396"><ele>2588.1</ele><time>2026-03-02T10:46:50.000Z</time></trkpt>
<trkpt lat="42.172562" lon="23.365386"><ele>2588.1</ele><time>2026-03-02T10:46:51.000Z</time></trkpt>
<trkpt lat="42.172567" lon="23.365378"><ele>2588.1</ele><time>2026-03-02T10:46:52.000Z</time></trkpt>
<trkpt lat="42.172572" lon="23.36537"><ele>2588.1</ele><time>2026-03-02T10:46:53.000Z</time></trkpt>
<trkpt lat="42.172576" lon="23.365363"><ele>2588.1</ele><time>2026-03-02T10:46:54.000Z</time></trkpt>
<trkpt lat="42.172579" lon="23.365356"><ele>2587.1</ele><time>2026-03-02T10:46:55.000Z</time></trkpt>
<trkpt lat="42.172583" lon="23.365348"><ele>2587.1</ele><time>2026-03-02T10:46:56.000Z</time></trkpt>
<trkpt lat="42.172587" lon="23.365339"><ele>2587.1</ele><time>2026-03-02T10:46:57.000Z</time></trkpt>
<trkpt lat="42.172589" lon="23.365329"><ele>2587.1</ele><time>2026-03-02T10:46:58.000Z</time></trkpt>
<trkpt lat="42.172591" lon="23.365317"><ele>2587.1</ele><time>2026-03-02T10:46:59.000Z</time></trkpt>
<trkpt lat="42.172593" lon="23.365305"><ele>2585.1</ele><time>2026-03-02T10:47:00.000Z</time></trkpt>
<trkpt lat="42.172595" lon="23.365293"><ele>2585.1</ele><time>2026-03-02T10:47:01.000Z</time></trkpt>
<trkpt lat="42.172598" lon="23.365282"><ele>2585.1</ele><time>2026-03-02T10:47:02.000Z</time></trkpt>
<trkpt lat="42.172602" lon="23.365273"><ele>2585.1</ele><time>2026-03-02T10:47:03.000Z</time></trkpt>
<trkpt lat="42.172606" lon="23.365264"><ele>2585.1</ele><time>2026-03-02T10:47:04.000Z</time></trkpt>
<trkpt lat="42.172611" lon="23.365257"><ele>2583.1</ele><time>2026-03-02T10:47:05.000Z</time></trkpt>
<trkpt lat="42.172615" lon="23.365251"><ele>2583.1</ele><time>2026-03-02T10:47:06.000Z</time></trkpt>
<trkpt lat="42.17262" lon="23.365245"><ele>2583.1</ele><time>2026-03-02T10:47:07.000Z</time></trkpt>
<trkpt lat="42.172624" lon="23.365238"><ele>2583.1</ele><time>2026-03-02T10:47:08.000Z</time></trkpt>
<trkpt lat="42.17263" lon="23.365232"><ele>2583.1</ele><time>2026-03-02T10:47:09.000Z</time></trkpt>
<trkpt lat="42.172637" lon="23.365226"><ele>2582.2</ele><time>2026-03-02T10:47:10.000Z</time></trkpt>
<trkpt lat="42.172647" lon="23.36522"><ele>2582.2</ele><time>2026-03-02T10:47:11.000Z</time></trkpt>
<trkpt lat="42.172658" lon="23.365216"><ele>2582.2</ele><time>2026-03-02T10:47:12.000Z</time></trkpt>
<trkpt lat="42.172669" lon="23.365213"><ele>2582.2</ele><time>2026-03-02T10:47:13.000Z</time></trkpt>
<trkpt lat="42.172681" lon="23.36521"><ele>2582.2</ele><time>2026-03-02T10:47:14.000Z</time></trkpt>
<trkpt lat="42.172693" lon="23.365208"><ele>2580.2</ele><time>2026-03-02T10:47:15.000Z</time></trkpt>
<trkpt lat="42.172706" lon="23.365207"><ele>2580.2</ele><time>2026-03-02T10:47:16.000Z</time></trkpt>
<trkpt lat="42.172718" lon="23.365207"><ele>2580.2</ele><time>2026-03-02T10:47:17.000Z</time></trkpt>
<trkpt lat="42.172731" lon="23.365209"><ele>2580.2</ele><time>2026-03-02T10:47:18.000Z</time></trkpt>
<trkpt lat="42.172745" lon="23.365214"><ele>2580.2</ele><time>2026-03-02T10:47:19.000Z</time></trkpt>
<trkpt lat="42.172757" lon="23.365218"><ele>2578.1</ele><time>2026-03-02T10:47:20.000Z</time></trkpt>
<trkpt lat="42.172768" lon="23.365224"><ele>2578.1</ele><time>2026-03-02T10:47:21.000Z</time></trkpt>
<trkpt lat="42.172778" lon="23.365232"><ele>2578.1</ele><time>2026-03-02T10:47:22.000Z</time></trkpt>
<trkpt lat="42.172788" lon="23.365239"><ele>2578.1</ele><time>2026-03-02T10:47:23.000Z</time></trkpt>
<trkpt lat="42.172796" lon="23.365247"><ele>2578.1</ele><time>2026-03-02T10:47:24.000Z</time></trkpt>
<trkpt lat="42.172804" lon="23.365256"><ele>2577.2</ele><time>2026-03-02T10:47:25.000Z</time></trkpt>
<trkpt lat="42.172811" lon="23.365266"><ele>2577.2</ele><time>2026-03-02T10:47:26.000Z</time></trkpt>
<trkpt lat="42.172819" lon="23.365276"><ele>2577.2</ele><time>2026-03-02T10:47:27.000Z</time></trkpt>
<trkpt lat="42.172825" lon="23.365288"><ele>2577.2</ele><time>2026-03-02T10:47:28.000Z</time></trkpt>
<trkpt lat="42.172831" lon="23.365298"><ele>2577.2</ele><time>2026-03-02T10:47:29.000Z</time></trkpt>
<trkpt lat="42.172837" lon="23.365309"><ele>2575.5</ele><time>2026-03-02T10:47:30.000Z</time></trkpt>
<trkpt lat="42.172844" lon="23.36532"><ele>2575.5</ele><time>2026-03-02T10:47:31.000Z</time></trkpt>
<trkpt lat="42.17285" lon="23.365331"><ele>2575.5</ele><time>2026-03-02T10:47:32.000Z</time></trkpt>
<trkpt lat="42.172855" lon="23.365341"><ele>2575.5</ele><time>2026-03-02T10:47:33.000Z</time></trkpt>
<trkpt lat="42.172861" lon="23.365351"><ele>2575.5</ele><time>2026-03-02T10:47:34.000Z</time></trkpt>
<trkpt lat="42.172866" lon="23.36536"><ele>2574.1</ele><time>2026-03-02T10:47:35.000Z</time></trkpt>
<trkpt lat="42.17287" lon="23.365367"><ele>2574.1</ele><time>2026-03-02T10:47:36.000Z</time></trkpt>
<trkpt lat="42.172874" lon="23.365375"><ele>2574.1</ele><time>2026-03-02T10:47:37.000Z</time></trkpt>
<trkpt lat="42.172878" lon="23.365383"><ele>2574.1</ele><time>2026-03-02T10:47:38.000Z</time></trkpt>
<trkpt lat="42.172882" lon="23.365392"><ele>2574.1</ele><time>2026-03-02T10:47:39.000Z</time></trkpt>
<trkpt lat="42.172887" lon="23.3654"><ele>2573.4</ele><time>2026-03-02T10:47:40.000Z</time></trkpt>
<trkpt lat="42.172891" lon="23.36541"><ele>2573.4</ele><time>2026-03-02T10:47:41.000Z</time></trkpt>
<trkpt lat="42.172896" lon="23.365419"><ele>2573.4</ele><time>2026-03-02T10:47:42.000Z</time></trkpt>
<trkpt lat="42.172901" lon="23.365427"><ele>2573.4</ele><time>2026-03-02T10:47:43.000Z</time></trkpt>
<trkpt lat="42.172906" lon="23.365435"><ele>2573.4</ele><time>2026-03-02T10:47:44.000Z</time></trkpt>
<trkpt lat="42.172911" lon="23.365443"><ele>2571.6</ele><time>2026-03-02T10:47:45.000Z</time></trkpt>
<trkpt lat="42.172916" lon="23.365452"><ele>2571.6</ele><time>2026-03-02T10:47:46.000Z</time></trkpt>
<trkpt lat="42.172922" lon="23.36546"><ele>2571.6</ele><time>2026-03-02T10:47:47.000Z</time></trkpt>
<trkpt lat="42.172926" lon="23.365468"><ele>2571.6</ele><time>2026-03-02T10:47:48.000Z</time></trkpt>
<trkpt lat="42.17293" lon="23.365478"><ele>2571.6</ele><time>2026-03-02T10:47:49.000Z</time></trkpt>
<trkpt lat="42.172935" lon="23.365489"><ele>2569.8</ele><time>2026-03-02T10:47:50.000Z</time></trkpt>
<trkpt lat="42.17294" lon="23.365499"><ele>2569.8</ele><time>2026-03-02T10:47:51.000Z</time></trkpt>
<trkpt lat="42.172945" lon="23.365511"><ele>2569.8</ele><time>2026-03-02T10:47:52.000Z</time></trkpt>
<trkpt lat="42.172949" lon="23.365523"><ele>2569.8</ele><time>2026-03-02T10:47:53.000Z</time></trkpt>
<trkpt lat="42.172952" lon="23.365532"><ele>2569.8</ele><time>2026-03-02T10:47:54.000Z</time></trkpt>
<trkpt lat="42.172954" lon="23.365538"><ele>2568.9</ele><time>2026-03-02T10:47:55.000Z</time></trkpt>
<trkpt lat="42.172954" lon="23.365543"><ele>2568.9</ele><time>2026-03-02T10:47:56.000Z</time></trkpt>
<trkpt lat="42.172954" lon="23.365549"><ele>2568.9</ele><time>2026-03-02T10:47:57.000Z</time></trkpt>
<trkpt lat="42.172954" lon="23.365553"><ele>2568.9</ele><time>2026-03-02T10:47:58.000Z</time></trkpt>
<trkpt lat="42.172954" lon="23.365558"><ele>2568.9</ele><time>2026-03-02T10:47:59.000Z</time></trkpt>
<trkpt lat="42.172954" lon="23.365562"><ele>2567.5</ele><time>2026-03-02T10:48:00.000Z</time></trkpt>
<trkpt lat="42.172954" lon="23.365566"><ele>2567.5</ele><time>2026-03-02T10:48:01.000Z</time></trkpt>
<trkpt lat="42.172954" lon="23.365567"><ele>2567.5</ele><time>2026-03-02T10:48:02.000Z</time></trkpt>
<trkpt lat="42.172955" lon="23.365568"><ele>2567.5</ele><time>2026-03-02T10:48:03.000Z</time></trkpt>
<trkpt lat="42.172956" lon="23.365568"><ele>2567.5</ele><time>2026-03-02T10:48:04.000Z</time></trkpt>
<trkpt lat="42.172956" lon="23.365569"><ele>2566.4</ele><time>2026-03-02T10:48:05.000Z</time></trkpt>
<trkpt lat="42.172956" lon="23.36557"><ele>2566.4</ele><time>2026-03-02T10:48:06.000Z</time></trkpt>
<trkpt lat="42.172956" lon="23.365571"><ele>2566.4</ele><time>2026-03-02T10:48:07.000Z</time></trkpt>
<trkpt lat="42.172957" lon="23.365572"><ele>2566.4</ele><time>2026-03-02T10:48:08.000Z</time></trkpt>
<trkpt lat="42.172957" lon="23.365573"><ele>2566.4</ele><time>2026-03-02T10:48:09.000Z</time></trkpt>
<trkpt lat="42.172957" lon="23.365573"><ele>2566</ele><time>2026-03-02T10:48:10.000Z</time></trkpt>
<trkpt lat="42.172957" lon="23.365573"><ele>2566</ele><time>2026-03-02T10:48:11.000Z</time></trkpt>
<trkpt lat="42.172958" lon="23.365573"><ele>2566</ele><time>2026-03-02T10:48:12.000Z</time></trkpt>
<trkpt lat="42.172958" lon="23.365574"><ele>2566</ele><time>2026-03-02T10:48:13.000Z</time></trkpt>
<trkpt lat="42.17296" lon="23.365575"><ele>2566</ele><time>2026-03-02T10:48:14.000Z</time></trkpt>
<trkpt lat="42.172962" lon="23.365578"><ele>2565.5</ele><time>2026-03-02T10:48:15.000Z</time></trkpt>
<trkpt lat="42.172965" lon="23.365583"><ele>2565.5</ele><time>2026-03-02T10:48:16.000Z</time></trkpt>
<trkpt lat="42.17297" lon="23.365588"><ele>2565.5</ele><time>2026-03-02T10:48:17.000Z</time></trkpt>
<trkpt lat="42.172975" lon="23.365593"><ele>2565.5</ele><time>2026-03-02T10:48:18.000Z</time></trkpt>
<trkpt lat="42.17298" lon="23.365599"><ele>2565.5</ele><time>2026-03-02T10:48:19.000Z</time></trkpt>
<trkpt lat="42.172985" lon="23.365604"><ele>2565.2</ele><time>2026-03-02T10:48:20.000Z</time></trkpt>
<trkpt lat="42.172989" lon="23.365608"><ele>2565.2</ele><time>2026-03-02T10:48:21.000Z</time></trkpt>
<trkpt lat="42.172991" lon="23.365609"><ele>2565.2</ele><time>2026-03-02T10:48:22.000Z</time></trkpt>
<trkpt lat="42.172993" lon="23.365611"><ele>2565.2</ele><time>2026-03-02T10:48:23.000Z</time></trkpt>
<trkpt lat="42.172994" lon="23.365613"><ele>2565.2</ele><time>2026-03-02T10:48:24.000Z</time></trkpt>
<trkpt lat="42.172994" lon="23.365615"><ele>2564.9</ele><time>2026-03-02T10:48:25.000Z</time></trkpt>
<trkpt lat="42.172996" lon="23.365617"><ele>2564.9</ele><time>2026-03-02T10:48:26.000Z</time></trkpt>
<trkpt lat="42.172998" lon="23.36562"><ele>2564.9</ele><time>2026-03-02T10:48:27.000Z</time></trkpt>
<trkpt lat="42.173002" lon="23.365623"><ele>2564.9</ele><time>2026-03-02T10:48:28.000Z</time></trkpt>
<trkpt lat="42.173006" lon="23.365626"><ele>2564.9</ele><time>2026-03-02T10:48:29.000Z</time></trkpt>
<trkpt lat="42.173011" lon="23.365629"><ele>2564.1</ele><time>2026-03-02T10:48:30.000Z</time></trkpt>
<trkpt lat="42.173015" lon="23.365633"><ele>2564.1</ele><time>2026-03-02T10:48:31.000Z</time></trkpt>
<trkpt lat="42.17302" lon="23.365636"><ele>2564.1</ele><time>2026-03-02T10:48:32.000Z</time></trkpt>
<trkpt lat="42.173024" lon="23.365639"><ele>2564.1</ele><time>2026-03-02T10:48:33.000Z</time></trkpt>
<trkpt lat="42.173029" lon="23.365642"><ele>2564.1</ele><time>2026-03-02T10:48:34.000Z</time></trkpt>
<trkpt lat="42.173033" lon="23.365645"><ele>2563</ele><time>2026-03-02T10:48:35.000Z</time></trkpt>
<trkpt lat="42.173039" lon="23.365648"><ele>2563</ele><time>2026-03-02T10:48:36.000Z</time></trkpt>
<trkpt lat="42.173045" lon="23.365653"><ele>2563</ele><time>2026-03-02T10:48:37.000Z</time></trkpt>
<trkpt lat="42.17305" lon="23.365657"><ele>2563</ele><time>2026-03-02T10:48:38.000Z</time></trkpt>
<trkpt lat="42.173056" lon="23.36566"><ele>2563</ele><time>2026-03-02T10:48:39.000Z</time></trkpt>
<trkpt lat="42.173062" lon="23.365662"><ele>2562.4</ele><time>2026-03-02T10:48:40.000Z</time></trkpt>
<trkpt lat="42.173067" lon="23.365663"><ele>2562.4</ele><time>2026-03-02T10:48:41.000Z</time></trkpt>
<trkpt lat="42.173073" lon="23.365661"><ele>2562.4</ele><time>2026-03-02T10:48:42.000Z</time></trkpt>
<trkpt lat="42.17308" lon="23.365656"><ele>2562.4</ele><time>2026-03-02T10:48:43.000Z</time></trkpt>
<trkpt lat="42.173087" lon="23.365652"><ele>2562.4</ele><time>2026-03-02T10:48:44.000Z</time></trkpt>
<trkpt lat="42.173095" lon="23.365649"><ele>2561.2</ele><time>2026-03-02T10:48:45.000Z</time></trkpt>
<trkpt lat="42.173103" lon="23.365647"><ele>2561.2</ele><time>2026-03-02T10:48:46.000Z</time></trkpt>
<trkpt lat="42.173111" lon="23.365647"><ele>2561.2</ele><time>2026-03-02T10:48:47.000Z</time></trkpt>
<trkpt lat="42.173118" lon="23.365649"><ele>2561.2</ele><time>2026-03-02T10:48:48.000Z</time></trkpt>
<trkpt lat="42.173125" lon="23.365652"><ele>2561.2</ele><time>2026-03-02T10:48:49.000Z</time></trkpt>
<trkpt lat="42.173131" lon="23.365657"><ele>2559.7</ele><time>2026-03-02T10:48:50.000Z</time></trkpt>
<trkpt lat="42.173137" lon="23.365662"><ele>2559.7</ele><time>2026-03-02T10:48:51.000Z</time></trkpt>
<trkpt lat="42.173144" lon="23.36567"><ele>2559.7</ele><time>2026-03-02T10:48:52.000Z</time></trkpt>
<trkpt lat="42.173151" lon="23.36568"><ele>2559.7</ele><time>2026-03-02T10:48:53.000Z</time></trkpt>
<trkpt lat="42.173159" lon="23.365692"><ele>2559.7</ele><time>2026-03-02T10:48:54.000Z</time></trkpt>
<trkpt lat="42.173168" lon="23.365707"><ele>2558.9</ele><time>2026-03-02T10:48:55.000Z</time></trkpt>
<trkpt lat="42.173178" lon="23.365722"><ele>2558.9</ele><time>2026-03-02T10:48:56.000Z</time></trkpt>
<trkpt lat="42.173187" lon="23.365737"><ele>2558.9</ele><time>2026-03-02T10:48:57.000Z</time></trkpt>
<trkpt lat="42.173196" lon="23.365754"><ele>2558.9</ele><time>2026-03-02T10:48:58.000Z</time></trkpt>
<trkpt lat="42.173204" lon="23.365767"><ele>2558.9</ele><time>2026-03-02T10:48:59.000Z</time></trkpt>
<trkpt lat="42.17321" lon="23.365779"><ele>2557</ele><time>2026-03-02T10:49:00.000Z</time></trkpt>
<trkpt lat="42.173214" lon="23.365792"><ele>2557</ele><time>2026-03-02T10:49:01.000Z</time></trkpt>
<trkpt lat="42.173216" lon="23.365802"><ele>2557</ele><time>2026-03-02T10:49:02.000Z</time></trkpt>
<trkpt lat="42.173216" lon="23.36581"><ele>2557</ele><time>2026-03-02T10:49:03.000Z</time></trkpt>
<trkpt lat="42.173215" lon="23.365818"><ele>2557</ele><time>2026-03-02T10:49:04.000Z</time></trkpt>
<trkpt lat="42.173213" lon="23.365823"><ele>2554.8</ele><time>2026-03-02T10:49:05.000Z</time></trkpt>
<trkpt lat="42.173211" lon="23.365826"><ele>2554.8</ele><time>2026-03-02T10:49:06.000Z</time></trkpt>
<trkpt lat="42.17321" lon="23.36583"><ele>2554.8</ele><time>2026-03-02T10:49:07.000Z</time></trkpt>
<trkpt lat="42.173212" lon="23.365836"><ele>2554.8</ele><time>2026-03-02T10:49:08.000Z</time></trkpt>
<trkpt lat="42.173214" lon="23.365844"><ele>2554.8</ele><time>2026-03-02T10:49:09.000Z</time></trkpt>
<trkpt lat="42.173217" lon="23.365856"><ele>2553.6</ele><time>2026-03-02T10:49:10.000Z</time></trkpt>
<trkpt lat="42.173222" lon="23.365869"><ele>2553.6</ele><time>2026-03-02T10:49:11.000Z</time></trkpt>
<trkpt lat="42.173225" lon="23.365883"><ele>2553.6</ele><time>2026-03-02T10:49:12.000Z</time></trkpt>
<trkpt lat="42.173227" lon="23.365897"><ele>2553.6</ele><time>2026-03-02T10:49:13.000Z</time></trkpt>
<trkpt lat="42.173229" lon="23.36591"><ele>2553.6</ele><time>2026-03-02T10:49:14.000Z</time></trkpt>
<trkpt lat="42.173231" lon="23.365923"><ele>2551.6</ele><time>2026-03-02T10:49:15.000Z</time></trkpt>
<trkpt lat="42.173233" lon="23.365936"><ele>2551.6</ele><time>2026-03-02T10:49:16.000Z</time></trkpt>
<trkpt lat="42.173236" lon="23.365952"><ele>2551.6</ele><time>2026-03-02T10:49:17.000Z</time></trkpt>
<trkpt lat="42.173239" lon="23.365968"><ele>2551.6</ele><time>2026-03-02T10:49:18.000Z</time></trkpt>
<trkpt lat="42.173243" lon="23.365987"><ele>2551.6</ele><time>2026-03-02T10:49:19.000Z</time></trkpt>
<trkpt lat="42.173247" lon="23.366007"><ele>2550</ele><time>2026-03-02T10:49:20.000Z</time></trkpt>
<trkpt lat="42.173249" lon="23.366026"><ele>2550</ele><time>2026-03-02T10:49:21.000Z</time></trkpt>
<trkpt lat="42.173251" lon="23.366045"><ele>2550</ele><time>2026-03-02T10:49:22.000Z</time></trkpt>
<trkpt lat="42.173254" lon="23.366065"><ele>2550</ele><time>2026-03-02T10:49:23.000Z</time></trkpt>
<trkpt lat="42.173257" lon="23.366085"><ele>2550</ele><time>2026-03-02T10:49:24.000Z</time></trkpt>
<trkpt lat="42.17326" lon="23.366105"><ele>2549.1</ele><time>2026-03-02T10:49:25.000Z</time></trkpt>
<trkpt lat="42.173262" lon="23.366125"><ele>2549.1</ele><time>2026-03-02T10:49:26.000Z</time></trkpt>
<trkpt lat="42.173265" lon="23.366145"><ele>2549.1</ele><time>2026-03-02T10:49:27.000Z</time></trkpt>
<trkpt lat="42.173266" lon="23.366164"><ele>2549.1</ele><time>2026-03-02T10:49:28.000Z</time></trkpt>
<trkpt lat="42.173267" lon="23.366181"><ele>2549.1</ele><time>2026-03-02T10:49:29.000Z</time></trkpt>
<trkpt lat="42.173268" lon="23.366199"><ele>2546.9</ele><time>2026-03-02T10:49:30.000Z</time></trkpt>
<trkpt lat="42.17327" lon="23.366217"><ele>2546.9</ele><time>2026-03-02T10:49:31.000Z</time></trkpt>
<trkpt lat="42.173272" lon="23.366235"><ele>2546.9</ele><time>2026-03-02T10:49:32.000Z</time></trkpt>
<trkpt lat="42.173276" lon="23.366254"><ele>2546.9</ele><time>2026-03-02T10:49:33.000Z</time></trkpt>
<trkpt lat="42.173281" lon="23.366274"><ele>2546.9</ele><time>2026-03-02T10:49:34.000Z</time></trkpt>
<trkpt lat="42.173285" lon="23.366292"><ele>2544.3</ele><time>2026-03-02T10:49:35.000Z</time></trkpt>
<trkpt lat="42.173288" lon="23.366308"><ele>2544.3</ele><time>2026-03-02T10:49:36.000Z</time></trkpt>
<trkpt lat="42.173292" lon="23.366323"><ele>2544.3</ele><time>2026-03-02T10:49:37.000Z</time></trkpt>
<trkpt lat="42.173294" lon="23.366337"><ele>2544.3</ele><time>2026-03-02T10:49:38.000Z</time></trkpt>
<trkpt lat="42.173297" lon="23.36635"><ele>2544.3</ele><time>2026-03-02T10:49:39.000Z</time></trkpt>
<trkpt lat="42.1733" lon="23.366365"><ele>2543</ele><time>2026-03-02T10:49:40.000Z</time></trkpt>
<trkpt lat="42.173306" lon="23.366379"><ele>2543</ele><time>2026-03-02T10:49:41.000Z</time></trkpt>
<trkpt lat="42.173312" lon="23.366393"><ele>2543</ele><time>2026-03-02T10:49:42.000Z</time></trkpt>
<trkpt lat="42.173318" lon="23.366406"><ele>2543</ele><time>2026-03-02T10:49:43.000Z</time></trkpt>
<trkpt lat="42.173324" lon="23.366419"><ele>2543</ele><time>2026-03-02T10:49:44.000Z</time></trkpt>
<trkpt lat="42.17333" lon="23.36643"><ele>2540.4</ele><time>2026-03-02T10:49:45.000Z</time></trkpt>
<trkpt lat="42.173334" lon="23.36644"><ele>2540.4</ele><time>2026-03-02T10:49:46.000Z</time></trkpt>
<trkpt lat="42.173339" lon="23.366449"><ele>2540.4</ele><time>2026-03-02T10:49:47.000Z</time></trkpt>
<trkpt lat="42.173342" lon="23.366459"><ele>2540.4</ele><time>2026-03-02T10:49:48.000Z</time></trkpt>
<trkpt lat="42.173345" lon="23.366469"><ele>2540.4</ele><time>2026-03-02T10:49:49.000Z</time></trkpt>
<trkpt lat="42.173349" lon="23.366478"><ele>2538.1</ele><time>2026-03-02T10:49:50.000Z</time></trkpt>
<trkpt lat="42.173352" lon="23.366487"><ele>2538.1</ele><time>2026-03-02T10:49:51.000Z</time></trkpt>
<trkpt lat="42.173355" lon="23.366492"><ele>2538.1</ele><time>2026-03-02T10:49:52.000Z</time></trkpt>
<trkpt lat="42.173355" lon="23.366497"><ele>2538.1</ele><time>2026-03-02T10:49:53.000Z</time></trkpt>
<trkpt lat="42.173353" lon="23.366502"><ele>2538.1</ele><time>2026-03-02T10:49:54.000Z</time></trkpt>
<trkpt lat="42.17335" lon="23.366505"><ele>2537.1</ele><time>2026-03-02T10:49:55.000Z</time></trkpt>
<trkpt lat="42.173346" lon="23.366509"><ele>2537.1</ele><time>2026-03-02T10:49:56.000Z</time></trkpt>
<trkpt lat="42.173342" lon="23.366515"><ele>2537.1</ele><time>2026-03-02T10:49:57.000Z</time></trkpt>
<trkpt lat="42.17334" lon="23.366522"><ele>2537.1</ele><time>2026-03-02T10:49:58.000Z</time></trkpt>
<trkpt lat="42.173338" lon="23.366529"><ele>2537.1</ele><time>2026-03-02T10:49:59.000Z</time></trkpt>
<trkpt lat="42.173336" lon="23.366537"><ele>2535.4</ele><time>2026-03-02T10:50:00.000Z</time></trkpt>
<trkpt lat="42.173334" lon="23.366545"><ele>2535.4</ele><time>2026-03-02T10:50:01.000Z</time></trkpt>
<trkpt lat="42.17333" lon="23.36655"><ele>2535.4</ele><time>2026-03-02T10:50:02.000Z</time></trkpt>
<trkpt lat="42.173327" lon="23.366553"><ele>2535.4</ele><time>2026-03-02T10:50:03.000Z</time></trkpt>
<trkpt lat="42.173324" lon="23.366556"><ele>2535.4</ele><time>2026-03-02T10:50:04.000Z</time></trkpt>
<trkpt lat="42.173322" lon="23.366558"><ele>2534</ele><time>2026-03-02T10:50:05.000Z</time></trkpt>
<trkpt lat="42.17332" lon="23.366559"><ele>2534</ele><time>2026-03-02T10:50:06.000Z</time></trkpt>
<trkpt lat="42.173319" lon="23.36656"><ele>2534</ele><time>2026-03-02T10:50:07.000Z</time></trkpt>
<trkpt lat="42.173319" lon="23.366562"><ele>2534</ele><time>2026-03-02T10:50:08.000Z</time></trkpt>
<trkpt lat="42.173319" lon="23.366565"><ele>2534</ele><time>2026-03-02T10:50:09.000Z</time></trkpt>
<trkpt lat="42.17332" lon="23.366569"><ele>2533.3</ele><time>2026-03-02T10:50:10.000Z</time></trkpt>
<trkpt lat="42.17332" lon="23.366575"><ele>2533.3</ele><time>2026-03-02T10:50:11.000Z</time></trkpt>
<trkpt lat="42.17332" lon="23.366582"><ele>2533.3</ele><time>2026-03-02T10:50:12.000Z</time></trkpt>
<trkpt lat="42.17332" lon="23.366589"><ele>2533.3</ele><time>2026-03-02T10:50:13.000Z</time></trkpt>
<trkpt lat="42.173319" lon="23.366597"><ele>2533.3</ele><time>2026-03-02T10:50:14.000Z</time></trkpt>
<trkpt lat="42.17332" lon="23.366605"><ele>2532</ele><time>2026-03-02T10:50:15.000Z</time></trkpt>
<trkpt lat="42.173321" lon="23.366615"><ele>2532</ele><time>2026-03-02T10:50:16.000Z</time></trkpt>
<trkpt lat="42.17332" lon="23.366625"><ele>2532</ele><time>2026-03-02T10:50:17.000Z</time></trkpt>
<trkpt lat="42.17332" lon="23.366633"><ele>2532</ele><time>2026-03-02T10:50:18.000Z</time></trkpt>
<trkpt lat="42.173319" lon="23.366639"><ele>2532</ele><time>2026-03-02T10:50:19.000Z</time></trkpt>
<trkpt lat="42.173317" lon="23.366642"><ele>2530.9</ele><time>2026-03-02T10:50:20.000Z</time></trkpt>
<trkpt lat="42.173315" lon="23.366641"><ele>2530.9</ele><time>2026-03-02T10:50:21.000Z</time></trkpt>
<trkpt lat="42.173314" lon="23.36664"><ele>2530.9</ele><time>2026-03-02T10:50:22.000Z</time></trkpt>
<trkpt lat="42.173313" lon="23.366638"><ele>2530.9</ele><time>2026-03-02T10:50:23.000Z</time></trkpt>
<trkpt lat="42.173313" lon="23.366639"><ele>2530.9</ele><time>2026-03-02T10:50:24.000Z</time></trkpt>
<trkpt lat="42.173313" lon="23.36664"><ele>2530.5</ele><time>2026-03-02T10:50:25.000Z</time></trkpt>
<trkpt lat="42.173314" lon="23.366641"><ele>2530.5</ele><time>2026-03-02T10:50:26.000Z</time></trkpt>
<trkpt lat="42.173314" lon="23.366643"><ele>2530.5</ele><time>2026-03-02T10:50:27.000Z</time></trkpt>
<trkpt lat="42.173315" lon="23.366647"><ele>2530.5</ele><time>2026-03-02T10:50:28.000Z</time></trkpt>
<trkpt lat="42.173316" lon="23.36665"><ele>2530.5</ele><time>2026-03-02T10:50:29.000Z</time></trkpt>
<trkpt lat="42.173318" lon="23.366654"><ele>2529.6</ele><time>2026-03-02T10:50:30.000Z</time></trkpt>
<trkpt lat="42.17332" lon="23.366658"><ele>2529.6</ele><time>2026-03-02T10:50:31.000Z</time></trkpt>
<trkpt lat="42.173323" lon="23.366663"><ele>2529.6</ele><time>2026-03-02T10:50:32.000Z</time></trkpt>
<trkpt lat="42.173327" lon="23.366668"><ele>2529.6</ele><time>2026-03-02T10:50:33.000Z</time></trkpt>
<trkpt lat="42.173332" lon="23.366673"><ele>2529.6</ele><time>2026-03-02T10:50:34.000Z</time></trkpt>
<trkpt lat="42.173336" lon="23.366677"><ele>2528.9</ele><time>2026-03-02T10:50:35.000Z</time></trkpt>
<trkpt lat="42.173338" lon="23.36668"><ele>2528.9</ele><time>2026-03-02T10:50:36.000Z</time></trkpt>
<trkpt lat="42.17334" lon="23.366681"><ele>2528.9</ele><time>2026-03-02T10:50:37.000Z</time></trkpt>
<trkpt lat="42.173342" lon="23.366682"><ele>2528.9</ele><time>2026-03-02T10:50:38.000Z</time></trkpt>
<trkpt lat="42.173343" lon="23.366684"><ele>2528.9</ele><time>2026-03-02T10:50:39.000Z</time></trkpt>
<trkpt lat="42.173343" lon="23.366688"><ele>2528.6</ele><time>2026-03-02T10:50:40.000Z</time></trkpt>
<trkpt lat="42.173345" lon="23.366695"><ele>2528.6</ele><time>2026-03-02T10:50:41.000Z</time></trkpt>
<trkpt lat="42.173346" lon="23.366705"><ele>2528.6</ele><time>2026-03-02T10:50:42.000Z</time></trkpt>
<trkpt lat="42.173347" lon="23.366715"><ele>2528.6</ele><time>2026-03-02T10:50:43.000Z</time></trkpt>
<trkpt lat="42.173348" lon="23.366726"><ele>2528.6</ele><time>2026-03-02T10:50:44.000Z</time></trkpt>
<trkpt lat="42.17335" lon="23.366738"><ele>2527.7</ele><time>2026-03-02T10:50:45.000Z</time></trkpt>
<trkpt lat="42.173352" lon="23.36675"><ele>2527.7</ele><time>2026-03-02T10:50:46.000Z</time></trkpt>
<trkpt lat="42.173352" lon="23.366763"><ele>2527.7</ele><time>2026-03-02T10:50:47.000Z</time></trkpt>
<trkpt lat="42.173351" lon="23.366776"><ele>2527.7</ele><time>2026-03-02T10:50:48.000Z</time></trkpt>
<trkpt lat="42.17335" lon="23.36679"><ele>2527.7</ele><time>2026-03-02T10:50:49.000Z</time></trkpt>
<trkpt lat="42.173348" lon="23.366804"><ele>2526.6</ele><time>2026-03-02T10:50:50.000Z</time></trkpt>
<trkpt lat="42.173347" lon="23.366819"><ele>2526.6</ele><time>2026-03-02T10:50:51.000Z</time></trkpt>
<trkpt lat="42.173348" lon="23.366833"><ele>2526.6</ele><time>2026-03-02T10:50:52.000Z</time></trkpt>
<trkpt lat="42.17335" lon="23.366849"><ele>2526.6</ele><time>2026-03-02T10:50:53.000Z</time></trkpt>
<trkpt lat="42.173352" lon="23.366866"><ele>2526.6</ele><time>2026-03-02T10:50:54.000Z</time></trkpt>
<trkpt lat="42.173355" lon="23.366882"><ele>2525.8</ele><time>2026-03-02T10:50:55.000Z</time></trkpt>
<trkpt lat="42.173358" lon="23.366897"><ele>2525.8</ele><time>2026-03-02T10:50:56.000Z</time></trkpt>
<trkpt lat="42.173361" lon="23.366909"><ele>2525.8</ele><time>2026-03-02T10:50:57.000Z</time></trkpt>
<trkpt lat="42.173364" lon="23.36692"><ele>2525.8</ele><time>2026-03-02T10:50:58.000Z</time></trkpt>
<trkpt lat="42.173368" lon="23.366928"><ele>2525.8</ele><time>2026-03-02T10:50:59.000Z</time></trkpt>
<trkpt lat="42.173371" lon="23.366934"><ele>2523.7</ele><time>2026-03-02T10:51:00.000Z</time></trkpt>
<trkpt lat="42.173376" lon="23.366938"><ele>2523.7</ele><time>2026-03-02T10:51:01.000Z</time></trkpt>
<trkpt lat="42.173379" lon="23.366943"><ele>2523.7</ele><time>2026-03-02T10:51:02.000Z</time></trkpt>
<trkpt lat="42.173383" lon="23.366948"><ele>2523.7</ele><time>2026-03-02T10:51:03.000Z</time></trkpt>
<trkpt lat="42.173384" lon="23.366954"><ele>2523.7</ele><time>2026-03-02T10:51:04.000Z</time></trkpt>
<trkpt lat="42.173385" lon="23.366962"><ele>2520.7</ele><time>2026-03-02T10:51:05.000Z</time></trkpt>
<trkpt lat="42.173384" lon="23.366972"><ele>2520.7</ele><time>2026-03-02T10:51:06.000Z</time></trkpt>
<trkpt lat="42.173383" lon="23.366984"><ele>2520.7</ele><time>2026-03-02T10:51:07.000Z</time></trkpt>
<trkpt lat="42.17338" lon="23.366996"><ele>2520.7</ele><time>2026-03-02T10:51:08.000Z</time></trkpt>
<trkpt lat="42.173379" lon="23.367008"><ele>2520.7</ele><time>2026-03-02T10:51:09.000Z</time></trkpt>
<trkpt lat="42.173378" lon="23.36702"><ele>2519.1</ele><time>2026-03-02T10:51:10.000Z</time></trkpt>
<trkpt lat="42.173377" lon="23.367032"><ele>2519.1</ele><time>2026-03-02T10:51:11.000Z</time></trkpt>
<trkpt lat="42.173377" lon="23.367043"><ele>2519.1</ele><time>2026-03-02T10:51:12.000Z</time></trkpt>
<trkpt lat="42.173377" lon="23.367054"><ele>2519.1</ele><time>2026-03-02T10:51:13.000Z</time></trkpt>
<trkpt lat="42.173377" lon="23.367066"><ele>2519.1</ele><time>2026-03-02T10:51:14.000Z</time></trkpt>
<trkpt lat="42.173377" lon="23.36708"><ele>2516.1</ele><time>2026-03-02T10:51:15.000Z</time></trkpt>
<trkpt lat="42.173376" lon="23.367095"><ele>2516.1</ele><time>2026-03-02T10:51:16.000Z</time></trkpt>
<trkpt lat="42.173374" lon="23.367111"><ele>2516.1</ele><time>2026-03-02T10:51:17.000Z</time></trkpt>
<trkpt lat="42.173373" lon="23.367128"><ele>2516.1</ele><time>2026-03-02T10:51:18.000Z</time></trkpt>
<trkpt lat="42.173372" lon="23.367146"><ele>2516.1</ele><time>2026-03-02T10:51:19.000Z</time></trkpt>
<trkpt lat="42.17337" lon="23.367162"><ele>2513.7</ele><time>2026-03-02T10:51:20.000Z</time></trkpt>
<trkpt lat="42.173367" lon="23.367178"><ele>2513.7</ele><time>2026-03-02T10:51:21.000Z</time></trkpt>
<trkpt lat="42.173365" lon="23.367193"><ele>2513.7</ele><time>2026-03-02T10:51:22.000Z</time></trkpt>
<trkpt lat="42.173362" lon="23.367209"><ele>2513.7</ele><time>2026-03-02T10:51:23.000Z</time></trkpt>
<trkpt lat="42.173358" lon="23.367224"><ele>2513.7</ele><time>2026-03-02T10:51:24.000Z</time></trkpt>
<trkpt lat="42.173355" lon="23.367238"><ele>2512.6</ele><time>2026-03-02T10:51:25.000Z</time></trkpt>
<trkpt lat="42.173353" lon="23.367253"><ele>2512.6</ele><time>2026-03-02T10:51:26.000Z</time></trkpt>
<trkpt lat="42.17335" lon="23.367269"><ele>2512.6</ele><time>2026-03-02T10:51:27.000Z</time></trkpt>
<trkpt lat="42.173347" lon="23.367285"><ele>2512.6</ele><time>2026-03-02T10:51:28.000Z</time></trkpt>
<trkpt lat="42.173344" lon="23.367302"><ele>2512.6</ele><time>2026-03-02T10:51:29.000Z</time></trkpt>
<trkpt lat="42.173341" lon="23.367319"><ele>2510.4</ele><time>2026-03-02T10:51:30.000Z</time></trkpt>
<trkpt lat="42.173337" lon="23.367336"><ele>2510.4</ele><time>2026-03-02T10:51:31.000Z</time></trkpt>
<trkpt lat="42.173333" lon="23.367352"><ele>2510.4</ele><time>2026-03-02T10:51:32.000Z</time></trkpt>
<trkpt lat="42.173328" lon="23.367368"><ele>2510.4</ele><time>2026-03-02T10:51:33.000Z</time></trkpt>
<trkpt lat="42.173323" lon="23.367383"><ele>2510.4</ele><time>2026-03-02T10:51:34.000Z</time></trkpt>
<trkpt lat="42.173318" lon="23.367398"><ele>2508.3</ele><time>2026-03-02T10:51:35.000Z</time></trkpt>
<trkpt lat="42.173312" lon="23.367413"><ele>2508.3</ele><time>2026-03-02T10:51:36.000Z</time></trkpt>
<trkpt lat="42.173306" lon="23.367427"><ele>2508.3</ele><time>2026-03-02T10:51:37.000Z</time></trkpt>
<trkpt lat="42.173301" lon="23.367442"><ele>2508.3</ele><time>2026-03-02T10:51:38.000Z</time></trkpt>
<trkpt lat="42.173297" lon="23.367459"><ele>2508.3</ele><time>2026-03-02T10:51:39.000Z</time></trkpt>
<trkpt lat="42.173293" lon="23.367476"><ele>2507.3</ele><time>2026-03-02T10:51:40.000Z</time></trkpt>
<trkpt lat="42.173288" lon="23.367495"><ele>2507.3</ele><time>2026-03-02T10:51:41.000Z</time></trkpt>
<trkpt lat="42.173283" lon="23.367514"><ele>2507.3</ele><time>2026-03-02T10:51:42.000Z</time></trkpt>
<trkpt lat="42.173276" lon="23.367533"><ele>2507.3</ele><time>2026-03-02T10:51:43.000Z</time></trkpt>
<trkpt lat="42.17327" lon="23.36755"><ele>2507.3</ele><time>2026-03-02T10:51:44.000Z</time></trkpt>
<trkpt lat="42.173262" lon="23.367567"><ele>2505.6</ele><time>2026-03-02T10:51:45.000Z</time></trkpt>
<trkpt lat="42.173254" lon="23.367584"><ele>2505.6</ele><time>2026-03-02T10:51:46.000Z</time></trkpt>
<trkpt lat="42.173247" lon="23.3676"><ele>2505.6</ele><time>2026-03-02T10:51:47.000Z</time></trkpt>
<trkpt lat="42.173238" lon="23.367615"><ele>2505.6</ele><time>2026-03-02T10:51:48.000Z</time></trkpt>
<trkpt lat="42.173229" lon="23.367631"><ele>2505.6</ele><time>2026-03-02T10:51:49.000Z</time></trkpt>
<trkpt lat="42.17322" lon="23.367645"><ele>2504.1</ele><time>2026-03-02T10:51:50.000Z</time></trkpt>
<trkpt lat="42.17321" lon="23.367659"><ele>2504.1</ele><time>2026-03-02T10:51:51.000Z</time></trkpt>
<trkpt lat="42.1732" lon="23.367673"><ele>2504.1</ele><time>2026-03-02T10:51:52.000Z</time></trkpt>
<trkpt lat="42.17319" lon="23.367688"><ele>2504.1</ele><time>2026-03-02T10:51:53.000Z</time></trkpt>
<trkpt lat="42.173181" lon="23.367703"><ele>2504.1</ele><time>2026-03-02T10:51:54.000Z</time></trkpt>
<trkpt lat="42.173173" lon="23.367718"><ele>2503.2</ele><time>2026-03-02T10:51:55.000Z</time></trkpt>
<trkpt lat="42.173165" lon="23.367734"><ele>2503.2</ele><time>2026-03-02T10:51:56.000Z</time></trkpt>
<trkpt lat="42.173157" lon="23.367748"><ele>2503.2</ele><time>2026-03-02T10:51:57.000Z</time></trkpt>
<trkpt lat="42.17315" lon="23.367761"><ele>2503.2</ele><time>2026-03-02T10:51:58.000Z</time></trkpt>
<trkpt lat="42.173143" lon="23.367773"><ele>2503.2</ele><time>2026-03-02T10:51:59.000Z</time></trkpt>
<trkpt lat="42.173136" lon="23.367785"><ele>2501.4</ele><time>2026-03-02T10:52:00.000Z</time></trkpt>
<trkpt lat="42.173129" lon="23.367797"><ele>2501.4</ele><time>2026-03-02T10:52:01.000Z</time></trkpt>
<trkpt lat="42.173122" lon="23.367809"><ele>2501.4</ele><time>2026-03-02T10:52:02.000Z</time></trkpt>
<trkpt lat="42.173115" lon="23.367822"><ele>2501.4</ele><time>2026-03-02T10:52:03.000Z</time></trkpt>
<trkpt lat="42.173108" lon="23.367835"><ele>2501.4</ele><time>2026-03-02T10:52:04.000Z</time></trkpt>
<trkpt lat="42.173102" lon="23.367849"><ele>2499.7</ele><time>2026-03-02T10:52:05.000Z</time></trkpt>
<trkpt lat="42.173096" lon="23.367862"><ele>2499.7</ele><time>2026-03-02T10:52:06.000Z</time></trkpt>
<trkpt lat="42.173092" lon="23.367872"><ele>2499.7</ele><time>2026-03-02T10:52:07.000Z</time></trkpt>
<trkpt lat="42.173089" lon="23.367879"><ele>2499.7</ele><time>2026-03-02T10:52:08.000Z</time></trkpt>
<trkpt lat="42.173088" lon="23.367883"><ele>2499.7</ele><time>2026-03-02T10:52:09.000Z</time></trkpt>
<trkpt lat="42.173087" lon="23.367885"><ele>2498.8</ele><time>2026-03-02T10:52:10.000Z</time></trkpt>
<trkpt lat="42.173086" lon="23.367885"><ele>2498.8</ele><time>2026-03-02T10:52:11.000Z</time></trkpt>
<trkpt lat="42.173086" lon="23.367885"><ele>2498.8</ele><time>2026-03-02T10:52:12.000Z</time></trkpt>
<trkpt lat="42.173086" lon="23.367885"><ele>2498.8</ele><time>2026-03-02T10:52:13.000Z</time></trkpt>
<trkpt lat="42.173086" lon="23.367886"><ele>2498.8</ele><time>2026-03-02T10:52:14.000Z</time></trkpt>
<trkpt lat="42.173085" lon="23.367889"><ele>2496.9</ele><time>2026-03-02T10:52:15.000Z</time></trkpt>
<trkpt lat="42.173084" lon="23.367893"><ele>2496.9</ele><time>2026-03-02T10:52:16.000Z</time></trkpt>
<trkpt lat="42.17308" lon="23.3679"><ele>2496.9</ele><time>2026-03-02T10:52:17.000Z</time></trkpt>
<trkpt lat="42.173074" lon="23.36791"><ele>2496.9</ele><time>2026-03-02T10:52:18.000Z</time></trkpt>
<trkpt lat="42.173069" lon="23.367921"><ele>2496.9</ele><time>2026-03-02T10:52:19.000Z</time></trkpt>
<trkpt lat="42.173063" lon="23.367933"><ele>2495.4</ele><time>2026-03-02T10:52:20.000Z</time></trkpt>
<trkpt lat="42.173058" lon="23.367945"><ele>2495.4</ele><time>2026-03-02T10:52:21.000Z</time></trkpt>
<trkpt lat="42.173053" lon="23.367954"><ele>2495.4</ele><time>2026-03-02T10:52:22.000Z</time></trkpt>
<trkpt lat="42.173049" lon="23.367962"><ele>2495.4</ele><time>2026-03-02T10:52:23.000Z</time></trkpt>
<trkpt lat="42.173047" lon="23.367967"><ele>2495.4</ele><time>2026-03-02T10:52:24.000Z</time></trkpt>
<trkpt lat="42.173044" lon="23.367969"><ele>2494.9</ele><time>2026-03-02T10:52:25.000Z</time></trkpt>
<trkpt lat="42.173043" lon="23.367969"><ele>2494.9</ele><time>2026-03-02T10:52:26.000Z</time></trkpt>
<trkpt lat="42.173043" lon="23.367969"><ele>2494.9</ele><time>2026-03-02T10:52:27.000Z</time></trkpt>
<trkpt lat="42.173044" lon="23.367969"><ele>2494.9</ele><time>2026-03-02T10:52:28.000Z</time></trkpt>
<trkpt lat="42.173044" lon="23.367969"><ele>2494.9</ele><time>2026-03-02T10:52:29.000Z</time></trkpt>
<trkpt lat="42.173045" lon="23.367969"><ele>2494.1</ele><time>2026-03-02T10:52:30.000Z</time></trkpt>
<trkpt lat="42.173045" lon="23.36797"><ele>2494.1</ele><time>2026-03-02T10:52:31.000Z</time></trkpt>
<trkpt lat="42.173045" lon="23.367972"><ele>2494.1</ele><time>2026-03-02T10:52:32.000Z</time></trkpt>
<trkpt lat="42.173044" lon="23.367976"><ele>2494.1</ele><time>2026-03-02T10:52:33.000Z</time></trkpt>
<trkpt lat="42.173042" lon="23.367981"><ele>2494.1</ele><time>2026-03-02T10:52:34.000Z</time></trkpt>
<trkpt lat="42.173038" lon="23.367988"><ele>2493.2</ele><time>2026-03-02T10:52:35.000Z</time></trkpt>
<trkpt lat="42.173034" lon="23.367997"><ele>2493.2</ele><time>2026-03-02T10:52:36.000Z</time></trkpt>
<trkpt lat="42.173028" lon="23.368006"><ele>2493.2</ele><time>2026-03-02T10:52:37.000Z</time></trkpt>
<trkpt lat="42.173023" lon="23.368016"><ele>2493.2</ele><time>2026-03-02T10:52:38.000Z</time></trkpt>
<trkpt lat="42.173018" lon="23.368026"><ele>2493.2</ele><time>2026-03-02T10:52:39.000Z</time></trkpt>
<trkpt lat="42.173014" lon="23.368035"><ele>2492.7</ele><time>2026-03-02T10:52:40.000Z</time></trkpt>
<trkpt lat="42.173009" lon="23.368045"><ele>2492.7</ele><time>2026-03-02T10:52:41.000Z</time></trkpt>
<trkpt lat="42.173004" lon="23.368055"><ele>2492.7</ele><time>2026-03-02T10:52:42.000Z</time></trkpt>
<trkpt lat="42.172999" lon="23.368065"><ele>2492.7</ele><time>2026-03-02T10:52:43.000Z</time></trkpt>
<trkpt lat="42.172994" lon="23.368076"><ele>2492.7</ele><time>2026-03-02T10:52:44.000Z</time></trkpt>
<trkpt lat="42.172988" lon="23.368088"><ele>2491.8</ele><time>2026-03-02T10:52:45.000Z</time></trkpt>
<trkpt lat="42.172981" lon="23.368102"><ele>2491.8</ele><time>2026-03-02T10:52:46.000Z</time></trkpt>
<trkpt lat="42.172975" lon="23.368116"><ele>2491.8</ele><time>2026-03-02T10:52:47.000Z</time></trkpt>
<trkpt lat="42.172969" lon="23.368131"><ele>2491.8</ele><time>2026-03-02T10:52:48.000Z</time></trkpt>
<trkpt lat="42.172963" lon="23.368146"><ele>2491.8</ele><time>2026-03-02T10:52:49.000Z</time></trkpt>
<trkpt lat="42.172957" lon="23.368159"><ele>2490.3</ele><time>2026-03-02T10:52:50.000Z</time></trkpt>
<trkpt lat="42.172952" lon="23.368171"><ele>2490.3</ele><time>2026-03-02T10:52:51.000Z</time></trkpt>
<trkpt lat="42.172946" lon="23.368183"><ele>2490.3</ele><time>2026-03-02T10:52:52.000Z</time></trkpt>
<trkpt lat="42.17294" lon="23.368195"><ele>2490.3</ele><time>2026-03-02T10:52:53.000Z</time></trkpt>
<trkpt lat="42.172935" lon="23.368207"><ele>2490.3</ele><time>2026-03-02T10:52:54.000Z</time></trkpt>
<trkpt lat="42.172929" lon="23.36822"><ele>2489.4</ele><time>2026-03-02T10:52:55.000Z</time></trkpt>
<trkpt lat="42.172922" lon="23.368234"><ele>2489.4</ele><time>2026-03-02T10:52:56.000Z</time></trkpt>
<trkpt lat="42.172916" lon="23.368248"><ele>2489.4</ele><time>2026-03-02T10:52:57.000Z</time></trkpt>
<trkpt lat="42.17291" lon="23.368262"><ele>2489.4</ele><time>2026-03-02T10:52:58.000Z</time></trkpt>
<trkpt lat="42.172902" lon="23.368276"><ele>2489.4</ele><time>2026-03-02T10:52:59.000Z</time></trkpt>
<trkpt lat="42.172895" lon="23.368289"><ele>2487.4</ele><time>2026-03-02T10:53:00.000Z</time></trkpt>
<trkpt lat="42.172888" lon="23.368303"><ele>2487.4</ele><time>2026-03-02T10:53:01.000Z</time></trkpt>
<trkpt lat="42.17288" lon="23.368316"><ele>2487.4</ele><time>2026-03-02T10:53:02.000Z</time></trkpt>
<trkpt lat="42.172872" lon="23.368328"><ele>2487.4</ele><time>2026-03-02T10:53:03.000Z</time></trkpt>
<trkpt lat="42.172864" lon="23.368341"><ele>2487.4</ele><time>2026-03-02T10:53:04.000Z</time></trkpt>
<trkpt lat="42.172856" lon="23.368354"><ele>2485.7</ele><time>2026-03-02T10:53:05.000Z</time></trkpt>
<trkpt lat="42.172849" lon="23.368367"><ele>2485.7</ele><time>2026-03-02T10:53:06.000Z</time></trkpt>
<trkpt lat="42.172841" lon="23.36838"><ele>2485.7</ele><time>2026-03-02T10:53:07.000Z</time></trkpt>
<trkpt lat="42.172834" lon="23.368391"><ele>2485.7</ele><time>2026-03-02T10:53:08.000Z</time></trkpt>
<trkpt lat="42.172827" lon="23.368402"><ele>2485.7</ele><time>2026-03-02T10:53:09.000Z</time></trkpt>
<trkpt lat="42.172821" lon="23.368413"><ele>2485</ele><time>2026-03-02T10:53:10.000Z</time></trkpt>
<trkpt lat="42.172814" lon="23.368423"><ele>2485</ele><time>2026-03-02T10:53:11.000Z</time></trkpt>
<trkpt lat="42.172807" lon="23.368434"><ele>2485</ele><time>2026-03-02T10:53:12.000Z</time></trkpt>
<trkpt lat="42.172799" lon="23.368445"><ele>2485</ele><time>2026-03-02T10:53:13.000Z</time></trkpt>
<trkpt lat="42.17279" lon="23.368457"><ele>2485</ele><time>2026-03-02T10:53:14.000Z</time></trkpt>
<trkpt lat="42.172782" lon="23.368469"><ele>2483.9</ele><time>2026-03-02T10:53:15.000Z</time></trkpt>
<trkpt lat="42.172773" lon="23.368482"><ele>2483.9</ele><time>2026-03-02T10:53:16.000Z</time></trkpt>
<trkpt lat="42.172765" lon="23.368495"><ele>2483.9</ele><time>2026-03-02T10:53:17.000Z</time></trkpt>
<trkpt lat="42.172757" lon="23.368507"><ele>2483.9</ele><time>2026-03-02T10:53:18.000Z</time></trkpt>
<trkpt lat="42.172749" lon="23.36852"><ele>2483.9</ele><time>2026-03-02T10:53:19.000Z</time></trkpt>
<trkpt lat="42.172741" lon="23.368532"><ele>2483.4</ele><time>2026-03-02T10:53:20.000Z</time></trkpt>
<trkpt lat="42.172732" lon="23.368545"><ele>2483.4</ele><time>2026-03-02T10:53:21.000Z</time></trkpt>
<trkpt lat="42.172724" lon="23.368556"><ele>2483.4</ele><time>2026-03-02T10:53:22.000Z</time></trkpt>
<trkpt lat="42.172717" lon="23.368568"><ele>2483.4</ele><time>2026-03-02T10:53:23.000Z</time></trkpt>
<trkpt lat="42.172708" lon="23.368579"><ele>2483.4</ele><time>2026-03-02T10:53:24.000Z</time></trkpt>
<trkpt lat="42.1727" lon="23.368591"><ele>2483.4</ele><time>2026-03-02T10:53:25.000Z</time></trkpt>
<trkpt lat="42.172692" lon="23.368603"><ele>2483.4</ele><time>2026-03-02T10:53:26.000Z</time></trkpt>
<trkpt lat="42.172684" lon="23.368616"><ele>2483.4</ele><time>2026-03-02T10:53:27.000Z</time></trkpt>
<trkpt lat="42.172676" lon="23.368629"><ele>2483.4</ele><time>2026-03-02T10:53:28.000Z</time></trkpt>
<trkpt lat="42.172667" lon="23.368641"><ele>2483.4</ele><time>2026-03-02T10:53:29.000Z</time></trkpt>
<trkpt lat="42.172659" lon="23.368653"><ele>2483.5</ele><time>2026-03-02T10:53:30.000Z</time></trkpt>
<trkpt lat="42.172651" lon="23.368664"><ele>2483.5</ele><time>2026-03-02T10:53:31.000Z</time></trkpt>
<trkpt lat="42.172644" lon="23.368675"><ele>2483.5</ele><time>2026-03-02T10:53:32.000Z</time></trkpt>
<trkpt lat="42.172637" lon="23.368685"><ele>2483.5</ele><time>2026-03-02T10:53:33.000Z</time></trkpt>
<trkpt lat="42.172631" lon="23.368695"><ele>2483.5</ele><time>2026-03-02T10:53:34.000Z</time></trkpt>
<trkpt lat="42.172625" lon="23.368705"><ele>2483.8</ele><time>2026-03-02T10:53:35.000Z</time></trkpt>
<trkpt lat="42.172618" lon="23.368716"><ele>2483.8</ele><time>2026-03-02T10:53:36.000Z</time></trkpt>
<trkpt lat="42.172611" lon="23.368726"><ele>2483.8</ele><time>2026-03-02T10:53:37.000Z</time></trkpt>
<trkpt lat="42.172604" lon="23.368737"><ele>2483.8</ele><time>2026-03-02T10:53:38.000Z</time></trkpt>
<trkpt lat="42.172597" lon="23.368749"><ele>2483.8</ele><time>2026-03-02T10:53:39.000Z</time></trkpt>
<trkpt lat="42.17259" lon="23.368761"><ele>2484</ele><time>2026-03-02T10:53:40.000Z</time></trkpt>
<trkpt lat="42.172584" lon="23.368772"><ele>2484</ele><time>2026-03-02T10:53:41.000Z</time></trkpt>
<trkpt lat="42.172577" lon="23.368783"><ele>2484</ele><time>2026-03-02T10:53:42.000Z</time></trkpt>
<trkpt lat="42.172572" lon="23.368795"><ele>2484</ele><time>2026-03-02T10:53:43.000Z</time></trkpt>
<trkpt lat="42.172566" lon="23.368807"><ele>2484</ele><time>2026-03-02T10:53:44.000Z</time></trkpt>
<trkpt lat="42.172561" lon="23.368818"><ele>2484.4</ele><time>2026-03-02T10:53:45.000Z</time></trkpt>
<trkpt lat="42.172555" lon="23.368829"><ele>2484.4</ele><time>2026-03-02T10:53:46.000Z</time></trkpt>
<trkpt lat="42.172549" lon="23.36884"><ele>2484.4</ele><time>2026-03-02T10:53:47.000Z</time></trkpt>
<trkpt lat="42.172542" lon="23.36885"><ele>2484.4</ele><time>2026-03-02T10:53:48.000Z</time></trkpt>
<trkpt lat="42.172535" lon="23.368861"><ele>2484.4</ele><time>2026-03-02T10:53:49.000Z</time></trkpt>
<trkpt lat="42.172529" lon="23.368873"><ele>2484.5</ele><time>2026-03-02T10:53:50.000Z</time></trkpt>
<trkpt lat="42.172525" lon="23.368886"><ele>2484.5</ele><time>2026-03-02T10:53:51.000Z</time></trkpt>
<trkpt lat="42.17252" lon="23.368898"><ele>2484.5</ele><time>2026-03-02T10:53:52.000Z</time></trkpt>
<trkpt lat="42.172516" lon="23.368911"><ele>2484.5</ele><time>2026-03-02T10:53:53.000Z</time></trkpt>
<trkpt lat="42.172511" lon="23.368925"><ele>2484.5</ele><time>2026-03-02T10:53:54.000Z</time></trkpt>
<trkpt lat="42.172507" lon="23.368938"><ele>2484.4</ele><time>2026-03-02T10:53:55.000Z</time></trkpt>
<trkpt lat="42.172501" lon="23.368952"><ele>2484.4</ele><time>2026-03-02T10:53:56.000Z</time></trkpt>
<trkpt lat="42.172496" lon="23.368968"><ele>2484.4</ele><time>2026-03-02T10:53:57.000Z</time></trkpt>
<trkpt lat="42.17249" lon="23.368983"><ele>2484.4</ele><time>2026-03-02T10:53:58.000Z</time></trkpt>
<trkpt lat="42.172485" lon="23.368999"><ele>2484.4</ele><time>2026-03-02T10:53:59.000Z</time></trkpt>
<trkpt lat="42.17248" lon="23.369016"><ele>2484</ele><time>2026-03-02T10:54:00.000Z</time></trkpt>
<trkpt lat="42.172476" lon="23.369032"><ele>2484</ele><time>2026-03-02T10:54:01.000Z</time></trkpt>
<trkpt lat="42.172472" lon="23.369047"><ele>2484</ele><time>2026-03-02T10:54:02.000Z</time></trkpt>
<trkpt lat="42.172467" lon="23.369063"><ele>2484</ele><time>2026-03-02T10:54:03.000Z</time></trkpt>
<trkpt lat="42.172463" lon="23.369078"><ele>2484</ele><time>2026-03-02T10:54:04.000Z</time></trkpt>
<trkpt lat="42.172458" lon="23.369092"><ele>2483.3</ele><time>2026-03-02T10:54:05.000Z</time></trkpt>
<trkpt lat="42.172453" lon="23.369107"><ele>2483.3</ele><time>2026-03-02T10:54:06.000Z</time></trkpt>
<trkpt lat="42.172448" lon="23.369123"><ele>2483.3</ele><time>2026-03-02T10:54:07.000Z</time></trkpt>
<trkpt lat="42.172443" lon="23.369139"><ele>2483.3</ele><time>2026-03-02T10:54:08.000Z</time></trkpt>
<trkpt lat="42.172437" lon="23.369155"><ele>2483.3</ele><time>2026-03-02T10:54:09.000Z</time></trkpt>
<trkpt lat="42.172431" lon="23.369171"><ele>2483</ele><time>2026-03-02T10:54:10.000Z</time></trkpt>
<trkpt lat="42.172425" lon="23.369187"><ele>2483</ele><time>2026-03-02T10:54:11.000Z</time></trkpt>
<trkpt lat="42.172419" lon="23.369202"><ele>2483</ele><time>2026-03-02T10:54:12.000Z</time></trkpt>
<trkpt lat="42.172413" lon="23.369217"><ele>2483</ele><time>2026-03-02T10:54:13.000Z</time></trkpt>
<trkpt lat="42.172406" lon="23.369232"><ele>2483</ele><time>2026-03-02T10:54:14.000Z</time></trkpt>
<trkpt lat="42.172401" lon="23.369247"><ele>2482.6</ele><time>2026-03-02T10:54:15.000Z</time></trkpt>
<trkpt lat="42.172396" lon="23.369262"><ele>2482.6</ele><time>2026-03-02T10:54:16.000Z</time></trkpt>
<trkpt lat="42.172391" lon="23.369276"><ele>2482.6</ele><time>2026-03-02T10:54:17.000Z</time></trkpt>
<trkpt lat="42.172385" lon="23.36929"><ele>2482.6</ele><time>2026-03-02T10:54:18.000Z</time></trkpt>
<trkpt lat="42.17238" lon="23.369304"><ele>2482.6</ele><time>2026-03-02T10:54:19.000Z</time></trkpt>
<trkpt lat="42.172375" lon="23.369318"><ele>2482.7</ele><time>2026-03-02T10:54:20.000Z</time></trkpt>
<trkpt lat="42.17237" lon="23.369333"><ele>2482.7</ele><time>2026-03-02T10:54:21.000Z</time></trkpt>
<trkpt lat="42.172365" lon="23.369349"><ele>2482.7</ele><time>2026-03-02T10:54:22.000Z</time></trkpt>
<trkpt lat="42.172359" lon="23.369366"><ele>2482.7</ele><time>2026-03-02T10:54:23.000Z</time></trkpt>
<trkpt lat="42.172354" lon="23.369384"><ele>2482.7</ele><time>2026-03-02T10:54:24.000Z</time></trkpt>
<trkpt lat="42.172348" lon="23.369401"><ele>2482.9</ele><time>2026-03-02T10:54:25.000Z</time></trkpt>
<trkpt lat="42.172342" lon="23.369418"><ele>2482.9</ele><time>2026-03-02T10:54:26.000Z</time></trkpt>
<trkpt lat="42.172337" lon="23.369435"><ele>2482.9</ele><time>2026-03-02T10:54:27.000Z</time></trkpt>
<trkpt lat="42.172333" lon="23.369451"><ele>2482.9</ele><time>2026-03-02T10:54:28.000Z</time></trkpt>
<trkpt lat="42.172329" lon="23.369467"><ele>2482.9</ele><time>2026-03-02T10:54:29.000Z</time></trkpt>
<trkpt lat="42.172324" lon="23.369482"><ele>2483.4</ele><time>2026-03-02T10:54:30.000Z</time></trkpt>
<trkpt lat="42.172319" lon="23.369497"><ele>2483.4</ele><time>2026-03-02T10:54:31.000Z</time></trkpt>
<trkpt lat="42.172314" lon="23.36951"><ele>2483.4</ele><time>2026-03-02T10:54:32.000Z</time></trkpt>
<trkpt lat="42.172309" lon="23.369524"><ele>2483.4</ele><time>2026-03-02T10:54:33.000Z</time></trkpt>
<trkpt lat="42.172304" lon="23.369537"><ele>2483.4</ele><time>2026-03-02T10:54:34.000Z</time></trkpt>
<trkpt lat="42.172301" lon="23.36955"><ele>2483.8</ele><time>2026-03-02T10:54:35.000Z</time></trkpt>
<trkpt lat="42.172298" lon="23.369564"><ele>2483.8</ele><time>2026-03-02T10:54:36.000Z</time></trkpt>
<trkpt lat="42.172295" lon="23.369578"><ele>2483.8</ele><time>2026-03-02T10:54:37.000Z</time></trkpt>
<trkpt lat="42.172293" lon="23.369592"><ele>2483.8</ele><time>2026-03-02T10:54:38.000Z</time></trkpt>
<trkpt lat="42.17229" lon="23.369606"><ele>2483.8</ele><time>2026-03-02T10:54:39.000Z</time></trkpt>
<trkpt lat="42.172287" lon="23.36962"><ele>2483.9</ele><time>2026-03-02T10:54:40.000Z</time></trkpt>
<trkpt lat="42.172284" lon="23.369636"><ele>2483.9</ele><time>2026-03-02T10:54:41.000Z</time></trkpt>
<trkpt lat="42.17228" lon="23.369651"><ele>2483.9</ele><time>2026-03-02T10:54:42.000Z</time></trkpt>
<trkpt lat="42.172277" lon="23.369668"><ele>2483.9</ele><time>2026-03-02T10:54:43.000Z</time></trkpt>
<trkpt lat="42.172274" lon="23.369684"><ele>2483.9</ele><time>2026-03-02T10:54:44.000Z</time></trkpt>
<trkpt lat="42.172271" lon="23.369702"><ele>2483.9</ele><time>2026-03-02T10:54:45.000Z</time></trkpt>
<trkpt lat="42.172268" lon="23.369719"><ele>2483.9</ele><time>2026-03-02T10:54:46.000Z</time></trkpt>
<trkpt lat="42.172265" lon="23.369735"><ele>2483.9</ele><time>2026-03-02T10:54:47.000Z</time></trkpt>
<trkpt lat="42.172261" lon="23.369752"><ele>2483.9</ele><time>2026-03-02T10:54:48.000Z</time></trkpt>
<trkpt lat="42.172258" lon="23.369769"><ele>2483.9</ele><time>2026-03-02T10:54:49.000Z</time></trkpt>
<trkpt lat="42.172253" lon="23.369786"><ele>2483.7</ele><time>2026-03-02T10:54:50.000Z</time></trkpt>
<trkpt lat="42.172248" lon="23.369803"><ele>2483.7</ele><time>2026-03-02T10:54:51.000Z</time></trkpt>
<trkpt lat="42.172244" lon="23.369819"><ele>2483.7</ele><time>2026-03-02T10:54:52.000Z</time></trkpt>
<trkpt lat="42.172239" lon="23.369834"><ele>2483.7</ele><time>2026-03-02T10:54:53.000Z</time></trkpt>
<trkpt lat="42.172236" lon="23.369849"><ele>2483.7</ele><time>2026-03-02T10:54:54.000Z</time></trkpt>
<trkpt lat="42.172233" lon="23.369864"><ele>2483.6</ele><time>2026-03-02T10:54:55.000Z</time></trkpt>
<trkpt lat="42.172233" lon="23.369879"><ele>2483.6</ele><time>2026-03-02T10:54:56.000Z</time></trkpt>
<trkpt lat="42.172234" lon="23.369895"><ele>2483.6</ele><time>2026-03-02T10:54:57.000Z</time></trkpt>
<trkpt lat="42.172236" lon="23.369911"><ele>2483.6</ele><time>2026-03-02T10:54:58.000Z</time></trkpt>
<trkpt lat="42.172239" lon="23.369927"><ele>2483.6</ele><time>2026-03-02T10:54:59.000Z</time></trkpt>
<trkpt lat="42.172241" lon="23.369943"><ele>2483.3</ele><time>2026-03-02T10:55:00.000Z</time></trkpt>
<trkpt lat="42.172244" lon="23.369959"><ele>2483.3</ele><time>2026-03-02T10:55:01.000Z</time></trkpt>
<trkpt lat="42.172244" lon="23.369973"><ele>2483.3</ele><time>2026-03-02T10:55:02.000Z</time></trkpt>
<trkpt lat="42.172244" lon="23.369986"><ele>2483.3</ele><time>2026-03-02T10:55:03.000Z</time></trkpt>
<trkpt lat="42.172244" lon="23.369997"><ele>2483.3</ele><time>2026-03-02T10:55:04.000Z</time></trkpt>
<trkpt lat="42.172245" lon="23.370007"><ele>2482.8</ele><time>2026-03-02T10:55:05.000Z</time></trkpt>
<trkpt lat="42.172246" lon="23.370019"><ele>2482.8</ele><time>2026-03-02T10:55:06.000Z</time></trkpt>
<trkpt lat="42.172249" lon="23.370031"><ele>2482.8</ele><time>2026-03-02T10:55:07.000Z</time></trkpt>
<trkpt lat="42.172251" lon="23.370044"><ele>2482.8</ele><time>2026-03-02T10:55:08.000Z</time></trkpt>
<trkpt lat="42.172253" lon="23.370058"><ele>2482.8</ele><time>2026-03-02T10:55:09.000Z</time></trkpt>
<trkpt lat="42.172255" lon="23.370071"><ele>2482.6</ele><time>2026-03-02T10:55:10.000Z</time></trkpt>
<trkpt lat="42.172255" lon="23.370081"><ele>2482.6</ele><time>2026-03-02T10:55:11.000Z</time></trkpt>
<trkpt lat="42.172254" lon="23.370087"><ele>2482.6</ele><time>2026-03-02T10:55:12.000Z</time></trkpt>
<trkpt lat="42.172251" lon="23.37009"><ele>2482.6</ele><time>2026-03-02T10:55:13.000Z</time></trkpt>
<trkpt lat="42.172246" lon="23.370089"><ele>2482.6</ele><time>2026-03-02T10:55:14.000Z</time></trkpt>
<trkpt lat="42.172242" lon="23.370084"><ele>2482.3</ele><time>2026-03-02T10:55:15.000Z</time></trkpt>
<trkpt lat="42.172236" lon="23.370076"><ele>2482.3</ele><time>2026-03-02T10:55:16.000Z</time></trkpt>
<trkpt lat="42.17223" lon="23.370068"><ele>2482.3</ele><time>2026-03-02T10:55:17.000Z</time></trkpt>
<trkpt lat="42.172225" lon="23.370061"><ele>2482.3</ele><time>2026-03-02T10:55:18.000Z</time></trkpt>
<trkpt lat="42.172221" lon="23.370053"><ele>2482.3</ele><time>2026-03-02T10:55:19.000Z</time></trkpt>
<trkpt lat="42.172217" lon="23.370047"><ele>2482.1</ele><time>2026-03-02T10:55:20.000Z</time></trkpt>
<trkpt lat="42.172213" lon="23.370046"><ele>2482.1</ele><time>2026-03-02T10:55:21.000Z</time></trkpt>
<trkpt lat="42.17221" lon="23.370047"><ele>2482.1</ele><time>2026-03-02T10:55:22.000Z</time></trkpt>
<trkpt lat="42.172208" lon="23.370051"><ele>2482.1</ele><time>2026-03-02T10:55:23.000Z</time></trkpt>
<trkpt lat="42.172205" lon="23.370058"><ele>2482.1</ele><time>2026-03-02T10:55:24.000Z</time></trkpt>
<trkpt lat="42.172203" lon="23.370066"><ele>2482</ele><time>2026-03-02T10:55:25.000Z</time></trkpt>
<trkpt lat="42.172201" lon="23.370073"><ele>2482</ele><time>2026-03-02T10:55:26.000Z</time></trkpt>
<trkpt lat="42.172201" lon="23.37008"><ele>2482</ele><time>2026-03-02T10:55:27.000Z</time></trkpt>
<trkpt lat="42.1722" lon="23.370086"><ele>2482</ele><time>2026-03-02T10:55:28.000Z</time></trkpt>
<trkpt lat="42.1722" lon="23.370091"><ele>2482</ele><time>2026-03-02T10:55:29.000Z</time></trkpt>
<trkpt lat="42.172198" lon="23.370095"><ele>2481.9</ele><time>2026-03-02T10:55:30.000Z</time></trkpt>
<trkpt lat="42.172198" lon="23.370101"><ele>2481.9</ele><time>2026-03-02T10:55:31.000Z</time></trkpt>
<trkpt lat="42.172196" lon="23.370104"><ele>2481.9</ele><time>2026-03-02T10:55:32.000Z</time></trkpt>
<trkpt lat="42.172195" lon="23.370107"><ele>2481.9</ele><time>2026-03-02T10:55:33.000Z</time></trkpt>
<trkpt lat="42.172195" lon="23.370109"><ele>2481.9</ele><time>2026-03-02T10:55:34.000Z</time></trkpt>
<trkpt lat="42.172195" lon="23.37011"><ele>2481.8</ele><time>2026-03-02T10:55:35.000Z</time></trkpt>
<trkpt lat="42.172194" lon="23.370107"><ele>2481.8</ele><time>2026-03-02T10:55:36.000Z</time></trkpt>
<trkpt lat="42.172194" lon="23.370105"><ele>2481.8</ele><time>2026-03-02T10:55:37.000Z</time></trkpt>
<trkpt lat="42.172193" lon="23.370102"><ele>2481.8</ele><time>2026-03-02T10:55:38.000Z</time></trkpt>
<trkpt lat="42.172195" lon="23.370098"><ele>2481.8</ele><time>2026-03-02T10:55:39.000Z</time></trkpt>
<trkpt lat="42.172198" lon="23.370094"><ele>2481.8</ele><time>2026-03-02T10:55:40.000Z</time></trkpt>
<trkpt lat="42.172202" lon="23.370092"><ele>2481.8</ele><time>2026-03-02T10:55:41.000Z</time></trkpt>
<trkpt lat="42.172206" lon="23.37009"><ele>2481.8</ele><time>2026-03-02T10:55:42.000Z</time></trkpt>
<trkpt lat="42.17221" lon="23.370089"><ele>2481.8</ele><time>2026-03-02T10:55:43.000Z</time></trkpt>
<trkpt lat="42.172213" lon="23.37009"><ele>2481.8</ele><time>2026-03-02T10:55:44.000Z</time></trkpt>
<trkpt lat="42.172214" lon="23.370091"><ele>2481.9</ele><time>2026-03-02T10:55:45.000Z</time></trkpt>
<trkpt lat="42.172213" lon="23.37009"><ele>2481.9</ele><time>2026-03-02T10:55:46.000Z</time></trkpt>
<trkpt lat="42.172213" lon="23.37009"><ele>2481.9</ele><time>2026-03-02T10:55:47.000Z</time></trkpt>
<trkpt lat="42.172213" lon="23.370089"><ele>2481.9</ele><time>2026-03-02T10:55:48.000Z</time></trkpt>
<trkpt lat="42.172213" lon="23.370089"><ele>2481.9</ele><time>2026-03-02T10:55:49.000Z</time></trkpt>
<trkpt lat="42.172213" lon="23.370089"><ele>2481.9</ele><time>2026-03-02T10:55:50.000Z</time></trkpt>
<trkpt lat="42.172213" lon="23.370089"><ele>2481.9</ele><time>2026-03-02T10:55:51.000Z</time></trkpt>
<trkpt lat="42.172214" lon="23.370089"><ele>2481.9</ele><time>2026-03-02T10:55:52.000Z</time></trkpt>
<trkpt lat="42.172214" lon="23.370089"><ele>2481.9</ele><time>2026-03-02T10:55:53.000Z</time></trkpt>
<trkpt lat="42.172215" lon="23.37009"><ele>2481.9</ele><time>2026-03-02T10:55:54.000Z</time></trkpt>
<trkpt lat="42.172216" lon="23.37009"><ele>2481.9</ele><time>2026-03-02T10:55:55.000Z</time></trkpt>
<trkpt lat="42.172218" lon="23.370089"><ele>2481.9</ele><time>2026-03-02T10:55:56.000Z</time></trkpt>
<trkpt lat="42.17222" lon="23.370087"><ele>2481.9</ele><time>2026-03-02T10:55:57.000Z</time></trkpt>
<trkpt lat="42.172224" lon="23.370085"><ele>2481.9</ele><time>2026-03-02T10:55:58.000Z</time></trkpt>
<trkpt lat="42.172229" lon="23.370084"><ele>2481.9</ele><time>2026-03-02T10:55:59.000Z</time></trkpt>
<trkpt lat="42.172235" lon="23.370083"><ele>2481.7</ele><time>2026-03-02T10:56:00.000Z</time></trkpt>
<trkpt lat="42.172239" lon="23.370083"><ele>2481.7</ele><time>2026-03-02T10:56:01.000Z</time></trkpt>
<trkpt lat="42.172242" lon="23.370083"><ele>2481.7</ele><time>2026-03-02T10:56:02.000Z</time></trkpt>
<trkpt lat="42.172243" lon="23.370085"><ele>2481.7</ele><time>2026-03-02T10:56:03.000Z</time></trkpt>
<trkpt lat="42.172244" lon="23.370086"><ele>2481.7</ele><time>2026-03-02T10:56:04.000Z</time></trkpt>
<trkpt lat="42.172246" lon="23.37009"><ele>2481.6</ele><time>2026-03-02T10:56:05.000Z</time></trkpt>
<trkpt lat="42.172248" lon="23.370098"><ele>2481.6</ele><time>2026-03-02T10:56:06.000Z</time></trkpt>
<trkpt lat="42.172251" lon="23.370109"><ele>2481.6</ele><time>2026-03-02T10:56:07.000Z</time></trkpt>
<trkpt lat="42.172255" lon="23.370122"><ele>2481.6</ele><time>2026-03-02T10:56:08.000Z</time></trkpt>
<trkpt lat="42.172258" lon="23.370136"><ele>2481.6</ele><time>2026-03-02T10:56:09.000Z</time></trkpt>
<trkpt lat="42.17226" lon="23.370151"><ele>2481.6</ele><time>2026-03-02T10:56:10.000Z</time></trkpt>
<trkpt lat="42.172263" lon="23.370163"><ele>2481.6</ele><time>2026-03-02T10:56:11.000Z</time></trkpt>
<trkpt lat="42.172265" lon="23.370175"><ele>2481.6</ele><time>2026-03-02T10:56:12.000Z</time></trkpt>
<trkpt lat="42.172267" lon="23.370187"><ele>2481.6</ele><time>2026-03-02T10:56:13.000Z</time></trkpt>
<trkpt lat="42.172268" lon="23.370198"><ele>2481.6</ele><time>2026-03-02T10:56:14.000Z</time></trkpt>
<trkpt lat="42.172268" lon="23.37021"><ele>2481.5</ele><time>2026-03-02T10:56:15.000Z</time></trkpt>
<trkpt lat="42.172269" lon="23.370223"><ele>2481.5</ele><time>2026-03-02T10:56:16.000Z</time></trkpt>
<trkpt lat="42.172269" lon="23.370237"><ele>2481.5</ele><time>2026-03-02T10:56:17.000Z</time></trkpt>
<trkpt lat="42.172269" lon="23.370251"><ele>2481.5</ele><time>2026-03-02T10:56:18.000Z</time></trkpt>
<trkpt lat="42.172271" lon="23.370265"><ele>2481.5</ele><time>2026-03-02T10:56:19.000Z</time></trkpt>
<trkpt lat="42.172274" lon="23.37028"><ele>2481</ele><time>2026-03-02T10:56:20.000Z</time></trkpt>
<trkpt lat="42.172277" lon="23.370294"><ele>2481</ele><time>2026-03-02T10:56:21.000Z</time></trkpt>
<trkpt lat="42.17228" lon="23.370307"><ele>2481</ele><time>2026-03-02T10:56:22.000Z</time></trkpt>
<trkpt lat="42.172284" lon="23.37032"><ele>2481</ele><time>2026-03-02T10:56:23.000Z</time></trkpt>
<trkpt lat="42.172287" lon="23.370333"><ele>2481</ele><time>2026-03-02T10:56:24.000Z</time></trkpt>
<trkpt lat="42.172289" lon="23.370345"><ele>2480.5</ele><time>2026-03-02T10:56:25.000Z</time></trkpt>
<trkpt lat="42.172292" lon="23.370357"><ele>2480.5</ele><time>2026-03-02T10:56:26.000Z</time></trkpt>
<trkpt lat="42.172295" lon="23.370368"><ele>2480.5</ele><time>2026-03-02T10:56:27.000Z</time></trkpt>
<trkpt lat="42.172299" lon="23.370379"><ele>2480.5</ele><time>2026-03-02T10:56:28.000Z</time></trkpt>
<trkpt lat="42.172305" lon="23.370388"><ele>2480.5</ele><time>2026-03-02T10:56:29.000Z</time></trkpt>
<trkpt lat="42.172311" lon="23.370398"><ele>2479.2</ele><time>2026-03-02T10:56:30.000Z</time></trkpt>
<trkpt lat="42.172317" lon="23.370407"><ele>2479.2</ele><time>2026-03-02T10:56:31.000Z</time></trkpt>
<trkpt lat="42.172324" lon="23.370416"><ele>2479.2</ele><time>2026-03-02T10:56:32.000Z</time></trkpt>
<trkpt lat="42.172331" lon="23.370425"><ele>2479.2</ele><time>2026-03-02T10:56:33.000Z</time></trkpt>
<trkpt lat="42.172339" lon="23.370434"><ele>2479.2</ele><time>2026-03-02T10:56:34.000Z</time></trkpt>
<trkpt lat="42.172346" lon="23.370443"><ele>2477.9</ele><time>2026-03-02T10:56:35.000Z</time></trkpt>
<trkpt lat="42.172353" lon="23.370453"><ele>2477.9</ele><time>2026-03-02T10:56:36.000Z</time></trkpt>
<trkpt lat="42.172361" lon="23.370462"><ele>2477.9</ele><time>2026-03-02T10:56:37.000Z</time></trkpt>
<trkpt lat="42.172368" lon="23.370471"><ele>2477.9</ele><time>2026-03-02T10:56:38.000Z</time></trkpt>
<trkpt lat="42.172376" lon="23.37048"><ele>2477.9</ele><time>2026-03-02T10:56:39.000Z</time></trkpt>
<trkpt lat="42.172383" lon="23.370487"><ele>2477.3</ele><time>2026-03-02T10:56:40.000Z</time></trkpt>
<trkpt lat="42.172392" lon="23.370494"><ele>2477.3</ele><time>2026-03-02T10:56:41.000Z</time></trkpt>
<trkpt lat="42.1724" lon="23.370501"><ele>2477.3</ele><time>2026-03-02T10:56:42.000Z</time></trkpt>
<trkpt lat="42.172407" lon="23.370509"><ele>2477.3</ele><time>2026-03-02T10:56:43.000Z</time></trkpt>
<trkpt lat="42.172412" lon="23.370517"><ele>2477.3</ele><time>2026-03-02T10:56:44.000Z</time></trkpt>
<trkpt lat="42.172416" lon="23.370524"><ele>2476.5</ele><time>2026-03-02T10:56:45.000Z</time></trkpt>
<trkpt lat="42.172418" lon="23.37053"><ele>2476.5</ele><time>2026-03-02T10:56:46.000Z</time></trkpt>
<trkpt lat="42.172418" lon="23.370535"><ele>2476.5</ele><time>2026-03-02T10:56:47.000Z</time></trkpt>
<trkpt lat="42.172419" lon="23.370538"><ele>2476.5</ele><time>2026-03-02T10:56:48.000Z</time></trkpt>
<trkpt lat="42.17242" lon="23.370539"><ele>2476.5</ele><time>2026-03-02T10:56:49.000Z</time></trkpt>
<trkpt lat="42.172419" lon="23.37054"><ele>2476</ele><time>2026-03-02T10:56:50.000Z</time></trkpt>
<trkpt lat="42.172419" lon="23.370541"><ele>2476</ele><time>2026-03-02T10:56:51.000Z</time></trkpt>
<trkpt lat="42.172419" lon="23.370541"><ele>2476</ele><time>2026-03-02T10:56:52.000Z</time></trkpt>
<trkpt lat="42.172419" lon="23.370541"><ele>2476</ele><time>2026-03-02T10:56:53.000Z</time></trkpt>
<trkpt lat="42.172418" lon="23.370542"><ele>2476</ele><time>2026-03-02T10:56:54.000Z</time></trkpt>
<trkpt lat="42.172418" lon="23.370542"><ele>2476</ele><time>2026-03-02T10:56:55.000Z</time></trkpt>
<trkpt lat="42.172418" lon="23.370542"><ele>2476</ele><time>2026-03-02T10:56:56.000Z</time></trkpt>
<trkpt lat="42.172417" lon="23.370542"><ele>2476</ele><time>2026-03-02T10:56:57.000Z</time></trkpt>
<trkpt lat="42.172417" lon="23.370542"><ele>2476</ele><time>2026-03-02T10:56:58.000Z</time></trkpt>
<trkpt lat="42.172416" lon="23.370542"><ele>2476</ele><time>2026-03-02T10:56:59.000Z</time></trkpt>
<trkpt lat="42.172416" lon="23.370542"><ele>2476</ele><time>2026-03-02T10:57:00.000Z</time></trkpt>
<trkpt lat="42.172416" lon="23.370542"><ele>2476</ele><time>2026-03-02T10:57:01.000Z</time></trkpt>
<trkpt lat="42.172417" lon="23.370542"><ele>2476</ele><time>2026-03-02T10:57:02.000Z</time></trkpt>
<trkpt lat="42.172418" lon="23.370541"><ele>2476</ele><time>2026-03-02T10:57:03.000Z</time></trkpt>
<trkpt lat="42.172419" lon="23.370541"><ele>2476</ele><time>2026-03-02T10:57:04.000Z</time></trkpt>
<trkpt lat="42.172419" lon="23.37054"><ele>2476</ele><time>2026-03-02T10:57:05.000Z</time></trkpt>
<trkpt lat="42.172419" lon="23.37054"><ele>2476</ele><time>2026-03-02T10:57:06.000Z</time></trkpt>
<trkpt lat="42.172419" lon="23.37054"><ele>2476</ele><time>2026-03-02T10:57:07.000Z</time></trkpt>
<trkpt lat="42.17242" lon="23.37054"><ele>2476</ele><time>2026-03-02T10:57:08.000Z</time></trkpt>
<trkpt lat="42.17242" lon="23.370541"><ele>2476</ele><time>2026-03-02T10:57:09.000Z</time></trkpt>
<trkpt lat="42.172421" lon="23.370541"><ele>2476.1</ele><time>2026-03-02T10:57:10.000Z</time></trkpt>
<trkpt lat="42.172421" lon="23.370542"><ele>2476.1</ele><time>2026-03-02T10:57:11.000Z</time></trkpt>
<trkpt lat="42.172422" lon="23.370543"><ele>2476.1</ele><time>2026-03-02T10:57:12.000Z</time></trkpt>
<trkpt lat="42.172424" lon="23.370546"><ele>2476.1</ele><time>2026-03-02T10:57:13.000Z</time></trkpt>
<trkpt lat="42.172425" lon="23.37055"><ele>2476.1</ele><time>2026-03-02T10:57:14.000Z</time></trkpt>
<trkpt lat="42.172426" lon="23.370556"><ele>2476</ele><time>2026-03-02T10:57:15.000Z</time></trkpt>
<trkpt lat="42.172427" lon="23.370561"><ele>2476</ele><time>2026-03-02T10:57:16.000Z</time></trkpt>
<trkpt lat="42.172427" lon="23.370567"><ele>2476</ele><time>2026-03-02T10:57:17.000Z</time></trkpt>
<trkpt lat="42.172427" lon="23.37057"><ele>2476</ele><time>2026-03-02T10:57:18.000Z</time></trkpt>
<trkpt lat="42.172428" lon="23.370573"><ele>2476</ele><time>2026-03-02T10:57:19.000Z</time></trkpt>
<trkpt lat="42.172428" lon="23.370574"><ele>2475.9</ele><time>2026-03-02T10:57:20.000Z</time></trkpt>
<trkpt lat="42.172429" lon="23.370575"><ele>2475.9</ele><time>2026-03-02T10:57:21.000Z</time></trkpt>
<trkpt lat="42.17243" lon="23.370576"><ele>2475.9</ele><time>2026-03-02T10:57:22.000Z</time></trkpt>
<trkpt lat="42.17243" lon="23.370577"><ele>2475.9</ele><time>2026-03-02T10:57:23.000Z</time></trkpt>
<trkpt lat="42.17243" lon="23.370578"><ele>2475.9</ele><time>2026-03-02T10:57:24.000Z</time></trkpt>
<trkpt lat="42.17243" lon="23.370578"><ele>2475.8</ele><time>2026-03-02T10:57:25.000Z</time></trkpt>
<trkpt lat="42.17243" lon="23.370578"><ele>2475.8</ele><time>2026-03-02T10:57:26.000Z</time></trkpt>
<trkpt lat="42.17243" lon="23.370578"><ele>2475.8</ele><time>2026-03-02T10:57:27.000Z</time></trkpt>
<trkpt lat="42.17243" lon="23.370578"><ele>2475.8</ele><time>2026-03-02T10:57:28.000Z</time></trkpt>
<trkpt lat="42.17243" lon="23.370578"><ele>2475.8</ele><time>2026-03-02T10:57:29.000Z</time></trkpt>
<trkpt lat="42.17243" lon="23.370578"><ele>2475.6</ele><time>2026-03-02T10:57:30.000Z</time></trkpt>
<trkpt lat="42.17243" lon="23.370578"><ele>2475.6</ele><time>2026-03-02T10:57:31.000Z</time></trkpt>
<trkpt lat="42.17243" lon="23.370578"><ele>2475.6</ele><time>2026-03-02T10:57:32.000Z</time></trkpt>
<trkpt lat="42.172431" lon="23.370578"><ele>2475.6</ele><time>2026-03-02T10:57:33.000Z</time></trkpt>
<trkpt lat="42.172431" lon="23.370578"><ele>2475.6</ele><time>2026-03-02T10:57:34.000Z</time></trkpt>
<trkpt lat="42.172432" lon="23.370578"><ele>2475.4</ele><time>2026-03-02T10:57:35.000Z</time></trkpt>
<trkpt lat="42.172432" lon="23.370579"><ele>2475.4</ele><time>2026-03-02T10:57:36.000Z</time></trkpt>
<trkpt lat="42.172433" lon="23.370579"><ele>2475.4</ele><time>2026-03-02T10:57:37.000Z</time></trkpt>
<trkpt lat="42.172433" lon="23.370578"><ele>2475.4</ele><time>2026-03-02T10:57:38.000Z</time></trkpt>
<trkpt lat="42.172433" lon="23.370578"><ele>2475.4</ele><time>2026-03-02T10:57:39.000Z</time></trkpt>
<trkpt lat="42.172433" lon="23.370578"><ele>2475.4</ele><time>2026-03-02T10:57:40.000Z</time></trkpt>
<trkpt lat="42.172433" lon="23.370577"><ele>2475.4</ele><time>2026-03-02T10:57:41.000Z</time></trkpt>
<trkpt lat="42.172433" lon="23.370577"><ele>2475.4</ele><time>2026-03-02T10:57:42.000Z</time></trkpt>
<trkpt lat="42.172433" lon="23.370577"><ele>2475.4</ele><time>2026-03-02T10:57:43.000Z</time></trkpt>
<trkpt lat="42.172433" lon="23.370577"><ele>2475.4</ele><time>2026-03-02T10:57:44.000Z</time></trkpt>
<trkpt lat="42.172433" lon="23.370577"><ele>2475.5</ele><time>2026-03-02T10:57:45.000Z</time></trkpt>
<trkpt lat="42.172433" lon="23.370577"><ele>2475.5</ele><time>2026-03-02T10:57:46.000Z</time></trkpt>
<trkpt lat="42.172433" lon="23.370577"><ele>2475.5</ele><time>2026-03-02T10:57:47.000Z</time></trkpt>
<trkpt lat="42.172433" lon="23.370575"><ele>2475.5</ele><time>2026-03-02T10:57:48.000Z</time></trkpt>
<trkpt lat="42.172435" lon="23.370572"><ele>2475.5</ele><time>2026-03-02T10:57:49.000Z</time></trkpt>
<trkpt lat="42.172439" lon="23.370567"><ele>2475.6</ele><time>2026-03-02T10:57:50.000Z</time></trkpt>
<trkpt lat="42.172443" lon="23.370563"><ele>2475.6</ele><time>2026-03-02T10:57:51.000Z</time></trkpt>
<trkpt lat="42.172448" lon="23.370559"><ele>2475.6</ele><time>2026-03-02T10:57:52.000Z</time></trkpt>
<trkpt lat="42.172454" lon="23.370557"><ele>2475.6</ele><time>2026-03-02T10:57:53.000Z</time></trkpt>
<trkpt lat="42.17246" lon="23.370557"><ele>2475.6</ele><time>2026-03-02T10:57:54.000Z</time></trkpt>
<trkpt lat="42.172465" lon="23.370559"><ele>2475.5</ele><time>2026-03-02T10:57:55.000Z</time></trkpt>
<trkpt lat="42.17247" lon="23.370563"><ele>2475.5</ele><time>2026-03-02T10:57:56.000Z</time></trkpt>
<trkpt lat="42.172476" lon="23.370567"><ele>2475.5</ele><time>2026-03-02T10:57:57.000Z</time></trkpt>
<trkpt lat="42.172482" lon="23.370573"><ele>2475.5</ele><time>2026-03-02T10:57:58.000Z</time></trkpt>
<trkpt lat="42.172488" lon="23.370579"><ele>2475.5</ele><time>2026-03-02T10:57:59.000Z</time></trkpt>
<trkpt lat="42.172494" lon="23.370586"><ele>2475.4</ele><time>2026-03-02T10:58:00.000Z</time></trkpt>
<trkpt lat="42.172499" lon="23.370594"><ele>2475.4</ele><time>2026-03-02T10:58:01.000Z</time></trkpt>
<trkpt lat="42.172504" lon="23.370602"><ele>2475.4</ele><time>2026-03-02T10:58:02.000Z</time></trkpt>
<trkpt lat="42.172508" lon="23.37061"><ele>2475.4</ele><time>2026-03-02T10:58:03.000Z</time></trkpt>
<trkpt lat="42.172511" lon="23.370619"><ele>2475.4</ele><time>2026-03-02T10:58:04.000Z</time></trkpt>
<trkpt lat="42.172515" lon="23.370628"><ele>2475</ele><time>2026-03-02T10:58:05.000Z</time></trkpt>
<trkpt lat="42.172517" lon="23.370638"><ele>2475</ele><time>2026-03-02T10:58:06.000Z</time></trkpt>
<trkpt lat="42.17252" lon="23.370649"><ele>2475</ele><time>2026-03-02T10:58:07.000Z</time></trkpt>
<trkpt lat="42.172522" lon="23.37066"><ele>2475</ele><time>2026-03-02T10:58:08.000Z</time></trkpt>
<trkpt lat="42.172525" lon="23.370671"><ele>2475</ele><time>2026-03-02T10:58:09.000Z</time></trkpt>
<trkpt lat="42.172526" lon="23.370683"><ele>2474.5</ele><time>2026-03-02T10:58:10.000Z</time></trkpt>
<trkpt lat="42.172528" lon="23.370694"><ele>2474.5</ele><time>2026-03-02T10:58:11.000Z</time></trkpt>
<trkpt lat="42.172528" lon="23.370704"><ele>2474.5</ele><time>2026-03-02T10:58:12.000Z</time></trkpt>
<trkpt lat="42.172528" lon="23.370712"><ele>2474.5</ele><time>2026-03-02T10:58:13.000Z</time></trkpt>
<trkpt lat="42.172529" lon="23.370721"><ele>2474.5</ele><time>2026-03-02T10:58:14.000Z</time></trkpt>
<trkpt lat="42.17253" lon="23.370729"><ele>2473.1</ele><time>2026-03-02T10:58:15.000Z</time></trkpt>
<trkpt lat="42.172531" lon="23.370739"><ele>2473.1</ele><time>2026-03-02T10:58:16.000Z</time></trkpt>
<trkpt lat="42.172534" lon="23.370749"><ele>2473.1</ele><time>2026-03-02T10:58:17.000Z</time></trkpt>
<trkpt lat="42.172537" lon="23.370761"><ele>2473.1</ele><time>2026-03-02T10:58:18.000Z</time></trkpt>
<trkpt lat="42.17254" lon="23.370775"><ele>2473.1</ele><time>2026-03-02T10:58:19.000Z</time></trkpt>
<trkpt lat="42.172543" lon="23.37079"><ele>2471.2</ele><time>2026-03-02T10:58:20.000Z</time></trkpt>
<trkpt lat="42.172544" lon="23.370806"><ele>2471.2</ele><time>2026-03-02T10:58:21.000Z</time></trkpt>
<trkpt lat="42.172544" lon="23.370823"><ele>2471.2</ele><time>2026-03-02T10:58:22.000Z</time></trkpt>
<trkpt lat="42.172542" lon="23.37084"><ele>2471.2</ele><time>2026-03-02T10:58:23.000Z</time></trkpt>
<trkpt lat="42.172538" lon="23.370858"><ele>2471.2</ele><time>2026-03-02T10:58:24.000Z</time></trkpt>
<trkpt lat="42.172535" lon="23.370875"><ele>2470.3</ele><time>2026-03-02T10:58:25.000Z</time></trkpt>
<trkpt lat="42.172532" lon="23.370893"><ele>2470.3</ele><time>2026-03-02T10:58:26.000Z</time></trkpt>
<trkpt lat="42.17253" lon="23.37091"><ele>2470.3</ele><time>2026-03-02T10:58:27.000Z</time></trkpt>
<trkpt lat="42.172528" lon="23.370927"><ele>2470.3</ele><time>2026-03-02T10:58:28.000Z</time></trkpt>
<trkpt lat="42.172526" lon="23.370942"><ele>2470.3</ele><time>2026-03-02T10:58:29.000Z</time></trkpt>
<trkpt lat="42.172525" lon="23.370956"><ele>2468.5</ele><time>2026-03-02T10:58:30.000Z</time></trkpt>
<trkpt lat="42.172525" lon="23.370968"><ele>2468.5</ele><time>2026-03-02T10:58:31.000Z</time></trkpt>
<trkpt lat="42.172526" lon="23.370978"><ele>2468.5</ele><time>2026-03-02T10:58:32.000Z</time></trkpt>
<trkpt lat="42.172527" lon="23.370987"><ele>2468.5</ele><time>2026-03-02T10:58:33.000Z</time></trkpt>
<trkpt lat="42.17253" lon="23.370996"><ele>2468.5</ele><time>2026-03-02T10:58:34.000Z</time></trkpt>
<trkpt lat="42.172532" lon="23.371005"><ele>2466.4</ele><time>2026-03-02T10:58:35.000Z</time></trkpt>
<trkpt lat="42.172535" lon="23.371014"><ele>2466.4</ele><time>2026-03-02T10:58:36.000Z</time></trkpt>
<trkpt lat="42.172537" lon="23.371023"><ele>2466.4</ele><time>2026-03-02T10:58:37.000Z</time></trkpt>
<trkpt lat="42.172538" lon="23.37103"><ele>2466.4</ele><time>2026-03-02T10:58:38.000Z</time></trkpt>
<trkpt lat="42.17254" lon="23.371035"><ele>2466.4</ele><time>2026-03-02T10:58:39.000Z</time></trkpt>
<trkpt lat="42.172541" lon="23.371038"><ele>2465.5</ele><time>2026-03-02T10:58:40.000Z</time></trkpt>
<trkpt lat="42.172543" lon="23.37104"><ele>2465.5</ele><time>2026-03-02T10:58:41.000Z</time></trkpt>
<trkpt lat="42.172545" lon="23.371044"><ele>2465.5</ele><time>2026-03-02T10:58:42.000Z</time></trkpt>
<trkpt lat="42.172546" lon="23.371049"><ele>2465.5</ele><time>2026-03-02T10:58:43.000Z</time></trkpt>
<trkpt lat="42.172546" lon="23.371056"><ele>2465.5</ele><time>2026-03-02T10:58:44.000Z</time></trkpt>
<trkpt lat="42.172545" lon="23.371065"><ele>2463.9</ele><time>2026-03-02T10:58:45.000Z</time></trkpt>
<trkpt lat="42.172544" lon="23.371077"><ele>2463.9</ele><time>2026-03-02T10:58:46.000Z</time></trkpt>
<trkpt lat="42.172544" lon="23.371088"><ele>2463.9</ele><time>2026-03-02T10:58:47.000Z</time></trkpt>
<trkpt lat="42.172544" lon="23.371099"><ele>2463.9</ele><time>2026-03-02T10:58:48.000Z</time></trkpt>
<trkpt lat="42.172544" lon="23.371109"><ele>2463.9</ele><time>2026-03-02T10:58:49.000Z</time></trkpt>
<trkpt lat="42.172544" lon="23.37112"><ele>2462.9</ele><time>2026-03-02T10:58:50.000Z</time></trkpt>
<trkpt lat="42.172543" lon="23.37113"><ele>2462.9</ele><time>2026-03-02T10:58:51.000Z</time></trkpt>
<trkpt lat="42.172542" lon="23.37114"><ele>2462.9</ele><time>2026-03-02T10:58:52.000Z</time></trkpt>
<trkpt lat="42.172541" lon="23.371151"><ele>2462.9</ele><time>2026-03-02T10:58:53.000Z</time></trkpt>
<trkpt lat="42.17254" lon="23.371161"><ele>2462.9</ele><time>2026-03-02T10:58:54.000Z</time></trkpt>
<trkpt lat="42.172541" lon="23.371171"><ele>2462.4</ele><time>2026-03-02T10:58:55.000Z</time></trkpt>
<trkpt lat="42.172541" lon="23.37118"><ele>2462.4</ele><time>2026-03-02T10:58:56.000Z</time></trkpt>
<trkpt lat="42.172541" lon="23.371188"><ele>2462.4</ele><time>2026-03-02T10:58:57.000Z</time></trkpt>
<trkpt lat="42.172541" lon="23.371193"><ele>2462.4</ele><time>2026-03-02T10:58:58.000Z</time></trkpt>
<trkpt lat="42.172541" lon="23.371197"><ele>2462.4</ele><time>2026-03-02T10:58:59.000Z</time></trkpt>
<trkpt lat="42.172541" lon="23.3712"><ele>2461</ele><time>2026-03-02T10:59:00.000Z</time></trkpt>
<trkpt lat="42.172541" lon="23.371203"><ele>2461</ele><time>2026-03-02T10:59:01.000Z</time></trkpt>
<trkpt lat="42.172541" lon="23.371208"><ele>2461</ele><time>2026-03-02T10:59:02.000Z</time></trkpt>
<trkpt lat="42.172541" lon="23.371215"><ele>2461</ele><time>2026-03-02T10:59:03.000Z</time></trkpt>
<trkpt lat="42.172542" lon="23.371222"><ele>2461</ele><time>2026-03-02T10:59:04.000Z</time></trkpt>
<trkpt lat="42.172541" lon="23.37123"><ele>2459.2</ele><time>2026-03-02T10:59:05.000Z</time></trkpt>
<trkpt lat="42.17254" lon="23.371238"><ele>2459.2</ele><time>2026-03-02T10:59:06.000Z</time></trkpt>
<trkpt lat="42.172538" lon="23.371244"><ele>2459.2</ele><time>2026-03-02T10:59:07.000Z</time></trkpt>
<trkpt lat="42.172537" lon="23.37125"><ele>2459.2</ele><time>2026-03-02T10:59:08.000Z</time></trkpt>
<trkpt lat="42.172537" lon="23.371256"><ele>2459.2</ele><time>2026-03-02T10:59:09.000Z</time></trkpt>
<trkpt lat="42.172537" lon="23.371263"><ele>2458.5</ele><time>2026-03-02T10:59:10.000Z</time></trkpt>
<trkpt lat="42.172539" lon="23.371271"><ele>2458.5</ele><time>2026-03-02T10:59:11.000Z</time></trkpt>
<trkpt lat="42.172542" lon="23.37128"><ele>2458.5</ele><time>2026-03-02T10:59:12.000Z</time></trkpt>
<trkpt lat="42.172544" lon="23.37129"><ele>2458.5</ele><time>2026-03-02T10:59:13.000Z</time></trkpt>
<trkpt lat="42.172547" lon="23.3713"><ele>2458.5</ele><time>2026-03-02T10:59:14.000Z</time></trkpt>
<trkpt lat="42.172549" lon="23.371312"><ele>2457.3</ele><time>2026-03-02T10:59:15.000Z</time></trkpt>
<trkpt lat="42.172551" lon="23.371323"><ele>2457.3</ele><time>2026-03-02T10:59:16.000Z</time></trkpt>
<trkpt lat="42.172552" lon="23.371335"><ele>2457.3</ele><time>2026-03-02T10:59:17.000Z</time></trkpt>
<trkpt lat="42.172554" lon="23.371347"><ele>2457.3</ele><time>2026-03-02T10:59:18.000Z</time></trkpt>
<trkpt lat="42.172555" lon="23.371359"><ele>2457.3</ele><time>2026-03-02T10:59:19.000Z</time></trkpt>
<trkpt lat="42.172557" lon="23.371372"><ele>2456.1</ele><time>2026-03-02T10:59:20.000Z</time></trkpt>
<trkpt lat="42.172559" lon="23.371385"><ele>2456.1</ele><time>2026-03-02T10:59:21.000Z</time></trkpt>
<trkpt lat="42.172561" lon="23.371398"><ele>2456.1</ele><time>2026-03-02T10:59:22.000Z</time></trkpt>
<trkpt lat="42.172563" lon="23.371413"><ele>2456.1</ele><time>2026-03-02T10:59:23.000Z</time></trkpt>
<trkpt lat="42.172566" lon="23.371428"><ele>2456.1</ele><time>2026-03-02T10:59:24.000Z</time></trkpt>
<trkpt lat="42.172569" lon="23.371443"><ele>2455.4</ele><time>2026-03-02T10:59:25.000Z</time></trkpt>
<trkpt lat="42.172572" lon="23.37146"><ele>2455.4</ele><time>2026-03-02T10:59:26.000Z</time></trkpt>
<trkpt lat="42.172576" lon="23.371476"><ele>2455.4</ele><time>2026-03-02T10:59:27.000Z</time></trkpt>
<trkpt lat="42.172579" lon="23.371492"><ele>2455.4</ele><time>2026-03-02T10:59:28.000Z</time></trkpt>
<trkpt lat="42.172582" lon="23.37151"><ele>2455.4</ele><time>2026-03-02T10:59:29.000Z</time></trkpt>
<trkpt lat="42.172584" lon="23.371528"><ele>2453.6</ele><time>2026-03-02T10:59:30.000Z</time></trkpt>
<trkpt lat="42.172585" lon="23.371547"><ele>2453.6</ele><time>2026-03-02T10:59:31.000Z</time></trkpt>
<trkpt lat="42.172587" lon="23.371566"><ele>2453.6</ele><time>2026-03-02T10:59:32.000Z</time></trkpt>
<trkpt lat="42.172588" lon="23.371584"><ele>2453.6</ele><time>2026-03-02T10:59:33.000Z</time></trkpt>
<trkpt lat="42.172589" lon="23.371602"><ele>2453.6</ele><time>2026-03-02T10:59:34.000Z</time></trkpt>
<trkpt lat="42.172591" lon="23.371619"><ele>2451.9</ele><time>2026-03-02T10:59:35.000Z</time></trkpt>
<trkpt lat="42.172593" lon="23.371637"><ele>2451.9</ele><time>2026-03-02T10:59:36.000Z</time></trkpt>
<trkpt lat="42.172596" lon="23.371655"><ele>2451.9</ele><time>2026-03-02T10:59:37.000Z</time></trkpt>
<trkpt lat="42.172599" lon="23.371673"><ele>2451.9</ele><time>2026-03-02T10:59:38.000Z</time></trkpt>
<trkpt lat="42.172601" lon="23.371692"><ele>2451.9</ele><time>2026-03-02T10:59:39.000Z</time></trkpt>
<trkpt lat="42.172602" lon="23.371711"><ele>2451.1</ele><time>2026-03-02T10:59:40.000Z</time></trkpt>
<trkpt lat="42.172603" lon="23.37173"><ele>2451.1</ele><time>2026-03-02T10:59:41.000Z</time></trkpt>
<trkpt lat="42.172602" lon="23.371749"><ele>2451.1</ele><time>2026-03-02T10:59:42.000Z</time></trkpt>
<trkpt lat="42.172602" lon="23.371767"><ele>2451.1</ele><time>2026-03-02T10:59:43.000Z</time></trkpt>
<trkpt lat="42.1726" lon="23.371786"><ele>2451.1</ele><time>2026-03-02T10:59:44.000Z</time></trkpt>
<trkpt lat="42.172599" lon="23.371805"><ele>2450.1</ele><time>2026-03-02T10:59:45.000Z</time></trkpt>
<trkpt lat="42.172598" lon="23.371825"><ele>2450.1</ele><time>2026-03-02T10:59:46.000Z</time></trkpt>
<trkpt lat="42.172598" lon="23.371844"><ele>2450.1</ele><time>2026-03-02T10:59:47.000Z</time></trkpt>
<trkpt lat="42.172597" lon="23.371864"><ele>2450.1</ele><time>2026-03-02T10:59:48.000Z</time></trkpt>
<trkpt lat="42.172598" lon="23.371884"><ele>2450.1</ele><time>2026-03-02T10:59:49.000Z</time></trkpt>
<trkpt lat="42.172598" lon="23.371903"><ele>2449.5</ele><time>2026-03-02T10:59:50.000Z</time></trkpt>
<trkpt lat="42.172597" lon="23.371922"><ele>2449.5</ele><time>2026-03-02T10:59:51.000Z</time></trkpt>
<trkpt lat="42.172596" lon="23.371941"><ele>2449.5</ele><time>2026-03-02T10:59:52.000Z</time></trkpt>
<trkpt lat="42.172594" lon="23.371959"><ele>2449.5</ele><time>2026-03-02T10:59:53.000Z</time></trkpt>
<trkpt lat="42.172592" lon="23.371977"><ele>2449.5</ele><time>2026-03-02T10:59:54.000Z</time></trkpt>
<trkpt lat="42.172592" lon="23.371994"><ele>2449.3</ele><time>2026-03-02T10:59:55.000Z</time></trkpt>
<trkpt lat="42.172591" lon="23.372011"><ele>2449.3</ele><time>2026-03-02T10:59:56.000Z</time></trkpt>
<trkpt lat="42.172591" lon="23.372027"><ele>2449.3</ele><time>2026-03-02T10:59:57.000Z</time></trkpt>
<trkpt lat="42.17259" lon="23.372044"><ele>2449.3</ele><time>2026-03-02T10:59:58.000Z</time></trkpt>
<trkpt lat="42.17259" lon="23.372058"><ele>2449.3</ele><time>2026-03-02T10:59:59.000Z</time></trkpt>
<trkpt lat="42.172589" lon="23.372071"><ele>2448.7</ele><time>2026-03-02T11:00:00.000Z</time></trkpt>
<trkpt lat="42.172589" lon="23.372079"><ele>2448.7</ele><time>2026-03-02T11:00:01.000Z</time></trkpt>
<trkpt lat="42.172588" lon="23.372083"><ele>2448.7</ele><time>2026-03-02T11:00:02.000Z</time></trkpt>
<trkpt lat="42.172587" lon="23.372086"><ele>2448.7</ele><time>2026-03-02T11:00:03.000Z</time></trkpt>
<trkpt lat="42.172587" lon="23.372089"><ele>2448.7</ele><time>2026-03-02T11:00:04.000Z</time></trkpt>
<trkpt lat="42.172587" lon="23.372095"><ele>2447.7</ele><time>2026-03-02T11:00:05.000Z</time></trkpt>
<trkpt lat="42.172585" lon="23.372106"><ele>2447.7</ele><time>2026-03-02T11:00:06.000Z</time></trkpt>
<trkpt lat="42.172584" lon="23.37212"><ele>2447.7</ele><time>2026-03-02T11:00:07.000Z</time></trkpt>
<trkpt lat="42.172582" lon="23.372136"><ele>2447.7</ele><time>2026-03-02T11:00:08.000Z</time></trkpt>
<trkpt lat="42.172578" lon="23.372152"><ele>2447.7</ele><time>2026-03-02T11:00:09.000Z</time></trkpt>
<trkpt lat="42.172575" lon="23.372168"><ele>2447.1</ele><time>2026-03-02T11:00:10.000Z</time></trkpt>
<trkpt lat="42.172572" lon="23.372184"><ele>2447.1</ele><time>2026-03-02T11:00:11.000Z</time></trkpt>
<trkpt lat="42.17257" lon="23.3722"><ele>2447.1</ele><time>2026-03-02T11:00:12.000Z</time></trkpt>
<trkpt lat="42.172569" lon="23.372216"><ele>2447.1</ele><time>2026-03-02T11:00:13.000Z</time></trkpt>
<trkpt lat="42.172568" lon="23.372232"><ele>2447.1</ele><time>2026-03-02T11:00:14.000Z</time></trkpt>
<trkpt lat="42.172567" lon="23.372249"><ele>2446.2</ele><time>2026-03-02T11:00:15.000Z</time></trkpt>
<trkpt lat="42.172565" lon="23.372265"><ele>2446.2</ele><time>2026-03-02T11:00:16.000Z</time></trkpt>
<trkpt lat="42.172563" lon="23.372281"><ele>2446.2</ele><time>2026-03-02T11:00:17.000Z</time></trkpt>
<trkpt lat="42.172562" lon="23.372296"><ele>2446.2</ele><time>2026-03-02T11:00:18.000Z</time></trkpt>
<trkpt lat="42.172563" lon="23.372311"><ele>2446.2</ele><time>2026-03-02T11:00:19.000Z</time></trkpt>
<trkpt lat="42.172564" lon="23.372324"><ele>2445.5</ele><time>2026-03-02T11:00:20.000Z</time></trkpt>
<trkpt lat="42.172567" lon="23.372338"><ele>2445.5</ele><time>2026-03-02T11:00:21.000Z</time></trkpt>
<trkpt lat="42.17257" lon="23.372352"><ele>2445.5</ele><time>2026-03-02T11:00:22.000Z</time></trkpt>
<trkpt lat="42.172573" lon="23.372366"><ele>2445.5</ele><time>2026-03-02T11:00:23.000Z</time></trkpt>
<trkpt lat="42.172572" lon="23.372379"><ele>2445.5</ele><time>2026-03-02T11:00:24.000Z</time></trkpt>
<trkpt lat="42.172568" lon="23.372389"><ele>2445.1</ele><time>2026-03-02T11:00:25.000Z</time></trkpt>
<trkpt lat="42.172562" lon="23.372398"><ele>2445.1</ele><time>2026-03-02T11:00:26.000Z</time></trkpt>
<trkpt lat="42.172553" lon="23.372405"><ele>2445.1</ele><time>2026-03-02T11:00:27.000Z</time></trkpt>
<trkpt lat="42.172545" lon="23.372411"><ele>2445.1</ele><time>2026-03-02T11:00:28.000Z</time></trkpt>
<trkpt lat="42.172537" lon="23.372418"><ele>2445.1</ele><time>2026-03-02T11:00:29.000Z</time></trkpt>
<trkpt lat="42.172531" lon="23.372426"><ele>2444.3</ele><time>2026-03-02T11:00:30.000Z</time></trkpt>
<trkpt lat="42.172527" lon="23.372436"><ele>2444.3</ele><time>2026-03-02T11:00:31.000Z</time></trkpt>
<trkpt lat="42.172522" lon="23.372447"><ele>2444.3</ele><time>2026-03-02T11:00:32.000Z</time></trkpt>
<trkpt lat="42.172518" lon="23.372457"><ele>2444.3</ele><time>2026-03-02T11:00:33.000Z</time></trkpt>
<trkpt lat="42.172515" lon="23.372468"><ele>2444.3</ele><time>2026-03-02T11:00:34.000Z</time></trkpt>
<trkpt lat="42.172512" lon="23.372479"><ele>2443.4</ele><time>2026-03-02T11:00:35.000Z</time></trkpt>
<trkpt lat="42.172508" lon="23.37249"><ele>2443.4</ele><time>2026-03-02T11:00:36.000Z</time></trkpt>
<trkpt lat="42.172504" lon="23.3725"><ele>2443.4</ele><time>2026-03-02T11:00:37.000Z</time></trkpt>
<trkpt lat="42.1725" lon="23.37251"><ele>2443.4</ele><time>2026-03-02T11:00:38.000Z</time></trkpt>
<trkpt lat="42.172497" lon="23.372519"><ele>2443.4</ele><time>2026-03-02T11:00:39.000Z</time></trkpt>
<trkpt lat="42.172493" lon="23.372528"><ele>2442.9</ele><time>2026-03-02T11:00:40.000Z</time></trkpt>
<trkpt lat="42.172489" lon="23.372538"><ele>2442.9</ele><time>2026-03-02T11:00:41.000Z</time></trkpt>
<trkpt lat="42.172486" lon="23.372548"><ele>2442.9</ele><time>2026-03-02T11:00:42.000Z</time></trkpt>
<trkpt lat="42.172482" lon="23.372558"><ele>2442.9</ele><time>2026-03-02T11:00:43.000Z</time></trkpt>
<trkpt lat="42.172478" lon="23.372569"><ele>2442.9</ele><time>2026-03-02T11:00:44.000Z</time></trkpt>
<trkpt lat="42.172474" lon="23.37258"><ele>2441.5</ele><time>2026-03-02T11:00:45.000Z</time></trkpt>
<trkpt lat="42.17247" lon="23.372592"><ele>2441.5</ele><time>2026-03-02T11:00:46.000Z</time></trkpt>
<trkpt lat="42.172467" lon="23.372606"><ele>2441.5</ele><time>2026-03-02T11:00:47.000Z</time></trkpt>
<trkpt lat="42.172464" lon="23.37262"><ele>2441.5</ele><time>2026-03-02T11:00:48.000Z</time></trkpt>
<trkpt lat="42.172462" lon="23.372633"><ele>2441.5</ele><time>2026-03-02T11:00:49.000Z</time></trkpt>
<trkpt lat="42.17246" lon="23.372646"><ele>2439.7</ele><time>2026-03-02T11:00:50.000Z</time></trkpt>
<trkpt lat="42.172458" lon="23.372657"><ele>2439.7</ele><time>2026-03-02T11:00:51.000Z</time></trkpt>
<trkpt lat="42.172456" lon="23.372669"><ele>2439.7</ele><time>2026-03-02T11:00:52.000Z</time></trkpt>
<trkpt lat="42.172454" lon="23.372679"><ele>2439.7</ele><time>2026-03-02T11:00:53.000Z</time></trkpt>
<trkpt lat="42.172454" lon="23.372689"><ele>2439.7</ele><time>2026-03-02T11:00:54.000Z</time></trkpt>
<trkpt lat="42.172454" lon="23.372699"><ele>2438.8</ele><time>2026-03-02T11:00:55.000Z</time></trkpt>
<trkpt lat="42.172453" lon="23.37271"><ele>2438.8</ele><time>2026-03-02T11:00:56.000Z</time></trkpt>
<trkpt lat="42.172453" lon="23.372719"><ele>2438.8</ele><time>2026-03-02T11:00:57.000Z</time></trkpt>
<trkpt lat="42.172453" lon="23.372728"><ele>2438.8</ele><time>2026-03-02T11:00:58.000Z</time></trkpt>
<trkpt lat="42.172451" lon="23.372736"><ele>2438.8</ele><time>2026-03-02T11:00:59.000Z</time></trkpt>
<trkpt lat="42.17245" lon="23.372744"><ele>2437</ele><time>2026-03-02T11:01:00.000Z</time></trkpt>
<trkpt lat="42.17245" lon="23.37275"><ele>2437</ele><time>2026-03-02T11:01:01.000Z</time></trkpt>
<trkpt lat="42.17245" lon="23.372757"><ele>2437</ele><time>2026-03-02T11:01:02.000Z</time></trkpt>
<trkpt lat="42.172451" lon="23.372763"><ele>2437</ele><time>2026-03-02T11:01:03.000Z</time></trkpt>
<trkpt lat="42.172452" lon="23.372769"><ele>2437</ele><time>2026-03-02T11:01:04.000Z</time></trkpt>
<trkpt lat="42.172452" lon="23.372775"><ele>2435.4</ele><time>2026-03-02T11:01:05.000Z</time></trkpt>
<trkpt lat="42.172451" lon="23.37278"><ele>2435.4</ele><time>2026-03-02T11:01:06.000Z</time></trkpt>
<trkpt lat="42.172451" lon="23.372785"><ele>2435.4</ele><time>2026-03-02T11:01:07.000Z</time></trkpt>
<trkpt lat="42.17245" lon="23.372789"><ele>2435.4</ele><time>2026-03-02T11:01:08.000Z</time></trkpt>
<trkpt lat="42.172449" lon="23.372791"><ele>2435.4</ele><time>2026-03-02T11:01:09.000Z</time></trkpt>
<trkpt lat="42.172447" lon="23.372794"><ele>2434.5</ele><time>2026-03-02T11:01:10.000Z</time></trkpt>
<trkpt lat="42.172447" lon="23.372795"><ele>2434.5</ele><time>2026-03-02T11:01:11.000Z</time></trkpt>
<trkpt lat="42.172448" lon="23.372798"><ele>2434.5</ele><time>2026-03-02T11:01:12.000Z</time></trkpt>
<trkpt lat="42.172448" lon="23.372802"><ele>2434.5</ele><time>2026-03-02T11:01:13.000Z</time></trkpt>
<trkpt lat="42.172449" lon="23.372808"><ele>2434.5</ele><time>2026-03-02T11:01:14.000Z</time></trkpt>
<trkpt lat="42.17245" lon="23.372814"><ele>2432.6</ele><time>2026-03-02T11:01:15.000Z</time></trkpt>
<trkpt lat="42.17245" lon="23.372821"><ele>2432.6</ele><time>2026-03-02T11:01:16.000Z</time></trkpt>
<trkpt lat="42.17245" lon="23.372827"><ele>2432.6</ele><time>2026-03-02T11:01:17.000Z</time></trkpt>
<trkpt lat="42.172451" lon="23.372831"><ele>2432.6</ele><time>2026-03-02T11:01:18.000Z</time></trkpt>
<trkpt lat="42.172451" lon="23.372834"><ele>2432.6</ele><time>2026-03-02T11:01:19.000Z</time></trkpt>
<trkpt lat="42.172451" lon="23.372835"><ele>2431</ele><time>2026-03-02T11:01:20.000Z</time></trkpt>
<trkpt lat="42.17245" lon="23.372835"><ele>2431</ele><time>2026-03-02T11:01:21.000Z</time></trkpt>
<trkpt lat="42.17245" lon="23.372835"><ele>2431</ele><time>2026-03-02T11:01:22.000Z</time></trkpt>
<trkpt lat="42.17245" lon="23.372835"><ele>2431</ele><time>2026-03-02T11:01:23.000Z</time></trkpt>
<trkpt lat="42.172449" lon="23.372836"><ele>2431</ele><time>2026-03-02T11:01:24.000Z</time></trkpt>
<trkpt lat="42.172449" lon="23.372836"><ele>2430.3</ele><time>2026-03-02T11:01:25.000Z</time></trkpt>
<trkpt lat="42.172448" lon="23.372836"><ele>2430.3</ele><time>2026-03-02T11:01:26.000Z</time></trkpt>
<trkpt lat="42.172448" lon="23.372836"><ele>2430.3</ele><time>2026-03-02T11:01:27.000Z</time></trkpt>
<trkpt lat="42.172448" lon="23.372835"><ele>2430.3</ele><time>2026-03-02T11:01:28.000Z</time></trkpt>
<trkpt lat="42.172447" lon="23.372835"><ele>2430.3</ele><time>2026-03-02T11:01:29.000Z</time></trkpt>
<trkpt lat="42.172449" lon="23.372836"><ele>2428.9</ele><time>2026-03-02T11:01:30.000Z</time></trkpt>
<trkpt lat="42.17245" lon="23.372837"><ele>2428.9</ele><time>2026-03-02T11:01:31.000Z</time></trkpt>
<trkpt lat="42.172452" lon="23.372838"><ele>2428.9</ele><time>2026-03-02T11:01:32.000Z</time></trkpt>
<trkpt lat="42.172453" lon="23.37284"><ele>2428.9</ele><time>2026-03-02T11:01:33.000Z</time></trkpt>
<trkpt lat="42.172455" lon="23.372841"><ele>2428.9</ele><time>2026-03-02T11:01:34.000Z</time></trkpt>
<trkpt lat="42.172456" lon="23.372842"><ele>2428</ele><time>2026-03-02T11:01:35.000Z</time></trkpt>
<trkpt lat="42.172456" lon="23.372842"><ele>2428</ele><time>2026-03-02T11:01:36.000Z</time></trkpt>
<trkpt lat="42.172455" lon="23.372842"><ele>2428</ele><time>2026-03-02T11:01:37.000Z</time></trkpt>
<trkpt lat="42.172455" lon="23.372842"><ele>2428</ele><time>2026-03-02T11:01:38.000Z</time></trkpt>
<trkpt lat="42.172454" lon="23.372842"><ele>2428</ele><time>2026-03-02T11:01:39.000Z</time></trkpt>
<trkpt lat="42.172453" lon="23.372842"><ele>2427.7</ele><time>2026-03-02T11:01:40.000Z</time></trkpt>
<trkpt lat="42.172453" lon="23.372842"><ele>2427.7</ele><time>2026-03-02T11:01:41.000Z</time></trkpt>
<trkpt lat="42.172453" lon="23.372842"><ele>2427.7</ele><time>2026-03-02T11:01:42.000Z</time></trkpt>
<trkpt lat="42.172453" lon="23.372842"><ele>2427.7</ele><time>2026-03-02T11:01:43.000Z</time></trkpt>
<trkpt lat="42.172453" lon="23.372842"><ele>2427.7</ele><time>2026-03-02T11:01:44.000Z</time></trkpt>
<trkpt lat="42.172453" lon="23.372842"><ele>2427.4</ele><time>2026-03-02T11:01:45.000Z</time></trkpt>
<trkpt lat="42.172453" lon="23.372842"><ele>2427.4</ele><time>2026-03-02T11:01:46.000Z</time></trkpt>
<trkpt lat="42.172453" lon="23.372842"><ele>2427.4</ele><time>2026-03-02T11:01:47.000Z</time></trkpt>
<trkpt lat="42.172453" lon="23.372842"><ele>2427.4</ele><time>2026-03-02T11:01:48.000Z</time></trkpt>
<trkpt lat="42.172453" lon="23.372842"><ele>2427.4</ele><time>2026-03-02T11:01:49.000Z</time></trkpt>
<trkpt lat="42.172453" lon="23.372842"><ele>2427.2</ele><time>2026-03-02T11:01:50.000Z</time></trkpt>
<trkpt lat="42.172453" lon="23.372842"><ele>2427.2</ele><time>2026-03-02T11:01:51.000Z</time></trkpt>
<trkpt lat="42.172453" lon="23.372842"><ele>2427.2</ele><time>2026-03-02T11:01:52.000Z</time></trkpt>
<trkpt lat="42.172454" lon="23.372842"><ele>2427.2</ele><time>2026-03-02T11:01:53.000Z</time></trkpt>
<trkpt lat="42.172454" lon="23.372842"><ele>2427.2</ele><time>2026-03-02T11:01:54.000Z</time></trkpt>
<trkpt lat="42.172453" lon="23.372842"><ele>2427.2</ele><time>2026-03-02T11:01:55.000Z</time></trkpt>
<trkpt lat="42.172453" lon="23.372842"><ele>2427.2</ele><time>2026-03-02T11:01:56.000Z</time></trkpt>
<trkpt lat="42.172452" lon="23.372842"><ele>2427.2</ele><time>2026-03-02T11:01:57.000Z</time></trkpt>
<trkpt lat="42.172452" lon="23.372842"><ele>2427.2</ele><time>2026-03-02T11:01:58.000Z</time></trkpt>
<trkpt lat="42.172451" lon="23.372842"><ele>2427.2</ele><time>2026-03-02T11:01:59.000Z</time></trkpt>
<trkpt lat="42.172452" lon="23.372842"><ele>2427.2</ele><time>2026-03-02T11:02:00.000Z</time></trkpt>
<trkpt lat="42.172452" lon="23.372842"><ele>2427.2</ele><time>2026-03-02T11:02:01.000Z</time></trkpt>
<trkpt lat="42.172452" lon="23.372842"><ele>2427.2</ele><time>2026-03-02T11:02:02.000Z</time></trkpt>
<trkpt lat="42.172452" lon="23.372842"><ele>2427.2</ele><time>2026-03-02T11:02:03.000Z</time></trkpt>
<trkpt lat="42.172452" lon="23.372842"><ele>2427.2</ele><time>2026-03-02T11:02:04.000Z</time></trkpt>
<trkpt lat="42.172452" lon="23.372842"><ele>2427</ele><time>2026-03-02T11:02:05.000Z</time></trkpt>
<trkpt lat="42.172452" lon="23.372842"><ele>2427</ele><time>2026-03-02T11:02:06.000Z</time></trkpt>
<trkpt lat="42.172452" lon="23.372842"><ele>2427</ele><time>2026-03-02T11:02:07.000Z</time></trkpt>
<trkpt lat="42.172453" lon="23.372841"><ele>2427</ele><time>2026-03-02T11:02:08.000Z</time></trkpt>
<trkpt lat="42.172455" lon="23.372841"><ele>2427</ele><time>2026-03-02T11:02:09.000Z</time></trkpt>
<trkpt lat="42.172458" lon="23.37284"><ele>2426.9</ele><time>2026-03-02T11:02:10.000Z</time></trkpt>
<trkpt lat="42.172462" lon="23.372838"><ele>2426.9</ele><time>2026-03-02T11:02:11.000Z</time></trkpt>
<trkpt lat="42.172466" lon="23.372837"><ele>2426.9</ele><time>2026-03-02T11:02:12.000Z</time></trkpt>
<trkpt lat="42.172469" lon="23.372837"><ele>2426.9</ele><time>2026-03-02T11:02:13.000Z</time></trkpt>
<trkpt lat="42.172472" lon="23.372836"><ele>2426.9</ele><time>2026-03-02T11:02:14.000Z</time></trkpt>
<trkpt lat="42.172474" lon="23.372836"><ele>2426.7</ele><time>2026-03-02T11:02:15.000Z</time></trkpt>
<trkpt lat="42.172479" lon="23.372836"><ele>2426.7</ele><time>2026-03-02T11:02:16.000Z</time></trkpt>
<trkpt lat="42.172483" lon="23.372836"><ele>2426.7</ele><time>2026-03-02T11:02:17.000Z</time></trkpt>
<trkpt lat="42.172488" lon="23.372835"><ele>2426.7</ele><time>2026-03-02T11:02:18.000Z</time></trkpt>
<trkpt lat="42.172493" lon="23.372835"><ele>2426.7</ele><time>2026-03-02T11:02:19.000Z</time></trkpt>
<trkpt lat="42.172497" lon="23.372836"><ele>2426.4</ele><time>2026-03-02T11:02:20.000Z</time></trkpt>
<trkpt lat="42.172501" lon="23.372837"><ele>2426.4</ele><time>2026-03-02T11:02:21.000Z</time></trkpt>
<trkpt lat="42.172505" lon="23.372838"><ele>2426.4</ele><time>2026-03-02T11:02:22.000Z</time></trkpt>
<trkpt lat="42.172508" lon="23.37284"><ele>2426.4</ele><time>2026-03-02T11:02:23.000Z</time></trkpt>
<trkpt lat="42.172512" lon="23.372842"><ele>2426.4</ele><time>2026-03-02T11:02:24.000Z</time></trkpt>
<trkpt lat="42.172515" lon="23.372844"><ele>2426</ele><time>2026-03-02T11:02:25.000Z</time></trkpt>
<trkpt lat="42.172519" lon="23.372846"><ele>2426</ele><time>2026-03-02T11:02:26.000Z</time></trkpt>
<trkpt lat="42.172522" lon="23.372849"><ele>2426</ele><time>2026-03-02T11:02:27.000Z</time></trkpt>
<trkpt lat="42.172526" lon="23.372851"><ele>2426</ele><time>2026-03-02T11:02:28.000Z</time></trkpt>
<trkpt lat="42.172532" lon="23.372855"><ele>2426</ele><time>2026-03-02T11:02:29.000Z</time></trkpt>
<trkpt lat="42.172537" lon="23.372859"><ele>2424.9</ele><time>2026-03-02T11:02:30.000Z</time></trkpt>
<trkpt lat="42.172541" lon="23.372862"><ele>2424.9</ele><time>2026-03-02T11:02:31.000Z</time></trkpt>
<trkpt lat="42.172544" lon="23.372866"><ele>2424.9</ele><time>2026-03-02T11:02:32.000Z</time></trkpt>
<trkpt lat="42.172547" lon="23.372872"><ele>2424.9</ele><time>2026-03-02T11:02:33.000Z</time></trkpt>
<trkpt lat="42.172548" lon="23.372877"><ele>2424.9</ele><time>2026-03-02T11:02:34.000Z</time></trkpt>
<trkpt lat="42.172548" lon="23.372883"><ele>2423.3</ele><time>2026-03-02T11:02:35.000Z</time></trkpt>
<trkpt lat="42.17255" lon="23.372888"><ele>2423.3</ele><time>2026-03-02T11:02:36.000Z</time></trkpt>
<trkpt lat="42.172551" lon="23.372894"><ele>2423.3</ele><time>2026-03-02T11:02:37.000Z</time></trkpt>
<trkpt lat="42.172553" lon="23.372897"><ele>2423.3</ele><time>2026-03-02T11:02:38.000Z</time></trkpt>
<trkpt lat="42.172555" lon="23.372899"><ele>2423.3</ele><time>2026-03-02T11:02:39.000Z</time></trkpt>
<trkpt lat="42.172557" lon="23.372901"><ele>2422.4</ele><time>2026-03-02T11:02:40.000Z</time></trkpt>
<trkpt lat="42.172559" lon="23.372903"><ele>2422.4</ele><time>2026-03-02T11:02:41.000Z</time></trkpt>
<trkpt lat="42.172561" lon="23.372904"><ele>2422.4</ele><time>2026-03-02T11:02:42.000Z</time></trkpt>
<trkpt lat="42.172563" lon="23.372906"><ele>2422.4</ele><time>2026-03-02T11:02:43.000Z</time></trkpt>
<trkpt lat="42.172565" lon="23.372909"><ele>2422.4</ele><time>2026-03-02T11:02:44.000Z</time></trkpt>
<trkpt lat="42.172566" lon="23.372913"><ele>2420.7</ele><time>2026-03-02T11:02:45.000Z</time></trkpt>
<trkpt lat="42.172567" lon="23.372915"><ele>2420.7</ele><time>2026-03-02T11:02:46.000Z</time></trkpt>
<trkpt lat="42.172567" lon="23.372917"><ele>2420.7</ele><time>2026-03-02T11:02:47.000Z</time></trkpt>
<trkpt lat="42.172566" lon="23.372918"><ele>2420.7</ele><time>2026-03-02T11:02:48.000Z</time></trkpt>
<trkpt lat="42.172566" lon="23.372918"><ele>2420.7</ele><time>2026-03-02T11:02:49.000Z</time></trkpt>
<trkpt lat="42.172566" lon="23.372918"><ele>2419.3</ele><time>2026-03-02T11:02:50.000Z</time></trkpt>
<trkpt lat="42.172566" lon="23.372919"><ele>2419.3</ele><time>2026-03-02T11:02:51.000Z</time></trkpt>
<trkpt lat="42.172566" lon="23.372919"><ele>2419.3</ele><time>2026-03-02T11:02:52.000Z</time></trkpt>
<trkpt lat="42.172566" lon="23.372919"><ele>2419.3</ele><time>2026-03-02T11:02:53.000Z</time></trkpt>
<trkpt lat="42.172566" lon="23.372919"><ele>2419.3</ele><time>2026-03-02T11:02:54.000Z</time></trkpt>
<trkpt lat="42.172566" lon="23.372918"><ele>2418.8</ele><time>2026-03-02T11:02:55.000Z</time></trkpt>
<trkpt lat="42.172566" lon="23.372918"><ele>2418.8</ele><time>2026-03-02T11:02:56.000Z</time></trkpt>
<trkpt lat="42.172567" lon="23.372917"><ele>2418.8</ele><time>2026-03-02T11:02:57.000Z</time></trkpt>
<trkpt lat="42.172567" lon="23.372917"><ele>2418.8</ele><time>2026-03-02T11:02:58.000Z</time></trkpt>
<trkpt lat="42.172567" lon="23.372917"><ele>2418.8</ele><time>2026-03-02T11:02:59.000Z</time></trkpt>
<trkpt lat="42.172567" lon="23.372917"><ele>2418.4</ele><time>2026-03-02T11:03:00.000Z</time></trkpt>
<trkpt lat="42.172568" lon="23.372917"><ele>2418.4</ele><time>2026-03-02T11:03:01.000Z</time></trkpt>
<trkpt lat="42.172568" lon="23.372917"><ele>2418.4</ele><time>2026-03-02T11:03:02.000Z</time></trkpt>
<trkpt lat="42.172568" lon="23.372918"><ele>2418.4</ele><time>2026-03-02T11:03:03.000Z</time></trkpt>
<trkpt lat="42.172569" lon="23.37292"><ele>2418.4</ele><time>2026-03-02T11:03:04.000Z</time></trkpt>
<trkpt lat="42.172571" lon="23.372922"><ele>2418.3</ele><time>2026-03-02T11:03:05.000Z</time></trkpt>
<trkpt lat="42.172573" lon="23.372926"><ele>2418.3</ele><time>2026-03-02T11:03:06.000Z</time></trkpt>
<trkpt lat="42.172576" lon="23.372931"><ele>2418.3</ele><time>2026-03-02T11:03:07.000Z</time></trkpt>
<trkpt lat="42.17258" lon="23.372935"><ele>2418.3</ele><time>2026-03-02T11:03:08.000Z</time></trkpt>
<trkpt lat="42.172584" lon="23.37294"><ele>2418.3</ele><time>2026-03-02T11:03:09.000Z</time></trkpt>
<trkpt lat="42.172587" lon="23.372946"><ele>2418.2</ele><time>2026-03-02T11:03:10.000Z</time></trkpt>
<trkpt lat="42.172591" lon="23.372952"><ele>2418.2</ele><time>2026-03-02T11:03:11.000Z</time></trkpt>
<trkpt lat="42.172596" lon="23.372958"><ele>2418.2</ele><time>2026-03-02T11:03:12.000Z</time></trkpt>
<trkpt lat="42.1726" lon="23.372963"><ele>2418.2</ele><time>2026-03-02T11:03:13.000Z</time></trkpt>
<trkpt lat="42.172602" lon="23.372967"><ele>2418.2</ele><time>2026-03-02T11:03:14.000Z</time></trkpt>
<trkpt lat="42.172605" lon="23.37297"><ele>2417.7</ele><time>2026-03-02T11:03:15.000Z</time></trkpt>
<trkpt lat="42.172606" lon="23.372972"><ele>2417.7</ele><time>2026-03-02T11:03:16.000Z</time></trkpt>
<trkpt lat="42.172606" lon="23.372972"><ele>2417.7</ele><time>2026-03-02T11:03:17.000Z</time></trkpt>
<trkpt lat="42.172606" lon="23.372973"><ele>2417.7</ele><time>2026-03-02T11:03:18.000Z</time></trkpt>
<trkpt lat="42.172606" lon="23.372973"><ele>2417.7</ele><time>2026-03-02T11:03:19.000Z</time></trkpt>
<trkpt lat="42.172606" lon="23.372973"><ele>2416.9</ele><time>2026-03-02T11:03:20.000Z</time></trkpt>
<trkpt lat="42.172606" lon="23.372973"><ele>2416.9</ele><time>2026-03-02T11:03:21.000Z</time></trkpt>
<trkpt lat="42.172606" lon="23.372973"><ele>2416.9</ele><time>2026-03-02T11:03:22.000Z</time></trkpt>
<trkpt lat="42.172606" lon="23.372975"><ele>2416.9</ele><time>2026-03-02T11:03:23.000Z</time></trkpt>
<trkpt lat="42.172606" lon="23.372977"><ele>2416.9</ele><time>2026-03-02T11:03:24.000Z</time></trkpt>
<trkpt lat="42.172607" lon="23.37298"><ele>2416.4</ele><time>2026-03-02T11:03:25.000Z</time></trkpt>
<trkpt lat="42.172608" lon="23.372984"><ele>2416.4</ele><time>2026-03-02T11:03:26.000Z</time></trkpt>
<trkpt lat="42.172608" lon="23.372987"><ele>2416.4</ele><time>2026-03-02T11:03:27.000Z</time></trkpt>
<trkpt lat="42.172607" lon="23.372988"><ele>2416.4</ele><time>2026-03-02T11:03:28.000Z</time></trkpt>
<trkpt lat="42.172607" lon="23.372988"><ele>2416.4</ele><time>2026-03-02T11:03:29.000Z</time></trkpt>
<trkpt lat="42.172607" lon="23.372988"><ele>2415.7</ele><time>2026-03-02T11:03:30.000Z</time></trkpt>
<trkpt lat="42.172609" lon="23.372989"><ele>2415.7</ele><time>2026-03-02T11:03:31.000Z</time></trkpt>
<trkpt lat="42.172611" lon="23.372991"><ele>2415.7</ele><time>2026-03-02T11:03:32.000Z</time></trkpt>
<trkpt lat="42.172613" lon="23.372993"><ele>2415.7</ele><time>2026-03-02T11:03:33.000Z</time></trkpt>
<trkpt lat="42.172616" lon="23.372996"><ele>2415.7</ele><time>2026-03-02T11:03:34.000Z</time></trkpt>
<trkpt lat="42.172618" lon="23.372999"><ele>2415.2</ele><time>2026-03-02T11:03:35.000Z</time></trkpt>
<trkpt lat="42.172619" lon="23.373001"><ele>2415.2</ele><time>2026-03-02T11:03:36.000Z</time></trkpt>
<trkpt lat="42.172621" lon="23.373005"><ele>2415.2</ele><time>2026-03-02T11:03:37.000Z</time></trkpt>
<trkpt lat="42.172623" lon="23.373008"><ele>2415.2</ele><time>2026-03-02T11:03:38.000Z</time></trkpt>
<trkpt lat="42.172624" lon="23.37301"><ele>2415.2</ele><time>2026-03-02T11:03:39.000Z</time></trkpt>
<trkpt lat="42.172626" lon="23.373013"><ele>2415</ele><time>2026-03-02T11:03:40.000Z</time></trkpt>
<trkpt lat="42.172628" lon="23.373015"><ele>2415</ele><time>2026-03-02T11:03:41.000Z</time></trkpt>
<trkpt lat="42.172629" lon="23.373017"><ele>2415</ele><time>2026-03-02T11:03:42.000Z</time></trkpt>
<trkpt lat="42.172632" lon="23.373019"><ele>2415</ele><time>2026-03-02T11:03:43.000Z</time></trkpt>
<trkpt lat="42.172634" lon="23.37302"><ele>2415</ele><time>2026-03-02T11:03:44.000Z</time></trkpt>
<trkpt lat="42.172636" lon="23.373022"><ele>2414.4</ele><time>2026-03-02T11:03:45.000Z</time></trkpt>
<trkpt lat="42.172638" lon="23.373025"><ele>2414.4</ele><time>2026-03-02T11:03:46.000Z</time></trkpt>
<trkpt lat="42.17264" lon="23.373028"><ele>2414.4</ele><time>2026-03-02T11:03:47.000Z</time></trkpt>
<trkpt lat="42.172642" lon="23.373031"><ele>2414.4</ele><time>2026-03-02T11:03:48.000Z</time></trkpt>
<trkpt lat="42.172645" lon="23.373036"><ele>2414.4</ele><time>2026-03-02T11:03:49.000Z</time></trkpt>
<trkpt lat="42.172649" lon="23.37304"><ele>2413.5</ele><time>2026-03-02T11:03:50.000Z</time></trkpt>
<trkpt lat="42.172653" lon="23.373044"><ele>2413.5</ele><time>2026-03-02T11:03:51.000Z</time></trkpt>
<trkpt lat="42.172657" lon="23.373049"><ele>2413.5</ele><time>2026-03-02T11:03:52.000Z</time></trkpt>
<trkpt lat="42.172661" lon="23.373055"><ele>2413.5</ele><time>2026-03-02T11:03:53.000Z</time></trkpt>
<trkpt lat="42.172664" lon="23.37306"><ele>2413.5</ele><time>2026-03-02T11:03:54.000Z</time></trkpt>
<trkpt lat="42.172666" lon="23.373064"><ele>2413</ele><time>2026-03-02T11:03:55.000Z</time></trkpt>
<trkpt lat="42.172669" lon="23.373068"><ele>2413</ele><time>2026-03-02T11:03:56.000Z</time></trkpt>
<trkpt lat="42.172671" lon="23.373071"><ele>2413</ele><time>2026-03-02T11:03:57.000Z</time></trkpt>
<trkpt lat="42.172672" lon="23.373073"><ele>2413</ele><time>2026-03-02T11:03:58.000Z</time></trkpt>
<trkpt lat="42.172674" lon="23.373077"><ele>2413</ele><time>2026-03-02T11:03:59.000Z</time></trkpt>
<trkpt lat="42.172676" lon="23.373081"><ele>2411.9</ele><time>2026-03-02T11:04:00.000Z</time></trkpt>
<trkpt lat="42.172677" lon="23.373086"><ele>2411.9</ele><time>2026-03-02T11:04:01.000Z</time></trkpt>
<trkpt lat="42.172678" lon="23.373091"><ele>2411.9</ele><time>2026-03-02T11:04:02.000Z</time></trkpt>
<trkpt lat="42.172679" lon="23.373096"><ele>2411.9</ele><time>2026-03-02T11:04:03.000Z</time></trkpt>
<trkpt lat="42.17268" lon="23.373101"><ele>2411.9</ele><time>2026-03-02T11:04:04.000Z</time></trkpt>
<trkpt lat="42.172681" lon="23.373107"><ele>2410.6</ele><time>2026-03-02T11:04:05.000Z</time></trkpt>
<trkpt lat="42.172682" lon="23.373112"><ele>2410.6</ele><time>2026-03-02T11:04:06.000Z</time></trkpt>
<trkpt lat="42.172684" lon="23.373117"><ele>2410.6</ele><time>2026-03-02T11:04:07.000Z</time></trkpt>
<trkpt lat="42.172687" lon="23.373122"><ele>2410.6</ele><time>2026-03-02T11:04:08.000Z</time></trkpt>
<trkpt lat="42.172689" lon="23.373127"><ele>2410.6</ele><time>2026-03-02T11:04:09.000Z</time></trkpt>
<trkpt lat="42.172692" lon="23.373132"><ele>2409.9</ele><time>2026-03-02T11:04:10.000Z</time></trkpt>
<trkpt lat="42.172695" lon="23.373138"><ele>2409.9</ele><time>2026-03-02T11:04:11.000Z</time></trkpt>
<trkpt lat="42.172698" lon="23.373143"><ele>2409.9</ele><time>2026-03-02T11:04:12.000Z</time></trkpt>
<trkpt lat="42.172701" lon="23.373149"><ele>2409.9</ele><time>2026-03-02T11:04:13.000Z</time></trkpt>
<trkpt lat="42.172704" lon="23.373156"><ele>2409.9</ele><time>2026-03-02T11:04:14.000Z</time></trkpt>
<trkpt lat="42.172707" lon="23.373163"><ele>2408.5</ele><time>2026-03-02T11:04:15.000Z</time></trkpt>
<trkpt lat="42.172712" lon="23.373169"><ele>2408.5</ele><time>2026-03-02T11:04:16.000Z</time></trkpt>
<trkpt lat="42.172716" lon="23.373175"><ele>2408.5</ele><time>2026-03-02T11:04:17.000Z</time></trkpt>
<trkpt lat="42.17272" lon="23.37318"><ele>2408.5</ele><time>2026-03-02T11:04:18.000Z</time></trkpt>
<trkpt lat="42.172724" lon="23.373185"><ele>2408.5</ele><time>2026-03-02T11:04:19.000Z</time></trkpt>
<trkpt lat="42.172728" lon="23.373189"><ele>2407</ele><time>2026-03-02T11:04:20.000Z</time></trkpt>
<trkpt lat="42.17273" lon="23.373194"><ele>2407</ele><time>2026-03-02T11:04:21.000Z</time></trkpt>
<trkpt lat="42.172732" lon="23.373198"><ele>2407</ele><time>2026-03-02T11:04:22.000Z</time></trkpt>
<trkpt lat="42.172735" lon="23.373204"><ele>2407</ele><time>2026-03-02T11:04:23.000Z</time></trkpt>
<trkpt lat="42.172738" lon="23.373209"><ele>2407</ele><time>2026-03-02T11:04:24.000Z</time></trkpt>
<trkpt lat="42.17274" lon="23.373214"><ele>2406.3</ele><time>2026-03-02T11:04:25.000Z</time></trkpt>
<trkpt lat="42.172743" lon="23.373219"><ele>2406.3</ele><time>2026-03-02T11:04:26.000Z</time></trkpt>
<trkpt lat="42.172745" lon="23.373223"><ele>2406.3</ele><time>2026-03-02T11:04:27.000Z</time></trkpt>
<trkpt lat="42.172746" lon="23.373228"><ele>2406.3</ele><time>2026-03-02T11:04:28.000Z</time></trkpt>
<trkpt lat="42.172748" lon="23.373232"><ele>2406.3</ele><time>2026-03-02T11:04:29.000Z</time></trkpt>
<trkpt lat="42.172751" lon="23.373236"><ele>2404.6</ele><time>2026-03-02T11:04:30.000Z</time></trkpt>
<trkpt lat="42.172754" lon="23.373241"><ele>2404.6</ele><time>2026-03-02T11:04:31.000Z</time></trkpt>
<trkpt lat="42.172758" lon="23.373245"><ele>2404.6</ele><time>2026-03-02T11:04:32.000Z</time></trkpt>
<trkpt lat="42.172762" lon="23.373249"><ele>2404.6</ele><time>2026-03-02T11:04:33.000Z</time></trkpt>
<trkpt lat="42.172765" lon="23.373252"><ele>2404.6</ele><time>2026-03-02T11:04:34.000Z</time></trkpt>
<trkpt lat="42.172766" lon="23.373254"><ele>2402.7</ele><time>2026-03-02T11:04:35.000Z</time></trkpt>
<trkpt lat="42.172767" lon="23.373255"><ele>2402.7</ele><time>2026-03-02T11:04:36.000Z</time></trkpt>
<trkpt lat="42.172767" lon="23.373255"><ele>2402.7</ele><time>2026-03-02T11:04:37.000Z</time></trkpt>
<trkpt lat="42.172766" lon="23.373253"><ele>2402.7</ele><time>2026-03-02T11:04:38.000Z</time></trkpt>
<trkpt lat="42.172768" lon="23.373249"><ele>2402.7</ele><time>2026-03-02T11:04:39.000Z</time></trkpt>
<trkpt lat="42.172771" lon="23.373245"><ele>2401.8</ele><time>2026-03-02T11:04:40.000Z</time></trkpt>
<trkpt lat="42.172774" lon="23.373239"><ele>2401.8</ele><time>2026-03-02T11:04:41.000Z</time></trkpt>
<trkpt lat="42.172779" lon="23.373231"><ele>2401.8</ele><time>2026-03-02T11:04:42.000Z</time></trkpt>
<trkpt lat="42.172784" lon="23.373225"><ele>2401.8</ele><time>2026-03-02T11:04:43.000Z</time></trkpt>
<trkpt lat="42.172788" lon="23.373219"><ele>2401.8</ele><time>2026-03-02T11:04:44.000Z</time></trkpt>
<trkpt lat="42.172792" lon="23.373216"><ele>2400.2</ele><time>2026-03-02T11:04:45.000Z</time></trkpt>
<trkpt lat="42.172794" lon="23.373213"><ele>2400.2</ele><time>2026-03-02T11:04:46.000Z</time></trkpt>
<trkpt lat="42.172796" lon="23.373212"><ele>2400.2</ele><time>2026-03-02T11:04:47.000Z</time></trkpt>
<trkpt lat="42.172797" lon="23.373213"><ele>2400.2</ele><time>2026-03-02T11:04:48.000Z</time></trkpt>
<trkpt lat="42.172798" lon="23.373214"><ele>2400.2</ele><time>2026-03-02T11:04:49.000Z</time></trkpt>
<trkpt lat="42.172799" lon="23.373214"><ele>2399.1</ele><time>2026-03-02T11:04:50.000Z</time></trkpt>
<trkpt lat="42.172799" lon="23.373215"><ele>2399.1</ele><time>2026-03-02T11:04:51.000Z</time></trkpt>
<trkpt lat="42.1728" lon="23.373216"><ele>2399.1</ele><time>2026-03-02T11:04:52.000Z</time></trkpt>
<trkpt lat="42.1728" lon="23.373216"><ele>2399.1</ele><time>2026-03-02T11:04:53.000Z</time></trkpt>
<trkpt lat="42.1728" lon="23.373216"><ele>2399.1</ele><time>2026-03-02T11:04:54.000Z</time></trkpt>
<trkpt lat="42.1728" lon="23.373215"><ele>2398.8</ele><time>2026-03-02T11:04:55.000Z</time></trkpt>
<trkpt lat="42.172799" lon="23.373214"><ele>2398.8</ele><time>2026-03-02T11:04:56.000Z</time></trkpt>
<trkpt lat="42.172799" lon="23.373212"><ele>2398.8</ele><time>2026-03-02T11:04:57.000Z</time></trkpt>
<trkpt lat="42.172799" lon="23.373211"><ele>2398.8</ele><time>2026-03-02T11:04:58.000Z</time></trkpt>
<trkpt lat="42.172798" lon="23.37321"><ele>2398.8</ele><time>2026-03-02T11:04:59.000Z</time></trkpt>
<trkpt lat="42.172798" lon="23.373209"><ele>2398.2</ele><time>2026-03-02T11:05:00.000Z</time></trkpt>
<trkpt lat="42.172798" lon="23.373209"><ele>2398.2</ele><time>2026-03-02T11:05:01.000Z</time></trkpt>
<trkpt lat="42.172798" lon="23.373209"><ele>2398.2</ele><time>2026-03-02T11:05:02.000Z</time></trkpt>
<trkpt lat="42.172798" lon="23.373209"><ele>2398.2</ele><time>2026-03-02T11:05:03.000Z</time></trkpt>
<trkpt lat="42.172797" lon="23.373208"><ele>2398.2</ele><time>2026-03-02T11:05:04.000Z</time></trkpt>
<trkpt lat="42.172796" lon="23.373208"><ele>2397.7</ele><time>2026-03-02T11:05:05.000Z</time></trkpt>
<trkpt lat="42.172796" lon="23.373208"><ele>2397.7</ele><time>2026-03-02T11:05:06.000Z</time></trkpt>
<trkpt lat="42.172795" lon="23.373207"><ele>2397.7</ele><time>2026-03-02T11:05:07.000Z</time></trkpt>
<trkpt lat="42.172794" lon="23.373207"><ele>2397.7</ele><time>2026-03-02T11:05:08.000Z</time></trkpt>
<trkpt lat="42.172793" lon="23.373207"><ele>2397.7</ele><time>2026-03-02T11:05:09.000Z</time></trkpt>
<trkpt lat="42.172793" lon="23.373208"><ele>2397.5</ele><time>2026-03-02T11:05:10.000Z</time></trkpt>
<trkpt lat="42.172793" lon="23.373208"><ele>2397.5</ele><time>2026-03-02T11:05:11.000Z</time></trkpt>
<trkpt lat="42.172793" lon="23.373209"><ele>2397.5</ele><time>2026-03-02T11:05:12.000Z</time></trkpt>
<trkpt lat="42.172793" lon="23.37321"><ele>2397.5</ele><time>2026-03-02T11:05:13.000Z</time></trkpt>
<trkpt lat="42.172793" lon="23.373211"><ele>2397.5</ele><time>2026-03-02T11:05:14.000Z</time></trkpt>
<trkpt lat="42.172793" lon="23.373211"><ele>2397.4</ele><time>2026-03-02T11:05:15.000Z</time></trkpt>
<trkpt lat="42.172793" lon="23.373212"><ele>2397.4</ele><time>2026-03-02T11:05:16.000Z</time></trkpt>
<trkpt lat="42.172793" lon="23.373213"><ele>2397.4</ele><time>2026-03-02T11:05:17.000Z</time></trkpt>
<trkpt lat="42.172793" lon="23.373213"><ele>2397.4</ele><time>2026-03-02T11:05:18.000Z</time></trkpt>
<trkpt lat="42.172794" lon="23.373214"><ele>2397.4</ele><time>2026-03-02T11:05:19.000Z</time></trkpt>
<trkpt lat="42.172795" lon="23.373217"><ele>2397.4</ele><time>2026-03-02T11:05:20.000Z</time></trkpt>
<trkpt lat="42.172795" lon="23.373219"><ele>2397.4</ele><time>2026-03-02T11:05:21.000Z</time></trkpt>
<trkpt lat="42.172795" lon="23.373221"><ele>2397.4</ele><time>2026-03-02T11:05:22.000Z</time></trkpt>
<trkpt lat="42.172795" lon="23.373222"><ele>2397.4</ele><time>2026-03-02T11:05:23.000Z</time></trkpt>
<trkpt lat="42.172794" lon="23.373225"><ele>2397.4</ele><time>2026-03-02T11:05:24.000Z</time></trkpt>
<trkpt lat="42.172793" lon="23.373226"><ele>2397.5</ele><time>2026-03-02T11:05:25.000Z</time></trkpt>
<trkpt lat="42.172792" lon="23.373226"><ele>2397.5</ele><time>2026-03-02T11:05:26.000Z</time></trkpt>
<trkpt lat="42.172791" lon="23.373227"><ele>2397.5</ele><time>2026-03-02T11:05:27.000Z</time></trkpt>
<trkpt lat="42.17279" lon="23.373227"><ele>2397.5</ele><time>2026-03-02T11:05:28.000Z</time></trkpt>
<trkpt lat="42.172789" lon="23.373226"><ele>2397.5</ele><time>2026-03-02T11:05:29.000Z</time></trkpt>
<trkpt lat="42.172789" lon="23.373225"><ele>2397.6</ele><time>2026-03-02T11:05:30.000Z</time></trkpt>
<trkpt lat="42.172789" lon="23.373224"><ele>2397.6</ele><time>2026-03-02T11:05:31.000Z</time></trkpt>
<trkpt lat="42.172788" lon="23.373224"><ele>2397.6</ele><time>2026-03-02T11:05:32.000Z</time></trkpt>
<trkpt lat="42.172789" lon="23.373224"><ele>2397.6</ele><time>2026-03-02T11:05:33.000Z</time></trkpt>
<trkpt lat="42.172789" lon="23.373224"><ele>2397.6</ele><time>2026-03-02T11:05:34.000Z</time></trkpt>
<trkpt lat="42.172789" lon="23.373226"><ele>2397.8</ele><time>2026-03-02T11:05:35.000Z</time></trkpt>
<trkpt lat="42.172789" lon="23.373228"><ele>2397.8</ele><time>2026-03-02T11:05:36.000Z</time></trkpt>
<trkpt lat="42.17279" lon="23.373231"><ele>2397.8</ele><time>2026-03-02T11:05:37.000Z</time></trkpt>
<trkpt lat="42.172792" lon="23.373235"><ele>2397.8</ele><time>2026-03-02T11:05:38.000Z</time></trkpt>
<trkpt lat="42.172793" lon="23.373239"><ele>2397.8</ele><time>2026-03-02T11:05:39.000Z</time></trkpt>
<trkpt lat="42.172794" lon="23.373242"><ele>2397.9</ele><time>2026-03-02T11:05:40.000Z</time></trkpt>
<trkpt lat="42.172794" lon="23.373243"><ele>2397.9</ele><time>2026-03-02T11:05:41.000Z</time></trkpt>
<trkpt lat="42.172794" lon="23.373244"><ele>2397.9</ele><time>2026-03-02T11:05:42.000Z</time></trkpt>
<trkpt lat="42.172794" lon="23.373244"><ele>2397.9</ele><time>2026-03-02T11:05:43.000Z</time></trkpt>
<trkpt lat="42.172793" lon="23.373244"><ele>2397.9</ele><time>2026-03-02T11:05:44.000Z</time></trkpt>
<trkpt lat="42.172793" lon="23.373244"><ele>2397.8</ele><time>2026-03-02T11:05:45.000Z</time></trkpt>
<trkpt lat="42.172792" lon="23.373243"><ele>2397.8</ele><time>2026-03-02T11:05:46.000Z</time></trkpt>
<trkpt lat="42.172792" lon="23.373243"><ele>2397.8</ele><time>2026-03-02T11:05:47.000Z</time></trkpt>
<trkpt lat="42.172792" lon="23.373243"><ele>2397.8</ele><time>2026-03-02T11:05:48.000Z</time></trkpt>
<trkpt lat="42.172791" lon="23.373243"><ele>2397.8</ele><time>2026-03-02T11:05:49.000Z</time></trkpt>
<trkpt lat="42.172791" lon="23.373244"><ele>2397.6</ele><time>2026-03-02T11:05:50.000Z</time></trkpt>
<trkpt lat="42.172791" lon="23.373245"><ele>2397.6</ele><time>2026-03-02T11:05:51.000Z</time></trkpt>
<trkpt lat="42.172791" lon="23.373246"><ele>2397.6</ele><time>2026-03-02T11:05:52.000Z</time></trkpt>
<trkpt lat="42.172791" lon="23.373247"><ele>2397.6</ele><time>2026-03-02T11:05:53.000Z</time></trkpt>
<trkpt lat="42.172791" lon="23.373248"><ele>2397.6</ele><time>2026-03-02T11:05:54.000Z</time></trkpt>
<trkpt lat="42.172791" lon="23.373249"><ele>2397.4</ele><time>2026-03-02T11:05:55.000Z</time></trkpt>
<trkpt lat="42.172791" lon="23.373249"><ele>2397.4</ele><time>2026-03-02T11:05:56.000Z</time></trkpt>
<trkpt lat="42.172791" lon="23.373249"><ele>2397.4</ele><time>2026-03-02T11:05:57.000Z</time></trkpt>
<trkpt lat="42.172791" lon="23.373249"><ele>2397.4</ele><time>2026-03-02T11:05:58.000Z</time></trkpt>
<trkpt lat="42.172793" lon="23.37325"><ele>2397.4</ele><time>2026-03-02T11:05:59.000Z</time></trkpt>
<trkpt lat="42.172796" lon="23.373253"><ele>2397.1</ele><time>2026-03-02T11:06:00.000Z</time></trkpt>
<trkpt lat="42.1728" lon="23.373256"><ele>2397.1</ele><time>2026-03-02T11:06:01.000Z</time></trkpt>
<trkpt lat="42.172806" lon="23.37326"><ele>2397.1</ele><time>2026-03-02T11:06:02.000Z</time></trkpt>
<trkpt lat="42.172813" lon="23.373265"><ele>2397.1</ele><time>2026-03-02T11:06:03.000Z</time></trkpt>
<trkpt lat="42.172819" lon="23.373268"><ele>2397.1</ele><time>2026-03-02T11:06:04.000Z</time></trkpt>
<trkpt lat="42.172823" lon="23.373269"><ele>2396.9</ele><time>2026-03-02T11:06:05.000Z</time></trkpt>
<trkpt lat="42.172826" lon="23.37327"><ele>2396.9</ele><time>2026-03-02T11:06:06.000Z</time></trkpt>
<trkpt lat="42.172828" lon="23.373271"><ele>2396.9</ele><time>2026-03-02T11:06:07.000Z</time></trkpt>
<trkpt lat="42.172827" lon="23.373271"><ele>2396.9</ele><time>2026-03-02T11:06:08.000Z</time></trkpt>
<trkpt lat="42.172826" lon="23.37327"><ele>2396.9</ele><time>2026-03-02T11:06:09.000Z</time></trkpt>
<trkpt lat="42.172825" lon="23.37327"><ele>2396.5</ele><time>2026-03-02T11:06:10.000Z</time></trkpt>
<trkpt lat="42.172823" lon="23.37327"><ele>2396.5</ele><time>2026-03-02T11:06:11.000Z</time></trkpt>
<trkpt lat="42.17282" lon="23.373269"><ele>2396.5</ele><time>2026-03-02T11:06:12.000Z</time></trkpt>
<trkpt lat="42.172817" lon="23.373266"><ele>2396.5</ele><time>2026-03-02T11:06:13.000Z</time></trkpt>
<trkpt lat="42.172815" lon="23.373264"><ele>2396.5</ele><time>2026-03-02T11:06:14.000Z</time></trkpt>
<trkpt lat="42.172814" lon="23.373262"><ele>2395.6</ele><time>2026-03-02T11:06:15.000Z</time></trkpt>
<trkpt lat="42.172814" lon="23.37326"><ele>2395.6</ele><time>2026-03-02T11:06:16.000Z</time></trkpt>
<trkpt lat="42.172814" lon="23.373258"><ele>2395.6</ele><time>2026-03-02T11:06:17.000Z</time></trkpt>
<trkpt lat="42.172815" lon="23.373256"><ele>2395.6</ele><time>2026-03-02T11:06:18.000Z</time></trkpt>
<trkpt lat="42.172815" lon="23.373255"><ele>2395.6</ele><time>2026-03-02T11:06:19.000Z</time></trkpt>
<trkpt lat="42.172816" lon="23.373254"><ele>2395.2</ele><time>2026-03-02T11:06:20.000Z</time></trkpt>
<trkpt lat="42.172816" lon="23.373254"><ele>2395.2</ele><time>2026-03-02T11:06:21.000Z</time></trkpt>
<trkpt lat="42.172816" lon="23.373254"><ele>2395.2</ele><time>2026-03-02T11:06:22.000Z</time></trkpt>
<trkpt lat="42.172816" lon="23.373255"><ele>2395.2</ele><time>2026-03-02T11:06:23.000Z</time></trkpt>
<trkpt lat="42.172816" lon="23.373255"><ele>2395.2</ele><time>2026-03-02T11:06:24.000Z</time></trkpt>
<trkpt lat="42.172816" lon="23.373255"><ele>2395.4</ele><time>2026-03-02T11:06:25.000Z</time></trkpt>
<trkpt lat="42.172816" lon="23.373255"><ele>2395.4</ele><time>2026-03-02T11:06:26.000Z</time></trkpt>
<trkpt lat="42.172816" lon="23.373255"><ele>2395.4</ele><time>2026-03-02T11:06:27.000Z</time></trkpt>
<trkpt lat="42.172816" lon="23.373255"><ele>2395.4</ele><time>2026-03-02T11:06:28.000Z</time></trkpt>
<trkpt lat="42.172816" lon="23.373255"><ele>2395.4</ele><time>2026-03-02T11:06:29.000Z</time></trkpt>
<trkpt lat="42.172816" lon="23.373255"><ele>2396</ele><time>2026-03-02T11:06:30.000Z</time></trkpt>
<trkpt lat="42.172816" lon="23.373255"><ele>2396</ele><time>2026-03-02T11:06:31.000Z</time></trkpt>
<trkpt lat="42.172816" lon="23.373255"><ele>2396</ele><time>2026-03-02T11:06:32.000Z</time></trkpt>
<trkpt lat="42.172816" lon="23.373255"><ele>2396</ele><time>2026-03-02T11:06:33.000Z</time></trkpt>
<trkpt lat="42.172815" lon="23.373255"><ele>2396</ele><time>2026-03-02T11:06:34.000Z</time></trkpt>
<trkpt lat="42.172815" lon="23.373255"><ele>2396.3</ele><time>2026-03-02T11:06:35.000Z</time></trkpt>
<trkpt lat="42.172815" lon="23.373255"><ele>2396.3</ele><time>2026-03-02T11:06:36.000Z</time></trkpt>
<trkpt lat="42.172814" lon="23.373255"><ele>2396.3</ele><time>2026-03-02T11:06:37.000Z</time></trkpt>
<trkpt lat="42.172814" lon="23.373255"><ele>2396.3</ele><time>2026-03-02T11:06:38.000Z</time></trkpt>
<trkpt lat="42.172814" lon="23.373255"><ele>2396.3</ele><time>2026-03-02T11:06:39.000Z</time></trkpt>
<trkpt lat="42.172814" lon="23.373255"><ele>2396.3</ele><time>2026-03-02T11:06:40.000Z</time></trkpt>
<trkpt lat="42.172814" lon="23.373255"><ele>2396.3</ele><time>2026-03-02T11:06:41.000Z</time></trkpt>
<trkpt lat="42.172814" lon="23.373255"><ele>2396.3</ele><time>2026-03-02T11:06:42.000Z</time></trkpt>
<trkpt lat="42.172814" lon="23.373255"><ele>2396.3</ele><time>2026-03-02T11:06:43.000Z</time></trkpt>
<trkpt lat="42.172814" lon="23.373254"><ele>2396.3</ele><time>2026-03-02T11:06:44.000Z</time></trkpt>
<trkpt lat="42.172814" lon="23.373254"><ele>2396.4</ele><time>2026-03-02T11:06:45.000Z</time></trkpt>
<trkpt lat="42.172814" lon="23.373254"><ele>2396.4</ele><time>2026-03-02T11:06:46.000Z</time></trkpt>
<trkpt lat="42.172814" lon="23.373254"><ele>2396.4</ele><time>2026-03-02T11:06:47.000Z</time></trkpt>
<trkpt lat="42.172814" lon="23.373254"><ele>2396.4</ele><time>2026-03-02T11:06:48.000Z</time></trkpt>
<trkpt lat="42.172814" lon="23.373254"><ele>2396.4</ele><time>2026-03-02T11:06:49.000Z</time></trkpt>
<trkpt lat="42.172815" lon="23.373254"><ele>2396.4</ele><time>2026-03-02T11:06:50.000Z</time></trkpt>
<trkpt lat="42.172815" lon="23.373255"><ele>2396.4</ele><time>2026-03-02T11:06:51.000Z</time></trkpt>
<trkpt lat="42.172815" lon="23.373256"><ele>2396.4</ele><time>2026-03-02T11:06:52.000Z</time></trkpt>
<trkpt lat="42.172814" lon="23.373257"><ele>2396.4</ele><time>2026-03-02T11:06:53.000Z</time></trkpt>
<trkpt lat="42.172814" lon="23.373257"><ele>2396.4</ele><time>2026-03-02T11:06:54.000Z</time></trkpt>
<trkpt lat="42.172814" lon="23.373258"><ele>2396.3</ele><time>2026-03-02T11:06:55.000Z</time></trkpt>
<trkpt lat="42.172814" lon="23.373258"><ele>2396.3</ele><time>2026-03-02T11:06:56.000Z</time></trkpt>
<trkpt lat="42.172814" lon="23.373258"><ele>2396.3</ele><time>2026-03-02T11:06:57.000Z</time></trkpt>
<trkpt lat="42.172814" lon="23.373257"><ele>2396.3</ele><time>2026-03-02T11:06:58.000Z</time></trkpt>
<trkpt lat="42.172813" lon="23.373257"><ele>2396.3</ele><time>2026-03-02T11:06:59.000Z</time></trkpt>
<trkpt lat="42.172813" lon="23.373257"><ele>2396.4</ele><time>2026-03-02T11:07:00.000Z</time></trkpt>
<trkpt lat="42.172812" lon="23.373257"><ele>2396.4</ele><time>2026-03-02T11:07:01.000Z</time></trkpt>
<trkpt lat="42.172812" lon="23.373257"><ele>2396.4</ele><time>2026-03-02T11:07:02.000Z</time></trkpt>
<trkpt lat="42.172811" lon="23.373258"><ele>2396.4</ele><time>2026-03-02T11:07:03.000Z</time></trkpt>
<trkpt lat="42.17281" lon="23.373259"><ele>2396.4</ele><time>2026-03-02T11:07:04.000Z</time></trkpt>
<trkpt lat="42.172809" lon="23.373261"><ele>2396.3</ele><time>2026-03-02T11:07:05.000Z</time></trkpt>
<trkpt lat="42.172809" lon="23.373262"><ele>2396.3</ele><time>2026-03-02T11:07:06.000Z</time></trkpt>
<trkpt lat="42.172809" lon="23.373264"><ele>2396.3</ele><time>2026-03-02T11:07:07.000Z</time></trkpt>
<trkpt lat="42.172809" lon="23.373264"><ele>2396.3</ele><time>2026-03-02T11:07:08.000Z</time></trkpt>
<trkpt lat="42.172811" lon="23.373266"><ele>2396.3</ele><time>2026-03-02T11:07:09.000Z</time></trkpt>
<trkpt lat="42.172813" lon="23.373267"><ele>2396.3</ele><time>2026-03-02T11:07:10.000Z</time></trkpt>
<trkpt lat="42.172815" lon="23.373269"><ele>2396.3</ele><time>2026-03-02T11:07:11.000Z</time></trkpt>
<trkpt lat="42.172816" lon="23.37327"><ele>2396.3</ele><time>2026-03-02T11:07:12.000Z</time></trkpt>
<trkpt lat="42.172818" lon="23.37327"><ele>2396.3</ele><time>2026-03-02T11:07:13.000Z</time></trkpt>
<trkpt lat="42.172819" lon="23.37327"><ele>2396.3</ele><time>2026-03-02T11:07:14.000Z</time></trkpt>
<trkpt lat="42.172819" lon="23.373271"><ele>2396.2</ele><time>2026-03-02T11:07:15.000Z</time></trkpt>
<trkpt lat="42.172819" lon="23.373271"><ele>2396.2</ele><time>2026-03-02T11:07:16.000Z</time></trkpt>
<trkpt lat="42.17282" lon="23.373272"><ele>2396.2</ele><time>2026-03-02T11:07:17.000Z</time></trkpt>
<trkpt lat="42.172819" lon="23.373273"><ele>2396.2</ele><time>2026-03-02T11:07:18.000Z</time></trkpt>
<trkpt lat="42.17282" lon="23.373274"><ele>2396.2</ele><time>2026-03-02T11:07:19.000Z</time></trkpt>
<trkpt lat="42.17282" lon="23.373274"><ele>2396</ele><time>2026-03-02T11:07:20.000Z</time></trkpt>
<trkpt lat="42.172821" lon="23.373273"><ele>2396</ele><time>2026-03-02T11:07:21.000Z</time></trkpt>
<trkpt lat="42.172821" lon="23.373273"><ele>2396</ele><time>2026-03-02T11:07:22.000Z</time></trkpt>
<trkpt lat="42.172821" lon="23.373272"><ele>2396</ele><time>2026-03-02T11:07:23.000Z</time></trkpt>
<trkpt lat="42.172821" lon="23.373271"><ele>2396</ele><time>2026-03-02T11:07:24.000Z</time></trkpt>
<trkpt lat="42.172821" lon="23.37327"><ele>2396</ele><time>2026-03-02T11:07:25.000Z</time></trkpt>
<trkpt lat="42.172822" lon="23.37327"><ele>2396</ele><time>2026-03-02T11:07:26.000Z</time></trkpt>
<trkpt lat="42.172823" lon="23.37327"><ele>2396</ele><time>2026-03-02T11:07:27.000Z</time></trkpt>
<trkpt lat="42.172824" lon="23.37327"><ele>2396</ele><time>2026-03-02T11:07:28.000Z</time></trkpt>
<trkpt lat="42.172825" lon="23.373271"><ele>2396</ele><time>2026-03-02T11:07:29.000Z</time></trkpt>
<trkpt lat="42.172825" lon="23.373271"><ele>2395.8</ele><time>2026-03-02T11:07:30.000Z</time></trkpt>
<trkpt lat="42.172824" lon="23.373271"><ele>2395.8</ele><time>2026-03-02T11:07:31.000Z</time></trkpt>
<trkpt lat="42.172823" lon="23.37327"><ele>2395.8</ele><time>2026-03-02T11:07:32.000Z</time></trkpt>
<trkpt lat="42.172822" lon="23.373269"><ele>2395.8</ele><time>2026-03-02T11:07:33.000Z</time></trkpt>
<trkpt lat="42.172822" lon="23.373268"><ele>2395.8</ele><time>2026-03-02T11:07:34.000Z</time></trkpt>
<trkpt lat="42.172822" lon="23.373269"><ele>2395.7</ele><time>2026-03-02T11:07:35.000Z</time></trkpt>
<trkpt lat="42.172821" lon="23.37327"><ele>2395.7</ele><time>2026-03-02T11:07:36.000Z</time></trkpt>
<trkpt lat="42.172822" lon="23.373272"><ele>2395.7</ele><time>2026-03-02T11:07:37.000Z</time></trkpt>
<trkpt lat="42.172823" lon="23.373273"><ele>2395.7</ele><time>2026-03-02T11:07:38.000Z</time></trkpt>
<trkpt lat="42.172824" lon="23.373276"><ele>2395.7</ele><time>2026-03-02T11:07:39.000Z</time></trkpt>
<trkpt lat="42.172827" lon="23.373279"><ele>2395.8</ele><time>2026-03-02T11:07:40.000Z</time></trkpt>
<trkpt lat="42.172832" lon="23.373282"><ele>2395.8</ele><time>2026-03-02T11:07:41.000Z</time></trkpt>
<trkpt lat="42.172839" lon="23.373286"><ele>2395.8</ele><time>2026-03-02T11:07:42.000Z</time></trkpt>
<trkpt lat="42.172849" lon="23.373294"><ele>2395.8</ele><time>2026-03-02T11:07:43.000Z</time></trkpt>
<trkpt lat="42.172861" lon="23.373302"><ele>2395.8</ele><time>2026-03-02T11:07:44.000Z</time></trkpt>
<trkpt lat="42.172873" lon="23.373309"><ele>2396.3</ele><time>2026-03-02T11:07:45.000Z</time></trkpt>
<trkpt lat="42.172883" lon="23.373316"><ele>2396.3</ele><time>2026-03-02T11:07:46.000Z</time></trkpt>
<trkpt lat="42.172891" lon="23.373322"><ele>2396.3</ele><time>2026-03-02T11:07:47.000Z</time></trkpt>
<trkpt lat="42.172895" lon="23.373327"><ele>2396.3</ele><time>2026-03-02T11:07:48.000Z</time></trkpt>
<trkpt lat="42.172896" lon="23.373331"><ele>2396.3</ele><time>2026-03-02T11:07:49.000Z</time></trkpt>
<trkpt lat="42.172896" lon="23.373335"><ele>2396.1</ele><time>2026-03-02T11:07:50.000Z</time></trkpt>
<trkpt lat="42.172897" lon="23.373339"><ele>2396.1</ele><time>2026-03-02T11:07:51.000Z</time></trkpt>
<trkpt lat="42.172897" lon="23.373341"><ele>2396.1</ele><time>2026-03-02T11:07:52.000Z</time></trkpt>
<trkpt lat="42.172899" lon="23.373341"><ele>2396.1</ele><time>2026-03-02T11:07:53.000Z</time></trkpt>
<trkpt lat="42.1729" lon="23.373339"><ele>2396.1</ele><time>2026-03-02T11:07:54.000Z</time></trkpt>
<trkpt lat="42.172901" lon="23.373337"><ele>2395.3</ele><time>2026-03-02T11:07:55.000Z</time></trkpt>
<trkpt lat="42.172901" lon="23.373334"><ele>2395.3</ele><time>2026-03-02T11:07:56.000Z</time></trkpt>
<trkpt lat="42.172901" lon="23.373333"><ele>2395.3</ele><time>2026-03-02T11:07:57.000Z</time></trkpt>
<trkpt lat="42.172901" lon="23.373332"><ele>2395.3</ele><time>2026-03-02T11:07:58.000Z</time></trkpt>
<trkpt lat="42.1729" lon="23.373332"><ele>2395.3</ele><time>2026-03-02T11:07:59.000Z</time></trkpt>
<trkpt lat="42.1729" lon="23.373331"><ele>2393.1</ele><time>2026-03-02T11:08:00.000Z</time></trkpt>
<trkpt lat="42.1729" lon="23.373331"><ele>2393.1</ele><time>2026-03-02T11:08:01.000Z</time></trkpt>
<trkpt lat="42.1729" lon="23.373332"><ele>2393.1</ele><time>2026-03-02T11:08:02.000Z</time></trkpt>
<trkpt lat="42.1729" lon="23.373332"><ele>2393.1</ele><time>2026-03-02T11:08:03.000Z</time></trkpt>
<trkpt lat="42.1729" lon="23.373333"><ele>2393.1</ele><time>2026-03-02T11:08:04.000Z</time></trkpt>
<trkpt lat="42.172899" lon="23.373335"><ele>2391.6</ele><time>2026-03-02T11:08:05.000Z</time></trkpt>
<trkpt lat="42.172898" lon="23.373337"><ele>2391.6</ele><time>2026-03-02T11:08:06.000Z</time></trkpt>
<trkpt lat="42.172897" lon="23.373339"><ele>2391.6</ele><time>2026-03-02T11:08:07.000Z</time></trkpt>
<trkpt lat="42.172895" lon="23.373343"><ele>2391.6</ele><time>2026-03-02T11:08:08.000Z</time></trkpt>
<trkpt lat="42.172895" lon="23.373346"><ele>2391.6</ele><time>2026-03-02T11:08:09.000Z</time></trkpt>
<trkpt lat="42.172895" lon="23.373348"><ele>2391.6</ele><time>2026-03-02T11:08:10.000Z</time></trkpt>
<trkpt lat="42.172896" lon="23.37335"><ele>2391.6</ele><time>2026-03-02T11:08:11.000Z</time></trkpt>
<trkpt lat="42.172897" lon="23.373351"><ele>2391.6</ele><time>2026-03-02T11:08:12.000Z</time></trkpt>
<trkpt lat="42.172897" lon="23.373352"><ele>2391.6</ele><time>2026-03-02T11:08:13.000Z</time></trkpt>
<trkpt lat="42.172895" lon="23.373354"><ele>2391.6</ele><time>2026-03-02T11:08:14.000Z</time></trkpt>
<trkpt lat="42.172893" lon="23.373357"><ele>2391.8</ele><time>2026-03-02T11:08:15.000Z</time></trkpt>
<trkpt lat="42.17289" lon="23.37336"><ele>2391.8</ele><time>2026-03-02T11:08:16.000Z</time></trkpt>
<trkpt lat="42.172889" lon="23.373363"><ele>2391.8</ele><time>2026-03-02T11:08:17.000Z</time></trkpt>
<trkpt lat="42.172888" lon="23.373365"><ele>2391.8</ele><time>2026-03-02T11:08:18.000Z</time></trkpt>
<trkpt lat="42.17289" lon="23.373367"><ele>2391.8</ele><time>2026-03-02T11:08:19.000Z</time></trkpt>
<trkpt lat="42.172892" lon="23.373367"><ele>2392</ele><time>2026-03-02T11:08:20.000Z</time></trkpt>
<trkpt lat="42.172895" lon="23.373368"><ele>2392</ele><time>2026-03-02T11:08:21.000Z</time></trkpt>
<trkpt lat="42.172899" lon="23.373368"><ele>2392</ele><time>2026-03-02T11:08:22.000Z</time></trkpt>
<trkpt lat="42.172903" lon="23.373368"><ele>2392</ele><time>2026-03-02T11:08:23.000Z</time></trkpt>
<trkpt lat="42.172906" lon="23.373369"><ele>2392</ele><time>2026-03-02T11:08:24.000Z</time></trkpt>
<trkpt lat="42.172909" lon="23.373371"><ele>2392.1</ele><time>2026-03-02T11:08:25.000Z</time></trkpt>
<trkpt lat="42.172911" lon="23.373372"><ele>2392.1</ele><time>2026-03-02T11:08:26.000Z</time></trkpt>
<trkpt lat="42.172912" lon="23.373373"><ele>2392.1</ele><time>2026-03-02T11:08:27.000Z</time></trkpt>
<trkpt lat="42.172914" lon="23.373374"><ele>2392.1</ele><time>2026-03-02T11:08:28.000Z</time></trkpt>
<trkpt lat="42.172916" lon="23.373375"><ele>2392.1</ele><time>2026-03-02T11:08:29.000Z</time></trkpt>
<trkpt lat="42.172919" lon="23.373376"><ele>2392.2</ele><time>2026-03-02T11:08:30.000Z</time></trkpt>
<trkpt lat="42.172921" lon="23.373376"><ele>2392.2</ele><time>2026-03-02T11:08:31.000Z</time></trkpt>
<trkpt lat="42.172923" lon="23.373376"><ele>2392.2</ele><time>2026-03-02T11:08:32.000Z</time></trkpt>
<trkpt lat="42.172924" lon="23.373378"><ele>2392.2</ele><time>2026-03-02T11:08:33.000Z</time></trkpt>
<trkpt lat="42.172924" lon="23.373378"><ele>2392.2</ele><time>2026-03-02T11:08:34.000Z</time></trkpt>
<trkpt lat="42.172926" lon="23.373377"><ele>2392</ele><time>2026-03-02T11:08:35.000Z</time></trkpt>
<trkpt lat="42.172927" lon="23.373377"><ele>2392</ele><time>2026-03-02T11:08:36.000Z</time></trkpt>
<trkpt lat="42.172928" lon="23.373377"><ele>2392</ele><time>2026-03-02T11:08:37.000Z</time></trkpt>
<trkpt lat="42.172932" lon="23.373379"><ele>2392</ele><time>2026-03-02T11:08:38.000Z</time></trkpt>
<trkpt lat="42.172935" lon="23.373382"><ele>2392</ele><time>2026-03-02T11:08:39.000Z</time></trkpt>
<trkpt lat="42.172938" lon="23.373388"><ele>2391.9</ele><time>2026-03-02T11:08:40.000Z</time></trkpt>
<trkpt lat="42.172941" lon="23.373396"><ele>2391.9</ele><time>2026-03-02T11:08:41.000Z</time></trkpt>
<trkpt lat="42.172944" lon="23.373404"><ele>2391.9</ele><time>2026-03-02T11:08:42.000Z</time></trkpt>
<trkpt lat="42.172946" lon="23.373412"><ele>2391.9</ele><time>2026-03-02T11:08:43.000Z</time></trkpt>
<trkpt lat="42.172948" lon="23.373421"><ele>2391.9</ele><time>2026-03-02T11:08:44.000Z</time></trkpt>
<trkpt lat="42.172948" lon="23.37343"><ele>2391.5</ele><time>2026-03-02T11:08:45.000Z</time></trkpt>
<trkpt lat="42.172949" lon="23.373438"><ele>2391.5</ele><time>2026-03-02T11:08:46.000Z</time></trkpt>
<trkpt lat="42.172949" lon="23.373447"><ele>2391.5</ele><time>2026-03-02T11:08:47.000Z</time></trkpt>
<trkpt lat="42.17295" lon="23.373453"><ele>2391.5</ele><time>2026-03-02T11:08:48.000Z</time></trkpt>
<trkpt lat="42.172951" lon="23.373459"><ele>2391.5</ele><time>2026-03-02T11:08:49.000Z</time></trkpt>
<trkpt lat="42.172952" lon="23.373463"><ele>2390.8</ele><time>2026-03-02T11:08:50.000Z</time></trkpt>
<trkpt lat="42.172953" lon="23.373466"><ele>2390.8</ele><time>2026-03-02T11:08:51.000Z</time></trkpt>
<trkpt lat="42.172955" lon="23.373469"><ele>2390.8</ele><time>2026-03-02T11:08:52.000Z</time></trkpt>
<trkpt lat="42.172957" lon="23.373474"><ele>2390.8</ele><time>2026-03-02T11:08:53.000Z</time></trkpt>
<trkpt lat="42.172959" lon="23.373479"><ele>2390.8</ele><time>2026-03-02T11:08:54.000Z</time></trkpt>
<trkpt lat="42.172961" lon="23.373485"><ele>2390.3</ele><time>2026-03-02T11:08:55.000Z</time></trkpt>
<trkpt lat="42.172964" lon="23.373491"><ele>2390.3</ele><time>2026-03-02T11:08:56.000Z</time></trkpt>
<trkpt lat="42.172966" lon="23.373497"><ele>2390.3</ele><time>2026-03-02T11:08:57.000Z</time></trkpt>
<trkpt lat="42.172967" lon="23.373502"><ele>2390.3</ele><time>2026-03-02T11:08:58.000Z</time></trkpt>
<trkpt lat="42.172969" lon="23.373508"><ele>2390.3</ele><time>2026-03-02T11:08:59.000Z</time></trkpt>
<trkpt lat="42.172971" lon="23.373514"><ele>2388.7</ele><time>2026-03-02T11:09:00.000Z</time></trkpt>
<trkpt lat="42.172973" lon="23.37352"><ele>2388.7</ele><time>2026-03-02T11:09:01.000Z</time></trkpt>
<trkpt lat="42.172976" lon="23.373526"><ele>2388.7</ele><time>2026-03-02T11:09:02.000Z</time></trkpt>
<trkpt lat="42.172979" lon="23.373532"><ele>2388.7</ele><time>2026-03-02T11:09:03.000Z</time></trkpt>
<trkpt lat="42.172981" lon="23.373538"><ele>2388.7</ele><time>2026-03-02T11:09:04.000Z</time></trkpt>
<trkpt lat="42.172984" lon="23.373543"><ele>2386.7</ele><time>2026-03-02T11:09:05.000Z</time></trkpt>
<trkpt lat="42.172987" lon="23.373548"><ele>2386.7</ele><time>2026-03-02T11:09:06.000Z</time></trkpt>
<trkpt lat="42.172989" lon="23.373552"><ele>2386.7</ele><time>2026-03-02T11:09:07.000Z</time></trkpt>
<trkpt lat="42.172992" lon="23.373557"><ele>2386.7</ele><time>2026-03-02T11:09:08.000Z</time></trkpt>
<trkpt lat="42.172994" lon="23.373561"><ele>2386.7</ele><time>2026-03-02T11:09:09.000Z</time></trkpt>
<trkpt lat="42.172996" lon="23.373565"><ele>2385.6</ele><time>2026-03-02T11:09:10.000Z</time></trkpt>
<trkpt lat="42.172997" lon="23.373568"><ele>2385.6</ele><time>2026-03-02T11:09:11.000Z</time></trkpt>
<trkpt lat="42.172997" lon="23.373572"><ele>2385.6</ele><time>2026-03-02T11:09:12.000Z</time></trkpt>
<trkpt lat="42.172998" lon="23.373575"><ele>2385.6</ele><time>2026-03-02T11:09:13.000Z</time></trkpt>
<trkpt lat="42.172999" lon="23.373578"><ele>2385.6</ele><time>2026-03-02T11:09:14.000Z</time></trkpt>
<trkpt lat="42.173" lon="23.373582"><ele>2383.7</ele><time>2026-03-02T11:09:15.000Z</time></trkpt>
<trkpt lat="42.173001" lon="23.373587"><ele>2383.7</ele><time>2026-03-02T11:09:16.000Z</time></trkpt>
<trkpt lat="42.173001" lon="23.373591"><ele>2383.7</ele><time>2026-03-02T11:09:17.000Z</time></trkpt>
<trkpt lat="42.173002" lon="23.373594"><ele>2383.7</ele><time>2026-03-02T11:09:18.000Z</time></trkpt>
<trkpt lat="42.173003" lon="23.373597"><ele>2383.7</ele><time>2026-03-02T11:09:19.000Z</time></trkpt>
<trkpt lat="42.173004" lon="23.373601"><ele>2382.1</ele><time>2026-03-02T11:09:20.000Z</time></trkpt>
<trkpt lat="42.173006" lon="23.373604"><ele>2382.1</ele><time>2026-03-02T11:09:21.000Z</time></trkpt>
<trkpt lat="42.173009" lon="23.373607"><ele>2382.1</ele><time>2026-03-02T11:09:22.000Z</time></trkpt>
<trkpt lat="42.173012" lon="23.37361"><ele>2382.1</ele><time>2026-03-02T11:09:23.000Z</time></trkpt>
<trkpt lat="42.173015" lon="23.373612"><ele>2382.1</ele><time>2026-03-02T11:09:24.000Z</time></trkpt>
<trkpt lat="42.173018" lon="23.373614"><ele>2381.4</ele><time>2026-03-02T11:09:25.000Z</time></trkpt>
<trkpt lat="42.173021" lon="23.373617"><ele>2381.4</ele><time>2026-03-02T11:09:26.000Z</time></trkpt>
<trkpt lat="42.173023" lon="23.373619"><ele>2381.4</ele><time>2026-03-02T11:09:27.000Z</time></trkpt>
<trkpt lat="42.173025" lon="23.373622"><ele>2381.4</ele><time>2026-03-02T11:09:28.000Z</time></trkpt>
<trkpt lat="42.173027" lon="23.373626"><ele>2381.4</ele><time>2026-03-02T11:09:29.000Z</time></trkpt>
<trkpt lat="42.17303" lon="23.37363"><ele>2380</ele><time>2026-03-02T11:09:30.000Z</time></trkpt>
<trkpt lat="42.173031" lon="23.373634"><ele>2380</ele><time>2026-03-02T11:09:31.000Z</time></trkpt>
<trkpt lat="42.173033" lon="23.373639"><ele>2380</ele><time>2026-03-02T11:09:32.000Z</time></trkpt>
<trkpt lat="42.173035" lon="23.373644"><ele>2380</ele><time>2026-03-02T11:09:33.000Z</time></trkpt>
<trkpt lat="42.173037" lon="23.37365"><ele>2380</ele><time>2026-03-02T11:09:34.000Z</time></trkpt>
<trkpt lat="42.173037" lon="23.373655"><ele>2378.4</ele><time>2026-03-02T11:09:35.000Z</time></trkpt>
<trkpt lat="42.17304" lon="23.373659"><ele>2378.4</ele><time>2026-03-02T11:09:36.000Z</time></trkpt>
<trkpt lat="42.173043" lon="23.373665"><ele>2378.4</ele><time>2026-03-02T11:09:37.000Z</time></trkpt>
<trkpt lat="42.173047" lon="23.373671"><ele>2378.4</ele><time>2026-03-02T11:09:38.000Z</time></trkpt>
<trkpt lat="42.173051" lon="23.373676"><ele>2378.4</ele><time>2026-03-02T11:09:39.000Z</time></trkpt>
<trkpt lat="42.173055" lon="23.373682"><ele>2377.6</ele><time>2026-03-02T11:09:40.000Z</time></trkpt>
<trkpt lat="42.173058" lon="23.373689"><ele>2377.6</ele><time>2026-03-02T11:09:41.000Z</time></trkpt>
<trkpt lat="42.173061" lon="23.373695"><ele>2377.6</ele><time>2026-03-02T11:09:42.000Z</time></trkpt>
<trkpt lat="42.173064" lon="23.373699"><ele>2377.6</ele><time>2026-03-02T11:09:43.000Z</time></trkpt>
<trkpt lat="42.173067" lon="23.373704"><ele>2377.6</ele><time>2026-03-02T11:09:44.000Z</time></trkpt>
<trkpt lat="42.17307" lon="23.373708"><ele>2376</ele><time>2026-03-02T11:09:45.000Z</time></trkpt>
<trkpt lat="42.173072" lon="23.373711"><ele>2376</ele><time>2026-03-02T11:09:46.000Z</time></trkpt>
<trkpt lat="42.173074" lon="23.373713"><ele>2376</ele><time>2026-03-02T11:09:47.000Z</time></trkpt>
<trkpt lat="42.173074" lon="23.373713"><ele>2376</ele><time>2026-03-02T11:09:48.000Z</time></trkpt>
<trkpt lat="42.173074" lon="23.373712"><ele>2376</ele><time>2026-03-02T11:09:49.000Z</time></trkpt>
<trkpt lat="42.173075" lon="23.373711"><ele>2374.5</ele><time>2026-03-02T11:09:50.000Z</time></trkpt>
<trkpt lat="42.173075" lon="23.37371"><ele>2374.5</ele><time>2026-03-02T11:09:51.000Z</time></trkpt>
<trkpt lat="42.173076" lon="23.37371"><ele>2374.5</ele><time>2026-03-02T11:09:52.000Z</time></trkpt>
<trkpt lat="42.173078" lon="23.373711"><ele>2374.5</ele><time>2026-03-02T11:09:53.000Z</time></trkpt>
<trkpt lat="42.173079" lon="23.373714"><ele>2374.5</ele><time>2026-03-02T11:09:54.000Z</time></trkpt>
<trkpt lat="42.17308" lon="23.373716"><ele>2373.7</ele><time>2026-03-02T11:09:55.000Z</time></trkpt>
<trkpt lat="42.17308" lon="23.373719"><ele>2373.7</ele><time>2026-03-02T11:09:56.000Z</time></trkpt>
<trkpt lat="42.17308" lon="23.373721"><ele>2373.7</ele><time>2026-03-02T11:09:57.000Z</time></trkpt>
<trkpt lat="42.173079" lon="23.373723"><ele>2373.7</ele><time>2026-03-02T11:09:58.000Z</time></trkpt>
<trkpt lat="42.173078" lon="23.373723"><ele>2373.7</ele><time>2026-03-02T11:09:59.000Z</time></trkpt>
<trkpt lat="42.173076" lon="23.373722"><ele>2372.2</ele><time>2026-03-02T11:10:00.000Z</time></trkpt>
<trkpt lat="42.173074" lon="23.373721"><ele>2372.2</ele><time>2026-03-02T11:10:01.000Z</time></trkpt>
<trkpt lat="42.173073" lon="23.373719"><ele>2372.2</ele><time>2026-03-02T11:10:02.000Z</time></trkpt>
<trkpt lat="42.173071" lon="23.373718"><ele>2372.2</ele><time>2026-03-02T11:10:03.000Z</time></trkpt>
<trkpt lat="42.173071" lon="23.373718"><ele>2372.2</ele><time>2026-03-02T11:10:04.000Z</time></trkpt>
<trkpt lat="42.17307" lon="23.373716"><ele>2371.2</ele><time>2026-03-02T11:10:05.000Z</time></trkpt>
<trkpt lat="42.173069" lon="23.373716"><ele>2371.2</ele><time>2026-03-02T11:10:06.000Z</time></trkpt>
<trkpt lat="42.173069" lon="23.373716"><ele>2371.2</ele><time>2026-03-02T11:10:07.000Z</time></trkpt>
<trkpt lat="42.173068" lon="23.373717"><ele>2371.2</ele><time>2026-03-02T11:10:08.000Z</time></trkpt>
<trkpt lat="42.173067" lon="23.373717"><ele>2371.2</ele><time>2026-03-02T11:10:09.000Z</time></trkpt>
<trkpt lat="42.173067" lon="23.373718"><ele>2370.9</ele><time>2026-03-02T11:10:10.000Z</time></trkpt>
<trkpt lat="42.173068" lon="23.373719"><ele>2370.9</ele><time>2026-03-02T11:10:11.000Z</time></trkpt>
<trkpt lat="42.17307" lon="23.37372"><ele>2370.9</ele><time>2026-03-02T11:10:12.000Z</time></trkpt>
<trkpt lat="42.173072" lon="23.373722"><ele>2370.9</ele><time>2026-03-02T11:10:13.000Z</time></trkpt>
<trkpt lat="42.173073" lon="23.373723"><ele>2370.9</ele><time>2026-03-02T11:10:14.000Z</time></trkpt>
<trkpt lat="42.173074" lon="23.373723"><ele>2370.8</ele><time>2026-03-02T11:10:15.000Z</time></trkpt>
<trkpt lat="42.173075" lon="23.373724"><ele>2370.8</ele><time>2026-03-02T11:10:16.000Z</time></trkpt>
<trkpt lat="42.173075" lon="23.373724"><ele>2370.8</ele><time>2026-03-02T11:10:17.000Z</time></trkpt>
<trkpt lat="42.173075" lon="23.373724"><ele>2370.8</ele><time>2026-03-02T11:10:18.000Z</time></trkpt>
<trkpt lat="42.173075" lon="23.373724"><ele>2370.8</ele><time>2026-03-02T11:10:19.000Z</time></trkpt>
<trkpt lat="42.173075" lon="23.373723"><ele>2370.9</ele><time>2026-03-02T11:10:20.000Z</time></trkpt>
<trkpt lat="42.173074" lon="23.373724"><ele>2370.9</ele><time>2026-03-02T11:10:21.000Z</time></trkpt>
<trkpt lat="42.173073" lon="23.373725"><ele>2370.9</ele><time>2026-03-02T11:10:22.000Z</time></trkpt>
<trkpt lat="42.173072" lon="23.373726"><ele>2370.9</ele><time>2026-03-02T11:10:23.000Z</time></trkpt>
<trkpt lat="42.173072" lon="23.373727"><ele>2370.9</ele><time>2026-03-02T11:10:24.000Z</time></trkpt>
<trkpt lat="42.173072" lon="23.373728"><ele>2370.8</ele><time>2026-03-02T11:10:25.000Z</time></trkpt>
<trkpt lat="42.173072" lon="23.373728"><ele>2370.8</ele><time>2026-03-02T11:10:26.000Z</time></trkpt>
<trkpt lat="42.173072" lon="23.373727"><ele>2370.8</ele><time>2026-03-02T11:10:27.000Z</time></trkpt>
<trkpt lat="42.173072" lon="23.373725"><ele>2370.8</ele><time>2026-03-02T11:10:28.000Z</time></trkpt>
<trkpt lat="42.17307" lon="23.373726"><ele>2370.8</ele><time>2026-03-02T11:10:29.000Z</time></trkpt>
<trkpt lat="42.17307" lon="23.373728"><ele>2370.3</ele><time>2026-03-02T11:10:30.000Z</time></trkpt>
<trkpt lat="42.173069" lon="23.37373"><ele>2370.3</ele><time>2026-03-02T11:10:31.000Z</time></trkpt>
<trkpt lat="42.173069" lon="23.373733"><ele>2370.3</ele><time>2026-03-02T11:10:32.000Z</time></trkpt>
<trkpt lat="42.173068" lon="23.373736"><ele>2370.3</ele><time>2026-03-02T11:10:33.000Z</time></trkpt>
<trkpt lat="42.173069" lon="23.373738"><ele>2370.3</ele><time>2026-03-02T11:10:34.000Z</time></trkpt>
<trkpt lat="42.173069" lon="23.373739"><ele>2369.7</ele><time>2026-03-02T11:10:35.000Z</time></trkpt>
<trkpt lat="42.173068" lon="23.373739"><ele>2369.7</ele><time>2026-03-02T11:10:36.000Z</time></trkpt>
<trkpt lat="42.173067" lon="23.373738"><ele>2369.7</ele><time>2026-03-02T11:10:37.000Z</time></trkpt>
<trkpt lat="42.173066" lon="23.373738"><ele>2369.7</ele><time>2026-03-02T11:10:38.000Z</time></trkpt>
<trkpt lat="42.173064" lon="23.373737"><ele>2369.7</ele><time>2026-03-02T11:10:39.000Z</time></trkpt>
<trkpt lat="42.173064" lon="23.373736"><ele>2369.5</ele><time>2026-03-02T11:10:40.000Z</time></trkpt>
<trkpt lat="42.173063" lon="23.373735"><ele>2369.5</ele><time>2026-03-02T11:10:41.000Z</time></trkpt>
<trkpt lat="42.173063" lon="23.373735"><ele>2369.5</ele><time>2026-03-02T11:10:42.000Z</time></trkpt>
<trkpt lat="42.173064" lon="23.373735"><ele>2369.5</ele><time>2026-03-02T11:10:43.000Z</time></trkpt>
<trkpt lat="42.173065" lon="23.373736"><ele>2369.5</ele><time>2026-03-02T11:10:44.000Z</time></trkpt>
<trkpt lat="42.173066" lon="23.373735"><ele>2369.3</ele><time>2026-03-02T11:10:45.000Z</time></trkpt>
<trkpt lat="42.173066" lon="23.373736"><ele>2369.3</ele><time>2026-03-02T11:10:46.000Z</time></trkpt>
<trkpt lat="42.173066" lon="23.373737"><ele>2369.3</ele><time>2026-03-02T11:10:47.000Z</time></trkpt>
<trkpt lat="42.173065" lon="23.373738"><ele>2369.3</ele><time>2026-03-02T11:10:48.000Z</time></trkpt>
<trkpt lat="42.173065" lon="23.373738"><ele>2369.3</ele><time>2026-03-02T11:10:49.000Z</time></trkpt>
<trkpt lat="42.173064" lon="23.373738"><ele>2369.3</ele><time>2026-03-02T11:10:50.000Z</time></trkpt>
<trkpt lat="42.173063" lon="23.373736"><ele>2369.3</ele><time>2026-03-02T11:10:51.000Z</time></trkpt>
<trkpt lat="42.173063" lon="23.373735"><ele>2369.3</ele><time>2026-03-02T11:10:52.000Z</time></trkpt>
<trkpt lat="42.173063" lon="23.373735"><ele>2369.3</ele><time>2026-03-02T11:10:53.000Z</time></trkpt>
<trkpt lat="42.173062" lon="23.373736"><ele>2369.3</ele><time>2026-03-02T11:10:54.000Z</time></trkpt>
<trkpt lat="42.173063" lon="23.373737"><ele>2369.3</ele><time>2026-03-02T11:10:55.000Z</time></trkpt>
<trkpt lat="42.173063" lon="23.373739"><ele>2369.3</ele><time>2026-03-02T11:10:56.000Z</time></trkpt>
<trkpt lat="42.173062" lon="23.373742"><ele>2369.3</ele><time>2026-03-02T11:10:57.000Z</time></trkpt>
<trkpt lat="42.173061" lon="23.373745"><ele>2369.3</ele><time>2026-03-02T11:10:58.000Z</time></trkpt>
<trkpt lat="42.173059" lon="23.373746"><ele>2369.3</ele><time>2026-03-02T11:10:59.000Z</time></trkpt>
<trkpt lat="42.173057" lon="23.373747"><ele>2369.2</ele><time>2026-03-02T11:11:00.000Z</time></trkpt>
<trkpt lat="42.173054" lon="23.373747"><ele>2369.2</ele><time>2026-03-02T11:11:01.000Z</time></trkpt>
<trkpt lat="42.173052" lon="23.373746"><ele>2369.2</ele><time>2026-03-02T11:11:02.000Z</time></trkpt>
<trkpt lat="42.17305" lon="23.373742"><ele>2369.2</ele><time>2026-03-02T11:11:03.000Z</time></trkpt>
<trkpt lat="42.17305" lon="23.373739"><ele>2369.2</ele><time>2026-03-02T11:11:04.000Z</time></trkpt>
<trkpt lat="42.173049" lon="23.373735"><ele>2369.1</ele><time>2026-03-02T11:11:05.000Z</time></trkpt>
<trkpt lat="42.173049" lon="23.37373"><ele>2369.1</ele><time>2026-03-02T11:11:06.000Z</time></trkpt>
<trkpt lat="42.173048" lon="23.373727"><ele>2369.1</ele><time>2026-03-02T11:11:07.000Z</time></trkpt>
<trkpt lat="42.173048" lon="23.373725"><ele>2369.1</ele><time>2026-03-02T11:11:08.000Z</time></trkpt>
<trkpt lat="42.173048" lon="23.373725"><ele>2369.1</ele><time>2026-03-02T11:11:09.000Z</time></trkpt>
<trkpt lat="42.173048" lon="23.373727"><ele>2369.1</ele><time>2026-03-02T11:11:10.000Z</time></trkpt>
<trkpt lat="42.173048" lon="23.373729"><ele>2369.1</ele><time>2026-03-02T11:11:11.000Z</time></trkpt>
<trkpt lat="42.173048" lon="23.373731"><ele>2369.1</ele><time>2026-03-02T11:11:12.000Z</time></trkpt>
<trkpt lat="42.173049" lon="23.373733"><ele>2369.1</ele><time>2026-03-02T11:11:13.000Z</time></trkpt>
<trkpt lat="42.17305" lon="23.373734"><ele>2369.1</ele><time>2026-03-02T11:11:14.000Z</time></trkpt>
<trkpt lat="42.173051" lon="23.373735"><ele>2369</ele><time>2026-03-02T11:11:15.000Z</time></trkpt>
<trkpt lat="42.173052" lon="23.373737"><ele>2369</ele><time>2026-03-02T11:11:16.000Z</time></trkpt>
<trkpt lat="42.173052" lon="23.373738"><ele>2369</ele><time>2026-03-02T11:11:17.000Z</time></trkpt>
<trkpt lat="42.173054" lon="23.373739"><ele>2369</ele><time>2026-03-02T11:11:18.000Z</time></trkpt>
<trkpt lat="42.173056" lon="23.37374"><ele>2369</ele><time>2026-03-02T11:11:19.000Z</time></trkpt>
<trkpt lat="42.173058" lon="23.373742"><ele>2369.1</ele><time>2026-03-02T11:11:20.000Z</time></trkpt>
<trkpt lat="42.173059" lon="23.373743"><ele>2369.1</ele><time>2026-03-02T11:11:21.000Z</time></trkpt>
<trkpt lat="42.17306" lon="23.373744"><ele>2369.1</ele><time>2026-03-02T11:11:22.000Z</time></trkpt>
<trkpt lat="42.17306" lon="23.373745"><ele>2369.1</ele><time>2026-03-02T11:11:23.000Z</time></trkpt>
<trkpt lat="42.173059" lon="23.373746"><ele>2369.1</ele><time>2026-03-02T11:11:24.000Z</time></trkpt>
<trkpt lat="42.173059" lon="23.373746"><ele>2369.2</ele><time>2026-03-02T11:11:25.000Z</time></trkpt>
<trkpt lat="42.173059" lon="23.373747"><ele>2369.2</ele><time>2026-03-02T11:11:26.000Z</time></trkpt>
<trkpt lat="42.17306" lon="23.373749"><ele>2369.2</ele><time>2026-03-02T11:11:27.000Z</time></trkpt>
<trkpt lat="42.17306" lon="23.37375"><ele>2369.2</ele><time>2026-03-02T11:11:28.000Z</time></trkpt>
<trkpt lat="42.17306" lon="23.373751"><ele>2369.2</ele><time>2026-03-02T11:11:29.000Z</time></trkpt>
<trkpt lat="42.17306" lon="23.373751"><ele>2369.3</ele><time>2026-03-02T11:11:30.000Z</time></trkpt>
<trkpt lat="42.17306" lon="23.373751"><ele>2369.3</ele><time>2026-03-02T11:11:31.000Z</time></trkpt>
<trkpt lat="42.173059" lon="23.373749"><ele>2369.3</ele><time>2026-03-02T11:11:32.000Z</time></trkpt>
<trkpt lat="42.173058" lon="23.373748"><ele>2369.3</ele><time>2026-03-02T11:11:33.000Z</time></trkpt>
<trkpt lat="42.173057" lon="23.373747"><ele>2369.3</ele><time>2026-03-02T11:11:34.000Z</time></trkpt>
<trkpt lat="42.173055" lon="23.373746"><ele>2369.5</ele><time>2026-03-02T11:11:35.000Z</time></trkpt>
<trkpt lat="42.173054" lon="23.373745"><ele>2369.5</ele><time>2026-03-02T11:11:36.000Z</time></trkpt>
<trkpt lat="42.173053" lon="23.373744"><ele>2369.5</ele><time>2026-03-02T11:11:37.000Z</time></trkpt>
<trkpt lat="42.173052" lon="23.373743"><ele>2369.5</ele><time>2026-03-02T11:11:38.000Z</time></trkpt>
<trkpt lat="42.173053" lon="23.373743"><ele>2369.5</ele><time>2026-03-02T11:11:39.000Z</time></trkpt>
<trkpt lat="42.173054" lon="23.373742"><ele>2369.6</ele><time>2026-03-02T11:11:40.000Z</time></trkpt>
<trkpt lat="42.173056" lon="23.373742"><ele>2369.6</ele><time>2026-03-02T11:11:41.000Z</time></trkpt>
<trkpt lat="42.173059" lon="23.373742"><ele>2369.6</ele><time>2026-03-02T11:11:42.000Z</time></trkpt>
<trkpt lat="42.173062" lon="23.373743"><ele>2369.6</ele><time>2026-03-02T11:11:43.000Z</time></trkpt>
<trkpt lat="42.173065" lon="23.373742"><ele>2369.6</ele><time>2026-03-02T11:11:44.000Z</time></trkpt>
<trkpt lat="42.173069" lon="23.373742"><ele>2369.7</ele><time>2026-03-02T11:11:45.000Z</time></trkpt>
<trkpt lat="42.173073" lon="23.373742"><ele>2369.7</ele><time>2026-03-02T11:11:46.000Z</time></trkpt>
<trkpt lat="42.173075" lon="23.373741"><ele>2369.7</ele><time>2026-03-02T11:11:47.000Z</time></trkpt>
<trkpt lat="42.173078" lon="23.37374"><ele>2369.7</ele><time>2026-03-02T11:11:48.000Z</time></trkpt>
<trkpt lat="42.173081" lon="23.37374"><ele>2369.7</ele><time>2026-03-02T11:11:49.000Z</time></trkpt>
<trkpt lat="42.173085" lon="23.37374"><ele>2369.4</ele><time>2026-03-02T11:11:50.000Z</time></trkpt>
<trkpt lat="42.173088" lon="23.373741"><ele>2369.4</ele><time>2026-03-02T11:11:51.000Z</time></trkpt>
<trkpt lat="42.173092" lon="23.373742"><ele>2369.4</ele><time>2026-03-02T11:11:52.000Z</time></trkpt>
<trkpt lat="42.173097" lon="23.373742"><ele>2369.4</ele><time>2026-03-02T11:11:53.000Z</time></trkpt>
<trkpt lat="42.173102" lon="23.373742"><ele>2369.4</ele><time>2026-03-02T11:11:54.000Z</time></trkpt>
<trkpt lat="42.173107" lon="23.373742"><ele>2369.1</ele><time>2026-03-02T11:11:55.000Z</time></trkpt>
<trkpt lat="42.173112" lon="23.373742"><ele>2369.1</ele><time>2026-03-02T11:11:56.000Z</time></trkpt>
<trkpt lat="42.173117" lon="23.373743"><ele>2369.1</ele><time>2026-03-02T11:11:57.000Z</time></trkpt>
<trkpt lat="42.173121" lon="23.373745"><ele>2369.1</ele><time>2026-03-02T11:11:58.000Z</time></trkpt>
<trkpt lat="42.173125" lon="23.373746"><ele>2369.1</ele><time>2026-03-02T11:11:59.000Z</time></trkpt>
<trkpt lat="42.173128" lon="23.373747"><ele>2367.8</ele><time>2026-03-02T11:12:00.000Z</time></trkpt>
<trkpt lat="42.173132" lon="23.373748"><ele>2367.8</ele><time>2026-03-02T11:12:01.000Z</time></trkpt>
<trkpt lat="42.173136" lon="23.373749"><ele>2367.8</ele><time>2026-03-02T11:12:02.000Z</time></trkpt>
<trkpt lat="42.173142" lon="23.373749"><ele>2367.8</ele><time>2026-03-02T11:12:03.000Z</time></trkpt>
<trkpt lat="42.173148" lon="23.373751"><ele>2367.8</ele><time>2026-03-02T11:12:04.000Z</time></trkpt>
<trkpt lat="42.173155" lon="23.373751"><ele>2366.2</ele><time>2026-03-02T11:12:05.000Z</time></trkpt>
<trkpt lat="42.173162" lon="23.373752"><ele>2366.2</ele><time>2026-03-02T11:12:06.000Z</time></trkpt>
<trkpt lat="42.173169" lon="23.373756"><ele>2366.2</ele><time>2026-03-02T11:12:07.000Z</time></trkpt>
<trkpt lat="42.173177" lon="23.37376"><ele>2366.2</ele><time>2026-03-02T11:12:08.000Z</time></trkpt>
<trkpt lat="42.173184" lon="23.373765"><ele>2366.2</ele><time>2026-03-02T11:12:09.000Z</time></trkpt>
<trkpt lat="42.173191" lon="23.373771"><ele>2365.4</ele><time>2026-03-02T11:12:10.000Z</time></trkpt>
<trkpt lat="42.173196" lon="23.373776"><ele>2365.4</ele><time>2026-03-02T11:12:11.000Z</time></trkpt>
<trkpt lat="42.1732" lon="23.373778"><ele>2365.4</ele><time>2026-03-02T11:12:12.000Z</time></trkpt>
<trkpt lat="42.173201" lon="23.373778"><ele>2365.4</ele><time>2026-03-02T11:12:13.000Z</time></trkpt>
<trkpt lat="42.173202" lon="23.373779"><ele>2365.4</ele><time>2026-03-02T11:12:14.000Z</time></trkpt>
<trkpt lat="42.173201" lon="23.373778"><ele>2363.6</ele><time>2026-03-02T11:12:15.000Z</time></trkpt>
<trkpt lat="42.1732" lon="23.373778"><ele>2363.6</ele><time>2026-03-02T11:12:16.000Z</time></trkpt>
<trkpt lat="42.1732" lon="23.373778"><ele>2363.6</ele><time>2026-03-02T11:12:17.000Z</time></trkpt>
<trkpt lat="42.1732" lon="23.37378"><ele>2363.6</ele><time>2026-03-02T11:12:18.000Z</time></trkpt>
<trkpt lat="42.173202" lon="23.373783"><ele>2363.6</ele><time>2026-03-02T11:12:19.000Z</time></trkpt>
<trkpt lat="42.173204" lon="23.373787"><ele>2361.6</ele><time>2026-03-02T11:12:20.000Z</time></trkpt>
<trkpt lat="42.173206" lon="23.373791"><ele>2361.6</ele><time>2026-03-02T11:12:21.000Z</time></trkpt>
<trkpt lat="42.173209" lon="23.373796"><ele>2361.6</ele><time>2026-03-02T11:12:22.000Z</time></trkpt>
<trkpt lat="42.173212" lon="23.373801"><ele>2361.6</ele><time>2026-03-02T11:12:23.000Z</time></trkpt>
<trkpt lat="42.173216" lon="23.373805"><ele>2361.6</ele><time>2026-03-02T11:12:24.000Z</time></trkpt>
<trkpt lat="42.173219" lon="23.373809"><ele>2360.5</ele><time>2026-03-02T11:12:25.000Z</time></trkpt>
<trkpt lat="42.173223" lon="23.373813"><ele>2360.5</ele><time>2026-03-02T11:12:26.000Z</time></trkpt>
<trkpt lat="42.173228" lon="23.373817"><ele>2360.5</ele><time>2026-03-02T11:12:27.000Z</time></trkpt>
<trkpt lat="42.173233" lon="23.373822"><ele>2360.5</ele><time>2026-03-02T11:12:28.000Z</time></trkpt>
<trkpt lat="42.173237" lon="23.373827"><ele>2360.5</ele><time>2026-03-02T11:12:29.000Z</time></trkpt>
<trkpt lat="42.173241" lon="23.373832"><ele>2358.6</ele><time>2026-03-02T11:12:30.000Z</time></trkpt>
<trkpt lat="42.173245" lon="23.373838"><ele>2358.6</ele><time>2026-03-02T11:12:31.000Z</time></trkpt>
<trkpt lat="42.173248" lon="23.373844"><ele>2358.6</ele><time>2026-03-02T11:12:32.000Z</time></trkpt>
<trkpt lat="42.173251" lon="23.373849"><ele>2358.6</ele><time>2026-03-02T11:12:33.000Z</time></trkpt>
<trkpt lat="42.173254" lon="23.373854"><ele>2358.6</ele><time>2026-03-02T11:12:34.000Z</time></trkpt>
<trkpt lat="42.173256" lon="23.373859"><ele>2357</ele><time>2026-03-02T11:12:35.000Z</time></trkpt>
<trkpt lat="42.17326" lon="23.373864"><ele>2357</ele><time>2026-03-02T11:12:36.000Z</time></trkpt>
<trkpt lat="42.173263" lon="23.373868"><ele>2357</ele><time>2026-03-02T11:12:37.000Z</time></trkpt>
<trkpt lat="42.173267" lon="23.373871"><ele>2357</ele><time>2026-03-02T11:12:38.000Z</time></trkpt>
<trkpt lat="42.173271" lon="23.373875"><ele>2357</ele><time>2026-03-02T11:12:39.000Z</time></trkpt>
<trkpt lat="42.173275" lon="23.373879"><ele>2356.1</ele><time>2026-03-02T11:12:40.000Z</time></trkpt>
<trkpt lat="42.173279" lon="23.373884"><ele>2356.1</ele><time>2026-03-02T11:12:41.000Z</time></trkpt>
<trkpt lat="42.173283" lon="23.373889"><ele>2356.1</ele><time>2026-03-02T11:12:42.000Z</time></trkpt>
<trkpt lat="42.173287" lon="23.373897"><ele>2356.1</ele><time>2026-03-02T11:12:43.000Z</time></trkpt>
<trkpt lat="42.17329" lon="23.373904"><ele>2356.1</ele><time>2026-03-02T11:12:44.000Z</time></trkpt>
<trkpt lat="42.173293" lon="23.373913"><ele>2354.3</ele><time>2026-03-02T11:12:45.000Z</time></trkpt>
<trkpt lat="42.173297" lon="23.373921"><ele>2354.3</ele><time>2026-03-02T11:12:46.000Z</time></trkpt>
<trkpt lat="42.1733" lon="23.373929"><ele>2354.3</ele><time>2026-03-02T11:12:47.000Z</time></trkpt>
<trkpt lat="42.173303" lon="23.373936"><ele>2354.3</ele><time>2026-03-02T11:12:48.000Z</time></trkpt>
<trkpt lat="42.173307" lon="23.373941"><ele>2354.3</ele><time>2026-03-02T11:12:49.000Z</time></trkpt>
<trkpt lat="42.173312" lon="23.373946"><ele>2352.4</ele><time>2026-03-02T11:12:50.000Z</time></trkpt>
<trkpt lat="42.173316" lon="23.37395"><ele>2352.4</ele><time>2026-03-02T11:12:51.000Z</time></trkpt>
<trkpt lat="42.173321" lon="23.373954"><ele>2352.4</ele><time>2026-03-02T11:12:52.000Z</time></trkpt>
<trkpt lat="42.173326" lon="23.373958"><ele>2352.4</ele><time>2026-03-02T11:12:53.000Z</time></trkpt>
<trkpt lat="42.17333" lon="23.373962"><ele>2352.4</ele><time>2026-03-02T11:12:54.000Z</time></trkpt>
<trkpt lat="42.173335" lon="23.373967"><ele>2351.5</ele><time>2026-03-02T11:12:55.000Z</time></trkpt>
<trkpt lat="42.173338" lon="23.373971"><ele>2351.5</ele><time>2026-03-02T11:12:56.000Z</time></trkpt>
<trkpt lat="42.173341" lon="23.373975"><ele>2351.5</ele><time>2026-03-02T11:12:57.000Z</time></trkpt>
<trkpt lat="42.173343" lon="23.373981"><ele>2351.5</ele><time>2026-03-02T11:12:58.000Z</time></trkpt>
<trkpt lat="42.173345" lon="23.373988"><ele>2351.5</ele><time>2026-03-02T11:12:59.000Z</time></trkpt>
<trkpt lat="42.173348" lon="23.373995"><ele>2349.7</ele><time>2026-03-02T11:13:00.000Z</time></trkpt>
<trkpt lat="42.173352" lon="23.374002"><ele>2349.7</ele><time>2026-03-02T11:13:01.000Z</time></trkpt>
<trkpt lat="42.173357" lon="23.374009"><ele>2349.7</ele><time>2026-03-02T11:13:02.000Z</time></trkpt>
<trkpt lat="42.173362" lon="23.374016"><ele>2349.7</ele><time>2026-03-02T11:13:03.000Z</time></trkpt>
<trkpt lat="42.173366" lon="23.374024"><ele>2349.7</ele><time>2026-03-02T11:13:04.000Z</time></trkpt>
<trkpt lat="42.173371" lon="23.37403"><ele>2347.8</ele><time>2026-03-02T11:13:05.000Z</time></trkpt>
<trkpt lat="42.173375" lon="23.374037"><ele>2347.8</ele><time>2026-03-02T11:13:06.000Z</time></trkpt>
<trkpt lat="42.173381" lon="23.374045"><ele>2347.8</ele><time>2026-03-02T11:13:07.000Z</time></trkpt>
<trkpt lat="42.173387" lon="23.374052"><ele>2347.8</ele><time>2026-03-02T11:13:08.000Z</time></trkpt>
<trkpt lat="42.173394" lon="23.374059"><ele>2347.8</ele><time>2026-03-02T11:13:09.000Z</time></trkpt>
<trkpt lat="42.1734" lon="23.374067"><ele>2346.8</ele><time>2026-03-02T11:13:10.000Z</time></trkpt>
<trkpt lat="42.173407" lon="23.374075"><ele>2346.8</ele><time>2026-03-02T11:13:11.000Z</time></trkpt>
<trkpt lat="42.173415" lon="23.374083"><ele>2346.8</ele><time>2026-03-02T11:13:12.000Z</time></trkpt>
<trkpt lat="42.173421" lon="23.37409"><ele>2346.8</ele><time>2026-03-02T11:13:13.000Z</time></trkpt>
<trkpt lat="42.173427" lon="23.374097"><ele>2346.8</ele><time>2026-03-02T11:13:14.000Z</time></trkpt>
<trkpt lat="42.173435" lon="23.374104"><ele>2344.6</ele><time>2026-03-02T11:13:15.000Z</time></trkpt>
<trkpt lat="42.173443" lon="23.374113"><ele>2344.6</ele><time>2026-03-02T11:13:16.000Z</time></trkpt>
<trkpt lat="42.173451" lon="23.374122"><ele>2344.6</ele><time>2026-03-02T11:13:17.000Z</time></trkpt>
<trkpt lat="42.173459" lon="23.374131"><ele>2344.6</ele><time>2026-03-02T11:13:18.000Z</time></trkpt>
<trkpt lat="42.173468" lon="23.37414"><ele>2344.6</ele><time>2026-03-02T11:13:19.000Z</time></trkpt>
<trkpt lat="42.173475" lon="23.374147"><ele>2342.4</ele><time>2026-03-02T11:13:20.000Z</time></trkpt>
<trkpt lat="42.173482" lon="23.374153"><ele>2342.4</ele><time>2026-03-02T11:13:21.000Z</time></trkpt>
<trkpt lat="42.173489" lon="23.374158"><ele>2342.4</ele><time>2026-03-02T11:13:22.000Z</time></trkpt>
<trkpt lat="42.173496" lon="23.374162"><ele>2342.4</ele><time>2026-03-02T11:13:23.000Z</time></trkpt>
<trkpt lat="42.173503" lon="23.374167"><ele>2342.4</ele><time>2026-03-02T11:13:24.000Z</time></trkpt>
<trkpt lat="42.17351" lon="23.374171"><ele>2341.3</ele><time>2026-03-02T11:13:25.000Z</time></trkpt>
<trkpt lat="42.173517" lon="23.374176"><ele>2341.3</ele><time>2026-03-02T11:13:26.000Z</time></trkpt>
<trkpt lat="42.173524" lon="23.37418"><ele>2341.3</ele><time>2026-03-02T11:13:27.000Z</time></trkpt>
<trkpt lat="42.17353" lon="23.374184"><ele>2341.3</ele><time>2026-03-02T11:13:28.000Z</time></trkpt>
<trkpt lat="42.173535" lon="23.374188"><ele>2341.3</ele><time>2026-03-02T11:13:29.000Z</time></trkpt>
<trkpt lat="42.173539" lon="23.374192"><ele>2339.3</ele><time>2026-03-02T11:13:30.000Z</time></trkpt>
<trkpt lat="42.173544" lon="23.374196"><ele>2339.3</ele><time>2026-03-02T11:13:31.000Z</time></trkpt>
<trkpt lat="42.173549" lon="23.374199"><ele>2339.3</ele><time>2026-03-02T11:13:32.000Z</time></trkpt>
<trkpt lat="42.173554" lon="23.374202"><ele>2339.3</ele><time>2026-03-02T11:13:33.000Z</time></trkpt>
<trkpt lat="42.173559" lon="23.374205"><ele>2339.3</ele><time>2026-03-02T11:13:34.000Z</time></trkpt>
<trkpt lat="42.173565" lon="23.374206"><ele>2337.5</ele><time>2026-03-02T11:13:35.000Z</time></trkpt>
<trkpt lat="42.173569" lon="23.374207"><ele>2337.5</ele><time>2026-03-02T11:13:36.000Z</time></trkpt>
<trkpt lat="42.173572" lon="23.374209"><ele>2337.5</ele><time>2026-03-02T11:13:37.000Z</time></trkpt>
<trkpt lat="42.173575" lon="23.37421"><ele>2337.5</ele><time>2026-03-02T11:13:38.000Z</time></trkpt>
<trkpt lat="42.173577" lon="23.374211"><ele>2337.5</ele><time>2026-03-02T11:13:39.000Z</time></trkpt>
<trkpt lat="42.173579" lon="23.374212"><ele>2336.7</ele><time>2026-03-02T11:13:40.000Z</time></trkpt>
<trkpt lat="42.173582" lon="23.374212"><ele>2336.7</ele><time>2026-03-02T11:13:41.000Z</time></trkpt>
<trkpt lat="42.173585" lon="23.374212"><ele>2336.7</ele><time>2026-03-02T11:13:42.000Z</time></trkpt>
<trkpt lat="42.173588" lon="23.374213"><ele>2336.7</ele><time>2026-03-02T11:13:43.000Z</time></trkpt>
<trkpt lat="42.173592" lon="23.374212"><ele>2336.7</ele><time>2026-03-02T11:13:44.000Z</time></trkpt>
<trkpt lat="42.173597" lon="23.374212"><ele>2335.1</ele><time>2026-03-02T11:13:45.000Z</time></trkpt>
<trkpt lat="42.173601" lon="23.374212"><ele>2335.1</ele><time>2026-03-02T11:13:46.000Z</time></trkpt>
<trkpt lat="42.173606" lon="23.374213"><ele>2335.1</ele><time>2026-03-02T11:13:47.000Z</time></trkpt>
<trkpt lat="42.173612" lon="23.374214"><ele>2335.1</ele><time>2026-03-02T11:13:48.000Z</time></trkpt>
<trkpt lat="42.173617" lon="23.374216"><ele>2335.1</ele><time>2026-03-02T11:13:49.000Z</time></trkpt>
<trkpt lat="42.173622" lon="23.374218"><ele>2333.5</ele><time>2026-03-02T11:13:50.000Z</time></trkpt>
<trkpt lat="42.173627" lon="23.374223"><ele>2333.5</ele><time>2026-03-02T11:13:51.000Z</time></trkpt>
<trkpt lat="42.173633" lon="23.374228"><ele>2333.5</ele><time>2026-03-02T11:13:52.000Z</time></trkpt>
<trkpt lat="42.17364" lon="23.374234"><ele>2333.5</ele><time>2026-03-02T11:13:53.000Z</time></trkpt>
<trkpt lat="42.173647" lon="23.37424"><ele>2333.5</ele><time>2026-03-02T11:13:54.000Z</time></trkpt>
<trkpt lat="42.173653" lon="23.374247"><ele>2332.6</ele><time>2026-03-02T11:13:55.000Z</time></trkpt>
<trkpt lat="42.173659" lon="23.374253"><ele>2332.6</ele><time>2026-03-02T11:13:56.000Z</time></trkpt>
<trkpt lat="42.173664" lon="23.374259"><ele>2332.6</ele><time>2026-03-02T11:13:57.000Z</time></trkpt>
<trkpt lat="42.173668" lon="23.374265"><ele>2332.6</ele><time>2026-03-02T11:13:58.000Z</time></trkpt>
<trkpt lat="42.173673" lon="23.374273"><ele>2332.6</ele><time>2026-03-02T11:13:59.000Z</time></trkpt>
<trkpt lat="42.173677" lon="23.374282"><ele>2330.6</ele><time>2026-03-02T11:14:00.000Z</time></trkpt>
<trkpt lat="42.17368" lon="23.374293"><ele>2330.6</ele><time>2026-03-02T11:14:01.000Z</time></trkpt>
<trkpt lat="42.173684" lon="23.374304"><ele>2330.6</ele><time>2026-03-02T11:14:02.000Z</time></trkpt>
<trkpt lat="42.173686" lon="23.374314"><ele>2330.6</ele><time>2026-03-02T11:14:03.000Z</time></trkpt>
<trkpt lat="42.173689" lon="23.374325"><ele>2330.6</ele><time>2026-03-02T11:14:04.000Z</time></trkpt>
<trkpt lat="42.173692" lon="23.374334"><ele>2328.4</ele><time>2026-03-02T11:14:05.000Z</time></trkpt>
<trkpt lat="42.173695" lon="23.374343"><ele>2328.4</ele><time>2026-03-02T11:14:06.000Z</time></trkpt>
<trkpt lat="42.173698" lon="23.374351"><ele>2328.4</ele><time>2026-03-02T11:14:07.000Z</time></trkpt>
<trkpt lat="42.173701" lon="23.374358"><ele>2328.4</ele><time>2026-03-02T11:14:08.000Z</time></trkpt>
<trkpt lat="42.173704" lon="23.374363"><ele>2328.4</ele><time>2026-03-02T11:14:09.000Z</time></trkpt>
<trkpt lat="42.173708" lon="23.374368"><ele>2327.3</ele><time>2026-03-02T11:14:10.000Z</time></trkpt>
<trkpt lat="42.173711" lon="23.374372"><ele>2327.3</ele><time>2026-03-02T11:14:11.000Z</time></trkpt>
<trkpt lat="42.173716" lon="23.374377"><ele>2327.3</ele><time>2026-03-02T11:14:12.000Z</time></trkpt>
<trkpt lat="42.173721" lon="23.374383"><ele>2327.3</ele><time>2026-03-02T11:14:13.000Z</time></trkpt>
<trkpt lat="42.173726" lon="23.374389"><ele>2327.3</ele><time>2026-03-02T11:14:14.000Z</time></trkpt>
<trkpt lat="42.173732" lon="23.374396"><ele>2325.1</ele><time>2026-03-02T11:14:15.000Z</time></trkpt>
<trkpt lat="42.173738" lon="23.374403"><ele>2325.1</ele><time>2026-03-02T11:14:16.000Z</time></trkpt>
<trkpt lat="42.173743" lon="23.374411"><ele>2325.1</ele><time>2026-03-02T11:14:17.000Z</time></trkpt>
<trkpt lat="42.173749" lon="23.374419"><ele>2325.1</ele><time>2026-03-02T11:14:18.000Z</time></trkpt>
<trkpt lat="42.173754" lon="23.374428"><ele>2325.1</ele><time>2026-03-02T11:14:19.000Z</time></trkpt>
<trkpt lat="42.173758" lon="23.374438"><ele>2323</ele><time>2026-03-02T11:14:20.000Z</time></trkpt>
<trkpt lat="42.173762" lon="23.374449"><ele>2323</ele><time>2026-03-02T11:14:21.000Z</time></trkpt>
<trkpt lat="42.173765" lon="23.37446"><ele>2323</ele><time>2026-03-02T11:14:22.000Z</time></trkpt>
<trkpt lat="42.173768" lon="23.374473"><ele>2323</ele><time>2026-03-02T11:14:23.000Z</time></trkpt>
<trkpt lat="42.173771" lon="23.374487"><ele>2323</ele><time>2026-03-02T11:14:24.000Z</time></trkpt>
<trkpt lat="42.173775" lon="23.3745"><ele>2322</ele><time>2026-03-02T11:14:25.000Z</time></trkpt>
<trkpt lat="42.173778" lon="23.374514"><ele>2322</ele><time>2026-03-02T11:14:26.000Z</time></trkpt>
<trkpt lat="42.173781" lon="23.374527"><ele>2322</ele><time>2026-03-02T11:14:27.000Z</time></trkpt>
<trkpt lat="42.173784" lon="23.374541"><ele>2322</ele><time>2026-03-02T11:14:28.000Z</time></trkpt>
<trkpt lat="42.173786" lon="23.374554"><ele>2322</ele><time>2026-03-02T11:14:29.000Z</time></trkpt>
<trkpt lat="42.173787" lon="23.374568"><ele>2320.2</ele><time>2026-03-02T11:14:30.000Z</time></trkpt>
<trkpt lat="42.173787" lon="23.374579"><ele>2320.2</ele><time>2026-03-02T11:14:31.000Z</time></trkpt>
<trkpt lat="42.173788" lon="23.37459"><ele>2320.2</ele><time>2026-03-02T11:14:32.000Z</time></trkpt>
<trkpt lat="42.173788" lon="23.374599"><ele>2320.2</ele><time>2026-03-02T11:14:33.000Z</time></trkpt>
<trkpt lat="42.173789" lon="23.374606"><ele>2320.2</ele><time>2026-03-02T11:14:34.000Z</time></trkpt>
<trkpt lat="42.173791" lon="23.374612"><ele>2318.6</ele><time>2026-03-02T11:14:35.000Z</time></trkpt>
<trkpt lat="42.173793" lon="23.37462"><ele>2318.6</ele><time>2026-03-02T11:14:36.000Z</time></trkpt>
<trkpt lat="42.173795" lon="23.374629"><ele>2318.6</ele><time>2026-03-02T11:14:37.000Z</time></trkpt>
<trkpt lat="42.173797" lon="23.37464"><ele>2318.6</ele><time>2026-03-02T11:14:38.000Z</time></trkpt>
<trkpt lat="42.173798" lon="23.374653"><ele>2318.6</ele><time>2026-03-02T11:14:39.000Z</time></trkpt>
<trkpt lat="42.173799" lon="23.374668"><ele>2317.9</ele><time>2026-03-02T11:14:40.000Z</time></trkpt>
<trkpt lat="42.1738" lon="23.374684"><ele>2317.9</ele><time>2026-03-02T11:14:41.000Z</time></trkpt>
<trkpt lat="42.1738" lon="23.374699"><ele>2317.9</ele><time>2026-03-02T11:14:42.000Z</time></trkpt>
<trkpt lat="42.173801" lon="23.374714"><ele>2317.9</ele><time>2026-03-02T11:14:43.000Z</time></trkpt>
<trkpt lat="42.173802" lon="23.374728"><ele>2317.9</ele><time>2026-03-02T11:14:44.000Z</time></trkpt>
<trkpt lat="42.173801" lon="23.374743"><ele>2316.6</ele><time>2026-03-02T11:14:45.000Z</time></trkpt>
<trkpt lat="42.1738" lon="23.374757"><ele>2316.6</ele><time>2026-03-02T11:14:46.000Z</time></trkpt>
<trkpt lat="42.173798" lon="23.374769"><ele>2316.6</ele><time>2026-03-02T11:14:47.000Z</time></trkpt>
<trkpt lat="42.173796" lon="23.374782"><ele>2316.6</ele><time>2026-03-02T11:14:48.000Z</time></trkpt>
<trkpt lat="42.173794" lon="23.374795"><ele>2316.6</ele><time>2026-03-02T11:14:49.000Z</time></trkpt>
<trkpt lat="42.173792" lon="23.374808"><ele>2315.3</ele><time>2026-03-02T11:14:50.000Z</time></trkpt>
<trkpt lat="42.17379" lon="23.374822"><ele>2315.3</ele><time>2026-03-02T11:14:51.000Z</time></trkpt>
<trkpt lat="42.17379" lon="23.374836"><ele>2315.3</ele><time>2026-03-02T11:14:52.000Z</time></trkpt>
<trkpt lat="42.173789" lon="23.374851"><ele>2315.3</ele><time>2026-03-02T11:14:53.000Z</time></trkpt>
<trkpt lat="42.173789" lon="23.374866"><ele>2315.3</ele><time>2026-03-02T11:14:54.000Z</time></trkpt>
<trkpt lat="42.173789" lon="23.37488"><ele>2314.6</ele><time>2026-03-02T11:14:55.000Z</time></trkpt>
<trkpt lat="42.17379" lon="23.374894"><ele>2314.6</ele><time>2026-03-02T11:14:56.000Z</time></trkpt>
<trkpt lat="42.173791" lon="23.374908"><ele>2314.6</ele><time>2026-03-02T11:14:57.000Z</time></trkpt>
<trkpt lat="42.173792" lon="23.374922"><ele>2314.6</ele><time>2026-03-02T11:14:58.000Z</time></trkpt>
<trkpt lat="42.173794" lon="23.374936"><ele>2314.6</ele><time>2026-03-02T11:14:59.000Z</time></trkpt>
<trkpt lat="42.173797" lon="23.374951"><ele>2313</ele><time>2026-03-02T11:15:00.000Z</time></trkpt>
<trkpt lat="42.1738" lon="23.374965"><ele>2313</ele><time>2026-03-02T11:15:01.000Z</time></trkpt>
<trkpt lat="42.173803" lon="23.37498"><ele>2313</ele><time>2026-03-02T11:15:02.000Z</time></trkpt>
<trkpt lat="42.173805" lon="23.374993"><ele>2313</ele><time>2026-03-02T11:15:03.000Z</time></trkpt>
<trkpt lat="42.173807" lon="23.375006"><ele>2313</ele><time>2026-03-02T11:15:04.000Z</time></trkpt>
<trkpt lat="42.173809" lon="23.375017"><ele>2311.5</ele><time>2026-03-02T11:15:05.000Z</time></trkpt>
<trkpt lat="42.17381" lon="23.375028"><ele>2311.5</ele><time>2026-03-02T11:15:06.000Z</time></trkpt>
<trkpt lat="42.173813" lon="23.375038"><ele>2311.5</ele><time>2026-03-02T11:15:07.000Z</time></trkpt>
<trkpt lat="42.173815" lon="23.375049"><ele>2311.5</ele><time>2026-03-02T11:15:08.000Z</time></trkpt>
<trkpt lat="42.173817" lon="23.375061"><ele>2311.5</ele><time>2026-03-02T11:15:09.000Z</time></trkpt>
<trkpt lat="42.17382" lon="23.375074"><ele>2310.7</ele><time>2026-03-02T11:15:10.000Z</time></trkpt>
<trkpt lat="42.173821" lon="23.375088"><ele>2310.7</ele><time>2026-03-02T11:15:11.000Z</time></trkpt>
<trkpt lat="42.173822" lon="23.375102"><ele>2310.7</ele><time>2026-03-02T11:15:12.000Z</time></trkpt>
<trkpt lat="42.173822" lon="23.375116"><ele>2310.7</ele><time>2026-03-02T11:15:13.000Z</time></trkpt>
<trkpt lat="42.173822" lon="23.37513"><ele>2310.7</ele><time>2026-03-02T11:15:14.000Z</time></trkpt>
<trkpt lat="42.173822" lon="23.375143"><ele>2309.2</ele><time>2026-03-02T11:15:15.000Z</time></trkpt>
<trkpt lat="42.173822" lon="23.375154"><ele>2309.2</ele><time>2026-03-02T11:15:16.000Z</time></trkpt>
<trkpt lat="42.173823" lon="23.375165"><ele>2309.2</ele><time>2026-03-02T11:15:17.000Z</time></trkpt>
<trkpt lat="42.173824" lon="23.375176"><ele>2309.2</ele><time>2026-03-02T11:15:18.000Z</time></trkpt>
<trkpt lat="42.173824" lon="23.375186"><ele>2309.2</ele><time>2026-03-02T11:15:19.000Z</time></trkpt>
<trkpt lat="42.173824" lon="23.375198"><ele>2307.7</ele><time>2026-03-02T11:15:20.000Z</time></trkpt>
<trkpt lat="42.173823" lon="23.375212"><ele>2307.7</ele><time>2026-03-02T11:15:21.000Z</time></trkpt>
<trkpt lat="42.173822" lon="23.375227"><ele>2307.7</ele><time>2026-03-02T11:15:22.000Z</time></trkpt>
<trkpt lat="42.173822" lon="23.375242"><ele>2307.7</ele><time>2026-03-02T11:15:23.000Z</time></trkpt>
<trkpt lat="42.173823" lon="23.375257"><ele>2307.7</ele><time>2026-03-02T11:15:24.000Z</time></trkpt>
<trkpt lat="42.173825" lon="23.375268"><ele>2306.8</ele><time>2026-03-02T11:15:25.000Z</time></trkpt>
<trkpt lat="42.173828" lon="23.375278"><ele>2306.8</ele><time>2026-03-02T11:15:26.000Z</time></trkpt>
<trkpt lat="42.173832" lon="23.375287"><ele>2306.8</ele><time>2026-03-02T11:15:27.000Z</time></trkpt>
<trkpt lat="42.173836" lon="23.375295"><ele>2306.8</ele><time>2026-03-02T11:15:28.000Z</time></trkpt>
<trkpt lat="42.17384" lon="23.375302"><ele>2306.8</ele><time>2026-03-02T11:15:29.000Z</time></trkpt>
<trkpt lat="42.173844" lon="23.375309"><ele>2305.1</ele><time>2026-03-02T11:15:30.000Z</time></trkpt>
<trkpt lat="42.173847" lon="23.375314"><ele>2305.1</ele><time>2026-03-02T11:15:31.000Z</time></trkpt>
<trkpt lat="42.173849" lon="23.375319"><ele>2305.1</ele><time>2026-03-02T11:15:32.000Z</time></trkpt>
<trkpt lat="42.173852" lon="23.375322"><ele>2305.1</ele><time>2026-03-02T11:15:33.000Z</time></trkpt>
<trkpt lat="42.173856" lon="23.375327"><ele>2305.1</ele><time>2026-03-02T11:15:34.000Z</time></trkpt>
<trkpt lat="42.17386" lon="23.375333"><ele>2303.1</ele><time>2026-03-02T11:15:35.000Z</time></trkpt>
<trkpt lat="42.173865" lon="23.375341"><ele>2303.1</ele><time>2026-03-02T11:15:36.000Z</time></trkpt>
<trkpt lat="42.173869" lon="23.375348"><ele>2303.1</ele><time>2026-03-02T11:15:37.000Z</time></trkpt>
<trkpt lat="42.173872" lon="23.375355"><ele>2303.1</ele><time>2026-03-02T11:15:38.000Z</time></trkpt>
<trkpt lat="42.173872" lon="23.37536"><ele>2303.1</ele><time>2026-03-02T11:15:39.000Z</time></trkpt>
<trkpt lat="42.173873" lon="23.375362"><ele>2302.1</ele><time>2026-03-02T11:15:40.000Z</time></trkpt>
<trkpt lat="42.173873" lon="23.375362"><ele>2302.1</ele><time>2026-03-02T11:15:41.000Z</time></trkpt>
<trkpt lat="42.173874" lon="23.375362"><ele>2302.1</ele><time>2026-03-02T11:15:42.000Z</time></trkpt>
<trkpt lat="42.173875" lon="23.375362"><ele>2302.1</ele><time>2026-03-02T11:15:43.000Z</time></trkpt>
<trkpt lat="42.173876" lon="23.375361"><ele>2302.1</ele><time>2026-03-02T11:15:44.000Z</time></trkpt>
<trkpt lat="42.173879" lon="23.37536"><ele>2300.4</ele><time>2026-03-02T11:15:45.000Z</time></trkpt>
<trkpt lat="42.173884" lon="23.37536"><ele>2300.4</ele><time>2026-03-02T11:15:46.000Z</time></trkpt>
<trkpt lat="42.173889" lon="23.37536"><ele>2300.4</ele><time>2026-03-02T11:15:47.000Z</time></trkpt>
<trkpt lat="42.173894" lon="23.375359"><ele>2300.4</ele><time>2026-03-02T11:15:48.000Z</time></trkpt>
<trkpt lat="42.173901" lon="23.375359"><ele>2300.4</ele><time>2026-03-02T11:15:49.000Z</time></trkpt>
<trkpt lat="42.173907" lon="23.37536"><ele>2299.1</ele><time>2026-03-02T11:15:50.000Z</time></trkpt>
<trkpt lat="42.173912" lon="23.37536"><ele>2299.1</ele><time>2026-03-02T11:15:51.000Z</time></trkpt>
<trkpt lat="42.173916" lon="23.375361"><ele>2299.1</ele><time>2026-03-02T11:15:52.000Z</time></trkpt>
<trkpt lat="42.173922" lon="23.375364"><ele>2299.1</ele><time>2026-03-02T11:15:53.000Z</time></trkpt>
<trkpt lat="42.173927" lon="23.375366"><ele>2299.1</ele><time>2026-03-02T11:15:54.000Z</time></trkpt>
<trkpt lat="42.173932" lon="23.375369"><ele>2298.5</ele><time>2026-03-02T11:15:55.000Z</time></trkpt>
<trkpt lat="42.173939" lon="23.375372"><ele>2298.5</ele><time>2026-03-02T11:15:56.000Z</time></trkpt>
<trkpt lat="42.173946" lon="23.375374"><ele>2298.5</ele><time>2026-03-02T11:15:57.000Z</time></trkpt>
<trkpt lat="42.173953" lon="23.375376"><ele>2298.5</ele><time>2026-03-02T11:15:58.000Z</time></trkpt>
<trkpt lat="42.173961" lon="23.375377"><ele>2298.5</ele><time>2026-03-02T11:15:59.000Z</time></trkpt>
<trkpt lat="42.173968" lon="23.375376"><ele>2297.2</ele><time>2026-03-02T11:16:00.000Z</time></trkpt>
<trkpt lat="42.173974" lon="23.375375"><ele>2297.2</ele><time>2026-03-02T11:16:01.000Z</time></trkpt>
<trkpt lat="42.173981" lon="23.375374"><ele>2297.2</ele><time>2026-03-02T11:16:02.000Z</time></trkpt>
<trkpt lat="42.173987" lon="23.375373"><ele>2297.2</ele><time>2026-03-02T11:16:03.000Z</time></trkpt>
<trkpt lat="42.173994" lon="23.37537"><ele>2297.2</ele><time>2026-03-02T11:16:04.000Z</time></trkpt>
<trkpt lat="42.174" lon="23.375367"><ele>2295.5</ele><time>2026-03-02T11:16:05.000Z</time></trkpt>
<trkpt lat="42.174006" lon="23.375363"><ele>2295.5</ele><time>2026-03-02T11:16:06.000Z</time></trkpt>
<trkpt lat="42.174012" lon="23.37536"><ele>2295.5</ele><time>2026-03-02T11:16:07.000Z</time></trkpt>
<trkpt lat="42.174019" lon="23.375356"><ele>2295.5</ele><time>2026-03-02T11:16:08.000Z</time></trkpt>
<trkpt lat="42.174025" lon="23.375353"><ele>2295.5</ele><time>2026-03-02T11:16:09.000Z</time></trkpt>
<trkpt lat="42.174031" lon="23.37535"><ele>2294.6</ele><time>2026-03-02T11:16:10.000Z</time></trkpt>
<trkpt lat="42.174037" lon="23.375346"><ele>2294.6</ele><time>2026-03-02T11:16:11.000Z</time></trkpt>
<trkpt lat="42.174043" lon="23.375343"><ele>2294.6</ele><time>2026-03-02T11:16:12.000Z</time></trkpt>
<trkpt lat="42.17405" lon="23.37534"><ele>2294.6</ele><time>2026-03-02T11:16:13.000Z</time></trkpt>
<trkpt lat="42.174057" lon="23.375337"><ele>2294.6</ele><time>2026-03-02T11:16:14.000Z</time></trkpt>
<trkpt lat="42.174063" lon="23.375334"><ele>2292.6</ele><time>2026-03-02T11:16:15.000Z</time></trkpt>
<trkpt lat="42.17407" lon="23.375331"><ele>2292.6</ele><time>2026-03-02T11:16:16.000Z</time></trkpt>
<trkpt lat="42.174076" lon="23.37533"><ele>2292.6</ele><time>2026-03-02T11:16:17.000Z</time></trkpt>
<trkpt lat="42.174081" lon="23.375328"><ele>2292.6</ele><time>2026-03-02T11:16:18.000Z</time></trkpt>
<trkpt lat="42.174087" lon="23.375324"><ele>2292.6</ele><time>2026-03-02T11:16:19.000Z</time></trkpt>
<trkpt lat="42.174093" lon="23.37532"><ele>2290.7</ele><time>2026-03-02T11:16:20.000Z</time></trkpt>
<trkpt lat="42.1741" lon="23.375316"><ele>2290.7</ele><time>2026-03-02T11:16:21.000Z</time></trkpt>
<trkpt lat="42.174108" lon="23.37531"><ele>2290.7</ele><time>2026-03-02T11:16:22.000Z</time></trkpt>
<trkpt lat="42.174116" lon="23.375305"><ele>2290.7</ele><time>2026-03-02T11:16:23.000Z</time></trkpt>
<trkpt lat="42.174124" lon="23.375301"><ele>2290.7</ele><time>2026-03-02T11:16:24.000Z</time></trkpt>
<trkpt lat="42.174132" lon="23.375298"><ele>2289.8</ele><time>2026-03-02T11:16:25.000Z</time></trkpt>
<trkpt lat="42.17414" lon="23.375295"><ele>2289.8</ele><time>2026-03-02T11:16:26.000Z</time></trkpt>
<trkpt lat="42.174148" lon="23.375291"><ele>2289.8</ele><time>2026-03-02T11:16:27.000Z</time></trkpt>
<trkpt lat="42.174155" lon="23.375287"><ele>2289.8</ele><time>2026-03-02T11:16:28.000Z</time></trkpt>
<trkpt lat="42.174162" lon="23.375283"><ele>2289.8</ele><time>2026-03-02T11:16:29.000Z</time></trkpt>
<trkpt lat="42.174169" lon="23.375277"><ele>2287.9</ele><time>2026-03-02T11:16:30.000Z</time></trkpt>
<trkpt lat="42.174175" lon="23.375272"><ele>2287.9</ele><time>2026-03-02T11:16:31.000Z</time></trkpt>
<trkpt lat="42.174181" lon="23.375267"><ele>2287.9</ele><time>2026-03-02T11:16:32.000Z</time></trkpt>
<trkpt lat="42.174187" lon="23.375263"><ele>2287.9</ele><time>2026-03-02T11:16:33.000Z</time></trkpt>
<trkpt lat="42.174194" lon="23.375259"><ele>2287.9</ele><time>2026-03-02T11:16:34.000Z</time></trkpt>
<trkpt lat="42.1742" lon="23.375256"><ele>2285.9</ele><time>2026-03-02T11:16:35.000Z</time></trkpt>
<trkpt lat="42.174208" lon="23.375252"><ele>2285.9</ele><time>2026-03-02T11:16:36.000Z</time></trkpt>
<trkpt lat="42.174214" lon="23.375249"><ele>2285.9</ele><time>2026-03-02T11:16:37.000Z</time></trkpt>
<trkpt lat="42.174221" lon="23.375245"><ele>2285.9</ele><time>2026-03-02T11:16:38.000Z</time></trkpt>
<trkpt lat="42.174226" lon="23.375242"><ele>2285.9</ele><time>2026-03-02T11:16:39.000Z</time></trkpt>
<trkpt lat="42.174232" lon="23.375239"><ele>2284.9</ele><time>2026-03-02T11:16:40.000Z</time></trkpt>
<trkpt lat="42.174238" lon="23.375235"><ele>2284.9</ele><time>2026-03-02T11:16:41.000Z</time></trkpt>
<trkpt lat="42.174244" lon="23.375232"><ele>2284.9</ele><time>2026-03-02T11:16:42.000Z</time></trkpt>
<trkpt lat="42.174251" lon="23.375229"><ele>2284.9</ele><time>2026-03-02T11:16:43.000Z</time></trkpt>
<trkpt lat="42.174257" lon="23.375225"><ele>2284.9</ele><time>2026-03-02T11:16:44.000Z</time></trkpt>
<trkpt lat="42.174264" lon="23.375222"><ele>2282.9</ele><time>2026-03-02T11:16:45.000Z</time></trkpt>
<trkpt lat="42.17427" lon="23.375218"><ele>2282.9</ele><time>2026-03-02T11:16:46.000Z</time></trkpt>
<trkpt lat="42.174275" lon="23.375214"><ele>2282.9</ele><time>2026-03-02T11:16:47.000Z</time></trkpt>
<trkpt lat="42.174281" lon="23.375211"><ele>2282.9</ele><time>2026-03-02T11:16:48.000Z</time></trkpt>
<trkpt lat="42.174286" lon="23.375208"><ele>2282.9</ele><time>2026-03-02T11:16:49.000Z</time></trkpt>
<trkpt lat="42.174291" lon="23.375206"><ele>2281</ele><time>2026-03-02T11:16:50.000Z</time></trkpt>
<trkpt lat="42.174295" lon="23.375205"><ele>2281</ele><time>2026-03-02T11:16:51.000Z</time></trkpt>
<trkpt lat="42.1743" lon="23.375203"><ele>2281</ele><time>2026-03-02T11:16:52.000Z</time></trkpt>
<trkpt lat="42.174305" lon="23.375202"><ele>2281</ele><time>2026-03-02T11:16:53.000Z</time></trkpt>
<trkpt lat="42.17431" lon="23.375201"><ele>2281</ele><time>2026-03-02T11:16:54.000Z</time></trkpt>
<trkpt lat="42.174316" lon="23.375199"><ele>2280</ele><time>2026-03-02T11:16:55.000Z</time></trkpt>
<trkpt lat="42.174323" lon="23.375197"><ele>2280</ele><time>2026-03-02T11:16:56.000Z</time></trkpt>
<trkpt lat="42.17433" lon="23.375194"><ele>2280</ele><time>2026-03-02T11:16:57.000Z</time></trkpt>
<trkpt lat="42.174337" lon="23.37519"><ele>2280</ele><time>2026-03-02T11:16:58.000Z</time></trkpt>
<trkpt lat="42.174345" lon="23.375186"><ele>2280</ele><time>2026-03-02T11:16:59.000Z</time></trkpt>
<trkpt lat="42.174353" lon="23.375183"><ele>2278</ele><time>2026-03-02T11:17:00.000Z</time></trkpt>
<trkpt lat="42.174362" lon="23.37518"><ele>2278</ele><time>2026-03-02T11:17:01.000Z</time></trkpt>
<trkpt lat="42.17437" lon="23.375178"><ele>2278</ele><time>2026-03-02T11:17:02.000Z</time></trkpt>
<trkpt lat="42.174378" lon="23.375177"><ele>2278</ele><time>2026-03-02T11:17:03.000Z</time></trkpt>
<trkpt lat="42.174385" lon="23.375176"><ele>2278</ele><time>2026-03-02T11:17:04.000Z</time></trkpt>
<trkpt lat="42.174392" lon="23.375177"><ele>2276</ele><time>2026-03-02T11:17:05.000Z</time></trkpt>
<trkpt lat="42.174396" lon="23.375176"><ele>2276</ele><time>2026-03-02T11:17:06.000Z</time></trkpt>
<trkpt lat="42.174398" lon="23.375175"><ele>2276</ele><time>2026-03-02T11:17:07.000Z</time></trkpt>
<trkpt lat="42.174401" lon="23.375173"><ele>2276</ele><time>2026-03-02T11:17:08.000Z</time></trkpt>
<trkpt lat="42.174403" lon="23.37517"><ele>2276</ele><time>2026-03-02T11:17:09.000Z</time></trkpt>
<trkpt lat="42.174406" lon="23.375168"><ele>2275</ele><time>2026-03-02T11:17:10.000Z</time></trkpt>
<trkpt lat="42.174409" lon="23.375164"><ele>2275</ele><time>2026-03-02T11:17:11.000Z</time></trkpt>
<trkpt lat="42.174415" lon="23.375161"><ele>2275</ele><time>2026-03-02T11:17:12.000Z</time></trkpt>
<trkpt lat="42.174422" lon="23.375158"><ele>2275</ele><time>2026-03-02T11:17:13.000Z</time></trkpt>
<trkpt lat="42.174429" lon="23.375154"><ele>2275</ele><time>2026-03-02T11:17:14.000Z</time></trkpt>
<trkpt lat="42.174437" lon="23.37515"><ele>2273.2</ele><time>2026-03-02T11:17:15.000Z</time></trkpt>
<trkpt lat="42.174445" lon="23.375145"><ele>2273.2</ele><time>2026-03-02T11:17:16.000Z</time></trkpt>
<trkpt lat="42.174453" lon="23.375138"><ele>2273.2</ele><time>2026-03-02T11:17:17.000Z</time></trkpt>
<trkpt lat="42.174461" lon="23.375132"><ele>2273.2</ele><time>2026-03-02T11:17:18.000Z</time></trkpt>
<trkpt lat="42.174469" lon="23.375125"><ele>2273.2</ele><time>2026-03-02T11:17:19.000Z</time></trkpt>
<trkpt lat="42.174476" lon="23.375118"><ele>2271.6</ele><time>2026-03-02T11:17:20.000Z</time></trkpt>
<trkpt lat="42.174483" lon="23.375112"><ele>2271.6</ele><time>2026-03-02T11:17:21.000Z</time></trkpt>
<trkpt lat="42.174491" lon="23.375107"><ele>2271.6</ele><time>2026-03-02T11:17:22.000Z</time></trkpt>
<trkpt lat="42.174498" lon="23.375101"><ele>2271.6</ele><time>2026-03-02T11:17:23.000Z</time></trkpt>
<trkpt lat="42.174506" lon="23.375096"><ele>2271.6</ele><time>2026-03-02T11:17:24.000Z</time></trkpt>
<trkpt lat="42.174514" lon="23.375091"><ele>2270.9</ele><time>2026-03-02T11:17:25.000Z</time></trkpt>
<trkpt lat="42.174523" lon="23.375085"><ele>2270.9</ele><time>2026-03-02T11:17:26.000Z</time></trkpt>
<trkpt lat="42.174532" lon="23.375079"><ele>2270.9</ele><time>2026-03-02T11:17:27.000Z</time></trkpt>
<trkpt lat="42.174541" lon="23.375072"><ele>2270.9</ele><time>2026-03-02T11:17:28.000Z</time></trkpt>
<trkpt lat="42.174551" lon="23.375067"><ele>2270.9</ele><time>2026-03-02T11:17:29.000Z</time></trkpt>
<trkpt lat="42.174561" lon="23.37506"><ele>2269.3</ele><time>2026-03-02T11:17:30.000Z</time></trkpt>
<trkpt lat="42.174572" lon="23.375053"><ele>2269.3</ele><time>2026-03-02T11:17:31.000Z</time></trkpt>
<trkpt lat="42.174582" lon="23.375047"><ele>2269.3</ele><time>2026-03-02T11:17:32.000Z</time></trkpt>
<trkpt lat="42.174592" lon="23.37504"><ele>2269.3</ele><time>2026-03-02T11:17:33.000Z</time></trkpt>
<trkpt lat="42.174602" lon="23.375033"><ele>2269.3</ele><time>2026-03-02T11:17:34.000Z</time></trkpt>
<trkpt lat="42.174611" lon="23.375027"><ele>2267.6</ele><time>2026-03-02T11:17:35.000Z</time></trkpt>
<trkpt lat="42.17462" lon="23.375021"><ele>2267.6</ele><time>2026-03-02T11:17:36.000Z</time></trkpt>
<trkpt lat="42.17463" lon="23.375016"><ele>2267.6</ele><time>2026-03-02T11:17:37.000Z</time></trkpt>
<trkpt lat="42.174639" lon="23.375009"><ele>2267.6</ele><time>2026-03-02T11:17:38.000Z</time></trkpt>
<trkpt lat="42.174649" lon="23.375002"><ele>2267.6</ele><time>2026-03-02T11:17:39.000Z</time></trkpt>
<trkpt lat="42.17466" lon="23.374995"><ele>2266.8</ele><time>2026-03-02T11:17:40.000Z</time></trkpt>
<trkpt lat="42.17467" lon="23.374987"><ele>2266.8</ele><time>2026-03-02T11:17:41.000Z</time></trkpt>
<trkpt lat="42.17468" lon="23.374978"><ele>2266.8</ele><time>2026-03-02T11:17:42.000Z</time></trkpt>
<trkpt lat="42.174691" lon="23.37497"><ele>2266.8</ele><time>2026-03-02T11:17:43.000Z</time></trkpt>
<trkpt lat="42.174703" lon="23.374963"><ele>2266.8</ele><time>2026-03-02T11:17:44.000Z</time></trkpt>
<trkpt lat="42.174715" lon="23.374955"><ele>2265.3</ele><time>2026-03-02T11:17:45.000Z</time></trkpt>
<trkpt lat="42.174727" lon="23.374948"><ele>2265.3</ele><time>2026-03-02T11:17:46.000Z</time></trkpt>
<trkpt lat="42.174739" lon="23.374941"><ele>2265.3</ele><time>2026-03-02T11:17:47.000Z</time></trkpt>
<trkpt lat="42.17475" lon="23.374934"><ele>2265.3</ele><time>2026-03-02T11:17:48.000Z</time></trkpt>
<trkpt lat="42.17476" lon="23.374926"><ele>2265.3</ele><time>2026-03-02T11:17:49.000Z</time></trkpt>
<trkpt lat="42.17477" lon="23.374917"><ele>2263.9</ele><time>2026-03-02T11:17:50.000Z</time></trkpt>
<trkpt lat="42.174779" lon="23.374908"><ele>2263.9</ele><time>2026-03-02T11:17:51.000Z</time></trkpt>
<trkpt lat="42.174789" lon="23.374898"><ele>2263.9</ele><time>2026-03-02T11:17:52.000Z</time></trkpt>
<trkpt lat="42.174797" lon="23.374889"><ele>2263.9</ele><time>2026-03-02T11:17:53.000Z</time></trkpt>
<trkpt lat="42.174804" lon="23.37488"><ele>2263.9</ele><time>2026-03-02T11:17:54.000Z</time></trkpt>
<trkpt lat="42.17481" lon="23.374873"><ele>2263.2</ele><time>2026-03-02T11:17:55.000Z</time></trkpt>
<trkpt lat="42.174814" lon="23.374867"><ele>2263.2</ele><time>2026-03-02T11:17:56.000Z</time></trkpt>
<trkpt lat="42.174818" lon="23.374862"><ele>2263.2</ele><time>2026-03-02T11:17:57.000Z</time></trkpt>
<trkpt lat="42.174823" lon="23.374857"><ele>2263.2</ele><time>2026-03-02T11:17:58.000Z</time></trkpt>
<trkpt lat="42.174829" lon="23.374851"><ele>2263.2</ele><time>2026-03-02T11:17:59.000Z</time></trkpt>
<trkpt lat="42.174837" lon="23.374843"><ele>2262.1</ele><time>2026-03-02T11:18:00.000Z</time></trkpt>
<trkpt lat="42.174849" lon="23.374835"><ele>2262.1</ele><time>2026-03-02T11:18:01.000Z</time></trkpt>
<trkpt lat="42.17486" lon="23.374827"><ele>2262.1</ele><time>2026-03-02T11:18:02.000Z</time></trkpt>
<trkpt lat="42.174872" lon="23.374817"><ele>2262.1</ele><time>2026-03-02T11:18:03.000Z</time></trkpt>
<trkpt lat="42.174883" lon="23.374808"><ele>2262.1</ele><time>2026-03-02T11:18:04.000Z</time></trkpt>
<trkpt lat="42.174895" lon="23.374798"><ele>2261.1</ele><time>2026-03-02T11:18:05.000Z</time></trkpt>
<trkpt lat="42.174905" lon="23.374788"><ele>2261.1</ele><time>2026-03-02T11:18:06.000Z</time></trkpt>
<trkpt lat="42.174916" lon="23.374777"><ele>2261.1</ele><time>2026-03-02T11:18:07.000Z</time></trkpt>
<trkpt lat="42.174927" lon="23.374767"><ele>2261.1</ele><time>2026-03-02T11:18:08.000Z</time></trkpt>
<trkpt lat="42.174938" lon="23.374756"><ele>2261.1</ele><time>2026-03-02T11:18:09.000Z</time></trkpt>
<trkpt lat="42.17495" lon="23.374746"><ele>2260.6</ele><time>2026-03-02T11:18:10.000Z</time></trkpt>
<trkpt lat="42.174962" lon="23.374736"><ele>2260.6</ele><time>2026-03-02T11:18:11.000Z</time></trkpt>
<trkpt lat="42.174974" lon="23.374727"><ele>2260.6</ele><time>2026-03-02T11:18:12.000Z</time></trkpt>
<trkpt lat="42.174985" lon="23.374716"><ele>2260.6</ele><time>2026-03-02T11:18:13.000Z</time></trkpt>
<trkpt lat="42.174995" lon="23.374706"><ele>2260.6</ele><time>2026-03-02T11:18:14.000Z</time></trkpt>
<trkpt lat="42.175004" lon="23.374696"><ele>2259.6</ele><time>2026-03-02T11:18:15.000Z</time></trkpt>
<trkpt lat="42.175014" lon="23.374685"><ele>2259.6</ele><time>2026-03-02T11:18:16.000Z</time></trkpt>
<trkpt lat="42.175023" lon="23.374676"><ele>2259.6</ele><time>2026-03-02T11:18:17.000Z</time></trkpt>
<trkpt lat="42.175034" lon="23.374667"><ele>2259.6</ele><time>2026-03-02T11:18:18.000Z</time></trkpt>
<trkpt lat="42.175044" lon="23.374658"><ele>2259.6</ele><time>2026-03-02T11:18:19.000Z</time></trkpt>
<trkpt lat="42.175055" lon="23.374649"><ele>2258.5</ele><time>2026-03-02T11:18:20.000Z</time></trkpt>
<trkpt lat="42.175068" lon="23.374642"><ele>2258.5</ele><time>2026-03-02T11:18:21.000Z</time></trkpt>
<trkpt lat="42.17508" lon="23.374635"><ele>2258.5</ele><time>2026-03-02T11:18:22.000Z</time></trkpt>
<trkpt lat="42.175092" lon="23.374629"><ele>2258.5</ele><time>2026-03-02T11:18:23.000Z</time></trkpt>
<trkpt lat="42.175105" lon="23.374624"><ele>2258.5</ele><time>2026-03-02T11:18:24.000Z</time></trkpt>
<trkpt lat="42.175117" lon="23.374619"><ele>2257.9</ele><time>2026-03-02T11:18:25.000Z</time></trkpt>
<trkpt lat="42.17513" lon="23.374613"><ele>2257.9</ele><time>2026-03-02T11:18:26.000Z</time></trkpt>
<trkpt lat="42.175142" lon="23.374607"><ele>2257.9</ele><time>2026-03-02T11:18:27.000Z</time></trkpt>
<trkpt lat="42.175155" lon="23.374601"><ele>2257.9</ele><time>2026-03-02T11:18:28.000Z</time></trkpt>
<trkpt lat="42.175168" lon="23.374595"><ele>2257.9</ele><time>2026-03-02T11:18:29.000Z</time></trkpt>
<trkpt lat="42.175182" lon="23.374589"><ele>2256.9</ele><time>2026-03-02T11:18:30.000Z</time></trkpt>
<trkpt lat="42.175195" lon="23.374583"><ele>2256.9</ele><time>2026-03-02T11:18:31.000Z</time></trkpt>
<trkpt lat="42.175208" lon="23.374578"><ele>2256.9</ele><time>2026-03-02T11:18:32.000Z</time></trkpt>
<trkpt lat="42.175221" lon="23.374573"><ele>2256.9</ele><time>2026-03-02T11:18:33.000Z</time></trkpt>
<trkpt lat="42.175235" lon="23.374569"><ele>2256.9</ele><time>2026-03-02T11:18:34.000Z</time></trkpt>
<trkpt lat="42.175249" lon="23.374565"><ele>2255.9</ele><time>2026-03-02T11:18:35.000Z</time></trkpt>
<trkpt lat="42.175263" lon="23.374562"><ele>2255.9</ele><time>2026-03-02T11:18:36.000Z</time></trkpt>
<trkpt lat="42.175277" lon="23.374558"><ele>2255.9</ele><time>2026-03-02T11:18:37.000Z</time></trkpt>
<trkpt lat="42.17529" lon="23.374555"><ele>2255.9</ele><time>2026-03-02T11:18:38.000Z</time></trkpt>
<trkpt lat="42.175302" lon="23.374551"><ele>2255.9</ele><time>2026-03-02T11:18:39.000Z</time></trkpt>
<trkpt lat="42.175313" lon="23.374546"><ele>2255.5</ele><time>2026-03-02T11:18:40.000Z</time></trkpt>
<trkpt lat="42.175324" lon="23.374541"><ele>2255.5</ele><time>2026-03-02T11:18:41.000Z</time></trkpt>
<trkpt lat="42.175335" lon="23.374534"><ele>2255.5</ele><time>2026-03-02T11:18:42.000Z</time></trkpt>
<trkpt lat="42.175346" lon="23.374527"><ele>2255.5</ele><time>2026-03-02T11:18:43.000Z</time></trkpt>
<trkpt lat="42.175358" lon="23.374518"><ele>2255.5</ele><time>2026-03-02T11:18:44.000Z</time></trkpt>
<trkpt lat="42.175369" lon="23.374509"><ele>2254.9</ele><time>2026-03-02T11:18:45.000Z</time></trkpt>
<trkpt lat="42.17538" lon="23.374501"><ele>2254.9</ele><time>2026-03-02T11:18:46.000Z</time></trkpt>
<trkpt lat="42.175392" lon="23.374495"><ele>2254.9</ele><time>2026-03-02T11:18:47.000Z</time></trkpt>
<trkpt lat="42.175404" lon="23.374488"><ele>2254.9</ele><time>2026-03-02T11:18:48.000Z</time></trkpt>
<trkpt lat="42.175414" lon="23.374482"><ele>2254.9</ele><time>2026-03-02T11:18:49.000Z</time></trkpt>
<trkpt lat="42.175425" lon="23.374476"><ele>2254.3</ele><time>2026-03-02T11:18:50.000Z</time></trkpt>
<trkpt lat="42.175436" lon="23.374469"><ele>2254.3</ele><time>2026-03-02T11:18:51.000Z</time></trkpt>
<trkpt lat="42.175446" lon="23.374463"><ele>2254.3</ele><time>2026-03-02T11:18:52.000Z</time></trkpt>
<trkpt lat="42.175453" lon="23.374459"><ele>2254.3</ele><time>2026-03-02T11:18:53.000Z</time></trkpt>
<trkpt lat="42.175458" lon="23.374457"><ele>2254.3</ele><time>2026-03-02T11:18:54.000Z</time></trkpt>
<trkpt lat="42.175462" lon="23.374457"><ele>2254.1</ele><time>2026-03-02T11:18:55.000Z</time></trkpt>
<trkpt lat="42.175463" lon="23.374457"><ele>2254.1</ele><time>2026-03-02T11:18:56.000Z</time></trkpt>
<trkpt lat="42.175463" lon="23.374459"><ele>2254.1</ele><time>2026-03-02T11:18:57.000Z</time></trkpt>
<trkpt lat="42.175464" lon="23.37446"><ele>2254.1</ele><time>2026-03-02T11:18:58.000Z</time></trkpt>
<trkpt lat="42.175464" lon="23.37446"><ele>2254.1</ele><time>2026-03-02T11:18:59.000Z</time></trkpt>
<trkpt lat="42.175466" lon="23.37446"><ele>2254</ele><time>2026-03-02T11:19:00.000Z</time></trkpt>
<trkpt lat="42.175469" lon="23.374458"><ele>2254</ele><time>2026-03-02T11:19:01.000Z</time></trkpt>
<trkpt lat="42.175473" lon="23.374457"><ele>2254</ele><time>2026-03-02T11:19:02.000Z</time></trkpt>
<trkpt lat="42.175477" lon="23.374456"><ele>2254</ele><time>2026-03-02T11:19:03.000Z</time></trkpt>
<trkpt lat="42.175481" lon="23.374455"><ele>2254</ele><time>2026-03-02T11:19:04.000Z</time></trkpt>
<trkpt lat="42.175484" lon="23.374454"><ele>2254.1</ele><time>2026-03-02T11:19:05.000Z</time></trkpt>
<trkpt lat="42.175486" lon="23.374453"><ele>2254.1</ele><time>2026-03-02T11:19:06.000Z</time></trkpt>
<trkpt lat="42.175488" lon="23.374451"><ele>2254.1</ele><time>2026-03-02T11:19:07.000Z</time></trkpt>
<trkpt lat="42.175492" lon="23.374447"><ele>2254.1</ele><time>2026-03-02T11:19:08.000Z</time></trkpt>
<trkpt lat="42.175497" lon="23.374442"><ele>2254.1</ele><time>2026-03-02T11:19:09.000Z</time></trkpt>
<trkpt lat="42.175505" lon="23.374436"><ele>2254.1</ele><time>2026-03-02T11:19:10.000Z</time></trkpt>
<trkpt lat="42.175513" lon="23.374429"><ele>2254.1</ele><time>2026-03-02T11:19:11.000Z</time></trkpt>
<trkpt lat="42.175522" lon="23.374421"><ele>2254.1</ele><time>2026-03-02T11:19:12.000Z</time></trkpt>
<trkpt lat="42.175532" lon="23.374414"><ele>2254.1</ele><time>2026-03-02T11:19:13.000Z</time></trkpt>
<trkpt lat="42.175543" lon="23.374407"><ele>2254.1</ele><time>2026-03-02T11:19:14.000Z</time></trkpt>
<trkpt lat="42.175555" lon="23.3744"><ele>2254.1</ele><time>2026-03-02T11:19:15.000Z</time></trkpt>
<trkpt lat="42.175567" lon="23.374393"><ele>2254.1</ele><time>2026-03-02T11:19:16.000Z</time></trkpt>
<trkpt lat="42.175579" lon="23.374387"><ele>2254.1</ele><time>2026-03-02T11:19:17.000Z</time></trkpt>
<trkpt lat="42.175591" lon="23.374382"><ele>2254.1</ele><time>2026-03-02T11:19:18.000Z</time></trkpt>
<trkpt lat="42.175602" lon="23.374378"><ele>2254.1</ele><time>2026-03-02T11:19:19.000Z</time></trkpt>
<trkpt lat="42.175613" lon="23.374375"><ele>2254.2</ele><time>2026-03-02T11:19:20.000Z</time></trkpt>
<trkpt lat="42.175623" lon="23.374371"><ele>2254.2</ele><time>2026-03-02T11:19:21.000Z</time></trkpt>
<trkpt lat="42.175634" lon="23.374368"><ele>2254.2</ele><time>2026-03-02T11:19:22.000Z</time></trkpt>
<trkpt lat="42.175644" lon="23.374364"><ele>2254.2</ele><time>2026-03-02T11:19:23.000Z</time></trkpt>
<trkpt lat="42.175655" lon="23.37436"><ele>2254.2</ele><time>2026-03-02T11:19:24.000Z</time></trkpt>
<trkpt lat="42.175667" lon="23.374356"><ele>2254.3</ele><time>2026-03-02T11:19:25.000Z</time></trkpt>
<trkpt lat="42.175679" lon="23.374351"><ele>2254.3</ele><time>2026-03-02T11:19:26.000Z</time></trkpt>
<trkpt lat="42.17569" lon="23.374347"><ele>2254.3</ele><time>2026-03-02T11:19:27.000Z</time></trkpt>
<trkpt lat="42.175701" lon="23.374342"><ele>2254.3</ele><time>2026-03-02T11:19:28.000Z</time></trkpt>
<trkpt lat="42.175712" lon="23.374337"><ele>2254.3</ele><time>2026-03-02T11:19:29.000Z</time></trkpt>
<trkpt lat="42.175723" lon="23.374331"><ele>2254.2</ele><time>2026-03-02T11:19:30.000Z</time></trkpt>
<trkpt lat="42.175735" lon="23.374326"><ele>2254.2</ele><time>2026-03-02T11:19:31.000Z</time></trkpt>
<trkpt lat="42.175748" lon="23.374321"><ele>2254.2</ele><time>2026-03-02T11:19:32.000Z</time></trkpt>
<trkpt lat="42.17576" lon="23.374317"><ele>2254.2</ele><time>2026-03-02T11:19:33.000Z</time></trkpt>
<trkpt lat="42.175774" lon="23.374313"><ele>2254.2</ele><time>2026-03-02T11:19:34.000Z</time></trkpt>
<trkpt lat="42.175787" lon="23.37431"><ele>2254</ele><time>2026-03-02T11:19:35.000Z</time></trkpt>
<trkpt lat="42.1758" lon="23.374307"><ele>2254</ele><time>2026-03-02T11:19:36.000Z</time></trkpt>
<trkpt lat="42.175813" lon="23.374305"><ele>2254</ele><time>2026-03-02T11:19:37.000Z</time></trkpt>
<trkpt lat="42.175826" lon="23.374303"><ele>2254</ele><time>2026-03-02T11:19:38.000Z</time></trkpt>
<trkpt lat="42.175839" lon="23.374301"><ele>2254</ele><time>2026-03-02T11:19:39.000Z</time></trkpt>
<trkpt lat="42.175852" lon="23.374299"><ele>2253.8</ele><time>2026-03-02T11:19:40.000Z</time></trkpt>
<trkpt lat="42.175865" lon="23.374298"><ele>2253.8</ele><time>2026-03-02T11:19:41.000Z</time></trkpt>
<trkpt lat="42.175879" lon="23.374296"><ele>2253.8</ele><time>2026-03-02T11:19:42.000Z</time></trkpt>
<trkpt lat="42.175893" lon="23.374295"><ele>2253.8</ele><time>2026-03-02T11:19:43.000Z</time></trkpt>
<trkpt lat="42.175906" lon="23.374294"><ele>2253.8</ele><time>2026-03-02T11:19:44.000Z</time></trkpt>
<trkpt lat="42.17592" lon="23.374292"><ele>2253.4</ele><time>2026-03-02T11:19:45.000Z</time></trkpt>
<trkpt lat="42.175933" lon="23.374291"><ele>2253.4</ele><time>2026-03-02T11:19:46.000Z</time></trkpt>
<trkpt lat="42.175946" lon="23.374291"><ele>2253.4</ele><time>2026-03-02T11:19:47.000Z</time></trkpt>
<trkpt lat="42.175959" lon="23.37429"><ele>2253.4</ele><time>2026-03-02T11:19:48.000Z</time></trkpt>
<trkpt lat="42.175972" lon="23.374289"><ele>2253.4</ele><time>2026-03-02T11:19:49.000Z</time></trkpt>
<trkpt lat="42.175986" lon="23.374287"><ele>2252.7</ele><time>2026-03-02T11:19:50.000Z</time></trkpt>
<trkpt lat="42.176001" lon="23.374285"><ele>2252.7</ele><time>2026-03-02T11:19:51.000Z</time></trkpt>
<trkpt lat="42.176016" lon="23.374282"><ele>2252.7</ele><time>2026-03-02T11:19:52.000Z</time></trkpt>
<trkpt lat="42.17603" lon="23.374277"><ele>2252.7</ele><time>2026-03-02T11:19:53.000Z</time></trkpt>
<trkpt lat="42.176044" lon="23.374273"><ele>2252.7</ele><time>2026-03-02T11:19:54.000Z</time></trkpt>
<trkpt lat="42.176058" lon="23.374268"><ele>2252.1</ele><time>2026-03-02T11:19:55.000Z</time></trkpt>
<trkpt lat="42.176071" lon="23.374263"><ele>2252.1</ele><time>2026-03-02T11:19:56.000Z</time></trkpt>
<trkpt lat="42.176084" lon="23.374259"><ele>2252.1</ele><time>2026-03-02T11:19:57.000Z</time></trkpt>
<trkpt lat="42.176098" lon="23.374254"><ele>2252.1</ele><time>2026-03-02T11:19:58.000Z</time></trkpt>
<trkpt lat="42.176112" lon="23.374249"><ele>2252.1</ele><time>2026-03-02T11:19:59.000Z</time></trkpt>
<trkpt lat="42.176127" lon="23.374244"><ele>2251</ele><time>2026-03-02T11:20:00.000Z</time></trkpt>
<trkpt lat="42.176142" lon="23.37424"><ele>2251</ele><time>2026-03-02T11:20:01.000Z</time></trkpt>
<trkpt lat="42.176156" lon="23.374234"><ele>2251</ele><time>2026-03-02T11:20:02.000Z</time></trkpt>
<trkpt lat="42.17617" lon="23.374228"><ele>2251</ele><time>2026-03-02T11:20:03.000Z</time></trkpt>
<trkpt lat="42.176185" lon="23.374222"><ele>2251</ele><time>2026-03-02T11:20:04.000Z</time></trkpt>
<trkpt lat="42.176199" lon="23.374217"><ele>2250</ele><time>2026-03-02T11:20:05.000Z</time></trkpt>
<trkpt lat="42.176213" lon="23.374212"><ele>2250</ele><time>2026-03-02T11:20:06.000Z</time></trkpt>
<trkpt lat="42.176227" lon="23.374208"><ele>2250</ele><time>2026-03-02T11:20:07.000Z</time></trkpt>
<trkpt lat="42.176241" lon="23.374204"><ele>2250</ele><time>2026-03-02T11:20:08.000Z</time></trkpt>
<trkpt lat="42.176255" lon="23.3742"><ele>2250</ele><time>2026-03-02T11:20:09.000Z</time></trkpt>
<trkpt lat="42.176269" lon="23.374195"><ele>2249.5</ele><time>2026-03-02T11:20:10.000Z</time></trkpt>
<trkpt lat="42.176283" lon="23.374191"><ele>2249.5</ele><time>2026-03-02T11:20:11.000Z</time></trkpt>
<trkpt lat="42.176297" lon="23.374185"><ele>2249.5</ele><time>2026-03-02T11:20:12.000Z</time></trkpt>
<trkpt lat="42.17631" lon="23.374179"><ele>2249.5</ele><time>2026-03-02T11:20:13.000Z</time></trkpt>
<trkpt lat="42.176323" lon="23.374171"><ele>2249.5</ele><time>2026-03-02T11:20:14.000Z</time></trkpt>
<trkpt lat="42.176336" lon="23.374164"><ele>2248.7</ele><time>2026-03-02T11:20:15.000Z</time></trkpt>
<trkpt lat="42.176348" lon="23.374155"><ele>2248.7</ele><time>2026-03-02T11:20:16.000Z</time></trkpt>
<trkpt lat="42.176361" lon="23.374147"><ele>2248.7</ele><time>2026-03-02T11:20:17.000Z</time></trkpt>
<trkpt lat="42.176373" lon="23.374139"><ele>2248.7</ele><time>2026-03-02T11:20:18.000Z</time></trkpt>
<trkpt lat="42.176383" lon="23.374132"><ele>2248.7</ele><time>2026-03-02T11:20:19.000Z</time></trkpt>
<trkpt lat="42.176393" lon="23.374126"><ele>2247.9</ele><time>2026-03-02T11:20:20.000Z</time></trkpt>
<trkpt lat="42.176403" lon="23.37412"><ele>2247.9</ele><time>2026-03-02T11:20:21.000Z</time></trkpt>
<trkpt lat="42.176412" lon="23.374113"><ele>2247.9</ele><time>2026-03-02T11:20:22.000Z</time></trkpt>
<trkpt lat="42.176422" lon="23.374107"><ele>2247.9</ele><time>2026-03-02T11:20:23.000Z</time></trkpt>
<trkpt lat="42.176432" lon="23.3741"><ele>2247.9</ele><time>2026-03-02T11:20:24.000Z</time></trkpt>
<trkpt lat="42.176443" lon="23.374094"><ele>2247.4</ele><time>2026-03-02T11:20:25.000Z</time></trkpt>
<trkpt lat="42.176455" lon="23.374088"><ele>2247.4</ele><time>2026-03-02T11:20:26.000Z</time></trkpt>
<trkpt lat="42.176467" lon="23.374082"><ele>2247.4</ele><time>2026-03-02T11:20:27.000Z</time></trkpt>
<trkpt lat="42.17648" lon="23.374078"><ele>2247.4</ele><time>2026-03-02T11:20:28.000Z</time></trkpt>
<trkpt lat="42.176494" lon="23.374074"><ele>2247.4</ele><time>2026-03-02T11:20:29.000Z</time></trkpt>
<trkpt lat="42.176507" lon="23.37407"><ele>2246.7</ele><time>2026-03-02T11:20:30.000Z</time></trkpt>
<trkpt lat="42.17652" lon="23.374067"><ele>2246.7</ele><time>2026-03-02T11:20:31.000Z</time></trkpt>
<trkpt lat="42.176533" lon="23.374063"><ele>2246.7</ele><time>2026-03-02T11:20:32.000Z</time></trkpt>
<trkpt lat="42.176546" lon="23.374059"><ele>2246.7</ele><time>2026-03-02T11:20:33.000Z</time></trkpt>
<trkpt lat="42.176559" lon="23.374054"><ele>2246.7</ele><time>2026-03-02T11:20:34.000Z</time></trkpt>
<trkpt lat="42.176573" lon="23.374049"><ele>2246.1</ele><time>2026-03-02T11:20:35.000Z</time></trkpt>
<trkpt lat="42.176586" lon="23.374045"><ele>2246.1</ele><time>2026-03-02T11:20:36.000Z</time></trkpt>
<trkpt lat="42.1766" lon="23.37404"><ele>2246.1</ele><time>2026-03-02T11:20:37.000Z</time></trkpt>
<trkpt lat="42.176613" lon="23.374036"><ele>2246.1</ele><time>2026-03-02T11:20:38.000Z</time></trkpt>
<trkpt lat="42.176627" lon="23.374032"><ele>2246.1</ele><time>2026-03-02T11:20:39.000Z</time></trkpt>
<trkpt lat="42.176641" lon="23.374027"><ele>2245.9</ele><time>2026-03-02T11:20:40.000Z</time></trkpt>
<trkpt lat="42.176655" lon="23.37402"><ele>2245.9</ele><time>2026-03-02T11:20:41.000Z</time></trkpt>
<trkpt lat="42.176669" lon="23.374013"><ele>2245.9</ele><time>2026-03-02T11:20:42.000Z</time></trkpt>
<trkpt lat="42.176682" lon="23.374007"><ele>2245.9</ele><time>2026-03-02T11:20:43.000Z</time></trkpt>
<trkpt lat="42.176696" lon="23.374"><ele>2245.9</ele><time>2026-03-02T11:20:44.000Z</time></trkpt>
<trkpt lat="42.176709" lon="23.373995"><ele>2245.5</ele><time>2026-03-02T11:20:45.000Z</time></trkpt>
<trkpt lat="42.176722" lon="23.373992"><ele>2245.5</ele><time>2026-03-02T11:20:46.000Z</time></trkpt>
<trkpt lat="42.176736" lon="23.373989"><ele>2245.5</ele><time>2026-03-02T11:20:47.000Z</time></trkpt>
<trkpt lat="42.17675" lon="23.373986"><ele>2245.5</ele><time>2026-03-02T11:20:48.000Z</time></trkpt>
<trkpt lat="42.176763" lon="23.373983"><ele>2245.5</ele><time>2026-03-02T11:20:49.000Z</time></trkpt>
<trkpt lat="42.176777" lon="23.37398"><ele>2245.4</ele><time>2026-03-02T11:20:50.000Z</time></trkpt>
<trkpt lat="42.176791" lon="23.373977"><ele>2245.4</ele><time>2026-03-02T11:20:51.000Z</time></trkpt>
<trkpt lat="42.176804" lon="23.373974"><ele>2245.4</ele><time>2026-03-02T11:20:52.000Z</time></trkpt>
<trkpt lat="42.176817" lon="23.373972"><ele>2245.4</ele><time>2026-03-02T11:20:53.000Z</time></trkpt>
<trkpt lat="42.176831" lon="23.373969"><ele>2245.4</ele><time>2026-03-02T11:20:54.000Z</time></trkpt>
<trkpt lat="42.176844" lon="23.373964"><ele>2245.3</ele><time>2026-03-02T11:20:55.000Z</time></trkpt>
<trkpt lat="42.176857" lon="23.373959"><ele>2245.3</ele><time>2026-03-02T11:20:56.000Z</time></trkpt>
<trkpt lat="42.176871" lon="23.373953"><ele>2245.3</ele><time>2026-03-02T11:20:57.000Z</time></trkpt>
<trkpt lat="42.176884" lon="23.373947"><ele>2245.3</ele><time>2026-03-02T11:20:58.000Z</time></trkpt>
<trkpt lat="42.176897" lon="23.373942"><ele>2245.3</ele><time>2026-03-02T11:20:59.000Z</time></trkpt>
<trkpt lat="42.176909" lon="23.373937"><ele>2245</ele><time>2026-03-02T11:21:00.000Z</time></trkpt>
<trkpt lat="42.176921" lon="23.373932"><ele>2245</ele><time>2026-03-02T11:21:01.000Z</time></trkpt>
<trkpt lat="42.176933" lon="23.373929"><ele>2245</ele><time>2026-03-02T11:21:02.000Z</time></trkpt>
<trkpt lat="42.176946" lon="23.373926"><ele>2245</ele><time>2026-03-02T11:21:03.000Z</time></trkpt>
<trkpt lat="42.176959" lon="23.373923"><ele>2245</ele><time>2026-03-02T11:21:04.000Z</time></trkpt>
<trkpt lat="42.176972" lon="23.37392"><ele>2244.6</ele><time>2026-03-02T11:21:05.000Z</time></trkpt>
<trkpt lat="42.176985" lon="23.373918"><ele>2244.6</ele><time>2026-03-02T11:21:06.000Z</time></trkpt>
<trkpt lat="42.176998" lon="23.373916"><ele>2244.6</ele><time>2026-03-02T11:21:07.000Z</time></trkpt>
<trkpt lat="42.177011" lon="23.373913"><ele>2244.6</ele><time>2026-03-02T11:21:08.000Z</time></trkpt>
<trkpt lat="42.177024" lon="23.37391"><ele>2244.6</ele><time>2026-03-02T11:21:09.000Z</time></trkpt>
<trkpt lat="42.177037" lon="23.373907"><ele>2244.4</ele><time>2026-03-02T11:21:10.000Z</time></trkpt>
<trkpt lat="42.177051" lon="23.373903"><ele>2244.4</ele><time>2026-03-02T11:21:11.000Z</time></trkpt>
<trkpt lat="42.177064" lon="23.373898"><ele>2244.4</ele><time>2026-03-02T11:21:12.000Z</time></trkpt>
<trkpt lat="42.177077" lon="23.373893"><ele>2244.4</ele><time>2026-03-02T11:21:13.000Z</time></trkpt>
<trkpt lat="42.177089" lon="23.373888"><ele>2244.4</ele><time>2026-03-02T11:21:14.000Z</time></trkpt>
<trkpt lat="42.177102" lon="23.373883"><ele>2244.3</ele><time>2026-03-02T11:21:15.000Z</time></trkpt>
<trkpt lat="42.177115" lon="23.373878"><ele>2244.3</ele><time>2026-03-02T11:21:16.000Z</time></trkpt>
<trkpt lat="42.177128" lon="23.373873"><ele>2244.3</ele><time>2026-03-02T11:21:17.000Z</time></trkpt>
<trkpt lat="42.177141" lon="23.373868"><ele>2244.3</ele><time>2026-03-02T11:21:18.000Z</time></trkpt>
<trkpt lat="42.177153" lon="23.373863"><ele>2244.3</ele><time>2026-03-02T11:21:19.000Z</time></trkpt>
<trkpt lat="42.177166" lon="23.373858"><ele>2244.3</ele><time>2026-03-02T11:21:20.000Z</time></trkpt>
<trkpt lat="42.177179" lon="23.373854"><ele>2244.3</ele><time>2026-03-02T11:21:21.000Z</time></trkpt>
<trkpt lat="42.177191" lon="23.373851"><ele>2244.3</ele><time>2026-03-02T11:21:22.000Z</time></trkpt>
<trkpt lat="42.177204" lon="23.373847"><ele>2244.3</ele><time>2026-03-02T11:21:23.000Z</time></trkpt>
<trkpt lat="42.177218" lon="23.373845"><ele>2244.3</ele><time>2026-03-02T11:21:24.000Z</time></trkpt>
<trkpt lat="42.177231" lon="23.373843"><ele>2244.1</ele><time>2026-03-02T11:21:25.000Z</time></trkpt>
<trkpt lat="42.177243" lon="23.37384"><ele>2244.1</ele><time>2026-03-02T11:21:26.000Z</time></trkpt>
<trkpt lat="42.177256" lon="23.373837"><ele>2244.1</ele><time>2026-03-02T11:21:27.000Z</time></trkpt>
<trkpt lat="42.177268" lon="23.373834"><ele>2244.1</ele><time>2026-03-02T11:21:28.000Z</time></trkpt>
<trkpt lat="42.17728" lon="23.37383"><ele>2244.1</ele><time>2026-03-02T11:21:29.000Z</time></trkpt>
<trkpt lat="42.177293" lon="23.373825"><ele>2243.8</ele><time>2026-03-02T11:21:30.000Z</time></trkpt>
<trkpt lat="42.177306" lon="23.373819"><ele>2243.8</ele><time>2026-03-02T11:21:31.000Z</time></trkpt>
<trkpt lat="42.177319" lon="23.373813"><ele>2243.8</ele><time>2026-03-02T11:21:32.000Z</time></trkpt>
<trkpt lat="42.177331" lon="23.373808"><ele>2243.8</ele><time>2026-03-02T11:21:33.000Z</time></trkpt>
<trkpt lat="42.177343" lon="23.373802"><ele>2243.8</ele><time>2026-03-02T11:21:34.000Z</time></trkpt>
<trkpt lat="42.177354" lon="23.373797"><ele>2243.5</ele><time>2026-03-02T11:21:35.000Z</time></trkpt>
<trkpt lat="42.177366" lon="23.373792"><ele>2243.5</ele><time>2026-03-02T11:21:36.000Z</time></trkpt>
<trkpt lat="42.177377" lon="23.373789"><ele>2243.5</ele><time>2026-03-02T11:21:37.000Z</time></trkpt>
<trkpt lat="42.177388" lon="23.373786"><ele>2243.5</ele><time>2026-03-02T11:21:38.000Z</time></trkpt>
<trkpt lat="42.177399" lon="23.373784"><ele>2243.5</ele><time>2026-03-02T11:21:39.000Z</time></trkpt>
<trkpt lat="42.177409" lon="23.373782"><ele>2243.4</ele><time>2026-03-02T11:21:40.000Z</time></trkpt>
<trkpt lat="42.17742" lon="23.373781"><ele>2243.4</ele><time>2026-03-02T11:21:41.000Z</time></trkpt>
<trkpt lat="42.177432" lon="23.373779"><ele>2243.4</ele><time>2026-03-02T11:21:42.000Z</time></trkpt>
<trkpt lat="42.177446" lon="23.373777"><ele>2243.4</ele><time>2026-03-02T11:21:43.000Z</time></trkpt>
<trkpt lat="42.17746" lon="23.373774"><ele>2243.4</ele><time>2026-03-02T11:21:44.000Z</time></trkpt>
<trkpt lat="42.177474" lon="23.37377"><ele>2243.3</ele><time>2026-03-02T11:21:45.000Z</time></trkpt>
<trkpt lat="42.177488" lon="23.373766"><ele>2243.3</ele><time>2026-03-02T11:21:46.000Z</time></trkpt>
<trkpt lat="42.177501" lon="23.373761"><ele>2243.3</ele><time>2026-03-02T11:21:47.000Z</time></trkpt>
<trkpt lat="42.177515" lon="23.373756"><ele>2243.3</ele><time>2026-03-02T11:21:48.000Z</time></trkpt>
<trkpt lat="42.177529" lon="23.37375"><ele>2243.3</ele><time>2026-03-02T11:21:49.000Z</time></trkpt>
<trkpt lat="42.177544" lon="23.373744"><ele>2243.3</ele><time>2026-03-02T11:21:50.000Z</time></trkpt>
<trkpt lat="42.177558" lon="23.373737"><ele>2243.3</ele><time>2026-03-02T11:21:51.000Z</time></trkpt>
<trkpt lat="42.177572" lon="23.373731"><ele>2243.3</ele><time>2026-03-02T11:21:52.000Z</time></trkpt>
<trkpt lat="42.177585" lon="23.373725"><ele>2243.3</ele><time>2026-03-02T11:21:53.000Z</time></trkpt>
<trkpt lat="42.177598" lon="23.373719"><ele>2243.3</ele><time>2026-03-02T11:21:54.000Z</time></trkpt>
<trkpt lat="42.17761" lon="23.373712"><ele>2243.3</ele><time>2026-03-02T11:21:55.000Z</time></trkpt>
<trkpt lat="42.177624" lon="23.373704"><ele>2243.3</ele><time>2026-03-02T11:21:56.000Z</time></trkpt>
<trkpt lat="42.177637" lon="23.373696"><ele>2243.3</ele><time>2026-03-02T11:21:57.000Z</time></trkpt>
<trkpt lat="42.177649" lon="23.373689"><ele>2243.3</ele><time>2026-03-02T11:21:58.000Z</time></trkpt>
<trkpt lat="42.17766" lon="23.373681"><ele>2243.3</ele><time>2026-03-02T11:21:59.000Z</time></trkpt>
<trkpt lat="42.177671" lon="23.373674"><ele>2243.1</ele><time>2026-03-02T11:22:00.000Z</time></trkpt>
<trkpt lat="42.177682" lon="23.373667"><ele>2243.1</ele><time>2026-03-02T11:22:01.000Z</time></trkpt>
<trkpt lat="42.177692" lon="23.37366"><ele>2243.1</ele><time>2026-03-02T11:22:02.000Z</time></trkpt>
<trkpt lat="42.177704" lon="23.373652"><ele>2243.1</ele><time>2026-03-02T11:22:03.000Z</time></trkpt>
<trkpt lat="42.177716" lon="23.373646"><ele>2243.1</ele><time>2026-03-02T11:22:04.000Z</time></trkpt>
<trkpt lat="42.177727" lon="23.373638"><ele>2243.1</ele><time>2026-03-02T11:22:05.000Z</time></trkpt>
<trkpt lat="42.177738" lon="23.373631"><ele>2243.1</ele><time>2026-03-02T11:22:06.000Z</time></trkpt>
<trkpt lat="42.17775" lon="23.373625"><ele>2243.1</ele><time>2026-03-02T11:22:07.000Z</time></trkpt>
<trkpt lat="42.177762" lon="23.373617"><ele>2243.1</ele><time>2026-03-02T11:22:08.000Z</time></trkpt>
<trkpt lat="42.177774" lon="23.373608"><ele>2243.1</ele><time>2026-03-02T11:22:09.000Z</time></trkpt>
<trkpt lat="42.177786" lon="23.3736"><ele>2243.1</ele><time>2026-03-02T11:22:10.000Z</time></trkpt>
<trkpt lat="42.177798" lon="23.373591"><ele>2243.1</ele><time>2026-03-02T11:22:11.000Z</time></trkpt>
<trkpt lat="42.17781" lon="23.373582"><ele>2243.1</ele><time>2026-03-02T11:22:12.000Z</time></trkpt>
<trkpt lat="42.17782" lon="23.373573"><ele>2243.1</ele><time>2026-03-02T11:22:13.000Z</time></trkpt>
<trkpt lat="42.17783" lon="23.373565"><ele>2243.1</ele><time>2026-03-02T11:22:14.000Z</time></trkpt>
<trkpt lat="42.17784" lon="23.373556"><ele>2243</ele><time>2026-03-02T11:22:15.000Z</time></trkpt>
<trkpt lat="42.177851" lon="23.373547"><ele>2243</ele><time>2026-03-02T11:22:16.000Z</time></trkpt>
<trkpt lat="42.177862" lon="23.373539"><ele>2243</ele><time>2026-03-02T11:22:17.000Z</time></trkpt>
<trkpt lat="42.177874" lon="23.373531"><ele>2243</ele><time>2026-03-02T11:22:18.000Z</time></trkpt>
<trkpt lat="42.177886" lon="23.373524"><ele>2243</ele><time>2026-03-02T11:22:19.000Z</time></trkpt>
<trkpt lat="42.177897" lon="23.373518"><ele>2242.5</ele><time>2026-03-02T11:22:20.000Z</time></trkpt>
<trkpt lat="42.177907" lon="23.373513"><ele>2242.5</ele><time>2026-03-02T11:22:21.000Z</time></trkpt>
<trkpt lat="42.177917" lon="23.373508"><ele>2242.5</ele><time>2026-03-02T11:22:22.000Z</time></trkpt>
<trkpt lat="42.177927" lon="23.373503"><ele>2242.5</ele><time>2026-03-02T11:22:23.000Z</time></trkpt>
<trkpt lat="42.177938" lon="23.373497"><ele>2242.5</ele><time>2026-03-02T11:22:24.000Z</time></trkpt>
<trkpt lat="42.177948" lon="23.373492"><ele>2242.3</ele><time>2026-03-02T11:22:25.000Z</time></trkpt>
<trkpt lat="42.177959" lon="23.373487"><ele>2242.3</ele><time>2026-03-02T11:22:26.000Z</time></trkpt>
<trkpt lat="42.17797" lon="23.373483"><ele>2242.3</ele><time>2026-03-02T11:22:27.000Z</time></trkpt>
<trkpt lat="42.177982" lon="23.373479"><ele>2242.3</ele><time>2026-03-02T11:22:28.000Z</time></trkpt>
<trkpt lat="42.177993" lon="23.373474"><ele>2242.3</ele><time>2026-03-02T11:22:29.000Z</time></trkpt>
<trkpt lat="42.178005" lon="23.373469"><ele>2241.9</ele><time>2026-03-02T11:22:30.000Z</time></trkpt>
<trkpt lat="42.178016" lon="23.373464"><ele>2241.9</ele><time>2026-03-02T11:22:31.000Z</time></trkpt>
<trkpt lat="42.178027" lon="23.37346"><ele>2241.9</ele><time>2026-03-02T11:22:32.000Z</time></trkpt>
<trkpt lat="42.178039" lon="23.373456"><ele>2241.9</ele><time>2026-03-02T11:22:33.000Z</time></trkpt>
<trkpt lat="42.17805" lon="23.373451"><ele>2241.9</ele><time>2026-03-02T11:22:34.000Z</time></trkpt>
<trkpt lat="42.178061" lon="23.373447"><ele>2241.8</ele><time>2026-03-02T11:22:35.000Z</time></trkpt>
<trkpt lat="42.178073" lon="23.373442"><ele>2241.8</ele><time>2026-03-02T11:22:36.000Z</time></trkpt>
<trkpt lat="42.178085" lon="23.373438"><ele>2241.8</ele><time>2026-03-02T11:22:37.000Z</time></trkpt>
<trkpt lat="42.178098" lon="23.373433"><ele>2241.8</ele><time>2026-03-02T11:22:38.000Z</time></trkpt>
<trkpt lat="42.178111" lon="23.373428"><ele>2241.8</ele><time>2026-03-02T11:22:39.000Z</time></trkpt>
<trkpt lat="42.178124" lon="23.373424"><ele>2241.7</ele><time>2026-03-02T11:22:40.000Z</time></trkpt>
<trkpt lat="42.178136" lon="23.37342"><ele>2241.7</ele><time>2026-03-02T11:22:41.000Z</time></trkpt>
<trkpt lat="42.178148" lon="23.373417"><ele>2241.7</ele><time>2026-03-02T11:22:42.000Z</time></trkpt>
<trkpt lat="42.178158" lon="23.373413"><ele>2241.7</ele><time>2026-03-02T11:22:43.000Z</time></trkpt>
<trkpt lat="42.178169" lon="23.37341"><ele>2241.7</ele><time>2026-03-02T11:22:44.000Z</time></trkpt>
<trkpt lat="42.178181" lon="23.373408"><ele>2241.3</ele><time>2026-03-02T11:22:45.000Z</time></trkpt>
<trkpt lat="42.178192" lon="23.373407"><ele>2241.3</ele><time>2026-03-02T11:22:46.000Z</time></trkpt>
<trkpt lat="42.178203" lon="23.373407"><ele>2241.3</ele><time>2026-03-02T11:22:47.000Z</time></trkpt>
<trkpt lat="42.178213" lon="23.373407"><ele>2241.3</ele><time>2026-03-02T11:22:48.000Z</time></trkpt>
<trkpt lat="42.178223" lon="23.373408"><ele>2241.3</ele><time>2026-03-02T11:22:49.000Z</time></trkpt>
<trkpt lat="42.178234" lon="23.373407"><ele>2240.7</ele><time>2026-03-02T11:22:50.000Z</time></trkpt>
<trkpt lat="42.178244" lon="23.373406"><ele>2240.7</ele><time>2026-03-02T11:22:51.000Z</time></trkpt>
<trkpt lat="42.178254" lon="23.373403"><ele>2240.7</ele><time>2026-03-02T11:22:52.000Z</time></trkpt>
<trkpt lat="42.178265" lon="23.3734"><ele>2240.7</ele><time>2026-03-02T11:22:53.000Z</time></trkpt>
<trkpt lat="42.178275" lon="23.373397"><ele>2240.7</ele><time>2026-03-02T11:22:54.000Z</time></trkpt>
<trkpt lat="42.178284" lon="23.373394"><ele>2240.3</ele><time>2026-03-02T11:22:55.000Z</time></trkpt>
<trkpt lat="42.178293" lon="23.373391"><ele>2240.3</ele><time>2026-03-02T11:22:56.000Z</time></trkpt>
<trkpt lat="42.178302" lon="23.373387"><ele>2240.3</ele><time>2026-03-02T11:22:57.000Z</time></trkpt>
<trkpt lat="42.178312" lon="23.373383"><ele>2240.3</ele><time>2026-03-02T11:22:58.000Z</time></trkpt>
<trkpt lat="42.178321" lon="23.373379"><ele>2240.3</ele><time>2026-03-02T11:22:59.000Z</time></trkpt>
<trkpt lat="42.17833" lon="23.373374"><ele>2239.6</ele><time>2026-03-02T11:23:00.000Z</time></trkpt>
<trkpt lat="42.17834" lon="23.37337"><ele>2239.6</ele><time>2026-03-02T11:23:01.000Z</time></trkpt>
<trkpt lat="42.17835" lon="23.373364"><ele>2239.6</ele><time>2026-03-02T11:23:02.000Z</time></trkpt>
<trkpt lat="42.17836" lon="23.373359"><ele>2239.6</ele><time>2026-03-02T11:23:03.000Z</time></trkpt>
<trkpt lat="42.178371" lon="23.373353"><ele>2239.6</ele><time>2026-03-02T11:23:04.000Z</time></trkpt>
<trkpt lat="42.178382" lon="23.373347"><ele>2239</ele><time>2026-03-02T11:23:05.000Z</time></trkpt>
<trkpt lat="42.178392" lon="23.373341"><ele>2239</ele><time>2026-03-02T11:23:06.000Z</time></trkpt>
<trkpt lat="42.178402" lon="23.373336"><ele>2239</ele><time>2026-03-02T11:23:07.000Z</time></trkpt>
<trkpt lat="42.178412" lon="23.37333"><ele>2239</ele><time>2026-03-02T11:23:08.000Z</time></trkpt>
<trkpt lat="42.178422" lon="23.373325"><ele>2239</ele><time>2026-03-02T11:23:09.000Z</time></trkpt>
<trkpt lat="42.178433" lon="23.373319"><ele>2238.7</ele><time>2026-03-02T11:23:10.000Z</time></trkpt>
<trkpt lat="42.178444" lon="23.373313"><ele>2238.7</ele><time>2026-03-02T11:23:11.000Z</time></trkpt>
<trkpt lat="42.178455" lon="23.373307"><ele>2238.7</ele><time>2026-03-02T11:23:12.000Z</time></trkpt>
<trkpt lat="42.178466" lon="23.373302"><ele>2238.7</ele><time>2026-03-02T11:23:13.000Z</time></trkpt>
<trkpt lat="42.178476" lon="23.373298"><ele>2238.7</ele><time>2026-03-02T11:23:14.000Z</time></trkpt>
<trkpt lat="42.178487" lon="23.373295"><ele>2238</ele><time>2026-03-02T11:23:15.000Z</time></trkpt>
<trkpt lat="42.178499" lon="23.373292"><ele>2238</ele><time>2026-03-02T11:23:16.000Z</time></trkpt>
<trkpt lat="42.17851" lon="23.373288"><ele>2238</ele><time>2026-03-02T11:23:17.000Z</time></trkpt>
<trkpt lat="42.178522" lon="23.373285"><ele>2238</ele><time>2026-03-02T11:23:18.000Z</time></trkpt>
<trkpt lat="42.178533" lon="23.373279"><ele>2238</ele><time>2026-03-02T11:23:19.000Z</time></trkpt>
<trkpt lat="42.178545" lon="23.373275"><ele>2237.1</ele><time>2026-03-02T11:23:20.000Z</time></trkpt>
<trkpt lat="42.178556" lon="23.37327"><ele>2237.1</ele><time>2026-03-02T11:23:21.000Z</time></trkpt>
<trkpt lat="42.178567" lon="23.373264"><ele>2237.1</ele><time>2026-03-02T11:23:22.000Z</time></trkpt>
<trkpt lat="42.178576" lon="23.373259"><ele>2237.1</ele><time>2026-03-02T11:23:23.000Z</time></trkpt>
<trkpt lat="42.178587" lon="23.373254"><ele>2237.1</ele><time>2026-03-02T11:23:24.000Z</time></trkpt>
<trkpt lat="42.178594" lon="23.373249"><ele>2236.7</ele><time>2026-03-02T11:23:25.000Z</time></trkpt>
<trkpt lat="42.178601" lon="23.373246"><ele>2236.7</ele><time>2026-03-02T11:23:26.000Z</time></trkpt>
<trkpt lat="42.178606" lon="23.373244"><ele>2236.7</ele><time>2026-03-02T11:23:27.000Z</time></trkpt>
<trkpt lat="42.178609" lon="23.373244"><ele>2236.7</ele><time>2026-03-02T11:23:28.000Z</time></trkpt>
<trkpt lat="42.178611" lon="23.373245"><ele>2236.7</ele><time>2026-03-02T11:23:29.000Z</time></trkpt>
<trkpt lat="42.178612" lon="23.373247"><ele>2235.9</ele><time>2026-03-02T11:23:30.000Z</time></trkpt>
<trkpt lat="42.178612" lon="23.373248"><ele>2235.9</ele><time>2026-03-02T11:23:31.000Z</time></trkpt>
<trkpt lat="42.178612" lon="23.373247"><ele>2235.9</ele><time>2026-03-02T11:23:32.000Z</time></trkpt>
<trkpt lat="42.178614" lon="23.373245"><ele>2235.9</ele><time>2026-03-02T11:23:33.000Z</time></trkpt>
<trkpt lat="42.178618" lon="23.373242"><ele>2235.9</ele><time>2026-03-02T11:23:34.000Z</time></trkpt>
<trkpt lat="42.178624" lon="23.373237"><ele>2235.2</ele><time>2026-03-02T11:23:35.000Z</time></trkpt>
<trkpt lat="42.178633" lon="23.373232"><ele>2235.2</ele><time>2026-03-02T11:23:36.000Z</time></trkpt>
<trkpt lat="42.178643" lon="23.373227"><ele>2235.2</ele><time>2026-03-02T11:23:37.000Z</time></trkpt>
<trkpt lat="42.178652" lon="23.373221"><ele>2235.2</ele><time>2026-03-02T11:23:38.000Z</time></trkpt>
<trkpt lat="42.178662" lon="23.373215"><ele>2235.2</ele><time>2026-03-02T11:23:39.000Z</time></trkpt>
<trkpt lat="42.178673" lon="23.373209"><ele>2234.9</ele><time>2026-03-02T11:23:40.000Z</time></trkpt>
<trkpt lat="42.178683" lon="23.373203"><ele>2234.9</ele><time>2026-03-02T11:23:41.000Z</time></trkpt>
<trkpt lat="42.178693" lon="23.373197"><ele>2234.9</ele><time>2026-03-02T11:23:42.000Z</time></trkpt>
<trkpt lat="42.178703" lon="23.373191"><ele>2234.9</ele><time>2026-03-02T11:23:43.000Z</time></trkpt>
<trkpt lat="42.178715" lon="23.373186"><ele>2234.9</ele><time>2026-03-02T11:23:44.000Z</time></trkpt>
<trkpt lat="42.178725" lon="23.37318"><ele>2234.3</ele><time>2026-03-02T11:23:45.000Z</time></trkpt>
<trkpt lat="42.178736" lon="23.373173"><ele>2234.3</ele><time>2026-03-02T11:23:46.000Z</time></trkpt>
<trkpt lat="42.178747" lon="23.373166"><ele>2234.3</ele><time>2026-03-02T11:23:47.000Z</time></trkpt>
<trkpt lat="42.178758" lon="23.37316"><ele>2234.3</ele><time>2026-03-02T11:23:48.000Z</time></trkpt>
<trkpt lat="42.178767" lon="23.373153"><ele>2234.3</ele><time>2026-03-02T11:23:49.000Z</time></trkpt>
<trkpt lat="42.178776" lon="23.373145"><ele>2233.7</ele><time>2026-03-02T11:23:50.000Z</time></trkpt>
<trkpt lat="42.178785" lon="23.37314"><ele>2233.7</ele><time>2026-03-02T11:23:51.000Z</time></trkpt>
<trkpt lat="42.178794" lon="23.373134"><ele>2233.7</ele><time>2026-03-02T11:23:52.000Z</time></trkpt>
<trkpt lat="42.178804" lon="23.373128"><ele>2233.7</ele><time>2026-03-02T11:23:53.000Z</time></trkpt>
<trkpt lat="42.178814" lon="23.373124"><ele>2233.7</ele><time>2026-03-02T11:23:54.000Z</time></trkpt>
<trkpt lat="42.178825" lon="23.373119"><ele>2233.3</ele><time>2026-03-02T11:23:55.000Z</time></trkpt>
<trkpt lat="42.178835" lon="23.373115"><ele>2233.3</ele><time>2026-03-02T11:23:56.000Z</time></trkpt>
<trkpt lat="42.178846" lon="23.37311"><ele>2233.3</ele><time>2026-03-02T11:23:57.000Z</time></trkpt>
<trkpt lat="42.178857" lon="23.373105"><ele>2233.3</ele><time>2026-03-02T11:23:58.000Z</time></trkpt>
<trkpt lat="42.178868" lon="23.373099"><ele>2233.3</ele><time>2026-03-02T11:23:59.000Z</time></trkpt>
<trkpt lat="42.17888" lon="23.373095"><ele>2232.2</ele><time>2026-03-02T11:24:00.000Z</time></trkpt>
<trkpt lat="42.178891" lon="23.373089"><ele>2232.2</ele><time>2026-03-02T11:24:01.000Z</time></trkpt>
<trkpt lat="42.178903" lon="23.373084"><ele>2232.2</ele><time>2026-03-02T11:24:02.000Z</time></trkpt>
<trkpt lat="42.178914" lon="23.373078"><ele>2232.2</ele><time>2026-03-02T11:24:03.000Z</time></trkpt>
<trkpt lat="42.178926" lon="23.373071"><ele>2232.2</ele><time>2026-03-02T11:24:04.000Z</time></trkpt>
<trkpt lat="42.178935" lon="23.373063"><ele>2231</ele><time>2026-03-02T11:24:05.000Z</time></trkpt>
<trkpt lat="42.178945" lon="23.373056"><ele>2231</ele><time>2026-03-02T11:24:06.000Z</time></trkpt>
<trkpt lat="42.178954" lon="23.373048"><ele>2231</ele><time>2026-03-02T11:24:07.000Z</time></trkpt>
<trkpt lat="42.178964" lon="23.373039"><ele>2231</ele><time>2026-03-02T11:24:08.000Z</time></trkpt>
<trkpt lat="42.178974" lon="23.373032"><ele>2231</ele><time>2026-03-02T11:24:09.000Z</time></trkpt>
<trkpt lat="42.178984" lon="23.373025"><ele>2230.4</ele><time>2026-03-02T11:24:10.000Z</time></trkpt>
<trkpt lat="42.178995" lon="23.373018"><ele>2230.4</ele><time>2026-03-02T11:24:11.000Z</time></trkpt>
<trkpt lat="42.179005" lon="23.373012"><ele>2230.4</ele><time>2026-03-02T11:24:12.000Z</time></trkpt>
<trkpt lat="42.179016" lon="23.373005"><ele>2230.4</ele><time>2026-03-02T11:24:13.000Z</time></trkpt>
<trkpt lat="42.179026" lon="23.372999"><ele>2230.4</ele><time>2026-03-02T11:24:14.000Z</time></trkpt>
<trkpt lat="42.179036" lon="23.372992"><ele>2229.3</ele><time>2026-03-02T11:24:15.000Z</time></trkpt>
<trkpt lat="42.179047" lon="23.372985"><ele>2229.3</ele><time>2026-03-02T11:24:16.000Z</time></trkpt>
<trkpt lat="42.179057" lon="23.372977"><ele>2229.3</ele><time>2026-03-02T11:24:17.000Z</time></trkpt>
<trkpt lat="42.179067" lon="23.37297"><ele>2229.3</ele><time>2026-03-02T11:24:18.000Z</time></trkpt>
<trkpt lat="42.179078" lon="23.372964"><ele>2229.3</ele><time>2026-03-02T11:24:19.000Z</time></trkpt>
<trkpt lat="42.179089" lon="23.372958"><ele>2228.2</ele><time>2026-03-02T11:24:20.000Z</time></trkpt>
<trkpt lat="42.1791" lon="23.372952"><ele>2228.2</ele><time>2026-03-02T11:24:21.000Z</time></trkpt>
<trkpt lat="42.179111" lon="23.372947"><ele>2228.2</ele><time>2026-03-02T11:24:22.000Z</time></trkpt>
<trkpt lat="42.179122" lon="23.372941"><ele>2228.2</ele><time>2026-03-02T11:24:23.000Z</time></trkpt>
<trkpt lat="42.179133" lon="23.372935"><ele>2228.2</ele><time>2026-03-02T11:24:24.000Z</time></trkpt>
<trkpt lat="42.179143" lon="23.372928"><ele>2227.7</ele><time>2026-03-02T11:24:25.000Z</time></trkpt>
<trkpt lat="42.179152" lon="23.372921"><ele>2227.7</ele><time>2026-03-02T11:24:26.000Z</time></trkpt>
<trkpt lat="42.179162" lon="23.372913"><ele>2227.7</ele><time>2026-03-02T11:24:27.000Z</time></trkpt>
<trkpt lat="42.179172" lon="23.372906"><ele>2227.7</ele><time>2026-03-02T11:24:28.000Z</time></trkpt>
<trkpt lat="42.179182" lon="23.372898"><ele>2227.7</ele><time>2026-03-02T11:24:29.000Z</time></trkpt>
<trkpt lat="42.179193" lon="23.37289"><ele>2226.6</ele><time>2026-03-02T11:24:30.000Z</time></trkpt>
<trkpt lat="42.179204" lon="23.372883"><ele>2226.6</ele><time>2026-03-02T11:24:31.000Z</time></trkpt>
<trkpt lat="42.179214" lon="23.372875"><ele>2226.6</ele><time>2026-03-02T11:24:32.000Z</time></trkpt>
<trkpt lat="42.179223" lon="23.372868"><ele>2226.6</ele><time>2026-03-02T11:24:33.000Z</time></trkpt>
<trkpt lat="42.179233" lon="23.37286"><ele>2226.6</ele><time>2026-03-02T11:24:34.000Z</time></trkpt>
<trkpt lat="42.179244" lon="23.372853"><ele>2225.4</ele><time>2026-03-02T11:24:35.000Z</time></trkpt>
<trkpt lat="42.179253" lon="23.372845"><ele>2225.4</ele><time>2026-03-02T11:24:36.000Z</time></trkpt>
<trkpt lat="42.179264" lon="23.372837"><ele>2225.4</ele><time>2026-03-02T11:24:37.000Z</time></trkpt>
<trkpt lat="42.179275" lon="23.37283"><ele>2225.4</ele><time>2026-03-02T11:24:38.000Z</time></trkpt>
<trkpt lat="42.179285" lon="23.372822"><ele>2225.4</ele><time>2026-03-02T11:24:39.000Z</time></trkpt>
<trkpt lat="42.179295" lon="23.372815"><ele>2224.9</ele><time>2026-03-02T11:24:40.000Z</time></trkpt>
<trkpt lat="42.179305" lon="23.372807"><ele>2224.9</ele><time>2026-03-02T11:24:41.000Z</time></trkpt>
<trkpt lat="42.179316" lon="23.372799"><ele>2224.9</ele><time>2026-03-02T11:24:42.000Z</time></trkpt>
<trkpt lat="42.179327" lon="23.372793"><ele>2224.9</ele><time>2026-03-02T11:24:43.000Z</time></trkpt>
<trkpt lat="42.179338" lon="23.372786"><ele>2224.9</ele><time>2026-03-02T11:24:44.000Z</time></trkpt>
<trkpt lat="42.17935" lon="23.372781"><ele>2224</ele><time>2026-03-02T11:24:45.000Z</time></trkpt>
<trkpt lat="42.179362" lon="23.372777"><ele>2224</ele><time>2026-03-02T11:24:46.000Z</time></trkpt>
<trkpt lat="42.179373" lon="23.372773"><ele>2224</ele><time>2026-03-02T11:24:47.000Z</time></trkpt>
<trkpt lat="42.179385" lon="23.372769"><ele>2224</ele><time>2026-03-02T11:24:48.000Z</time></trkpt>
<trkpt lat="42.179396" lon="23.372766"><ele>2224</ele><time>2026-03-02T11:24:49.000Z</time></trkpt>
<trkpt lat="42.179407" lon="23.372763"><ele>2223.1</ele><time>2026-03-02T11:24:50.000Z</time></trkpt>
<trkpt lat="42.179418" lon="23.37276"><ele>2223.1</ele><time>2026-03-02T11:24:51.000Z</time></trkpt>
<trkpt lat="42.179429" lon="23.372757"><ele>2223.1</ele><time>2026-03-02T11:24:52.000Z</time></trkpt>
<trkpt lat="42.179441" lon="23.372754"><ele>2223.1</ele><time>2026-03-02T11:24:53.000Z</time></trkpt>
<trkpt lat="42.179452" lon="23.37275"><ele>2223.1</ele><time>2026-03-02T11:24:54.000Z</time></trkpt>
<trkpt lat="42.179463" lon="23.372743"><ele>2222.5</ele><time>2026-03-02T11:24:55.000Z</time></trkpt>
<trkpt lat="42.179476" lon="23.372735"><ele>2222.5</ele><time>2026-03-02T11:24:56.000Z</time></trkpt>
<trkpt lat="42.179487" lon="23.372727"><ele>2222.5</ele><time>2026-03-02T11:24:57.000Z</time></trkpt>
<trkpt lat="42.179498" lon="23.372719"><ele>2222.5</ele><time>2026-03-02T11:24:58.000Z</time></trkpt>
<trkpt lat="42.179509" lon="23.372712"><ele>2222.5</ele><time>2026-03-02T11:24:59.000Z</time></trkpt>
<trkpt lat="42.17952" lon="23.372704"><ele>2221.4</ele><time>2026-03-02T11:25:00.000Z</time></trkpt>
<trkpt lat="42.179532" lon="23.372696"><ele>2221.4</ele><time>2026-03-02T11:25:01.000Z</time></trkpt>
<trkpt lat="42.179543" lon="23.372688"><ele>2221.4</ele><time>2026-03-02T11:25:02.000Z</time></trkpt>
<trkpt lat="42.179555" lon="23.37268"><ele>2221.4</ele><time>2026-03-02T11:25:03.000Z</time></trkpt>
<trkpt lat="42.179565" lon="23.372672"><ele>2221.4</ele><time>2026-03-02T11:25:04.000Z</time></trkpt>
<trkpt lat="42.179575" lon="23.372666"><ele>2220.1</ele><time>2026-03-02T11:25:05.000Z</time></trkpt>
<trkpt lat="42.179582" lon="23.372663"><ele>2220.1</ele><time>2026-03-02T11:25:06.000Z</time></trkpt>
<trkpt lat="42.179588" lon="23.372661"><ele>2220.1</ele><time>2026-03-02T11:25:07.000Z</time></trkpt>
<trkpt lat="42.179592" lon="23.372659"><ele>2220.1</ele><time>2026-03-02T11:25:08.000Z</time></trkpt>
<trkpt lat="42.179595" lon="23.372659"><ele>2220.1</ele><time>2026-03-02T11:25:09.000Z</time></trkpt>
<trkpt lat="42.179599" lon="23.372659"><ele>2219.4</ele><time>2026-03-02T11:25:10.000Z</time></trkpt>
<trkpt lat="42.179605" lon="23.372658"><ele>2219.4</ele><time>2026-03-02T11:25:11.000Z</time></trkpt>
<trkpt lat="42.179613" lon="23.372658"><ele>2219.4</ele><time>2026-03-02T11:25:12.000Z</time></trkpt>
<trkpt lat="42.179624" lon="23.372658"><ele>2219.4</ele><time>2026-03-02T11:25:13.000Z</time></trkpt>
<trkpt lat="42.179637" lon="23.372659"><ele>2219.4</ele><time>2026-03-02T11:25:14.000Z</time></trkpt>
<trkpt lat="42.179651" lon="23.372658"><ele>2218</ele><time>2026-03-02T11:25:15.000Z</time></trkpt>
<trkpt lat="42.179664" lon="23.372658"><ele>2218</ele><time>2026-03-02T11:25:16.000Z</time></trkpt>
<trkpt lat="42.179678" lon="23.372658"><ele>2218</ele><time>2026-03-02T11:25:17.000Z</time></trkpt>
<trkpt lat="42.179691" lon="23.372657"><ele>2218</ele><time>2026-03-02T11:25:18.000Z</time></trkpt>
<trkpt lat="42.179703" lon="23.372656"><ele>2218</ele><time>2026-03-02T11:25:19.000Z</time></trkpt>
<trkpt lat="42.179715" lon="23.372654"><ele>2216.8</ele><time>2026-03-02T11:25:20.000Z</time></trkpt>
<trkpt lat="42.179726" lon="23.372649"><ele>2216.8</ele><time>2026-03-02T11:25:21.000Z</time></trkpt>
<trkpt lat="42.179735" lon="23.372644"><ele>2216.8</ele><time>2026-03-02T11:25:22.000Z</time></trkpt>
<trkpt lat="42.179745" lon="23.372637"><ele>2216.8</ele><time>2026-03-02T11:25:23.000Z</time></trkpt>
<trkpt lat="42.179755" lon="23.372631"><ele>2216.8</ele><time>2026-03-02T11:25:24.000Z</time></trkpt>
<trkpt lat="42.179764" lon="23.372625"><ele>2216.2</ele><time>2026-03-02T11:25:25.000Z</time></trkpt>
<trkpt lat="42.179774" lon="23.37262"><ele>2216.2</ele><time>2026-03-02T11:25:26.000Z</time></trkpt>
<trkpt lat="42.179785" lon="23.372615"><ele>2216.2</ele><time>2026-03-02T11:25:27.000Z</time></trkpt>
<trkpt lat="42.179795" lon="23.372611"><ele>2216.2</ele><time>2026-03-02T11:25:28.000Z</time></trkpt>
<trkpt lat="42.179805" lon="23.372607"><ele>2216.2</ele><time>2026-03-02T11:25:29.000Z</time></trkpt>
<trkpt lat="42.179816" lon="23.372603"><ele>2214.8</ele><time>2026-03-02T11:25:30.000Z</time></trkpt>
<trkpt lat="42.179826" lon="23.372598"><ele>2214.8</ele><time>2026-03-02T11:25:31.000Z</time></trkpt>
<trkpt lat="42.179837" lon="23.372593"><ele>2214.8</ele><time>2026-03-02T11:25:32.000Z</time></trkpt>
<trkpt lat="42.179848" lon="23.372588"><ele>2214.8</ele><time>2026-03-02T11:25:33.000Z</time></trkpt>
<trkpt lat="42.179858" lon="23.372583"><ele>2214.8</ele><time>2026-03-02T11:25:34.000Z</time></trkpt>
<trkpt lat="42.179869" lon="23.372579"><ele>2212.9</ele><time>2026-03-02T11:25:35.000Z</time></trkpt>
<trkpt lat="42.17988" lon="23.372576"><ele>2212.9</ele><time>2026-03-02T11:25:36.000Z</time></trkpt>
<trkpt lat="42.179892" lon="23.372574"><ele>2212.9</ele><time>2026-03-02T11:25:37.000Z</time></trkpt>
<trkpt lat="42.179903" lon="23.37257"><ele>2212.9</ele><time>2026-03-02T11:25:38.000Z</time></trkpt>
<trkpt lat="42.179915" lon="23.372567"><ele>2212.9</ele><time>2026-03-02T11:25:39.000Z</time></trkpt>
<trkpt lat="42.179926" lon="23.372564"><ele>2212</ele><time>2026-03-02T11:25:40.000Z</time></trkpt>
<trkpt lat="42.179937" lon="23.37256"><ele>2212</ele><time>2026-03-02T11:25:41.000Z</time></trkpt>
<trkpt lat="42.179949" lon="23.372555"><ele>2212</ele><time>2026-03-02T11:25:42.000Z</time></trkpt>
<trkpt lat="42.17996" lon="23.372552"><ele>2212</ele><time>2026-03-02T11:25:43.000Z</time></trkpt>
<trkpt lat="42.179971" lon="23.372548"><ele>2212</ele><time>2026-03-02T11:25:44.000Z</time></trkpt>
<trkpt lat="42.179982" lon="23.372544"><ele>2210</ele><time>2026-03-02T11:25:45.000Z</time></trkpt>
<trkpt lat="42.179992" lon="23.372542"><ele>2210</ele><time>2026-03-02T11:25:46.000Z</time></trkpt>
<trkpt lat="42.180004" lon="23.372541"><ele>2210</ele><time>2026-03-02T11:25:47.000Z</time></trkpt>
<trkpt lat="42.180015" lon="23.372541"><ele>2210</ele><time>2026-03-02T11:25:48.000Z</time></trkpt>
<trkpt lat="42.180026" lon="23.372541"><ele>2210</ele><time>2026-03-02T11:25:49.000Z</time></trkpt>
<trkpt lat="42.180038" lon="23.372543"><ele>2208</ele><time>2026-03-02T11:25:50.000Z</time></trkpt>
<trkpt lat="42.18005" lon="23.372544"><ele>2208</ele><time>2026-03-02T11:25:51.000Z</time></trkpt>
<trkpt lat="42.180063" lon="23.372543"><ele>2208</ele><time>2026-03-02T11:25:52.000Z</time></trkpt>
<trkpt lat="42.180076" lon="23.372542"><ele>2208</ele><time>2026-03-02T11:25:53.000Z</time></trkpt>
<trkpt lat="42.180088" lon="23.37254"><ele>2208</ele><time>2026-03-02T11:25:54.000Z</time></trkpt>
<trkpt lat="42.180101" lon="23.372538"><ele>2207</ele><time>2026-03-02T11:25:55.000Z</time></trkpt>
<trkpt lat="42.180113" lon="23.372535"><ele>2207</ele><time>2026-03-02T11:25:56.000Z</time></trkpt>
<trkpt lat="42.180124" lon="23.37253"><ele>2207</ele><time>2026-03-02T11:25:57.000Z</time></trkpt>
<trkpt lat="42.180134" lon="23.372523"><ele>2207</ele><time>2026-03-02T11:25:58.000Z</time></trkpt>
<trkpt lat="42.180145" lon="23.372515"><ele>2207</ele><time>2026-03-02T11:25:59.000Z</time></trkpt>
<trkpt lat="42.180154" lon="23.372508"><ele>2205</ele><time>2026-03-02T11:26:00.000Z</time></trkpt>
<trkpt lat="42.180165" lon="23.372501"><ele>2205</ele><time>2026-03-02T11:26:01.000Z</time></trkpt>
<trkpt lat="42.180174" lon="23.372497"><ele>2205</ele><time>2026-03-02T11:26:02.000Z</time></trkpt>
<trkpt lat="42.180183" lon="23.372493"><ele>2205</ele><time>2026-03-02T11:26:03.000Z</time></trkpt>
<trkpt lat="42.180192" lon="23.372492"><ele>2205</ele><time>2026-03-02T11:26:04.000Z</time></trkpt>
<trkpt lat="42.180202" lon="23.372491"><ele>2203</ele><time>2026-03-02T11:26:05.000Z</time></trkpt>
<trkpt lat="42.180212" lon="23.37249"><ele>2203</ele><time>2026-03-02T11:26:06.000Z</time></trkpt>
<trkpt lat="42.180221" lon="23.372489"><ele>2203</ele><time>2026-03-02T11:26:07.000Z</time></trkpt>
<trkpt lat="42.180233" lon="23.372488"><ele>2203</ele><time>2026-03-02T11:26:08.000Z</time></trkpt>
<trkpt lat="42.180243" lon="23.372487"><ele>2203</ele><time>2026-03-02T11:26:09.000Z</time></trkpt>
<trkpt lat="42.180255" lon="23.372487"><ele>2202</ele><time>2026-03-02T11:26:10.000Z</time></trkpt>
<trkpt lat="42.180266" lon="23.372487"><ele>2202</ele><time>2026-03-02T11:26:11.000Z</time></trkpt>
<trkpt lat="42.180278" lon="23.372489"><ele>2202</ele><time>2026-03-02T11:26:12.000Z</time></trkpt>
<trkpt lat="42.18029" lon="23.372491"><ele>2202</ele><time>2026-03-02T11:26:13.000Z</time></trkpt>
<trkpt lat="42.180302" lon="23.372493"><ele>2202</ele><time>2026-03-02T11:26:14.000Z</time></trkpt>
<trkpt lat="42.180314" lon="23.372495"><ele>2200.2</ele><time>2026-03-02T11:26:15.000Z</time></trkpt>
<trkpt lat="42.180325" lon="23.372496"><ele>2200.2</ele><time>2026-03-02T11:26:16.000Z</time></trkpt>
<trkpt lat="42.180335" lon="23.372497"><ele>2200.2</ele><time>2026-03-02T11:26:17.000Z</time></trkpt>
<trkpt lat="42.180346" lon="23.372498"><ele>2200.2</ele><time>2026-03-02T11:26:18.000Z</time></trkpt>
<trkpt lat="42.180356" lon="23.372499"><ele>2200.2</ele><time>2026-03-02T11:26:19.000Z</time></trkpt>
<trkpt lat="42.180366" lon="23.372498"><ele>2198.3</ele><time>2026-03-02T11:26:20.000Z</time></trkpt>
<trkpt lat="42.180376" lon="23.372497"><ele>2198.3</ele><time>2026-03-02T11:26:21.000Z</time></trkpt>
<trkpt lat="42.180386" lon="23.372497"><ele>2198.3</ele><time>2026-03-02T11:26:22.000Z</time></trkpt>
<trkpt lat="42.180395" lon="23.372497"><ele>2198.3</ele><time>2026-03-02T11:26:23.000Z</time></trkpt>
<trkpt lat="42.180406" lon="23.372497"><ele>2198.3</ele><time>2026-03-02T11:26:24.000Z</time></trkpt>
<trkpt lat="42.180416" lon="23.372497"><ele>2197.4</ele><time>2026-03-02T11:26:25.000Z</time></trkpt>
<trkpt lat="42.180428" lon="23.372497"><ele>2197.4</ele><time>2026-03-02T11:26:26.000Z</time></trkpt>
<trkpt lat="42.18044" lon="23.372497"><ele>2197.4</ele><time>2026-03-02T11:26:27.000Z</time></trkpt>
<trkpt lat="42.180451" lon="23.372497"><ele>2197.4</ele><time>2026-03-02T11:26:28.000Z</time></trkpt>
<trkpt lat="42.180462" lon="23.372497"><ele>2197.4</ele><time>2026-03-02T11:26:29.000Z</time></trkpt>
<trkpt lat="42.180473" lon="23.372496"><ele>2195.5</ele><time>2026-03-02T11:26:30.000Z</time></trkpt>
<trkpt lat="42.180483" lon="23.372496"><ele>2195.5</ele><time>2026-03-02T11:26:31.000Z</time></trkpt>
<trkpt lat="42.180492" lon="23.372496"><ele>2195.5</ele><time>2026-03-02T11:26:32.000Z</time></trkpt>
<trkpt lat="42.180502" lon="23.372495"><ele>2195.5</ele><time>2026-03-02T11:26:33.000Z</time></trkpt>
<trkpt lat="42.180512" lon="23.372495"><ele>2195.5</ele><time>2026-03-02T11:26:34.000Z</time></trkpt>
<trkpt lat="42.180523" lon="23.372496"><ele>2193.5</ele><time>2026-03-02T11:26:35.000Z</time></trkpt>
<trkpt lat="42.180533" lon="23.372496"><ele>2193.5</ele><time>2026-03-02T11:26:36.000Z</time></trkpt>
<trkpt lat="42.180544" lon="23.372496"><ele>2193.5</ele><time>2026-03-02T11:26:37.000Z</time></trkpt>
<trkpt lat="42.180555" lon="23.372495"><ele>2193.5</ele><time>2026-03-02T11:26:38.000Z</time></trkpt>
<trkpt lat="42.180567" lon="23.372494"><ele>2193.5</ele><time>2026-03-02T11:26:39.000Z</time></trkpt>
<trkpt lat="42.180579" lon="23.372493"><ele>2192.5</ele><time>2026-03-02T11:26:40.000Z</time></trkpt>
<trkpt lat="42.180591" lon="23.372492"><ele>2192.5</ele><time>2026-03-02T11:26:41.000Z</time></trkpt>
<trkpt lat="42.180604" lon="23.372492"><ele>2192.5</ele><time>2026-03-02T11:26:42.000Z</time></trkpt>
<trkpt lat="42.180616" lon="23.372493"><ele>2192.5</ele><time>2026-03-02T11:26:43.000Z</time></trkpt>
<trkpt lat="42.180629" lon="23.372493"><ele>2192.5</ele><time>2026-03-02T11:26:44.000Z</time></trkpt>
<trkpt lat="42.180642" lon="23.372494"><ele>2190.7</ele><time>2026-03-02T11:26:45.000Z</time></trkpt>
<trkpt lat="42.180655" lon="23.372495"><ele>2190.7</ele><time>2026-03-02T11:26:46.000Z</time></trkpt>
<trkpt lat="42.180668" lon="23.372495"><ele>2190.7</ele><time>2026-03-02T11:26:47.000Z</time></trkpt>
<trkpt lat="42.180682" lon="23.372493"><ele>2190.7</ele><time>2026-03-02T11:26:48.000Z</time></trkpt>
<trkpt lat="42.180695" lon="23.372491"><ele>2190.7</ele><time>2026-03-02T11:26:49.000Z</time></trkpt>
<trkpt lat="42.180708" lon="23.372488"><ele>2188.9</ele><time>2026-03-02T11:26:50.000Z</time></trkpt>
<trkpt lat="42.180722" lon="23.372486"><ele>2188.9</ele><time>2026-03-02T11:26:51.000Z</time></trkpt>
<trkpt lat="42.180736" lon="23.372484"><ele>2188.9</ele><time>2026-03-02T11:26:52.000Z</time></trkpt>
<trkpt lat="42.18075" lon="23.372482"><ele>2188.9</ele><time>2026-03-02T11:26:53.000Z</time></trkpt>
<trkpt lat="42.180764" lon="23.372482"><ele>2188.9</ele><time>2026-03-02T11:26:54.000Z</time></trkpt>
<trkpt lat="42.180778" lon="23.372481"><ele>2188.1</ele><time>2026-03-02T11:26:55.000Z</time></trkpt>
<trkpt lat="42.18079" lon="23.372481"><ele>2188.1</ele><time>2026-03-02T11:26:56.000Z</time></trkpt>
<trkpt lat="42.180803" lon="23.372482"><ele>2188.1</ele><time>2026-03-02T11:26:57.000Z</time></trkpt>
<trkpt lat="42.180814" lon="23.372483"><ele>2188.1</ele><time>2026-03-02T11:26:58.000Z</time></trkpt>
<trkpt lat="42.180826" lon="23.372484"><ele>2188.1</ele><time>2026-03-02T11:26:59.000Z</time></trkpt>
<trkpt lat="42.180839" lon="23.372486"><ele>2186.3</ele><time>2026-03-02T11:27:00.000Z</time></trkpt>
<trkpt lat="42.180851" lon="23.372488"><ele>2186.3</ele><time>2026-03-02T11:27:01.000Z</time></trkpt>
<trkpt lat="42.180863" lon="23.372489"><ele>2186.3</ele><time>2026-03-02T11:27:02.000Z</time></trkpt>
<trkpt lat="42.180876" lon="23.372491"><ele>2186.3</ele><time>2026-03-02T11:27:03.000Z</time></trkpt>
<trkpt lat="42.180888" lon="23.372492"><ele>2186.3</ele><time>2026-03-02T11:27:04.000Z</time></trkpt>
<trkpt lat="42.1809" lon="23.372492"><ele>2184.3</ele><time>2026-03-02T11:27:05.000Z</time></trkpt>
<trkpt lat="42.180912" lon="23.372491"><ele>2184.3</ele><time>2026-03-02T11:27:06.000Z</time></trkpt>
<trkpt lat="42.180923" lon="23.37249"><ele>2184.3</ele><time>2026-03-02T11:27:07.000Z</time></trkpt>
<trkpt lat="42.180935" lon="23.372489"><ele>2184.3</ele><time>2026-03-02T11:27:08.000Z</time></trkpt>
<trkpt lat="42.180946" lon="23.372487"><ele>2184.3</ele><time>2026-03-02T11:27:09.000Z</time></trkpt>
<trkpt lat="42.180958" lon="23.372484"><ele>2183.2</ele><time>2026-03-02T11:27:10.000Z</time></trkpt>
<trkpt lat="42.18097" lon="23.372483"><ele>2183.2</ele><time>2026-03-02T11:27:11.000Z</time></trkpt>
<trkpt lat="42.180982" lon="23.372483"><ele>2183.2</ele><time>2026-03-02T11:27:12.000Z</time></trkpt>
<trkpt lat="42.180994" lon="23.372482"><ele>2183.2</ele><time>2026-03-02T11:27:13.000Z</time></trkpt>
<trkpt lat="42.181006" lon="23.372483"><ele>2183.2</ele><time>2026-03-02T11:27:14.000Z</time></trkpt>
<trkpt lat="42.181018" lon="23.372483"><ele>2181</ele><time>2026-03-02T11:27:15.000Z</time></trkpt>
<trkpt lat="42.181031" lon="23.372482"><ele>2181</ele><time>2026-03-02T11:27:16.000Z</time></trkpt>
<trkpt lat="42.181043" lon="23.372482"><ele>2181</ele><time>2026-03-02T11:27:17.000Z</time></trkpt>
<trkpt lat="42.181055" lon="23.372481"><ele>2181</ele><time>2026-03-02T11:27:18.000Z</time></trkpt>
<trkpt lat="42.181064" lon="23.372482"><ele>2181</ele><time>2026-03-02T11:27:19.000Z</time></trkpt>
<trkpt lat="42.181071" lon="23.372482"><ele>2178.8</ele><time>2026-03-02T11:27:20.000Z</time></trkpt>
<trkpt lat="42.181078" lon="23.372483"><ele>2178.8</ele><time>2026-03-02T11:27:21.000Z</time></trkpt>
<trkpt lat="42.181085" lon="23.372483"><ele>2178.8</ele><time>2026-03-02T11:27:22.000Z</time></trkpt>
<trkpt lat="42.181093" lon="23.372483"><ele>2178.8</ele><time>2026-03-02T11:27:23.000Z</time></trkpt>
<trkpt lat="42.181103" lon="23.372481"><ele>2178.8</ele><time>2026-03-02T11:27:24.000Z</time></trkpt>
<trkpt lat="42.181114" lon="23.372478"><ele>2177.8</ele><time>2026-03-02T11:27:25.000Z</time></trkpt>
<trkpt lat="42.181124" lon="23.372476"><ele>2177.8</ele><time>2026-03-02T11:27:26.000Z</time></trkpt>
<trkpt lat="42.181134" lon="23.372473"><ele>2177.8</ele><time>2026-03-02T11:27:27.000Z</time></trkpt>
<trkpt lat="42.181145" lon="23.372469"><ele>2177.8</ele><time>2026-03-02T11:27:28.000Z</time></trkpt>
<trkpt lat="42.181156" lon="23.372466"><ele>2177.8</ele><time>2026-03-02T11:27:29.000Z</time></trkpt>
<trkpt lat="42.181167" lon="23.372463"><ele>2176</ele><time>2026-03-02T11:27:30.000Z</time></trkpt>
<trkpt lat="42.181179" lon="23.372461"><ele>2176</ele><time>2026-03-02T11:27:31.000Z</time></trkpt>
<trkpt lat="42.18119" lon="23.372459"><ele>2176</ele><time>2026-03-02T11:27:32.000Z</time></trkpt>
<trkpt lat="42.1812" lon="23.372458"><ele>2176</ele><time>2026-03-02T11:27:33.000Z</time></trkpt>
<trkpt lat="42.181211" lon="23.372455"><ele>2176</ele><time>2026-03-02T11:27:34.000Z</time></trkpt>
<trkpt lat="42.181221" lon="23.372453"><ele>2174.4</ele><time>2026-03-02T11:27:35.000Z</time></trkpt>
<trkpt lat="42.181231" lon="23.37245"><ele>2174.4</ele><time>2026-03-02T11:27:36.000Z</time></trkpt>
<trkpt lat="42.181243" lon="23.372449"><ele>2174.4</ele><time>2026-03-02T11:27:37.000Z</time></trkpt>
<trkpt lat="42.181256" lon="23.372448"><ele>2174.4</ele><time>2026-03-02T11:27:38.000Z</time></trkpt>
<trkpt lat="42.181268" lon="23.372448"><ele>2174.4</ele><time>2026-03-02T11:27:39.000Z</time></trkpt>
<trkpt lat="42.181281" lon="23.37245"><ele>2173.6</ele><time>2026-03-02T11:27:40.000Z</time></trkpt>
<trkpt lat="42.181295" lon="23.372452"><ele>2173.6</ele><time>2026-03-02T11:27:41.000Z</time></trkpt>
<trkpt lat="42.181308" lon="23.372455"><ele>2173.6</ele><time>2026-03-02T11:27:42.000Z</time></trkpt>
<trkpt lat="42.181321" lon="23.372458"><ele>2173.6</ele><time>2026-03-02T11:27:43.000Z</time></trkpt>
<trkpt lat="42.181334" lon="23.37246"><ele>2173.6</ele><time>2026-03-02T11:27:44.000Z</time></trkpt>
<trkpt lat="42.181349" lon="23.37246"><ele>2171.9</ele><time>2026-03-02T11:27:45.000Z</time></trkpt>
<trkpt lat="42.181363" lon="23.37246"><ele>2171.9</ele><time>2026-03-02T11:27:46.000Z</time></trkpt>
<trkpt lat="42.181378" lon="23.372458"><ele>2171.9</ele><time>2026-03-02T11:27:47.000Z</time></trkpt>
<trkpt lat="42.181392" lon="23.372456"><ele>2171.9</ele><time>2026-03-02T11:27:48.000Z</time></trkpt>
<trkpt lat="42.181406" lon="23.372455"><ele>2171.9</ele><time>2026-03-02T11:27:49.000Z</time></trkpt>
<trkpt lat="42.18142" lon="23.372454"><ele>2169.9</ele><time>2026-03-02T11:27:50.000Z</time></trkpt>
<trkpt lat="42.181434" lon="23.372454"><ele>2169.9</ele><time>2026-03-02T11:27:51.000Z</time></trkpt>
<trkpt lat="42.181447" lon="23.372455"><ele>2169.9</ele><time>2026-03-02T11:27:52.000Z</time></trkpt>
<trkpt lat="42.18146" lon="23.372457"><ele>2169.9</ele><time>2026-03-02T11:27:53.000Z</time></trkpt>
<trkpt lat="42.181474" lon="23.372459"><ele>2169.9</ele><time>2026-03-02T11:27:54.000Z</time></trkpt>
<trkpt lat="42.181488" lon="23.372462"><ele>2168.9</ele><time>2026-03-02T11:27:55.000Z</time></trkpt>
<trkpt lat="42.181502" lon="23.372465"><ele>2168.9</ele><time>2026-03-02T11:27:56.000Z</time></trkpt>
<trkpt lat="42.181516" lon="23.372467"><ele>2168.9</ele><time>2026-03-02T11:27:57.000Z</time></trkpt>
<trkpt lat="42.181531" lon="23.372469"><ele>2168.9</ele><time>2026-03-02T11:27:58.000Z</time></trkpt>
<trkpt lat="42.181545" lon="23.37247"><ele>2168.9</ele><time>2026-03-02T11:27:59.000Z</time></trkpt>
<trkpt lat="42.18156" lon="23.372471"><ele>2166.8</ele><time>2026-03-02T11:28:00.000Z</time></trkpt>
<trkpt lat="42.181574" lon="23.372472"><ele>2166.8</ele><time>2026-03-02T11:28:01.000Z</time></trkpt>
<trkpt lat="42.181589" lon="23.372471"><ele>2166.8</ele><time>2026-03-02T11:28:02.000Z</time></trkpt>
<trkpt lat="42.181604" lon="23.372469"><ele>2166.8</ele><time>2026-03-02T11:28:03.000Z</time></trkpt>
<trkpt lat="42.181618" lon="23.372467"><ele>2166.8</ele><time>2026-03-02T11:28:04.000Z</time></trkpt>
<trkpt lat="42.181632" lon="23.372465"><ele>2164.7</ele><time>2026-03-02T11:28:05.000Z</time></trkpt>
<trkpt lat="42.181645" lon="23.372463"><ele>2164.7</ele><time>2026-03-02T11:28:06.000Z</time></trkpt>
<trkpt lat="42.181657" lon="23.372462"><ele>2164.7</ele><time>2026-03-02T11:28:07.000Z</time></trkpt>
<trkpt lat="42.181668" lon="23.372461"><ele>2164.7</ele><time>2026-03-02T11:28:08.000Z</time></trkpt>
<trkpt lat="42.181678" lon="23.37246"><ele>2164.7</ele><time>2026-03-02T11:28:09.000Z</time></trkpt>
<trkpt lat="42.181687" lon="23.372456"><ele>2163.7</ele><time>2026-03-02T11:28:10.000Z</time></trkpt>
<trkpt lat="42.181698" lon="23.372451"><ele>2163.7</ele><time>2026-03-02T11:28:11.000Z</time></trkpt>
<trkpt lat="42.181708" lon="23.372445"><ele>2163.7</ele><time>2026-03-02T11:28:12.000Z</time></trkpt>
<trkpt lat="42.18172" lon="23.372439"><ele>2163.7</ele><time>2026-03-02T11:28:13.000Z</time></trkpt>
<trkpt lat="42.181733" lon="23.372431"><ele>2163.7</ele><time>2026-03-02T11:28:14.000Z</time></trkpt>
<trkpt lat="42.181746" lon="23.372424"><ele>2161.8</ele><time>2026-03-02T11:28:15.000Z</time></trkpt>
<trkpt lat="42.181759" lon="23.372418"><ele>2161.8</ele><time>2026-03-02T11:28:16.000Z</time></trkpt>
<trkpt lat="42.181773" lon="23.37241"><ele>2161.8</ele><time>2026-03-02T11:28:17.000Z</time></trkpt>
<trkpt lat="42.181786" lon="23.372401"><ele>2161.8</ele><time>2026-03-02T11:28:18.000Z</time></trkpt>
<trkpt lat="42.181798" lon="23.372393"><ele>2161.8</ele><time>2026-03-02T11:28:19.000Z</time></trkpt>
<trkpt lat="42.181809" lon="23.372385"><ele>2160</ele><time>2026-03-02T11:28:20.000Z</time></trkpt>
<trkpt lat="42.18182" lon="23.372376"><ele>2160</ele><time>2026-03-02T11:28:21.000Z</time></trkpt>
<trkpt lat="42.181832" lon="23.372368"><ele>2160</ele><time>2026-03-02T11:28:22.000Z</time></trkpt>
<trkpt lat="42.181844" lon="23.372362"><ele>2160</ele><time>2026-03-02T11:28:23.000Z</time></trkpt>
<trkpt lat="42.181855" lon="23.372355"><ele>2160</ele><time>2026-03-02T11:28:24.000Z</time></trkpt>
<trkpt lat="42.181867" lon="23.372347"><ele>2159</ele><time>2026-03-02T11:28:25.000Z</time></trkpt>
<trkpt lat="42.181878" lon="23.37234"><ele>2159</ele><time>2026-03-02T11:28:26.000Z</time></trkpt>
<trkpt lat="42.181889" lon="23.372332"><ele>2159</ele><time>2026-03-02T11:28:27.000Z</time></trkpt>
<trkpt lat="42.181901" lon="23.372326"><ele>2159</ele><time>2026-03-02T11:28:28.000Z</time></trkpt>
<trkpt lat="42.181912" lon="23.372321"><ele>2159</ele><time>2026-03-02T11:28:29.000Z</time></trkpt>
<trkpt lat="42.181925" lon="23.372319"><ele>2156.7</ele><time>2026-03-02T11:28:30.000Z</time></trkpt>
<trkpt lat="42.181939" lon="23.372319"><ele>2156.7</ele><time>2026-03-02T11:28:31.000Z</time></trkpt>
<trkpt lat="42.181953" lon="23.372319"><ele>2156.7</ele><time>2026-03-02T11:28:32.000Z</time></trkpt>
<trkpt lat="42.181967" lon="23.372319"><ele>2156.7</ele><time>2026-03-02T11:28:33.000Z</time></trkpt>
<trkpt lat="42.181981" lon="23.372319"><ele>2156.7</ele><time>2026-03-02T11:28:34.000Z</time></trkpt>
<trkpt lat="42.181995" lon="23.37232"><ele>2154.6</ele><time>2026-03-02T11:28:35.000Z</time></trkpt>
<trkpt lat="42.18201" lon="23.37232"><ele>2154.6</ele><time>2026-03-02T11:28:36.000Z</time></trkpt>
<trkpt lat="42.182024" lon="23.372319"><ele>2154.6</ele><time>2026-03-02T11:28:37.000Z</time></trkpt>
<trkpt lat="42.182038" lon="23.372317"><ele>2154.6</ele><time>2026-03-02T11:28:38.000Z</time></trkpt>
<trkpt lat="42.182053" lon="23.372314"><ele>2154.6</ele><time>2026-03-02T11:28:39.000Z</time></trkpt>
<trkpt lat="42.182067" lon="23.372309"><ele>2153.6</ele><time>2026-03-02T11:28:40.000Z</time></trkpt>
<trkpt lat="42.182081" lon="23.372304"><ele>2153.6</ele><time>2026-03-02T11:28:41.000Z</time></trkpt>
<trkpt lat="42.182096" lon="23.372301"><ele>2153.6</ele><time>2026-03-02T11:28:42.000Z</time></trkpt>
<trkpt lat="42.18211" lon="23.3723"><ele>2153.6</ele><time>2026-03-02T11:28:43.000Z</time></trkpt>
<trkpt lat="42.182124" lon="23.3723"><ele>2153.6</ele><time>2026-03-02T11:28:44.000Z</time></trkpt>
<trkpt lat="42.182138" lon="23.3723"><ele>2152</ele><time>2026-03-02T11:28:45.000Z</time></trkpt>
<trkpt lat="42.182152" lon="23.372299"><ele>2152</ele><time>2026-03-02T11:28:46.000Z</time></trkpt>
<trkpt lat="42.182166" lon="23.372298"><ele>2152</ele><time>2026-03-02T11:28:47.000Z</time></trkpt>
<trkpt lat="42.182179" lon="23.372296"><ele>2152</ele><time>2026-03-02T11:28:48.000Z</time></trkpt>
<trkpt lat="42.182193" lon="23.372294"><ele>2152</ele><time>2026-03-02T11:28:49.000Z</time></trkpt>
<trkpt lat="42.182206" lon="23.372291"><ele>2150.4</ele><time>2026-03-02T11:28:50.000Z</time></trkpt>
<trkpt lat="42.182219" lon="23.372289"><ele>2150.4</ele><time>2026-03-02T11:28:51.000Z</time></trkpt>
<trkpt lat="42.182232" lon="23.372286"><ele>2150.4</ele><time>2026-03-02T11:28:52.000Z</time></trkpt>
<trkpt lat="42.182246" lon="23.372284"><ele>2150.4</ele><time>2026-03-02T11:28:53.000Z</time></trkpt>
<trkpt lat="42.18226" lon="23.372281"><ele>2150.4</ele><time>2026-03-02T11:28:54.000Z</time></trkpt>
<trkpt lat="42.182275" lon="23.372277"><ele>2149.5</ele><time>2026-03-02T11:28:55.000Z</time></trkpt>
<trkpt lat="42.182291" lon="23.372272"><ele>2149.5</ele><time>2026-03-02T11:28:56.000Z</time></trkpt>
<trkpt lat="42.182306" lon="23.372268"><ele>2149.5</ele><time>2026-03-02T11:28:57.000Z</time></trkpt>
<trkpt lat="42.182321" lon="23.372263"><ele>2149.5</ele><time>2026-03-02T11:28:58.000Z</time></trkpt>
<trkpt lat="42.182335" lon="23.372259"><ele>2149.5</ele><time>2026-03-02T11:28:59.000Z</time></trkpt>
<trkpt lat="42.182349" lon="23.372257"><ele>2147.7</ele><time>2026-03-02T11:29:00.000Z</time></trkpt>
<trkpt lat="42.182363" lon="23.372254"><ele>2147.7</ele><time>2026-03-02T11:29:01.000Z</time></trkpt>
<trkpt lat="42.182377" lon="23.372252"><ele>2147.7</ele><time>2026-03-02T11:29:02.000Z</time></trkpt>
<trkpt lat="42.182391" lon="23.37225"><ele>2147.7</ele><time>2026-03-02T11:29:03.000Z</time></trkpt>
<trkpt lat="42.182404" lon="23.372248"><ele>2147.7</ele><time>2026-03-02T11:29:04.000Z</time></trkpt>
<trkpt lat="42.182417" lon="23.372248"><ele>2145.9</ele><time>2026-03-02T11:29:05.000Z</time></trkpt>
<trkpt lat="42.18243" lon="23.372249"><ele>2145.9</ele><time>2026-03-02T11:29:06.000Z</time></trkpt>
<trkpt lat="42.182443" lon="23.372251"><ele>2145.9</ele><time>2026-03-02T11:29:07.000Z</time></trkpt>
<trkpt lat="42.182456" lon="23.372253"><ele>2145.9</ele><time>2026-03-02T11:29:08.000Z</time></trkpt>
<trkpt lat="42.18247" lon="23.372256"><ele>2145.9</ele><time>2026-03-02T11:29:09.000Z</time></trkpt>
<trkpt lat="42.182484" lon="23.372257"><ele>2145</ele><time>2026-03-02T11:29:10.000Z</time></trkpt>
<trkpt lat="42.182498" lon="23.372257"><ele>2145</ele><time>2026-03-02T11:29:11.000Z</time></trkpt>
<trkpt lat="42.182513" lon="23.372257"><ele>2145</ele><time>2026-03-02T11:29:12.000Z</time></trkpt>
<trkpt lat="42.182528" lon="23.372256"><ele>2145</ele><time>2026-03-02T11:29:13.000Z</time></trkpt>
<trkpt lat="42.182542" lon="23.372256"><ele>2145</ele><time>2026-03-02T11:29:14.000Z</time></trkpt>
<trkpt lat="42.182555" lon="23.372255"><ele>2143.6</ele><time>2026-03-02T11:29:15.000Z</time></trkpt>
<trkpt lat="42.182569" lon="23.372254"><ele>2143.6</ele><time>2026-03-02T11:29:16.000Z</time></trkpt>
<trkpt lat="42.182582" lon="23.372252"><ele>2143.6</ele><time>2026-03-02T11:29:17.000Z</time></trkpt>
<trkpt lat="42.182595" lon="23.37225"><ele>2143.6</ele><time>2026-03-02T11:29:18.000Z</time></trkpt>
<trkpt lat="42.182609" lon="23.372248"><ele>2143.6</ele><time>2026-03-02T11:29:19.000Z</time></trkpt>
<trkpt lat="42.182623" lon="23.372249"><ele>2142.5</ele><time>2026-03-02T11:29:20.000Z</time></trkpt>
<trkpt lat="42.182637" lon="23.37225"><ele>2142.5</ele><time>2026-03-02T11:29:21.000Z</time></trkpt>
<trkpt lat="42.182652" lon="23.372252"><ele>2142.5</ele><time>2026-03-02T11:29:22.000Z</time></trkpt>
<trkpt lat="42.182667" lon="23.372254"><ele>2142.5</ele><time>2026-03-02T11:29:23.000Z</time></trkpt>
<trkpt lat="42.182682" lon="23.372256"><ele>2142.5</ele><time>2026-03-02T11:29:24.000Z</time></trkpt>
<trkpt lat="42.182697" lon="23.372257"><ele>2142.1</ele><time>2026-03-02T11:29:25.000Z</time></trkpt>
<trkpt lat="42.182711" lon="23.372259"><ele>2142.1</ele><time>2026-03-02T11:29:26.000Z</time></trkpt>
<trkpt lat="42.182725" lon="23.372259"><ele>2142.1</ele><time>2026-03-02T11:29:27.000Z</time></trkpt>
<trkpt lat="42.182738" lon="23.37226"><ele>2142.1</ele><time>2026-03-02T11:29:28.000Z</time></trkpt>
<trkpt lat="42.182751" lon="23.372261"><ele>2142.1</ele><time>2026-03-02T11:29:29.000Z</time></trkpt>
<trkpt lat="42.182764" lon="23.372261"><ele>2141.2</ele><time>2026-03-02T11:29:30.000Z</time></trkpt>
<trkpt lat="42.182777" lon="23.37226"><ele>2141.2</ele><time>2026-03-02T11:29:31.000Z</time></trkpt>
<trkpt lat="42.182791" lon="23.37226"><ele>2141.2</ele><time>2026-03-02T11:29:32.000Z</time></trkpt>
<trkpt lat="42.182805" lon="23.372259"><ele>2141.2</ele><time>2026-03-02T11:29:33.000Z</time></trkpt>
<trkpt lat="42.182818" lon="23.372258"><ele>2141.2</ele><time>2026-03-02T11:29:34.000Z</time></trkpt>
<trkpt lat="42.182832" lon="23.372256"><ele>2140.4</ele><time>2026-03-02T11:29:35.000Z</time></trkpt>
<trkpt lat="42.182845" lon="23.372254"><ele>2140.4</ele><time>2026-03-02T11:29:36.000Z</time></trkpt>
<trkpt lat="42.182857" lon="23.372253"><ele>2140.4</ele><time>2026-03-02T11:29:37.000Z</time></trkpt>
<trkpt lat="42.18287" lon="23.372252"><ele>2140.4</ele><time>2026-03-02T11:29:38.000Z</time></trkpt>
<trkpt lat="42.182884" lon="23.372254"><ele>2140.4</ele><time>2026-03-02T11:29:39.000Z</time></trkpt>
<trkpt lat="42.182898" lon="23.372256"><ele>2140</ele><time>2026-03-02T11:29:40.000Z</time></trkpt>
<trkpt lat="42.182914" lon="23.372258"><ele>2140</ele><time>2026-03-02T11:29:41.000Z</time></trkpt>
<trkpt lat="42.18293" lon="23.372259"><ele>2140</ele><time>2026-03-02T11:29:42.000Z</time></trkpt>
<trkpt lat="42.182945" lon="23.372259"><ele>2140</ele><time>2026-03-02T11:29:43.000Z</time></trkpt>
<trkpt lat="42.18296" lon="23.372257"><ele>2140</ele><time>2026-03-02T11:29:44.000Z</time></trkpt>
<trkpt lat="42.182973" lon="23.372256"><ele>2139.2</ele><time>2026-03-02T11:29:45.000Z</time></trkpt>
<trkpt lat="42.182985" lon="23.372256"><ele>2139.2</ele><time>2026-03-02T11:29:46.000Z</time></trkpt>
<trkpt lat="42.182998" lon="23.372256"><ele>2139.2</ele><time>2026-03-02T11:29:47.000Z</time></trkpt>
<trkpt lat="42.183011" lon="23.372258"><ele>2139.2</ele><time>2026-03-02T11:29:48.000Z</time></trkpt>
<trkpt lat="42.183025" lon="23.372259"><ele>2139.2</ele><time>2026-03-02T11:29:49.000Z</time></trkpt>
<trkpt lat="42.183038" lon="23.37226"><ele>2138.4</ele><time>2026-03-02T11:29:50.000Z</time></trkpt>
<trkpt lat="42.183053" lon="23.372261"><ele>2138.4</ele><time>2026-03-02T11:29:51.000Z</time></trkpt>
<trkpt lat="42.183067" lon="23.372262"><ele>2138.4</ele><time>2026-03-02T11:29:52.000Z</time></trkpt>
<trkpt lat="42.18308" lon="23.372265"><ele>2138.4</ele><time>2026-03-02T11:29:53.000Z</time></trkpt>
<trkpt lat="42.183094" lon="23.372269"><ele>2138.4</ele><time>2026-03-02T11:29:54.000Z</time></trkpt>
<trkpt lat="42.183107" lon="23.372275"><ele>2138.1</ele><time>2026-03-02T11:29:55.000Z</time></trkpt>
<trkpt lat="42.183118" lon="23.372281"><ele>2138.1</ele><time>2026-03-02T11:29:56.000Z</time></trkpt>
<trkpt lat="42.183128" lon="23.372286"><ele>2138.1</ele><time>2026-03-02T11:29:57.000Z</time></trkpt>
<trkpt lat="42.183137" lon="23.372291"><ele>2138.1</ele><time>2026-03-02T11:29:58.000Z</time></trkpt>
<trkpt lat="42.183146" lon="23.372296"><ele>2138.1</ele><time>2026-03-02T11:29:59.000Z</time></trkpt>
<trkpt lat="42.183156" lon="23.372299"><ele>2137.5</ele><time>2026-03-02T11:30:00.000Z</time></trkpt>
<trkpt lat="42.183167" lon="23.372303"><ele>2137.5</ele><time>2026-03-02T11:30:01.000Z</time></trkpt>
<trkpt lat="42.183179" lon="23.372308"><ele>2137.5</ele><time>2026-03-02T11:30:02.000Z</time></trkpt>
<trkpt lat="42.183191" lon="23.372313"><ele>2137.5</ele><time>2026-03-02T11:30:03.000Z</time></trkpt>
<trkpt lat="42.183204" lon="23.372318"><ele>2137.5</ele><time>2026-03-02T11:30:04.000Z</time></trkpt>
<trkpt lat="42.183216" lon="23.372325"><ele>2137.2</ele><time>2026-03-02T11:30:05.000Z</time></trkpt>
<trkpt lat="42.183229" lon="23.372332"><ele>2137.2</ele><time>2026-03-02T11:30:06.000Z</time></trkpt>
<trkpt lat="42.183242" lon="23.372339"><ele>2137.2</ele><time>2026-03-02T11:30:07.000Z</time></trkpt>
<trkpt lat="42.183254" lon="23.372347"><ele>2137.2</ele><time>2026-03-02T11:30:08.000Z</time></trkpt>
<trkpt lat="42.183266" lon="23.372354"><ele>2137.2</ele><time>2026-03-02T11:30:09.000Z</time></trkpt>
<trkpt lat="42.183278" lon="23.372362"><ele>2137.2</ele><time>2026-03-02T11:30:10.000Z</time></trkpt>
<trkpt lat="42.183289" lon="23.37237"><ele>2137.2</ele><time>2026-03-02T11:30:11.000Z</time></trkpt>
<trkpt lat="42.183298" lon="23.372379"><ele>2137.2</ele><time>2026-03-02T11:30:12.000Z</time></trkpt>
<trkpt lat="42.183306" lon="23.372389"><ele>2137.2</ele><time>2026-03-02T11:30:13.000Z</time></trkpt>
<trkpt lat="42.183313" lon="23.372398"><ele>2137.2</ele><time>2026-03-02T11:30:14.000Z</time></trkpt>
<trkpt lat="42.18332" lon="23.372406"><ele>2137.1</ele><time>2026-03-02T11:30:15.000Z</time></trkpt>
<trkpt lat="42.183328" lon="23.372414"><ele>2137.1</ele><time>2026-03-02T11:30:16.000Z</time></trkpt>
<trkpt lat="42.183337" lon="23.372421"><ele>2137.1</ele><time>2026-03-02T11:30:17.000Z</time></trkpt>
<trkpt lat="42.183349" lon="23.372428"><ele>2137.1</ele><time>2026-03-02T11:30:18.000Z</time></trkpt>
<trkpt lat="42.183363" lon="23.372434"><ele>2137.1</ele><time>2026-03-02T11:30:19.000Z</time></trkpt>
<trkpt lat="42.183377" lon="23.372441"><ele>2136.8</ele><time>2026-03-02T11:30:20.000Z</time></trkpt>
<trkpt lat="42.183389" lon="23.372447"><ele>2136.8</ele><time>2026-03-02T11:30:21.000Z</time></trkpt>
<trkpt lat="42.183403" lon="23.372452"><ele>2136.8</ele><time>2026-03-02T11:30:22.000Z</time></trkpt>
<trkpt lat="42.183415" lon="23.372457"><ele>2136.8</ele><time>2026-03-02T11:30:23.000Z</time></trkpt>
<trkpt lat="42.183426" lon="23.372462"><ele>2136.8</ele><time>2026-03-02T11:30:24.000Z</time></trkpt>
<trkpt lat="42.183437" lon="23.372467"><ele>2136.6</ele><time>2026-03-02T11:30:25.000Z</time></trkpt>
<trkpt lat="42.183449" lon="23.372472"><ele>2136.6</ele><time>2026-03-02T11:30:26.000Z</time></trkpt>
<trkpt lat="42.183461" lon="23.372479"><ele>2136.6</ele><time>2026-03-02T11:30:27.000Z</time></trkpt>
<trkpt lat="42.183474" lon="23.372486"><ele>2136.6</ele><time>2026-03-02T11:30:28.000Z</time></trkpt>
<trkpt lat="42.183488" lon="23.372493"><ele>2136.6</ele><time>2026-03-02T11:30:29.000Z</time></trkpt>
<trkpt lat="42.183503" lon="23.372501"><ele>2135.9</ele><time>2026-03-02T11:30:30.000Z</time></trkpt>
<trkpt lat="42.183517" lon="23.372509"><ele>2135.9</ele><time>2026-03-02T11:30:31.000Z</time></trkpt>
<trkpt lat="42.183532" lon="23.372518"><ele>2135.9</ele><time>2026-03-02T11:30:32.000Z</time></trkpt>
<trkpt lat="42.183547" lon="23.372528"><ele>2135.9</ele><time>2026-03-02T11:30:33.000Z</time></trkpt>
<trkpt lat="42.18356" lon="23.372537"><ele>2135.9</ele><time>2026-03-02T11:30:34.000Z</time></trkpt>
<trkpt lat="42.183573" lon="23.372547"><ele>2134.7</ele><time>2026-03-02T11:30:35.000Z</time></trkpt>
<trkpt lat="42.183585" lon="23.372557"><ele>2134.7</ele><time>2026-03-02T11:30:36.000Z</time></trkpt>
<trkpt lat="42.183595" lon="23.372565"><ele>2134.7</ele><time>2026-03-02T11:30:37.000Z</time></trkpt>
<trkpt lat="42.183606" lon="23.372574"><ele>2134.7</ele><time>2026-03-02T11:30:38.000Z</time></trkpt>
<trkpt lat="42.183617" lon="23.372583"><ele>2134.7</ele><time>2026-03-02T11:30:39.000Z</time></trkpt>
<trkpt lat="42.183629" lon="23.372591"><ele>2134.1</ele><time>2026-03-02T11:30:40.000Z</time></trkpt>
<trkpt lat="42.183642" lon="23.3726"><ele>2134.1</ele><time>2026-03-02T11:30:41.000Z</time></trkpt>
<trkpt lat="42.183657" lon="23.372609"><ele>2134.1</ele><time>2026-03-02T11:30:42.000Z</time></trkpt>
<trkpt lat="42.18367" lon="23.372619"><ele>2134.1</ele><time>2026-03-02T11:30:43.000Z</time></trkpt>
<trkpt lat="42.183683" lon="23.372627"><ele>2134.1</ele><time>2026-03-02T11:30:44.000Z</time></trkpt>
<trkpt lat="42.183696" lon="23.372637"><ele>2132.7</ele><time>2026-03-02T11:30:45.000Z</time></trkpt>
<trkpt lat="42.183709" lon="23.372647"><ele>2132.7</ele><time>2026-03-02T11:30:46.000Z</time></trkpt>
<trkpt lat="42.183722" lon="23.372657"><ele>2132.7</ele><time>2026-03-02T11:30:47.000Z</time></trkpt>
<trkpt lat="42.183735" lon="23.372666"><ele>2132.7</ele><time>2026-03-02T11:30:48.000Z</time></trkpt>
<trkpt lat="42.183747" lon="23.372675"><ele>2132.7</ele><time>2026-03-02T11:30:49.000Z</time></trkpt>
<trkpt lat="42.18376" lon="23.372683"><ele>2131.4</ele><time>2026-03-02T11:30:50.000Z</time></trkpt>
<trkpt lat="42.183773" lon="23.372692"><ele>2131.4</ele><time>2026-03-02T11:30:51.000Z</time></trkpt>
<trkpt lat="42.183787" lon="23.372702"><ele>2131.4</ele><time>2026-03-02T11:30:52.000Z</time></trkpt>
<trkpt lat="42.183801" lon="23.372712"><ele>2131.4</ele><time>2026-03-02T11:30:53.000Z</time></trkpt>
<trkpt lat="42.183815" lon="23.372722"><ele>2131.4</ele><time>2026-03-02T11:30:54.000Z</time></trkpt>
<trkpt lat="42.183829" lon="23.372732"><ele>2130.9</ele><time>2026-03-02T11:30:55.000Z</time></trkpt>
<trkpt lat="42.183842" lon="23.372742"><ele>2130.9</ele><time>2026-03-02T11:30:56.000Z</time></trkpt>
<trkpt lat="42.183856" lon="23.372752"><ele>2130.9</ele><time>2026-03-02T11:30:57.000Z</time></trkpt>
<trkpt lat="42.183869" lon="23.372761"><ele>2130.9</ele><time>2026-03-02T11:30:58.000Z</time></trkpt>
<trkpt lat="42.183882" lon="23.37277"><ele>2130.9</ele><time>2026-03-02T11:30:59.000Z</time></trkpt>
<trkpt lat="42.183894" lon="23.372778"><ele>2129.8</ele><time>2026-03-02T11:31:00.000Z</time></trkpt>
<trkpt lat="42.183905" lon="23.372786"><ele>2129.8</ele><time>2026-03-02T11:31:01.000Z</time></trkpt>
<trkpt lat="42.183916" lon="23.372794"><ele>2129.8</ele><time>2026-03-02T11:31:02.000Z</time></trkpt>
<trkpt lat="42.183926" lon="23.372801"><ele>2129.8</ele><time>2026-03-02T11:31:03.000Z</time></trkpt>
<trkpt lat="42.183936" lon="23.372809"><ele>2129.8</ele><time>2026-03-02T11:31:04.000Z</time></trkpt>
<trkpt lat="42.183946" lon="23.372818"><ele>2128.8</ele><time>2026-03-02T11:31:05.000Z</time></trkpt>
<trkpt lat="42.183957" lon="23.372826"><ele>2128.8</ele><time>2026-03-02T11:31:06.000Z</time></trkpt>
<trkpt lat="42.183969" lon="23.372834"><ele>2128.8</ele><time>2026-03-02T11:31:07.000Z</time></trkpt>
<trkpt lat="42.183981" lon="23.372842"><ele>2128.8</ele><time>2026-03-02T11:31:08.000Z</time></trkpt>
<trkpt lat="42.183994" lon="23.372849"><ele>2128.8</ele><time>2026-03-02T11:31:09.000Z</time></trkpt>
<trkpt lat="42.184008" lon="23.372858"><ele>2128.3</ele><time>2026-03-02T11:31:10.000Z</time></trkpt>
<trkpt lat="42.184023" lon="23.372867"><ele>2128.3</ele><time>2026-03-02T11:31:11.000Z</time></trkpt>
<trkpt lat="42.184038" lon="23.372876"><ele>2128.3</ele><time>2026-03-02T11:31:12.000Z</time></trkpt>
<trkpt lat="42.184053" lon="23.372885"><ele>2128.3</ele><time>2026-03-02T11:31:13.000Z</time></trkpt>
<trkpt lat="42.184068" lon="23.372896"><ele>2128.3</ele><time>2026-03-02T11:31:14.000Z</time></trkpt>
<trkpt lat="42.184083" lon="23.372905"><ele>2127.5</ele><time>2026-03-02T11:31:15.000Z</time></trkpt>
<trkpt lat="42.184097" lon="23.372914"><ele>2127.5</ele><time>2026-03-02T11:31:16.000Z</time></trkpt>
<trkpt lat="42.18411" lon="23.372921"><ele>2127.5</ele><time>2026-03-02T11:31:17.000Z</time></trkpt>
<trkpt lat="42.184122" lon="23.372928"><ele>2127.5</ele><time>2026-03-02T11:31:18.000Z</time></trkpt>
<trkpt lat="42.184133" lon="23.372934"><ele>2127.5</ele><time>2026-03-02T11:31:19.000Z</time></trkpt>
<trkpt lat="42.184143" lon="23.37294"><ele>2126.6</ele><time>2026-03-02T11:31:20.000Z</time></trkpt>
<trkpt lat="42.184154" lon="23.372946"><ele>2126.6</ele><time>2026-03-02T11:31:21.000Z</time></trkpt>
<trkpt lat="42.184164" lon="23.372952"><ele>2126.6</ele><time>2026-03-02T11:31:22.000Z</time></trkpt>
<trkpt lat="42.184175" lon="23.372959"><ele>2126.6</ele><time>2026-03-02T11:31:23.000Z</time></trkpt>
<trkpt lat="42.184186" lon="23.372966"><ele>2126.6</ele><time>2026-03-02T11:31:24.000Z</time></trkpt>
<trkpt lat="42.184198" lon="23.372973"><ele>2126.2</ele><time>2026-03-02T11:31:25.000Z</time></trkpt>
<trkpt lat="42.184211" lon="23.37298"><ele>2126.2</ele><time>2026-03-02T11:31:26.000Z</time></trkpt>
<trkpt lat="42.184224" lon="23.372986"><ele>2126.2</ele><time>2026-03-02T11:31:27.000Z</time></trkpt>
<trkpt lat="42.184236" lon="23.372992"><ele>2126.2</ele><time>2026-03-02T11:31:28.000Z</time></trkpt>
<trkpt lat="42.184249" lon="23.372998"><ele>2126.2</ele><time>2026-03-02T11:31:29.000Z</time></trkpt>
<trkpt lat="42.184261" lon="23.373005"><ele>2125.3</ele><time>2026-03-02T11:31:30.000Z</time></trkpt>
<trkpt lat="42.184274" lon="23.373013"><ele>2125.3</ele><time>2026-03-02T11:31:31.000Z</time></trkpt>
<trkpt lat="42.184286" lon="23.373022"><ele>2125.3</ele><time>2026-03-02T11:31:32.000Z</time></trkpt>
<trkpt lat="42.184299" lon="23.373031"><ele>2125.3</ele><time>2026-03-02T11:31:33.000Z</time></trkpt>
<trkpt lat="42.184311" lon="23.37304"><ele>2125.3</ele><time>2026-03-02T11:31:34.000Z</time></trkpt>
<trkpt lat="42.184322" lon="23.373048"><ele>2124.2</ele><time>2026-03-02T11:31:35.000Z</time></trkpt>
<trkpt lat="42.184333" lon="23.373055"><ele>2124.2</ele><time>2026-03-02T11:31:36.000Z</time></trkpt>
<trkpt lat="42.184344" lon="23.37306"><ele>2124.2</ele><time>2026-03-02T11:31:37.000Z</time></trkpt>
<trkpt lat="42.184354" lon="23.373065"><ele>2124.2</ele><time>2026-03-02T11:31:38.000Z</time></trkpt>
<trkpt lat="42.184363" lon="23.373072"><ele>2124.2</ele><time>2026-03-02T11:31:39.000Z</time></trkpt>
<trkpt lat="42.184372" lon="23.373079"><ele>2123.7</ele><time>2026-03-02T11:31:40.000Z</time></trkpt>
<trkpt lat="42.184382" lon="23.373086"><ele>2123.7</ele><time>2026-03-02T11:31:41.000Z</time></trkpt>
<trkpt lat="42.184392" lon="23.373093"><ele>2123.7</ele><time>2026-03-02T11:31:42.000Z</time></trkpt>
<trkpt lat="42.184404" lon="23.373097"><ele>2123.7</ele><time>2026-03-02T11:31:43.000Z</time></trkpt>
<trkpt lat="42.184417" lon="23.373099"><ele>2123.7</ele><time>2026-03-02T11:31:44.000Z</time></trkpt>
<trkpt lat="42.184432" lon="23.373099"><ele>2122.5</ele><time>2026-03-02T11:31:45.000Z</time></trkpt>
<trkpt lat="42.184447" lon="23.373097"><ele>2122.5</ele><time>2026-03-02T11:31:46.000Z</time></trkpt>
<trkpt lat="42.184463" lon="23.373096"><ele>2122.5</ele><time>2026-03-02T11:31:47.000Z</time></trkpt>
<trkpt lat="42.184477" lon="23.373095"><ele>2122.5</ele><time>2026-03-02T11:31:48.000Z</time></trkpt>
<trkpt lat="42.184491" lon="23.373093"><ele>2122.5</ele><time>2026-03-02T11:31:49.000Z</time></trkpt>
<trkpt lat="42.184505" lon="23.37309"><ele>2121.3</ele><time>2026-03-02T11:31:50.000Z</time></trkpt>
<trkpt lat="42.184519" lon="23.373089"><ele>2121.3</ele><time>2026-03-02T11:31:51.000Z</time></trkpt>
<trkpt lat="42.184532" lon="23.373087"><ele>2121.3</ele><time>2026-03-02T11:31:52.000Z</time></trkpt>
<trkpt lat="42.184546" lon="23.373086"><ele>2121.3</ele><time>2026-03-02T11:31:53.000Z</time></trkpt>
<trkpt lat="42.18456" lon="23.373085"><ele>2121.3</ele><time>2026-03-02T11:31:54.000Z</time></trkpt>
<trkpt lat="42.184573" lon="23.373083"><ele>2120.7</ele><time>2026-03-02T11:31:55.000Z</time></trkpt>
<trkpt lat="42.184587" lon="23.37308"><ele>2120.7</ele><time>2026-03-02T11:31:56.000Z</time></trkpt>
<trkpt lat="42.184601" lon="23.373075"><ele>2120.7</ele><time>2026-03-02T11:31:57.000Z</time></trkpt>
<trkpt lat="42.184614" lon="23.37307"><ele>2120.7</ele><time>2026-03-02T11:31:58.000Z</time></trkpt>
<trkpt lat="42.184627" lon="23.373066"><ele>2120.7</ele><time>2026-03-02T11:31:59.000Z</time></trkpt>
<trkpt lat="42.18464" lon="23.373063"><ele>2119.5</ele><time>2026-03-02T11:32:00.000Z</time></trkpt>
<trkpt lat="42.184653" lon="23.373059"><ele>2119.5</ele><time>2026-03-02T11:32:01.000Z</time></trkpt>
<trkpt lat="42.184667" lon="23.373055"><ele>2119.5</ele><time>2026-03-02T11:32:02.000Z</time></trkpt>
<trkpt lat="42.18468" lon="23.373051"><ele>2119.5</ele><time>2026-03-02T11:32:03.000Z</time></trkpt>
<trkpt lat="42.184695" lon="23.373047"><ele>2119.5</ele><time>2026-03-02T11:32:04.000Z</time></trkpt>
<trkpt lat="42.184709" lon="23.373043"><ele>2118</ele><time>2026-03-02T11:32:05.000Z</time></trkpt>
<trkpt lat="42.184723" lon="23.37304"><ele>2118</ele><time>2026-03-02T11:32:06.000Z</time></trkpt>
<trkpt lat="42.184737" lon="23.373037"><ele>2118</ele><time>2026-03-02T11:32:07.000Z</time></trkpt>
<trkpt lat="42.184752" lon="23.373035"><ele>2118</ele><time>2026-03-02T11:32:08.000Z</time></trkpt>
<trkpt lat="42.184766" lon="23.373034"><ele>2118</ele><time>2026-03-02T11:32:09.000Z</time></trkpt>
<trkpt lat="42.18478" lon="23.373033"><ele>2117.1</ele><time>2026-03-02T11:32:10.000Z</time></trkpt>
<trkpt lat="42.184794" lon="23.373031"><ele>2117.1</ele><time>2026-03-02T11:32:11.000Z</time></trkpt>
<trkpt lat="42.184807" lon="23.373028"><ele>2117.1</ele><time>2026-03-02T11:32:12.000Z</time></trkpt>
<trkpt lat="42.18482" lon="23.373024"><ele>2117.1</ele><time>2026-03-02T11:32:13.000Z</time></trkpt>
<trkpt lat="42.184833" lon="23.373019"><ele>2117.1</ele><time>2026-03-02T11:32:14.000Z</time></trkpt>
<trkpt lat="42.184845" lon="23.373014"><ele>2115.4</ele><time>2026-03-02T11:32:15.000Z</time></trkpt>
<trkpt lat="42.184856" lon="23.373009"><ele>2115.4</ele><time>2026-03-02T11:32:16.000Z</time></trkpt>
<trkpt lat="42.184867" lon="23.373003"><ele>2115.4</ele><time>2026-03-02T11:32:17.000Z</time></trkpt>
<trkpt lat="42.184878" lon="23.372996"><ele>2115.4</ele><time>2026-03-02T11:32:18.000Z</time></trkpt>
<trkpt lat="42.184888" lon="23.372989"><ele>2115.4</ele><time>2026-03-02T11:32:19.000Z</time></trkpt>
<trkpt lat="42.184897" lon="23.37298"><ele>2113.6</ele><time>2026-03-02T11:32:20.000Z</time></trkpt>
<trkpt lat="42.184907" lon="23.372973"><ele>2113.6</ele><time>2026-03-02T11:32:21.000Z</time></trkpt>
<trkpt lat="42.184918" lon="23.372967"><ele>2113.6</ele><time>2026-03-02T11:32:22.000Z</time></trkpt>
<trkpt lat="42.184928" lon="23.372962"><ele>2113.6</ele><time>2026-03-02T11:32:23.000Z</time></trkpt>
<trkpt lat="42.184939" lon="23.372956"><ele>2113.6</ele><time>2026-03-02T11:32:24.000Z</time></trkpt>
<trkpt lat="42.184951" lon="23.372951"><ele>2112.8</ele><time>2026-03-02T11:32:25.000Z</time></trkpt>
<trkpt lat="42.184963" lon="23.372945"><ele>2112.8</ele><time>2026-03-02T11:32:26.000Z</time></trkpt>
<trkpt lat="42.184976" lon="23.37294"><ele>2112.8</ele><time>2026-03-02T11:32:27.000Z</time></trkpt>
<trkpt lat="42.184989" lon="23.372935"><ele>2112.8</ele><time>2026-03-02T11:32:28.000Z</time></trkpt>
<trkpt lat="42.185001" lon="23.372931"><ele>2112.8</ele><time>2026-03-02T11:32:29.000Z</time></trkpt>
<trkpt lat="42.185014" lon="23.372928"><ele>2111.2</ele><time>2026-03-02T11:32:30.000Z</time></trkpt>
<trkpt lat="42.185025" lon="23.372926"><ele>2111.2</ele><time>2026-03-02T11:32:31.000Z</time></trkpt>
<trkpt lat="42.185038" lon="23.372924"><ele>2111.2</ele><time>2026-03-02T11:32:32.000Z</time></trkpt>
<trkpt lat="42.185049" lon="23.372922"><ele>2111.2</ele><time>2026-03-02T11:32:33.000Z</time></trkpt>
<trkpt lat="42.18506" lon="23.372921"><ele>2111.2</ele><time>2026-03-02T11:32:34.000Z</time></trkpt>
<trkpt lat="42.185071" lon="23.372921"><ele>2109.4</ele><time>2026-03-02T11:32:35.000Z</time></trkpt>
<trkpt lat="42.185081" lon="23.37292"><ele>2109.4</ele><time>2026-03-02T11:32:36.000Z</time></trkpt>
<trkpt lat="42.185088" lon="23.372919"><ele>2109.4</ele><time>2026-03-02T11:32:37.000Z</time></trkpt>
<trkpt lat="42.185094" lon="23.372917"><ele>2109.4</ele><time>2026-03-02T11:32:38.000Z</time></trkpt>
<trkpt lat="42.185099" lon="23.372916"><ele>2109.4</ele><time>2026-03-02T11:32:39.000Z</time></trkpt>
<trkpt lat="42.1851" lon="23.372915"><ele>2108.4</ele><time>2026-03-02T11:32:40.000Z</time></trkpt>
<trkpt lat="42.185099" lon="23.372915"><ele>2108.4</ele><time>2026-03-02T11:32:41.000Z</time></trkpt>
<trkpt lat="42.185099" lon="23.372914"><ele>2108.4</ele><time>2026-03-02T11:32:42.000Z</time></trkpt>
<trkpt lat="42.185097" lon="23.372914"><ele>2108.4</ele><time>2026-03-02T11:32:43.000Z</time></trkpt>
<trkpt lat="42.185097" lon="23.372914"><ele>2108.4</ele><time>2026-03-02T11:32:44.000Z</time></trkpt>
<trkpt lat="42.185096" lon="23.372913"><ele>2106.4</ele><time>2026-03-02T11:32:45.000Z</time></trkpt>
<trkpt lat="42.185097" lon="23.372913"><ele>2106.4</ele><time>2026-03-02T11:32:46.000Z</time></trkpt>
<trkpt lat="42.185097" lon="23.372913"><ele>2106.4</ele><time>2026-03-02T11:32:47.000Z</time></trkpt>
<trkpt lat="42.185097" lon="23.372913"><ele>2106.4</ele><time>2026-03-02T11:32:48.000Z</time></trkpt>
<trkpt lat="42.185099" lon="23.372913"><ele>2106.4</ele><time>2026-03-02T11:32:49.000Z</time></trkpt>
<trkpt lat="42.1851" lon="23.372914"><ele>2105</ele><time>2026-03-02T11:32:50.000Z</time></trkpt>
<trkpt lat="42.185101" lon="23.372914"><ele>2105</ele><time>2026-03-02T11:32:51.000Z</time></trkpt>
<trkpt lat="42.185101" lon="23.372914"><ele>2105</ele><time>2026-03-02T11:32:52.000Z</time></trkpt>
<trkpt lat="42.185102" lon="23.372914"><ele>2105</ele><time>2026-03-02T11:32:53.000Z</time></trkpt>
<trkpt lat="42.185102" lon="23.372914"><ele>2105</ele><time>2026-03-02T11:32:54.000Z</time></trkpt>
<trkpt lat="42.185102" lon="23.372914"><ele>2104.7</ele><time>2026-03-02T11:32:55.000Z</time></trkpt>
<trkpt lat="42.185105" lon="23.372914"><ele>2104.7</ele><time>2026-03-02T11:32:56.000Z</time></trkpt>
<trkpt lat="42.185111" lon="23.372914"><ele>2104.7</ele><time>2026-03-02T11:32:57.000Z</time></trkpt>
<trkpt lat="42.185118" lon="23.372912"><ele>2104.7</ele><time>2026-03-02T11:32:58.000Z</time></trkpt>
<trkpt lat="42.185128" lon="23.372911"><ele>2104.7</ele><time>2026-03-02T11:32:59.000Z</time></trkpt>
<trkpt lat="42.185141" lon="23.372908"><ele>2104.5</ele><time>2026-03-02T11:33:00.000Z</time></trkpt>
<trkpt lat="42.185154" lon="23.372905"><ele>2104.5</ele><time>2026-03-02T11:33:01.000Z</time></trkpt>
<trkpt lat="42.185166" lon="23.3729"><ele>2104.5</ele><time>2026-03-02T11:33:02.000Z</time></trkpt>
<trkpt lat="42.185178" lon="23.372895"><ele>2104.5</ele><time>2026-03-02T11:33:03.000Z</time></trkpt>
<trkpt lat="42.18519" lon="23.372888"><ele>2104.5</ele><time>2026-03-02T11:33:04.000Z</time></trkpt>
<trkpt lat="42.185202" lon="23.372882"><ele>2104.4</ele><time>2026-03-02T11:33:05.000Z</time></trkpt>
<trkpt lat="42.185214" lon="23.372878"><ele>2104.4</ele><time>2026-03-02T11:33:06.000Z</time></trkpt>
<trkpt lat="42.185226" lon="23.372876"><ele>2104.4</ele><time>2026-03-02T11:33:07.000Z</time></trkpt>
<trkpt lat="42.185237" lon="23.372876"><ele>2104.4</ele><time>2026-03-02T11:33:08.000Z</time></trkpt>
<trkpt lat="42.185249" lon="23.372877"><ele>2104.4</ele><time>2026-03-02T11:33:09.000Z</time></trkpt>
<trkpt lat="42.18526" lon="23.372879"><ele>2104.1</ele><time>2026-03-02T11:33:10.000Z</time></trkpt>
<trkpt lat="42.185271" lon="23.37288"><ele>2104.1</ele><time>2026-03-02T11:33:11.000Z</time></trkpt>
<trkpt lat="42.185281" lon="23.372879"><ele>2104.1</ele><time>2026-03-02T11:33:12.000Z</time></trkpt>
<trkpt lat="42.18529" lon="23.372878"><ele>2104.1</ele><time>2026-03-02T11:33:13.000Z</time></trkpt>
<trkpt lat="42.1853" lon="23.372876"><ele>2104.1</ele><time>2026-03-02T11:33:14.000Z</time></trkpt>
<trkpt lat="42.18531" lon="23.372873"><ele>2102.8</ele><time>2026-03-02T11:33:15.000Z</time></trkpt>
<trkpt lat="42.185321" lon="23.372872"><ele>2102.8</ele><time>2026-03-02T11:33:16.000Z</time></trkpt>
<trkpt lat="42.185333" lon="23.372869"><ele>2102.8</ele><time>2026-03-02T11:33:17.000Z</time></trkpt>
<trkpt lat="42.185344" lon="23.372867"><ele>2102.8</ele><time>2026-03-02T11:33:18.000Z</time></trkpt>
<trkpt lat="42.185356" lon="23.372863"><ele>2102.8</ele><time>2026-03-02T11:33:19.000Z</time></trkpt>
<trkpt lat="42.185368" lon="23.372859"><ele>2100.9</ele><time>2026-03-02T11:33:20.000Z</time></trkpt>
<trkpt lat="42.185379" lon="23.372853"><ele>2100.9</ele><time>2026-03-02T11:33:21.000Z</time></trkpt>
<trkpt lat="42.18539" lon="23.372846"><ele>2100.9</ele><time>2026-03-02T11:33:22.000Z</time></trkpt>
<trkpt lat="42.185402" lon="23.372839"><ele>2100.9</ele><time>2026-03-02T11:33:23.000Z</time></trkpt>
<trkpt lat="42.185414" lon="23.372832"><ele>2100.9</ele><time>2026-03-02T11:33:24.000Z</time></trkpt>
<trkpt lat="42.185425" lon="23.372827"><ele>2099.7</ele><time>2026-03-02T11:33:25.000Z</time></trkpt>
<trkpt lat="42.185437" lon="23.372822"><ele>2099.7</ele><time>2026-03-02T11:33:26.000Z</time></trkpt>
<trkpt lat="42.185449" lon="23.372818"><ele>2099.7</ele><time>2026-03-02T11:33:27.000Z</time></trkpt>
<trkpt lat="42.185462" lon="23.372815"><ele>2099.7</ele><time>2026-03-02T11:33:28.000Z</time></trkpt>
<trkpt lat="42.185474" lon="23.372812"><ele>2099.7</ele><time>2026-03-02T11:33:29.000Z</time></trkpt>
<trkpt lat="42.185486" lon="23.372808"><ele>2097.5</ele><time>2026-03-02T11:33:30.000Z</time></trkpt>
<trkpt lat="42.185498" lon="23.372804"><ele>2097.5</ele><time>2026-03-02T11:33:31.000Z</time></trkpt>
<trkpt lat="42.18551" lon="23.3728"><ele>2097.5</ele><time>2026-03-02T11:33:32.000Z</time></trkpt>
<trkpt lat="42.185522" lon="23.372796"><ele>2097.5</ele><time>2026-03-02T11:33:33.000Z</time></trkpt>
<trkpt lat="42.185535" lon="23.372792"><ele>2097.5</ele><time>2026-03-02T11:33:34.000Z</time></trkpt>
<trkpt lat="42.185548" lon="23.372789"><ele>2095.5</ele><time>2026-03-02T11:33:35.000Z</time></trkpt>
<trkpt lat="42.185561" lon="23.372786"><ele>2095.5</ele><time>2026-03-02T11:33:36.000Z</time></trkpt>
<trkpt lat="42.185574" lon="23.372784"><ele>2095.5</ele><time>2026-03-02T11:33:37.000Z</time></trkpt>
<trkpt lat="42.185586" lon="23.37278"><ele>2095.5</ele><time>2026-03-02T11:33:38.000Z</time></trkpt>
<trkpt lat="42.185599" lon="23.372777"><ele>2095.5</ele><time>2026-03-02T11:33:39.000Z</time></trkpt>
<trkpt lat="42.18561" lon="23.372774"><ele>2094.4</ele><time>2026-03-02T11:33:40.000Z</time></trkpt>
<trkpt lat="42.185622" lon="23.37277"><ele>2094.4</ele><time>2026-03-02T11:33:41.000Z</time></trkpt>
<trkpt lat="42.185633" lon="23.372765"><ele>2094.4</ele><time>2026-03-02T11:33:42.000Z</time></trkpt>
<trkpt lat="42.185644" lon="23.372761"><ele>2094.4</ele><time>2026-03-02T11:33:43.000Z</time></trkpt>
<trkpt lat="42.185655" lon="23.372756"><ele>2094.4</ele><time>2026-03-02T11:33:44.000Z</time></trkpt>
<trkpt lat="42.185667" lon="23.372751"><ele>2092.3</ele><time>2026-03-02T11:33:45.000Z</time></trkpt>
<trkpt lat="42.185678" lon="23.372747"><ele>2092.3</ele><time>2026-03-02T11:33:46.000Z</time></trkpt>
<trkpt lat="42.18569" lon="23.372744"><ele>2092.3</ele><time>2026-03-02T11:33:47.000Z</time></trkpt>
<trkpt lat="42.185701" lon="23.372741"><ele>2092.3</ele><time>2026-03-02T11:33:48.000Z</time></trkpt>
<trkpt lat="42.185711" lon="23.372739"><ele>2092.3</ele><time>2026-03-02T11:33:49.000Z</time></trkpt>
<trkpt lat="42.185721" lon="23.372737"><ele>2090.1</ele><time>2026-03-02T11:33:50.000Z</time></trkpt>
<trkpt lat="42.18573" lon="23.372734"><ele>2090.1</ele><time>2026-03-02T11:33:51.000Z</time></trkpt>
<trkpt lat="42.185739" lon="23.372729"><ele>2090.1</ele><time>2026-03-02T11:33:52.000Z</time></trkpt>
<trkpt lat="42.185749" lon="23.372724"><ele>2090.1</ele><time>2026-03-02T11:33:53.000Z</time></trkpt>
<trkpt lat="42.185758" lon="23.372718"><ele>2090.1</ele><time>2026-03-02T11:33:54.000Z</time></trkpt>
<trkpt lat="42.185767" lon="23.372714"><ele>2089.1</ele><time>2026-03-02T11:33:55.000Z</time></trkpt>
<trkpt lat="42.185775" lon="23.372709"><ele>2089.1</ele><time>2026-03-02T11:33:56.000Z</time></trkpt>
<trkpt lat="42.185784" lon="23.372706"><ele>2089.1</ele><time>2026-03-02T11:33:57.000Z</time></trkpt>
<trkpt lat="42.185792" lon="23.372702"><ele>2089.1</ele><time>2026-03-02T11:33:58.000Z</time></trkpt>
<trkpt lat="42.185799" lon="23.372699"><ele>2089.1</ele><time>2026-03-02T11:33:59.000Z</time></trkpt>
<trkpt lat="42.185807" lon="23.372695"><ele>2087.1</ele><time>2026-03-02T11:34:00.000Z</time></trkpt>
<trkpt lat="42.185815" lon="23.372691"><ele>2087.1</ele><time>2026-03-02T11:34:01.000Z</time></trkpt>
<trkpt lat="42.185824" lon="23.372685"><ele>2087.1</ele><time>2026-03-02T11:34:02.000Z</time></trkpt>
<trkpt lat="42.185832" lon="23.372678"><ele>2087.1</ele><time>2026-03-02T11:34:03.000Z</time></trkpt>
<trkpt lat="42.185842" lon="23.37267"><ele>2087.1</ele><time>2026-03-02T11:34:04.000Z</time></trkpt>
<trkpt lat="42.185851" lon="23.372662"><ele>2085</ele><time>2026-03-02T11:34:05.000Z</time></trkpt>
<trkpt lat="42.18586" lon="23.372655"><ele>2085</ele><time>2026-03-02T11:34:06.000Z</time></trkpt>
<trkpt lat="42.185869" lon="23.372647"><ele>2085</ele><time>2026-03-02T11:34:07.000Z</time></trkpt>
<trkpt lat="42.185878" lon="23.372639"><ele>2085</ele><time>2026-03-02T11:34:08.000Z</time></trkpt>
<trkpt lat="42.185887" lon="23.372631"><ele>2085</ele><time>2026-03-02T11:34:09.000Z</time></trkpt>
<trkpt lat="42.185896" lon="23.372622"><ele>2084</ele><time>2026-03-02T11:34:10.000Z</time></trkpt>
<trkpt lat="42.185905" lon="23.372613"><ele>2084</ele><time>2026-03-02T11:34:11.000Z</time></trkpt>
<trkpt lat="42.185913" lon="23.372604"><ele>2084</ele><time>2026-03-02T11:34:12.000Z</time></trkpt>
<trkpt lat="42.185921" lon="23.372596"><ele>2084</ele><time>2026-03-02T11:34:13.000Z</time></trkpt>
<trkpt lat="42.185929" lon="23.372593"><ele>2084</ele><time>2026-03-02T11:34:14.000Z</time></trkpt>
<trkpt lat="42.185935" lon="23.372592"><ele>2081.8</ele><time>2026-03-02T11:34:15.000Z</time></trkpt>
<trkpt lat="42.18594" lon="23.372593"><ele>2081.8</ele><time>2026-03-02T11:34:16.000Z</time></trkpt>
<trkpt lat="42.185944" lon="23.372595"><ele>2081.8</ele><time>2026-03-02T11:34:17.000Z</time></trkpt>
<trkpt lat="42.185948" lon="23.372595"><ele>2081.8</ele><time>2026-03-02T11:34:18.000Z</time></trkpt>
<trkpt lat="42.185953" lon="23.372594"><ele>2081.8</ele><time>2026-03-02T11:34:19.000Z</time></trkpt>
<trkpt lat="42.185958" lon="23.372592"><ele>2079.4</ele><time>2026-03-02T11:34:20.000Z</time></trkpt>
<trkpt lat="42.185965" lon="23.37259"><ele>2079.4</ele><time>2026-03-02T11:34:21.000Z</time></trkpt>
<trkpt lat="42.185973" lon="23.372587"><ele>2079.4</ele><time>2026-03-02T11:34:22.000Z</time></trkpt>
<trkpt lat="42.185981" lon="23.372586"><ele>2079.4</ele><time>2026-03-02T11:34:23.000Z</time></trkpt>
<trkpt lat="42.185988" lon="23.372585"><ele>2079.4</ele><time>2026-03-02T11:34:24.000Z</time></trkpt>
<trkpt lat="42.185994" lon="23.372585"><ele>2078.4</ele><time>2026-03-02T11:34:25.000Z</time></trkpt>
<trkpt lat="42.186001" lon="23.372583"><ele>2078.4</ele><time>2026-03-02T11:34:26.000Z</time></trkpt>
<trkpt lat="42.186008" lon="23.372581"><ele>2078.4</ele><time>2026-03-02T11:34:27.000Z</time></trkpt>
<trkpt lat="42.186016" lon="23.372579"><ele>2078.4</ele><time>2026-03-02T11:34:28.000Z</time></trkpt>
<trkpt lat="42.186025" lon="23.372576"><ele>2078.4</ele><time>2026-03-02T11:34:29.000Z</time></trkpt>
<trkpt lat="42.186034" lon="23.372576"><ele>2076.6</ele><time>2026-03-02T11:34:30.000Z</time></trkpt>
<trkpt lat="42.186044" lon="23.372576"><ele>2076.6</ele><time>2026-03-02T11:34:31.000Z</time></trkpt>
<trkpt lat="42.186055" lon="23.372577"><ele>2076.6</ele><time>2026-03-02T11:34:32.000Z</time></trkpt>
<trkpt lat="42.186066" lon="23.372577"><ele>2076.6</ele><time>2026-03-02T11:34:33.000Z</time></trkpt>
<trkpt lat="42.186078" lon="23.372576"><ele>2076.6</ele><time>2026-03-02T11:34:34.000Z</time></trkpt>
<trkpt lat="42.186088" lon="23.372574"><ele>2075</ele><time>2026-03-02T11:34:35.000Z</time></trkpt>
<trkpt lat="42.186099" lon="23.372571"><ele>2075</ele><time>2026-03-02T11:34:36.000Z</time></trkpt>
<trkpt lat="42.18611" lon="23.372567"><ele>2075</ele><time>2026-03-02T11:34:37.000Z</time></trkpt>
<trkpt lat="42.18612" lon="23.372563"><ele>2075</ele><time>2026-03-02T11:34:38.000Z</time></trkpt>
<trkpt lat="42.186132" lon="23.372559"><ele>2075</ele><time>2026-03-02T11:34:39.000Z</time></trkpt>
<trkpt lat="42.186143" lon="23.372555"><ele>2074</ele><time>2026-03-02T11:34:40.000Z</time></trkpt>
<trkpt lat="42.186153" lon="23.372552"><ele>2074</ele><time>2026-03-02T11:34:41.000Z</time></trkpt>
<trkpt lat="42.186162" lon="23.372552"><ele>2074</ele><time>2026-03-02T11:34:42.000Z</time></trkpt>
<trkpt lat="42.186171" lon="23.372553"><ele>2074</ele><time>2026-03-02T11:34:43.000Z</time></trkpt>
<trkpt lat="42.186178" lon="23.372559"><ele>2074</ele><time>2026-03-02T11:34:44.000Z</time></trkpt>
<trkpt lat="42.186186" lon="23.372568"><ele>2071.5</ele><time>2026-03-02T11:34:45.000Z</time></trkpt>
<trkpt lat="42.186193" lon="23.372579"><ele>2071.5</ele><time>2026-03-02T11:34:46.000Z</time></trkpt>
<trkpt lat="42.186198" lon="23.372589"><ele>2071.5</ele><time>2026-03-02T11:34:47.000Z</time></trkpt>
<trkpt lat="42.186204" lon="23.372598"><ele>2071.5</ele><time>2026-03-02T11:34:48.000Z</time></trkpt>
<trkpt lat="42.186211" lon="23.372606"><ele>2071.5</ele><time>2026-03-02T11:34:49.000Z</time></trkpt>
<trkpt lat="42.186218" lon="23.372614"><ele>2068.6</ele><time>2026-03-02T11:34:50.000Z</time></trkpt>
<trkpt lat="42.186227" lon="23.37262"><ele>2068.6</ele><time>2026-03-02T11:34:51.000Z</time></trkpt>
<trkpt lat="42.186238" lon="23.372625"><ele>2068.6</ele><time>2026-03-02T11:34:52.000Z</time></trkpt>
<trkpt lat="42.186249" lon="23.372629"><ele>2068.6</ele><time>2026-03-02T11:34:53.000Z</time></trkpt>
<trkpt lat="42.186261" lon="23.372632"><ele>2068.6</ele><time>2026-03-02T11:34:54.000Z</time></trkpt>
<trkpt lat="42.186273" lon="23.372633"><ele>2067.3</ele><time>2026-03-02T11:34:55.000Z</time></trkpt>
<trkpt lat="42.186284" lon="23.372633"><ele>2067.3</ele><time>2026-03-02T11:34:56.000Z</time></trkpt>
<trkpt lat="42.186295" lon="23.372633"><ele>2067.3</ele><time>2026-03-02T11:34:57.000Z</time></trkpt>
<trkpt lat="42.186305" lon="23.372633"><ele>2067.3</ele><time>2026-03-02T11:34:58.000Z</time></trkpt>
<trkpt lat="42.186315" lon="23.372631"><ele>2067.3</ele><time>2026-03-02T11:34:59.000Z</time></trkpt>
<trkpt lat="42.186324" lon="23.37263"><ele>2064.9</ele><time>2026-03-02T11:35:00.000Z</time></trkpt>
<trkpt lat="42.186333" lon="23.372627"><ele>2064.9</ele><time>2026-03-02T11:35:01.000Z</time></trkpt>
<trkpt lat="42.186342" lon="23.372622"><ele>2064.9</ele><time>2026-03-02T11:35:02.000Z</time></trkpt>
<trkpt lat="42.18635" lon="23.372616"><ele>2064.9</ele><time>2026-03-02T11:35:03.000Z</time></trkpt>
<trkpt lat="42.186358" lon="23.37261"><ele>2064.9</ele><time>2026-03-02T11:35:04.000Z</time></trkpt>
<trkpt lat="42.186367" lon="23.372604"><ele>2062.6</ele><time>2026-03-02T11:35:05.000Z</time></trkpt>
<trkpt lat="42.186377" lon="23.372599"><ele>2062.6</ele><time>2026-03-02T11:35:06.000Z</time></trkpt>
<trkpt lat="42.186386" lon="23.372596"><ele>2062.6</ele><time>2026-03-02T11:35:07.000Z</time></trkpt>
<trkpt lat="42.186396" lon="23.372595"><ele>2062.6</ele><time>2026-03-02T11:35:08.000Z</time></trkpt>
<trkpt lat="42.186407" lon="23.372597"><ele>2062.6</ele><time>2026-03-02T11:35:09.000Z</time></trkpt>
<trkpt lat="42.186416" lon="23.372597"><ele>2061.4</ele><time>2026-03-02T11:35:10.000Z</time></trkpt>
<trkpt lat="42.186424" lon="23.372598"><ele>2061.4</ele><time>2026-03-02T11:35:11.000Z</time></trkpt>
<trkpt lat="42.186433" lon="23.372598"><ele>2061.4</ele><time>2026-03-02T11:35:12.000Z</time></trkpt>
<trkpt lat="42.186441" lon="23.372596"><ele>2061.4</ele><time>2026-03-02T11:35:13.000Z</time></trkpt>
<trkpt lat="42.186449" lon="23.372594"><ele>2061.4</ele><time>2026-03-02T11:35:14.000Z</time></trkpt>
<trkpt lat="42.186459" lon="23.372596"><ele>2058.9</ele><time>2026-03-02T11:35:15.000Z</time></trkpt>
<trkpt lat="42.186467" lon="23.372598"><ele>2058.9</ele><time>2026-03-02T11:35:16.000Z</time></trkpt>
<trkpt lat="42.186477" lon="23.372604"><ele>2058.9</ele><time>2026-03-02T11:35:17.000Z</time></trkpt>
<trkpt lat="42.186487" lon="23.372613"><ele>2058.9</ele><time>2026-03-02T11:35:18.000Z</time></trkpt>
<trkpt lat="42.186499" lon="23.372623"><ele>2058.9</ele><time>2026-03-02T11:35:19.000Z</time></trkpt>
<trkpt lat="42.186511" lon="23.372634"><ele>2056.9</ele><time>2026-03-02T11:35:20.000Z</time></trkpt>
<trkpt lat="42.186523" lon="23.372646"><ele>2056.9</ele><time>2026-03-02T11:35:21.000Z</time></trkpt>
<trkpt lat="42.186535" lon="23.372657"><ele>2056.9</ele><time>2026-03-02T11:35:22.000Z</time></trkpt>
<trkpt lat="42.186547" lon="23.372668"><ele>2056.9</ele><time>2026-03-02T11:35:23.000Z</time></trkpt>
<trkpt lat="42.186557" lon="23.372678"><ele>2056.9</ele><time>2026-03-02T11:35:24.000Z</time></trkpt>
<trkpt lat="42.186567" lon="23.372688"><ele>2056.2</ele><time>2026-03-02T11:35:25.000Z</time></trkpt>
<trkpt lat="42.186577" lon="23.372698"><ele>2056.2</ele><time>2026-03-02T11:35:26.000Z</time></trkpt>
<trkpt lat="42.186586" lon="23.37271"><ele>2056.2</ele><time>2026-03-02T11:35:27.000Z</time></trkpt>
<trkpt lat="42.186597" lon="23.372722"><ele>2056.2</ele><time>2026-03-02T11:35:28.000Z</time></trkpt>
<trkpt lat="42.186608" lon="23.372736"><ele>2056.2</ele><time>2026-03-02T11:35:29.000Z</time></trkpt>
<trkpt lat="42.186618" lon="23.37275"><ele>2055.1</ele><time>2026-03-02T11:35:30.000Z</time></trkpt>
<trkpt lat="42.186627" lon="23.372762"><ele>2055.1</ele><time>2026-03-02T11:35:31.000Z</time></trkpt>
<trkpt lat="42.186635" lon="23.372771"><ele>2055.1</ele><time>2026-03-02T11:35:32.000Z</time></trkpt>
<trkpt lat="42.18664" lon="23.372778"><ele>2055.1</ele><time>2026-03-02T11:35:33.000Z</time></trkpt>
<trkpt lat="42.186643" lon="23.372783"><ele>2055.1</ele><time>2026-03-02T11:35:34.000Z</time></trkpt>
<trkpt lat="42.186645" lon="23.372785"><ele>2054</ele><time>2026-03-02T11:35:35.000Z</time></trkpt>
<trkpt lat="42.186646" lon="23.372786"><ele>2054</ele><time>2026-03-02T11:35:36.000Z</time></trkpt>
<trkpt lat="42.186649" lon="23.37279"><ele>2054</ele><time>2026-03-02T11:35:37.000Z</time></trkpt>
<trkpt lat="42.186653" lon="23.372794"><ele>2054</ele><time>2026-03-02T11:35:38.000Z</time></trkpt>
<trkpt lat="42.18666" lon="23.3728"><ele>2054</ele><time>2026-03-02T11:35:39.000Z</time></trkpt>
<trkpt lat="42.186668" lon="23.372808"><ele>2053.4</ele><time>2026-03-02T11:35:40.000Z</time></trkpt>
<trkpt lat="42.186677" lon="23.372816"><ele>2053.4</ele><time>2026-03-02T11:35:41.000Z</time></trkpt>
<trkpt lat="42.186687" lon="23.372825"><ele>2053.4</ele><time>2026-03-02T11:35:42.000Z</time></trkpt>
<trkpt lat="42.186697" lon="23.372832"><ele>2053.4</ele><time>2026-03-02T11:35:43.000Z</time></trkpt>
<trkpt lat="42.186706" lon="23.372839"><ele>2053.4</ele><time>2026-03-02T11:35:44.000Z</time></trkpt>
<trkpt lat="42.186715" lon="23.372844"><ele>2052.3</ele><time>2026-03-02T11:35:45.000Z</time></trkpt>
<trkpt lat="42.186722" lon="23.372847"><ele>2052.3</ele><time>2026-03-02T11:35:46.000Z</time></trkpt>
<trkpt lat="42.186728" lon="23.372848"><ele>2052.3</ele><time>2026-03-02T11:35:47.000Z</time></trkpt>
<trkpt lat="42.186733" lon="23.372848"><ele>2052.3</ele><time>2026-03-02T11:35:48.000Z</time></trkpt>
<trkpt lat="42.186738" lon="23.372849"><ele>2052.3</ele><time>2026-03-02T11:35:49.000Z</time></trkpt>
<trkpt lat="42.186745" lon="23.372851"><ele>2051.8</ele><time>2026-03-02T11:35:50.000Z</time></trkpt>
<trkpt lat="42.186753" lon="23.372853"><ele>2051.8</ele><time>2026-03-02T11:35:51.000Z</time></trkpt>
<trkpt lat="42.186763" lon="23.372855"><ele>2051.8</ele><time>2026-03-02T11:35:52.000Z</time></trkpt>
<trkpt lat="42.186773" lon="23.372856"><ele>2051.8</ele><time>2026-03-02T11:35:53.000Z</time></trkpt>
<trkpt lat="42.186782" lon="23.372855"><ele>2051.8</ele><time>2026-03-02T11:35:54.000Z</time></trkpt>
<trkpt lat="42.186791" lon="23.372854"><ele>2051.7</ele><time>2026-03-02T11:35:55.000Z</time></trkpt>
<trkpt lat="42.186799" lon="23.372853"><ele>2051.7</ele><time>2026-03-02T11:35:56.000Z</time></trkpt>
<trkpt lat="42.186807" lon="23.372854"><ele>2051.7</ele><time>2026-03-02T11:35:57.000Z</time></trkpt>
<trkpt lat="42.186815" lon="23.372857"><ele>2051.7</ele><time>2026-03-02T11:35:58.000Z</time></trkpt>
<trkpt lat="42.186822" lon="23.37286"><ele>2051.7</ele><time>2026-03-02T11:35:59.000Z</time></trkpt>
<trkpt lat="42.186829" lon="23.372865"><ele>2051.4</ele><time>2026-03-02T11:36:00.000Z</time></trkpt>
<trkpt lat="42.186836" lon="23.37287"><ele>2051.4</ele><time>2026-03-02T11:36:01.000Z</time></trkpt>
<trkpt lat="42.186844" lon="23.372875"><ele>2051.4</ele><time>2026-03-02T11:36:02.000Z</time></trkpt>
<trkpt lat="42.186851" lon="23.37288"><ele>2051.4</ele><time>2026-03-02T11:36:03.000Z</time></trkpt>
<trkpt lat="42.186859" lon="23.372886"><ele>2051.4</ele><time>2026-03-02T11:36:04.000Z</time></trkpt>
<trkpt lat="42.186867" lon="23.372891"><ele>2050.7</ele><time>2026-03-02T11:36:05.000Z</time></trkpt>
<trkpt lat="42.186875" lon="23.372895"><ele>2050.7</ele><time>2026-03-02T11:36:06.000Z</time></trkpt>
<trkpt lat="42.186883" lon="23.3729"><ele>2050.7</ele><time>2026-03-02T11:36:07.000Z</time></trkpt>
<trkpt lat="42.18689" lon="23.372903"><ele>2050.7</ele><time>2026-03-02T11:36:08.000Z</time></trkpt>
<trkpt lat="42.186896" lon="23.372904"><ele>2050.7</ele><time>2026-03-02T11:36:09.000Z</time></trkpt>
<trkpt lat="42.186901" lon="23.372905"><ele>2050.3</ele><time>2026-03-02T11:36:10.000Z</time></trkpt>
<trkpt lat="42.186905" lon="23.372907"><ele>2050.3</ele><time>2026-03-02T11:36:11.000Z</time></trkpt>
<trkpt lat="42.186907" lon="23.372907"><ele>2050.3</ele><time>2026-03-02T11:36:12.000Z</time></trkpt>
<trkpt lat="42.186909" lon="23.372907"><ele>2050.3</ele><time>2026-03-02T11:36:13.000Z</time></trkpt>
<trkpt lat="42.186909" lon="23.372908"><ele>2050.3</ele><time>2026-03-02T11:36:14.000Z</time></trkpt>
<trkpt lat="42.186909" lon="23.372908"><ele>2049.4</ele><time>2026-03-02T11:36:15.000Z</time></trkpt>
<trkpt lat="42.18691" lon="23.372908"><ele>2049.4</ele><time>2026-03-02T11:36:16.000Z</time></trkpt>
<trkpt lat="42.18691" lon="23.372908"><ele>2049.4</ele><time>2026-03-02T11:36:17.000Z</time></trkpt>
<trkpt lat="42.186909" lon="23.372908"><ele>2049.4</ele><time>2026-03-02T11:36:18.000Z</time></trkpt>
<trkpt lat="42.186909" lon="23.372908"><ele>2049.4</ele><time>2026-03-02T11:36:19.000Z</time></trkpt>
<trkpt lat="42.186908" lon="23.372908"><ele>2048.5</ele><time>2026-03-02T11:36:20.000Z</time></trkpt>
<trkpt lat="42.186907" lon="23.372909"><ele>2048.5</ele><time>2026-03-02T11:36:21.000Z</time></trkpt>
<trkpt lat="42.186906" lon="23.37291"><ele>2048.5</ele><time>2026-03-02T11:36:22.000Z</time></trkpt>
<trkpt lat="42.186906" lon="23.37291"><ele>2048.5</ele><time>2026-03-02T11:36:23.000Z</time></trkpt>
<trkpt lat="42.186906" lon="23.372911"><ele>2048.5</ele><time>2026-03-02T11:36:24.000Z</time></trkpt>
<trkpt lat="42.186906" lon="23.372911"><ele>2048.2</ele><time>2026-03-02T11:36:25.000Z</time></trkpt>
<trkpt lat="42.186906" lon="23.372911"><ele>2048.2</ele><time>2026-03-02T11:36:26.000Z</time></trkpt>
<trkpt lat="42.186906" lon="23.37291"><ele>2048.2</ele><time>2026-03-02T11:36:27.000Z</time></trkpt>
<trkpt lat="42.186905" lon="23.372909"><ele>2048.2</ele><time>2026-03-02T11:36:28.000Z</time></trkpt>
<trkpt lat="42.186906" lon="23.372909"><ele>2048.2</ele><time>2026-03-02T11:36:29.000Z</time></trkpt>
<trkpt lat="42.186909" lon="23.37291"><ele>2048</ele><time>2026-03-02T11:36:30.000Z</time></trkpt>
<trkpt lat="42.186915" lon="23.372911"><ele>2048</ele><time>2026-03-02T11:36:31.000Z</time></trkpt>
<trkpt lat="42.186923" lon="23.372914"><ele>2048</ele><time>2026-03-02T11:36:32.000Z</time></trkpt>
<trkpt lat="42.186932" lon="23.372919"><ele>2048</ele><time>2026-03-02T11:36:33.000Z</time></trkpt>
<trkpt lat="42.186943" lon="23.372924"><ele>2048</ele><time>2026-03-02T11:36:34.000Z</time></trkpt>
<trkpt lat="42.186954" lon="23.37293"><ele>2048</ele><time>2026-03-02T11:36:35.000Z</time></trkpt>
<trkpt lat="42.186962" lon="23.372934"><ele>2048</ele><time>2026-03-02T11:36:36.000Z</time></trkpt>
<trkpt lat="42.18697" lon="23.372939"><ele>2048</ele><time>2026-03-02T11:36:37.000Z</time></trkpt>
<trkpt lat="42.186979" lon="23.372944"><ele>2048</ele><time>2026-03-02T11:36:38.000Z</time></trkpt>
<trkpt lat="42.186987" lon="23.372949"><ele>2048</ele><time>2026-03-02T11:36:39.000Z</time></trkpt>
<trkpt lat="42.186994" lon="23.372952"><ele>2047.9</ele><time>2026-03-02T11:36:40.000Z</time></trkpt>
<trkpt lat="42.187003" lon="23.372959"><ele>2047.9</ele><time>2026-03-02T11:36:41.000Z</time></trkpt>
<trkpt lat="42.187011" lon="23.372965"><ele>2047.9</ele><time>2026-03-02T11:36:42.000Z</time></trkpt>
<trkpt lat="42.187019" lon="23.37297"><ele>2047.9</ele><time>2026-03-02T11:36:43.000Z</time></trkpt>
<trkpt lat="42.187027" lon="23.372974"><ele>2047.9</ele><time>2026-03-02T11:36:44.000Z</time></trkpt>
<trkpt lat="42.187037" lon="23.37298"><ele>2047.3</ele><time>2026-03-02T11:36:45.000Z</time></trkpt>
<trkpt lat="42.187046" lon="23.372984"><ele>2047.3</ele><time>2026-03-02T11:36:46.000Z</time></trkpt>
<trkpt lat="42.187054" lon="23.372988"><ele>2047.3</ele><time>2026-03-02T11:36:47.000Z</time></trkpt>
<trkpt lat="42.187062" lon="23.372994"><ele>2047.3</ele><time>2026-03-02T11:36:48.000Z</time></trkpt>
<trkpt lat="42.187069" lon="23.373001"><ele>2047.3</ele><time>2026-03-02T11:36:49.000Z</time></trkpt>
<trkpt lat="42.187073" lon="23.373007"><ele>2046.2</ele><time>2026-03-02T11:36:50.000Z</time></trkpt>
<trkpt lat="42.187077" lon="23.373013"><ele>2046.2</ele><time>2026-03-02T11:36:51.000Z</time></trkpt>
<trkpt lat="42.18708" lon="23.373021"><ele>2046.2</ele><time>2026-03-02T11:36:52.000Z</time></trkpt>
<trkpt lat="42.187083" lon="23.37303"><ele>2046.2</ele><time>2026-03-02T11:36:53.000Z</time></trkpt>
<trkpt lat="42.187087" lon="23.373039"><ele>2046.2</ele><time>2026-03-02T11:36:54.000Z</time></trkpt>
<trkpt lat="42.187094" lon="23.37305"><ele>2045.6</ele><time>2026-03-02T11:36:55.000Z</time></trkpt>
<trkpt lat="42.187101" lon="23.373062"><ele>2045.6</ele><time>2026-03-02T11:36:56.000Z</time></trkpt>
<trkpt lat="42.187109" lon="23.373071"><ele>2045.6</ele><time>2026-03-02T11:36:57.000Z</time></trkpt>
<trkpt lat="42.187117" lon="23.373079"><ele>2045.6</ele><time>2026-03-02T11:36:58.000Z</time></trkpt>
<trkpt lat="42.187125" lon="23.373087"><ele>2045.6</ele><time>2026-03-02T11:36:59.000Z</time></trkpt>
<trkpt lat="42.187132" lon="23.373095"><ele>2044.7</ele><time>2026-03-02T11:37:00.000Z</time></trkpt>
<trkpt lat="42.18714" lon="23.373103"><ele>2044.7</ele><time>2026-03-02T11:37:01.000Z</time></trkpt>
<trkpt lat="42.18715" lon="23.373113"><ele>2044.7</ele><time>2026-03-02T11:37:02.000Z</time></trkpt>
<trkpt lat="42.187161" lon="23.373121"><ele>2044.7</ele><time>2026-03-02T11:37:03.000Z</time></trkpt>
<trkpt lat="42.187173" lon="23.373129"><ele>2044.7</ele><time>2026-03-02T11:37:04.000Z</time></trkpt>
<trkpt lat="42.187186" lon="23.373136"><ele>2043.8</ele><time>2026-03-02T11:37:05.000Z</time></trkpt>
<trkpt lat="42.187198" lon="23.373141"><ele>2043.8</ele><time>2026-03-02T11:37:06.000Z</time></trkpt>
<trkpt lat="42.187208" lon="23.373145"><ele>2043.8</ele><time>2026-03-02T11:37:07.000Z</time></trkpt>
<trkpt lat="42.187217" lon="23.373148"><ele>2043.8</ele><time>2026-03-02T11:37:08.000Z</time></trkpt>
<trkpt lat="42.187226" lon="23.373149"><ele>2043.8</ele><time>2026-03-02T11:37:09.000Z</time></trkpt>
<trkpt lat="42.187235" lon="23.37315"><ele>2043.3</ele><time>2026-03-02T11:37:10.000Z</time></trkpt>
<trkpt lat="42.187245" lon="23.37315"><ele>2043.3</ele><time>2026-03-02T11:37:11.000Z</time></trkpt>
<trkpt lat="42.187256" lon="23.373149"><ele>2043.3</ele><time>2026-03-02T11:37:12.000Z</time></trkpt>
<trkpt lat="42.187267" lon="23.37315"><ele>2043.3</ele><time>2026-03-02T11:37:13.000Z</time></trkpt>
<trkpt lat="42.187279" lon="23.373152"><ele>2043.3</ele><time>2026-03-02T11:37:14.000Z</time></trkpt>
<trkpt lat="42.187289" lon="23.373153"><ele>2042.1</ele><time>2026-03-02T11:37:15.000Z</time></trkpt>
<trkpt lat="42.187299" lon="23.373154"><ele>2042.1</ele><time>2026-03-02T11:37:16.000Z</time></trkpt>
<trkpt lat="42.187309" lon="23.373156"><ele>2042.1</ele><time>2026-03-02T11:37:17.000Z</time></trkpt>
<trkpt lat="42.187319" lon="23.373156"><ele>2042.1</ele><time>2026-03-02T11:37:18.000Z</time></trkpt>
<trkpt lat="42.187329" lon="23.373157"><ele>2042.1</ele><time>2026-03-02T11:37:19.000Z</time></trkpt>
<trkpt lat="42.187339" lon="23.373158"><ele>2041</ele><time>2026-03-02T11:37:20.000Z</time></trkpt>
<trkpt lat="42.18735" lon="23.373161"><ele>2041</ele><time>2026-03-02T11:37:21.000Z</time></trkpt>
<trkpt lat="42.18736" lon="23.373163"><ele>2041</ele><time>2026-03-02T11:37:22.000Z</time></trkpt>
<trkpt lat="42.18737" lon="23.373165"><ele>2041</ele><time>2026-03-02T11:37:23.000Z</time></trkpt>
<trkpt lat="42.187381" lon="23.373167"><ele>2041</ele><time>2026-03-02T11:37:24.000Z</time></trkpt>
<trkpt lat="42.187392" lon="23.373169"><ele>2040.5</ele><time>2026-03-02T11:37:25.000Z</time></trkpt>
<trkpt lat="42.187403" lon="23.373169"><ele>2040.5</ele><time>2026-03-02T11:37:26.000Z</time></trkpt>
<trkpt lat="42.187413" lon="23.373171"><ele>2040.5</ele><time>2026-03-02T11:37:27.000Z</time></trkpt>
<trkpt lat="42.187423" lon="23.373174"><ele>2040.5</ele><time>2026-03-02T11:37:28.000Z</time></trkpt>
<trkpt lat="42.187433" lon="23.373175"><ele>2040.5</ele><time>2026-03-02T11:37:29.000Z</time></trkpt>
<trkpt lat="42.187443" lon="23.373177"><ele>2039.8</ele><time>2026-03-02T11:37:30.000Z</time></trkpt>
<trkpt lat="42.187454" lon="23.373178"><ele>2039.8</ele><time>2026-03-02T11:37:31.000Z</time></trkpt>
<trkpt lat="42.187465" lon="23.37318"><ele>2039.8</ele><time>2026-03-02T11:37:32.000Z</time></trkpt>
<trkpt lat="42.187476" lon="23.373181"><ele>2039.8</ele><time>2026-03-02T11:37:33.000Z</time></trkpt>
<trkpt lat="42.187487" lon="23.373182"><ele>2039.8</ele><time>2026-03-02T11:37:34.000Z</time></trkpt>
<trkpt lat="42.187498" lon="23.373185"><ele>2039.2</ele><time>2026-03-02T11:37:35.000Z</time></trkpt>
<trkpt lat="42.187508" lon="23.373187"><ele>2039.2</ele><time>2026-03-02T11:37:36.000Z</time></trkpt>
<trkpt lat="42.187518" lon="23.37319"><ele>2039.2</ele><time>2026-03-02T11:37:37.000Z</time></trkpt>
<trkpt lat="42.187528" lon="23.373192"><ele>2039.2</ele><time>2026-03-02T11:37:38.000Z</time></trkpt>
<trkpt lat="42.187539" lon="23.373194"><ele>2039.2</ele><time>2026-03-02T11:37:39.000Z</time></trkpt>
<trkpt lat="42.187549" lon="23.373195"><ele>2038.8</ele><time>2026-03-02T11:37:40.000Z</time></trkpt>
<trkpt lat="42.18756" lon="23.373195"><ele>2038.8</ele><time>2026-03-02T11:37:41.000Z</time></trkpt>
<trkpt lat="42.187571" lon="23.373194"><ele>2038.8</ele><time>2026-03-02T11:37:42.000Z</time></trkpt>
<trkpt lat="42.187583" lon="23.373194"><ele>2038.8</ele><time>2026-03-02T11:37:43.000Z</time></trkpt>
<trkpt lat="42.187595" lon="23.373193"><ele>2038.8</ele><time>2026-03-02T11:37:44.000Z</time></trkpt>
<trkpt lat="42.187606" lon="23.373192"><ele>2038.1</ele><time>2026-03-02T11:37:45.000Z</time></trkpt>
<trkpt lat="42.187619" lon="23.373192"><ele>2038.1</ele><time>2026-03-02T11:37:46.000Z</time></trkpt>
<trkpt lat="42.187632" lon="23.373192"><ele>2038.1</ele><time>2026-03-02T11:37:47.000Z</time></trkpt>
<trkpt lat="42.187645" lon="23.373192"><ele>2038.1</ele><time>2026-03-02T11:37:48.000Z</time></trkpt>
<trkpt lat="42.187658" lon="23.373192"><ele>2038.1</ele><time>2026-03-02T11:37:49.000Z</time></trkpt>
<trkpt lat="42.18767" lon="23.373193"><ele>2037.1</ele><time>2026-03-02T11:37:50.000Z</time></trkpt>
<trkpt lat="42.187682" lon="23.373193"><ele>2037.1</ele><time>2026-03-02T11:37:51.000Z</time></trkpt>
<trkpt lat="42.187692" lon="23.373193"><ele>2037.1</ele><time>2026-03-02T11:37:52.000Z</time></trkpt>
<trkpt lat="42.187701" lon="23.373192"><ele>2037.1</ele><time>2026-03-02T11:37:53.000Z</time></trkpt>
<trkpt lat="42.18771" lon="23.373191"><ele>2037.1</ele><time>2026-03-02T11:37:54.000Z</time></trkpt>
<trkpt lat="42.187719" lon="23.37319"><ele>2036.4</ele><time>2026-03-02T11:37:55.000Z</time></trkpt>
<trkpt lat="42.187728" lon="23.373189"><ele>2036.4</ele><time>2026-03-02T11:37:56.000Z</time></trkpt>
<trkpt lat="42.187739" lon="23.373188"><ele>2036.4</ele><time>2026-03-02T11:37:57.000Z</time></trkpt>
<trkpt lat="42.187748" lon="23.373189"><ele>2036.4</ele><time>2026-03-02T11:37:58.000Z</time></trkpt>
<trkpt lat="42.187758" lon="23.37319"><ele>2036.4</ele><time>2026-03-02T11:37:59.000Z</time></trkpt>
<trkpt lat="42.187768" lon="23.373191"><ele>2034.9</ele><time>2026-03-02T11:38:00.000Z</time></trkpt>
<trkpt lat="42.187777" lon="23.373194"><ele>2034.9</ele><time>2026-03-02T11:38:01.000Z</time></trkpt>
<trkpt lat="42.187785" lon="23.373197"><ele>2034.9</ele><time>2026-03-02T11:38:02.000Z</time></trkpt>
<trkpt lat="42.187792" lon="23.373199"><ele>2034.9</ele><time>2026-03-02T11:38:03.000Z</time></trkpt>
<trkpt lat="42.187798" lon="23.373201"><ele>2034.9</ele><time>2026-03-02T11:38:04.000Z</time></trkpt>
<trkpt lat="42.187804" lon="23.373203"><ele>2033.4</ele><time>2026-03-02T11:38:05.000Z</time></trkpt>
<trkpt lat="42.18781" lon="23.373204"><ele>2033.4</ele><time>2026-03-02T11:38:06.000Z</time></trkpt>
<trkpt lat="42.187817" lon="23.373205"><ele>2033.4</ele><time>2026-03-02T11:38:07.000Z</time></trkpt>
<trkpt lat="42.187824" lon="23.373205"><ele>2033.4</ele><time>2026-03-02T11:38:08.000Z</time></trkpt>
<trkpt lat="42.187832" lon="23.373207"><ele>2033.4</ele><time>2026-03-02T11:38:09.000Z</time></trkpt>
<trkpt lat="42.187841" lon="23.373209"><ele>2032.6</ele><time>2026-03-02T11:38:10.000Z</time></trkpt>
<trkpt lat="42.187851" lon="23.373213"><ele>2032.6</ele><time>2026-03-02T11:38:11.000Z</time></trkpt>
<trkpt lat="42.18786" lon="23.373216"><ele>2032.6</ele><time>2026-03-02T11:38:12.000Z</time></trkpt>
<trkpt lat="42.18787" lon="23.373221"><ele>2032.6</ele><time>2026-03-02T11:38:13.000Z</time></trkpt>
<trkpt lat="42.18788" lon="23.373225"><ele>2032.6</ele><time>2026-03-02T11:38:14.000Z</time></trkpt>
<trkpt lat="42.18789" lon="23.373229"><ele>2031.3</ele><time>2026-03-02T11:38:15.000Z</time></trkpt>
<trkpt lat="42.187902" lon="23.373235"><ele>2031.3</ele><time>2026-03-02T11:38:16.000Z</time></trkpt>
<trkpt lat="42.187914" lon="23.373241"><ele>2031.3</ele><time>2026-03-02T11:38:17.000Z</time></trkpt>
<trkpt lat="42.187926" lon="23.373248"><ele>2031.3</ele><time>2026-03-02T11:38:18.000Z</time></trkpt>
<trkpt lat="42.187939" lon="23.373254"><ele>2031.3</ele><time>2026-03-02T11:38:19.000Z</time></trkpt>
<trkpt lat="42.187951" lon="23.37326"><ele>2029.9</ele><time>2026-03-02T11:38:20.000Z</time></trkpt>
<trkpt lat="42.187964" lon="23.373265"><ele>2029.9</ele><time>2026-03-02T11:38:21.000Z</time></trkpt>
<trkpt lat="42.187975" lon="23.37327"><ele>2029.9</ele><time>2026-03-02T11:38:22.000Z</time></trkpt>
<trkpt lat="42.187987" lon="23.373274"><ele>2029.9</ele><time>2026-03-02T11:38:23.000Z</time></trkpt>
<trkpt lat="42.187998" lon="23.373278"><ele>2029.9</ele><time>2026-03-02T11:38:24.000Z</time></trkpt>
<trkpt lat="42.18801" lon="23.373282"><ele>2029.1</ele><time>2026-03-02T11:38:25.000Z</time></trkpt>
<trkpt lat="42.188022" lon="23.373286"><ele>2029.1</ele><time>2026-03-02T11:38:26.000Z</time></trkpt>
<trkpt lat="42.188035" lon="23.373291"><ele>2029.1</ele><time>2026-03-02T11:38:27.000Z</time></trkpt>
<trkpt lat="42.188048" lon="23.373295"><ele>2029.1</ele><time>2026-03-02T11:38:28.000Z</time></trkpt>
<trkpt lat="42.188061" lon="23.3733"><ele>2029.1</ele><time>2026-03-02T11:38:29.000Z</time></trkpt>
<trkpt lat="42.188074" lon="23.373305"><ele>2027.6</ele><time>2026-03-02T11:38:30.000Z</time></trkpt>
<trkpt lat="42.188087" lon="23.373309"><ele>2027.6</ele><time>2026-03-02T11:38:31.000Z</time></trkpt>
<trkpt lat="42.1881" lon="23.373312"><ele>2027.6</ele><time>2026-03-02T11:38:32.000Z</time></trkpt>
<trkpt lat="42.188113" lon="23.373316"><ele>2027.6</ele><time>2026-03-02T11:38:33.000Z</time></trkpt>
<trkpt lat="42.188126" lon="23.373319"><ele>2027.6</ele><time>2026-03-02T11:38:34.000Z</time></trkpt>
<trkpt lat="42.188138" lon="23.37332"><ele>2026.9</ele><time>2026-03-02T11:38:35.000Z</time></trkpt>
<trkpt lat="42.188151" lon="23.373322"><ele>2026.9</ele><time>2026-03-02T11:38:36.000Z</time></trkpt>
<trkpt lat="42.188164" lon="23.373322"><ele>2026.9</ele><time>2026-03-02T11:38:37.000Z</time></trkpt>
<trkpt lat="42.188177" lon="23.373321"><ele>2026.9</ele><time>2026-03-02T11:38:38.000Z</time></trkpt>
<trkpt lat="42.18819" lon="23.373321"><ele>2026.9</ele><time>2026-03-02T11:38:39.000Z</time></trkpt>
<trkpt lat="42.188203" lon="23.373322"><ele>2026.9</ele><time>2026-03-02T11:38:40.000Z</time></trkpt>
<trkpt lat="42.188217" lon="23.373323"><ele>2026.9</ele><time>2026-03-02T11:38:41.000Z</time></trkpt>
<trkpt lat="42.18823" lon="23.373326"><ele>2026.9</ele><time>2026-03-02T11:38:42.000Z</time></trkpt>
<trkpt lat="42.188243" lon="23.373329"><ele>2026.9</ele><time>2026-03-02T11:38:43.000Z</time></trkpt>
<trkpt lat="42.188256" lon="23.373334"><ele>2026.9</ele><time>2026-03-02T11:38:44.000Z</time></trkpt>
<trkpt lat="42.188268" lon="23.373339"><ele>2027</ele><time>2026-03-02T11:38:45.000Z</time></trkpt>
<trkpt lat="42.18828" lon="23.373346"><ele>2027</ele><time>2026-03-02T11:38:46.000Z</time></trkpt>
<trkpt lat="42.188292" lon="23.373353"><ele>2027</ele><time>2026-03-02T11:38:47.000Z</time></trkpt>
<trkpt lat="42.188304" lon="23.373359"><ele>2027</ele><time>2026-03-02T11:38:48.000Z</time></trkpt>
<trkpt lat="42.188315" lon="23.373365"><ele>2027</ele><time>2026-03-02T11:38:49.000Z</time></trkpt>
<trkpt lat="42.188327" lon="23.37337"><ele>2026.6</ele><time>2026-03-02T11:38:50.000Z</time></trkpt>
<trkpt lat="42.188338" lon="23.373376"><ele>2026.6</ele><time>2026-03-02T11:38:51.000Z</time></trkpt>
<trkpt lat="42.18835" lon="23.373382"><ele>2026.6</ele><time>2026-03-02T11:38:52.000Z</time></trkpt>
<trkpt lat="42.188362" lon="23.373388"><ele>2026.6</ele><time>2026-03-02T11:38:53.000Z</time></trkpt>
<trkpt lat="42.188374" lon="23.373394"><ele>2026.6</ele><time>2026-03-02T11:38:54.000Z</time></trkpt>
<trkpt lat="42.188387" lon="23.373401"><ele>2026.2</ele><time>2026-03-02T11:38:55.000Z</time></trkpt>
<trkpt lat="42.188399" lon="23.373406"><ele>2026.2</ele><time>2026-03-02T11:38:56.000Z</time></trkpt>
<trkpt lat="42.188411" lon="23.37341"><ele>2026.2</ele><time>2026-03-02T11:38:57.000Z</time></trkpt>
<trkpt lat="42.188422" lon="23.373414"><ele>2026.2</ele><time>2026-03-02T11:38:58.000Z</time></trkpt>
<trkpt lat="42.188433" lon="23.373419"><ele>2026.2</ele><time>2026-03-02T11:38:59.000Z</time></trkpt>
<trkpt lat="42.188443" lon="23.373423"><ele>2025.7</ele><time>2026-03-02T11:39:00.000Z</time></trkpt>
<trkpt lat="42.188454" lon="23.373426"><ele>2025.7</ele><time>2026-03-02T11:39:01.000Z</time></trkpt>
<trkpt lat="42.188465" lon="23.37343"><ele>2025.7</ele><time>2026-03-02T11:39:02.000Z</time></trkpt>
<trkpt lat="42.188476" lon="23.373433"><ele>2025.7</ele><time>2026-03-02T11:39:03.000Z</time></trkpt>
<trkpt lat="42.188489" lon="23.373436"><ele>2025.7</ele><time>2026-03-02T11:39:04.000Z</time></trkpt>
<trkpt lat="42.188502" lon="23.37344"><ele>2025.2</ele><time>2026-03-02T11:39:05.000Z</time></trkpt>
<trkpt lat="42.188514" lon="23.373445"><ele>2025.2</ele><time>2026-03-02T11:39:06.000Z</time></trkpt>
<trkpt lat="42.188527" lon="23.37345"><ele>2025.2</ele><time>2026-03-02T11:39:07.000Z</time></trkpt>
<trkpt lat="42.188538" lon="23.373454"><ele>2025.2</ele><time>2026-03-02T11:39:08.000Z</time></trkpt>
<trkpt lat="42.188549" lon="23.37346"><ele>2025.2</ele><time>2026-03-02T11:39:09.000Z</time></trkpt>
<trkpt lat="42.188559" lon="23.373467"><ele>2024.8</ele><time>2026-03-02T11:39:10.000Z</time></trkpt>
<trkpt lat="42.188568" lon="23.373475"><ele>2024.8</ele><time>2026-03-02T11:39:11.000Z</time></trkpt>
<trkpt lat="42.188577" lon="23.373487"><ele>2024.8</ele><time>2026-03-02T11:39:12.000Z</time></trkpt>
<trkpt lat="42.188585" lon="23.373504"><ele>2024.8</ele><time>2026-03-02T11:39:13.000Z</time></trkpt>
<trkpt lat="42.188592" lon="23.373521"><ele>2024.8</ele><time>2026-03-02T11:39:14.000Z</time></trkpt>
<trkpt lat="42.188596" lon="23.373542"><ele>2023.7</ele><time>2026-03-02T11:39:15.000Z</time></trkpt>
<trkpt lat="42.188599" lon="23.373565"><ele>2023.7</ele><time>2026-03-02T11:39:16.000Z</time></trkpt>
<trkpt lat="42.1886" lon="23.373587"><ele>2023.7</ele><time>2026-03-02T11:39:17.000Z</time></trkpt>
<trkpt lat="42.188599" lon="23.373608"><ele>2023.7</ele><time>2026-03-02T11:39:18.000Z</time></trkpt>
<trkpt lat="42.188599" lon="23.373628"><ele>2023.7</ele><time>2026-03-02T11:39:19.000Z</time></trkpt>
<trkpt lat="42.188599" lon="23.373647"><ele>2022.2</ele><time>2026-03-02T11:39:20.000Z</time></trkpt>
<trkpt lat="42.188599" lon="23.373665"><ele>2022.2</ele><time>2026-03-02T11:39:21.000Z</time></trkpt>
<trkpt lat="42.1886" lon="23.373683"><ele>2022.2</ele><time>2026-03-02T11:39:22.000Z</time></trkpt>
<trkpt lat="42.188601" lon="23.373701"><ele>2022.2</ele><time>2026-03-02T11:39:23.000Z</time></trkpt>
<trkpt lat="42.188603" lon="23.373718"><ele>2022.2</ele><time>2026-03-02T11:39:24.000Z</time></trkpt>
<trkpt lat="42.188606" lon="23.373734"><ele>2021.5</ele><time>2026-03-02T11:39:25.000Z</time></trkpt>
<trkpt lat="42.18861" lon="23.373749"><ele>2021.5</ele><time>2026-03-02T11:39:26.000Z</time></trkpt>
<trkpt lat="42.188613" lon="23.373762"><ele>2021.5</ele><time>2026-03-02T11:39:27.000Z</time></trkpt>
<trkpt lat="42.188617" lon="23.373775"><ele>2021.5</ele><time>2026-03-02T11:39:28.000Z</time></trkpt>
<trkpt lat="42.188621" lon="23.373788"><ele>2021.5</ele><time>2026-03-02T11:39:29.000Z</time></trkpt>
<trkpt lat="42.188625" lon="23.373799"><ele>2020.4</ele><time>2026-03-02T11:39:30.000Z</time></trkpt>
<trkpt lat="42.18863" lon="23.373809"><ele>2020.4</ele><time>2026-03-02T11:39:31.000Z</time></trkpt>
<trkpt lat="42.188636" lon="23.373818"><ele>2020.4</ele><time>2026-03-02T11:39:32.000Z</time></trkpt>
<trkpt lat="42.188642" lon="23.373827"><ele>2020.4</ele><time>2026-03-02T11:39:33.000Z</time></trkpt>
<trkpt lat="42.188649" lon="23.373837"><ele>2020.4</ele><time>2026-03-02T11:39:34.000Z</time></trkpt>
<trkpt lat="42.188655" lon="23.373848"><ele>2019.6</ele><time>2026-03-02T11:39:35.000Z</time></trkpt>
<trkpt lat="42.188661" lon="23.37386"><ele>2019.6</ele><time>2026-03-02T11:39:36.000Z</time></trkpt>
<trkpt lat="42.188667" lon="23.373874"><ele>2019.6</ele><time>2026-03-02T11:39:37.000Z</time></trkpt>
<trkpt lat="42.188673" lon="23.373887"><ele>2019.6</ele><time>2026-03-02T11:39:38.000Z</time></trkpt>
<trkpt lat="42.188678" lon="23.373901"><ele>2019.6</ele><time>2026-03-02T11:39:39.000Z</time></trkpt>
<trkpt lat="42.188684" lon="23.373914"><ele>2019</ele><time>2026-03-02T11:39:40.000Z</time></trkpt>
<trkpt lat="42.188692" lon="23.373925"><ele>2019</ele><time>2026-03-02T11:39:41.000Z</time></trkpt>
<trkpt lat="42.188701" lon="23.373933"><ele>2019</ele><time>2026-03-02T11:39:42.000Z</time></trkpt>
<trkpt lat="42.188709" lon="23.373942"><ele>2019</ele><time>2026-03-02T11:39:43.000Z</time></trkpt>
<trkpt lat="42.188718" lon="23.37395"><ele>2019</ele><time>2026-03-02T11:39:44.000Z</time></trkpt>
<trkpt lat="42.188727" lon="23.373959"><ele>2017.5</ele><time>2026-03-02T11:39:45.000Z</time></trkpt>
<trkpt lat="42.188736" lon="23.373969"><ele>2017.5</ele><time>2026-03-02T11:39:46.000Z</time></trkpt>
<trkpt lat="42.188744" lon="23.373982"><ele>2017.5</ele><time>2026-03-02T11:39:47.000Z</time></trkpt>
<trkpt lat="42.188753" lon="23.373995"><ele>2017.5</ele><time>2026-03-02T11:39:48.000Z</time></trkpt>
<trkpt lat="42.188762" lon="23.374009"><ele>2017.5</ele><time>2026-03-02T11:39:49.000Z</time></trkpt>
<trkpt lat="42.188771" lon="23.374022"><ele>2015.6</ele><time>2026-03-02T11:39:50.000Z</time></trkpt>
<trkpt lat="42.18878" lon="23.374034"><ele>2015.6</ele><time>2026-03-02T11:39:51.000Z</time></trkpt>
<trkpt lat="42.18879" lon="23.374046"><ele>2015.6</ele><time>2026-03-02T11:39:52.000Z</time></trkpt>
<trkpt lat="42.1888" lon="23.374055"><ele>2015.6</ele><time>2026-03-02T11:39:53.000Z</time></trkpt>
<trkpt lat="42.18881" lon="23.374064"><ele>2015.6</ele><time>2026-03-02T11:39:54.000Z</time></trkpt>
<trkpt lat="42.18882" lon="23.37407"><ele>2014.9</ele><time>2026-03-02T11:39:55.000Z</time></trkpt>
<trkpt lat="42.18883" lon="23.374075"><ele>2014.9</ele><time>2026-03-02T11:39:56.000Z</time></trkpt>
<trkpt lat="42.188839" lon="23.374078"><ele>2014.9</ele><time>2026-03-02T11:39:57.000Z</time></trkpt>
<trkpt lat="42.188849" lon="23.374079"><ele>2014.9</ele><time>2026-03-02T11:39:58.000Z</time></trkpt>
<trkpt lat="42.188859" lon="23.374082"><ele>2014.9</ele><time>2026-03-02T11:39:59.000Z</time></trkpt>
<trkpt lat="42.18887" lon="23.374084"><ele>2014</ele><time>2026-03-02T11:40:00.000Z</time></trkpt>
<trkpt lat="42.18888" lon="23.374086"><ele>2014</ele><time>2026-03-02T11:40:01.000Z</time></trkpt>
<trkpt lat="42.18889" lon="23.374089"><ele>2014</ele><time>2026-03-02T11:40:02.000Z</time></trkpt>
<trkpt lat="42.188899" lon="23.374092"><ele>2014</ele><time>2026-03-02T11:40:03.000Z</time></trkpt>
<trkpt lat="42.188905" lon="23.374093"><ele>2014</ele><time>2026-03-02T11:40:04.000Z</time></trkpt>
<trkpt lat="42.18891" lon="23.374093"><ele>2013.6</ele><time>2026-03-02T11:40:05.000Z</time></trkpt>
<trkpt lat="42.188913" lon="23.374093"><ele>2013.6</ele><time>2026-03-02T11:40:06.000Z</time></trkpt>
<trkpt lat="42.188915" lon="23.374093"><ele>2013.6</ele><time>2026-03-02T11:40:07.000Z</time></trkpt>
<trkpt lat="42.188916" lon="23.374092"><ele>2013.6</ele><time>2026-03-02T11:40:08.000Z</time></trkpt>
<trkpt lat="42.188918" lon="23.374092"><ele>2013.6</ele><time>2026-03-02T11:40:09.000Z</time></trkpt>
<trkpt lat="42.188919" lon="23.374093"><ele>2013.5</ele><time>2026-03-02T11:40:10.000Z</time></trkpt>
<trkpt lat="42.18892" lon="23.374093"><ele>2013.5</ele><time>2026-03-02T11:40:11.000Z</time></trkpt>
<trkpt lat="42.18892" lon="23.374093"><ele>2013.5</ele><time>2026-03-02T11:40:12.000Z</time></trkpt>
<trkpt lat="42.18892" lon="23.374093"><ele>2013.5</ele><time>2026-03-02T11:40:13.000Z</time></trkpt>
<trkpt lat="42.18892" lon="23.374093"><ele>2013.5</ele><time>2026-03-02T11:40:14.000Z</time></trkpt>
<trkpt lat="42.18892" lon="23.374093"><ele>2013.5</ele><time>2026-03-02T11:40:15.000Z</time></trkpt>
<trkpt lat="42.188919" lon="23.374094"><ele>2013.5</ele><time>2026-03-02T11:40:16.000Z</time></trkpt>
<trkpt lat="42.188918" lon="23.374096"><ele>2013.5</ele><time>2026-03-02T11:40:17.000Z</time></trkpt>
<trkpt lat="42.188916" lon="23.374098"><ele>2013.5</ele><time>2026-03-02T11:40:18.000Z</time></trkpt>
<trkpt lat="42.188914" lon="23.3741"><ele>2013.5</ele><time>2026-03-02T11:40:19.000Z</time></trkpt>
<trkpt lat="42.188912" lon="23.374103"><ele>2013.6</ele><time>2026-03-02T11:40:20.000Z</time></trkpt>
<trkpt lat="42.18891" lon="23.374105"><ele>2013.6</ele><time>2026-03-02T11:40:21.000Z</time></trkpt>
<trkpt lat="42.188909" lon="23.374105"><ele>2013.6</ele><time>2026-03-02T11:40:22.000Z</time></trkpt>
<trkpt lat="42.188908" lon="23.374106"><ele>2013.6</ele><time>2026-03-02T11:40:23.000Z</time></trkpt>
<trkpt lat="42.188908" lon="23.374105"><ele>2013.6</ele><time>2026-03-02T11:40:24.000Z</time></trkpt>
<trkpt lat="42.188908" lon="23.374105"><ele>2013.5</ele><time>2026-03-02T11:40:25.000Z</time></trkpt>
<trkpt lat="42.188908" lon="23.374105"><ele>2013.5</ele><time>2026-03-02T11:40:26.000Z</time></trkpt>
<trkpt lat="42.188908" lon="23.374105"><ele>2013.5</ele><time>2026-03-02T11:40:27.000Z</time></trkpt>
<trkpt lat="42.188908" lon="23.374104"><ele>2013.5</ele><time>2026-03-02T11:40:28.000Z</time></trkpt>
<trkpt lat="42.188908" lon="23.374103"><ele>2013.5</ele><time>2026-03-02T11:40:29.000Z</time></trkpt>
<trkpt lat="42.188908" lon="23.374103"><ele>2013.2</ele><time>2026-03-02T11:40:30.000Z</time></trkpt>
<trkpt lat="42.188907" lon="23.374102"><ele>2013.2</ele><time>2026-03-02T11:40:31.000Z</time></trkpt>
<trkpt lat="42.188906" lon="23.3741"><ele>2013.2</ele><time>2026-03-02T11:40:32.000Z</time></trkpt>
<trkpt lat="42.188905" lon="23.374099"><ele>2013.2</ele><time>2026-03-02T11:40:33.000Z</time></trkpt>
<trkpt lat="42.188905" lon="23.374099"><ele>2013.2</ele><time>2026-03-02T11:40:34.000Z</time></trkpt>
<trkpt lat="42.188904" lon="23.374098"><ele>2013.1</ele><time>2026-03-02T11:40:35.000Z</time></trkpt>
<trkpt lat="42.188903" lon="23.374099"><ele>2013.1</ele><time>2026-03-02T11:40:36.000Z</time></trkpt>
<trkpt lat="42.188903" lon="23.374101"><ele>2013.1</ele><time>2026-03-02T11:40:37.000Z</time></trkpt>
<trkpt lat="42.188902" lon="23.374102"><ele>2013.1</ele><time>2026-03-02T11:40:38.000Z</time></trkpt>
<trkpt lat="42.188904" lon="23.374102"><ele>2013.1</ele><time>2026-03-02T11:40:39.000Z</time></trkpt>
<trkpt lat="42.188908" lon="23.374101"><ele>2013</ele><time>2026-03-02T11:40:40.000Z</time></trkpt>
<trkpt lat="42.188913" lon="23.374098"><ele>2013</ele><time>2026-03-02T11:40:41.000Z</time></trkpt>
<trkpt lat="42.188922" lon="23.374095"><ele>2013</ele><time>2026-03-02T11:40:42.000Z</time></trkpt>
<trkpt lat="42.188934" lon="23.374093"><ele>2013</ele><time>2026-03-02T11:40:43.000Z</time></trkpt>
<trkpt lat="42.188947" lon="23.374092"><ele>2013</ele><time>2026-03-02T11:40:44.000Z</time></trkpt>
<trkpt lat="42.18896" lon="23.374092"><ele>2012.7</ele><time>2026-03-02T11:40:45.000Z</time></trkpt>
<trkpt lat="42.188974" lon="23.374092"><ele>2012.7</ele><time>2026-03-02T11:40:46.000Z</time></trkpt>
<trkpt lat="42.188988" lon="23.374093"><ele>2012.7</ele><time>2026-03-02T11:40:47.000Z</time></trkpt>
<trkpt lat="42.189002" lon="23.374093"><ele>2012.7</ele><time>2026-03-02T11:40:48.000Z</time></trkpt>
<trkpt lat="42.189016" lon="23.374093"><ele>2012.7</ele><time>2026-03-02T11:40:49.000Z</time></trkpt>
<trkpt lat="42.189029" lon="23.374094"><ele>2012.4</ele><time>2026-03-02T11:40:50.000Z</time></trkpt>
<trkpt lat="42.189043" lon="23.374096"><ele>2012.4</ele><time>2026-03-02T11:40:51.000Z</time></trkpt>
<trkpt lat="42.189055" lon="23.3741"><ele>2012.4</ele><time>2026-03-02T11:40:52.000Z</time></trkpt>
<trkpt lat="42.189064" lon="23.374102"><ele>2012.4</ele><time>2026-03-02T11:40:53.000Z</time></trkpt>
<trkpt lat="42.189071" lon="23.374102"><ele>2012.4</ele><time>2026-03-02T11:40:54.000Z</time></trkpt>
<trkpt lat="42.189077" lon="23.3741"><ele>2012.2</ele><time>2026-03-02T11:40:55.000Z</time></trkpt>
<trkpt lat="42.189081" lon="23.374098"><ele>2012.2</ele><time>2026-03-02T11:40:56.000Z</time></trkpt>
<trkpt lat="42.189086" lon="23.374095"><ele>2012.2</ele><time>2026-03-02T11:40:57.000Z</time></trkpt>
<trkpt lat="42.189092" lon="23.374095"><ele>2012.2</ele><time>2026-03-02T11:40:58.000Z</time></trkpt>
<trkpt lat="42.189099" lon="23.374097"><ele>2012.2</ele><time>2026-03-02T11:40:59.000Z</time></trkpt>
<trkpt lat="42.189108" lon="23.374101"><ele>2012.1</ele><time>2026-03-02T11:41:00.000Z</time></trkpt>
<trkpt lat="42.189117" lon="23.374106"><ele>2012.1</ele><time>2026-03-02T11:41:01.000Z</time></trkpt>
<trkpt lat="42.189125" lon="23.374111"><ele>2012.1</ele><time>2026-03-02T11:41:02.000Z</time></trkpt>
<trkpt lat="42.189133" lon="23.374115"><ele>2012.1</ele><time>2026-03-02T11:41:03.000Z</time></trkpt>
<trkpt lat="42.189142" lon="23.374118"><ele>2012.1</ele><time>2026-03-02T11:41:04.000Z</time></trkpt>
<trkpt lat="42.18915" lon="23.374121"><ele>2012.3</ele><time>2026-03-02T11:41:05.000Z</time></trkpt>
<trkpt lat="42.18916" lon="23.374124"><ele>2012.3</ele><time>2026-03-02T11:41:06.000Z</time></trkpt>
<trkpt lat="42.189169" lon="23.374126"><ele>2012.3</ele><time>2026-03-02T11:41:07.000Z</time></trkpt>
<trkpt lat="42.189178" lon="23.374128"><ele>2012.3</ele><time>2026-03-02T11:41:08.000Z</time></trkpt>
<trkpt lat="42.189187" lon="23.37413"><ele>2012.3</ele><time>2026-03-02T11:41:09.000Z</time></trkpt>
<trkpt lat="42.189195" lon="23.374132"><ele>2012.5</ele><time>2026-03-02T11:41:10.000Z</time></trkpt>
<trkpt lat="42.189204" lon="23.374136"><ele>2012.5</ele><time>2026-03-02T11:41:11.000Z</time></trkpt>
<trkpt lat="42.189213" lon="23.374139"><ele>2012.5</ele><time>2026-03-02T11:41:12.000Z</time></trkpt>
<trkpt lat="42.189223" lon="23.374143"><ele>2012.5</ele><time>2026-03-02T11:41:13.000Z</time></trkpt>
<trkpt lat="42.189233" lon="23.37415"><ele>2012.5</ele><time>2026-03-02T11:41:14.000Z</time></trkpt>
<trkpt lat="42.189243" lon="23.374157"><ele>2012.8</ele><time>2026-03-02T11:41:15.000Z</time></trkpt>
<trkpt lat="42.189253" lon="23.374163"><ele>2012.8</ele><time>2026-03-02T11:41:16.000Z</time></trkpt>
<trkpt lat="42.189263" lon="23.374168"><ele>2012.8</ele><time>2026-03-02T11:41:17.000Z</time></trkpt>
<trkpt lat="42.189273" lon="23.374174"><ele>2012.8</ele><time>2026-03-02T11:41:18.000Z</time></trkpt>
<trkpt lat="42.189283" lon="23.374177"><ele>2012.8</ele><time>2026-03-02T11:41:19.000Z</time></trkpt>
<trkpt lat="42.189293" lon="23.374179"><ele>2012.6</ele><time>2026-03-02T11:41:20.000Z</time></trkpt>
<trkpt lat="42.189301" lon="23.374181"><ele>2012.6</ele><time>2026-03-02T11:41:21.000Z</time></trkpt>
<trkpt lat="42.189306" lon="23.374183"><ele>2012.6</ele><time>2026-03-02T11:41:22.000Z</time></trkpt>
<trkpt lat="42.189309" lon="23.374183"><ele>2012.6</ele><time>2026-03-02T11:41:23.000Z</time></trkpt>
<trkpt lat="42.189311" lon="23.374184"><ele>2012.6</ele><time>2026-03-02T11:41:24.000Z</time></trkpt>
<trkpt lat="42.189313" lon="23.374186"><ele>2012.3</ele><time>2026-03-02T11:41:25.000Z</time></trkpt>
<trkpt lat="42.189318" lon="23.374189"><ele>2012.3</ele><time>2026-03-02T11:41:26.000Z</time></trkpt>
<trkpt lat="42.189327" lon="23.374194"><ele>2012.3</ele><time>2026-03-02T11:41:27.000Z</time></trkpt>
<trkpt lat="42.189335" lon="23.374198"><ele>2012.3</ele><time>2026-03-02T11:41:28.000Z</time></trkpt>
<trkpt lat="42.189343" lon="23.374201"><ele>2012.3</ele><time>2026-03-02T11:41:29.000Z</time></trkpt>
<trkpt lat="42.189348" lon="23.374204"><ele>2011.2</ele><time>2026-03-02T11:41:30.000Z</time></trkpt>
<trkpt lat="42.18935" lon="23.374205"><ele>2011.2</ele><time>2026-03-02T11:41:31.000Z</time></trkpt>
<trkpt lat="42.189349" lon="23.374205"><ele>2011.2</ele><time>2026-03-02T11:41:32.000Z</time></trkpt>
<trkpt lat="42.189347" lon="23.374206"><ele>2011.2</ele><time>2026-03-02T11:41:33.000Z</time></trkpt>
<trkpt lat="42.189346" lon="23.374206"><ele>2011.2</ele><time>2026-03-02T11:41:34.000Z</time></trkpt>
<trkpt lat="42.189345" lon="23.374207"><ele>2010.3</ele><time>2026-03-02T11:41:35.000Z</time></trkpt>
<trkpt lat="42.189345" lon="23.374206"><ele>2010.3</ele><time>2026-03-02T11:41:36.000Z</time></trkpt>
<trkpt lat="42.189344" lon="23.374206"><ele>2010.3</ele><time>2026-03-02T11:41:37.000Z</time></trkpt>
<trkpt lat="42.189344" lon="23.374206"><ele>2010.3</ele><time>2026-03-02T11:41:38.000Z</time></trkpt>
<trkpt lat="42.189344" lon="23.374206"><ele>2010.3</ele><time>2026-03-02T11:41:39.000Z</time></trkpt>
<trkpt lat="42.189344" lon="23.374206"><ele>2010</ele><time>2026-03-02T11:41:40.000Z</time></trkpt>
<trkpt lat="42.189345" lon="23.374207"><ele>2010</ele><time>2026-03-02T11:41:41.000Z</time></trkpt>
<trkpt lat="42.189345" lon="23.374208"><ele>2010</ele><time>2026-03-02T11:41:42.000Z</time></trkpt>
<trkpt lat="42.189346" lon="23.374208"><ele>2010</ele><time>2026-03-02T11:41:43.000Z</time></trkpt>
<trkpt lat="42.189348" lon="23.374209"><ele>2010</ele><time>2026-03-02T11:41:44.000Z</time></trkpt>
<trkpt lat="42.189349" lon="23.374209"><ele>2009.6</ele><time>2026-03-02T11:41:45.000Z</time></trkpt>
<trkpt lat="42.189351" lon="23.374209"><ele>2009.6</ele><time>2026-03-02T11:41:46.000Z</time></trkpt>
<trkpt lat="42.189352" lon="23.374208"><ele>2009.6</ele><time>2026-03-02T11:41:47.000Z</time></trkpt>
<trkpt lat="42.189353" lon="23.374208"><ele>2009.6</ele><time>2026-03-02T11:41:48.000Z</time></trkpt>
<trkpt lat="42.189354" lon="23.374207"><ele>2009.6</ele><time>2026-03-02T11:41:49.000Z</time></trkpt>
<trkpt lat="42.189355" lon="23.374207"><ele>2009.5</ele><time>2026-03-02T11:41:50.000Z</time></trkpt>
<trkpt lat="42.189356" lon="23.374207"><ele>2009.5</ele><time>2026-03-02T11:41:51.000Z</time></trkpt>
<trkpt lat="42.189357" lon="23.374206"><ele>2009.5</ele><time>2026-03-02T11:41:52.000Z</time></trkpt>
<trkpt lat="42.189358" lon="23.374207"><ele>2009.5</ele><time>2026-03-02T11:41:53.000Z</time></trkpt>
<trkpt lat="42.189359" lon="23.374208"><ele>2009.5</ele><time>2026-03-02T11:41:54.000Z</time></trkpt>
<trkpt lat="42.18936" lon="23.374208"><ele>2009.5</ele><time>2026-03-02T11:41:55.000Z</time></trkpt>
<trkpt lat="42.189361" lon="23.374209"><ele>2009.5</ele><time>2026-03-02T11:41:56.000Z</time></trkpt>
<trkpt lat="42.189361" lon="23.37421"><ele>2009.5</ele><time>2026-03-02T11:41:57.000Z</time></trkpt>
<trkpt lat="42.189361" lon="23.374212"><ele>2009.5</ele><time>2026-03-02T11:41:58.000Z</time></trkpt>
<trkpt lat="42.189361" lon="23.374215"><ele>2009.5</ele><time>2026-03-02T11:41:59.000Z</time></trkpt>
<trkpt lat="42.189362" lon="23.374217"><ele>2009.6</ele><time>2026-03-02T11:42:00.000Z</time></trkpt>
<trkpt lat="42.189364" lon="23.374218"><ele>2009.6</ele><time>2026-03-02T11:42:01.000Z</time></trkpt>
<trkpt lat="42.189365" lon="23.374219"><ele>2009.6</ele><time>2026-03-02T11:42:02.000Z</time></trkpt>
<trkpt lat="42.189366" lon="23.374218"><ele>2009.6</ele><time>2026-03-02T11:42:03.000Z</time></trkpt>
<trkpt lat="42.189367" lon="23.374216"><ele>2009.6</ele><time>2026-03-02T11:42:04.000Z</time></trkpt>
<trkpt lat="42.189368" lon="23.374215"><ele>2009.5</ele><time>2026-03-02T11:42:05.000Z</time></trkpt>
<trkpt lat="42.189367" lon="23.374214"><ele>2009.5</ele><time>2026-03-02T11:42:06.000Z</time></trkpt>
<trkpt lat="42.189366" lon="23.374212"><ele>2009.5</ele><time>2026-03-02T11:42:07.000Z</time></trkpt>
<trkpt lat="42.189365" lon="23.374212"><ele>2009.5</ele><time>2026-03-02T11:42:08.000Z</time></trkpt>
<trkpt lat="42.189363" lon="23.374212"><ele>2009.5</ele><time>2026-03-02T11:42:09.000Z</time></trkpt>
<trkpt lat="42.189363" lon="23.374213"><ele>2009.4</ele><time>2026-03-02T11:42:10.000Z</time></trkpt>
<trkpt lat="42.189364" lon="23.374216"><ele>2009.4</ele><time>2026-03-02T11:42:11.000Z</time></trkpt>
<trkpt lat="42.189368" lon="23.37422"><ele>2009.4</ele><time>2026-03-02T11:42:12.000Z</time></trkpt>
<trkpt lat="42.189372" lon="23.374224"><ele>2009.4</ele><time>2026-03-02T11:42:13.000Z</time></trkpt>
<trkpt lat="42.189376" lon="23.374228"><ele>2009.4</ele><time>2026-03-02T11:42:14.000Z</time></trkpt>
<trkpt lat="42.18938" lon="23.374232"><ele>2009.4</ele><time>2026-03-02T11:42:15.000Z</time></trkpt>
<trkpt lat="42.189381" lon="23.374234"><ele>2009.4</ele><time>2026-03-02T11:42:16.000Z</time></trkpt>
<trkpt lat="42.189382" lon="23.374237"><ele>2009.4</ele><time>2026-03-02T11:42:17.000Z</time></trkpt>
<trkpt lat="42.189382" lon="23.374238"><ele>2009.4</ele><time>2026-03-02T11:42:18.000Z</time></trkpt>
<trkpt lat="42.189382" lon="23.374239"><ele>2009.4</ele><time>2026-03-02T11:42:19.000Z</time></trkpt>
<trkpt lat="42.189381" lon="23.374239"><ele>2009.5</ele><time>2026-03-02T11:42:20.000Z</time></trkpt>
<trkpt lat="42.189381" lon="23.37424"><ele>2009.5</ele><time>2026-03-02T11:42:21.000Z</time></trkpt>
<trkpt lat="42.189382" lon="23.37424"><ele>2009.5</ele><time>2026-03-02T11:42:22.000Z</time></trkpt>
<trkpt lat="42.189383" lon="23.37424"><ele>2009.5</ele><time>2026-03-02T11:42:23.000Z</time></trkpt>
<trkpt lat="42.189384" lon="23.37424"><ele>2009.5</ele><time>2026-03-02T11:42:24.000Z</time></trkpt>
<trkpt lat="42.189385" lon="23.37424"><ele>2009.6</ele><time>2026-03-02T11:42:25.000Z</time></trkpt>
<trkpt lat="42.189386" lon="23.374241"><ele>2009.6</ele><time>2026-03-02T11:42:26.000Z</time></trkpt>
<trkpt lat="42.189387" lon="23.374241"><ele>2009.6</ele><time>2026-03-02T11:42:27.000Z</time></trkpt>
<trkpt lat="42.189387" lon="23.374241"><ele>2009.6</ele><time>2026-03-02T11:42:28.000Z</time></trkpt>
<trkpt lat="42.189387" lon="23.374242"><ele>2009.6</ele><time>2026-03-02T11:42:29.000Z</time></trkpt>
<trkpt lat="42.189385" lon="23.374244"><ele>2009.5</ele><time>2026-03-02T11:42:30.000Z</time></trkpt>
<trkpt lat="42.189384" lon="23.374245"><ele>2009.5</ele><time>2026-03-02T11:42:31.000Z</time></trkpt>
<trkpt lat="42.189383" lon="23.374246"><ele>2009.5</ele><time>2026-03-02T11:42:32.000Z</time></trkpt>
<trkpt lat="42.189384" lon="23.374248"><ele>2009.5</ele><time>2026-03-02T11:42:33.000Z</time></trkpt>
<trkpt lat="42.189387" lon="23.37425"><ele>2009.5</ele><time>2026-03-02T11:42:34.000Z</time></trkpt>
<trkpt lat="42.189393" lon="23.374252"><ele>2009.4</ele><time>2026-03-02T11:42:35.000Z</time></trkpt>
<trkpt lat="42.1894" lon="23.374254"><ele>2009.4</ele><time>2026-03-02T11:42:36.000Z</time></trkpt>
<trkpt lat="42.18941" lon="23.374258"><ele>2009.4</ele><time>2026-03-02T11:42:37.000Z</time></trkpt>
<trkpt lat="42.189421" lon="23.374263"><ele>2009.4</ele><time>2026-03-02T11:42:38.000Z</time></trkpt>
<trkpt lat="42.189433" lon="23.374267"><ele>2009.4</ele><time>2026-03-02T11:42:39.000Z</time></trkpt>
<trkpt lat="42.189444" lon="23.374272"><ele>2009.3</ele><time>2026-03-02T11:42:40.000Z</time></trkpt>
<trkpt lat="42.189456" lon="23.374278"><ele>2009.3</ele><time>2026-03-02T11:42:41.000Z</time></trkpt>
<trkpt lat="42.189465" lon="23.374283"><ele>2009.3</ele><time>2026-03-02T11:42:42.000Z</time></trkpt>
<trkpt lat="42.189475" lon="23.374288"><ele>2009.3</ele><time>2026-03-02T11:42:43.000Z</time></trkpt>
<trkpt lat="42.189484" lon="23.374292"><ele>2009.3</ele><time>2026-03-02T11:42:44.000Z</time></trkpt>
<trkpt lat="42.189493" lon="23.374297"><ele>2009.1</ele><time>2026-03-02T11:42:45.000Z</time></trkpt>
<trkpt lat="42.189503" lon="23.3743"><ele>2009.1</ele><time>2026-03-02T11:42:46.000Z</time></trkpt>
<trkpt lat="42.189515" lon="23.374303"><ele>2009.1</ele><time>2026-03-02T11:42:47.000Z</time></trkpt>
<trkpt lat="42.189528" lon="23.374307"><ele>2009.1</ele><time>2026-03-02T11:42:48.000Z</time></trkpt>
<trkpt lat="42.189541" lon="23.374311"><ele>2009.1</ele><time>2026-03-02T11:42:49.000Z</time></trkpt>
<trkpt lat="42.189554" lon="23.374314"><ele>2008.3</ele><time>2026-03-02T11:42:50.000Z</time></trkpt>
<trkpt lat="42.189567" lon="23.374317"><ele>2008.3</ele><time>2026-03-02T11:42:51.000Z</time></trkpt>
<trkpt lat="42.189578" lon="23.374321"><ele>2008.3</ele><time>2026-03-02T11:42:52.000Z</time></trkpt>
<trkpt lat="42.189588" lon="23.374323"><ele>2008.3</ele><time>2026-03-02T11:42:53.000Z</time></trkpt>
<trkpt lat="42.189597" lon="23.374324"><ele>2008.3</ele><time>2026-03-02T11:42:54.000Z</time></trkpt>
<trkpt lat="42.189605" lon="23.374325"><ele>2007.8</ele><time>2026-03-02T11:42:55.000Z</time></trkpt>
<trkpt lat="42.189611" lon="23.374327"><ele>2007.8</ele><time>2026-03-02T11:42:56.000Z</time></trkpt>
<trkpt lat="42.189619" lon="23.374329"><ele>2007.8</ele><time>2026-03-02T11:42:57.000Z</time></trkpt>
<trkpt lat="42.189628" lon="23.374334"><ele>2007.8</ele><time>2026-03-02T11:42:58.000Z</time></trkpt>
<trkpt lat="42.189638" lon="23.37434"><ele>2007.8</ele><time>2026-03-02T11:42:59.000Z</time></trkpt>
<trkpt lat="42.18965" lon="23.374346"><ele>2006.5</ele><time>2026-03-02T11:43:00.000Z</time></trkpt>
<trkpt lat="42.189662" lon="23.37435"><ele>2006.5</ele><time>2026-03-02T11:43:01.000Z</time></trkpt>
<trkpt lat="42.189675" lon="23.374355"><ele>2006.5</ele><time>2026-03-02T11:43:02.000Z</time></trkpt>
<trkpt lat="42.189687" lon="23.37436"><ele>2006.5</ele><time>2026-03-02T11:43:03.000Z</time></trkpt>
<trkpt lat="42.189698" lon="23.374364"><ele>2006.5</ele><time>2026-03-02T11:43:04.000Z</time></trkpt>
<trkpt lat="42.189709" lon="23.37437"><ele>2005.4</ele><time>2026-03-02T11:43:05.000Z</time></trkpt>
<trkpt lat="42.189719" lon="23.374375"><ele>2005.4</ele><time>2026-03-02T11:43:06.000Z</time></trkpt>
<trkpt lat="42.189729" lon="23.37438"><ele>2005.4</ele><time>2026-03-02T11:43:07.000Z</time></trkpt>
<trkpt lat="42.18974" lon="23.374385"><ele>2005.4</ele><time>2026-03-02T11:43:08.000Z</time></trkpt>
<trkpt lat="42.189751" lon="23.37439"><ele>2005.4</ele><time>2026-03-02T11:43:09.000Z</time></trkpt>
<trkpt lat="42.189762" lon="23.374396"><ele>2004.8</ele><time>2026-03-02T11:43:10.000Z</time></trkpt>
<trkpt lat="42.189774" lon="23.374402"><ele>2004.8</ele><time>2026-03-02T11:43:11.000Z</time></trkpt>
<trkpt lat="42.189786" lon="23.374409"><ele>2004.8</ele><time>2026-03-02T11:43:12.000Z</time></trkpt>
<trkpt lat="42.189797" lon="23.374415"><ele>2004.8</ele><time>2026-03-02T11:43:13.000Z</time></trkpt>
<trkpt lat="42.189808" lon="23.37442"><ele>2004.8</ele><time>2026-03-02T11:43:14.000Z</time></trkpt>
<trkpt lat="42.189818" lon="23.374424"><ele>2003.4</ele><time>2026-03-02T11:43:15.000Z</time></trkpt>
<trkpt lat="42.189827" lon="23.374427"><ele>2003.4</ele><time>2026-03-02T11:43:16.000Z</time></trkpt>
<trkpt lat="42.189835" lon="23.37443"><ele>2003.4</ele><time>2026-03-02T11:43:17.000Z</time></trkpt>
<trkpt lat="42.189843" lon="23.374435"><ele>2003.4</ele><time>2026-03-02T11:43:18.000Z</time></trkpt>
<trkpt lat="42.189852" lon="23.374439"><ele>2003.4</ele><time>2026-03-02T11:43:19.000Z</time></trkpt>
<trkpt lat="42.189863" lon="23.374444"><ele>2001.8</ele><time>2026-03-02T11:43:20.000Z</time></trkpt>
<trkpt lat="42.189874" lon="23.374451"><ele>2001.8</ele><time>2026-03-02T11:43:21.000Z</time></trkpt>
<trkpt lat="42.189887" lon="23.374458"><ele>2001.8</ele><time>2026-03-02T11:43:22.000Z</time></trkpt>
<trkpt lat="42.1899" lon="23.374464"><ele>2001.8</ele><time>2026-03-02T11:43:23.000Z</time></trkpt>
<trkpt lat="42.189913" lon="23.374471"><ele>2001.8</ele><time>2026-03-02T11:43:24.000Z</time></trkpt>
<trkpt lat="42.189925" lon="23.374478"><ele>2000.9</ele><time>2026-03-02T11:43:25.000Z</time></trkpt>
<trkpt lat="42.189935" lon="23.374484"><ele>2000.9</ele><time>2026-03-02T11:43:26.000Z</time></trkpt>
<trkpt lat="42.189945" lon="23.37449"><ele>2000.9</ele><time>2026-03-02T11:43:27.000Z</time></trkpt>
<trkpt lat="42.189955" lon="23.374496"><ele>2000.9</ele><time>2026-03-02T11:43:28.000Z</time></trkpt>
<trkpt lat="42.189966" lon="23.374501"><ele>2000.9</ele><time>2026-03-02T11:43:29.000Z</time></trkpt>
<trkpt lat="42.189977" lon="23.374505"><ele>1999.2</ele><time>2026-03-02T11:43:30.000Z</time></trkpt>
<trkpt lat="42.189989" lon="23.37451"><ele>1999.2</ele><time>2026-03-02T11:43:31.000Z</time></trkpt>
<trkpt lat="42.190001" lon="23.374515"><ele>1999.2</ele><time>2026-03-02T11:43:32.000Z</time></trkpt>
<trkpt lat="42.190013" lon="23.374522"><ele>1999.2</ele><time>2026-03-02T11:43:33.000Z</time></trkpt>
<trkpt lat="42.190023" lon="23.374527"><ele>1999.2</ele><time>2026-03-02T11:43:34.000Z</time></trkpt>
<trkpt lat="42.190034" lon="23.374534"><ele>1997.6</ele><time>2026-03-02T11:43:35.000Z</time></trkpt>
<trkpt lat="42.190045" lon="23.374541"><ele>1997.6</ele><time>2026-03-02T11:43:36.000Z</time></trkpt>
<trkpt lat="42.190057" lon="23.374549"><ele>1997.6</ele><time>2026-03-02T11:43:37.000Z</time></trkpt>
<trkpt lat="42.190069" lon="23.374557"><ele>1997.6</ele><time>2026-03-02T11:43:38.000Z</time></trkpt>
<trkpt lat="42.190081" lon="23.374566"><ele>1997.6</ele><time>2026-03-02T11:43:39.000Z</time></trkpt>
<trkpt lat="42.190093" lon="23.374575"><ele>1997</ele><time>2026-03-02T11:43:40.000Z</time></trkpt>
<trkpt lat="42.190105" lon="23.374584"><ele>1997</ele><time>2026-03-02T11:43:41.000Z</time></trkpt>
<trkpt lat="42.190117" lon="23.374591"><ele>1997</ele><time>2026-03-02T11:43:42.000Z</time></trkpt>
<trkpt lat="42.190128" lon="23.374596"><ele>1997</ele><time>2026-03-02T11:43:43.000Z</time></trkpt>
<trkpt lat="42.190139" lon="23.374598"><ele>1997</ele><time>2026-03-02T11:43:44.000Z</time></trkpt>
<trkpt lat="42.19015" lon="23.374599"><ele>1996</ele><time>2026-03-02T11:43:45.000Z</time></trkpt>
<trkpt lat="42.190159" lon="23.374598"><ele>1996</ele><time>2026-03-02T11:43:46.000Z</time></trkpt>
<trkpt lat="42.190167" lon="23.3746"><ele>1996</ele><time>2026-03-02T11:43:47.000Z</time></trkpt>
<trkpt lat="42.190174" lon="23.374605"><ele>1996</ele><time>2026-03-02T11:43:48.000Z</time></trkpt>
<trkpt lat="42.19018" lon="23.374612"><ele>1996</ele><time>2026-03-02T11:43:49.000Z</time></trkpt>
<trkpt lat="42.190186" lon="23.374621"><ele>1995.3</ele><time>2026-03-02T11:43:50.000Z</time></trkpt>
<trkpt lat="42.190193" lon="23.37463"><ele>1995.3</ele><time>2026-03-02T11:43:51.000Z</time></trkpt>
<trkpt lat="42.1902" lon="23.374638"><ele>1995.3</ele><time>2026-03-02T11:43:52.000Z</time></trkpt>
<trkpt lat="42.190209" lon="23.374645"><ele>1995.3</ele><time>2026-03-02T11:43:53.000Z</time></trkpt>
<trkpt lat="42.190219" lon="23.374652"><ele>1995.3</ele><time>2026-03-02T11:43:54.000Z</time></trkpt>
<trkpt lat="42.190227" lon="23.374657"><ele>1995</ele><time>2026-03-02T11:43:55.000Z</time></trkpt>
<trkpt lat="42.190235" lon="23.374662"><ele>1995</ele><time>2026-03-02T11:43:56.000Z</time></trkpt>
<trkpt lat="42.190243" lon="23.374667"><ele>1995</ele><time>2026-03-02T11:43:57.000Z</time></trkpt>
<trkpt lat="42.19025" lon="23.374671"><ele>1995</ele><time>2026-03-02T11:43:58.000Z</time></trkpt>
<trkpt lat="42.190257" lon="23.374675"><ele>1995</ele><time>2026-03-02T11:43:59.000Z</time></trkpt>
<trkpt lat="42.190266" lon="23.37468"><ele>1994.4</ele><time>2026-03-02T11:44:00.000Z</time></trkpt>
<trkpt lat="42.190274" lon="23.374685"><ele>1994.4</ele><time>2026-03-02T11:44:01.000Z</time></trkpt>
<trkpt lat="42.190282" lon="23.37469"><ele>1994.4</ele><time>2026-03-02T11:44:02.000Z</time></trkpt>
<trkpt lat="42.19029" lon="23.374694"><ele>1994.4</ele><time>2026-03-02T11:44:03.000Z</time></trkpt>
<trkpt lat="42.1903" lon="23.3747"><ele>1994.4</ele><time>2026-03-02T11:44:04.000Z</time></trkpt>
<trkpt lat="42.19031" lon="23.374704"><ele>1993.8</ele><time>2026-03-02T11:44:05.000Z</time></trkpt>
<trkpt lat="42.19032" lon="23.374708"><ele>1993.8</ele><time>2026-03-02T11:44:06.000Z</time></trkpt>
<trkpt lat="42.19033" lon="23.374711"><ele>1993.8</ele><time>2026-03-02T11:44:07.000Z</time></trkpt>
<trkpt lat="42.190341" lon="23.374715"><ele>1993.8</ele><time>2026-03-02T11:44:08.000Z</time></trkpt>
<trkpt lat="42.190351" lon="23.374718"><ele>1993.8</ele><time>2026-03-02T11:44:09.000Z</time></trkpt>
<trkpt lat="42.190361" lon="23.374721"><ele>1993.5</ele><time>2026-03-02T11:44:10.000Z</time></trkpt>
<trkpt lat="42.19037" lon="23.374723"><ele>1993.5</ele><time>2026-03-02T11:44:11.000Z</time></trkpt>
<trkpt lat="42.19038" lon="23.374727"><ele>1993.5</ele><time>2026-03-02T11:44:12.000Z</time></trkpt>
<trkpt lat="42.190391" lon="23.37473"><ele>1993.5</ele><time>2026-03-02T11:44:13.000Z</time></trkpt>
<trkpt lat="42.190401" lon="23.374732"><ele>1993.5</ele><time>2026-03-02T11:44:14.000Z</time></trkpt>
<trkpt lat="42.190413" lon="23.374736"><ele>1993</ele><time>2026-03-02T11:44:15.000Z</time></trkpt>
<trkpt lat="42.190425" lon="23.37474"><ele>1993</ele><time>2026-03-02T11:44:16.000Z</time></trkpt>
<trkpt lat="42.190438" lon="23.374744"><ele>1993</ele><time>2026-03-02T11:44:17.000Z</time></trkpt>
<trkpt lat="42.19045" lon="23.374749"><ele>1993</ele><time>2026-03-02T11:44:18.000Z</time></trkpt>
<trkpt lat="42.190462" lon="23.374754"><ele>1993</ele><time>2026-03-02T11:44:19.000Z</time></trkpt>
<trkpt lat="42.190475" lon="23.37476"><ele>1992.5</ele><time>2026-03-02T11:44:20.000Z</time></trkpt>
<trkpt lat="42.190487" lon="23.374767"><ele>1992.5</ele><time>2026-03-02T11:44:21.000Z</time></trkpt>
<trkpt lat="42.190497" lon="23.374773"><ele>1992.5</ele><time>2026-03-02T11:44:22.000Z</time></trkpt>
<trkpt lat="42.190508" lon="23.374779"><ele>1992.5</ele><time>2026-03-02T11:44:23.000Z</time></trkpt>
<trkpt lat="42.19052" lon="23.374785"><ele>1992.5</ele><time>2026-03-02T11:44:24.000Z</time></trkpt>
<trkpt lat="42.190532" lon="23.374793"><ele>1992.3</ele><time>2026-03-02T11:44:25.000Z</time></trkpt>
<trkpt lat="42.190543" lon="23.3748"><ele>1992.3</ele><time>2026-03-02T11:44:26.000Z</time></trkpt>
<trkpt lat="42.190555" lon="23.374808"><ele>1992.3</ele><time>2026-03-02T11:44:27.000Z</time></trkpt>
<trkpt lat="42.190567" lon="23.374815"><ele>1992.3</ele><time>2026-03-02T11:44:28.000Z</time></trkpt>
<trkpt lat="42.190578" lon="23.374822"><ele>1992.3</ele><time>2026-03-02T11:44:29.000Z</time></trkpt>
<trkpt lat="42.190589" lon="23.374829"><ele>1991.9</ele><time>2026-03-02T11:44:30.000Z</time></trkpt>
<trkpt lat="42.1906" lon="23.374837"><ele>1991.9</ele><time>2026-03-02T11:44:31.000Z</time></trkpt>
<trkpt lat="42.190611" lon="23.374844"><ele>1991.9</ele><time>2026-03-02T11:44:32.000Z</time></trkpt>
<trkpt lat="42.190623" lon="23.374853"><ele>1991.9</ele><time>2026-03-02T11:44:33.000Z</time></trkpt>
<trkpt lat="42.190635" lon="23.374863"><ele>1991.9</ele><time>2026-03-02T11:44:34.000Z</time></trkpt>
<trkpt lat="42.190647" lon="23.374873"><ele>1991.4</ele><time>2026-03-02T11:44:35.000Z</time></trkpt>
<trkpt lat="42.190659" lon="23.374883"><ele>1991.4</ele><time>2026-03-02T11:44:36.000Z</time></trkpt>
<trkpt lat="42.190672" lon="23.374893"><ele>1991.4</ele><time>2026-03-02T11:44:37.000Z</time></trkpt>
<trkpt lat="42.190685" lon="23.374901"><ele>1991.4</ele><time>2026-03-02T11:44:38.000Z</time></trkpt>
<trkpt lat="42.190696" lon="23.374909"><ele>1991.4</ele><time>2026-03-02T11:44:39.000Z</time></trkpt>
<trkpt lat="42.190708" lon="23.374916"><ele>1991</ele><time>2026-03-02T11:44:40.000Z</time></trkpt>
<trkpt lat="42.190721" lon="23.374923"><ele>1991</ele><time>2026-03-02T11:44:41.000Z</time></trkpt>
<trkpt lat="42.190733" lon="23.37493"><ele>1991</ele><time>2026-03-02T11:44:42.000Z</time></trkpt>
<trkpt lat="42.190744" lon="23.374937"><ele>1991</ele><time>2026-03-02T11:44:43.000Z</time></trkpt>
<trkpt lat="42.190756" lon="23.374944"><ele>1991</ele><time>2026-03-02T11:44:44.000Z</time></trkpt>
<trkpt lat="42.190768" lon="23.374951"><ele>1989.8</ele><time>2026-03-02T11:44:45.000Z</time></trkpt>
<trkpt lat="42.190779" lon="23.374957"><ele>1989.8</ele><time>2026-03-02T11:44:46.000Z</time></trkpt>
<trkpt lat="42.190789" lon="23.374963"><ele>1989.8</ele><time>2026-03-02T11:44:47.000Z</time></trkpt>
<trkpt lat="42.190798" lon="23.37497"><ele>1989.8</ele><time>2026-03-02T11:44:48.000Z</time></trkpt>
<trkpt lat="42.190807" lon="23.374979"><ele>1989.8</ele><time>2026-03-02T11:44:49.000Z</time></trkpt>
<trkpt lat="42.190815" lon="23.374989"><ele>1988.7</ele><time>2026-03-02T11:44:50.000Z</time></trkpt>
<trkpt lat="42.190823" lon="23.375002"><ele>1988.7</ele><time>2026-03-02T11:44:51.000Z</time></trkpt>
<trkpt lat="42.190832" lon="23.375016"><ele>1988.7</ele><time>2026-03-02T11:44:52.000Z</time></trkpt>
<trkpt lat="42.19084" lon="23.375031"><ele>1988.7</ele><time>2026-03-02T11:44:53.000Z</time></trkpt>
<trkpt lat="42.190848" lon="23.375045"><ele>1988.7</ele><time>2026-03-02T11:44:54.000Z</time></trkpt>
<trkpt lat="42.190855" lon="23.375059"><ele>1988.3</ele><time>2026-03-02T11:44:55.000Z</time></trkpt>
<trkpt lat="42.190864" lon="23.375072"><ele>1988.3</ele><time>2026-03-02T11:44:56.000Z</time></trkpt>
<trkpt lat="42.190873" lon="23.375086"><ele>1988.3</ele><time>2026-03-02T11:44:57.000Z</time></trkpt>
<trkpt lat="42.190882" lon="23.375101"><ele>1988.3</ele><time>2026-03-02T11:44:58.000Z</time></trkpt>
<trkpt lat="42.190893" lon="23.375116"><ele>1988.3</ele><time>2026-03-02T11:44:59.000Z</time></trkpt>
<trkpt lat="42.190903" lon="23.375133"><ele>1987.4</ele><time>2026-03-02T11:45:00.000Z</time></trkpt>
<trkpt lat="42.190913" lon="23.375149"><ele>1987.4</ele><time>2026-03-02T11:45:01.000Z</time></trkpt>
<trkpt lat="42.190921" lon="23.375163"><ele>1987.4</ele><time>2026-03-02T11:45:02.000Z</time></trkpt>
<trkpt lat="42.190928" lon="23.375177"><ele>1987.4</ele><time>2026-03-02T11:45:03.000Z</time></trkpt>
<trkpt lat="42.190934" lon="23.375189"><ele>1987.4</ele><time>2026-03-02T11:45:04.000Z</time></trkpt>
<trkpt lat="42.190941" lon="23.375201"><ele>1986.4</ele><time>2026-03-02T11:45:05.000Z</time></trkpt>
<trkpt lat="42.190947" lon="23.375213"><ele>1986.4</ele><time>2026-03-02T11:45:06.000Z</time></trkpt>
<trkpt lat="42.190954" lon="23.375226"><ele>1986.4</ele><time>2026-03-02T11:45:07.000Z</time></trkpt>
<trkpt lat="42.190961" lon="23.37524"><ele>1986.4</ele><time>2026-03-02T11:45:08.000Z</time></trkpt>
<trkpt lat="42.190969" lon="23.375255"><ele>1986.4</ele><time>2026-03-02T11:45:09.000Z</time></trkpt>
<trkpt lat="42.190978" lon="23.375269"><ele>1985.7</ele><time>2026-03-02T11:45:10.000Z</time></trkpt>
<trkpt lat="42.190988" lon="23.375283"><ele>1985.7</ele><time>2026-03-02T11:45:11.000Z</time></trkpt>
<trkpt lat="42.190999" lon="23.375295"><ele>1985.7</ele><time>2026-03-02T11:45:12.000Z</time></trkpt>
<trkpt lat="42.19101" lon="23.375306"><ele>1985.7</ele><time>2026-03-02T11:45:13.000Z</time></trkpt>
<trkpt lat="42.19102" lon="23.375316"><ele>1985.7</ele><time>2026-03-02T11:45:14.000Z</time></trkpt>
<trkpt lat="42.191029" lon="23.375327"><ele>1984.4</ele><time>2026-03-02T11:45:15.000Z</time></trkpt>
<trkpt lat="42.191036" lon="23.375339"><ele>1984.4</ele><time>2026-03-02T11:45:16.000Z</time></trkpt>
<trkpt lat="42.191044" lon="23.375352"><ele>1984.4</ele><time>2026-03-02T11:45:17.000Z</time></trkpt>
<trkpt lat="42.191051" lon="23.375366"><ele>1984.4</ele><time>2026-03-02T11:45:18.000Z</time></trkpt>
<trkpt lat="42.191059" lon="23.375379"><ele>1984.4</ele><time>2026-03-02T11:45:19.000Z</time></trkpt>
<trkpt lat="42.191067" lon="23.375391"><ele>1983.1</ele><time>2026-03-02T11:45:20.000Z</time></trkpt>
<trkpt lat="42.191075" lon="23.375405"><ele>1983.1</ele><time>2026-03-02T11:45:21.000Z</time></trkpt>
<trkpt lat="42.191084" lon="23.375417"><ele>1983.1</ele><time>2026-03-02T11:45:22.000Z</time></trkpt>
<trkpt lat="42.191092" lon="23.375431"><ele>1983.1</ele><time>2026-03-02T11:45:23.000Z</time></trkpt>
<trkpt lat="42.1911" lon="23.375445"><ele>1983.1</ele><time>2026-03-02T11:45:24.000Z</time></trkpt>
<trkpt lat="42.191108" lon="23.375459"><ele>1982.4</ele><time>2026-03-02T11:45:25.000Z</time></trkpt>
<trkpt lat="42.191116" lon="23.375473"><ele>1982.4</ele><time>2026-03-02T11:45:26.000Z</time></trkpt>
<trkpt lat="42.191122" lon="23.375487"><ele>1982.4</ele><time>2026-03-02T11:45:27.000Z</time></trkpt>
<trkpt lat="42.191129" lon="23.375501"><ele>1982.4</ele><time>2026-03-02T11:45:28.000Z</time></trkpt>
<trkpt lat="42.191135" lon="23.375513"><ele>1982.4</ele><time>2026-03-02T11:45:29.000Z</time></trkpt>
<trkpt lat="42.19114" lon="23.375526"><ele>1981.1</ele><time>2026-03-02T11:45:30.000Z</time></trkpt>
<trkpt lat="42.191145" lon="23.375536"><ele>1981.1</ele><time>2026-03-02T11:45:31.000Z</time></trkpt>
<trkpt lat="42.191151" lon="23.375546"><ele>1981.1</ele><time>2026-03-02T11:45:32.000Z</time></trkpt>
<trkpt lat="42.191157" lon="23.375556"><ele>1981.1</ele><time>2026-03-02T11:45:33.000Z</time></trkpt>
<trkpt lat="42.191164" lon="23.375565"><ele>1981.1</ele><time>2026-03-02T11:45:34.000Z</time></trkpt>
<trkpt lat="42.191172" lon="23.375574"><ele>1979.6</ele><time>2026-03-02T11:45:35.000Z</time></trkpt>
<trkpt lat="42.191182" lon="23.375583"><ele>1979.6</ele><time>2026-03-02T11:45:36.000Z</time></trkpt>
<trkpt lat="42.191191" lon="23.375591"><ele>1979.6</ele><time>2026-03-02T11:45:37.000Z</time></trkpt>
<trkpt lat="42.191201" lon="23.3756"><ele>1979.6</ele><time>2026-03-02T11:45:38.000Z</time></trkpt>
<trkpt lat="42.19121" lon="23.37561"><ele>1979.6</ele><time>2026-03-02T11:45:39.000Z</time></trkpt>
<trkpt lat="42.19122" lon="23.37562"><ele>1978.9</ele><time>2026-03-02T11:45:40.000Z</time></trkpt>
<trkpt lat="42.191229" lon="23.375632"><ele>1978.9</ele><time>2026-03-02T11:45:41.000Z</time></trkpt>
<trkpt lat="42.191237" lon="23.375646"><ele>1978.9</ele><time>2026-03-02T11:45:42.000Z</time></trkpt>
<trkpt lat="42.191246" lon="23.375659"><ele>1978.9</ele><time>2026-03-02T11:45:43.000Z</time></trkpt>
<trkpt lat="42.191254" lon="23.375671"><ele>1978.9</ele><time>2026-03-02T11:45:44.000Z</time></trkpt>
<trkpt lat="42.191262" lon="23.375684"><ele>1977.6</ele><time>2026-03-02T11:45:45.000Z</time></trkpt>
<trkpt lat="42.191271" lon="23.375696"><ele>1977.6</ele><time>2026-03-02T11:45:46.000Z</time></trkpt>
<trkpt lat="42.19128" lon="23.375708"><ele>1977.6</ele><time>2026-03-02T11:45:47.000Z</time></trkpt>
<trkpt lat="42.191289" lon="23.375721"><ele>1977.6</ele><time>2026-03-02T11:45:48.000Z</time></trkpt>
<trkpt lat="42.191299" lon="23.375733"><ele>1977.6</ele><time>2026-03-02T11:45:49.000Z</time></trkpt>
<trkpt lat="42.191308" lon="23.375744"><ele>1976.7</ele><time>2026-03-02T11:45:50.000Z</time></trkpt>
<trkpt lat="42.191317" lon="23.375756"><ele>1976.7</ele><time>2026-03-02T11:45:51.000Z</time></trkpt>
<trkpt lat="42.191326" lon="23.375766"><ele>1976.7</ele><time>2026-03-02T11:45:52.000Z</time></trkpt>
<trkpt lat="42.191335" lon="23.375773"><ele>1976.7</ele><time>2026-03-02T11:45:53.000Z</time></trkpt>
<trkpt lat="42.191344" lon="23.375781"><ele>1976.7</ele><time>2026-03-02T11:45:54.000Z</time></trkpt>
<trkpt lat="42.191355" lon="23.375789"><ele>1976.3</ele><time>2026-03-02T11:45:55.000Z</time></trkpt>
<trkpt lat="42.191365" lon="23.375795"><ele>1976.3</ele><time>2026-03-02T11:45:56.000Z</time></trkpt>
<trkpt lat="42.191376" lon="23.375802"><ele>1976.3</ele><time>2026-03-02T11:45:57.000Z</time></trkpt>
<trkpt lat="42.191387" lon="23.375809"><ele>1976.3</ele><time>2026-03-02T11:45:58.000Z</time></trkpt>
<trkpt lat="42.191398" lon="23.375816"><ele>1976.3</ele><time>2026-03-02T11:45:59.000Z</time></trkpt>
<trkpt lat="42.191409" lon="23.375822"><ele>1975.3</ele><time>2026-03-02T11:46:00.000Z</time></trkpt>
<trkpt lat="42.19142" lon="23.375829"><ele>1975.3</ele><time>2026-03-02T11:46:01.000Z</time></trkpt>
<trkpt lat="42.191431" lon="23.375836"><ele>1975.3</ele><time>2026-03-02T11:46:02.000Z</time></trkpt>
<trkpt lat="42.191442" lon="23.375843"><ele>1975.3</ele><time>2026-03-02T11:46:03.000Z</time></trkpt>
<trkpt lat="42.191453" lon="23.37585"><ele>1975.3</ele><time>2026-03-02T11:46:04.000Z</time></trkpt>
<trkpt lat="42.191464" lon="23.375857"><ele>1974.3</ele><time>2026-03-02T11:46:05.000Z</time></trkpt>
<trkpt lat="42.191475" lon="23.375864"><ele>1974.3</ele><time>2026-03-02T11:46:06.000Z</time></trkpt>
<trkpt lat="42.191486" lon="23.375872"><ele>1974.3</ele><time>2026-03-02T11:46:07.000Z</time></trkpt>
<trkpt lat="42.191496" lon="23.375879"><ele>1974.3</ele><time>2026-03-02T11:46:08.000Z</time></trkpt>
<trkpt lat="42.191506" lon="23.375886"><ele>1974.3</ele><time>2026-03-02T11:46:09.000Z</time></trkpt>
<trkpt lat="42.191517" lon="23.375894"><ele>1973.9</ele><time>2026-03-02T11:46:10.000Z</time></trkpt>
<trkpt lat="42.191527" lon="23.375902"><ele>1973.9</ele><time>2026-03-02T11:46:11.000Z</time></trkpt>
<trkpt lat="42.191537" lon="23.375911"><ele>1973.9</ele><time>2026-03-02T11:46:12.000Z</time></trkpt>
<trkpt lat="42.191548" lon="23.375923"><ele>1973.9</ele><time>2026-03-02T11:46:13.000Z</time></trkpt>
<trkpt lat="42.191558" lon="23.375936"><ele>1973.9</ele><time>2026-03-02T11:46:14.000Z</time></trkpt>
<trkpt lat="42.191568" lon="23.375949"><ele>1973</ele><time>2026-03-02T11:46:15.000Z</time></trkpt>
<trkpt lat="42.191576" lon="23.375963"><ele>1973</ele><time>2026-03-02T11:46:16.000Z</time></trkpt>
<trkpt lat="42.191583" lon="23.375979"><ele>1973</ele><time>2026-03-02T11:46:17.000Z</time></trkpt>
<trkpt lat="42.191589" lon="23.375993"><ele>1973</ele><time>2026-03-02T11:46:18.000Z</time></trkpt>
<trkpt lat="42.191594" lon="23.376008"><ele>1973</ele><time>2026-03-02T11:46:19.000Z</time></trkpt>
<trkpt lat="42.1916" lon="23.376024"><ele>1971.9</ele><time>2026-03-02T11:46:20.000Z</time></trkpt>
<trkpt lat="42.191608" lon="23.376039"><ele>1971.9</ele><time>2026-03-02T11:46:21.000Z</time></trkpt>
<trkpt lat="42.191617" lon="23.376054"><ele>1971.9</ele><time>2026-03-02T11:46:22.000Z</time></trkpt>
<trkpt lat="42.191629" lon="23.376066"><ele>1971.9</ele><time>2026-03-02T11:46:23.000Z</time></trkpt>
<trkpt lat="42.191641" lon="23.376077"><ele>1971.9</ele><time>2026-03-02T11:46:24.000Z</time></trkpt>
<trkpt lat="42.191654" lon="23.376087"><ele>1971.2</ele><time>2026-03-02T11:46:25.000Z</time></trkpt>
<trkpt lat="42.191666" lon="23.376096"><ele>1971.2</ele><time>2026-03-02T11:46:26.000Z</time></trkpt>
<trkpt lat="42.191679" lon="23.376104"><ele>1971.2</ele><time>2026-03-02T11:46:27.000Z</time></trkpt>
<trkpt lat="42.19169" lon="23.376112"><ele>1971.2</ele><time>2026-03-02T11:46:28.000Z</time></trkpt>
<trkpt lat="42.191702" lon="23.37612"><ele>1971.2</ele><time>2026-03-02T11:46:29.000Z</time></trkpt>
<trkpt lat="42.191713" lon="23.376128"><ele>1969.7</ele><time>2026-03-02T11:46:30.000Z</time></trkpt>
<trkpt lat="42.191725" lon="23.376138"><ele>1969.7</ele><time>2026-03-02T11:46:31.000Z</time></trkpt>
<trkpt lat="42.191735" lon="23.37615"><ele>1969.7</ele><time>2026-03-02T11:46:32.000Z</time></trkpt>
<trkpt lat="42.191745" lon="23.376164"><ele>1969.7</ele><time>2026-03-02T11:46:33.000Z</time></trkpt>
<trkpt lat="42.191755" lon="23.37618"><ele>1969.7</ele><time>2026-03-02T11:46:34.000Z</time></trkpt>
<trkpt lat="42.191766" lon="23.376195"><ele>1968.2</ele><time>2026-03-02T11:46:35.000Z</time></trkpt>
<trkpt lat="42.191776" lon="23.376209"><ele>1968.2</ele><time>2026-03-02T11:46:36.000Z</time></trkpt>
<trkpt lat="42.191786" lon="23.37622"><ele>1968.2</ele><time>2026-03-02T11:46:37.000Z</time></trkpt>
<trkpt lat="42.191798" lon="23.376227"><ele>1968.2</ele><time>2026-03-02T11:46:38.000Z</time></trkpt>
<trkpt lat="42.19181" lon="23.376232"><ele>1968.2</ele><time>2026-03-02T11:46:39.000Z</time></trkpt>
<trkpt lat="42.191822" lon="23.376234"><ele>1967.4</ele><time>2026-03-02T11:46:40.000Z</time></trkpt>
<trkpt lat="42.191835" lon="23.376233"><ele>1967.4</ele><time>2026-03-02T11:46:41.000Z</time></trkpt>
<trkpt lat="42.191848" lon="23.376232"><ele>1967.4</ele><time>2026-03-02T11:46:42.000Z</time></trkpt>
<trkpt lat="42.191861" lon="23.37623"><ele>1967.4</ele><time>2026-03-02T11:46:43.000Z</time></trkpt>
<trkpt lat="42.191874" lon="23.376228"><ele>1967.4</ele><time>2026-03-02T11:46:44.000Z</time></trkpt>
<trkpt lat="42.191888" lon="23.376228"><ele>1965.8</ele><time>2026-03-02T11:46:45.000Z</time></trkpt>
<trkpt lat="42.191901" lon="23.376229"><ele>1965.8</ele><time>2026-03-02T11:46:46.000Z</time></trkpt>
<trkpt lat="42.191914" lon="23.376231"><ele>1965.8</ele><time>2026-03-02T11:46:47.000Z</time></trkpt>
<trkpt lat="42.191926" lon="23.376234"><ele>1965.8</ele><time>2026-03-02T11:46:48.000Z</time></trkpt>
<trkpt lat="42.191938" lon="23.376237"><ele>1965.8</ele><time>2026-03-02T11:46:49.000Z</time></trkpt>
<trkpt lat="42.191951" lon="23.376242"><ele>1964.2</ele><time>2026-03-02T11:46:50.000Z</time></trkpt>
<trkpt lat="42.191963" lon="23.376247"><ele>1964.2</ele><time>2026-03-02T11:46:51.000Z</time></trkpt>
<trkpt lat="42.191975" lon="23.376252"><ele>1964.2</ele><time>2026-03-02T11:46:52.000Z</time></trkpt>
<trkpt lat="42.191988" lon="23.376259"><ele>1964.2</ele><time>2026-03-02T11:46:53.000Z</time></trkpt>
<trkpt lat="42.192001" lon="23.376267"><ele>1964.2</ele><time>2026-03-02T11:46:54.000Z</time></trkpt>
<trkpt lat="42.192014" lon="23.376276"><ele>1963.4</ele><time>2026-03-02T11:46:55.000Z</time></trkpt>
<trkpt lat="42.192027" lon="23.376285"><ele>1963.4</ele><time>2026-03-02T11:46:56.000Z</time></trkpt>
<trkpt lat="42.19204" lon="23.376295"><ele>1963.4</ele><time>2026-03-02T11:46:57.000Z</time></trkpt>
<trkpt lat="42.192054" lon="23.376305"><ele>1963.4</ele><time>2026-03-02T11:46:58.000Z</time></trkpt>
<trkpt lat="42.192066" lon="23.376316"><ele>1963.4</ele><time>2026-03-02T11:46:59.000Z</time></trkpt>
<trkpt lat="42.192079" lon="23.376326"><ele>1962</ele><time>2026-03-02T11:47:00.000Z</time></trkpt>
<trkpt lat="42.192092" lon="23.376335"><ele>1962</ele><time>2026-03-02T11:47:01.000Z</time></trkpt>
<trkpt lat="42.192104" lon="23.376344"><ele>1962</ele><time>2026-03-02T11:47:02.000Z</time></trkpt>
<trkpt lat="42.192115" lon="23.37635"><ele>1962</ele><time>2026-03-02T11:47:03.000Z</time></trkpt>
<trkpt lat="42.192126" lon="23.376354"><ele>1962</ele><time>2026-03-02T11:47:04.000Z</time></trkpt>
<trkpt lat="42.192137" lon="23.376356"><ele>1960.3</ele><time>2026-03-02T11:47:05.000Z</time></trkpt>
<trkpt lat="42.192147" lon="23.376358"><ele>1960.3</ele><time>2026-03-02T11:47:06.000Z</time></trkpt>
<trkpt lat="42.192158" lon="23.376361"><ele>1960.3</ele><time>2026-03-02T11:47:07.000Z</time></trkpt>
<trkpt lat="42.192169" lon="23.376366"><ele>1960.3</ele><time>2026-03-02T11:47:08.000Z</time></trkpt>
<trkpt lat="42.192182" lon="23.376372"><ele>1960.3</ele><time>2026-03-02T11:47:09.000Z</time></trkpt>
<trkpt lat="42.192195" lon="23.37638"><ele>1959.4</ele><time>2026-03-02T11:47:10.000Z</time></trkpt>
<trkpt lat="42.19221" lon="23.376386"><ele>1959.4</ele><time>2026-03-02T11:47:11.000Z</time></trkpt>
<trkpt lat="42.192224" lon="23.376392"><ele>1959.4</ele><time>2026-03-02T11:47:12.000Z</time></trkpt>
<trkpt lat="42.19224" lon="23.376398"><ele>1959.4</ele><time>2026-03-02T11:47:13.000Z</time></trkpt>
<trkpt lat="42.192255" lon="23.376403"><ele>1959.4</ele><time>2026-03-02T11:47:14.000Z</time></trkpt>
<trkpt lat="42.192269" lon="23.376407"><ele>1957.7</ele><time>2026-03-02T11:47:15.000Z</time></trkpt>
<trkpt lat="42.192284" lon="23.376414"><ele>1957.7</ele><time>2026-03-02T11:47:16.000Z</time></trkpt>
<trkpt lat="42.192297" lon="23.37642"><ele>1957.7</ele><time>2026-03-02T11:47:17.000Z</time></trkpt>
<trkpt lat="42.192309" lon="23.376426"><ele>1957.7</ele><time>2026-03-02T11:47:18.000Z</time></trkpt>
<trkpt lat="42.192321" lon="23.376432"><ele>1957.7</ele><time>2026-03-02T11:47:19.000Z</time></trkpt>
<trkpt lat="42.192332" lon="23.376437"><ele>1956.2</ele><time>2026-03-02T11:47:20.000Z</time></trkpt>
<trkpt lat="42.192343" lon="23.376442"><ele>1956.2</ele><time>2026-03-02T11:47:21.000Z</time></trkpt>
<trkpt lat="42.192354" lon="23.376448"><ele>1956.2</ele><time>2026-03-02T11:47:22.000Z</time></trkpt>
<trkpt lat="42.192365" lon="23.376454"><ele>1956.2</ele><time>2026-03-02T11:47:23.000Z</time></trkpt>
<trkpt lat="42.192376" lon="23.376461"><ele>1956.2</ele><time>2026-03-02T11:47:24.000Z</time></trkpt>
<trkpt lat="42.192388" lon="23.376467"><ele>1955.5</ele><time>2026-03-02T11:47:25.000Z</time></trkpt>
<trkpt lat="42.1924" lon="23.376473"><ele>1955.5</ele><time>2026-03-02T11:47:26.000Z</time></trkpt>
<trkpt lat="42.192413" lon="23.376478"><ele>1955.5</ele><time>2026-03-02T11:47:27.000Z</time></trkpt>
<trkpt lat="42.192426" lon="23.376482"><ele>1955.5</ele><time>2026-03-02T11:47:28.000Z</time></trkpt>
<trkpt lat="42.192439" lon="23.376484"><ele>1955.5</ele><time>2026-03-02T11:47:29.000Z</time></trkpt>
<trkpt lat="42.192452" lon="23.376488"><ele>1954.1</ele><time>2026-03-02T11:47:30.000Z</time></trkpt>
<trkpt lat="42.192465" lon="23.376492"><ele>1954.1</ele><time>2026-03-02T11:47:31.000Z</time></trkpt>
<trkpt lat="42.192478" lon="23.376496"><ele>1954.1</ele><time>2026-03-02T11:47:32.000Z</time></trkpt>
<trkpt lat="42.192492" lon="23.376501"><ele>1954.1</ele><time>2026-03-02T11:47:33.000Z</time></trkpt>
<trkpt lat="42.192506" lon="23.376507"><ele>1954.1</ele><time>2026-03-02T11:47:34.000Z</time></trkpt>
<trkpt lat="42.192521" lon="23.376513"><ele>1952.4</ele><time>2026-03-02T11:47:35.000Z</time></trkpt>
<trkpt lat="42.192535" lon="23.376519"><ele>1952.4</ele><time>2026-03-02T11:47:36.000Z</time></trkpt>
<trkpt lat="42.19255" lon="23.376524"><ele>1952.4</ele><time>2026-03-02T11:47:37.000Z</time></trkpt>
<trkpt lat="42.192564" lon="23.376531"><ele>1952.4</ele><time>2026-03-02T11:47:38.000Z</time></trkpt>
<trkpt lat="42.192578" lon="23.376536"><ele>1952.4</ele><time>2026-03-02T11:47:39.000Z</time></trkpt>
<trkpt lat="42.192592" lon="23.37654"><ele>1951.5</ele><time>2026-03-02T11:47:40.000Z</time></trkpt>
<trkpt lat="42.192607" lon="23.376544"><ele>1951.5</ele><time>2026-03-02T11:47:41.000Z</time></trkpt>
<trkpt lat="42.19262" lon="23.376548"><ele>1951.5</ele><time>2026-03-02T11:47:42.000Z</time></trkpt>
<trkpt lat="42.192634" lon="23.37655"><ele>1951.5</ele><time>2026-03-02T11:47:43.000Z</time></trkpt>
<trkpt lat="42.192646" lon="23.376555"><ele>1951.5</ele><time>2026-03-02T11:47:44.000Z</time></trkpt>
<trkpt lat="42.192657" lon="23.376559"><ele>1949.4</ele><time>2026-03-02T11:47:45.000Z</time></trkpt>
<trkpt lat="42.192667" lon="23.376563"><ele>1949.4</ele><time>2026-03-02T11:47:46.000Z</time></trkpt>
<trkpt lat="42.192676" lon="23.376569"><ele>1949.4</ele><time>2026-03-02T11:47:47.000Z</time></trkpt>
<trkpt lat="42.192686" lon="23.376575"><ele>1949.4</ele><time>2026-03-02T11:47:48.000Z</time></trkpt>
<trkpt lat="42.192695" lon="23.37658"><ele>1949.4</ele><time>2026-03-02T11:47:49.000Z</time></trkpt>
<trkpt lat="42.192706" lon="23.376584"><ele>1947.4</ele><time>2026-03-02T11:47:50.000Z</time></trkpt>
<trkpt lat="42.192718" lon="23.376588"><ele>1947.4</ele><time>2026-03-02T11:47:51.000Z</time></trkpt>
<trkpt lat="42.19273" lon="23.376589"><ele>1947.4</ele><time>2026-03-02T11:47:52.000Z</time></trkpt>
<trkpt lat="42.192744" lon="23.376589"><ele>1947.4</ele><time>2026-03-02T11:47:53.000Z</time></trkpt>
<trkpt lat="42.192759" lon="23.376587"><ele>1947.4</ele><time>2026-03-02T11:47:54.000Z</time></trkpt>
<trkpt lat="42.192775" lon="23.376586"><ele>1946.5</ele><time>2026-03-02T11:47:55.000Z</time></trkpt>
<trkpt lat="42.192792" lon="23.376584"><ele>1946.5</ele><time>2026-03-02T11:47:56.000Z</time></trkpt>
<trkpt lat="42.192809" lon="23.376583"><ele>1946.5</ele><time>2026-03-02T11:47:57.000Z</time></trkpt>
<trkpt lat="42.192826" lon="23.376583"><ele>1946.5</ele><time>2026-03-02T11:47:58.000Z</time></trkpt>
<trkpt lat="42.192841" lon="23.376585"><ele>1946.5</ele><time>2026-03-02T11:47:59.000Z</time></trkpt>
<trkpt lat="42.192856" lon="23.376587"><ele>1944.7</ele><time>2026-03-02T11:48:00.000Z</time></trkpt>
<trkpt lat="42.19287" lon="23.37659"><ele>1944.7</ele><time>2026-03-02T11:48:01.000Z</time></trkpt>
<trkpt lat="42.192884" lon="23.376592"><ele>1944.7</ele><time>2026-03-02T11:48:02.000Z</time></trkpt>
<trkpt lat="42.192897" lon="23.376594"><ele>1944.7</ele><time>2026-03-02T11:48:03.000Z</time></trkpt>
<trkpt lat="42.19291" lon="23.376595"><ele>1944.7</ele><time>2026-03-02T11:48:04.000Z</time></trkpt>
<trkpt lat="42.192923" lon="23.376596"><ele>1942.8</ele><time>2026-03-02T11:48:05.000Z</time></trkpt>
<trkpt lat="42.192937" lon="23.376598"><ele>1942.8</ele><time>2026-03-02T11:48:06.000Z</time></trkpt>
<trkpt lat="42.192951" lon="23.3766"><ele>1942.8</ele><time>2026-03-02T11:48:07.000Z</time></trkpt>
<trkpt lat="42.192965" lon="23.376604"><ele>1942.8</ele><time>2026-03-02T11:48:08.000Z</time></trkpt>
<trkpt lat="42.19298" lon="23.376608"><ele>1942.8</ele><time>2026-03-02T11:48:09.000Z</time></trkpt>
<trkpt lat="42.192994" lon="23.376613"><ele>1941.8</ele><time>2026-03-02T11:48:10.000Z</time></trkpt>
<trkpt lat="42.193008" lon="23.376617"><ele>1941.8</ele><time>2026-03-02T11:48:11.000Z</time></trkpt>
<trkpt lat="42.193022" lon="23.376619"><ele>1941.8</ele><time>2026-03-02T11:48:12.000Z</time></trkpt>
<trkpt lat="42.193035" lon="23.37662"><ele>1941.8</ele><time>2026-03-02T11:48:13.000Z</time></trkpt>
<trkpt lat="42.193049" lon="23.37662"><ele>1941.8</ele><time>2026-03-02T11:48:14.000Z</time></trkpt>
<trkpt lat="42.193062" lon="23.376619"><ele>1940</ele><time>2026-03-02T11:48:15.000Z</time></trkpt>
<trkpt lat="42.193075" lon="23.376619"><ele>1940</ele><time>2026-03-02T11:48:16.000Z</time></trkpt>
<trkpt lat="42.193088" lon="23.376619"><ele>1940</ele><time>2026-03-02T11:48:17.000Z</time></trkpt>
<trkpt lat="42.193101" lon="23.376618"><ele>1940</ele><time>2026-03-02T11:48:18.000Z</time></trkpt>
<trkpt lat="42.193113" lon="23.376618"><ele>1940</ele><time>2026-03-02T11:48:19.000Z</time></trkpt>
<trkpt lat="42.193126" lon="23.376617"><ele>1938.6</ele><time>2026-03-02T11:48:20.000Z</time></trkpt>
<trkpt lat="42.193139" lon="23.376617"><ele>1938.6</ele><time>2026-03-02T11:48:21.000Z</time></trkpt>
<trkpt lat="42.193152" lon="23.376618"><ele>1938.6</ele><time>2026-03-02T11:48:22.000Z</time></trkpt>
<trkpt lat="42.193166" lon="23.37662"><ele>1938.6</ele><time>2026-03-02T11:48:23.000Z</time></trkpt>
<trkpt lat="42.193179" lon="23.376624"><ele>1938.6</ele><time>2026-03-02T11:48:24.000Z</time></trkpt>
<trkpt lat="42.193192" lon="23.376627"><ele>1938</ele><time>2026-03-02T11:48:25.000Z</time></trkpt>
<trkpt lat="42.193204" lon="23.37663"><ele>1938</ele><time>2026-03-02T11:48:26.000Z</time></trkpt>
<trkpt lat="42.193216" lon="23.376633"><ele>1938</ele><time>2026-03-02T11:48:27.000Z</time></trkpt>
<trkpt lat="42.193228" lon="23.376635"><ele>1938</ele><time>2026-03-02T11:48:28.000Z</time></trkpt>
<trkpt lat="42.19324" lon="23.376636"><ele>1938</ele><time>2026-03-02T11:48:29.000Z</time></trkpt>
<trkpt lat="42.193252" lon="23.376637"><ele>1936.9</ele><time>2026-03-02T11:48:30.000Z</time></trkpt>
<trkpt lat="42.193264" lon="23.37664"><ele>1936.9</ele><time>2026-03-02T11:48:31.000Z</time></trkpt>
<trkpt lat="42.193274" lon="23.37664"><ele>1936.9</ele><time>2026-03-02T11:48:32.000Z</time></trkpt>
<trkpt lat="42.193285" lon="23.376641"><ele>1936.9</ele><time>2026-03-02T11:48:33.000Z</time></trkpt>
<trkpt lat="42.193295" lon="23.376641"><ele>1936.9</ele><time>2026-03-02T11:48:34.000Z</time></trkpt>
<trkpt lat="42.193305" lon="23.376641"><ele>1936.1</ele><time>2026-03-02T11:48:35.000Z</time></trkpt>
<trkpt lat="42.193316" lon="23.376641"><ele>1936.1</ele><time>2026-03-02T11:48:36.000Z</time></trkpt>
<trkpt lat="42.193329" lon="23.376643"><ele>1936.1</ele><time>2026-03-02T11:48:37.000Z</time></trkpt>
<trkpt lat="42.193341" lon="23.376646"><ele>1936.1</ele><time>2026-03-02T11:48:38.000Z</time></trkpt>
<trkpt lat="42.193353" lon="23.376651"><ele>1936.1</ele><time>2026-03-02T11:48:39.000Z</time></trkpt>
<trkpt lat="42.193365" lon="23.376655"><ele>1935.6</ele><time>2026-03-02T11:48:40.000Z</time></trkpt>
<trkpt lat="42.193376" lon="23.376659"><ele>1935.6</ele><time>2026-03-02T11:48:41.000Z</time></trkpt>
<trkpt lat="42.193387" lon="23.376662"><ele>1935.6</ele><time>2026-03-02T11:48:42.000Z</time></trkpt>
<trkpt lat="42.1934" lon="23.376667"><ele>1935.6</ele><time>2026-03-02T11:48:43.000Z</time></trkpt>
<trkpt lat="42.193412" lon="23.376671"><ele>1935.6</ele><time>2026-03-02T11:48:44.000Z</time></trkpt>
<trkpt lat="42.193424" lon="23.376677"><ele>1934.5</ele><time>2026-03-02T11:48:45.000Z</time></trkpt>
<trkpt lat="42.193437" lon="23.376684"><ele>1934.5</ele><time>2026-03-02T11:48:46.000Z</time></trkpt>
<trkpt lat="42.193449" lon="23.37669"><ele>1934.5</ele><time>2026-03-02T11:48:47.000Z</time></trkpt>
<trkpt lat="42.19346" lon="23.376696"><ele>1934.5</ele><time>2026-03-02T11:48:48.000Z</time></trkpt>
<trkpt lat="42.193473" lon="23.376703"><ele>1934.5</ele><time>2026-03-02T11:48:49.000Z</time></trkpt>
<trkpt lat="42.193485" lon="23.376711"><ele>1933.4</ele><time>2026-03-02T11:48:50.000Z</time></trkpt>
<trkpt lat="42.193496" lon="23.376719"><ele>1933.4</ele><time>2026-03-02T11:48:51.000Z</time></trkpt>
<trkpt lat="42.193507" lon="23.376729"><ele>1933.4</ele><time>2026-03-02T11:48:52.000Z</time></trkpt>
<trkpt lat="42.193517" lon="23.376741"><ele>1933.4</ele><time>2026-03-02T11:48:53.000Z</time></trkpt>
<trkpt lat="42.193525" lon="23.376754"><ele>1933.4</ele><time>2026-03-02T11:48:54.000Z</time></trkpt>
<trkpt lat="42.193532" lon="23.376767"><ele>1932.8</ele><time>2026-03-02T11:48:55.000Z</time></trkpt>
<trkpt lat="42.193538" lon="23.376782"><ele>1932.8</ele><time>2026-03-02T11:48:56.000Z</time></trkpt>
<trkpt lat="42.193542" lon="23.376796"><ele>1932.8</ele><time>2026-03-02T11:48:57.000Z</time></trkpt>
<trkpt lat="42.193547" lon="23.376812"><ele>1932.8</ele><time>2026-03-02T11:48:58.000Z</time></trkpt>
<trkpt lat="42.193553" lon="23.376826"><ele>1932.8</ele><time>2026-03-02T11:48:59.000Z</time></trkpt>
<trkpt lat="42.193559" lon="23.376842"><ele>1931.6</ele><time>2026-03-02T11:49:00.000Z</time></trkpt>
<trkpt lat="42.193567" lon="23.376858"><ele>1931.6</ele><time>2026-03-02T11:49:01.000Z</time></trkpt>
<trkpt lat="42.193575" lon="23.376877"><ele>1931.6</ele><time>2026-03-02T11:49:02.000Z</time></trkpt>
<trkpt lat="42.193585" lon="23.376895"><ele>1931.6</ele><time>2026-03-02T11:49:03.000Z</time></trkpt>
<trkpt lat="42.193595" lon="23.376913"><ele>1931.6</ele><time>2026-03-02T11:49:04.000Z</time></trkpt>
<trkpt lat="42.193605" lon="23.376931"><ele>1930.6</ele><time>2026-03-02T11:49:05.000Z</time></trkpt>
<trkpt lat="42.193615" lon="23.376947"><ele>1930.6</ele><time>2026-03-02T11:49:06.000Z</time></trkpt>
<trkpt lat="42.193625" lon="23.376961"><ele>1930.6</ele><time>2026-03-02T11:49:07.000Z</time></trkpt>
<trkpt lat="42.193634" lon="23.376975"><ele>1930.6</ele><time>2026-03-02T11:49:08.000Z</time></trkpt>
<trkpt lat="42.193642" lon="23.376989"><ele>1930.6</ele><time>2026-03-02T11:49:09.000Z</time></trkpt>
<trkpt lat="42.19365" lon="23.377004"><ele>1930</ele><time>2026-03-02T11:49:10.000Z</time></trkpt>
<trkpt lat="42.193657" lon="23.37702"><ele>1930</ele><time>2026-03-02T11:49:11.000Z</time></trkpt>
<trkpt lat="42.193665" lon="23.377038"><ele>1930</ele><time>2026-03-02T11:49:12.000Z</time></trkpt>
<trkpt lat="42.193673" lon="23.377057"><ele>1930</ele><time>2026-03-02T11:49:13.000Z</time></trkpt>
<trkpt lat="42.193682" lon="23.377075"><ele>1930</ele><time>2026-03-02T11:49:14.000Z</time></trkpt>
<trkpt lat="42.193691" lon="23.377093"><ele>1928.8</ele><time>2026-03-02T11:49:15.000Z</time></trkpt>
<trkpt lat="42.193701" lon="23.37711"><ele>1928.8</ele><time>2026-03-02T11:49:16.000Z</time></trkpt>
<trkpt lat="42.193711" lon="23.377125"><ele>1928.8</ele><time>2026-03-02T11:49:17.000Z</time></trkpt>
<trkpt lat="42.193721" lon="23.377138"><ele>1928.8</ele><time>2026-03-02T11:49:18.000Z</time></trkpt>
<trkpt lat="42.193732" lon="23.37715"><ele>1928.8</ele><time>2026-03-02T11:49:19.000Z</time></trkpt>
<trkpt lat="42.193744" lon="23.37716"><ele>1927.5</ele><time>2026-03-02T11:49:20.000Z</time></trkpt>
<trkpt lat="42.193756" lon="23.37717"><ele>1927.5</ele><time>2026-03-02T11:49:21.000Z</time></trkpt>
<trkpt lat="42.19377" lon="23.377178"><ele>1927.5</ele><time>2026-03-02T11:49:22.000Z</time></trkpt>
<trkpt lat="42.193784" lon="23.377185"><ele>1927.5</ele><time>2026-03-02T11:49:23.000Z</time></trkpt>
<trkpt lat="42.1938" lon="23.377191"><ele>1927.5</ele><time>2026-03-02T11:49:24.000Z</time></trkpt>
<trkpt lat="42.193815" lon="23.377195"><ele>1926.9</ele><time>2026-03-02T11:49:25.000Z</time></trkpt>
<trkpt lat="42.193831" lon="23.377198"><ele>1926.9</ele><time>2026-03-02T11:49:26.000Z</time></trkpt>
<trkpt lat="42.193847" lon="23.377199"><ele>1926.9</ele><time>2026-03-02T11:49:27.000Z</time></trkpt>
<trkpt lat="42.193861" lon="23.3772"><ele>1926.9</ele><time>2026-03-02T11:49:28.000Z</time></trkpt>
<trkpt lat="42.193876" lon="23.377199"><ele>1926.9</ele><time>2026-03-02T11:49:29.000Z</time></trkpt>
<trkpt lat="42.19389" lon="23.377198"><ele>1925.5</ele><time>2026-03-02T11:49:30.000Z</time></trkpt>
<trkpt lat="42.193903" lon="23.377197"><ele>1925.5</ele><time>2026-03-02T11:49:31.000Z</time></trkpt>
<trkpt lat="42.193916" lon="23.377196"><ele>1925.5</ele><time>2026-03-02T11:49:32.000Z</time></trkpt>
<trkpt lat="42.193929" lon="23.377197"><ele>1925.5</ele><time>2026-03-02T11:49:33.000Z</time></trkpt>
<trkpt lat="42.193942" lon="23.377199"><ele>1925.5</ele><time>2026-03-02T11:49:34.000Z</time></trkpt>
<trkpt lat="42.193956" lon="23.377203"><ele>1923.9</ele><time>2026-03-02T11:49:35.000Z</time></trkpt>
<trkpt lat="42.19397" lon="23.37721"><ele>1923.9</ele><time>2026-03-02T11:49:36.000Z</time></trkpt>
<trkpt lat="42.193983" lon="23.377219"><ele>1923.9</ele><time>2026-03-02T11:49:37.000Z</time></trkpt>
<trkpt lat="42.193995" lon="23.37723"><ele>1923.9</ele><time>2026-03-02T11:49:38.000Z</time></trkpt>
<trkpt lat="42.194005" lon="23.377243"><ele>1923.9</ele><time>2026-03-02T11:49:39.000Z</time></trkpt>
<trkpt lat="42.194015" lon="23.377256"><ele>1923.1</ele><time>2026-03-02T11:49:40.000Z</time></trkpt>
<trkpt lat="42.194024" lon="23.377271"><ele>1923.1</ele><time>2026-03-02T11:49:41.000Z</time></trkpt>
<trkpt lat="42.194033" lon="23.377285"><ele>1923.1</ele><time>2026-03-02T11:49:42.000Z</time></trkpt>
<trkpt lat="42.194043" lon="23.3773"><ele>1923.1</ele><time>2026-03-02T11:49:43.000Z</time></trkpt>
<trkpt lat="42.194053" lon="23.377314"><ele>1923.1</ele><time>2026-03-02T11:49:44.000Z</time></trkpt>
<trkpt lat="42.194063" lon="23.377328"><ele>1921.7</ele><time>2026-03-02T11:49:45.000Z</time></trkpt>
<trkpt lat="42.194074" lon="23.377341"><ele>1921.7</ele><time>2026-03-02T11:49:46.000Z</time></trkpt>
<trkpt lat="42.194084" lon="23.377353"><ele>1921.7</ele><time>2026-03-02T11:49:47.000Z</time></trkpt>
<trkpt lat="42.194095" lon="23.377364"><ele>1921.7</ele><time>2026-03-02T11:49:48.000Z</time></trkpt>
<trkpt lat="42.194106" lon="23.377373"><ele>1921.7</ele><time>2026-03-02T11:49:49.000Z</time></trkpt>
<trkpt lat="42.194116" lon="23.37738"><ele>1920.2</ele><time>2026-03-02T11:49:50.000Z</time></trkpt>
<trkpt lat="42.194127" lon="23.377386"><ele>1920.2</ele><time>2026-03-02T11:49:51.000Z</time></trkpt>
<trkpt lat="42.194138" lon="23.37739"><ele>1920.2</ele><time>2026-03-02T11:49:52.000Z</time></trkpt>
<trkpt lat="42.194149" lon="23.377394"><ele>1920.2</ele><time>2026-03-02T11:49:53.000Z</time></trkpt>
<trkpt lat="42.194162" lon="23.377396"><ele>1920.2</ele><time>2026-03-02T11:49:54.000Z</time></trkpt>
<trkpt lat="42.194174" lon="23.377399"><ele>1919.6</ele><time>2026-03-02T11:49:55.000Z</time></trkpt>
<trkpt lat="42.194187" lon="23.3774"><ele>1919.6</ele><time>2026-03-02T11:49:56.000Z</time></trkpt>
<trkpt lat="42.194199" lon="23.3774"><ele>1919.6</ele><time>2026-03-02T11:49:57.000Z</time></trkpt>
<trkpt lat="42.194211" lon="23.377401"><ele>1919.6</ele><time>2026-03-02T11:49:58.000Z</time></trkpt>
<trkpt lat="42.194222" lon="23.377401"><ele>1919.6</ele><time>2026-03-02T11:49:59.000Z</time></trkpt>
<trkpt lat="42.194234" lon="23.377401"><ele>1918.6</ele><time>2026-03-02T11:50:00.000Z</time></trkpt>
<trkpt lat="42.194246" lon="23.377403"><ele>1918.6</ele><time>2026-03-02T11:50:01.000Z</time></trkpt>
<trkpt lat="42.194258" lon="23.377407"><ele>1918.6</ele><time>2026-03-02T11:50:02.000Z</time></trkpt>
<trkpt lat="42.19427" lon="23.377413"><ele>1918.6</ele><time>2026-03-02T11:50:03.000Z</time></trkpt>
<trkpt lat="42.194282" lon="23.377423"><ele>1918.6</ele><time>2026-03-02T11:50:04.000Z</time></trkpt>
<trkpt lat="42.194294" lon="23.377434"><ele>1918</ele><time>2026-03-02T11:50:05.000Z</time></trkpt>
<trkpt lat="42.194305" lon="23.377446"><ele>1918</ele><time>2026-03-02T11:50:06.000Z</time></trkpt>
<trkpt lat="42.194317" lon="23.37746"><ele>1918</ele><time>2026-03-02T11:50:07.000Z</time></trkpt>
<trkpt lat="42.19433" lon="23.377473"><ele>1918</ele><time>2026-03-02T11:50:08.000Z</time></trkpt>
<trkpt lat="42.194341" lon="23.377486"><ele>1918</ele><time>2026-03-02T11:50:09.000Z</time></trkpt>
<trkpt lat="42.194353" lon="23.377498"><ele>1917.7</ele><time>2026-03-02T11:50:10.000Z</time></trkpt>
<trkpt lat="42.194364" lon="23.37751"><ele>1917.7</ele><time>2026-03-02T11:50:11.000Z</time></trkpt>
<trkpt lat="42.194374" lon="23.377522"><ele>1917.7</ele><time>2026-03-02T11:50:12.000Z</time></trkpt>
<trkpt lat="42.194385" lon="23.377533"><ele>1917.7</ele><time>2026-03-02T11:50:13.000Z</time></trkpt>
<trkpt lat="42.194396" lon="23.377542"><ele>1917.7</ele><time>2026-03-02T11:50:14.000Z</time></trkpt>
<trkpt lat="42.194407" lon="23.377549"><ele>1917.1</ele><time>2026-03-02T11:50:15.000Z</time></trkpt>
<trkpt lat="42.194419" lon="23.377553"><ele>1917.1</ele><time>2026-03-02T11:50:16.000Z</time></trkpt>
<trkpt lat="42.194431" lon="23.377555"><ele>1917.1</ele><time>2026-03-02T11:50:17.000Z</time></trkpt>
<trkpt lat="42.194444" lon="23.377557"><ele>1917.1</ele><time>2026-03-02T11:50:18.000Z</time></trkpt>
<trkpt lat="42.194457" lon="23.377559"><ele>1917.1</ele><time>2026-03-02T11:50:19.000Z</time></trkpt>
<trkpt lat="42.194471" lon="23.37756"><ele>1916.5</ele><time>2026-03-02T11:50:20.000Z</time></trkpt>
<trkpt lat="42.194484" lon="23.377561"><ele>1916.5</ele><time>2026-03-02T11:50:21.000Z</time></trkpt>
<trkpt lat="42.194495" lon="23.377561"><ele>1916.5</ele><time>2026-03-02T11:50:22.000Z</time></trkpt>
<trkpt lat="42.194507" lon="23.377559"><ele>1916.5</ele><time>2026-03-02T11:50:23.000Z</time></trkpt>
<trkpt lat="42.194518" lon="23.377555"><ele>1916.5</ele><time>2026-03-02T11:50:24.000Z</time></trkpt>
<trkpt lat="42.194531" lon="23.377551"><ele>1916.1</ele><time>2026-03-02T11:50:25.000Z</time></trkpt>
<trkpt lat="42.194544" lon="23.377546"><ele>1916.1</ele><time>2026-03-02T11:50:26.000Z</time></trkpt>
<trkpt lat="42.194559" lon="23.377542"><ele>1916.1</ele><time>2026-03-02T11:50:27.000Z</time></trkpt>
<trkpt lat="42.194574" lon="23.377538"><ele>1916.1</ele><time>2026-03-02T11:50:28.000Z</time></trkpt>
<trkpt lat="42.194589" lon="23.377535"><ele>1916.1</ele><time>2026-03-02T11:50:29.000Z</time></trkpt>
<trkpt lat="42.194604" lon="23.377534"><ele>1915.4</ele><time>2026-03-02T11:50:30.000Z</time></trkpt>
<trkpt lat="42.194618" lon="23.377535"><ele>1915.4</ele><time>2026-03-02T11:50:31.000Z</time></trkpt>
<trkpt lat="42.194632" lon="23.377539"><ele>1915.4</ele><time>2026-03-02T11:50:32.000Z</time></trkpt>
<trkpt lat="42.194644" lon="23.377543"><ele>1915.4</ele><time>2026-03-02T11:50:33.000Z</time></trkpt>
<trkpt lat="42.194656" lon="23.377547"><ele>1915.4</ele><time>2026-03-02T11:50:34.000Z</time></trkpt>
<trkpt lat="42.194668" lon="23.377551"><ele>1914.8</ele><time>2026-03-02T11:50:35.000Z</time></trkpt>
<trkpt lat="42.194681" lon="23.377555"><ele>1914.8</ele><time>2026-03-02T11:50:36.000Z</time></trkpt>
<trkpt lat="42.194695" lon="23.377559"><ele>1914.8</ele><time>2026-03-02T11:50:37.000Z</time></trkpt>
<trkpt lat="42.194709" lon="23.377565"><ele>1914.8</ele><time>2026-03-02T11:50:38.000Z</time></trkpt>
<trkpt lat="42.194724" lon="23.377571"><ele>1914.8</ele><time>2026-03-02T11:50:39.000Z</time></trkpt>
<trkpt lat="42.194737" lon="23.377578"><ele>1914.4</ele><time>2026-03-02T11:50:40.000Z</time></trkpt>
<trkpt lat="42.194749" lon="23.377586"><ele>1914.4</ele><time>2026-03-02T11:50:41.000Z</time></trkpt>
<trkpt lat="42.194761" lon="23.377594"><ele>1914.4</ele><time>2026-03-02T11:50:42.000Z</time></trkpt>
<trkpt lat="42.194772" lon="23.377602"><ele>1914.4</ele><time>2026-03-02T11:50:43.000Z</time></trkpt>
<trkpt lat="42.194783" lon="23.377612"><ele>1914.4</ele><time>2026-03-02T11:50:44.000Z</time></trkpt>
<trkpt lat="42.194794" lon="23.377622"><ele>1913.7</ele><time>2026-03-02T11:50:45.000Z</time></trkpt>
<trkpt lat="42.194805" lon="23.377634"><ele>1913.7</ele><time>2026-03-02T11:50:46.000Z</time></trkpt>
<trkpt lat="42.194815" lon="23.377647"><ele>1913.7</ele><time>2026-03-02T11:50:47.000Z</time></trkpt>
<trkpt lat="42.194825" lon="23.37766"><ele>1913.7</ele><time>2026-03-02T11:50:48.000Z</time></trkpt>
<trkpt lat="42.194835" lon="23.377672"><ele>1913.7</ele><time>2026-03-02T11:50:49.000Z</time></trkpt>
<trkpt lat="42.194844" lon="23.377682"><ele>1912.7</ele><time>2026-03-02T11:50:50.000Z</time></trkpt>
<trkpt lat="42.194854" lon="23.377691"><ele>1912.7</ele><time>2026-03-02T11:50:51.000Z</time></trkpt>
<trkpt lat="42.194864" lon="23.3777"><ele>1912.7</ele><time>2026-03-02T11:50:52.000Z</time></trkpt>
<trkpt lat="42.194875" lon="23.377709"><ele>1912.7</ele><time>2026-03-02T11:50:53.000Z</time></trkpt>
<trkpt lat="42.194887" lon="23.377717"><ele>1912.7</ele><time>2026-03-02T11:50:54.000Z</time></trkpt>
<trkpt lat="42.194899" lon="23.377725"><ele>1912.2</ele><time>2026-03-02T11:50:55.000Z</time></trkpt>
<trkpt lat="42.194913" lon="23.377734"><ele>1912.2</ele><time>2026-03-02T11:50:56.000Z</time></trkpt>
<trkpt lat="42.194927" lon="23.377742"><ele>1912.2</ele><time>2026-03-02T11:50:57.000Z</time></trkpt>
<trkpt lat="42.19494" lon="23.377749"><ele>1912.2</ele><time>2026-03-02T11:50:58.000Z</time></trkpt>
<trkpt lat="42.194954" lon="23.377757"><ele>1912.2</ele><time>2026-03-02T11:50:59.000Z</time></trkpt>
<trkpt lat="42.194967" lon="23.377765"><ele>1911.2</ele><time>2026-03-02T11:51:00.000Z</time></trkpt>
<trkpt lat="42.194981" lon="23.377772"><ele>1911.2</ele><time>2026-03-02T11:51:01.000Z</time></trkpt>
<trkpt lat="42.194994" lon="23.37778"><ele>1911.2</ele><time>2026-03-02T11:51:02.000Z</time></trkpt>
<trkpt lat="42.195007" lon="23.377789"><ele>1911.2</ele><time>2026-03-02T11:51:03.000Z</time></trkpt>
<trkpt lat="42.19502" lon="23.3778"><ele>1911.2</ele><time>2026-03-02T11:51:04.000Z</time></trkpt>
<trkpt lat="42.195032" lon="23.377809"><ele>1910.2</ele><time>2026-03-02T11:51:05.000Z</time></trkpt>
<trkpt lat="42.195045" lon="23.377818"><ele>1910.2</ele><time>2026-03-02T11:51:06.000Z</time></trkpt>
<trkpt lat="42.195057" lon="23.377826"><ele>1910.2</ele><time>2026-03-02T11:51:07.000Z</time></trkpt>
<trkpt lat="42.195069" lon="23.377833"><ele>1910.2</ele><time>2026-03-02T11:51:08.000Z</time></trkpt>
<trkpt lat="42.195082" lon="23.377838"><ele>1910.2</ele><time>2026-03-02T11:51:09.000Z</time></trkpt>
<trkpt lat="42.195094" lon="23.377844"><ele>1909.7</ele><time>2026-03-02T11:51:10.000Z</time></trkpt>
<trkpt lat="42.195107" lon="23.37785"><ele>1909.7</ele><time>2026-03-02T11:51:11.000Z</time></trkpt>
<trkpt lat="42.195119" lon="23.377854"><ele>1909.7</ele><time>2026-03-02T11:51:12.000Z</time></trkpt>
<trkpt lat="42.195131" lon="23.377858"><ele>1909.7</ele><time>2026-03-02T11:51:13.000Z</time></trkpt>
<trkpt lat="42.195143" lon="23.377862"><ele>1909.7</ele><time>2026-03-02T11:51:14.000Z</time></trkpt>
<trkpt lat="42.195155" lon="23.377863"><ele>1908.4</ele><time>2026-03-02T11:51:15.000Z</time></trkpt>
<trkpt lat="42.195169" lon="23.377866"><ele>1908.4</ele><time>2026-03-02T11:51:16.000Z</time></trkpt>
<trkpt lat="42.195183" lon="23.377869"><ele>1908.4</ele><time>2026-03-02T11:51:17.000Z</time></trkpt>
<trkpt lat="42.195198" lon="23.377874"><ele>1908.4</ele><time>2026-03-02T11:51:18.000Z</time></trkpt>
<trkpt lat="42.195213" lon="23.377878"><ele>1908.4</ele><time>2026-03-02T11:51:19.000Z</time></trkpt>
<trkpt lat="42.195227" lon="23.377884"><ele>1906.7</ele><time>2026-03-02T11:51:20.000Z</time></trkpt>
<trkpt lat="42.195242" lon="23.377891"><ele>1906.7</ele><time>2026-03-02T11:51:21.000Z</time></trkpt>
<trkpt lat="42.195257" lon="23.377899"><ele>1906.7</ele><time>2026-03-02T11:51:22.000Z</time></trkpt>
<trkpt lat="42.195272" lon="23.377908"><ele>1906.7</ele><time>2026-03-02T11:51:23.000Z</time></trkpt>
<trkpt lat="42.195287" lon="23.377918"><ele>1906.7</ele><time>2026-03-02T11:51:24.000Z</time></trkpt>
<trkpt lat="42.195302" lon="23.377929"><ele>1905.7</ele><time>2026-03-02T11:51:25.000Z</time></trkpt>
<trkpt lat="42.195315" lon="23.377939"><ele>1905.7</ele><time>2026-03-02T11:51:26.000Z</time></trkpt>
<trkpt lat="42.195326" lon="23.377948"><ele>1905.7</ele><time>2026-03-02T11:51:27.000Z</time></trkpt>
<trkpt lat="42.195336" lon="23.377958"><ele>1905.7</ele><time>2026-03-02T11:51:28.000Z</time></trkpt>
<trkpt lat="42.195346" lon="23.377968"><ele>1905.7</ele><time>2026-03-02T11:51:29.000Z</time></trkpt>
<trkpt lat="42.195356" lon="23.37798"><ele>1903.8</ele><time>2026-03-02T11:51:30.000Z</time></trkpt>
<trkpt lat="42.195367" lon="23.377995"><ele>1903.8</ele><time>2026-03-02T11:51:31.000Z</time></trkpt>
<trkpt lat="42.195375" lon="23.378013"><ele>1903.8</ele><time>2026-03-02T11:51:32.000Z</time></trkpt>
<trkpt lat="42.195382" lon="23.378031"><ele>1903.8</ele><time>2026-03-02T11:51:33.000Z</time></trkpt>
<trkpt lat="42.195385" lon="23.378051"><ele>1903.8</ele><time>2026-03-02T11:51:34.000Z</time></trkpt>
<trkpt lat="42.195388" lon="23.378069"><ele>1902.1</ele><time>2026-03-02T11:51:35.000Z</time></trkpt>
<trkpt lat="42.195388" lon="23.378085"><ele>1902.1</ele><time>2026-03-02T11:51:36.000Z</time></trkpt>
<trkpt lat="42.195388" lon="23.378099"><ele>1902.1</ele><time>2026-03-02T11:51:37.000Z</time></trkpt>
<trkpt lat="42.195388" lon="23.378116"><ele>1902.1</ele><time>2026-03-02T11:51:38.000Z</time></trkpt>
<trkpt lat="42.195386" lon="23.378134"><ele>1902.1</ele><time>2026-03-02T11:51:39.000Z</time></trkpt>
<trkpt lat="42.195384" lon="23.378152"><ele>1901.4</ele><time>2026-03-02T11:51:40.000Z</time></trkpt>
<trkpt lat="42.195381" lon="23.378172"><ele>1901.4</ele><time>2026-03-02T11:51:41.000Z</time></trkpt>
<trkpt lat="42.19538" lon="23.378192"><ele>1901.4</ele><time>2026-03-02T11:51:42.000Z</time></trkpt>
<trkpt lat="42.195379" lon="23.378212"><ele>1901.4</ele><time>2026-03-02T11:51:43.000Z</time></trkpt>
<trkpt lat="42.195381" lon="23.378232"><ele>1901.4</ele><time>2026-03-02T11:51:44.000Z</time></trkpt>
<trkpt lat="42.195383" lon="23.378251"><ele>1900.7</ele><time>2026-03-02T11:51:45.000Z</time></trkpt>
<trkpt lat="42.195386" lon="23.378268"><ele>1900.7</ele><time>2026-03-02T11:51:46.000Z</time></trkpt>
<trkpt lat="42.195388" lon="23.378285"><ele>1900.7</ele><time>2026-03-02T11:51:47.000Z</time></trkpt>
<trkpt lat="42.195392" lon="23.378301"><ele>1900.7</ele><time>2026-03-02T11:51:48.000Z</time></trkpt>
<trkpt lat="42.195395" lon="23.378318"><ele>1900.7</ele><time>2026-03-02T11:51:49.000Z</time></trkpt>
<trkpt lat="42.1954" lon="23.378335"><ele>1900.6</ele><time>2026-03-02T11:51:50.000Z</time></trkpt>
<trkpt lat="42.195407" lon="23.378353"><ele>1900.6</ele><time>2026-03-02T11:51:51.000Z</time></trkpt>
<trkpt lat="42.195414" lon="23.37837"><ele>1900.6</ele><time>2026-03-02T11:51:52.000Z</time></trkpt>
<trkpt lat="42.195422" lon="23.378387"><ele>1900.6</ele><time>2026-03-02T11:51:53.000Z</time></trkpt>
<trkpt lat="42.19543" lon="23.378402"><ele>1900.6</ele><time>2026-03-02T11:51:54.000Z</time></trkpt>
<trkpt lat="42.195438" lon="23.378416"><ele>1900.5</ele><time>2026-03-02T11:51:55.000Z</time></trkpt>
<trkpt lat="42.195447" lon="23.37843"><ele>1900.5</ele><time>2026-03-02T11:51:56.000Z</time></trkpt>
<trkpt lat="42.195455" lon="23.378444"><ele>1900.5</ele><time>2026-03-02T11:51:57.000Z</time></trkpt>
<trkpt lat="42.195463" lon="23.378458"><ele>1900.5</ele><time>2026-03-02T11:51:58.000Z</time></trkpt>
<trkpt lat="42.195471" lon="23.378474"><ele>1900.5</ele><time>2026-03-02T11:51:59.000Z</time></trkpt>
<trkpt lat="42.195478" lon="23.37849"><ele>1899.8</ele><time>2026-03-02T11:52:00.000Z</time></trkpt>
<trkpt lat="42.195485" lon="23.378505"><ele>1899.8</ele><time>2026-03-02T11:52:01.000Z</time></trkpt>
<trkpt lat="42.195491" lon="23.37852"><ele>1899.8</ele><time>2026-03-02T11:52:02.000Z</time></trkpt>
<trkpt lat="42.195497" lon="23.378533"><ele>1899.8</ele><time>2026-03-02T11:52:03.000Z</time></trkpt>
<trkpt lat="42.195503" lon="23.378545"><ele>1899.8</ele><time>2026-03-02T11:52:04.000Z</time></trkpt>
<trkpt lat="42.195509" lon="23.378557"><ele>1899</ele><time>2026-03-02T11:52:05.000Z</time></trkpt>
<trkpt lat="42.195516" lon="23.378569"><ele>1899</ele><time>2026-03-02T11:52:06.000Z</time></trkpt>
<trkpt lat="42.195525" lon="23.378583"><ele>1899</ele><time>2026-03-02T11:52:07.000Z</time></trkpt>
<trkpt lat="42.195534" lon="23.378597"><ele>1899</ele><time>2026-03-02T11:52:08.000Z</time></trkpt>
<trkpt lat="42.195544" lon="23.378612"><ele>1899</ele><time>2026-03-02T11:52:09.000Z</time></trkpt>
<trkpt lat="42.195554" lon="23.37863"><ele>1898.7</ele><time>2026-03-02T11:52:10.000Z</time></trkpt>
<trkpt lat="42.195564" lon="23.378647"><ele>1898.7</ele><time>2026-03-02T11:52:11.000Z</time></trkpt>
<trkpt lat="42.195574" lon="23.378663"><ele>1898.7</ele><time>2026-03-02T11:52:12.000Z</time></trkpt>
<trkpt lat="42.195583" lon="23.378679"><ele>1898.7</ele><time>2026-03-02T11:52:13.000Z</time></trkpt>
<trkpt lat="42.195592" lon="23.378693"><ele>1898.7</ele><time>2026-03-02T11:52:14.000Z</time></trkpt>
<trkpt lat="42.195601" lon="23.378705"><ele>1898.3</ele><time>2026-03-02T11:52:15.000Z</time></trkpt>
<trkpt lat="42.19561" lon="23.378716"><ele>1898.3</ele><time>2026-03-02T11:52:16.000Z</time></trkpt>
<trkpt lat="42.195618" lon="23.378727"><ele>1898.3</ele><time>2026-03-02T11:52:17.000Z</time></trkpt>
<trkpt lat="42.195626" lon="23.378739"><ele>1898.3</ele><time>2026-03-02T11:52:18.000Z</time></trkpt>
<trkpt lat="42.195635" lon="23.378753"><ele>1898.3</ele><time>2026-03-02T11:52:19.000Z</time></trkpt>
<trkpt lat="42.195644" lon="23.378767"><ele>1898.1</ele><time>2026-03-02T11:52:20.000Z</time></trkpt>
<trkpt lat="42.195652" lon="23.37878"><ele>1898.1</ele><time>2026-03-02T11:52:21.000Z</time></trkpt>
<trkpt lat="42.19566" lon="23.378792"><ele>1898.1</ele><time>2026-03-02T11:52:22.000Z</time></trkpt>
<trkpt lat="42.195668" lon="23.378804"><ele>1898.1</ele><time>2026-03-02T11:52:23.000Z</time></trkpt>
<trkpt lat="42.195676" lon="23.378818"><ele>1898.1</ele><time>2026-03-02T11:52:24.000Z</time></trkpt>
<trkpt lat="42.195684" lon="23.378831"><ele>1898.1</ele><time>2026-03-02T11:52:25.000Z</time></trkpt>
<trkpt lat="42.195692" lon="23.378846"><ele>1898.1</ele><time>2026-03-02T11:52:26.000Z</time></trkpt>
<trkpt lat="42.195701" lon="23.378861"><ele>1898.1</ele><time>2026-03-02T11:52:27.000Z</time></trkpt>
<trkpt lat="42.195709" lon="23.378875"><ele>1898.1</ele><time>2026-03-02T11:52:28.000Z</time></trkpt>
<trkpt lat="42.195718" lon="23.378887"><ele>1898.1</ele><time>2026-03-02T11:52:29.000Z</time></trkpt>
<trkpt lat="42.195727" lon="23.3789"><ele>1898.1</ele><time>2026-03-02T11:52:30.000Z</time></trkpt>
<trkpt lat="42.195735" lon="23.378914"><ele>1898.1</ele><time>2026-03-02T11:52:31.000Z</time></trkpt>
<trkpt lat="42.195745" lon="23.378929"><ele>1898.1</ele><time>2026-03-02T11:52:32.000Z</time></trkpt>
<trkpt lat="42.195755" lon="23.378942"><ele>1898.1</ele><time>2026-03-02T11:52:33.000Z</time></trkpt>
<trkpt lat="42.195763" lon="23.378955"><ele>1898.1</ele><time>2026-03-02T11:52:34.000Z</time></trkpt>
<trkpt lat="42.195771" lon="23.378967"><ele>1898.2</ele><time>2026-03-02T11:52:35.000Z</time></trkpt>
<trkpt lat="42.19578" lon="23.378979"><ele>1898.2</ele><time>2026-03-02T11:52:36.000Z</time></trkpt>
<trkpt lat="42.195788" lon="23.37899"><ele>1898.2</ele><time>2026-03-02T11:52:37.000Z</time></trkpt>
<trkpt lat="42.195796" lon="23.379003"><ele>1898.2</ele><time>2026-03-02T11:52:38.000Z</time></trkpt>
<trkpt lat="42.195804" lon="23.379018"><ele>1898.2</ele><time>2026-03-02T11:52:39.000Z</time></trkpt>
<trkpt lat="42.19581" lon="23.379031"><ele>1898.3</ele><time>2026-03-02T11:52:40.000Z</time></trkpt>
<trkpt lat="42.195816" lon="23.379045"><ele>1898.3</ele><time>2026-03-02T11:52:41.000Z</time></trkpt>
<trkpt lat="42.195821" lon="23.379057"><ele>1898.3</ele><time>2026-03-02T11:52:42.000Z</time></trkpt>
<trkpt lat="42.195827" lon="23.379069"><ele>1898.3</ele><time>2026-03-02T11:52:43.000Z</time></trkpt>
<trkpt lat="42.195833" lon="23.379081"><ele>1898.3</ele><time>2026-03-02T11:52:44.000Z</time></trkpt>
<trkpt lat="42.19584" lon="23.379093"><ele>1898.7</ele><time>2026-03-02T11:52:45.000Z</time></trkpt>
<trkpt lat="42.195848" lon="23.379104"><ele>1898.7</ele><time>2026-03-02T11:52:46.000Z</time></trkpt>
<trkpt lat="42.195856" lon="23.379114"><ele>1898.7</ele><time>2026-03-02T11:52:47.000Z</time></trkpt>
<trkpt lat="42.195863" lon="23.379126"><ele>1898.7</ele><time>2026-03-02T11:52:48.000Z</time></trkpt>
<trkpt lat="42.19587" lon="23.379138"><ele>1898.7</ele><time>2026-03-02T11:52:49.000Z</time></trkpt>
<trkpt lat="42.195875" lon="23.379149"><ele>1899.1</ele><time>2026-03-02T11:52:50.000Z</time></trkpt>
<trkpt lat="42.19588" lon="23.379162"><ele>1899.1</ele><time>2026-03-02T11:52:51.000Z</time></trkpt>
<trkpt lat="42.195883" lon="23.379177"><ele>1899.1</ele><time>2026-03-02T11:52:52.000Z</time></trkpt>
<trkpt lat="42.195885" lon="23.379189"><ele>1899.1</ele><time>2026-03-02T11:52:53.000Z</time></trkpt>
<trkpt lat="42.195886" lon="23.379201"><ele>1899.1</ele><time>2026-03-02T11:52:54.000Z</time></trkpt>
<trkpt lat="42.195885" lon="23.379213"><ele>1899.1</ele><time>2026-03-02T11:52:55.000Z</time></trkpt>
<trkpt lat="42.195883" lon="23.379224"><ele>1899.1</ele><time>2026-03-02T11:52:56.000Z</time></trkpt>
<trkpt lat="42.195881" lon="23.379234"><ele>1899.1</ele><time>2026-03-02T11:52:57.000Z</time></trkpt>
<trkpt lat="42.195878" lon="23.379245"><ele>1899.1</ele><time>2026-03-02T11:52:58.000Z</time></trkpt>
<trkpt lat="42.195879" lon="23.379256"><ele>1899.1</ele><time>2026-03-02T11:52:59.000Z</time></trkpt>
<trkpt lat="42.195882" lon="23.379267"><ele>1898.8</ele><time>2026-03-02T11:53:00.000Z</time></trkpt>
<trkpt lat="42.195887" lon="23.379277"><ele>1898.8</ele><time>2026-03-02T11:53:01.000Z</time></trkpt>
<trkpt lat="42.195896" lon="23.379289"><ele>1898.8</ele><time>2026-03-02T11:53:02.000Z</time></trkpt>
<trkpt lat="42.195906" lon="23.379301"><ele>1898.8</ele><time>2026-03-02T11:53:03.000Z</time></trkpt>
<trkpt lat="42.195916" lon="23.379313"><ele>1898.8</ele><time>2026-03-02T11:53:04.000Z</time></trkpt>
<trkpt lat="42.195926" lon="23.379325"><ele>1898.3</ele><time>2026-03-02T11:53:05.000Z</time></trkpt>
<trkpt lat="42.195936" lon="23.379338"><ele>1898.3</ele><time>2026-03-02T11:53:06.000Z</time></trkpt>
<trkpt lat="42.195946" lon="23.37935"><ele>1898.3</ele><time>2026-03-02T11:53:07.000Z</time></trkpt>
<trkpt lat="42.195957" lon="23.379361"><ele>1898.3</ele><time>2026-03-02T11:53:08.000Z</time></trkpt>
<trkpt lat="42.195967" lon="23.379373"><ele>1898.3</ele><time>2026-03-02T11:53:09.000Z</time></trkpt>
<trkpt lat="42.195978" lon="23.379382"><ele>1898.2</ele><time>2026-03-02T11:53:10.000Z</time></trkpt>
<trkpt lat="42.19599" lon="23.379389"><ele>1898.2</ele><time>2026-03-02T11:53:11.000Z</time></trkpt>
<trkpt lat="42.196003" lon="23.379394"><ele>1898.2</ele><time>2026-03-02T11:53:12.000Z</time></trkpt>
<trkpt lat="42.196016" lon="23.379398"><ele>1898.2</ele><time>2026-03-02T11:53:13.000Z</time></trkpt>
<trkpt lat="42.196029" lon="23.3794"><ele>1898.2</ele><time>2026-03-02T11:53:14.000Z</time></trkpt>
<trkpt lat="42.196043" lon="23.379401"><ele>1897.7</ele><time>2026-03-02T11:53:15.000Z</time></trkpt>
<trkpt lat="42.196056" lon="23.379401"><ele>1897.7</ele><time>2026-03-02T11:53:16.000Z</time></trkpt>
<trkpt lat="42.19607" lon="23.3794"><ele>1897.7</ele><time>2026-03-02T11:53:17.000Z</time></trkpt>
<trkpt lat="42.196084" lon="23.379399"><ele>1897.7</ele><time>2026-03-02T11:53:18.000Z</time></trkpt>
<trkpt lat="42.196099" lon="23.379399"><ele>1897.7</ele><time>2026-03-02T11:53:19.000Z</time></trkpt>
<trkpt lat="42.196114" lon="23.3794"><ele>1896.8</ele><time>2026-03-02T11:53:20.000Z</time></trkpt>
<trkpt lat="42.196128" lon="23.379403"><ele>1896.8</ele><time>2026-03-02T11:53:21.000Z</time></trkpt>
<trkpt lat="42.19614" lon="23.379408"><ele>1896.8</ele><time>2026-03-02T11:53:22.000Z</time></trkpt>
<trkpt lat="42.196151" lon="23.379414"><ele>1896.8</ele><time>2026-03-02T11:53:23.000Z</time></trkpt>
<trkpt lat="42.196163" lon="23.379423"><ele>1896.8</ele><time>2026-03-02T11:53:24.000Z</time></trkpt>
<trkpt lat="42.196173" lon="23.379432"><ele>1896.1</ele><time>2026-03-02T11:53:25.000Z</time></trkpt>
<trkpt lat="42.196184" lon="23.379441"><ele>1896.1</ele><time>2026-03-02T11:53:26.000Z</time></trkpt>
<trkpt lat="42.196196" lon="23.37945"><ele>1896.1</ele><time>2026-03-02T11:53:27.000Z</time></trkpt>
<trkpt lat="42.196209" lon="23.37946"><ele>1896.1</ele><time>2026-03-02T11:53:28.000Z</time></trkpt>
<trkpt lat="42.196222" lon="23.379468"><ele>1896.1</ele><time>2026-03-02T11:53:29.000Z</time></trkpt>
<trkpt lat="42.196236" lon="23.379479"><ele>1894.4</ele><time>2026-03-02T11:53:30.000Z</time></trkpt>
<trkpt lat="42.196251" lon="23.37949"><ele>1894.4</ele><time>2026-03-02T11:53:31.000Z</time></trkpt>
<trkpt lat="42.196265" lon="23.3795"><ele>1894.4</ele><time>2026-03-02T11:53:32.000Z</time></trkpt>
<trkpt lat="42.196279" lon="23.379509"><ele>1894.4</ele><time>2026-03-02T11:53:33.000Z</time></trkpt>
<trkpt lat="42.196293" lon="23.379516"><ele>1894.4</ele><time>2026-03-02T11:53:34.000Z</time></trkpt>
<trkpt lat="42.196306" lon="23.379521"><ele>1892.8</ele><time>2026-03-02T11:53:35.000Z</time></trkpt>
<trkpt lat="42.196317" lon="23.379523"><ele>1892.8</ele><time>2026-03-02T11:53:36.000Z</time></trkpt>
<trkpt lat="42.196328" lon="23.379526"><ele>1892.8</ele><time>2026-03-02T11:53:37.000Z</time></trkpt>
<trkpt lat="42.196338" lon="23.379529"><ele>1892.8</ele><time>2026-03-02T11:53:38.000Z</time></trkpt>
<trkpt lat="42.196348" lon="23.379531"><ele>1892.8</ele><time>2026-03-02T11:53:39.000Z</time></trkpt>
<trkpt lat="42.196357" lon="23.379532"><ele>1892</ele><time>2026-03-02T11:53:40.000Z</time></trkpt>
<trkpt lat="42.196369" lon="23.379533"><ele>1892</ele><time>2026-03-02T11:53:41.000Z</time></trkpt>
<trkpt lat="42.196381" lon="23.379534"><ele>1892</ele><time>2026-03-02T11:53:42.000Z</time></trkpt>
<trkpt lat="42.196394" lon="23.379536"><ele>1892</ele><time>2026-03-02T11:53:43.000Z</time></trkpt>
<trkpt lat="42.196407" lon="23.379539"><ele>1892</ele><time>2026-03-02T11:53:44.000Z</time></trkpt>
<trkpt lat="42.196421" lon="23.379544"><ele>1890.6</ele><time>2026-03-02T11:53:45.000Z</time></trkpt>
<trkpt lat="42.196432" lon="23.37955"><ele>1890.6</ele><time>2026-03-02T11:53:46.000Z</time></trkpt>
<trkpt lat="42.196442" lon="23.379558"><ele>1890.6</ele><time>2026-03-02T11:53:47.000Z</time></trkpt>
<trkpt lat="42.196453" lon="23.379568"><ele>1890.6</ele><time>2026-03-02T11:53:48.000Z</time></trkpt>
<trkpt lat="42.196462" lon="23.379581"><ele>1890.6</ele><time>2026-03-02T11:53:49.000Z</time></trkpt>
<trkpt lat="42.196472" lon="23.379593"><ele>1889.3</ele><time>2026-03-02T11:53:50.000Z</time></trkpt>
<trkpt lat="42.196483" lon="23.379606"><ele>1889.3</ele><time>2026-03-02T11:53:51.000Z</time></trkpt>
<trkpt lat="42.196496" lon="23.379619"><ele>1889.3</ele><time>2026-03-02T11:53:52.000Z</time></trkpt>
<trkpt lat="42.19651" lon="23.379631"><ele>1889.3</ele><time>2026-03-02T11:53:53.000Z</time></trkpt>
<trkpt lat="42.196524" lon="23.379643"><ele>1889.3</ele><time>2026-03-02T11:53:54.000Z</time></trkpt>
<trkpt lat="42.196537" lon="23.379656"><ele>1888.7</ele><time>2026-03-02T11:53:55.000Z</time></trkpt>
<trkpt lat="42.196548" lon="23.37967"><ele>1888.7</ele><time>2026-03-02T11:53:56.000Z</time></trkpt>
<trkpt lat="42.196558" lon="23.379686"><ele>1888.7</ele><time>2026-03-02T11:53:57.000Z</time></trkpt>
<trkpt lat="42.196566" lon="23.379701"><ele>1888.7</ele><time>2026-03-02T11:53:58.000Z</time></trkpt>
<trkpt lat="42.196575" lon="23.379717"><ele>1888.7</ele><time>2026-03-02T11:53:59.000Z</time></trkpt>
<trkpt lat="42.196583" lon="23.379731"><ele>1887.6</ele><time>2026-03-02T11:54:00.000Z</time></trkpt>
<trkpt lat="42.196593" lon="23.379743"><ele>1887.6</ele><time>2026-03-02T11:54:01.000Z</time></trkpt>
<trkpt lat="42.196602" lon="23.379757"><ele>1887.6</ele><time>2026-03-02T11:54:02.000Z</time></trkpt>
<trkpt lat="42.196611" lon="23.37977"><ele>1887.6</ele><time>2026-03-02T11:54:03.000Z</time></trkpt>
<trkpt lat="42.19662" lon="23.379783"><ele>1887.6</ele><time>2026-03-02T11:54:04.000Z</time></trkpt>
<trkpt lat="42.196629" lon="23.379797"><ele>1886.5</ele><time>2026-03-02T11:54:05.000Z</time></trkpt>
<trkpt lat="42.196637" lon="23.379812"><ele>1886.5</ele><time>2026-03-02T11:54:06.000Z</time></trkpt>
<trkpt lat="42.196645" lon="23.379825"><ele>1886.5</ele><time>2026-03-02T11:54:07.000Z</time></trkpt>
<trkpt lat="42.196651" lon="23.379839"><ele>1886.5</ele><time>2026-03-02T11:54:08.000Z</time></trkpt>
<trkpt lat="42.196657" lon="23.379853"><ele>1886.5</ele><time>2026-03-02T11:54:09.000Z</time></trkpt>
<trkpt lat="42.196662" lon="23.379867"><ele>1886</ele><time>2026-03-02T11:54:10.000Z</time></trkpt>
<trkpt lat="42.196667" lon="23.379882"><ele>1886</ele><time>2026-03-02T11:54:11.000Z</time></trkpt>
<trkpt lat="42.196673" lon="23.379898"><ele>1886</ele><time>2026-03-02T11:54:12.000Z</time></trkpt>
<trkpt lat="42.196679" lon="23.379915"><ele>1886</ele><time>2026-03-02T11:54:13.000Z</time></trkpt>
<trkpt lat="42.196685" lon="23.379933"><ele>1886</ele><time>2026-03-02T11:54:14.000Z</time></trkpt>
<trkpt lat="42.196693" lon="23.379952"><ele>1885</ele><time>2026-03-02T11:54:15.000Z</time></trkpt>
<trkpt lat="42.196701" lon="23.37997"><ele>1885</ele><time>2026-03-02T11:54:16.000Z</time></trkpt>
<trkpt lat="42.196711" lon="23.379986"><ele>1885</ele><time>2026-03-02T11:54:17.000Z</time></trkpt>
<trkpt lat="42.19672" lon="23.380001"><ele>1885</ele><time>2026-03-02T11:54:18.000Z</time></trkpt>
<trkpt lat="42.19673" lon="23.380015"><ele>1885</ele><time>2026-03-02T11:54:19.000Z</time></trkpt>
<trkpt lat="42.196739" lon="23.380029"><ele>1883.8</ele><time>2026-03-02T11:54:20.000Z</time></trkpt>
<trkpt lat="42.196748" lon="23.380043"><ele>1883.8</ele><time>2026-03-02T11:54:21.000Z</time></trkpt>
<trkpt lat="42.196757" lon="23.380057"><ele>1883.8</ele><time>2026-03-02T11:54:22.000Z</time></trkpt>
<trkpt lat="42.196766" lon="23.380068"><ele>1883.8</ele><time>2026-03-02T11:54:23.000Z</time></trkpt>
<trkpt lat="42.196775" lon="23.380075"><ele>1883.8</ele><time>2026-03-02T11:54:24.000Z</time></trkpt>
<trkpt lat="42.196784" lon="23.38008"><ele>1883.1</ele><time>2026-03-02T11:54:25.000Z</time></trkpt>
<trkpt lat="42.196795" lon="23.380084"><ele>1883.1</ele><time>2026-03-02T11:54:26.000Z</time></trkpt>
<trkpt lat="42.196805" lon="23.380089"><ele>1883.1</ele><time>2026-03-02T11:54:27.000Z</time></trkpt>
<trkpt lat="42.196817" lon="23.380095"><ele>1883.1</ele><time>2026-03-02T11:54:28.000Z</time></trkpt>
<trkpt lat="42.196831" lon="23.380104"><ele>1883.1</ele><time>2026-03-02T11:54:29.000Z</time></trkpt>
<trkpt lat="42.196844" lon="23.380113"><ele>1881.8</ele><time>2026-03-02T11:54:30.000Z</time></trkpt>
<trkpt lat="42.196859" lon="23.380124"><ele>1881.8</ele><time>2026-03-02T11:54:31.000Z</time></trkpt>
<trkpt lat="42.196873" lon="23.380134"><ele>1881.8</ele><time>2026-03-02T11:54:32.000Z</time></trkpt>
<trkpt lat="42.196886" lon="23.380145"><ele>1881.8</ele><time>2026-03-02T11:54:33.000Z</time></trkpt>
<trkpt lat="42.196898" lon="23.380157"><ele>1881.8</ele><time>2026-03-02T11:54:34.000Z</time></trkpt>
<trkpt lat="42.196908" lon="23.380169"><ele>1880.7</ele><time>2026-03-02T11:54:35.000Z</time></trkpt>
<trkpt lat="42.196918" lon="23.38018"><ele>1880.7</ele><time>2026-03-02T11:54:36.000Z</time></trkpt>
<trkpt lat="42.196927" lon="23.380193"><ele>1880.7</ele><time>2026-03-02T11:54:37.000Z</time></trkpt>
<trkpt lat="42.196935" lon="23.380206"><ele>1880.7</ele><time>2026-03-02T11:54:38.000Z</time></trkpt>
<trkpt lat="42.196943" lon="23.38022"><ele>1880.7</ele><time>2026-03-02T11:54:39.000Z</time></trkpt>
<trkpt lat="42.19695" lon="23.380235"><ele>1880.3</ele><time>2026-03-02T11:54:40.000Z</time></trkpt>
<trkpt lat="42.196956" lon="23.38025"><ele>1880.3</ele><time>2026-03-02T11:54:41.000Z</time></trkpt>
<trkpt lat="42.196963" lon="23.380267"><ele>1880.3</ele><time>2026-03-02T11:54:42.000Z</time></trkpt>
<trkpt lat="42.196971" lon="23.380283"><ele>1880.3</ele><time>2026-03-02T11:54:43.000Z</time></trkpt>
<trkpt lat="42.196979" lon="23.380299"><ele>1880.3</ele><time>2026-03-02T11:54:44.000Z</time></trkpt>
<trkpt lat="42.196988" lon="23.380314"><ele>1879.1</ele><time>2026-03-02T11:54:45.000Z</time></trkpt>
<trkpt lat="42.196997" lon="23.380329"><ele>1879.1</ele><time>2026-03-02T11:54:46.000Z</time></trkpt>
<trkpt lat="42.197005" lon="23.380343"><ele>1879.1</ele><time>2026-03-02T11:54:47.000Z</time></trkpt>
<trkpt lat="42.197015" lon="23.380357"><ele>1879.1</ele><time>2026-03-02T11:54:48.000Z</time></trkpt>
<trkpt lat="42.197024" lon="23.38037"><ele>1879.1</ele><time>2026-03-02T11:54:49.000Z</time></trkpt>
<trkpt lat="42.197034" lon="23.380381"><ele>1877.7</ele><time>2026-03-02T11:54:50.000Z</time></trkpt>
<trkpt lat="42.197045" lon="23.38039"><ele>1877.7</ele><time>2026-03-02T11:54:51.000Z</time></trkpt>
<trkpt lat="42.197057" lon="23.380398"><ele>1877.7</ele><time>2026-03-02T11:54:52.000Z</time></trkpt>
<trkpt lat="42.19707" lon="23.380404"><ele>1877.7</ele><time>2026-03-02T11:54:53.000Z</time></trkpt>
<trkpt lat="42.197083" lon="23.380412"><ele>1877.7</ele><time>2026-03-02T11:54:54.000Z</time></trkpt>
<trkpt lat="42.197096" lon="23.38042"><ele>1876.9</ele><time>2026-03-02T11:54:55.000Z</time></trkpt>
<trkpt lat="42.197109" lon="23.380428"><ele>1876.9</ele><time>2026-03-02T11:54:56.000Z</time></trkpt>
<trkpt lat="42.197123" lon="23.380435"><ele>1876.9</ele><time>2026-03-02T11:54:57.000Z</time></trkpt>
<trkpt lat="42.197137" lon="23.380441"><ele>1876.9</ele><time>2026-03-02T11:54:58.000Z</time></trkpt>
<trkpt lat="42.19715" lon="23.380448"><ele>1876.9</ele><time>2026-03-02T11:54:59.000Z</time></trkpt>
<trkpt lat="42.197161" lon="23.380455"><ele>1875.2</ele><time>2026-03-02T11:55:00.000Z</time></trkpt>
<trkpt lat="42.197174" lon="23.380462"><ele>1875.2</ele><time>2026-03-02T11:55:01.000Z</time></trkpt>
<trkpt lat="42.197186" lon="23.380472"><ele>1875.2</ele><time>2026-03-02T11:55:02.000Z</time></trkpt>
<trkpt lat="42.197197" lon="23.380483"><ele>1875.2</ele><time>2026-03-02T11:55:03.000Z</time></trkpt>
<trkpt lat="42.197207" lon="23.380494"><ele>1875.2</ele><time>2026-03-02T11:55:04.000Z</time></trkpt>
<trkpt lat="42.197219" lon="23.380507"><ele>1873.7</ele><time>2026-03-02T11:55:05.000Z</time></trkpt>
<trkpt lat="42.197229" lon="23.380521"><ele>1873.7</ele><time>2026-03-02T11:55:06.000Z</time></trkpt>
<trkpt lat="42.197239" lon="23.380535"><ele>1873.7</ele><time>2026-03-02T11:55:07.000Z</time></trkpt>
<trkpt lat="42.197251" lon="23.380549"><ele>1873.7</ele><time>2026-03-02T11:55:08.000Z</time></trkpt>
<trkpt lat="42.197263" lon="23.380562"><ele>1873.7</ele><time>2026-03-02T11:55:09.000Z</time></trkpt>
<trkpt lat="42.197276" lon="23.380573"><ele>1873</ele><time>2026-03-02T11:55:10.000Z</time></trkpt>
<trkpt lat="42.197289" lon="23.380581"><ele>1873</ele><time>2026-03-02T11:55:11.000Z</time></trkpt>
<trkpt lat="42.197304" lon="23.380587"><ele>1873</ele><time>2026-03-02T11:55:12.000Z</time></trkpt>
<trkpt lat="42.197318" lon="23.380591"><ele>1873</ele><time>2026-03-02T11:55:13.000Z</time></trkpt>
<trkpt lat="42.197333" lon="23.380593"><ele>1873</ele><time>2026-03-02T11:55:14.000Z</time></trkpt>
<trkpt lat="42.197348" lon="23.380594"><ele>1871.5</ele><time>2026-03-02T11:55:15.000Z</time></trkpt>
<trkpt lat="42.197364" lon="23.380598"><ele>1871.5</ele><time>2026-03-02T11:55:16.000Z</time></trkpt>
<trkpt lat="42.19738" lon="23.380601"><ele>1871.5</ele><time>2026-03-02T11:55:17.000Z</time></trkpt>
<trkpt lat="42.197395" lon="23.380605"><ele>1871.5</ele><time>2026-03-02T11:55:18.000Z</time></trkpt>
<trkpt lat="42.197411" lon="23.380611"><ele>1871.5</ele><time>2026-03-02T11:55:19.000Z</time></trkpt>
<trkpt lat="42.197426" lon="23.380619"><ele>1870</ele><time>2026-03-02T11:55:20.000Z</time></trkpt>
<trkpt lat="42.19744" lon="23.380625"><ele>1870</ele><time>2026-03-02T11:55:21.000Z</time></trkpt>
<trkpt lat="42.197455" lon="23.38063"><ele>1870</ele><time>2026-03-02T11:55:22.000Z</time></trkpt>
<trkpt lat="42.197469" lon="23.380636"><ele>1870</ele><time>2026-03-02T11:55:23.000Z</time></trkpt>
<trkpt lat="42.197484" lon="23.380641"><ele>1870</ele><time>2026-03-02T11:55:24.000Z</time></trkpt>
<trkpt lat="42.197498" lon="23.380647"><ele>1869.3</ele><time>2026-03-02T11:55:25.000Z</time></trkpt>
<trkpt lat="42.197512" lon="23.380655"><ele>1869.3</ele><time>2026-03-02T11:55:26.000Z</time></trkpt>
<trkpt lat="42.197525" lon="23.380663"><ele>1869.3</ele><time>2026-03-02T11:55:27.000Z</time></trkpt>
<trkpt lat="42.197538" lon="23.380671"><ele>1869.3</ele><time>2026-03-02T11:55:28.000Z</time></trkpt>
<trkpt lat="42.197551" lon="23.380677"><ele>1869.3</ele><time>2026-03-02T11:55:29.000Z</time></trkpt>
<trkpt lat="42.197564" lon="23.380682"><ele>1868.2</ele><time>2026-03-02T11:55:30.000Z</time></trkpt>
<trkpt lat="42.197578" lon="23.380685"><ele>1868.2</ele><time>2026-03-02T11:55:31.000Z</time></trkpt>
<trkpt lat="42.197591" lon="23.380688"><ele>1868.2</ele><time>2026-03-02T11:55:32.000Z</time></trkpt>
<trkpt lat="42.197605" lon="23.38069"><ele>1868.2</ele><time>2026-03-02T11:55:33.000Z</time></trkpt>
<trkpt lat="42.197618" lon="23.380693"><ele>1868.2</ele><time>2026-03-02T11:55:34.000Z</time></trkpt>
<trkpt lat="42.197631" lon="23.380695"><ele>1867.2</ele><time>2026-03-02T11:55:35.000Z</time></trkpt>
<trkpt lat="42.197643" lon="23.380699"><ele>1867.2</ele><time>2026-03-02T11:55:36.000Z</time></trkpt>
<trkpt lat="42.197656" lon="23.380702"><ele>1867.2</ele><time>2026-03-02T11:55:37.000Z</time></trkpt>
<trkpt lat="42.197669" lon="23.380707"><ele>1867.2</ele><time>2026-03-02T11:55:38.000Z</time></trkpt>
<trkpt lat="42.197683" lon="23.380711"><ele>1867.2</ele><time>2026-03-02T11:55:39.000Z</time></trkpt>
<trkpt lat="42.197698" lon="23.380716"><ele>1866.7</ele><time>2026-03-02T11:55:40.000Z</time></trkpt>
<trkpt lat="42.197711" lon="23.380719"><ele>1866.7</ele><time>2026-03-02T11:55:41.000Z</time></trkpt>
<trkpt lat="42.197725" lon="23.380722"><ele>1866.7</ele><time>2026-03-02T11:55:42.000Z</time></trkpt>
<trkpt lat="42.197737" lon="23.380725"><ele>1866.7</ele><time>2026-03-02T11:55:43.000Z</time></trkpt>
<trkpt lat="42.19775" lon="23.380727"><ele>1866.7</ele><time>2026-03-02T11:55:44.000Z</time></trkpt>
<trkpt lat="42.197763" lon="23.38073"><ele>1865.6</ele><time>2026-03-02T11:55:45.000Z</time></trkpt>
<trkpt lat="42.197776" lon="23.380733"><ele>1865.6</ele><time>2026-03-02T11:55:46.000Z</time></trkpt>
<trkpt lat="42.19779" lon="23.380736"><ele>1865.6</ele><time>2026-03-02T11:55:47.000Z</time></trkpt>
<trkpt lat="42.197804" lon="23.380738"><ele>1865.6</ele><time>2026-03-02T11:55:48.000Z</time></trkpt>
<trkpt lat="42.197817" lon="23.380741"><ele>1865.6</ele><time>2026-03-02T11:55:49.000Z</time></trkpt>
<trkpt lat="42.19783" lon="23.380745"><ele>1864.4</ele><time>2026-03-02T11:55:50.000Z</time></trkpt>
<trkpt lat="42.197844" lon="23.38075"><ele>1864.4</ele><time>2026-03-02T11:55:51.000Z</time></trkpt>
<trkpt lat="42.197857" lon="23.380758"><ele>1864.4</ele><time>2026-03-02T11:55:52.000Z</time></trkpt>
<trkpt lat="42.19787" lon="23.380767"><ele>1864.4</ele><time>2026-03-02T11:55:53.000Z</time></trkpt>
<trkpt lat="42.197882" lon="23.380778"><ele>1864.4</ele><time>2026-03-02T11:55:54.000Z</time></trkpt>
<trkpt lat="42.197893" lon="23.380788"><ele>1863.8</ele><time>2026-03-02T11:55:55.000Z</time></trkpt>
<trkpt lat="42.197903" lon="23.380798"><ele>1863.8</ele><time>2026-03-02T11:55:56.000Z</time></trkpt>
<trkpt lat="42.197913" lon="23.380807"><ele>1863.8</ele><time>2026-03-02T11:55:57.000Z</time></trkpt>
<trkpt lat="42.197921" lon="23.380815"><ele>1863.8</ele><time>2026-03-02T11:55:58.000Z</time></trkpt>
<trkpt lat="42.197931" lon="23.380823"><ele>1863.8</ele><time>2026-03-02T11:55:59.000Z</time></trkpt>
<trkpt lat="42.197942" lon="23.380833"><ele>1862.9</ele><time>2026-03-02T11:56:00.000Z</time></trkpt>
<trkpt lat="42.197954" lon="23.380843"><ele>1862.9</ele><time>2026-03-02T11:56:01.000Z</time></trkpt>
<trkpt lat="42.197966" lon="23.380854"><ele>1862.9</ele><time>2026-03-02T11:56:02.000Z</time></trkpt>
<trkpt lat="42.19798" lon="23.380865"><ele>1862.9</ele><time>2026-03-02T11:56:03.000Z</time></trkpt>
<trkpt lat="42.197994" lon="23.380876"><ele>1862.9</ele><time>2026-03-02T11:56:04.000Z</time></trkpt>
<trkpt lat="42.198007" lon="23.380885"><ele>1862.2</ele><time>2026-03-02T11:56:05.000Z</time></trkpt>
<trkpt lat="42.19802" lon="23.380895"><ele>1862.2</ele><time>2026-03-02T11:56:06.000Z</time></trkpt>
<trkpt lat="42.198033" lon="23.380905"><ele>1862.2</ele><time>2026-03-02T11:56:07.000Z</time></trkpt>
<trkpt lat="42.198044" lon="23.380914"><ele>1862.2</ele><time>2026-03-02T11:56:08.000Z</time></trkpt>
<trkpt lat="42.198055" lon="23.380922"><ele>1862.2</ele><time>2026-03-02T11:56:09.000Z</time></trkpt>
<trkpt lat="42.198067" lon="23.380931"><ele>1861.7</ele><time>2026-03-02T11:56:10.000Z</time></trkpt>
<trkpt lat="42.198079" lon="23.380941"><ele>1861.7</ele><time>2026-03-02T11:56:11.000Z</time></trkpt>
<trkpt lat="42.198091" lon="23.380952"><ele>1861.7</ele><time>2026-03-02T11:56:12.000Z</time></trkpt>
<trkpt lat="42.198101" lon="23.380964"><ele>1861.7</ele><time>2026-03-02T11:56:13.000Z</time></trkpt>
<trkpt lat="42.198111" lon="23.380976"><ele>1861.7</ele><time>2026-03-02T11:56:14.000Z</time></trkpt>
<trkpt lat="42.198117" lon="23.380987"><ele>1860.8</ele><time>2026-03-02T11:56:15.000Z</time></trkpt>
<trkpt lat="42.198123" lon="23.380998"><ele>1860.8</ele><time>2026-03-02T11:56:16.000Z</time></trkpt>
<trkpt lat="42.198129" lon="23.381007"><ele>1860.8</ele><time>2026-03-02T11:56:17.000Z</time></trkpt>
<trkpt lat="42.198136" lon="23.381017"><ele>1860.8</ele><time>2026-03-02T11:56:18.000Z</time></trkpt>
<trkpt lat="42.198145" lon="23.381027"><ele>1860.8</ele><time>2026-03-02T11:56:19.000Z</time></trkpt>
<trkpt lat="42.198155" lon="23.381038"><ele>1860.4</ele><time>2026-03-02T11:56:20.000Z</time></trkpt>
<trkpt lat="42.198165" lon="23.381049"><ele>1860.4</ele><time>2026-03-02T11:56:21.000Z</time></trkpt>
<trkpt lat="42.198176" lon="23.38106"><ele>1860.4</ele><time>2026-03-02T11:56:22.000Z</time></trkpt>
<trkpt lat="42.198188" lon="23.381072"><ele>1860.4</ele><time>2026-03-02T11:56:23.000Z</time></trkpt>
<trkpt lat="42.198199" lon="23.381083"><ele>1860.4</ele><time>2026-03-02T11:56:24.000Z</time></trkpt>
<trkpt lat="42.198212" lon="23.381095"><ele>1860.3</ele><time>2026-03-02T11:56:25.000Z</time></trkpt>
<trkpt lat="42.198225" lon="23.381108"><ele>1860.3</ele><time>2026-03-02T11:56:26.000Z</time></trkpt>
<trkpt lat="42.198238" lon="23.38112"><ele>1860.3</ele><time>2026-03-02T11:56:27.000Z</time></trkpt>
<trkpt lat="42.19825" lon="23.381131"><ele>1860.3</ele><time>2026-03-02T11:56:28.000Z</time></trkpt>
<trkpt lat="42.198262" lon="23.381141"><ele>1860.3</ele><time>2026-03-02T11:56:29.000Z</time></trkpt>
<trkpt lat="42.198272" lon="23.381152"><ele>1859.6</ele><time>2026-03-02T11:56:30.000Z</time></trkpt>
<trkpt lat="42.198283" lon="23.381164"><ele>1859.6</ele><time>2026-03-02T11:56:31.000Z</time></trkpt>
<trkpt lat="42.198293" lon="23.381176"><ele>1859.6</ele><time>2026-03-02T11:56:32.000Z</time></trkpt>
<trkpt lat="42.198302" lon="23.38119"><ele>1859.6</ele><time>2026-03-02T11:56:33.000Z</time></trkpt>
<trkpt lat="42.198312" lon="23.381205"><ele>1859.6</ele><time>2026-03-02T11:56:34.000Z</time></trkpt>
<trkpt lat="42.198321" lon="23.381221"><ele>1858.2</ele><time>2026-03-02T11:56:35.000Z</time></trkpt>
<trkpt lat="42.198332" lon="23.381238"><ele>1858.2</ele><time>2026-03-02T11:56:36.000Z</time></trkpt>
<trkpt lat="42.198343" lon="23.381252"><ele>1858.2</ele><time>2026-03-02T11:56:37.000Z</time></trkpt>
<trkpt lat="42.198355" lon="23.381264"><ele>1858.2</ele><time>2026-03-02T11:56:38.000Z</time></trkpt>
<trkpt lat="42.198368" lon="23.381274"><ele>1858.2</ele><time>2026-03-02T11:56:39.000Z</time></trkpt>
<trkpt lat="42.198382" lon="23.381283"><ele>1857.6</ele><time>2026-03-02T11:56:40.000Z</time></trkpt>
<trkpt lat="42.198395" lon="23.381289"><ele>1857.6</ele><time>2026-03-02T11:56:41.000Z</time></trkpt>
<trkpt lat="42.19841" lon="23.381292"><ele>1857.6</ele><time>2026-03-02T11:56:42.000Z</time></trkpt>
<trkpt lat="42.198425" lon="23.381293"><ele>1857.6</ele><time>2026-03-02T11:56:43.000Z</time></trkpt>
<trkpt lat="42.198438" lon="23.381291"><ele>1857.6</ele><time>2026-03-02T11:56:44.000Z</time></trkpt>
<trkpt lat="42.198451" lon="23.381288"><ele>1856.7</ele><time>2026-03-02T11:56:45.000Z</time></trkpt>
<trkpt lat="42.198463" lon="23.381283"><ele>1856.7</ele><time>2026-03-02T11:56:46.000Z</time></trkpt>
<trkpt lat="42.198474" lon="23.38128"><ele>1856.7</ele><time>2026-03-02T11:56:47.000Z</time></trkpt>
<trkpt lat="42.198486" lon="23.381279"><ele>1856.7</ele><time>2026-03-02T11:56:48.000Z</time></trkpt>
<trkpt lat="42.198498" lon="23.38128"><ele>1856.7</ele><time>2026-03-02T11:56:49.000Z</time></trkpt>
<trkpt lat="42.19851" lon="23.381282"><ele>1856</ele><time>2026-03-02T11:56:50.000Z</time></trkpt>
<trkpt lat="42.198524" lon="23.381286"><ele>1856</ele><time>2026-03-02T11:56:51.000Z</time></trkpt>
<trkpt lat="42.198538" lon="23.381291"><ele>1856</ele><time>2026-03-02T11:56:52.000Z</time></trkpt>
<trkpt lat="42.198551" lon="23.381296"><ele>1856</ele><time>2026-03-02T11:56:53.000Z</time></trkpt>
<trkpt lat="42.198564" lon="23.381299"><ele>1856</ele><time>2026-03-02T11:56:54.000Z</time></trkpt>
<trkpt lat="42.198577" lon="23.381304"><ele>1855.6</ele><time>2026-03-02T11:56:55.000Z</time></trkpt>
<trkpt lat="42.19859" lon="23.381308"><ele>1855.6</ele><time>2026-03-02T11:56:56.000Z</time></trkpt>
<trkpt lat="42.198602" lon="23.381312"><ele>1855.6</ele><time>2026-03-02T11:56:57.000Z</time></trkpt>
<trkpt lat="42.198615" lon="23.381316"><ele>1855.6</ele><time>2026-03-02T11:56:58.000Z</time></trkpt>
<trkpt lat="42.198628" lon="23.381321"><ele>1855.6</ele><time>2026-03-02T11:56:59.000Z</time></trkpt>
<trkpt lat="42.198641" lon="23.381326"><ele>1854.8</ele><time>2026-03-02T11:57:00.000Z</time></trkpt>
<trkpt lat="42.198653" lon="23.38133"><ele>1854.8</ele><time>2026-03-02T11:57:01.000Z</time></trkpt>
<trkpt lat="42.198665" lon="23.381333"><ele>1854.8</ele><time>2026-03-02T11:57:02.000Z</time></trkpt>
<trkpt lat="42.198677" lon="23.381336"><ele>1854.8</ele><time>2026-03-02T11:57:03.000Z</time></trkpt>
<trkpt lat="42.19869" lon="23.381339"><ele>1854.8</ele><time>2026-03-02T11:57:04.000Z</time></trkpt>
<trkpt lat="42.198703" lon="23.381345"><ele>1854</ele><time>2026-03-02T11:57:05.000Z</time></trkpt>
<trkpt lat="42.198716" lon="23.381351"><ele>1854</ele><time>2026-03-02T11:57:06.000Z</time></trkpt>
<trkpt lat="42.198728" lon="23.381358"><ele>1854</ele><time>2026-03-02T11:57:07.000Z</time></trkpt>
<trkpt lat="42.19874" lon="23.381366"><ele>1854</ele><time>2026-03-02T11:57:08.000Z</time></trkpt>
<trkpt lat="42.198751" lon="23.381375"><ele>1854</ele><time>2026-03-02T11:57:09.000Z</time></trkpt>
<trkpt lat="42.198763" lon="23.381382"><ele>1853.6</ele><time>2026-03-02T11:57:10.000Z</time></trkpt>
<trkpt lat="42.198776" lon="23.381391"><ele>1853.6</ele><time>2026-03-02T11:57:11.000Z</time></trkpt>
<trkpt lat="42.19879" lon="23.381399"><ele>1853.6</ele><time>2026-03-02T11:57:12.000Z</time></trkpt>
<trkpt lat="42.198804" lon="23.381407"><ele>1853.6</ele><time>2026-03-02T11:57:13.000Z</time></trkpt>
<trkpt lat="42.198819" lon="23.381414"><ele>1853.6</ele><time>2026-03-02T11:57:14.000Z</time></trkpt>
<trkpt lat="42.198834" lon="23.38142"><ele>1852.7</ele><time>2026-03-02T11:57:15.000Z</time></trkpt>
<trkpt lat="42.198848" lon="23.381425"><ele>1852.7</ele><time>2026-03-02T11:57:16.000Z</time></trkpt>
<trkpt lat="42.198863" lon="23.381428"><ele>1852.7</ele><time>2026-03-02T11:57:17.000Z</time></trkpt>
<trkpt lat="42.198878" lon="23.381431"><ele>1852.7</ele><time>2026-03-02T11:57:18.000Z</time></trkpt>
<trkpt lat="42.198893" lon="23.381434"><ele>1852.7</ele><time>2026-03-02T11:57:19.000Z</time></trkpt>
<trkpt lat="42.198906" lon="23.381437"><ele>1851.8</ele><time>2026-03-02T11:57:20.000Z</time></trkpt>
<trkpt lat="42.198919" lon="23.381441"><ele>1851.8</ele><time>2026-03-02T11:57:21.000Z</time></trkpt>
<trkpt lat="42.198931" lon="23.381445"><ele>1851.8</ele><time>2026-03-02T11:57:22.000Z</time></trkpt>
<trkpt lat="42.198943" lon="23.381452"><ele>1851.8</ele><time>2026-03-02T11:57:23.000Z</time></trkpt>
<trkpt lat="42.198955" lon="23.38146"><ele>1851.8</ele><time>2026-03-02T11:57:24.000Z</time></trkpt>
<trkpt lat="42.198967" lon="23.38147"><ele>1851.4</ele><time>2026-03-02T11:57:25.000Z</time></trkpt>
<trkpt lat="42.198979" lon="23.381478"><ele>1851.4</ele><time>2026-03-02T11:57:26.000Z</time></trkpt>
<trkpt lat="42.198992" lon="23.381485"><ele>1851.4</ele><time>2026-03-02T11:57:27.000Z</time></trkpt>
<trkpt lat="42.199005" lon="23.381491"><ele>1851.4</ele><time>2026-03-02T11:57:28.000Z</time></trkpt>
<trkpt lat="42.199019" lon="23.381495"><ele>1851.4</ele><time>2026-03-02T11:57:29.000Z</time></trkpt>
<trkpt lat="42.199032" lon="23.3815"><ele>1850.3</ele><time>2026-03-02T11:57:30.000Z</time></trkpt>
<trkpt lat="42.199045" lon="23.381506"><ele>1850.3</ele><time>2026-03-02T11:57:31.000Z</time></trkpt>
<trkpt lat="42.199058" lon="23.381515"><ele>1850.3</ele><time>2026-03-02T11:57:32.000Z</time></trkpt>
<trkpt lat="42.199071" lon="23.381522"><ele>1850.3</ele><time>2026-03-02T11:57:33.000Z</time></trkpt>
<trkpt lat="42.199084" lon="23.38153"><ele>1850.3</ele><time>2026-03-02T11:57:34.000Z</time></trkpt>
<trkpt lat="42.199097" lon="23.381536"><ele>1849.2</ele><time>2026-03-02T11:57:35.000Z</time></trkpt>
<trkpt lat="42.19911" lon="23.381544"><ele>1849.2</ele><time>2026-03-02T11:57:36.000Z</time></trkpt>
<trkpt lat="42.199122" lon="23.381551"><ele>1849.2</ele><time>2026-03-02T11:57:37.000Z</time></trkpt>
<trkpt lat="42.199135" lon="23.38156"><ele>1849.2</ele><time>2026-03-02T11:57:38.000Z</time></trkpt>
<trkpt lat="42.199148" lon="23.381571"><ele>1849.2</ele><time>2026-03-02T11:57:39.000Z</time></trkpt>
<trkpt lat="42.19916" lon="23.381583"><ele>1848.6</ele><time>2026-03-02T11:57:40.000Z</time></trkpt>
<trkpt lat="42.199173" lon="23.381595"><ele>1848.6</ele><time>2026-03-02T11:57:41.000Z</time></trkpt>
<trkpt lat="42.199184" lon="23.381608"><ele>1848.6</ele><time>2026-03-02T11:57:42.000Z</time></trkpt>
<trkpt lat="42.199197" lon="23.381621"><ele>1848.6</ele><time>2026-03-02T11:57:43.000Z</time></trkpt>
<trkpt lat="42.199208" lon="23.381635"><ele>1848.6</ele><time>2026-03-02T11:57:44.000Z</time></trkpt>
<trkpt lat="42.199219" lon="23.381648"><ele>1847.5</ele><time>2026-03-02T11:57:45.000Z</time></trkpt>
<trkpt lat="42.199231" lon="23.381661"><ele>1847.5</ele><time>2026-03-02T11:57:46.000Z</time></trkpt>
<trkpt lat="42.199243" lon="23.381675"><ele>1847.5</ele><time>2026-03-02T11:57:47.000Z</time></trkpt>
<trkpt lat="42.199253" lon="23.381691"><ele>1847.5</ele><time>2026-03-02T11:57:48.000Z</time></trkpt>
<trkpt lat="42.199264" lon="23.381707"><ele>1847.5</ele><time>2026-03-02T11:57:49.000Z</time></trkpt>
<trkpt lat="42.199274" lon="23.381723"><ele>1846.5</ele><time>2026-03-02T11:57:50.000Z</time></trkpt>
<trkpt lat="42.199282" lon="23.38174"><ele>1846.5</ele><time>2026-03-02T11:57:51.000Z</time></trkpt>
<trkpt lat="42.19929" lon="23.381756"><ele>1846.5</ele><time>2026-03-02T11:57:52.000Z</time></trkpt>
<trkpt lat="42.199298" lon="23.381771"><ele>1846.5</ele><time>2026-03-02T11:57:53.000Z</time></trkpt>
<trkpt lat="42.199309" lon="23.381786"><ele>1846.5</ele><time>2026-03-02T11:57:54.000Z</time></trkpt>
<trkpt lat="42.19932" lon="23.3818"><ele>1846</ele><time>2026-03-02T11:57:55.000Z</time></trkpt>
<trkpt lat="42.199332" lon="23.381813"><ele>1846</ele><time>2026-03-02T11:57:56.000Z</time></trkpt>
<trkpt lat="42.199343" lon="23.381827"><ele>1846</ele><time>2026-03-02T11:57:57.000Z</time></trkpt>
<trkpt lat="42.199353" lon="23.381843"><ele>1846</ele><time>2026-03-02T11:57:58.000Z</time></trkpt>
<trkpt lat="42.199362" lon="23.381858"><ele>1846</ele><time>2026-03-02T11:57:59.000Z</time></trkpt>
<trkpt lat="42.199371" lon="23.381873"><ele>1845</ele><time>2026-03-02T11:58:00.000Z</time></trkpt>
<trkpt lat="42.19938" lon="23.381889"><ele>1845</ele><time>2026-03-02T11:58:01.000Z</time></trkpt>
<trkpt lat="42.199388" lon="23.381904"><ele>1845</ele><time>2026-03-02T11:58:02.000Z</time></trkpt>
<trkpt lat="42.199398" lon="23.381918"><ele>1845</ele><time>2026-03-02T11:58:03.000Z</time></trkpt>
<trkpt lat="42.199407" lon="23.38193"><ele>1845</ele><time>2026-03-02T11:58:04.000Z</time></trkpt>
<trkpt lat="42.199415" lon="23.381945"><ele>1844.2</ele><time>2026-03-02T11:58:05.000Z</time></trkpt>
<trkpt lat="42.199425" lon="23.38196"><ele>1844.2</ele><time>2026-03-02T11:58:06.000Z</time></trkpt>
<trkpt lat="42.199436" lon="23.381975"><ele>1844.2</ele><time>2026-03-02T11:58:07.000Z</time></trkpt>
<trkpt lat="42.199447" lon="23.381993"><ele>1844.2</ele><time>2026-03-02T11:58:08.000Z</time></trkpt>
<trkpt lat="42.199457" lon="23.38201"><ele>1844.2</ele><time>2026-03-02T11:58:09.000Z</time></trkpt>
<trkpt lat="42.199468" lon="23.382026"><ele>1843.8</ele><time>2026-03-02T11:58:10.000Z</time></trkpt>
<trkpt lat="42.199479" lon="23.38204"><ele>1843.8</ele><time>2026-03-02T11:58:11.000Z</time></trkpt>
<trkpt lat="42.19949" lon="23.382053"><ele>1843.8</ele><time>2026-03-02T11:58:12.000Z</time></trkpt>
<trkpt lat="42.199501" lon="23.382064"><ele>1843.8</ele><time>2026-03-02T11:58:13.000Z</time></trkpt>
<trkpt lat="42.199512" lon="23.382077"><ele>1843.8</ele><time>2026-03-02T11:58:14.000Z</time></trkpt>
<trkpt lat="42.199522" lon="23.38209"><ele>1843</ele><time>2026-03-02T11:58:15.000Z</time></trkpt>
<trkpt lat="42.199532" lon="23.382103"><ele>1843</ele><time>2026-03-02T11:58:16.000Z</time></trkpt>
<trkpt lat="42.199542" lon="23.382117"><ele>1843</ele><time>2026-03-02T11:58:17.000Z</time></trkpt>
<trkpt lat="42.199551" lon="23.382132"><ele>1843</ele><time>2026-03-02T11:58:18.000Z</time></trkpt>
<trkpt lat="42.199561" lon="23.382145"><ele>1843</ele><time>2026-03-02T11:58:19.000Z</time></trkpt>
<trkpt lat="42.19957" lon="23.382159"><ele>1841.7</ele><time>2026-03-02T11:58:20.000Z</time></trkpt>
<trkpt lat="42.199578" lon="23.382173"><ele>1841.7</ele><time>2026-03-02T11:58:21.000Z</time></trkpt>
<trkpt lat="42.199587" lon="23.382186"><ele>1841.7</ele><time>2026-03-02T11:58:22.000Z</time></trkpt>
<trkpt lat="42.199594" lon="23.3822"><ele>1841.7</ele><time>2026-03-02T11:58:23.000Z</time></trkpt>
<trkpt lat="42.199602" lon="23.382213"><ele>1841.7</ele><time>2026-03-02T11:58:24.000Z</time></trkpt>
<trkpt lat="42.199609" lon="23.382223"><ele>1841</ele><time>2026-03-02T11:58:25.000Z</time></trkpt>
<trkpt lat="42.199617" lon="23.382234"><ele>1841</ele><time>2026-03-02T11:58:26.000Z</time></trkpt>
<trkpt lat="42.199626" lon="23.382246"><ele>1841</ele><time>2026-03-02T11:58:27.000Z</time></trkpt>
<trkpt lat="42.199633" lon="23.382256"><ele>1841</ele><time>2026-03-02T11:58:28.000Z</time></trkpt>
<trkpt lat="42.199642" lon="23.382265"><ele>1841</ele><time>2026-03-02T11:58:29.000Z</time></trkpt>
<trkpt lat="42.199651" lon="23.382274"><ele>1839.7</ele><time>2026-03-02T11:58:30.000Z</time></trkpt>
<trkpt lat="42.19966" lon="23.382283"><ele>1839.7</ele><time>2026-03-02T11:58:31.000Z</time></trkpt>
<trkpt lat="42.19967" lon="23.382291"><ele>1839.7</ele><time>2026-03-02T11:58:32.000Z</time></trkpt>
<trkpt lat="42.199679" lon="23.3823"><ele>1839.7</ele><time>2026-03-02T11:58:33.000Z</time></trkpt>
<trkpt lat="42.199688" lon="23.382311"><ele>1839.7</ele><time>2026-03-02T11:58:34.000Z</time></trkpt>
<trkpt lat="42.199697" lon="23.382322"><ele>1838.9</ele><time>2026-03-02T11:58:35.000Z</time></trkpt>
<trkpt lat="42.199705" lon="23.382332"><ele>1838.9</ele><time>2026-03-02T11:58:36.000Z</time></trkpt>
<trkpt lat="42.199713" lon="23.38234"><ele>1838.9</ele><time>2026-03-02T11:58:37.000Z</time></trkpt>
<trkpt lat="42.199722" lon="23.382349"><ele>1838.9</ele><time>2026-03-02T11:58:38.000Z</time></trkpt>
<trkpt lat="42.19973" lon="23.382358"><ele>1838.9</ele><time>2026-03-02T11:58:39.000Z</time></trkpt>
<trkpt lat="42.199739" lon="23.382367"><ele>1838.8</ele><time>2026-03-02T11:58:40.000Z</time></trkpt>
<trkpt lat="42.199749" lon="23.382375"><ele>1838.8</ele><time>2026-03-02T11:58:41.000Z</time></trkpt>
<trkpt lat="42.199759" lon="23.382384"><ele>1838.8</ele><time>2026-03-02T11:58:42.000Z</time></trkpt>
<trkpt lat="42.199768" lon="23.38239"><ele>1838.8</ele><time>2026-03-02T11:58:43.000Z</time></trkpt>
<trkpt lat="42.199779" lon="23.382396"><ele>1838.8</ele><time>2026-03-02T11:58:44.000Z</time></trkpt>
<trkpt lat="42.19979" lon="23.3824"><ele>1838.8</ele><time>2026-03-02T11:58:45.000Z</time></trkpt>
<trkpt lat="42.199801" lon="23.382405"><ele>1838.8</ele><time>2026-03-02T11:58:46.000Z</time></trkpt>
<trkpt lat="42.199813" lon="23.382411"><ele>1838.8</ele><time>2026-03-02T11:58:47.000Z</time></trkpt>
<trkpt lat="42.199827" lon="23.382418"><ele>1838.8</ele><time>2026-03-02T11:58:48.000Z</time></trkpt>
<trkpt lat="42.199839" lon="23.382427"><ele>1838.8</ele><time>2026-03-02T11:58:49.000Z</time></trkpt>
<trkpt lat="42.199852" lon="23.382436"><ele>1838.8</ele><time>2026-03-02T11:58:50.000Z</time></trkpt>
<trkpt lat="42.199865" lon="23.382445"><ele>1838.8</ele><time>2026-03-02T11:58:51.000Z</time></trkpt>
<trkpt lat="42.199877" lon="23.382454"><ele>1838.8</ele><time>2026-03-02T11:58:52.000Z</time></trkpt>
<trkpt lat="42.199888" lon="23.382462"><ele>1838.8</ele><time>2026-03-02T11:58:53.000Z</time></trkpt>
<trkpt lat="42.199899" lon="23.38247"><ele>1838.8</ele><time>2026-03-02T11:58:54.000Z</time></trkpt>
<trkpt lat="42.199911" lon="23.382477"><ele>1838.6</ele><time>2026-03-02T11:58:55.000Z</time></trkpt>
<trkpt lat="42.199922" lon="23.382486"><ele>1838.6</ele><time>2026-03-02T11:58:56.000Z</time></trkpt>
<trkpt lat="42.199933" lon="23.382494"><ele>1838.6</ele><time>2026-03-02T11:58:57.000Z</time></trkpt>
<trkpt lat="42.199943" lon="23.382501"><ele>1838.6</ele><time>2026-03-02T11:58:58.000Z</time></trkpt>
<trkpt lat="42.199953" lon="23.382507"><ele>1838.6</ele><time>2026-03-02T11:58:59.000Z</time></trkpt>
<trkpt lat="42.199963" lon="23.382515"><ele>1837.9</ele><time>2026-03-02T11:59:00.000Z</time></trkpt>
<trkpt lat="42.199975" lon="23.382522"><ele>1837.9</ele><time>2026-03-02T11:59:01.000Z</time></trkpt>
<trkpt lat="42.199986" lon="23.382531"><ele>1837.9</ele><time>2026-03-02T11:59:02.000Z</time></trkpt>
<trkpt lat="42.199998" lon="23.382539"><ele>1837.9</ele><time>2026-03-02T11:59:03.000Z</time></trkpt>
<trkpt lat="42.200012" lon="23.382547"><ele>1837.9</ele><time>2026-03-02T11:59:04.000Z</time></trkpt>
<trkpt lat="42.200025" lon="23.382552"><ele>1837.1</ele><time>2026-03-02T11:59:05.000Z</time></trkpt>
<trkpt lat="42.200038" lon="23.382556"><ele>1837.1</ele><time>2026-03-02T11:59:06.000Z</time></trkpt>
<trkpt lat="42.200052" lon="23.382558"><ele>1837.1</ele><time>2026-03-02T11:59:07.000Z</time></trkpt>
<trkpt lat="42.200067" lon="23.382561"><ele>1837.1</ele><time>2026-03-02T11:59:08.000Z</time></trkpt>
<trkpt lat="42.200082" lon="23.382564"><ele>1837.1</ele><time>2026-03-02T11:59:09.000Z</time></trkpt>
<trkpt lat="42.200096" lon="23.38257"><ele>1836.7</ele><time>2026-03-02T11:59:10.000Z</time></trkpt>
<trkpt lat="42.200109" lon="23.382577"><ele>1836.7</ele><time>2026-03-02T11:59:11.000Z</time></trkpt>
<trkpt lat="42.200121" lon="23.382584"><ele>1836.7</ele><time>2026-03-02T11:59:12.000Z</time></trkpt>
<trkpt lat="42.200132" lon="23.382591"><ele>1836.7</ele><time>2026-03-02T11:59:13.000Z</time></trkpt>
<trkpt lat="42.200143" lon="23.382599"><ele>1836.7</ele><time>2026-03-02T11:59:14.000Z</time></trkpt>
<trkpt lat="42.200153" lon="23.382605"><ele>1836.2</ele><time>2026-03-02T11:59:15.000Z</time></trkpt>
<trkpt lat="42.200163" lon="23.382612"><ele>1836.2</ele><time>2026-03-02T11:59:16.000Z</time></trkpt>
<trkpt lat="42.200172" lon="23.382619"><ele>1836.2</ele><time>2026-03-02T11:59:17.000Z</time></trkpt>
<trkpt lat="42.200182" lon="23.382626"><ele>1836.2</ele><time>2026-03-02T11:59:18.000Z</time></trkpt>
<trkpt lat="42.200193" lon="23.382631"><ele>1836.2</ele><time>2026-03-02T11:59:19.000Z</time></trkpt>
<trkpt lat="42.200204" lon="23.382634"><ele>1835.5</ele><time>2026-03-02T11:59:20.000Z</time></trkpt>
<trkpt lat="42.200215" lon="23.382636"><ele>1835.5</ele><time>2026-03-02T11:59:21.000Z</time></trkpt>
<trkpt lat="42.200228" lon="23.382635"><ele>1835.5</ele><time>2026-03-02T11:59:22.000Z</time></trkpt>
<trkpt lat="42.200241" lon="23.382633"><ele>1835.5</ele><time>2026-03-02T11:59:23.000Z</time></trkpt>
<trkpt lat="42.200253" lon="23.382634"><ele>1835.5</ele><time>2026-03-02T11:59:24.000Z</time></trkpt>
<trkpt lat="42.200266" lon="23.382634"><ele>1835.2</ele><time>2026-03-02T11:59:25.000Z</time></trkpt>
<trkpt lat="42.20028" lon="23.382636"><ele>1835.2</ele><time>2026-03-02T11:59:26.000Z</time></trkpt>
<trkpt lat="42.200293" lon="23.38264"><ele>1835.2</ele><time>2026-03-02T11:59:27.000Z</time></trkpt>
<trkpt lat="42.200306" lon="23.382646"><ele>1835.2</ele><time>2026-03-02T11:59:28.000Z</time></trkpt>
<trkpt lat="42.20032" lon="23.382654"><ele>1835.2</ele><time>2026-03-02T11:59:29.000Z</time></trkpt>
<trkpt lat="42.200333" lon="23.382662"><ele>1834.3</ele><time>2026-03-02T11:59:30.000Z</time></trkpt>
<trkpt lat="42.200345" lon="23.382672"><ele>1834.3</ele><time>2026-03-02T11:59:31.000Z</time></trkpt>
<trkpt lat="42.200358" lon="23.382681"><ele>1834.3</ele><time>2026-03-02T11:59:32.000Z</time></trkpt>
<trkpt lat="42.200371" lon="23.38269"><ele>1834.3</ele><time>2026-03-02T11:59:33.000Z</time></trkpt>
<trkpt lat="42.200384" lon="23.382699"><ele>1834.3</ele><time>2026-03-02T11:59:34.000Z</time></trkpt>
<trkpt lat="42.200395" lon="23.382707"><ele>1833.2</ele><time>2026-03-02T11:59:35.000Z</time></trkpt>
<trkpt lat="42.200407" lon="23.382713"><ele>1833.2</ele><time>2026-03-02T11:59:36.000Z</time></trkpt>
<trkpt lat="42.200419" lon="23.382721"><ele>1833.2</ele><time>2026-03-02T11:59:37.000Z</time></trkpt>
<trkpt lat="42.200431" lon="23.382726"><ele>1833.2</ele><time>2026-03-02T11:59:38.000Z</time></trkpt>
<trkpt lat="42.200444" lon="23.382731"><ele>1833.2</ele><time>2026-03-02T11:59:39.000Z</time></trkpt>
<trkpt lat="42.200458" lon="23.382738"><ele>1832.6</ele><time>2026-03-02T11:59:40.000Z</time></trkpt>
<trkpt lat="42.200471" lon="23.382745"><ele>1832.6</ele><time>2026-03-02T11:59:41.000Z</time></trkpt>
<trkpt lat="42.200484" lon="23.382752"><ele>1832.6</ele><time>2026-03-02T11:59:42.000Z</time></trkpt>
<trkpt lat="42.200496" lon="23.382759"><ele>1832.6</ele><time>2026-03-02T11:59:43.000Z</time></trkpt>
<trkpt lat="42.200507" lon="23.382765"><ele>1832.6</ele><time>2026-03-02T11:59:44.000Z</time></trkpt>
<trkpt lat="42.200519" lon="23.382773"><ele>1831.3</ele><time>2026-03-02T11:59:45.000Z</time></trkpt>
<trkpt lat="42.20053" lon="23.382782"><ele>1831.3</ele><time>2026-03-02T11:59:46.000Z</time></trkpt>
<trkpt lat="42.200541" lon="23.382793"><ele>1831.3</ele><time>2026-03-02T11:59:47.000Z</time></trkpt>
<trkpt lat="42.200552" lon="23.382804"><ele>1831.3</ele><time>2026-03-02T11:59:48.000Z</time></trkpt>
<trkpt lat="42.200562" lon="23.382817"><ele>1831.3</ele><time>2026-03-02T11:59:49.000Z</time></trkpt>
<trkpt lat="42.200573" lon="23.382829"><ele>1830.1</ele><time>2026-03-02T11:59:50.000Z</time></trkpt>
<trkpt lat="42.200586" lon="23.38284"><ele>1830.1</ele><time>2026-03-02T11:59:51.000Z</time></trkpt>
<trkpt lat="42.200598" lon="23.38285"><ele>1830.1</ele><time>2026-03-02T11:59:52.000Z</time></trkpt>
<trkpt lat="42.200611" lon="23.382862"><ele>1830.1</ele><time>2026-03-02T11:59:53.000Z</time></trkpt>
<trkpt lat="42.200624" lon="23.382872"><ele>1830.1</ele><time>2026-03-02T11:59:54.000Z</time></trkpt>
<trkpt lat="42.200637" lon="23.382884"><ele>1829.5</ele><time>2026-03-02T11:59:55.000Z</time></trkpt>
<trkpt lat="42.200649" lon="23.382894"><ele>1829.5</ele><time>2026-03-02T11:59:56.000Z</time></trkpt>
<trkpt lat="42.200662" lon="23.382905"><ele>1829.5</ele><time>2026-03-02T11:59:57.000Z</time></trkpt>
<trkpt lat="42.200675" lon="23.382915"><ele>1829.5</ele><time>2026-03-02T11:59:58.000Z</time></trkpt>
<trkpt lat="42.200688" lon="23.382923"><ele>1829.5</ele><time>2026-03-02T11:59:59.000Z</time></trkpt>
<trkpt lat="42.2007" lon="23.382933"><ele>1828.1</ele><time>2026-03-02T12:00:00.000Z</time></trkpt>
<trkpt lat="42.20071" lon="23.382942"><ele>1828.1</ele><time>2026-03-02T12:00:01.000Z</time></trkpt>
<trkpt lat="42.200718" lon="23.382951"><ele>1828.1</ele><time>2026-03-02T12:00:02.000Z</time></trkpt>
<trkpt lat="42.200727" lon="23.382961"><ele>1828.1</ele><time>2026-03-02T12:00:03.000Z</time></trkpt>
<trkpt lat="42.200737" lon="23.382973"><ele>1828.1</ele><time>2026-03-02T12:00:04.000Z</time></trkpt>
<trkpt lat="42.200746" lon="23.382985"><ele>1826.7</ele><time>2026-03-02T12:00:05.000Z</time></trkpt>
<trkpt lat="42.200756" lon="23.382997"><ele>1826.7</ele><time>2026-03-02T12:00:06.000Z</time></trkpt>
<trkpt lat="42.200768" lon="23.383009"><ele>1826.7</ele><time>2026-03-02T12:00:07.000Z</time></trkpt>
<trkpt lat="42.20078" lon="23.383021"><ele>1826.7</ele><time>2026-03-02T12:00:08.000Z</time></trkpt>
<trkpt lat="42.200792" lon="23.383031"><ele>1826.7</ele><time>2026-03-02T12:00:09.000Z</time></trkpt>
<trkpt lat="42.200805" lon="23.383041"><ele>1826.1</ele><time>2026-03-02T12:00:10.000Z</time></trkpt>
<trkpt lat="42.200818" lon="23.383049"><ele>1826.1</ele><time>2026-03-02T12:00:11.000Z</time></trkpt>
<trkpt lat="42.200831" lon="23.383055"><ele>1826.1</ele><time>2026-03-02T12:00:12.000Z</time></trkpt>
<trkpt lat="42.200843" lon="23.383061"><ele>1826.1</ele><time>2026-03-02T12:00:13.000Z</time></trkpt>
<trkpt lat="42.200855" lon="23.383066"><ele>1826.1</ele><time>2026-03-02T12:00:14.000Z</time></trkpt>
<trkpt lat="42.200866" lon="23.383071"><ele>1824.9</ele><time>2026-03-02T12:00:15.000Z</time></trkpt>
<trkpt lat="42.200879" lon="23.383077"><ele>1824.9</ele><time>2026-03-02T12:00:16.000Z</time></trkpt>
<trkpt lat="42.20089" lon="23.383085"><ele>1824.9</ele><time>2026-03-02T12:00:17.000Z</time></trkpt>
<trkpt lat="42.200902" lon="23.383093"><ele>1824.9</ele><time>2026-03-02T12:00:18.000Z</time></trkpt>
<trkpt lat="42.200914" lon="23.383101"><ele>1824.9</ele><time>2026-03-02T12:00:19.000Z</time></trkpt>
<trkpt lat="42.200927" lon="23.383111"><ele>1823.8</ele><time>2026-03-02T12:00:20.000Z</time></trkpt>
<trkpt lat="42.20094" lon="23.383119"><ele>1823.8</ele><time>2026-03-02T12:00:21.000Z</time></trkpt>
<trkpt lat="42.200955" lon="23.383127"><ele>1823.8</ele><time>2026-03-02T12:00:22.000Z</time></trkpt>
<trkpt lat="42.200968" lon="23.383134"><ele>1823.8</ele><time>2026-03-02T12:00:23.000Z</time></trkpt>
<trkpt lat="42.20098" lon="23.383144"><ele>1823.8</ele><time>2026-03-02T12:00:24.000Z</time></trkpt>
<trkpt lat="42.200991" lon="23.383151"><ele>1823.4</ele><time>2026-03-02T12:00:25.000Z</time></trkpt>
<trkpt lat="42.201001" lon="23.38316"><ele>1823.4</ele><time>2026-03-02T12:00:26.000Z</time></trkpt>
<trkpt lat="42.20101" lon="23.383172"><ele>1823.4</ele><time>2026-03-02T12:00:27.000Z</time></trkpt>
<trkpt lat="42.201021" lon="23.383185"><ele>1823.4</ele><time>2026-03-02T12:00:28.000Z</time></trkpt>
<trkpt lat="42.201032" lon="23.383196"><ele>1823.4</ele><time>2026-03-02T12:00:29.000Z</time></trkpt>
<trkpt lat="42.201043" lon="23.383207"><ele>1822.4</ele><time>2026-03-02T12:00:30.000Z</time></trkpt>
<trkpt lat="42.201055" lon="23.38322"><ele>1822.4</ele><time>2026-03-02T12:00:31.000Z</time></trkpt>
<trkpt lat="42.201067" lon="23.383229"><ele>1822.4</ele><time>2026-03-02T12:00:32.000Z</time></trkpt>
<trkpt lat="42.20108" lon="23.383238"><ele>1822.4</ele><time>2026-03-02T12:00:33.000Z</time></trkpt>
<trkpt lat="42.201094" lon="23.383247"><ele>1822.4</ele><time>2026-03-02T12:00:34.000Z</time></trkpt>
<trkpt lat="42.201108" lon="23.383256"><ele>1821.2</ele><time>2026-03-02T12:00:35.000Z</time></trkpt>
<trkpt lat="42.20112" lon="23.383264"><ele>1821.2</ele><time>2026-03-02T12:00:36.000Z</time></trkpt>
<trkpt lat="42.201132" lon="23.383272"><ele>1821.2</ele><time>2026-03-02T12:00:37.000Z</time></trkpt>
<trkpt lat="42.201144" lon="23.38328"><ele>1821.2</ele><time>2026-03-02T12:00:38.000Z</time></trkpt>
<trkpt lat="42.201153" lon="23.383288"><ele>1821.2</ele><time>2026-03-02T12:00:39.000Z</time></trkpt>
<trkpt lat="42.201164" lon="23.383294"><ele>1820.6</ele><time>2026-03-02T12:00:40.000Z</time></trkpt>
<trkpt lat="42.201176" lon="23.3833"><ele>1820.6</ele><time>2026-03-02T12:00:41.000Z</time></trkpt>
<trkpt lat="42.201187" lon="23.383303"><ele>1820.6</ele><time>2026-03-02T12:00:42.000Z</time></trkpt>
<trkpt lat="42.2012" lon="23.383307"><ele>1820.6</ele><time>2026-03-02T12:00:43.000Z</time></trkpt>
<trkpt lat="42.201213" lon="23.38331"><ele>1820.6</ele><time>2026-03-02T12:00:44.000Z</time></trkpt>
<trkpt lat="42.201227" lon="23.383311"><ele>1819.5</ele><time>2026-03-02T12:00:45.000Z</time></trkpt>
<trkpt lat="42.20124" lon="23.383313"><ele>1819.5</ele><time>2026-03-02T12:00:46.000Z</time></trkpt>
<trkpt lat="42.201254" lon="23.383314"><ele>1819.5</ele><time>2026-03-02T12:00:47.000Z</time></trkpt>
<trkpt lat="42.201269" lon="23.383314"><ele>1819.5</ele><time>2026-03-02T12:00:48.000Z</time></trkpt>
<trkpt lat="42.201282" lon="23.383317"><ele>1819.5</ele><time>2026-03-02T12:00:49.000Z</time></trkpt>
<trkpt lat="42.201296" lon="23.383322"><ele>1818.9</ele><time>2026-03-02T12:00:50.000Z</time></trkpt>
<trkpt lat="42.20131" lon="23.383328"><ele>1818.9</ele><time>2026-03-02T12:00:51.000Z</time></trkpt>
<trkpt lat="42.201323" lon="23.383337"><ele>1818.9</ele><time>2026-03-02T12:00:52.000Z</time></trkpt>
<trkpt lat="42.201336" lon="23.383349"><ele>1818.9</ele><time>2026-03-02T12:00:53.000Z</time></trkpt>
<trkpt lat="42.201349" lon="23.383362"><ele>1818.9</ele><time>2026-03-02T12:00:54.000Z</time></trkpt>
<trkpt lat="42.201361" lon="23.383375"><ele>1818.7</ele><time>2026-03-02T12:00:55.000Z</time></trkpt>
<trkpt lat="42.201372" lon="23.383389"><ele>1818.7</ele><time>2026-03-02T12:00:56.000Z</time></trkpt>
<trkpt lat="42.201384" lon="23.383404"><ele>1818.7</ele><time>2026-03-02T12:00:57.000Z</time></trkpt>
<trkpt lat="42.201394" lon="23.383419"><ele>1818.7</ele><time>2026-03-02T12:00:58.000Z</time></trkpt>
<trkpt lat="42.201404" lon="23.383434"><ele>1818.7</ele><time>2026-03-02T12:00:59.000Z</time></trkpt>
<trkpt lat="42.201414" lon="23.383447"><ele>1817.8</ele><time>2026-03-02T12:01:00.000Z</time></trkpt>
<trkpt lat="42.201424" lon="23.38346"><ele>1817.8</ele><time>2026-03-02T12:01:01.000Z</time></trkpt>
<trkpt lat="42.201433" lon="23.383474"><ele>1817.8</ele><time>2026-03-02T12:01:02.000Z</time></trkpt>
<trkpt lat="42.201443" lon="23.383488"><ele>1817.8</ele><time>2026-03-02T12:01:03.000Z</time></trkpt>
<trkpt lat="42.201453" lon="23.383502"><ele>1817.8</ele><time>2026-03-02T12:01:04.000Z</time></trkpt>
<trkpt lat="42.201464" lon="23.383517"><ele>1816.6</ele><time>2026-03-02T12:01:05.000Z</time></trkpt>
<trkpt lat="42.201475" lon="23.38353"><ele>1816.6</ele><time>2026-03-02T12:01:06.000Z</time></trkpt>
<trkpt lat="42.201487" lon="23.383541"><ele>1816.6</ele><time>2026-03-02T12:01:07.000Z</time></trkpt>
<trkpt lat="42.201501" lon="23.383551"><ele>1816.6</ele><time>2026-03-02T12:01:08.000Z</time></trkpt>
<trkpt lat="42.201514" lon="23.383561"><ele>1816.6</ele><time>2026-03-02T12:01:09.000Z</time></trkpt>
<trkpt lat="42.201526" lon="23.383572"><ele>1816.1</ele><time>2026-03-02T12:01:10.000Z</time></trkpt>
<trkpt lat="42.201537" lon="23.383584"><ele>1816.1</ele><time>2026-03-02T12:01:11.000Z</time></trkpt>
<trkpt lat="42.201547" lon="23.383598"><ele>1816.1</ele><time>2026-03-02T12:01:12.000Z</time></trkpt>
<trkpt lat="42.201555" lon="23.383612"><ele>1816.1</ele><time>2026-03-02T12:01:13.000Z</time></trkpt>
<trkpt lat="42.201565" lon="23.383627"><ele>1816.1</ele><time>2026-03-02T12:01:14.000Z</time></trkpt>
<trkpt lat="42.201575" lon="23.383642"><ele>1815.5</ele><time>2026-03-02T12:01:15.000Z</time></trkpt>
<trkpt lat="42.201584" lon="23.383658"><ele>1815.5</ele><time>2026-03-02T12:01:16.000Z</time></trkpt>
<trkpt lat="42.201594" lon="23.383673"><ele>1815.5</ele><time>2026-03-02T12:01:17.000Z</time></trkpt>
<trkpt lat="42.201603" lon="23.383689"><ele>1815.5</ele><time>2026-03-02T12:01:18.000Z</time></trkpt>
<trkpt lat="42.201612" lon="23.383707"><ele>1815.5</ele><time>2026-03-02T12:01:19.000Z</time></trkpt>
<trkpt lat="42.201621" lon="23.383724"><ele>1815.2</ele><time>2026-03-02T12:01:20.000Z</time></trkpt>
<trkpt lat="42.20163" lon="23.383739"><ele>1815.2</ele><time>2026-03-02T12:01:21.000Z</time></trkpt>
<trkpt lat="42.20164" lon="23.383754"><ele>1815.2</ele><time>2026-03-02T12:01:22.000Z</time></trkpt>
<trkpt lat="42.201649" lon="23.383768"><ele>1815.2</ele><time>2026-03-02T12:01:23.000Z</time></trkpt>
<trkpt lat="42.20166" lon="23.383779"><ele>1815.2</ele><time>2026-03-02T12:01:24.000Z</time></trkpt>
<trkpt lat="42.201671" lon="23.38379"><ele>1815</ele><time>2026-03-02T12:01:25.000Z</time></trkpt>
<trkpt lat="42.201683" lon="23.383801"><ele>1815</ele><time>2026-03-02T12:01:26.000Z</time></trkpt>
<trkpt lat="42.201694" lon="23.383811"><ele>1815</ele><time>2026-03-02T12:01:27.000Z</time></trkpt>
<trkpt lat="42.201705" lon="23.38382"><ele>1815</ele><time>2026-03-02T12:01:28.000Z</time></trkpt>
<trkpt lat="42.201716" lon="23.38383"><ele>1815</ele><time>2026-03-02T12:01:29.000Z</time></trkpt>
<trkpt lat="42.201725" lon="23.38384"><ele>1814.8</ele><time>2026-03-02T12:01:30.000Z</time></trkpt>
<trkpt lat="42.201736" lon="23.383849"><ele>1814.8</ele><time>2026-03-02T12:01:31.000Z</time></trkpt>
<trkpt lat="42.201747" lon="23.383859"><ele>1814.8</ele><time>2026-03-02T12:01:32.000Z</time></trkpt>
<trkpt lat="42.20176" lon="23.38387"><ele>1814.8</ele><time>2026-03-02T12:01:33.000Z</time></trkpt>
<trkpt lat="42.201773" lon="23.383879"><ele>1814.8</ele><time>2026-03-02T12:01:34.000Z</time></trkpt>
<trkpt lat="42.201787" lon="23.383887"><ele>1814.5</ele><time>2026-03-02T12:01:35.000Z</time></trkpt>
<trkpt lat="42.2018" lon="23.383893"><ele>1814.5</ele><time>2026-03-02T12:01:36.000Z</time></trkpt>
<trkpt lat="42.201813" lon="23.383899"><ele>1814.5</ele><time>2026-03-02T12:01:37.000Z</time></trkpt>
<trkpt lat="42.201826" lon="23.383903"><ele>1814.5</ele><time>2026-03-02T12:01:38.000Z</time></trkpt>
<trkpt lat="42.201838" lon="23.383908"><ele>1814.5</ele><time>2026-03-02T12:01:39.000Z</time></trkpt>
<trkpt lat="42.20185" lon="23.383914"><ele>1814.2</ele><time>2026-03-02T12:01:40.000Z</time></trkpt>
<trkpt lat="42.201862" lon="23.38392"><ele>1814.2</ele><time>2026-03-02T12:01:41.000Z</time></trkpt>
<trkpt lat="42.201875" lon="23.383926"><ele>1814.2</ele><time>2026-03-02T12:01:42.000Z</time></trkpt>
<trkpt lat="42.201888" lon="23.383932"><ele>1814.2</ele><time>2026-03-02T12:01:43.000Z</time></trkpt>
<trkpt lat="42.201901" lon="23.38394"><ele>1814.2</ele><time>2026-03-02T12:01:44.000Z</time></trkpt>
<trkpt lat="42.201914" lon="23.383947"><ele>1813.3</ele><time>2026-03-02T12:01:45.000Z</time></trkpt>
<trkpt lat="42.201928" lon="23.383955"><ele>1813.3</ele><time>2026-03-02T12:01:46.000Z</time></trkpt>
<trkpt lat="42.20194" lon="23.383964"><ele>1813.3</ele><time>2026-03-02T12:01:47.000Z</time></trkpt>
<trkpt lat="42.201953" lon="23.383973"><ele>1813.3</ele><time>2026-03-02T12:01:48.000Z</time></trkpt>
<trkpt lat="42.201966" lon="23.383981"><ele>1813.3</ele><time>2026-03-02T12:01:49.000Z</time></trkpt>
<trkpt lat="42.201978" lon="23.38399"><ele>1812.2</ele><time>2026-03-02T12:01:50.000Z</time></trkpt>
<trkpt lat="42.20199" lon="23.383998"><ele>1812.2</ele><time>2026-03-02T12:01:51.000Z</time></trkpt>
<trkpt lat="42.202003" lon="23.384006"><ele>1812.2</ele><time>2026-03-02T12:01:52.000Z</time></trkpt>
<trkpt lat="42.202015" lon="23.384015"><ele>1812.2</ele><time>2026-03-02T12:01:53.000Z</time></trkpt>
<trkpt lat="42.202028" lon="23.384024"><ele>1812.2</ele><time>2026-03-02T12:01:54.000Z</time></trkpt>
<trkpt lat="42.20204" lon="23.384032"><ele>1811.7</ele><time>2026-03-02T12:01:55.000Z</time></trkpt>
<trkpt lat="42.202053" lon="23.384041"><ele>1811.7</ele><time>2026-03-02T12:01:56.000Z</time></trkpt>
<trkpt lat="42.202066" lon="23.38405"><ele>1811.7</ele><time>2026-03-02T12:01:57.000Z</time></trkpt>
<trkpt lat="42.202079" lon="23.384059"><ele>1811.7</ele><time>2026-03-02T12:01:58.000Z</time></trkpt>
<trkpt lat="42.202092" lon="23.384068"><ele>1811.7</ele><time>2026-03-02T12:01:59.000Z</time></trkpt>
<trkpt lat="42.202105" lon="23.384077"><ele>1810.6</ele><time>2026-03-02T12:02:00.000Z</time></trkpt>
<trkpt lat="42.202117" lon="23.384086"><ele>1810.6</ele><time>2026-03-02T12:02:01.000Z</time></trkpt>
<trkpt lat="42.20213" lon="23.384096"><ele>1810.6</ele><time>2026-03-02T12:02:02.000Z</time></trkpt>
<trkpt lat="42.202143" lon="23.384105"><ele>1810.6</ele><time>2026-03-02T12:02:03.000Z</time></trkpt>
<trkpt lat="42.202156" lon="23.384114"><ele>1810.6</ele><time>2026-03-02T12:02:04.000Z</time></trkpt>
<trkpt lat="42.20217" lon="23.384124"><ele>1809.9</ele><time>2026-03-02T12:02:05.000Z</time></trkpt>
<trkpt lat="42.202185" lon="23.384131"><ele>1809.9</ele><time>2026-03-02T12:02:06.000Z</time></trkpt>
<trkpt lat="42.202198" lon="23.384138"><ele>1809.9</ele><time>2026-03-02T12:02:07.000Z</time></trkpt>
<trkpt lat="42.202212" lon="23.384145"><ele>1809.9</ele><time>2026-03-02T12:02:08.000Z</time></trkpt>
<trkpt lat="42.202226" lon="23.38415"><ele>1809.9</ele><time>2026-03-02T12:02:09.000Z</time></trkpt>
<trkpt lat="42.20224" lon="23.384155"><ele>1809.7</ele><time>2026-03-02T12:02:10.000Z</time></trkpt>
<trkpt lat="42.202254" lon="23.384159"><ele>1809.7</ele><time>2026-03-02T12:02:11.000Z</time></trkpt>
<trkpt lat="42.202268" lon="23.384163"><ele>1809.7</ele><time>2026-03-02T12:02:12.000Z</time></trkpt>
<trkpt lat="42.202281" lon="23.384166"><ele>1809.7</ele><time>2026-03-02T12:02:13.000Z</time></trkpt>
<trkpt lat="42.202293" lon="23.384169"><ele>1809.7</ele><time>2026-03-02T12:02:14.000Z</time></trkpt>
<trkpt lat="42.202305" lon="23.384173"><ele>1809.2</ele><time>2026-03-02T12:02:15.000Z</time></trkpt>
<trkpt lat="42.202316" lon="23.384176"><ele>1809.2</ele><time>2026-03-02T12:02:16.000Z</time></trkpt>
<trkpt lat="42.202327" lon="23.384179"><ele>1809.2</ele><time>2026-03-02T12:02:17.000Z</time></trkpt>
<trkpt lat="42.202337" lon="23.384183"><ele>1809.2</ele><time>2026-03-02T12:02:18.000Z</time></trkpt>
<trkpt lat="42.202349" lon="23.384187"><ele>1809.2</ele><time>2026-03-02T12:02:19.000Z</time></trkpt>
<trkpt lat="42.202361" lon="23.38419"><ele>1808.5</ele><time>2026-03-02T12:02:20.000Z</time></trkpt>
<trkpt lat="42.202372" lon="23.384196"><ele>1808.5</ele><time>2026-03-02T12:02:21.000Z</time></trkpt>
<trkpt lat="42.202384" lon="23.384202"><ele>1808.5</ele><time>2026-03-02T12:02:22.000Z</time></trkpt>
<trkpt lat="42.202397" lon="23.384208"><ele>1808.5</ele><time>2026-03-02T12:02:23.000Z</time></trkpt>
<trkpt lat="42.202409" lon="23.384214"><ele>1808.5</ele><time>2026-03-02T12:02:24.000Z</time></trkpt>
<trkpt lat="42.202423" lon="23.38422"><ele>1808</ele><time>2026-03-02T12:02:25.000Z</time></trkpt>
<trkpt lat="42.202437" lon="23.384226"><ele>1808</ele><time>2026-03-02T12:02:26.000Z</time></trkpt>
<trkpt lat="42.202451" lon="23.384232"><ele>1808</ele><time>2026-03-02T12:02:27.000Z</time></trkpt>
<trkpt lat="42.202465" lon="23.384238"><ele>1808</ele><time>2026-03-02T12:02:28.000Z</time></trkpt>
<trkpt lat="42.202478" lon="23.384244"><ele>1808</ele><time>2026-03-02T12:02:29.000Z</time></trkpt>
<trkpt lat="42.20249" lon="23.384252"><ele>1806.8</ele><time>2026-03-02T12:02:30.000Z</time></trkpt>
<trkpt lat="42.202504" lon="23.384259"><ele>1806.8</ele><time>2026-03-02T12:02:31.000Z</time></trkpt>
<trkpt lat="42.202517" lon="23.384267"><ele>1806.8</ele><time>2026-03-02T12:02:32.000Z</time></trkpt>
<trkpt lat="42.20253" lon="23.384275"><ele>1806.8</ele><time>2026-03-02T12:02:33.000Z</time></trkpt>
<trkpt lat="42.202542" lon="23.384283"><ele>1806.8</ele><time>2026-03-02T12:02:34.000Z</time></trkpt>
<trkpt lat="42.202555" lon="23.384291"><ele>1805.8</ele><time>2026-03-02T12:02:35.000Z</time></trkpt>
<trkpt lat="42.202567" lon="23.384298"><ele>1805.8</ele><time>2026-03-02T12:02:36.000Z</time></trkpt>
<trkpt lat="42.202579" lon="23.384304"><ele>1805.8</ele><time>2026-03-02T12:02:37.000Z</time></trkpt>
<trkpt lat="42.202592" lon="23.384311"><ele>1805.8</ele><time>2026-03-02T12:02:38.000Z</time></trkpt>
<trkpt lat="42.202606" lon="23.384316"><ele>1805.8</ele><time>2026-03-02T12:02:39.000Z</time></trkpt>
<trkpt lat="42.202619" lon="23.384322"><ele>1805.3</ele><time>2026-03-02T12:02:40.000Z</time></trkpt>
<trkpt lat="42.202634" lon="23.384329"><ele>1805.3</ele><time>2026-03-02T12:02:41.000Z</time></trkpt>
<trkpt lat="42.202647" lon="23.384335"><ele>1805.3</ele><time>2026-03-02T12:02:42.000Z</time></trkpt>
<trkpt lat="42.202661" lon="23.384342"><ele>1805.3</ele><time>2026-03-02T12:02:43.000Z</time></trkpt>
<trkpt lat="42.202674" lon="23.38435"><ele>1805.3</ele><time>2026-03-02T12:02:44.000Z</time></trkpt>
<trkpt lat="42.202688" lon="23.38436"><ele>1804.5</ele><time>2026-03-02T12:02:45.000Z</time></trkpt>
<trkpt lat="42.202701" lon="23.384371"><ele>1804.5</ele><time>2026-03-02T12:02:46.000Z</time></trkpt>
<trkpt lat="42.202713" lon="23.384382"><ele>1804.5</ele><time>2026-03-02T12:02:47.000Z</time></trkpt>
<trkpt lat="42.202726" lon="23.384394"><ele>1804.5</ele><time>2026-03-02T12:02:48.000Z</time></trkpt>
<trkpt lat="42.202738" lon="23.384404"><ele>1804.5</ele><time>2026-03-02T12:02:49.000Z</time></trkpt>
<trkpt lat="42.202749" lon="23.384413"><ele>1803.8</ele><time>2026-03-02T12:02:50.000Z</time></trkpt>
<trkpt lat="42.202759" lon="23.38442"><ele>1803.8</ele><time>2026-03-02T12:02:51.000Z</time></trkpt>
<trkpt lat="42.202771" lon="23.384428"><ele>1803.8</ele><time>2026-03-02T12:02:52.000Z</time></trkpt>
<trkpt lat="42.202782" lon="23.384437"><ele>1803.8</ele><time>2026-03-02T12:02:53.000Z</time></trkpt>
<trkpt lat="42.202793" lon="23.384447"><ele>1803.8</ele><time>2026-03-02T12:02:54.000Z</time></trkpt>
<trkpt lat="42.202804" lon="23.38446"><ele>1803.4</ele><time>2026-03-02T12:02:55.000Z</time></trkpt>
<trkpt lat="42.202816" lon="23.384475"><ele>1803.4</ele><time>2026-03-02T12:02:56.000Z</time></trkpt>
<trkpt lat="42.202826" lon="23.38449"><ele>1803.4</ele><time>2026-03-02T12:02:57.000Z</time></trkpt>
<trkpt lat="42.202836" lon="23.384505"><ele>1803.4</ele><time>2026-03-02T12:02:58.000Z</time></trkpt>
<trkpt lat="42.202847" lon="23.384518"><ele>1803.4</ele><time>2026-03-02T12:02:59.000Z</time></trkpt>
<trkpt lat="42.202859" lon="23.38453"><ele>1802.8</ele><time>2026-03-02T12:03:00.000Z</time></trkpt>
<trkpt lat="42.202871" lon="23.38454"><ele>1802.8</ele><time>2026-03-02T12:03:01.000Z</time></trkpt>
<trkpt lat="42.202882" lon="23.38455"><ele>1802.8</ele><time>2026-03-02T12:03:02.000Z</time></trkpt>
<trkpt lat="42.202894" lon="23.38456"><ele>1802.8</ele><time>2026-03-02T12:03:03.000Z</time></trkpt>
<trkpt lat="42.202907" lon="23.384569"><ele>1802.8</ele><time>2026-03-02T12:03:04.000Z</time></trkpt>
<trkpt lat="42.20292" lon="23.384578"><ele>1802</ele><time>2026-03-02T12:03:05.000Z</time></trkpt>
<trkpt lat="42.202933" lon="23.384585"><ele>1802</ele><time>2026-03-02T12:03:06.000Z</time></trkpt>
<trkpt lat="42.202948" lon="23.384591"><ele>1802</ele><time>2026-03-02T12:03:07.000Z</time></trkpt>
<trkpt lat="42.202962" lon="23.384596"><ele>1802</ele><time>2026-03-02T12:03:08.000Z</time></trkpt>
<trkpt lat="42.202974" lon="23.384601"><ele>1802</ele><time>2026-03-02T12:03:09.000Z</time></trkpt>
<trkpt lat="42.202987" lon="23.384606"><ele>1801.5</ele><time>2026-03-02T12:03:10.000Z</time></trkpt>
<trkpt lat="42.202998" lon="23.384613"><ele>1801.5</ele><time>2026-03-02T12:03:11.000Z</time></trkpt>
<trkpt lat="42.203009" lon="23.384622"><ele>1801.5</ele><time>2026-03-02T12:03:12.000Z</time></trkpt>
<trkpt lat="42.203021" lon="23.384633"><ele>1801.5</ele><time>2026-03-02T12:03:13.000Z</time></trkpt>
<trkpt lat="42.203033" lon="23.384646"><ele>1801.5</ele><time>2026-03-02T12:03:14.000Z</time></trkpt>
<trkpt lat="42.203045" lon="23.384662"><ele>1800.5</ele><time>2026-03-02T12:03:15.000Z</time></trkpt>
<trkpt lat="42.203055" lon="23.384678"><ele>1800.5</ele><time>2026-03-02T12:03:16.000Z</time></trkpt>
<trkpt lat="42.203064" lon="23.384694"><ele>1800.5</ele><time>2026-03-02T12:03:17.000Z</time></trkpt>
<trkpt lat="42.203072" lon="23.384707"><ele>1800.5</ele><time>2026-03-02T12:03:18.000Z</time></trkpt>
<trkpt lat="42.203077" lon="23.38472"><ele>1800.5</ele><time>2026-03-02T12:03:19.000Z</time></trkpt>
<trkpt lat="42.203081" lon="23.384732"><ele>1799.5</ele><time>2026-03-02T12:03:20.000Z</time></trkpt>
<trkpt lat="42.203085" lon="23.384745"><ele>1799.5</ele><time>2026-03-02T12:03:21.000Z</time></trkpt>
<trkpt lat="42.20309" lon="23.384758"><ele>1799.5</ele><time>2026-03-02T12:03:22.000Z</time></trkpt>
<trkpt lat="42.203094" lon="23.384773"><ele>1799.5</ele><time>2026-03-02T12:03:23.000Z</time></trkpt>
<trkpt lat="42.2031" lon="23.384785"><ele>1799.5</ele><time>2026-03-02T12:03:24.000Z</time></trkpt>
<trkpt lat="42.203106" lon="23.384795"><ele>1799.1</ele><time>2026-03-02T12:03:25.000Z</time></trkpt>
<trkpt lat="42.203113" lon="23.384804"><ele>1799.1</ele><time>2026-03-02T12:03:26.000Z</time></trkpt>
<trkpt lat="42.20312" lon="23.384812"><ele>1799.1</ele><time>2026-03-02T12:03:27.000Z</time></trkpt>
<trkpt lat="42.203129" lon="23.384821"><ele>1799.1</ele><time>2026-03-02T12:03:28.000Z</time></trkpt>
<trkpt lat="42.203138" lon="23.384831"><ele>1799.1</ele><time>2026-03-02T12:03:29.000Z</time></trkpt>
<trkpt lat="42.203149" lon="23.384841"><ele>1798.1</ele><time>2026-03-02T12:03:30.000Z</time></trkpt>
<trkpt lat="42.203161" lon="23.384852"><ele>1798.1</ele><time>2026-03-02T12:03:31.000Z</time></trkpt>
<trkpt lat="42.203173" lon="23.384863"><ele>1798.1</ele><time>2026-03-02T12:03:32.000Z</time></trkpt>
<trkpt lat="42.203185" lon="23.384873"><ele>1798.1</ele><time>2026-03-02T12:03:33.000Z</time></trkpt>
<trkpt lat="42.203198" lon="23.384884"><ele>1798.1</ele><time>2026-03-02T12:03:34.000Z</time></trkpt>
<trkpt lat="42.203209" lon="23.384896"><ele>1797</ele><time>2026-03-02T12:03:35.000Z</time></trkpt>
<trkpt lat="42.20322" lon="23.384908"><ele>1797</ele><time>2026-03-02T12:03:36.000Z</time></trkpt>
<trkpt lat="42.203231" lon="23.38492"><ele>1797</ele><time>2026-03-02T12:03:37.000Z</time></trkpt>
<trkpt lat="42.203243" lon="23.384931"><ele>1797</ele><time>2026-03-02T12:03:38.000Z</time></trkpt>
<trkpt lat="42.203255" lon="23.384942"><ele>1797</ele><time>2026-03-02T12:03:39.000Z</time></trkpt>
<trkpt lat="42.203266" lon="23.384952"><ele>1796.4</ele><time>2026-03-02T12:03:40.000Z</time></trkpt>
<trkpt lat="42.203276" lon="23.384962"><ele>1796.4</ele><time>2026-03-02T12:03:41.000Z</time></trkpt>
<trkpt lat="42.203287" lon="23.384972"><ele>1796.4</ele><time>2026-03-02T12:03:42.000Z</time></trkpt>
<trkpt lat="42.203297" lon="23.384981"><ele>1796.4</ele><time>2026-03-02T12:03:43.000Z</time></trkpt>
<trkpt lat="42.20331" lon="23.384988"><ele>1796.4</ele><time>2026-03-02T12:03:44.000Z</time></trkpt>
<trkpt lat="42.203323" lon="23.384997"><ele>1795.1</ele><time>2026-03-02T12:03:45.000Z</time></trkpt>
<trkpt lat="42.203337" lon="23.385004"><ele>1795.1</ele><time>2026-03-02T12:03:46.000Z</time></trkpt>
<trkpt lat="42.20335" lon="23.385012"><ele>1795.1</ele><time>2026-03-02T12:03:47.000Z</time></trkpt>
<trkpt lat="42.203362" lon="23.38502"><ele>1795.1</ele><time>2026-03-02T12:03:48.000Z</time></trkpt>
<trkpt lat="42.203374" lon="23.38503"><ele>1795.1</ele><time>2026-03-02T12:03:49.000Z</time></trkpt>
<trkpt lat="42.203387" lon="23.38504"><ele>1793.9</ele><time>2026-03-02T12:03:50.000Z</time></trkpt>
<trkpt lat="42.203401" lon="23.385052"><ele>1793.9</ele><time>2026-03-02T12:03:51.000Z</time></trkpt>
<trkpt lat="42.203416" lon="23.385064"><ele>1793.9</ele><time>2026-03-02T12:03:52.000Z</time></trkpt>
<trkpt lat="42.203429" lon="23.385077"><ele>1793.9</ele><time>2026-03-02T12:03:53.000Z</time></trkpt>
<trkpt lat="42.203441" lon="23.385091"><ele>1793.9</ele><time>2026-03-02T12:03:54.000Z</time></trkpt>
<trkpt lat="42.203451" lon="23.385103"><ele>1793.4</ele><time>2026-03-02T12:03:55.000Z</time></trkpt>
<trkpt lat="42.203461" lon="23.385115"><ele>1793.4</ele><time>2026-03-02T12:03:56.000Z</time></trkpt>
<trkpt lat="42.203469" lon="23.385127"><ele>1793.4</ele><time>2026-03-02T12:03:57.000Z</time></trkpt>
<trkpt lat="42.203478" lon="23.385141"><ele>1793.4</ele><time>2026-03-02T12:03:58.000Z</time></trkpt>
<trkpt lat="42.203489" lon="23.385155"><ele>1793.4</ele><time>2026-03-02T12:03:59.000Z</time></trkpt>
<trkpt lat="42.2035" lon="23.38517"><ele>1792.4</ele><time>2026-03-02T12:04:00.000Z</time></trkpt>
<trkpt lat="42.203511" lon="23.385186"><ele>1792.4</ele><time>2026-03-02T12:04:01.000Z</time></trkpt>
<trkpt lat="42.203522" lon="23.385201"><ele>1792.4</ele><time>2026-03-02T12:04:02.000Z</time></trkpt>
<trkpt lat="42.203534" lon="23.385213"><ele>1792.4</ele><time>2026-03-02T12:04:03.000Z</time></trkpt>
<trkpt lat="42.203544" lon="23.385225"><ele>1792.4</ele><time>2026-03-02T12:04:04.000Z</time></trkpt>
<trkpt lat="42.203555" lon="23.385235"><ele>1791.5</ele><time>2026-03-02T12:04:05.000Z</time></trkpt>
<trkpt lat="42.203566" lon="23.385245"><ele>1791.5</ele><time>2026-03-02T12:04:06.000Z</time></trkpt>
<trkpt lat="42.203578" lon="23.385255"><ele>1791.5</ele><time>2026-03-02T12:04:07.000Z</time></trkpt>
<trkpt lat="42.20359" lon="23.385264"><ele>1791.5</ele><time>2026-03-02T12:04:08.000Z</time></trkpt>
<trkpt lat="42.203603" lon="23.385272"><ele>1791.5</ele><time>2026-03-02T12:04:09.000Z</time></trkpt>
<trkpt lat="42.203616" lon="23.38528"><ele>1791.1</ele><time>2026-03-02T12:04:10.000Z</time></trkpt>
<trkpt lat="42.203629" lon="23.385287"><ele>1791.1</ele><time>2026-03-02T12:04:11.000Z</time></trkpt>
<trkpt lat="42.203641" lon="23.385294"><ele>1791.1</ele><time>2026-03-02T12:04:12.000Z</time></trkpt>
<trkpt lat="42.203653" lon="23.385302"><ele>1791.1</ele><time>2026-03-02T12:04:13.000Z</time></trkpt>
<trkpt lat="42.203666" lon="23.38531"><ele>1791.1</ele><time>2026-03-02T12:04:14.000Z</time></trkpt>
<trkpt lat="42.203679" lon="23.385318"><ele>1790.4</ele><time>2026-03-02T12:04:15.000Z</time></trkpt>
<trkpt lat="42.203692" lon="23.385327"><ele>1790.4</ele><time>2026-03-02T12:04:16.000Z</time></trkpt>
<trkpt lat="42.203704" lon="23.385337"><ele>1790.4</ele><time>2026-03-02T12:04:17.000Z</time></trkpt>
<trkpt lat="42.203716" lon="23.385346"><ele>1790.4</ele><time>2026-03-02T12:04:18.000Z</time></trkpt>
<trkpt lat="42.203728" lon="23.385356"><ele>1790.4</ele><time>2026-03-02T12:04:19.000Z</time></trkpt>
<trkpt lat="42.203739" lon="23.385366"><ele>1790</ele><time>2026-03-02T12:04:20.000Z</time></trkpt>
<trkpt lat="42.20375" lon="23.385377"><ele>1790</ele><time>2026-03-02T12:04:21.000Z</time></trkpt>
<trkpt lat="42.203762" lon="23.385388"><ele>1790</ele><time>2026-03-02T12:04:22.000Z</time></trkpt>
<trkpt lat="42.203774" lon="23.385398"><ele>1790</ele><time>2026-03-02T12:04:23.000Z</time></trkpt>
<trkpt lat="42.203785" lon="23.385408"><ele>1790</ele><time>2026-03-02T12:04:24.000Z</time></trkpt>
<trkpt lat="42.203796" lon="23.385417"><ele>1789.9</ele><time>2026-03-02T12:04:25.000Z</time></trkpt>
<trkpt lat="42.203807" lon="23.385424"><ele>1789.9</ele><time>2026-03-02T12:04:26.000Z</time></trkpt>
<trkpt lat="42.203817" lon="23.385429"><ele>1789.9</ele><time>2026-03-02T12:04:27.000Z</time></trkpt>
<trkpt lat="42.203827" lon="23.385435"><ele>1789.9</ele><time>2026-03-02T12:04:28.000Z</time></trkpt>
<trkpt lat="42.203838" lon="23.385442"><ele>1789.9</ele><time>2026-03-02T12:04:29.000Z</time></trkpt>
<trkpt lat="42.203848" lon="23.385452"><ele>1789.5</ele><time>2026-03-02T12:04:30.000Z</time></trkpt>
<trkpt lat="42.203859" lon="23.385464"><ele>1789.5</ele><time>2026-03-02T12:04:31.000Z</time></trkpt>
<trkpt lat="42.20387" lon="23.385478"><ele>1789.5</ele><time>2026-03-02T12:04:32.000Z</time></trkpt>
<trkpt lat="42.203882" lon="23.385491"><ele>1789.5</ele><time>2026-03-02T12:04:33.000Z</time></trkpt>
<trkpt lat="42.203894" lon="23.385502"><ele>1789.5</ele><time>2026-03-02T12:04:34.000Z</time></trkpt>
<trkpt lat="42.203906" lon="23.385511"><ele>1788.7</ele><time>2026-03-02T12:04:35.000Z</time></trkpt>
<trkpt lat="42.203919" lon="23.38552"><ele>1788.7</ele><time>2026-03-02T12:04:36.000Z</time></trkpt>
<trkpt lat="42.203933" lon="23.385527"><ele>1788.7</ele><time>2026-03-02T12:04:37.000Z</time></trkpt>
<trkpt lat="42.203946" lon="23.385534"><ele>1788.7</ele><time>2026-03-02T12:04:38.000Z</time></trkpt>
<trkpt lat="42.20396" lon="23.38554"><ele>1788.7</ele><time>2026-03-02T12:04:39.000Z</time></trkpt>
<trkpt lat="42.203971" lon="23.385549"><ele>1788.2</ele><time>2026-03-02T12:04:40.000Z</time></trkpt>
<trkpt lat="42.203983" lon="23.385556"><ele>1788.2</ele><time>2026-03-02T12:04:41.000Z</time></trkpt>
<trkpt lat="42.203994" lon="23.385565"><ele>1788.2</ele><time>2026-03-02T12:04:42.000Z</time></trkpt>
<trkpt lat="42.204005" lon="23.385574"><ele>1788.2</ele><time>2026-03-02T12:04:43.000Z</time></trkpt>
<trkpt lat="42.204017" lon="23.385584"><ele>1788.2</ele><time>2026-03-02T12:04:44.000Z</time></trkpt>
<trkpt lat="42.20403" lon="23.385592"><ele>1787.1</ele><time>2026-03-02T12:04:45.000Z</time></trkpt>
<trkpt lat="42.204043" lon="23.3856"><ele>1787.1</ele><time>2026-03-02T12:04:46.000Z</time></trkpt>
<trkpt lat="42.204057" lon="23.385608"><ele>1787.1</ele><time>2026-03-02T12:04:47.000Z</time></trkpt>
<trkpt lat="42.204071" lon="23.385615"><ele>1787.1</ele><time>2026-03-02T12:04:48.000Z</time></trkpt>
<trkpt lat="42.204084" lon="23.38562"><ele>1787.1</ele><time>2026-03-02T12:04:49.000Z</time></trkpt>
<trkpt lat="42.204097" lon="23.385625"><ele>1785.8</ele><time>2026-03-02T12:04:50.000Z</time></trkpt>
<trkpt lat="42.204107" lon="23.385628"><ele>1785.8</ele><time>2026-03-02T12:04:51.000Z</time></trkpt>
<trkpt lat="42.204116" lon="23.385629"><ele>1785.8</ele><time>2026-03-02T12:04:52.000Z</time></trkpt>
<trkpt lat="42.204125" lon="23.385629"><ele>1785.8</ele><time>2026-03-02T12:04:53.000Z</time></trkpt>
<trkpt lat="42.204134" lon="23.385628"><ele>1785.8</ele><time>2026-03-02T12:04:54.000Z</time></trkpt>
<trkpt lat="42.204145" lon="23.385625"><ele>1785.2</ele><time>2026-03-02T12:04:55.000Z</time></trkpt>
<trkpt lat="42.204158" lon="23.385622"><ele>1785.2</ele><time>2026-03-02T12:04:56.000Z</time></trkpt>
<trkpt lat="42.204173" lon="23.38562"><ele>1785.2</ele><time>2026-03-02T12:04:57.000Z</time></trkpt>
<trkpt lat="42.204188" lon="23.385619"><ele>1785.2</ele><time>2026-03-02T12:04:58.000Z</time></trkpt>
<trkpt lat="42.204202" lon="23.385619"><ele>1785.2</ele><time>2026-03-02T12:04:59.000Z</time></trkpt>
<trkpt lat="42.204216" lon="23.38562"><ele>1783.8</ele><time>2026-03-02T12:05:00.000Z</time></trkpt>
<trkpt lat="42.204229" lon="23.385624"><ele>1783.8</ele><time>2026-03-02T12:05:01.000Z</time></trkpt>
<trkpt lat="42.204242" lon="23.38563"><ele>1783.8</ele><time>2026-03-02T12:05:02.000Z</time></trkpt>
<trkpt lat="42.204256" lon="23.385638"><ele>1783.8</ele><time>2026-03-02T12:05:03.000Z</time></trkpt>
<trkpt lat="42.20427" lon="23.385647"><ele>1783.8</ele><time>2026-03-02T12:05:04.000Z</time></trkpt>
<trkpt lat="42.204286" lon="23.385659"><ele>1782.4</ele><time>2026-03-02T12:05:05.000Z</time></trkpt>
<trkpt lat="42.2043" lon="23.385669"><ele>1782.4</ele><time>2026-03-02T12:05:06.000Z</time></trkpt>
<trkpt lat="42.204315" lon="23.38568"><ele>1782.4</ele><time>2026-03-02T12:05:07.000Z</time></trkpt>
<trkpt lat="42.204328" lon="23.385693"><ele>1782.4</ele><time>2026-03-02T12:05:08.000Z</time></trkpt>
<trkpt lat="42.204341" lon="23.385708"><ele>1782.4</ele><time>2026-03-02T12:05:09.000Z</time></trkpt>
<trkpt lat="42.204354" lon="23.385726"><ele>1781.8</ele><time>2026-03-02T12:05:10.000Z</time></trkpt>
<trkpt lat="42.204368" lon="23.385746"><ele>1781.8</ele><time>2026-03-02T12:05:11.000Z</time></trkpt>
<trkpt lat="42.20438" lon="23.385768"><ele>1781.8</ele><time>2026-03-02T12:05:12.000Z</time></trkpt>
<trkpt lat="42.204391" lon="23.385789"><ele>1781.8</ele><time>2026-03-02T12:05:13.000Z</time></trkpt>
<trkpt lat="42.204403" lon="23.38581"><ele>1781.8</ele><time>2026-03-02T12:05:14.000Z</time></trkpt>
<trkpt lat="42.204413" lon="23.385831"><ele>1780.8</ele><time>2026-03-02T12:05:15.000Z</time></trkpt>
<trkpt lat="42.204423" lon="23.385849"><ele>1780.8</ele><time>2026-03-02T12:05:16.000Z</time></trkpt>
<trkpt lat="42.204433" lon="23.385865"><ele>1780.8</ele><time>2026-03-02T12:05:17.000Z</time></trkpt>
<trkpt lat="42.204442" lon="23.385879"><ele>1780.8</ele><time>2026-03-02T12:05:18.000Z</time></trkpt>
<trkpt lat="42.204451" lon="23.385892"><ele>1780.8</ele><time>2026-03-02T12:05:19.000Z</time></trkpt>
<trkpt lat="42.20446" lon="23.385904"><ele>1780</ele><time>2026-03-02T12:05:20.000Z</time></trkpt>
<trkpt lat="42.204469" lon="23.385917"><ele>1780</ele><time>2026-03-02T12:05:21.000Z</time></trkpt>
<trkpt lat="42.204479" lon="23.385932"><ele>1780</ele><time>2026-03-02T12:05:22.000Z</time></trkpt>
<trkpt lat="42.204488" lon="23.385947"><ele>1780</ele><time>2026-03-02T12:05:23.000Z</time></trkpt>
<trkpt lat="42.204497" lon="23.385962"><ele>1780</ele><time>2026-03-02T12:05:24.000Z</time></trkpt>
<trkpt lat="42.204505" lon="23.385977"><ele>1779.7</ele><time>2026-03-02T12:05:25.000Z</time></trkpt>
<trkpt lat="42.204513" lon="23.385991"><ele>1779.7</ele><time>2026-03-02T12:05:26.000Z</time></trkpt>
<trkpt lat="42.204521" lon="23.386004"><ele>1779.7</ele><time>2026-03-02T12:05:27.000Z</time></trkpt>
<trkpt lat="42.204529" lon="23.386018"><ele>1779.7</ele><time>2026-03-02T12:05:28.000Z</time></trkpt>
<trkpt lat="42.204538" lon="23.386031"><ele>1779.7</ele><time>2026-03-02T12:05:29.000Z</time></trkpt>
<trkpt lat="42.204547" lon="23.386045"><ele>1779</ele><time>2026-03-02T12:05:30.000Z</time></trkpt>
<trkpt lat="42.204556" lon="23.386057"><ele>1779</ele><time>2026-03-02T12:05:31.000Z</time></trkpt>
<trkpt lat="42.204564" lon="23.38607"><ele>1779</ele><time>2026-03-02T12:05:32.000Z</time></trkpt>
<trkpt lat="42.204573" lon="23.386082"><ele>1779</ele><time>2026-03-02T12:05:33.000Z</time></trkpt>
<trkpt lat="42.204584" lon="23.386094"><ele>1779</ele><time>2026-03-02T12:05:34.000Z</time></trkpt>
<trkpt lat="42.204595" lon="23.386105"><ele>1778.6</ele><time>2026-03-02T12:05:35.000Z</time></trkpt>
<trkpt lat="42.204606" lon="23.386117"><ele>1778.6</ele><time>2026-03-02T12:05:36.000Z</time></trkpt>
<trkpt lat="42.204618" lon="23.386129"><ele>1778.6</ele><time>2026-03-02T12:05:37.000Z</time></trkpt>
<trkpt lat="42.204628" lon="23.386141"><ele>1778.6</ele><time>2026-03-02T12:05:38.000Z</time></trkpt>
<trkpt lat="42.204636" lon="23.386153"><ele>1778.6</ele><time>2026-03-02T12:05:39.000Z</time></trkpt>
<trkpt lat="42.204644" lon="23.386165"><ele>1778.4</ele><time>2026-03-02T12:05:40.000Z</time></trkpt>
<trkpt lat="42.204652" lon="23.386178"><ele>1778.4</ele><time>2026-03-02T12:05:41.000Z</time></trkpt>
<trkpt lat="42.204659" lon="23.386189"><ele>1778.4</ele><time>2026-03-02T12:05:42.000Z</time></trkpt>
<trkpt lat="42.204667" lon="23.386198"><ele>1778.4</ele><time>2026-03-02T12:05:43.000Z</time></trkpt>
<trkpt lat="42.204676" lon="23.386207"><ele>1778.4</ele><time>2026-03-02T12:05:44.000Z</time></trkpt>
<trkpt lat="42.204685" lon="23.386215"><ele>1778.2</ele><time>2026-03-02T12:05:45.000Z</time></trkpt>
<trkpt lat="42.204695" lon="23.386221"><ele>1778.2</ele><time>2026-03-02T12:05:46.000Z</time></trkpt>
<trkpt lat="42.204707" lon="23.386226"><ele>1778.2</ele><time>2026-03-02T12:05:47.000Z</time></trkpt>
<trkpt lat="42.204719" lon="23.386232"><ele>1778.2</ele><time>2026-03-02T12:05:48.000Z</time></trkpt>
<trkpt lat="42.204731" lon="23.386238"><ele>1778.2</ele><time>2026-03-02T12:05:49.000Z</time></trkpt>
<trkpt lat="42.204744" lon="23.386242"><ele>1777.9</ele><time>2026-03-02T12:05:50.000Z</time></trkpt>
<trkpt lat="42.204758" lon="23.386244"><ele>1777.9</ele><time>2026-03-02T12:05:51.000Z</time></trkpt>
<trkpt lat="42.20477" lon="23.386245"><ele>1777.9</ele><time>2026-03-02T12:05:52.000Z</time></trkpt>
<trkpt lat="42.204783" lon="23.386247"><ele>1777.9</ele><time>2026-03-02T12:05:53.000Z</time></trkpt>
<trkpt lat="42.204797" lon="23.386249"><ele>1777.9</ele><time>2026-03-02T12:05:54.000Z</time></trkpt>
<trkpt lat="42.204811" lon="23.386252"><ele>1777.6</ele><time>2026-03-02T12:05:55.000Z</time></trkpt>
<trkpt lat="42.204825" lon="23.386258"><ele>1777.6</ele><time>2026-03-02T12:05:56.000Z</time></trkpt>
<trkpt lat="42.20484" lon="23.386263"><ele>1777.6</ele><time>2026-03-02T12:05:57.000Z</time></trkpt>
<trkpt lat="42.204855" lon="23.386267"><ele>1777.6</ele><time>2026-03-02T12:05:58.000Z</time></trkpt>
<trkpt lat="42.20487" lon="23.386271"><ele>1777.6</ele><time>2026-03-02T12:05:59.000Z</time></trkpt>
<trkpt lat="42.204883" lon="23.386274"><ele>1776.7</ele><time>2026-03-02T12:06:00.000Z</time></trkpt>
<trkpt lat="42.204895" lon="23.386279"><ele>1776.7</ele><time>2026-03-02T12:06:01.000Z</time></trkpt>
<trkpt lat="42.204906" lon="23.386285"><ele>1776.7</ele><time>2026-03-02T12:06:02.000Z</time></trkpt>
<trkpt lat="42.204918" lon="23.386293"><ele>1776.7</ele><time>2026-03-02T12:06:03.000Z</time></trkpt>
<trkpt lat="42.204928" lon="23.386302"><ele>1776.7</ele><time>2026-03-02T12:06:04.000Z</time></trkpt>
<trkpt lat="42.204941" lon="23.386311"><ele>1775.2</ele><time>2026-03-02T12:06:05.000Z</time></trkpt>
<trkpt lat="42.204955" lon="23.38632"><ele>1775.2</ele><time>2026-03-02T12:06:06.000Z</time></trkpt>
<trkpt lat="42.20497" lon="23.386329"><ele>1775.2</ele><time>2026-03-02T12:06:07.000Z</time></trkpt>
<trkpt lat="42.204985" lon="23.386337"><ele>1775.2</ele><time>2026-03-02T12:06:08.000Z</time></trkpt>
<trkpt lat="42.205001" lon="23.386345"><ele>1775.2</ele><time>2026-03-02T12:06:09.000Z</time></trkpt>
<trkpt lat="42.205016" lon="23.386354"><ele>1774.4</ele><time>2026-03-02T12:06:10.000Z</time></trkpt>
<trkpt lat="42.205029" lon="23.386361"><ele>1774.4</ele><time>2026-03-02T12:06:11.000Z</time></trkpt>
<trkpt lat="42.205042" lon="23.386367"><ele>1774.4</ele><time>2026-03-02T12:06:12.000Z</time></trkpt>
<trkpt lat="42.205055" lon="23.386371"><ele>1774.4</ele><time>2026-03-02T12:06:13.000Z</time></trkpt>
<trkpt lat="42.205066" lon="23.386375"><ele>1774.4</ele><time>2026-03-02T12:06:14.000Z</time></trkpt>
<trkpt lat="42.205078" lon="23.386378"><ele>1772.8</ele><time>2026-03-02T12:06:15.000Z</time></trkpt>
<trkpt lat="42.20509" lon="23.38638"><ele>1772.8</ele><time>2026-03-02T12:06:16.000Z</time></trkpt>
<trkpt lat="42.205104" lon="23.38638"><ele>1772.8</ele><time>2026-03-02T12:06:17.000Z</time></trkpt>
<trkpt lat="42.205118" lon="23.38638"><ele>1772.8</ele><time>2026-03-02T12:06:18.000Z</time></trkpt>
<trkpt lat="42.205133" lon="23.38638"><ele>1772.8</ele><time>2026-03-02T12:06:19.000Z</time></trkpt>
<trkpt lat="42.205149" lon="23.386379"><ele>1771.2</ele><time>2026-03-02T12:06:20.000Z</time></trkpt>
<trkpt lat="42.205163" lon="23.386379"><ele>1771.2</ele><time>2026-03-02T12:06:21.000Z</time></trkpt>
<trkpt lat="42.205178" lon="23.386381"><ele>1771.2</ele><time>2026-03-02T12:06:22.000Z</time></trkpt>
<trkpt lat="42.205194" lon="23.386384"><ele>1771.2</ele><time>2026-03-02T12:06:23.000Z</time></trkpt>
<trkpt lat="42.205209" lon="23.386388"><ele>1771.2</ele><time>2026-03-02T12:06:24.000Z</time></trkpt>
<trkpt lat="42.205225" lon="23.386394"><ele>1770.3</ele><time>2026-03-02T12:06:25.000Z</time></trkpt>
<trkpt lat="42.205242" lon="23.3864"><ele>1770.3</ele><time>2026-03-02T12:06:26.000Z</time></trkpt>
<trkpt lat="42.205257" lon="23.386408"><ele>1770.3</ele><time>2026-03-02T12:06:27.000Z</time></trkpt>
<trkpt lat="42.205271" lon="23.386415"><ele>1770.3</ele><time>2026-03-02T12:06:28.000Z</time></trkpt>
<trkpt lat="42.205284" lon="23.386423"><ele>1770.3</ele><time>2026-03-02T12:06:29.000Z</time></trkpt>
<trkpt lat="42.205297" lon="23.386433"><ele>1768.6</ele><time>2026-03-02T12:06:30.000Z</time></trkpt>
<trkpt lat="42.205308" lon="23.386445"><ele>1768.6</ele><time>2026-03-02T12:06:31.000Z</time></trkpt>
<trkpt lat="42.20532" lon="23.386458"><ele>1768.6</ele><time>2026-03-02T12:06:32.000Z</time></trkpt>
<trkpt lat="42.205333" lon="23.386473"><ele>1768.6</ele><time>2026-03-02T12:06:33.000Z</time></trkpt>
<trkpt lat="42.205345" lon="23.38649"><ele>1768.6</ele><time>2026-03-02T12:06:34.000Z</time></trkpt>
<trkpt lat="42.205358" lon="23.386505"><ele>1767.1</ele><time>2026-03-02T12:06:35.000Z</time></trkpt>
<trkpt lat="42.205371" lon="23.38652"><ele>1767.1</ele><time>2026-03-02T12:06:36.000Z</time></trkpt>
<trkpt lat="42.205384" lon="23.386535"><ele>1767.1</ele><time>2026-03-02T12:06:37.000Z</time></trkpt>
<trkpt lat="42.205396" lon="23.38655"><ele>1767.1</ele><time>2026-03-02T12:06:38.000Z</time></trkpt>
<trkpt lat="42.205407" lon="23.386565"><ele>1767.1</ele><time>2026-03-02T12:06:39.000Z</time></trkpt>
<trkpt lat="42.205419" lon="23.38658"><ele>1766.7</ele><time>2026-03-02T12:06:40.000Z</time></trkpt>
<trkpt lat="42.205432" lon="23.386592"><ele>1766.7</ele><time>2026-03-02T12:06:41.000Z</time></trkpt>
<trkpt lat="42.205445" lon="23.386603"><ele>1766.7</ele><time>2026-03-02T12:06:42.000Z</time></trkpt>
<trkpt lat="42.205459" lon="23.386611"><ele>1766.7</ele><time>2026-03-02T12:06:43.000Z</time></trkpt>
<trkpt lat="42.205475" lon="23.386619"><ele>1766.7</ele><time>2026-03-02T12:06:44.000Z</time></trkpt>
<trkpt lat="42.20549" lon="23.386627"><ele>1765.9</ele><time>2026-03-02T12:06:45.000Z</time></trkpt>
<trkpt lat="42.205505" lon="23.386637"><ele>1765.9</ele><time>2026-03-02T12:06:46.000Z</time></trkpt>
<trkpt lat="42.205521" lon="23.386646"><ele>1765.9</ele><time>2026-03-02T12:06:47.000Z</time></trkpt>
<trkpt lat="42.205537" lon="23.386654"><ele>1765.9</ele><time>2026-03-02T12:06:48.000Z</time></trkpt>
<trkpt lat="42.205551" lon="23.386659"><ele>1765.9</ele><time>2026-03-02T12:06:49.000Z</time></trkpt>
<trkpt lat="42.205566" lon="23.386661"><ele>1765.4</ele><time>2026-03-02T12:06:50.000Z</time></trkpt>
<trkpt lat="42.20558" lon="23.38666"><ele>1765.4</ele><time>2026-03-02T12:06:51.000Z</time></trkpt>
<trkpt lat="42.205592" lon="23.386658"><ele>1765.4</ele><time>2026-03-02T12:06:52.000Z</time></trkpt>
<trkpt lat="42.205603" lon="23.386655"><ele>1765.4</ele><time>2026-03-02T12:06:53.000Z</time></trkpt>
<trkpt lat="42.205614" lon="23.386652"><ele>1765.4</ele><time>2026-03-02T12:06:54.000Z</time></trkpt>
<trkpt lat="42.205625" lon="23.386651"><ele>1765.1</ele><time>2026-03-02T12:06:55.000Z</time></trkpt>
<trkpt lat="42.205637" lon="23.38665"><ele>1765.1</ele><time>2026-03-02T12:06:56.000Z</time></trkpt>
<trkpt lat="42.20565" lon="23.386648"><ele>1765.1</ele><time>2026-03-02T12:06:57.000Z</time></trkpt>
<trkpt lat="42.205665" lon="23.386646"><ele>1765.1</ele><time>2026-03-02T12:06:58.000Z</time></trkpt>
<trkpt lat="42.205679" lon="23.386644"><ele>1765.1</ele><time>2026-03-02T12:06:59.000Z</time></trkpt>
<trkpt lat="42.205692" lon="23.386642"><ele>1764.3</ele><time>2026-03-02T12:07:00.000Z</time></trkpt>
<trkpt lat="42.205705" lon="23.38664"><ele>1764.3</ele><time>2026-03-02T12:07:01.000Z</time></trkpt>
<trkpt lat="42.205718" lon="23.386636"><ele>1764.3</ele><time>2026-03-02T12:07:02.000Z</time></trkpt>
<trkpt lat="42.205731" lon="23.386634"><ele>1764.3</ele><time>2026-03-02T12:07:03.000Z</time></trkpt>
<trkpt lat="42.205745" lon="23.386632"><ele>1764.3</ele><time>2026-03-02T12:07:04.000Z</time></trkpt>
<trkpt lat="42.20576" lon="23.386628"><ele>1763.2</ele><time>2026-03-02T12:07:05.000Z</time></trkpt>
<trkpt lat="42.205775" lon="23.386624"><ele>1763.2</ele><time>2026-03-02T12:07:06.000Z</time></trkpt>
<trkpt lat="42.205789" lon="23.38662"><ele>1763.2</ele><time>2026-03-02T12:07:07.000Z</time></trkpt>
<trkpt lat="42.205801" lon="23.386615"><ele>1763.2</ele><time>2026-03-02T12:07:08.000Z</time></trkpt>
<trkpt lat="42.205815" lon="23.386611"><ele>1763.2</ele><time>2026-03-02T12:07:09.000Z</time></trkpt>
<trkpt lat="42.205827" lon="23.386608"><ele>1762.7</ele><time>2026-03-02T12:07:10.000Z</time></trkpt>
<trkpt lat="42.205839" lon="23.386607"><ele>1762.7</ele><time>2026-03-02T12:07:11.000Z</time></trkpt>
<trkpt lat="42.205851" lon="23.386606"><ele>1762.7</ele><time>2026-03-02T12:07:12.000Z</time></trkpt>
<trkpt lat="42.205864" lon="23.386604"><ele>1762.7</ele><time>2026-03-02T12:07:13.000Z</time></trkpt>
<trkpt lat="42.205876" lon="23.386603"><ele>1762.7</ele><time>2026-03-02T12:07:14.000Z</time></trkpt>
<trkpt lat="42.205889" lon="23.386602"><ele>1761.6</ele><time>2026-03-02T12:07:15.000Z</time></trkpt>
<trkpt lat="42.205903" lon="23.386602"><ele>1761.6</ele><time>2026-03-02T12:07:16.000Z</time></trkpt>
<trkpt lat="42.205915" lon="23.386605"><ele>1761.6</ele><time>2026-03-02T12:07:17.000Z</time></trkpt>
<trkpt lat="42.205926" lon="23.386609"><ele>1761.6</ele><time>2026-03-02T12:07:18.000Z</time></trkpt>
<trkpt lat="42.205937" lon="23.386615"><ele>1761.6</ele><time>2026-03-02T12:07:19.000Z</time></trkpt>
<trkpt lat="42.205949" lon="23.386621"><ele>1760.7</ele><time>2026-03-02T12:07:20.000Z</time></trkpt>
<trkpt lat="42.205961" lon="23.386626"><ele>1760.7</ele><time>2026-03-02T12:07:21.000Z</time></trkpt>
<trkpt lat="42.205974" lon="23.386632"><ele>1760.7</ele><time>2026-03-02T12:07:22.000Z</time></trkpt>
<trkpt lat="42.205987" lon="23.386638"><ele>1760.7</ele><time>2026-03-02T12:07:23.000Z</time></trkpt>
<trkpt lat="42.206" lon="23.386645"><ele>1760.7</ele><time>2026-03-02T12:07:24.000Z</time></trkpt>
<trkpt lat="42.206011" lon="23.386651"><ele>1760.3</ele><time>2026-03-02T12:07:25.000Z</time></trkpt>
<trkpt lat="42.206023" lon="23.386657"><ele>1760.3</ele><time>2026-03-02T12:07:26.000Z</time></trkpt>
<trkpt lat="42.206035" lon="23.386662"><ele>1760.3</ele><time>2026-03-02T12:07:27.000Z</time></trkpt>
<trkpt lat="42.206047" lon="23.386665"><ele>1760.3</ele><time>2026-03-02T12:07:28.000Z</time></trkpt>
<trkpt lat="42.206061" lon="23.386666"><ele>1760.3</ele><time>2026-03-02T12:07:29.000Z</time></trkpt>
<trkpt lat="42.206075" lon="23.386668"><ele>1759.7</ele><time>2026-03-02T12:07:30.000Z</time></trkpt>
<trkpt lat="42.206089" lon="23.38667"><ele>1759.7</ele><time>2026-03-02T12:07:31.000Z</time></trkpt>
<trkpt lat="42.206104" lon="23.386673"><ele>1759.7</ele><time>2026-03-02T12:07:32.000Z</time></trkpt>
<trkpt lat="42.206119" lon="23.386678"><ele>1759.7</ele><time>2026-03-02T12:07:33.000Z</time></trkpt>
<trkpt lat="42.206133" lon="23.386685"><ele>1759.7</ele><time>2026-03-02T12:07:34.000Z</time></trkpt>
<trkpt lat="42.206147" lon="23.386693"><ele>1758.9</ele><time>2026-03-02T12:07:35.000Z</time></trkpt>
<trkpt lat="42.20616" lon="23.3867"><ele>1758.9</ele><time>2026-03-02T12:07:36.000Z</time></trkpt>
<trkpt lat="42.206174" lon="23.386707"><ele>1758.9</ele><time>2026-03-02T12:07:37.000Z</time></trkpt>
<trkpt lat="42.206188" lon="23.386714"><ele>1758.9</ele><time>2026-03-02T12:07:38.000Z</time></trkpt>
<trkpt lat="42.206202" lon="23.386722"><ele>1758.9</ele><time>2026-03-02T12:07:39.000Z</time></trkpt>
<trkpt lat="42.206218" lon="23.386727"><ele>1758.5</ele><time>2026-03-02T12:07:40.000Z</time></trkpt>
<trkpt lat="42.206234" lon="23.386733"><ele>1758.5</ele><time>2026-03-02T12:07:41.000Z</time></trkpt>
<trkpt lat="42.206251" lon="23.386738"><ele>1758.5</ele><time>2026-03-02T12:07:42.000Z</time></trkpt>
<trkpt lat="42.206267" lon="23.386742"><ele>1758.5</ele><time>2026-03-02T12:07:43.000Z</time></trkpt>
<trkpt lat="42.206283" lon="23.386744"><ele>1758.5</ele><time>2026-03-02T12:07:44.000Z</time></trkpt>
<trkpt lat="42.206298" lon="23.386747"><ele>1757.7</ele><time>2026-03-02T12:07:45.000Z</time></trkpt>
<trkpt lat="42.206312" lon="23.386749"><ele>1757.7</ele><time>2026-03-02T12:07:46.000Z</time></trkpt>
<trkpt lat="42.206325" lon="23.386752"><ele>1757.7</ele><time>2026-03-02T12:07:47.000Z</time></trkpt>
<trkpt lat="42.206338" lon="23.386755"><ele>1757.7</ele><time>2026-03-02T12:07:48.000Z</time></trkpt>
<trkpt lat="42.206351" lon="23.386759"><ele>1757.7</ele><time>2026-03-02T12:07:49.000Z</time></trkpt>
<trkpt lat="42.206363" lon="23.386763"><ele>1757.1</ele><time>2026-03-02T12:07:50.000Z</time></trkpt>
<trkpt lat="42.206375" lon="23.386767"><ele>1757.1</ele><time>2026-03-02T12:07:51.000Z</time></trkpt>
<trkpt lat="42.206386" lon="23.386773"><ele>1757.1</ele><time>2026-03-02T12:07:52.000Z</time></trkpt>
<trkpt lat="42.206396" lon="23.386778"><ele>1757.1</ele><time>2026-03-02T12:07:53.000Z</time></trkpt>
<trkpt lat="42.206406" lon="23.386785"><ele>1757.1</ele><time>2026-03-02T12:07:54.000Z</time></trkpt>
<trkpt lat="42.206415" lon="23.386792"><ele>1756.9</ele><time>2026-03-02T12:07:55.000Z</time></trkpt>
<trkpt lat="42.206424" lon="23.386802"><ele>1756.9</ele><time>2026-03-02T12:07:56.000Z</time></trkpt>
<trkpt lat="42.206433" lon="23.386812"><ele>1756.9</ele><time>2026-03-02T12:07:57.000Z</time></trkpt>
<trkpt lat="42.206442" lon="23.386823"><ele>1756.9</ele><time>2026-03-02T12:07:58.000Z</time></trkpt>
<trkpt lat="42.20645" lon="23.386835"><ele>1756.9</ele><time>2026-03-02T12:07:59.000Z</time></trkpt>
<trkpt lat="42.206457" lon="23.386849"><ele>1756.6</ele><time>2026-03-02T12:08:00.000Z</time></trkpt>
<trkpt lat="42.206464" lon="23.386864"><ele>1756.6</ele><time>2026-03-02T12:08:01.000Z</time></trkpt>
<trkpt lat="42.206472" lon="23.386879"><ele>1756.6</ele><time>2026-03-02T12:08:02.000Z</time></trkpt>
<trkpt lat="42.206481" lon="23.386895"><ele>1756.6</ele><time>2026-03-02T12:08:03.000Z</time></trkpt>
<trkpt lat="42.206489" lon="23.386911"><ele>1756.6</ele><time>2026-03-02T12:08:04.000Z</time></trkpt>
<trkpt lat="42.206499" lon="23.386928"><ele>1756.3</ele><time>2026-03-02T12:08:05.000Z</time></trkpt>
<trkpt lat="42.206509" lon="23.386944"><ele>1756.3</ele><time>2026-03-02T12:08:06.000Z</time></trkpt>
<trkpt lat="42.206525" lon="23.386956"><ele>1756.3</ele><time>2026-03-02T12:08:07.000Z</time></trkpt>
<trkpt lat="42.206543" lon="23.386966"><ele>1756.3</ele><time>2026-03-02T12:08:08.000Z</time></trkpt>
<trkpt lat="42.206561" lon="23.38697"><ele>1756.3</ele><time>2026-03-02T12:08:09.000Z</time></trkpt>
<trkpt lat="42.206578" lon="23.386969"><ele>1756.2</ele><time>2026-03-02T12:08:10.000Z</time></trkpt>
<trkpt lat="42.206596" lon="23.386964"><ele>1756.2</ele><time>2026-03-02T12:08:11.000Z</time></trkpt>
<trkpt lat="42.206608" lon="23.386959"><ele>1756.2</ele><time>2026-03-02T12:08:12.000Z</time></trkpt>
<trkpt lat="42.206619" lon="23.386953"><ele>1756.2</ele><time>2026-03-02T12:08:13.000Z</time></trkpt>
<trkpt lat="42.20663" lon="23.386949"><ele>1756.2</ele><time>2026-03-02T12:08:14.000Z</time></trkpt>
<trkpt lat="42.206642" lon="23.386946"><ele>1756</ele><time>2026-03-02T12:08:15.000Z</time></trkpt>
<trkpt lat="42.206654" lon="23.386945"><ele>1756</ele><time>2026-03-02T12:08:16.000Z</time></trkpt>
<trkpt lat="42.206668" lon="23.386946"><ele>1756</ele><time>2026-03-02T12:08:17.000Z</time></trkpt>
<trkpt lat="42.206682" lon="23.386949"><ele>1756</ele><time>2026-03-02T12:08:18.000Z</time></trkpt>
<trkpt lat="42.206696" lon="23.386952"><ele>1756</ele><time>2026-03-02T12:08:19.000Z</time></trkpt>
<trkpt lat="42.20671" lon="23.386953"><ele>1755.7</ele><time>2026-03-02T12:08:20.000Z</time></trkpt>
<trkpt lat="42.206722" lon="23.386953"><ele>1755.7</ele><time>2026-03-02T12:08:21.000Z</time></trkpt>
<trkpt lat="42.206734" lon="23.386951"><ele>1755.7</ele><time>2026-03-02T12:08:22.000Z</time></trkpt>
<trkpt lat="42.206746" lon="23.386948"><ele>1755.7</ele><time>2026-03-02T12:08:23.000Z</time></trkpt>
<trkpt lat="42.206759" lon="23.386948"><ele>1755.7</ele><time>2026-03-02T12:08:24.000Z</time></trkpt>
<trkpt lat="42.206772" lon="23.386949"><ele>1755.5</ele><time>2026-03-02T12:08:25.000Z</time></trkpt>
<trkpt lat="42.206787" lon="23.386953"><ele>1755.5</ele><time>2026-03-02T12:08:26.000Z</time></trkpt>
<trkpt lat="42.206801" lon="23.386957"><ele>1755.5</ele><time>2026-03-02T12:08:27.000Z</time></trkpt>
<trkpt lat="42.206816" lon="23.386963"><ele>1755.5</ele><time>2026-03-02T12:08:28.000Z</time></trkpt>
<trkpt lat="42.206831" lon="23.386967"><ele>1755.5</ele><time>2026-03-02T12:08:29.000Z</time></trkpt>
<trkpt lat="42.206846" lon="23.386971"><ele>1754.9</ele><time>2026-03-02T12:08:30.000Z</time></trkpt>
<trkpt lat="42.20686" lon="23.386974"><ele>1754.9</ele><time>2026-03-02T12:08:31.000Z</time></trkpt>
<trkpt lat="42.206876" lon="23.386975"><ele>1754.9</ele><time>2026-03-02T12:08:32.000Z</time></trkpt>
<trkpt lat="42.206891" lon="23.386977"><ele>1754.9</ele><time>2026-03-02T12:08:33.000Z</time></trkpt>
<trkpt lat="42.206907" lon="23.386979"><ele>1754.9</ele><time>2026-03-02T12:08:34.000Z</time></trkpt>
<trkpt lat="42.206923" lon="23.386982"><ele>1754.1</ele><time>2026-03-02T12:08:35.000Z</time></trkpt>
<trkpt lat="42.206939" lon="23.386985"><ele>1754.1</ele><time>2026-03-02T12:08:36.000Z</time></trkpt>
<trkpt lat="42.206954" lon="23.386988"><ele>1754.1</ele><time>2026-03-02T12:08:37.000Z</time></trkpt>
<trkpt lat="42.206969" lon="23.386992"><ele>1754.1</ele><time>2026-03-02T12:08:38.000Z</time></trkpt>
<trkpt lat="42.206982" lon="23.386994"><ele>1754.1</ele><time>2026-03-02T12:08:39.000Z</time></trkpt>
<trkpt lat="42.206995" lon="23.386997"><ele>1753.7</ele><time>2026-03-02T12:08:40.000Z</time></trkpt>
<trkpt lat="42.207007" lon="23.386999"><ele>1753.7</ele><time>2026-03-02T12:08:41.000Z</time></trkpt>
<trkpt lat="42.207019" lon="23.387002"><ele>1753.7</ele><time>2026-03-02T12:08:42.000Z</time></trkpt>
<trkpt lat="42.207032" lon="23.387007"><ele>1753.7</ele><time>2026-03-02T12:08:43.000Z</time></trkpt>
<trkpt lat="42.207044" lon="23.387013"><ele>1753.7</ele><time>2026-03-02T12:08:44.000Z</time></trkpt>
<trkpt lat="42.207058" lon="23.387022"><ele>1752.5</ele><time>2026-03-02T12:08:45.000Z</time></trkpt>
<trkpt lat="42.207071" lon="23.387031"><ele>1752.5</ele><time>2026-03-02T12:08:46.000Z</time></trkpt>
<trkpt lat="42.207084" lon="23.387042"><ele>1752.5</ele><time>2026-03-02T12:08:47.000Z</time></trkpt>
<trkpt lat="42.207097" lon="23.387052"><ele>1752.5</ele><time>2026-03-02T12:08:48.000Z</time></trkpt>
<trkpt lat="42.20711" lon="23.387062"><ele>1752.5</ele><time>2026-03-02T12:08:49.000Z</time></trkpt>
<trkpt lat="42.207123" lon="23.38707"><ele>1751.4</ele><time>2026-03-02T12:08:50.000Z</time></trkpt>
<trkpt lat="42.207135" lon="23.387079"><ele>1751.4</ele><time>2026-03-02T12:08:51.000Z</time></trkpt>
<trkpt lat="42.207149" lon="23.387088"><ele>1751.4</ele><time>2026-03-02T12:08:52.000Z</time></trkpt>
<trkpt lat="42.207164" lon="23.387095"><ele>1751.4</ele><time>2026-03-02T12:08:53.000Z</time></trkpt>
<trkpt lat="42.207178" lon="23.387102"><ele>1751.4</ele><time>2026-03-02T12:08:54.000Z</time></trkpt>
<trkpt lat="42.207193" lon="23.387107"><ele>1751</ele><time>2026-03-02T12:08:55.000Z</time></trkpt>
<trkpt lat="42.207208" lon="23.387108"><ele>1751</ele><time>2026-03-02T12:08:56.000Z</time></trkpt>
<trkpt lat="42.207222" lon="23.387108"><ele>1751</ele><time>2026-03-02T12:08:57.000Z</time></trkpt>
<trkpt lat="42.207237" lon="23.387107"><ele>1751</ele><time>2026-03-02T12:08:58.000Z</time></trkpt>
<trkpt lat="42.20725" lon="23.387106"><ele>1751</ele><time>2026-03-02T12:08:59.000Z</time></trkpt>
<trkpt lat="42.207264" lon="23.387106"><ele>1750.2</ele><time>2026-03-02T12:09:00.000Z</time></trkpt>
<trkpt lat="42.207278" lon="23.387107"><ele>1750.2</ele><time>2026-03-02T12:09:01.000Z</time></trkpt>
<trkpt lat="42.207291" lon="23.387108"><ele>1750.2</ele><time>2026-03-02T12:09:02.000Z</time></trkpt>
<trkpt lat="42.207304" lon="23.38711"><ele>1750.2</ele><time>2026-03-02T12:09:03.000Z</time></trkpt>
<trkpt lat="42.207317" lon="23.387112"><ele>1750.2</ele><time>2026-03-02T12:09:04.000Z</time></trkpt>
<trkpt lat="42.20733" lon="23.387113"><ele>1749.4</ele><time>2026-03-02T12:09:05.000Z</time></trkpt>
<trkpt lat="42.207343" lon="23.387115"><ele>1749.4</ele><time>2026-03-02T12:09:06.000Z</time></trkpt>
<trkpt lat="42.207356" lon="23.387117"><ele>1749.4</ele><time>2026-03-02T12:09:07.000Z</time></trkpt>
<trkpt lat="42.20737" lon="23.387117"><ele>1749.4</ele><time>2026-03-02T12:09:08.000Z</time></trkpt>
<trkpt lat="42.207385" lon="23.387117"><ele>1749.4</ele><time>2026-03-02T12:09:09.000Z</time></trkpt>
<trkpt lat="42.207399" lon="23.387117"><ele>1749</ele><time>2026-03-02T12:09:10.000Z</time></trkpt>
<trkpt lat="42.207415" lon="23.387118"><ele>1749</ele><time>2026-03-02T12:09:11.000Z</time></trkpt>
<trkpt lat="42.207429" lon="23.38712"><ele>1749</ele><time>2026-03-02T12:09:12.000Z</time></trkpt>
<trkpt lat="42.207441" lon="23.387122"><ele>1749</ele><time>2026-03-02T12:09:13.000Z</time></trkpt>
<trkpt lat="42.207454" lon="23.387126"><ele>1749</ele><time>2026-03-02T12:09:14.000Z</time></trkpt>
<trkpt lat="42.207466" lon="23.387131"><ele>1748.1</ele><time>2026-03-02T12:09:15.000Z</time></trkpt>
<trkpt lat="42.207477" lon="23.387136"><ele>1748.1</ele><time>2026-03-02T12:09:16.000Z</time></trkpt>
<trkpt lat="42.207488" lon="23.387139"><ele>1748.1</ele><time>2026-03-02T12:09:17.000Z</time></trkpt>
<trkpt lat="42.207501" lon="23.387143"><ele>1748.1</ele><time>2026-03-02T12:09:18.000Z</time></trkpt>
<trkpt lat="42.207512" lon="23.387147"><ele>1748.1</ele><time>2026-03-02T12:09:19.000Z</time></trkpt>
<trkpt lat="42.207523" lon="23.387149"><ele>1747.4</ele><time>2026-03-02T12:09:20.000Z</time></trkpt>
<trkpt lat="42.207535" lon="23.387152"><ele>1747.4</ele><time>2026-03-02T12:09:21.000Z</time></trkpt>
<trkpt lat="42.207547" lon="23.387155"><ele>1747.4</ele><time>2026-03-02T12:09:22.000Z</time></trkpt>
<trkpt lat="42.207557" lon="23.387156"><ele>1747.4</ele><time>2026-03-02T12:09:23.000Z</time></trkpt>
<trkpt lat="42.207569" lon="23.387158"><ele>1747.4</ele><time>2026-03-02T12:09:24.000Z</time></trkpt>
<trkpt lat="42.207581" lon="23.387158"><ele>1747.1</ele><time>2026-03-02T12:09:25.000Z</time></trkpt>
<trkpt lat="42.207593" lon="23.387159"><ele>1747.1</ele><time>2026-03-02T12:09:26.000Z</time></trkpt>
<trkpt lat="42.207605" lon="23.387161"><ele>1747.1</ele><time>2026-03-02T12:09:27.000Z</time></trkpt>
<trkpt lat="42.207618" lon="23.387163"><ele>1747.1</ele><time>2026-03-02T12:09:28.000Z</time></trkpt>
<trkpt lat="42.20763" lon="23.387166"><ele>1747.1</ele><time>2026-03-02T12:09:29.000Z</time></trkpt>
<trkpt lat="42.207641" lon="23.387172"><ele>1746.7</ele><time>2026-03-02T12:09:30.000Z</time></trkpt>
<trkpt lat="42.207653" lon="23.387178"><ele>1746.7</ele><time>2026-03-02T12:09:31.000Z</time></trkpt>
<trkpt lat="42.207664" lon="23.387184"><ele>1746.7</ele><time>2026-03-02T12:09:32.000Z</time></trkpt>
<trkpt lat="42.207676" lon="23.387192"><ele>1746.7</ele><time>2026-03-02T12:09:33.000Z</time></trkpt>
<trkpt lat="42.207687" lon="23.3872"><ele>1746.7</ele><time>2026-03-02T12:09:34.000Z</time></trkpt>
<trkpt lat="42.207698" lon="23.387209"><ele>1746</ele><time>2026-03-02T12:09:35.000Z</time></trkpt>
<trkpt lat="42.20771" lon="23.387218"><ele>1746</ele><time>2026-03-02T12:09:36.000Z</time></trkpt>
<trkpt lat="42.207721" lon="23.387226"><ele>1746</ele><time>2026-03-02T12:09:37.000Z</time></trkpt>
<trkpt lat="42.207732" lon="23.387234"><ele>1746</ele><time>2026-03-02T12:09:38.000Z</time></trkpt>
<trkpt lat="42.207742" lon="23.387243"><ele>1746</ele><time>2026-03-02T12:09:39.000Z</time></trkpt>
<trkpt lat="42.20775" lon="23.387251"><ele>1745.5</ele><time>2026-03-02T12:09:40.000Z</time></trkpt>
<trkpt lat="42.207759" lon="23.387258"><ele>1745.5</ele><time>2026-03-02T12:09:41.000Z</time></trkpt>
<trkpt lat="42.207768" lon="23.387267"><ele>1745.5</ele><time>2026-03-02T12:09:42.000Z</time></trkpt>
<trkpt lat="42.207777" lon="23.387276"><ele>1745.5</ele><time>2026-03-02T12:09:43.000Z</time></trkpt>
<trkpt lat="42.207787" lon="23.387287"><ele>1745.5</ele><time>2026-03-02T12:09:44.000Z</time></trkpt>
<trkpt lat="42.207798" lon="23.387296"><ele>1745</ele><time>2026-03-02T12:09:45.000Z</time></trkpt>
<trkpt lat="42.207809" lon="23.387307"><ele>1745</ele><time>2026-03-02T12:09:46.000Z</time></trkpt>
<trkpt lat="42.207819" lon="23.387317"><ele>1745</ele><time>2026-03-02T12:09:47.000Z</time></trkpt>
<trkpt lat="42.20783" lon="23.387327"><ele>1745</ele><time>2026-03-02T12:09:48.000Z</time></trkpt>
<trkpt lat="42.207839" lon="23.387337"><ele>1745</ele><time>2026-03-02T12:09:49.000Z</time></trkpt>
<trkpt lat="42.207848" lon="23.387349"><ele>1744.8</ele><time>2026-03-02T12:09:50.000Z</time></trkpt>
<trkpt lat="42.207858" lon="23.387361"><ele>1744.8</ele><time>2026-03-02T12:09:51.000Z</time></trkpt>
<trkpt lat="42.207869" lon="23.38737"><ele>1744.8</ele><time>2026-03-02T12:09:52.000Z</time></trkpt>
<trkpt lat="42.207881" lon="23.387379"><ele>1744.8</ele><time>2026-03-02T12:09:53.000Z</time></trkpt>
<trkpt lat="42.207894" lon="23.387387"><ele>1744.8</ele><time>2026-03-02T12:09:54.000Z</time></trkpt>
<trkpt lat="42.207907" lon="23.387393"><ele>1744.7</ele><time>2026-03-02T12:09:55.000Z</time></trkpt>
<trkpt lat="42.207923" lon="23.387397"><ele>1744.7</ele><time>2026-03-02T12:09:56.000Z</time></trkpt>
<trkpt lat="42.207937" lon="23.387402"><ele>1744.7</ele><time>2026-03-02T12:09:57.000Z</time></trkpt>
<trkpt lat="42.207954" lon="23.387404"><ele>1744.7</ele><time>2026-03-02T12:09:58.000Z</time></trkpt>
<trkpt lat="42.207971" lon="23.387407"><ele>1744.7</ele><time>2026-03-02T12:09:59.000Z</time></trkpt>
<trkpt lat="42.207989" lon="23.387411"><ele>1744.6</ele><time>2026-03-02T12:10:00.000Z</time></trkpt>
<trkpt lat="42.208005" lon="23.387416"><ele>1744.6</ele><time>2026-03-02T12:10:01.000Z</time></trkpt>
<trkpt lat="42.208019" lon="23.387424"><ele>1744.6</ele><time>2026-03-02T12:10:02.000Z</time></trkpt>
<trkpt lat="42.208032" lon="23.387434"><ele>1744.6</ele><time>2026-03-02T12:10:03.000Z</time></trkpt>
<trkpt lat="42.208043" lon="23.387446"><ele>1744.6</ele><time>2026-03-02T12:10:04.000Z</time></trkpt>
<trkpt lat="42.208055" lon="23.387458"><ele>1744.3</ele><time>2026-03-02T12:10:05.000Z</time></trkpt>
<trkpt lat="42.208066" lon="23.387471"><ele>1744.3</ele><time>2026-03-02T12:10:06.000Z</time></trkpt>
<trkpt lat="42.208079" lon="23.387482"><ele>1744.3</ele><time>2026-03-02T12:10:07.000Z</time></trkpt>
<trkpt lat="42.208092" lon="23.38749"><ele>1744.3</ele><time>2026-03-02T12:10:08.000Z</time></trkpt>
<trkpt lat="42.208104" lon="23.387496"><ele>1744.3</ele><time>2026-03-02T12:10:09.000Z</time></trkpt>
<trkpt lat="42.208116" lon="23.3875"><ele>1744</ele><time>2026-03-02T12:10:10.000Z</time></trkpt>
<trkpt lat="42.208127" lon="23.387504"><ele>1744</ele><time>2026-03-02T12:10:11.000Z</time></trkpt>
<trkpt lat="42.208138" lon="23.387507"><ele>1744</ele><time>2026-03-02T12:10:12.000Z</time></trkpt>
<trkpt lat="42.208149" lon="23.38751"><ele>1744</ele><time>2026-03-02T12:10:13.000Z</time></trkpt>
<trkpt lat="42.20816" lon="23.387514"><ele>1744</ele><time>2026-03-02T12:10:14.000Z</time></trkpt>
<trkpt lat="42.208171" lon="23.387517"><ele>1743.4</ele><time>2026-03-02T12:10:15.000Z</time></trkpt>
<trkpt lat="42.208182" lon="23.387518"><ele>1743.4</ele><time>2026-03-02T12:10:16.000Z</time></trkpt>
<trkpt lat="42.208195" lon="23.38752"><ele>1743.4</ele><time>2026-03-02T12:10:17.000Z</time></trkpt>
<trkpt lat="42.208207" lon="23.387521"><ele>1743.4</ele><time>2026-03-02T12:10:18.000Z</time></trkpt>
<trkpt lat="42.208219" lon="23.387523"><ele>1743.4</ele><time>2026-03-02T12:10:19.000Z</time></trkpt>
<trkpt lat="42.20823" lon="23.387524"><ele>1742.9</ele><time>2026-03-02T12:10:20.000Z</time></trkpt>
<trkpt lat="42.20824" lon="23.387524"><ele>1742.9</ele><time>2026-03-02T12:10:21.000Z</time></trkpt>
<trkpt lat="42.208249" lon="23.387525"><ele>1742.9</ele><time>2026-03-02T12:10:22.000Z</time></trkpt>
<trkpt lat="42.208258" lon="23.387525"><ele>1742.9</ele><time>2026-03-02T12:10:23.000Z</time></trkpt>
<trkpt lat="42.208268" lon="23.387524"><ele>1742.9</ele><time>2026-03-02T12:10:24.000Z</time></trkpt>
<trkpt lat="42.208279" lon="23.387524"><ele>1742.8</ele><time>2026-03-02T12:10:25.000Z</time></trkpt>
<trkpt lat="42.208291" lon="23.387524"><ele>1742.8</ele><time>2026-03-02T12:10:26.000Z</time></trkpt>
<trkpt lat="42.208303" lon="23.387523"><ele>1742.8</ele><time>2026-03-02T12:10:27.000Z</time></trkpt>
<trkpt lat="42.208318" lon="23.387522"><ele>1742.8</ele><time>2026-03-02T12:10:28.000Z</time></trkpt>
<trkpt lat="42.208333" lon="23.38752"><ele>1742.8</ele><time>2026-03-02T12:10:29.000Z</time></trkpt>
<trkpt lat="42.208349" lon="23.387517"><ele>1742.7</ele><time>2026-03-02T12:10:30.000Z</time></trkpt>
<trkpt lat="42.208366" lon="23.387514"><ele>1742.7</ele><time>2026-03-02T12:10:31.000Z</time></trkpt>
<trkpt lat="42.208382" lon="23.387512"><ele>1742.7</ele><time>2026-03-02T12:10:32.000Z</time></trkpt>
<trkpt lat="42.208396" lon="23.387511"><ele>1742.7</ele><time>2026-03-02T12:10:33.000Z</time></trkpt>
<trkpt lat="42.20841" lon="23.38751"><ele>1742.7</ele><time>2026-03-02T12:10:34.000Z</time></trkpt>
<trkpt lat="42.208422" lon="23.38751"><ele>1742.4</ele><time>2026-03-02T12:10:35.000Z</time></trkpt>
<trkpt lat="42.208434" lon="23.38751"><ele>1742.4</ele><time>2026-03-02T12:10:36.000Z</time></trkpt>
<trkpt lat="42.208445" lon="23.38751"><ele>1742.4</ele><time>2026-03-02T12:10:37.000Z</time></trkpt>
<trkpt lat="42.208457" lon="23.387509"><ele>1742.4</ele><time>2026-03-02T12:10:38.000Z</time></trkpt>
<trkpt lat="42.208469" lon="23.387507"><ele>1742.4</ele><time>2026-03-02T12:10:39.000Z</time></trkpt>
<trkpt lat="42.208483" lon="23.387505"><ele>1742.2</ele><time>2026-03-02T12:10:40.000Z</time></trkpt>
<trkpt lat="42.208496" lon="23.387502"><ele>1742.2</ele><time>2026-03-02T12:10:41.000Z</time></trkpt>
<trkpt lat="42.20851" lon="23.387499"><ele>1742.2</ele><time>2026-03-02T12:10:42.000Z</time></trkpt>
<trkpt lat="42.208524" lon="23.387497"><ele>1742.2</ele><time>2026-03-02T12:10:43.000Z</time></trkpt>
<trkpt lat="42.208537" lon="23.387496"><ele>1742.2</ele><time>2026-03-02T12:10:44.000Z</time></trkpt>
<trkpt lat="42.20855" lon="23.387497"><ele>1741.6</ele><time>2026-03-02T12:10:45.000Z</time></trkpt>
<trkpt lat="42.208562" lon="23.387498"><ele>1741.6</ele><time>2026-03-02T12:10:46.000Z</time></trkpt>
<trkpt lat="42.208575" lon="23.387498"><ele>1741.6</ele><time>2026-03-02T12:10:47.000Z</time></trkpt>
<trkpt lat="42.208588" lon="23.387498"><ele>1741.6</ele><time>2026-03-02T12:10:48.000Z</time></trkpt>
<trkpt lat="42.208601" lon="23.387498"><ele>1741.6</ele><time>2026-03-02T12:10:49.000Z</time></trkpt>
<trkpt lat="42.208615" lon="23.387497"><ele>1740.7</ele><time>2026-03-02T12:10:50.000Z</time></trkpt>
<trkpt lat="42.208628" lon="23.387497"><ele>1740.7</ele><time>2026-03-02T12:10:51.000Z</time></trkpt>
<trkpt lat="42.208641" lon="23.387497"><ele>1740.7</ele><time>2026-03-02T12:10:52.000Z</time></trkpt>
<trkpt lat="42.208653" lon="23.387497"><ele>1740.7</ele><time>2026-03-02T12:10:53.000Z</time></trkpt>
<trkpt lat="42.208666" lon="23.387496"><ele>1740.7</ele><time>2026-03-02T12:10:54.000Z</time></trkpt>
<trkpt lat="42.208678" lon="23.387496"><ele>1740.3</ele><time>2026-03-02T12:10:55.000Z</time></trkpt>
<trkpt lat="42.208689" lon="23.387495"><ele>1740.3</ele><time>2026-03-02T12:10:56.000Z</time></trkpt>
<trkpt lat="42.208701" lon="23.387495"><ele>1740.3</ele><time>2026-03-02T12:10:57.000Z</time></trkpt>
<trkpt lat="42.208714" lon="23.387493"><ele>1740.3</ele><time>2026-03-02T12:10:58.000Z</time></trkpt>
<trkpt lat="42.208726" lon="23.387489"><ele>1740.3</ele><time>2026-03-02T12:10:59.000Z</time></trkpt>
<trkpt lat="42.208739" lon="23.387483"><ele>1739.6</ele><time>2026-03-02T12:11:00.000Z</time></trkpt>
<trkpt lat="42.208753" lon="23.387476"><ele>1739.6</ele><time>2026-03-02T12:11:01.000Z</time></trkpt>
<trkpt lat="42.208767" lon="23.387467"><ele>1739.6</ele><time>2026-03-02T12:11:02.000Z</time></trkpt>
<trkpt lat="42.208782" lon="23.387458"><ele>1739.6</ele><time>2026-03-02T12:11:03.000Z</time></trkpt>
<trkpt lat="42.208797" lon="23.387449"><ele>1739.6</ele><time>2026-03-02T12:11:04.000Z</time></trkpt>
<trkpt lat="42.208812" lon="23.387442"><ele>1738.7</ele><time>2026-03-02T12:11:05.000Z</time></trkpt>
<trkpt lat="42.208829" lon="23.387435"><ele>1738.7</ele><time>2026-03-02T12:11:06.000Z</time></trkpt>
<trkpt lat="42.208847" lon="23.387429"><ele>1738.7</ele><time>2026-03-02T12:11:07.000Z</time></trkpt>
<trkpt lat="42.208864" lon="23.387423"><ele>1738.7</ele><time>2026-03-02T12:11:08.000Z</time></trkpt>
<trkpt lat="42.208883" lon="23.387417"><ele>1738.7</ele><time>2026-03-02T12:11:09.000Z</time></trkpt>
<trkpt lat="42.208903" lon="23.387411"><ele>1738.2</ele><time>2026-03-02T12:11:10.000Z</time></trkpt>
<trkpt lat="42.20892" lon="23.387405"><ele>1738.2</ele><time>2026-03-02T12:11:11.000Z</time></trkpt>
<trkpt lat="42.208937" lon="23.3874"><ele>1738.2</ele><time>2026-03-02T12:11:12.000Z</time></trkpt>
<trkpt lat="42.208954" lon="23.387394"><ele>1738.2</ele><time>2026-03-02T12:11:13.000Z</time></trkpt>
<trkpt lat="42.208969" lon="23.387388"><ele>1738.2</ele><time>2026-03-02T12:11:14.000Z</time></trkpt>
<trkpt lat="42.208984" lon="23.387381"><ele>1736.6</ele><time>2026-03-02T12:11:15.000Z</time></trkpt>
<trkpt lat="42.208999" lon="23.387374"><ele>1736.6</ele><time>2026-03-02T12:11:16.000Z</time></trkpt>
<trkpt lat="42.209015" lon="23.387367"><ele>1736.6</ele><time>2026-03-02T12:11:17.000Z</time></trkpt>
<trkpt lat="42.20903" lon="23.38736"><ele>1736.6</ele><time>2026-03-02T12:11:18.000Z</time></trkpt>
<trkpt lat="42.209046" lon="23.387352"><ele>1736.6</ele><time>2026-03-02T12:11:19.000Z</time></trkpt>
<trkpt lat="42.209061" lon="23.387345"><ele>1734.6</ele><time>2026-03-02T12:11:20.000Z</time></trkpt>
<trkpt lat="42.209076" lon="23.387338"><ele>1734.6</ele><time>2026-03-02T12:11:21.000Z</time></trkpt>
<trkpt lat="42.20909" lon="23.387331"><ele>1734.6</ele><time>2026-03-02T12:11:22.000Z</time></trkpt>
<trkpt lat="42.209103" lon="23.387324"><ele>1734.6</ele><time>2026-03-02T12:11:23.000Z</time></trkpt>
<trkpt lat="42.209117" lon="23.387318"><ele>1734.6</ele><time>2026-03-02T12:11:24.000Z</time></trkpt>
<trkpt lat="42.20913" lon="23.387311"><ele>1733.6</ele><time>2026-03-02T12:11:25.000Z</time></trkpt>
<trkpt lat="42.209143" lon="23.387304"><ele>1733.6</ele><time>2026-03-02T12:11:26.000Z</time></trkpt>
<trkpt lat="42.209158" lon="23.387298"><ele>1733.6</ele><time>2026-03-02T12:11:27.000Z</time></trkpt>
<trkpt lat="42.209173" lon="23.387293"><ele>1733.6</ele><time>2026-03-02T12:11:28.000Z</time></trkpt>
<trkpt lat="42.209189" lon="23.387287"><ele>1733.6</ele><time>2026-03-02T12:11:29.000Z</time></trkpt>
<trkpt lat="42.209205" lon="23.387283"><ele>1732.1</ele><time>2026-03-02T12:11:30.000Z</time></trkpt>
<trkpt lat="42.209222" lon="23.387278"><ele>1732.1</ele><time>2026-03-02T12:11:31.000Z</time></trkpt>
<trkpt lat="42.209236" lon="23.387273"><ele>1732.1</ele><time>2026-03-02T12:11:32.000Z</time></trkpt>
<trkpt lat="42.209251" lon="23.387266"><ele>1732.1</ele><time>2026-03-02T12:11:33.000Z</time></trkpt>
<trkpt lat="42.209266" lon="23.387259"><ele>1732.1</ele><time>2026-03-02T12:11:34.000Z</time></trkpt>
<trkpt lat="42.20928" lon="23.387251"><ele>1731.4</ele><time>2026-03-02T12:11:35.000Z</time></trkpt>
<trkpt lat="42.209295" lon="23.387244"><ele>1731.4</ele><time>2026-03-02T12:11:36.000Z</time></trkpt>
<trkpt lat="42.209311" lon="23.387238"><ele>1731.4</ele><time>2026-03-02T12:11:37.000Z</time></trkpt>
<trkpt lat="42.209327" lon="23.387233"><ele>1731.4</ele><time>2026-03-02T12:11:38.000Z</time></trkpt>
<trkpt lat="42.209344" lon="23.387229"><ele>1731.4</ele><time>2026-03-02T12:11:39.000Z</time></trkpt>
<trkpt lat="42.20936" lon="23.387226"><ele>1731.1</ele><time>2026-03-02T12:11:40.000Z</time></trkpt>
<trkpt lat="42.209376" lon="23.387224"><ele>1731.1</ele><time>2026-03-02T12:11:41.000Z</time></trkpt>
<trkpt lat="42.209391" lon="23.387223"><ele>1731.1</ele><time>2026-03-02T12:11:42.000Z</time></trkpt>
<trkpt lat="42.209405" lon="23.387223"><ele>1731.1</ele><time>2026-03-02T12:11:43.000Z</time></trkpt>
<trkpt lat="42.209419" lon="23.387222"><ele>1731.1</ele><time>2026-03-02T12:11:44.000Z</time></trkpt>
<trkpt lat="42.209432" lon="23.387222"><ele>1730.6</ele><time>2026-03-02T12:11:45.000Z</time></trkpt>
<trkpt lat="42.209445" lon="23.38722"><ele>1730.6</ele><time>2026-03-02T12:11:46.000Z</time></trkpt>
<trkpt lat="42.209459" lon="23.387217"><ele>1730.6</ele><time>2026-03-02T12:11:47.000Z</time></trkpt>
<trkpt lat="42.209473" lon="23.387213"><ele>1730.6</ele><time>2026-03-02T12:11:48.000Z</time></trkpt>
<trkpt lat="42.209488" lon="23.387208"><ele>1730.6</ele><time>2026-03-02T12:11:49.000Z</time></trkpt>
<trkpt lat="42.209504" lon="23.387203"><ele>1730</ele><time>2026-03-02T12:11:50.000Z</time></trkpt>
<trkpt lat="42.20952" lon="23.387197"><ele>1730</ele><time>2026-03-02T12:11:51.000Z</time></trkpt>
<trkpt lat="42.209537" lon="23.387194"><ele>1730</ele><time>2026-03-02T12:11:52.000Z</time></trkpt>
<trkpt lat="42.209554" lon="23.38719"><ele>1730</ele><time>2026-03-02T12:11:53.000Z</time></trkpt>
<trkpt lat="42.209569" lon="23.387186"><ele>1730</ele><time>2026-03-02T12:11:54.000Z</time></trkpt>
<trkpt lat="42.209584" lon="23.387181"><ele>1729.9</ele><time>2026-03-02T12:11:55.000Z</time></trkpt>
<trkpt lat="42.209598" lon="23.387178"><ele>1729.9</ele><time>2026-03-02T12:11:56.000Z</time></trkpt>
<trkpt lat="42.209611" lon="23.387174"><ele>1729.9</ele><time>2026-03-02T12:11:57.000Z</time></trkpt>
<trkpt lat="42.209624" lon="23.38717"><ele>1729.9</ele><time>2026-03-02T12:11:58.000Z</time></trkpt>
<trkpt lat="42.209639" lon="23.387168"><ele>1729.9</ele><time>2026-03-02T12:11:59.000Z</time></trkpt>
<trkpt lat="42.209653" lon="23.387167"><ele>1729.6</ele><time>2026-03-02T12:12:00.000Z</time></trkpt>
<trkpt lat="42.209668" lon="23.387165"><ele>1729.6</ele><time>2026-03-02T12:12:01.000Z</time></trkpt>
<trkpt lat="42.209682" lon="23.387162"><ele>1729.6</ele><time>2026-03-02T12:12:02.000Z</time></trkpt>
<trkpt lat="42.209696" lon="23.387158"><ele>1729.6</ele><time>2026-03-02T12:12:03.000Z</time></trkpt>
<trkpt lat="42.209709" lon="23.387154"><ele>1729.6</ele><time>2026-03-02T12:12:04.000Z</time></trkpt>
<trkpt lat="42.209723" lon="23.387148"><ele>1729.3</ele><time>2026-03-02T12:12:05.000Z</time></trkpt>
<trkpt lat="42.209738" lon="23.387142"><ele>1729.3</ele><time>2026-03-02T12:12:06.000Z</time></trkpt>
<trkpt lat="42.209753" lon="23.387138"><ele>1729.3</ele><time>2026-03-02T12:12:07.000Z</time></trkpt>
<trkpt lat="42.209769" lon="23.387135"><ele>1729.3</ele><time>2026-03-02T12:12:08.000Z</time></trkpt>
<trkpt lat="42.209785" lon="23.387133"><ele>1729.3</ele><time>2026-03-02T12:12:09.000Z</time></trkpt>
<trkpt lat="42.209799" lon="23.387132"><ele>1729.2</ele><time>2026-03-02T12:12:10.000Z</time></trkpt>
<trkpt lat="42.209813" lon="23.387131"><ele>1729.2</ele><time>2026-03-02T12:12:11.000Z</time></trkpt>
<trkpt lat="42.209826" lon="23.38713"><ele>1729.2</ele><time>2026-03-02T12:12:12.000Z</time></trkpt>
<trkpt lat="42.209838" lon="23.387129"><ele>1729.2</ele><time>2026-03-02T12:12:13.000Z</time></trkpt>
<trkpt lat="42.20985" lon="23.387128"><ele>1729.2</ele><time>2026-03-02T12:12:14.000Z</time></trkpt>
<trkpt lat="42.209861" lon="23.387127"><ele>1728.9</ele><time>2026-03-02T12:12:15.000Z</time></trkpt>
<trkpt lat="42.209871" lon="23.387126"><ele>1728.9</ele><time>2026-03-02T12:12:16.000Z</time></trkpt>
<trkpt lat="42.209879" lon="23.387126"><ele>1728.9</ele><time>2026-03-02T12:12:17.000Z</time></trkpt>
<trkpt lat="42.209888" lon="23.387126"><ele>1728.9</ele><time>2026-03-02T12:12:18.000Z</time></trkpt>
<trkpt lat="42.209896" lon="23.387127"><ele>1728.9</ele><time>2026-03-02T12:12:19.000Z</time></trkpt>
<trkpt lat="42.209906" lon="23.387127"><ele>1728.6</ele><time>2026-03-02T12:12:20.000Z</time></trkpt>
<trkpt lat="42.209916" lon="23.387127"><ele>1728.6</ele><time>2026-03-02T12:12:21.000Z</time></trkpt>
<trkpt lat="42.209927" lon="23.387125"><ele>1728.6</ele><time>2026-03-02T12:12:22.000Z</time></trkpt>
<trkpt lat="42.209939" lon="23.387124"><ele>1728.6</ele><time>2026-03-02T12:12:23.000Z</time></trkpt>
<trkpt lat="42.209951" lon="23.387123"><ele>1728.6</ele><time>2026-03-02T12:12:24.000Z</time></trkpt>
<trkpt lat="42.209964" lon="23.387122"><ele>1728.4</ele><time>2026-03-02T12:12:25.000Z</time></trkpt>
<trkpt lat="42.209979" lon="23.387122"><ele>1728.4</ele><time>2026-03-02T12:12:26.000Z</time></trkpt>
<trkpt lat="42.209994" lon="23.387123"><ele>1728.4</ele><time>2026-03-02T12:12:27.000Z</time></trkpt>
<trkpt lat="42.210008" lon="23.387124"><ele>1728.4</ele><time>2026-03-02T12:12:28.000Z</time></trkpt>
<trkpt lat="42.21002" lon="23.387125"><ele>1728.4</ele><time>2026-03-02T12:12:29.000Z</time></trkpt>
<trkpt lat="42.210031" lon="23.387125"><ele>1728</ele><time>2026-03-02T12:12:30.000Z</time></trkpt>
<trkpt lat="42.21004" lon="23.387126"><ele>1728</ele><time>2026-03-02T12:12:31.000Z</time></trkpt>
<trkpt lat="42.210048" lon="23.387129"><ele>1728</ele><time>2026-03-02T12:12:32.000Z</time></trkpt>
<trkpt lat="42.210057" lon="23.387133"><ele>1728</ele><time>2026-03-02T12:12:33.000Z</time></trkpt>
<trkpt lat="42.210067" lon="23.387138"><ele>1728</ele><time>2026-03-02T12:12:34.000Z</time></trkpt>
<trkpt lat="42.210078" lon="23.387145"><ele>1727.6</ele><time>2026-03-02T12:12:35.000Z</time></trkpt>
<trkpt lat="42.210088" lon="23.387152"><ele>1727.6</ele><time>2026-03-02T12:12:36.000Z</time></trkpt>
<trkpt lat="42.210098" lon="23.387156"><ele>1727.6</ele><time>2026-03-02T12:12:37.000Z</time></trkpt>
<trkpt lat="42.210108" lon="23.387159"><ele>1727.6</ele><time>2026-03-02T12:12:38.000Z</time></trkpt>
<trkpt lat="42.210119" lon="23.387162"><ele>1727.6</ele><time>2026-03-02T12:12:39.000Z</time></trkpt>
<trkpt lat="42.21013" lon="23.387163"><ele>1727.4</ele><time>2026-03-02T12:12:40.000Z</time></trkpt>
<trkpt lat="42.210142" lon="23.387164"><ele>1727.4</ele><time>2026-03-02T12:12:41.000Z</time></trkpt>
<trkpt lat="42.210154" lon="23.387165"><ele>1727.4</ele><time>2026-03-02T12:12:42.000Z</time></trkpt>
<trkpt lat="42.210168" lon="23.387166"><ele>1727.4</ele><time>2026-03-02T12:12:43.000Z</time></trkpt>
<trkpt lat="42.210181" lon="23.387165"><ele>1727.4</ele><time>2026-03-02T12:12:44.000Z</time></trkpt>
<trkpt lat="42.210196" lon="23.387165"><ele>1727.1</ele><time>2026-03-02T12:12:45.000Z</time></trkpt>
<trkpt lat="42.21021" lon="23.387163"><ele>1727.1</ele><time>2026-03-02T12:12:46.000Z</time></trkpt>
<trkpt lat="42.210223" lon="23.387162"><ele>1727.1</ele><time>2026-03-02T12:12:47.000Z</time></trkpt>
<trkpt lat="42.210236" lon="23.38716"><ele>1727.1</ele><time>2026-03-02T12:12:48.000Z</time></trkpt>
<trkpt lat="42.21025" lon="23.387158"><ele>1727.1</ele><time>2026-03-02T12:12:49.000Z</time></trkpt>
<trkpt lat="42.210263" lon="23.387157"><ele>1726.7</ele><time>2026-03-02T12:12:50.000Z</time></trkpt>
<trkpt lat="42.210276" lon="23.387156"><ele>1726.7</ele><time>2026-03-02T12:12:51.000Z</time></trkpt>
<trkpt lat="42.210289" lon="23.387155"><ele>1726.7</ele><time>2026-03-02T12:12:52.000Z</time></trkpt>
<trkpt lat="42.210303" lon="23.387154"><ele>1726.7</ele><time>2026-03-02T12:12:53.000Z</time></trkpt>
<trkpt lat="42.210316" lon="23.387153"><ele>1726.7</ele><time>2026-03-02T12:12:54.000Z</time></trkpt>
<trkpt lat="42.21033" lon="23.387152"><ele>1726.5</ele><time>2026-03-02T12:12:55.000Z</time></trkpt>
<trkpt lat="42.210343" lon="23.387151"><ele>1726.5</ele><time>2026-03-02T12:12:56.000Z</time></trkpt>
<trkpt lat="42.210357" lon="23.38715"><ele>1726.5</ele><time>2026-03-02T12:12:57.000Z</time></trkpt>
<trkpt lat="42.210371" lon="23.387148"><ele>1726.5</ele><time>2026-03-02T12:12:58.000Z</time></trkpt>
<trkpt lat="42.210386" lon="23.387147"><ele>1726.5</ele><time>2026-03-02T12:12:59.000Z</time></trkpt>
<trkpt lat="42.2104" lon="23.387148"><ele>1726.2</ele><time>2026-03-02T12:13:00.000Z</time></trkpt>
<trkpt lat="42.210414" lon="23.387153"><ele>1726.2</ele><time>2026-03-02T12:13:01.000Z</time></trkpt>
<trkpt lat="42.210425" lon="23.387161"><ele>1726.2</ele><time>2026-03-02T12:13:02.000Z</time></trkpt>
<trkpt lat="42.210435" lon="23.387172"><ele>1726.2</ele><time>2026-03-02T12:13:03.000Z</time></trkpt>
<trkpt lat="42.210444" lon="23.387187"><ele>1726.2</ele><time>2026-03-02T12:13:04.000Z</time></trkpt>
<trkpt lat="42.210453" lon="23.387202"><ele>1725.8</ele><time>2026-03-02T12:13:05.000Z</time></trkpt>
<trkpt lat="42.210464" lon="23.387217"><ele>1725.8</ele><time>2026-03-02T12:13:06.000Z</time></trkpt>
<trkpt lat="42.210476" lon="23.387231"><ele>1725.8</ele><time>2026-03-02T12:13:07.000Z</time></trkpt>
<trkpt lat="42.210487" lon="23.387246"><ele>1725.8</ele><time>2026-03-02T12:13:08.000Z</time></trkpt>
<trkpt lat="42.210497" lon="23.387261"><ele>1725.8</ele><time>2026-03-02T12:13:09.000Z</time></trkpt>
<trkpt lat="42.210505" lon="23.387275"><ele>1725.5</ele><time>2026-03-02T12:13:10.000Z</time></trkpt>
<trkpt lat="42.210511" lon="23.387288"><ele>1725.5</ele><time>2026-03-02T12:13:11.000Z</time></trkpt>
<trkpt lat="42.210516" lon="23.387302"><ele>1725.5</ele><time>2026-03-02T12:13:12.000Z</time></trkpt>
<trkpt lat="42.210521" lon="23.387316"><ele>1725.5</ele><time>2026-03-02T12:13:13.000Z</time></trkpt>
<trkpt lat="42.210528" lon="23.387328"><ele>1725.5</ele><time>2026-03-02T12:13:14.000Z</time></trkpt>
<trkpt lat="42.210537" lon="23.387341"><ele>1725.1</ele><time>2026-03-02T12:13:15.000Z</time></trkpt>
<trkpt lat="42.210545" lon="23.387355"><ele>1725.1</ele><time>2026-03-02T12:13:16.000Z</time></trkpt>
<trkpt lat="42.210555" lon="23.38737"><ele>1725.1</ele><time>2026-03-02T12:13:17.000Z</time></trkpt>
<trkpt lat="42.210565" lon="23.387384"><ele>1725.1</ele><time>2026-03-02T12:13:18.000Z</time></trkpt>
<trkpt lat="42.210574" lon="23.387399"><ele>1725.1</ele><time>2026-03-02T12:13:19.000Z</time></trkpt>
<trkpt lat="42.210583" lon="23.387415"><ele>1724.9</ele><time>2026-03-02T12:13:20.000Z</time></trkpt>
<trkpt lat="42.210592" lon="23.387429"><ele>1724.9</ele><time>2026-03-02T12:13:21.000Z</time></trkpt>
<trkpt lat="42.210602" lon="23.387444"><ele>1724.9</ele><time>2026-03-02T12:13:22.000Z</time></trkpt>
<trkpt lat="42.210612" lon="23.387457"><ele>1724.9</ele><time>2026-03-02T12:13:23.000Z</time></trkpt>
<trkpt lat="42.210624" lon="23.387468"><ele>1724.9</ele><time>2026-03-02T12:13:24.000Z</time></trkpt>
<trkpt lat="42.210636" lon="23.387474"><ele>1724.8</ele><time>2026-03-02T12:13:25.000Z</time></trkpt>
<trkpt lat="42.210648" lon="23.387476"><ele>1724.8</ele><time>2026-03-02T12:13:26.000Z</time></trkpt>
<trkpt lat="42.210662" lon="23.387475"><ele>1724.8</ele><time>2026-03-02T12:13:27.000Z</time></trkpt>
<trkpt lat="42.210676" lon="23.387474"><ele>1724.8</ele><time>2026-03-02T12:13:28.000Z</time></trkpt>
<trkpt lat="42.21069" lon="23.387474"><ele>1724.8</ele><time>2026-03-02T12:13:29.000Z</time></trkpt>
<trkpt lat="42.210704" lon="23.387475"><ele>1724.5</ele><time>2026-03-02T12:13:30.000Z</time></trkpt>
<trkpt lat="42.210719" lon="23.387478"><ele>1724.5</ele><time>2026-03-02T12:13:31.000Z</time></trkpt>
<trkpt lat="42.210733" lon="23.387482"><ele>1724.5</ele><time>2026-03-02T12:13:32.000Z</time></trkpt>
<trkpt lat="42.210747" lon="23.387484"><ele>1724.5</ele><time>2026-03-02T12:13:33.000Z</time></trkpt>
<trkpt lat="42.210762" lon="23.387486"><ele>1724.5</ele><time>2026-03-02T12:13:34.000Z</time></trkpt>
<trkpt lat="42.210776" lon="23.387488"><ele>1724.1</ele><time>2026-03-02T12:13:35.000Z</time></trkpt>
<trkpt lat="42.21079" lon="23.387489"><ele>1724.1</ele><time>2026-03-02T12:13:36.000Z</time></trkpt>
<trkpt lat="42.210803" lon="23.387487"><ele>1724.1</ele><time>2026-03-02T12:13:37.000Z</time></trkpt>
<trkpt lat="42.210816" lon="23.387482"><ele>1724.1</ele><time>2026-03-02T12:13:38.000Z</time></trkpt>
<trkpt lat="42.21083" lon="23.387474"><ele>1724.1</ele><time>2026-03-02T12:13:39.000Z</time></trkpt>
<trkpt lat="42.210843" lon="23.387465"><ele>1723.8</ele><time>2026-03-02T12:13:40.000Z</time></trkpt>
<trkpt lat="42.210858" lon="23.387455"><ele>1723.8</ele><time>2026-03-02T12:13:41.000Z</time></trkpt>
<trkpt lat="42.210873" lon="23.387447"><ele>1723.8</ele><time>2026-03-02T12:13:42.000Z</time></trkpt>
<trkpt lat="42.210888" lon="23.387441"><ele>1723.8</ele><time>2026-03-02T12:13:43.000Z</time></trkpt>
<trkpt lat="42.210903" lon="23.387437"><ele>1723.8</ele><time>2026-03-02T12:13:44.000Z</time></trkpt>
<trkpt lat="42.210917" lon="23.387435"><ele>1723.4</ele><time>2026-03-02T12:13:45.000Z</time></trkpt>
<trkpt lat="42.21093" lon="23.387434"><ele>1723.4</ele><time>2026-03-02T12:13:46.000Z</time></trkpt>
<trkpt lat="42.210944" lon="23.387432"><ele>1723.4</ele><time>2026-03-02T12:13:47.000Z</time></trkpt>
<trkpt lat="42.210958" lon="23.387431"><ele>1723.4</ele><time>2026-03-02T12:13:48.000Z</time></trkpt>
<trkpt lat="42.210972" lon="23.387431"><ele>1723.4</ele><time>2026-03-02T12:13:49.000Z</time></trkpt>
<trkpt lat="42.210985" lon="23.387432"><ele>1723.2</ele><time>2026-03-02T12:13:50.000Z</time></trkpt>
<trkpt lat="42.210999" lon="23.387436"><ele>1723.2</ele><time>2026-03-02T12:13:51.000Z</time></trkpt>
<trkpt lat="42.211012" lon="23.387442"><ele>1723.2</ele><time>2026-03-02T12:13:52.000Z</time></trkpt>
<trkpt lat="42.211024" lon="23.387452"><ele>1723.2</ele><time>2026-03-02T12:13:53.000Z</time></trkpt>
<trkpt lat="42.211036" lon="23.387462"><ele>1723.2</ele><time>2026-03-02T12:13:54.000Z</time></trkpt>
<trkpt lat="42.211046" lon="23.387472"><ele>1723.1</ele><time>2026-03-02T12:13:55.000Z</time></trkpt>
<trkpt lat="42.211057" lon="23.38748"><ele>1723.1</ele><time>2026-03-02T12:13:56.000Z</time></trkpt>
<trkpt lat="42.211067" lon="23.387489"><ele>1723.1</ele><time>2026-03-02T12:13:57.000Z</time></trkpt>
<trkpt lat="42.211076" lon="23.387498"><ele>1723.1</ele><time>2026-03-02T12:13:58.000Z</time></trkpt>
<trkpt lat="42.211086" lon="23.387507"><ele>1723.1</ele><time>2026-03-02T12:13:59.000Z</time></trkpt>
<trkpt lat="42.211095" lon="23.387514"><ele>1723.2</ele><time>2026-03-02T12:14:00.000Z</time></trkpt>
<trkpt lat="42.211103" lon="23.387522"><ele>1723.2</ele><time>2026-03-02T12:14:01.000Z</time></trkpt>
<trkpt lat="42.21111" lon="23.387529"><ele>1723.2</ele><time>2026-03-02T12:14:02.000Z</time></trkpt>
<trkpt lat="42.211117" lon="23.387534"><ele>1723.2</ele><time>2026-03-02T12:14:03.000Z</time></trkpt>
<trkpt lat="42.211124" lon="23.387538"><ele>1723.2</ele><time>2026-03-02T12:14:04.000Z</time></trkpt>
<trkpt lat="42.21113" lon="23.387542"><ele>1723.6</ele><time>2026-03-02T12:14:05.000Z</time></trkpt>
<trkpt lat="42.211137" lon="23.387545"><ele>1723.6</ele><time>2026-03-02T12:14:06.000Z</time></trkpt>
<trkpt lat="42.211144" lon="23.387547"><ele>1723.6</ele><time>2026-03-02T12:14:07.000Z</time></trkpt>
<trkpt lat="42.211151" lon="23.387548"><ele>1723.6</ele><time>2026-03-02T12:14:08.000Z</time></trkpt>
<trkpt lat="42.211159" lon="23.38755"><ele>1723.6</ele><time>2026-03-02T12:14:09.000Z</time></trkpt>
<trkpt lat="42.211166" lon="23.387555"><ele>1723.9</ele><time>2026-03-02T12:14:10.000Z</time></trkpt>
<trkpt lat="42.211173" lon="23.387559"><ele>1723.9</ele><time>2026-03-02T12:14:11.000Z</time></trkpt>
<trkpt lat="42.21118" lon="23.387565"><ele>1723.9</ele><time>2026-03-02T12:14:12.000Z</time></trkpt>
<trkpt lat="42.211188" lon="23.387571"><ele>1723.9</ele><time>2026-03-02T12:14:13.000Z</time></trkpt>
<trkpt lat="42.211195" lon="23.387578"><ele>1723.9</ele><time>2026-03-02T12:14:14.000Z</time></trkpt>
<trkpt lat="42.211203" lon="23.387583"><ele>1724.9</ele><time>2026-03-02T12:14:15.000Z</time></trkpt>
<trkpt lat="42.211211" lon="23.387588"><ele>1724.9</ele><time>2026-03-02T12:14:16.000Z</time></trkpt>
<trkpt lat="42.211221" lon="23.387594"><ele>1724.9</ele><time>2026-03-02T12:14:17.000Z</time></trkpt>
<trkpt lat="42.211229" lon="23.387601"><ele>1724.9</ele><time>2026-03-02T12:14:18.000Z</time></trkpt>
<trkpt lat="42.211239" lon="23.387607"><ele>1724.9</ele><time>2026-03-02T12:14:19.000Z</time></trkpt>
<trkpt lat="42.21125" lon="23.387614"><ele>1726.3</ele><time>2026-03-02T12:14:20.000Z</time></trkpt>
<trkpt lat="42.211261" lon="23.387623"><ele>1726.3</ele><time>2026-03-02T12:14:21.000Z</time></trkpt>
<trkpt lat="42.211272" lon="23.387632"><ele>1726.3</ele><time>2026-03-02T12:14:22.000Z</time></trkpt>
<trkpt lat="42.211282" lon="23.387641"><ele>1726.3</ele><time>2026-03-02T12:14:23.000Z</time></trkpt>
<trkpt lat="42.211293" lon="23.387651"><ele>1726.3</ele><time>2026-03-02T12:14:24.000Z</time></trkpt>
<trkpt lat="42.211302" lon="23.387662"><ele>1727</ele><time>2026-03-02T12:14:25.000Z</time></trkpt>
<trkpt lat="42.21131" lon="23.387673"><ele>1727</ele><time>2026-03-02T12:14:26.000Z</time></trkpt>
<trkpt lat="42.211317" lon="23.387687"><ele>1727</ele><time>2026-03-02T12:14:27.000Z</time></trkpt>
<trkpt lat="42.211324" lon="23.387702"><ele>1727</ele><time>2026-03-02T12:14:28.000Z</time></trkpt>
<trkpt lat="42.211329" lon="23.387716"><ele>1727</ele><time>2026-03-02T12:14:29.000Z</time></trkpt>
<trkpt lat="42.211334" lon="23.387732"><ele>1728.1</ele><time>2026-03-02T12:14:30.000Z</time></trkpt>
<trkpt lat="42.211337" lon="23.387747"><ele>1728.1</ele><time>2026-03-02T12:14:31.000Z</time></trkpt>
<trkpt lat="42.211339" lon="23.387763"><ele>1728.1</ele><time>2026-03-02T12:14:32.000Z</time></trkpt>
<trkpt lat="42.211341" lon="23.387778"><ele>1728.1</ele><time>2026-03-02T12:14:33.000Z</time></trkpt>
<trkpt lat="42.211342" lon="23.387795"><ele>1728.1</ele><time>2026-03-02T12:14:34.000Z</time></trkpt>
<trkpt lat="42.211344" lon="23.38781"><ele>1728.6</ele><time>2026-03-02T12:14:35.000Z</time></trkpt>
<trkpt lat="42.211345" lon="23.387825"><ele>1728.6</ele><time>2026-03-02T12:14:36.000Z</time></trkpt>
<trkpt lat="42.211345" lon="23.387838"><ele>1728.6</ele><time>2026-03-02T12:14:37.000Z</time></trkpt>
<trkpt lat="42.211344" lon="23.387846"><ele>1728.6</ele><time>2026-03-02T12:14:38.000Z</time></trkpt>
<trkpt lat="42.211343" lon="23.38785"><ele>1728.6</ele><time>2026-03-02T12:14:39.000Z</time></trkpt>
<trkpt lat="42.211342" lon="23.387852"><ele>1728.7</ele><time>2026-03-02T12:14:40.000Z</time></trkpt>
<trkpt lat="42.211341" lon="23.387851"><ele>1728.7</ele><time>2026-03-02T12:14:41.000Z</time></trkpt>
<trkpt lat="42.211342" lon="23.387849"><ele>1728.7</ele><time>2026-03-02T12:14:42.000Z</time></trkpt>
<trkpt lat="42.211343" lon="23.387848"><ele>1728.7</ele><time>2026-03-02T12:14:43.000Z</time></trkpt>
<trkpt lat="42.211343" lon="23.387849"><ele>1728.7</ele><time>2026-03-02T12:14:44.000Z</time></trkpt>
<trkpt lat="42.211344" lon="23.387849"><ele>1728.9</ele><time>2026-03-02T12:14:45.000Z</time></trkpt>
<trkpt lat="42.211345" lon="23.38785"><ele>1728.9</ele><time>2026-03-02T12:14:46.000Z</time></trkpt>
<trkpt lat="42.211346" lon="23.387851"><ele>1728.9</ele><time>2026-03-02T12:14:47.000Z</time></trkpt>
<trkpt lat="42.211347" lon="23.387851"><ele>1728.9</ele><time>2026-03-02T12:14:48.000Z</time></trkpt>
<trkpt lat="42.211349" lon="23.387851"><ele>1728.9</ele><time>2026-03-02T12:14:49.000Z</time></trkpt>
<trkpt lat="42.211351" lon="23.387852"><ele>1728.9</ele><time>2026-03-02T12:14:50.000Z</time></trkpt>
<trkpt lat="42.211353" lon="23.387854"><ele>1728.9</ele><time>2026-03-02T12:14:51.000Z</time></trkpt>
<trkpt lat="42.211353" lon="23.387857"><ele>1728.9</ele><time>2026-03-02T12:14:52.000Z</time></trkpt>
<trkpt lat="42.211353" lon="23.38786"><ele>1728.9</ele><time>2026-03-02T12:14:53.000Z</time></trkpt>
<trkpt lat="42.211353" lon="23.387862"><ele>1728.9</ele><time>2026-03-02T12:14:54.000Z</time></trkpt>
<trkpt lat="42.211352" lon="23.387863"><ele>1729</ele><time>2026-03-02T12:14:55.000Z</time></trkpt>
<trkpt lat="42.211352" lon="23.387862"><ele>1729</ele><time>2026-03-02T12:14:56.000Z</time></trkpt>
<trkpt lat="42.211352" lon="23.387859"><ele>1729</ele><time>2026-03-02T12:14:57.000Z</time></trkpt>
<trkpt lat="42.211352" lon="23.387858"><ele>1729</ele><time>2026-03-02T12:14:58.000Z</time></trkpt>
<trkpt lat="42.211352" lon="23.387857"><ele>1729</ele><time>2026-03-02T12:14:59.000Z</time></trkpt>
<trkpt lat="42.211352" lon="23.387856"><ele>1729.3</ele><time>2026-03-02T12:15:00.000Z</time></trkpt>
<trkpt lat="42.211352" lon="23.387856"><ele>1729.3</ele><time>2026-03-02T12:15:01.000Z</time></trkpt>
<trkpt lat="42.211352" lon="23.387855"><ele>1729.3</ele><time>2026-03-02T12:15:02.000Z</time></trkpt>
<trkpt lat="42.211352" lon="23.387855"><ele>1729.3</ele><time>2026-03-02T12:15:03.000Z</time></trkpt>
<trkpt lat="42.211352" lon="23.387855"><ele>1729.3</ele><time>2026-03-02T12:15:04.000Z</time></trkpt>
<trkpt lat="42.211353" lon="23.387855"><ele>1729.7</ele><time>2026-03-02T12:15:05.000Z</time></trkpt>
<trkpt lat="42.211353" lon="23.387855"><ele>1729.7</ele><time>2026-03-02T12:15:06.000Z</time></trkpt>
<trkpt lat="42.211353" lon="23.387855"><ele>1729.7</ele><time>2026-03-02T12:15:07.000Z</time></trkpt>
<trkpt lat="42.211353" lon="23.387855"><ele>1729.7</ele><time>2026-03-02T12:15:08.000Z</time></trkpt>
<trkpt lat="42.211354" lon="23.387854"><ele>1729.7</ele><time>2026-03-02T12:15:09.000Z</time></trkpt>
<trkpt lat="42.211354" lon="23.387853"><ele>1729.8</ele><time>2026-03-02T12:15:10.000Z</time></trkpt>
<trkpt lat="42.211355" lon="23.387851"><ele>1729.8</ele><time>2026-03-02T12:15:11.000Z</time></trkpt>
<trkpt lat="42.211357" lon="23.38785"><ele>1729.8</ele><time>2026-03-02T12:15:12.000Z</time></trkpt>
<trkpt lat="42.211358" lon="23.387849"><ele>1729.8</ele><time>2026-03-02T12:15:13.000Z</time></trkpt>
<trkpt lat="42.211359" lon="23.387849"><ele>1729.8</ele><time>2026-03-02T12:15:14.000Z</time></trkpt>
<trkpt lat="42.21136" lon="23.387849"><ele>1729.5</ele><time>2026-03-02T12:15:15.000Z</time></trkpt>
<trkpt lat="42.211361" lon="23.38785"><ele>1729.5</ele><time>2026-03-02T12:15:16.000Z</time></trkpt>
<trkpt lat="42.211361" lon="23.387851"><ele>1729.5</ele><time>2026-03-02T12:15:17.000Z</time></trkpt>
<trkpt lat="42.211361" lon="23.387851"><ele>1729.5</ele><time>2026-03-02T12:15:18.000Z</time></trkpt>
<trkpt lat="42.211362" lon="23.387852"><ele>1729.5</ele><time>2026-03-02T12:15:19.000Z</time></trkpt>
<trkpt lat="42.211362" lon="23.387852"><ele>1729</ele><time>2026-03-02T12:15:20.000Z</time></trkpt>
<trkpt lat="42.211362" lon="23.387851"><ele>1729</ele><time>2026-03-02T12:15:21.000Z</time></trkpt>
<trkpt lat="42.211362" lon="23.38785"><ele>1729</ele><time>2026-03-02T12:15:22.000Z</time></trkpt>
<trkpt lat="42.211362" lon="23.38785"><ele>1729</ele><time>2026-03-02T12:15:23.000Z</time></trkpt>
<trkpt lat="42.211361" lon="23.38785"><ele>1729</ele><time>2026-03-02T12:15:24.000Z</time></trkpt>
<trkpt lat="42.211359" lon="23.38785"><ele>1728.8</ele><time>2026-03-02T12:15:25.000Z</time></trkpt>
<trkpt lat="42.211358" lon="23.387851"><ele>1728.8</ele><time>2026-03-02T12:15:26.000Z</time></trkpt>
<trkpt lat="42.211356" lon="23.387852"><ele>1728.8</ele><time>2026-03-02T12:15:27.000Z</time></trkpt>
<trkpt lat="42.211354" lon="23.387853"><ele>1728.8</ele><time>2026-03-02T12:15:28.000Z</time></trkpt>
<trkpt lat="42.211353" lon="23.387855"><ele>1728.8</ele><time>2026-03-02T12:15:29.000Z</time></trkpt>
<trkpt lat="42.211353" lon="23.387855"><ele>1728.7</ele><time>2026-03-02T12:15:30.000Z</time></trkpt>
<trkpt lat="42.211352" lon="23.387855"><ele>1728.7</ele><time>2026-03-02T12:15:31.000Z</time></trkpt>
<trkpt lat="42.211352" lon="23.387856"><ele>1728.7</ele><time>2026-03-02T12:15:32.000Z</time></trkpt>
<trkpt lat="42.211352" lon="23.387855"><ele>1728.7</ele><time>2026-03-02T12:15:33.000Z</time></trkpt>
<trkpt lat="42.211353" lon="23.387853"><ele>1728.7</ele><time>2026-03-02T12:15:34.000Z</time></trkpt>
<trkpt lat="42.211355" lon="23.387851"><ele>1728.8</ele><time>2026-03-02T12:15:35.000Z</time></trkpt>
<trkpt lat="42.211356" lon="23.387848"><ele>1728.8</ele><time>2026-03-02T12:15:36.000Z</time></trkpt>
<trkpt lat="42.211358" lon="23.387845"><ele>1728.8</ele><time>2026-03-02T12:15:37.000Z</time></trkpt>
<trkpt lat="42.211359" lon="23.387844"><ele>1728.8</ele><time>2026-03-02T12:15:38.000Z</time></trkpt>
<trkpt lat="42.211359" lon="23.387844"><ele>1728.8</ele><time>2026-03-02T12:15:39.000Z</time></trkpt>
<trkpt lat="42.211359" lon="23.387845"><ele>1728.8</ele><time>2026-03-02T12:15:40.000Z</time></trkpt>
<trkpt lat="42.211358" lon="23.387845"><ele>1728.8</ele><time>2026-03-02T12:15:41.000Z</time></trkpt>
<trkpt lat="42.211358" lon="23.387845"><ele>1728.8</ele><time>2026-03-02T12:15:42.000Z</time></trkpt>
<trkpt lat="42.211358" lon="23.387845"><ele>1728.8</ele><time>2026-03-02T12:15:43.000Z</time></trkpt>
<trkpt lat="42.211359" lon="23.387845"><ele>1728.8</ele><time>2026-03-02T12:15:44.000Z</time></trkpt>
<trkpt lat="42.21136" lon="23.387844"><ele>1728.7</ele><time>2026-03-02T12:15:45.000Z</time></trkpt>
<trkpt lat="42.211361" lon="23.387844"><ele>1728.7</ele><time>2026-03-02T12:15:46.000Z</time></trkpt>
<trkpt lat="42.211361" lon="23.387844"><ele>1728.7</ele><time>2026-03-02T12:15:47.000Z</time></trkpt>
<trkpt lat="42.211361" lon="23.387844"><ele>1728.7</ele><time>2026-03-02T12:15:48.000Z</time></trkpt>
<trkpt lat="42.211362" lon="23.387843"><ele>1728.7</ele><time>2026-03-02T12:15:49.000Z</time></trkpt>
<trkpt lat="42.211362" lon="23.387842"><ele>1728.5</ele><time>2026-03-02T12:15:50.000Z</time></trkpt>
<trkpt lat="42.211363" lon="23.387842"><ele>1728.5</ele><time>2026-03-02T12:15:51.000Z</time></trkpt>
<trkpt lat="42.211363" lon="23.387842"><ele>1728.5</ele><time>2026-03-02T12:15:52.000Z</time></trkpt>
<trkpt lat="42.211363" lon="23.387842"><ele>1728.5</ele><time>2026-03-02T12:15:53.000Z</time></trkpt>
<trkpt lat="42.211362" lon="23.387842"><ele>1728.5</ele><time>2026-03-02T12:15:54.000Z</time></trkpt>
<trkpt lat="42.21136" lon="23.387842"><ele>1728.4</ele><time>2026-03-02T12:15:55.000Z</time></trkpt>
<trkpt lat="42.211358" lon="23.387842"><ele>1728.4</ele><time>2026-03-02T12:15:56.000Z</time></trkpt>
<trkpt lat="42.211356" lon="23.387842"><ele>1728.4</ele><time>2026-03-02T12:15:57.000Z</time></trkpt>
<trkpt lat="42.211354" lon="23.387842"><ele>1728.4</ele><time>2026-03-02T12:15:58.000Z</time></trkpt>
<trkpt lat="42.211352" lon="23.387841"><ele>1728.4</ele><time>2026-03-02T12:15:59.000Z</time></trkpt>
<trkpt lat="42.211352" lon="23.38784"><ele>1728.4</ele><time>2026-03-02T12:16:00.000Z</time></trkpt>
<trkpt lat="42.211351" lon="23.38784"><ele>1728.4</ele><time>2026-03-02T12:16:01.000Z</time></trkpt>
<trkpt lat="42.21135" lon="23.387839"><ele>1728.4</ele><time>2026-03-02T12:16:02.000Z</time></trkpt>
<trkpt lat="42.21135" lon="23.387838"><ele>1728.4</ele><time>2026-03-02T12:16:03.000Z</time></trkpt>
<trkpt lat="42.211349" lon="23.387837"><ele>1728.4</ele><time>2026-03-02T12:16:04.000Z</time></trkpt>
<trkpt lat="42.21135" lon="23.387836"><ele>1728.3</ele><time>2026-03-02T12:16:05.000Z</time></trkpt>
<trkpt lat="42.211349" lon="23.387835"><ele>1728.3</ele><time>2026-03-02T12:16:06.000Z</time></trkpt>
<trkpt lat="42.211349" lon="23.387834"><ele>1728.3</ele><time>2026-03-02T12:16:07.000Z</time></trkpt>
<trkpt lat="42.211349" lon="23.387834"><ele>1728.3</ele><time>2026-03-02T12:16:08.000Z</time></trkpt>
<trkpt lat="42.211348" lon="23.387833"><ele>1728.3</ele><time>2026-03-02T12:16:09.000Z</time></trkpt>
<trkpt lat="42.211348" lon="23.387833"><ele>1728.3</ele><time>2026-03-02T12:16:10.000Z</time></trkpt>
<trkpt lat="42.211348" lon="23.387833"><ele>1728.3</ele><time>2026-03-02T12:16:11.000Z</time></trkpt>
<trkpt lat="42.211348" lon="23.387833"><ele>1728.3</ele><time>2026-03-02T12:16:12.000Z</time></trkpt>
<trkpt lat="42.211347" lon="23.387833"><ele>1728.3</ele><time>2026-03-02T12:16:13.000Z</time></trkpt>
<trkpt lat="42.211346" lon="23.387834"><ele>1728.3</ele><time>2026-03-02T12:16:14.000Z</time></trkpt>
<trkpt lat="42.211344" lon="23.387834"><ele>1728.2</ele><time>2026-03-02T12:16:15.000Z</time></trkpt>
<trkpt lat="42.211343" lon="23.387834"><ele>1728.2</ele><time>2026-03-02T12:16:16.000Z</time></trkpt>
<trkpt lat="42.211341" lon="23.387835"><ele>1728.2</ele><time>2026-03-02T12:16:17.000Z</time></trkpt>
<trkpt lat="42.211339" lon="23.387837"><ele>1728.2</ele><time>2026-03-02T12:16:18.000Z</time></trkpt>
<trkpt lat="42.211338" lon="23.387836"><ele>1728.2</ele><time>2026-03-02T12:16:19.000Z</time></trkpt>
<trkpt lat="42.211339" lon="23.387838"><ele>1728.2</ele><time>2026-03-02T12:16:20.000Z</time></trkpt>
<trkpt lat="42.21134" lon="23.387839"><ele>1728.2</ele><time>2026-03-02T12:16:21.000Z</time></trkpt>
<trkpt lat="42.211341" lon="23.38784"><ele>1728.2</ele><time>2026-03-02T12:16:22.000Z</time></trkpt>
<trkpt lat="42.211343" lon="23.387841"><ele>1728.2</ele><time>2026-03-02T12:16:23.000Z</time></trkpt>
<trkpt lat="42.211345" lon="23.387843"><ele>1728.2</ele><time>2026-03-02T12:16:24.000Z</time></trkpt>
<trkpt lat="42.211346" lon="23.387844"><ele>1728.3</ele><time>2026-03-02T12:16:25.000Z</time></trkpt>
<trkpt lat="42.211346" lon="23.387844"><ele>1728.3</ele><time>2026-03-02T12:16:26.000Z</time></trkpt>
<trkpt lat="42.211348" lon="23.387845"><ele>1728.3</ele><time>2026-03-02T12:16:27.000Z</time></trkpt>
<trkpt lat="42.21135" lon="23.387845"><ele>1728.3</ele><time>2026-03-02T12:16:28.000Z</time></trkpt>
<trkpt lat="42.211352" lon="23.387845"><ele>1728.3</ele><time>2026-03-02T12:16:29.000Z</time></trkpt>
<trkpt lat="42.211355" lon="23.387845"><ele>1728.3</ele><time>2026-03-02T12:16:30.000Z</time></trkpt>
<trkpt lat="42.211361" lon="23.387844"><ele>1728.3</ele><time>2026-03-02T12:16:31.000Z</time></trkpt>
<trkpt lat="42.211364" lon="23.387843"><ele>1728.3</ele><time>2026-03-02T12:16:32.000Z</time></trkpt>
<trkpt lat="42.211368" lon="23.387843"><ele>1728.3</ele><time>2026-03-02T12:16:33.000Z</time></trkpt>
<trkpt lat="42.211372" lon="23.387842"><ele>1728.3</ele><time>2026-03-02T12:16:34.000Z</time></trkpt>
<trkpt lat="42.211374" lon="23.387842"><ele>1728.1</ele><time>2026-03-02T12:16:35.000Z</time></trkpt>
<trkpt lat="42.211374" lon="23.387842"><ele>1728.1</ele><time>2026-03-02T12:16:36.000Z</time></trkpt>
<trkpt lat="42.211374" lon="23.387842"><ele>1728.1</ele><time>2026-03-02T12:16:37.000Z</time></trkpt>
<trkpt lat="42.211373" lon="23.387841"><ele>1728.1</ele><time>2026-03-02T12:16:38.000Z</time></trkpt>
<trkpt lat="42.211373" lon="23.387841"><ele>1728.1</ele><time>2026-03-02T12:16:39.000Z</time></trkpt>
<trkpt lat="42.211374" lon="23.38784"><ele>1728</ele><time>2026-03-02T12:16:40.000Z</time></trkpt>
<trkpt lat="42.211375" lon="23.387839"><ele>1728</ele><time>2026-03-02T12:16:41.000Z</time></trkpt>
<trkpt lat="42.211375" lon="23.387839"><ele>1728</ele><time>2026-03-02T12:16:42.000Z</time></trkpt>
<trkpt lat="42.211376" lon="23.387839"><ele>1728</ele><time>2026-03-02T12:16:43.000Z</time></trkpt>
<trkpt lat="42.211377" lon="23.387839"><ele>1728</ele><time>2026-03-02T12:16:44.000Z</time></trkpt>
<trkpt lat="42.211377" lon="23.38784"><ele>1727.8</ele><time>2026-03-02T12:16:45.000Z</time></trkpt>
<trkpt lat="42.211377" lon="23.387841"><ele>1727.8</ele><time>2026-03-02T12:16:46.000Z</time></trkpt>
<trkpt lat="42.211376" lon="23.387843"><ele>1727.8</ele><time>2026-03-02T12:16:47.000Z</time></trkpt>
<trkpt lat="42.211373" lon="23.387845"><ele>1727.8</ele><time>2026-03-02T12:16:48.000Z</time></trkpt>
<trkpt lat="42.211371" lon="23.387847"><ele>1727.8</ele><time>2026-03-02T12:16:49.000Z</time></trkpt>
<trkpt lat="42.211368" lon="23.387849"><ele>1728</ele><time>2026-03-02T12:16:50.000Z</time></trkpt>
<trkpt lat="42.211367" lon="23.387849"><ele>1728</ele><time>2026-03-02T12:16:51.000Z</time></trkpt>
<trkpt lat="42.211367" lon="23.387848"><ele>1728</ele><time>2026-03-02T12:16:52.000Z</time></trkpt>
<trkpt lat="42.211368" lon="23.387847"><ele>1728</ele><time>2026-03-02T12:16:53.000Z</time></trkpt>
<trkpt lat="42.21137" lon="23.387844"><ele>1728</ele><time>2026-03-02T12:16:54.000Z</time></trkpt>
<trkpt lat="42.211371" lon="23.387841"><ele>1728.1</ele><time>2026-03-02T12:16:55.000Z</time></trkpt>
<trkpt lat="42.211372" lon="23.38784"><ele>1728.1</ele><time>2026-03-02T12:16:56.000Z</time></trkpt>
<trkpt lat="42.211372" lon="23.387838"><ele>1728.1</ele><time>2026-03-02T12:16:57.000Z</time></trkpt>
<trkpt lat="42.211372" lon="23.387837"><ele>1728.1</ele><time>2026-03-02T12:16:58.000Z</time></trkpt>
<trkpt lat="42.211371" lon="23.387837"><ele>1728.1</ele><time>2026-03-02T12:16:59.000Z</time></trkpt>
<trkpt lat="42.211371" lon="23.387838"><ele>1728.2</ele><time>2026-03-02T12:17:00.000Z</time></trkpt>
<trkpt lat="42.211371" lon="23.38784"><ele>1728.2</ele><time>2026-03-02T12:17:01.000Z</time></trkpt>
<trkpt lat="42.211371" lon="23.387841"><ele>1728.2</ele><time>2026-03-02T12:17:02.000Z</time></trkpt>
<trkpt lat="42.211371" lon="23.387842"><ele>1728.2</ele><time>2026-03-02T12:17:03.000Z</time></trkpt>
<trkpt lat="42.211372" lon="23.387842"><ele>1728.2</ele><time>2026-03-02T12:17:04.000Z</time></trkpt>
<trkpt lat="42.211372" lon="23.387842"><ele>1728.2</ele><time>2026-03-02T12:17:05.000Z</time></trkpt>
<trkpt lat="42.211372" lon="23.387841"><ele>1728.2</ele><time>2026-03-02T12:17:06.000Z</time></trkpt>
<trkpt lat="42.211373" lon="23.387841"><ele>1728.2</ele><time>2026-03-02T12:17:07.000Z</time></trkpt>
<trkpt lat="42.211374" lon="23.387839"><ele>1728.2</ele><time>2026-03-02T12:17:08.000Z</time></trkpt>
<trkpt lat="42.211375" lon="23.387838"><ele>1728.2</ele><time>2026-03-02T12:17:09.000Z</time></trkpt>
<trkpt lat="42.211376" lon="23.387837"><ele>1728.2</ele><time>2026-03-02T12:17:10.000Z</time></trkpt>
<trkpt lat="42.211377" lon="23.387835"><ele>1728.2</ele><time>2026-03-02T12:17:11.000Z</time></trkpt>
<trkpt lat="42.211376" lon="23.387833"><ele>1728.2</ele><time>2026-03-02T12:17:12.000Z</time></trkpt>
<trkpt lat="42.211376" lon="23.387832"><ele>1728.2</ele><time>2026-03-02T12:17:13.000Z</time></trkpt>
<trkpt lat="42.211376" lon="23.387831"><ele>1728.2</ele><time>2026-03-02T12:17:14.000Z</time></trkpt>
<trkpt lat="42.211375" lon="23.38783"><ele>1728.2</ele><time>2026-03-02T12:17:15.000Z</time></trkpt>
<trkpt lat="42.211374" lon="23.387829"><ele>1728.2</ele><time>2026-03-02T12:17:16.000Z</time></trkpt>
<trkpt lat="42.211373" lon="23.387829"><ele>1728.2</ele><time>2026-03-02T12:17:17.000Z</time></trkpt>
<trkpt lat="42.211372" lon="23.38783"><ele>1728.2</ele><time>2026-03-02T12:17:18.000Z</time></trkpt>
<trkpt lat="42.211371" lon="23.387831"><ele>1728.2</ele><time>2026-03-02T12:17:19.000Z</time></trkpt>
<trkpt lat="42.21137" lon="23.387831"><ele>1728.1</ele><time>2026-03-02T12:17:20.000Z</time></trkpt>
<trkpt lat="42.21137" lon="23.387831"><ele>1728.1</ele><time>2026-03-02T12:17:21.000Z</time></trkpt>
<trkpt lat="42.211371" lon="23.387831"><ele>1728.1</ele><time>2026-03-02T12:17:22.000Z</time></trkpt>
<trkpt lat="42.211371" lon="23.387831"><ele>1728.1</ele><time>2026-03-02T12:17:23.000Z</time></trkpt>
<trkpt lat="42.211372" lon="23.387831"><ele>1728.1</ele><time>2026-03-02T12:17:24.000Z</time></trkpt>
<trkpt lat="42.211373" lon="23.38783"><ele>1728.1</ele><time>2026-03-02T12:17:25.000Z</time></trkpt>
<trkpt lat="42.211373" lon="23.387831"><ele>1728.1</ele><time>2026-03-02T12:17:26.000Z</time></trkpt>
<trkpt lat="42.211372" lon="23.387831"><ele>1728.1</ele><time>2026-03-02T12:17:27.000Z</time></trkpt>
<trkpt lat="42.211372" lon="23.387832"><ele>1728.1</ele><time>2026-03-02T12:17:28.000Z</time></trkpt>
<trkpt lat="42.211371" lon="23.387833"><ele>1728.1</ele><time>2026-03-02T12:17:29.000Z</time></trkpt>
<trkpt lat="42.21137" lon="23.387834"><ele>1728</ele><time>2026-03-02T12:17:30.000Z</time></trkpt>
<trkpt lat="42.211369" lon="23.387835"><ele>1728</ele><time>2026-03-02T12:17:31.000Z</time></trkpt>
<trkpt lat="42.211369" lon="23.387836"><ele>1728</ele><time>2026-03-02T12:17:32.000Z</time></trkpt>
<trkpt lat="42.211369" lon="23.387836"><ele>1728</ele><time>2026-03-02T12:17:33.000Z</time></trkpt>
<trkpt lat="42.21137" lon="23.387836"><ele>1728</ele><time>2026-03-02T12:17:34.000Z</time></trkpt>
<trkpt lat="42.21137" lon="23.387836"><ele>1728.1</ele><time>2026-03-02T12:17:35.000Z</time></trkpt>
<trkpt lat="42.21137" lon="23.387836"><ele>1728.1</ele><time>2026-03-02T12:17:36.000Z</time></trkpt>
<trkpt lat="42.21137" lon="23.387835"><ele>1728.1</ele><time>2026-03-02T12:17:37.000Z</time></trkpt>
<trkpt lat="42.21137" lon="23.387835"><ele>1728.1</ele><time>2026-03-02T12:17:38.000Z</time></trkpt>
<trkpt lat="42.21137" lon="23.387836"><ele>1728.1</ele><time>2026-03-02T12:17:39.000Z</time></trkpt>
<trkpt lat="42.21137" lon="23.387836"><ele>1728.1</ele><time>2026-03-02T12:17:40.000Z</time></trkpt>
<trkpt lat="42.211369" lon="23.387836"><ele>1728.1</ele><time>2026-03-02T12:17:41.000Z</time></trkpt>
<trkpt lat="42.211369" lon="23.387836"><ele>1728.1</ele><time>2026-03-02T12:17:42.000Z</time></trkpt>
<trkpt lat="42.211369" lon="23.387837"><ele>1728.1</ele><time>2026-03-02T12:17:43.000Z</time></trkpt>
<trkpt lat="42.211369" lon="23.387837"><ele>1728.1</ele><time>2026-03-02T12:17:44.000Z</time></trkpt>
<trkpt lat="42.211368" lon="23.387837"><ele>1728.1</ele><time>2026-03-02T12:17:45.000Z</time></trkpt>
<trkpt lat="42.211368" lon="23.387837"><ele>1728.1</ele><time>2026-03-02T12:17:46.000Z</time></trkpt>
<trkpt lat="42.211368" lon="23.387837"><ele>1728.1</ele><time>2026-03-02T12:17:47.000Z</time></trkpt>
<trkpt lat="42.211367" lon="23.387837"><ele>1728.1</ele><time>2026-03-02T12:17:48.000Z</time></trkpt>
<trkpt lat="42.211367" lon="23.387837"><ele>1728.1</ele><time>2026-03-02T12:17:49.000Z</time></trkpt>
<trkpt lat="42.211367" lon="23.387837"><ele>1728</ele><time>2026-03-02T12:17:50.000Z</time></trkpt>
<trkpt lat="42.211367" lon="23.387837"><ele>1728</ele><time>2026-03-02T12:17:51.000Z</time></trkpt>
<trkpt lat="42.211367" lon="23.387837"><ele>1728</ele><time>2026-03-02T12:17:52.000Z</time></trkpt>
<trkpt lat="42.211367" lon="23.387837"><ele>1728</ele><time>2026-03-02T12:17:53.000Z</time></trkpt>
<trkpt lat="42.211367" lon="23.387837"><ele>1728</ele><time>2026-03-02T12:17:54.000Z</time></trkpt>
<trkpt lat="42.211367" lon="23.387837"><ele>1728</ele><time>2026-03-02T12:17:55.000Z</time></trkpt>
<trkpt lat="42.211367" lon="23.387837"><ele>1728</ele><time>2026-03-02T12:17:56.000Z</time></trkpt>
<trkpt lat="42.211367" lon="23.387838"><ele>1728</ele><time>2026-03-02T12:17:57.000Z</time></trkpt>
<trkpt lat="42.211366" lon="23.387839"><ele>1728</ele><time>2026-03-02T12:17:58.000Z</time></trkpt>
<trkpt lat="42.211366" lon="23.38784"><ele>1728</ele><time>2026-03-02T12:17:59.000Z</time></trkpt>
<trkpt lat="42.211366" lon="23.387841"><ele>1727.9</ele><time>2026-03-02T12:18:00.000Z</time></trkpt>
<trkpt lat="42.211365" lon="23.387842"><ele>1727.9</ele><time>2026-03-02T12:18:01.000Z</time></trkpt>
<trkpt lat="42.211365" lon="23.387842"><ele>1727.9</ele><time>2026-03-02T12:18:02.000Z</time></trkpt>
<trkpt lat="42.211365" lon="23.387842"><ele>1727.9</ele><time>2026-03-02T12:18:03.000Z</time></trkpt>
<trkpt lat="42.211364" lon="23.387842"><ele>1727.9</ele><time>2026-03-02T12:18:04.000Z</time></trkpt>
<trkpt lat="42.211364" lon="23.387841"><ele>1727.9</ele><time>2026-03-02T12:18:05.000Z</time></trkpt>
<trkpt lat="42.211364" lon="23.387841"><ele>1727.9</ele><time>2026-03-02T12:18:06.000Z</time></trkpt>
<trkpt lat="42.211363" lon="23.387841"><ele>1727.9</ele><time>2026-03-02T12:18:07.000Z</time></trkpt>
<trkpt lat="42.211363" lon="23.38784"><ele>1727.9</ele><time>2026-03-02T12:18:08.000Z</time></trkpt>
<trkpt lat="42.211361" lon="23.387841"><ele>1727.9</ele><time>2026-03-02T12:18:09.000Z</time></trkpt>
<trkpt lat="42.21136" lon="23.387841"><ele>1727.9</ele><time>2026-03-02T12:18:10.000Z</time></trkpt>
<trkpt lat="42.211358" lon="23.387839"><ele>1727.9</ele><time>2026-03-02T12:18:11.000Z</time></trkpt>
<trkpt lat="42.211356" lon="23.387839"><ele>1727.9</ele><time>2026-03-02T12:18:12.000Z</time></trkpt>
<trkpt lat="42.211355" lon="23.387839"><ele>1727.9</ele><time>2026-03-02T12:18:13.000Z</time></trkpt>
<trkpt lat="42.211355" lon="23.387838"><ele>1727.9</ele><time>2026-03-02T12:18:14.000Z</time></trkpt>
<trkpt lat="42.211356" lon="23.387838"><ele>1728</ele><time>2026-03-02T12:18:15.000Z</time></trkpt>
<trkpt lat="42.211357" lon="23.387838"><ele>1728</ele><time>2026-03-02T12:18:16.000Z</time></trkpt>
<trkpt lat="42.211359" lon="23.387838"><ele>1728</ele><time>2026-03-02T12:18:17.000Z</time></trkpt>
<trkpt lat="42.21136" lon="23.387838"><ele>1728</ele><time>2026-03-02T12:18:18.000Z</time></trkpt>
<trkpt lat="42.211361" lon="23.387839"><ele>1728</ele><time>2026-03-02T12:18:19.000Z</time></trkpt>
<trkpt lat="42.211362" lon="23.387839"><ele>1728.1</ele><time>2026-03-02T12:18:20.000Z</time></trkpt>
<trkpt lat="42.211362" lon="23.38784"><ele>1728.1</ele><time>2026-03-02T12:18:21.000Z</time></trkpt>
<trkpt lat="42.211363" lon="23.38784"><ele>1728.1</ele><time>2026-03-02T12:18:22.000Z</time></trkpt>
<trkpt lat="42.211364" lon="23.387839"><ele>1728.1</ele><time>2026-03-02T12:18:23.000Z</time></trkpt>
<trkpt lat="42.211366" lon="23.387839"><ele>1728.1</ele><time>2026-03-02T12:18:24.000Z</time></trkpt>
<trkpt lat="42.211367" lon="23.387838"><ele>1728.1</ele><time>2026-03-02T12:18:25.000Z</time></trkpt>
<trkpt lat="42.211369" lon="23.387838"><ele>1728.1</ele><time>2026-03-02T12:18:26.000Z</time></trkpt>
<trkpt lat="42.21137" lon="23.387838"><ele>1728.1</ele><time>2026-03-02T12:18:27.000Z</time></trkpt>
<trkpt lat="42.211371" lon="23.387839"><ele>1728.1</ele><time>2026-03-02T12:18:28.000Z</time></trkpt>
<trkpt lat="42.211371" lon="23.387839"><ele>1728.1</ele><time>2026-03-02T12:18:29.000Z</time></trkpt>
<trkpt lat="42.211372" lon="23.387839"><ele>1728</ele><time>2026-03-02T12:18:30.000Z</time></trkpt>
<trkpt lat="42.211373" lon="23.387839"><ele>1728</ele><time>2026-03-02T12:18:31.000Z</time></trkpt>
<trkpt lat="42.211374" lon="23.38784"><ele>1728</ele><time>2026-03-02T12:18:32.000Z</time></trkpt>
<trkpt lat="42.211374" lon="23.387841"><ele>1728</ele><time>2026-03-02T12:18:33.000Z</time></trkpt>
<trkpt lat="42.211373" lon="23.387844"><ele>1728</ele><time>2026-03-02T12:18:34.000Z</time></trkpt>
<trkpt lat="42.211371" lon="23.387847"><ele>1727.9</ele><time>2026-03-02T12:18:35.000Z</time></trkpt>
<trkpt lat="42.21137" lon="23.387849"><ele>1727.9</ele><time>2026-03-02T12:18:36.000Z</time></trkpt>
<trkpt lat="42.211368" lon="23.38785"><ele>1727.9</ele><time>2026-03-02T12:18:37.000Z</time></trkpt>
<trkpt lat="42.211368" lon="23.38785"><ele>1727.9</ele><time>2026-03-02T12:18:38.000Z</time></trkpt>
<trkpt lat="42.211367" lon="23.387849"><ele>1727.9</ele><time>2026-03-02T12:18:39.000Z</time></trkpt>
<trkpt lat="42.211366" lon="23.387849"><ele>1727.9</ele><time>2026-03-02T12:18:40.000Z</time></trkpt>
<trkpt lat="42.211365" lon="23.387849"><ele>1727.9</ele><time>2026-03-02T12:18:41.000Z</time></trkpt>
<trkpt lat="42.211365" lon="23.387849"><ele>1727.9</ele><time>2026-03-02T12:18:42.000Z</time></trkpt>
<trkpt lat="42.211364" lon="23.387849"><ele>1727.9</ele><time>2026-03-02T12:18:43.000Z</time></trkpt>
<trkpt lat="42.211363" lon="23.387849"><ele>1727.9</ele><time>2026-03-02T12:18:44.000Z</time></trkpt>
<trkpt lat="42.211362" lon="23.387848"><ele>1727.9</ele><time>2026-03-02T12:18:45.000Z</time></trkpt>
<trkpt lat="42.211362" lon="23.387848"><ele>1727.9</ele><time>2026-03-02T12:18:46.000Z</time></trkpt>
<trkpt lat="42.211362" lon="23.387847"><ele>1727.9</ele><time>2026-03-02T12:18:47.000Z</time></trkpt>
<trkpt lat="42.211362" lon="23.387846"><ele>1727.9</ele><time>2026-03-02T12:18:48.000Z</time></trkpt>
<trkpt lat="42.211363" lon="23.387845"><ele>1727.9</ele><time>2026-03-02T12:18:49.000Z</time></trkpt>
<trkpt lat="42.211363" lon="23.387843"><ele>1728.1</ele><time>2026-03-02T12:18:50.000Z</time></trkpt>
<trkpt lat="42.211362" lon="23.387843"><ele>1728.1</ele><time>2026-03-02T12:18:51.000Z</time></trkpt>
<trkpt lat="42.211361" lon="23.387842"><ele>1728.1</ele><time>2026-03-02T12:18:52.000Z</time></trkpt>
<trkpt lat="42.21136" lon="23.387842"><ele>1728.1</ele><time>2026-03-02T12:18:53.000Z</time></trkpt>
<trkpt lat="42.211359" lon="23.387842"><ele>1728.1</ele><time>2026-03-02T12:18:54.000Z</time></trkpt>
<trkpt lat="42.211359" lon="23.387842"><ele>1728.1</ele><time>2026-03-02T12:18:55.000Z</time></trkpt>
<trkpt lat="42.211358" lon="23.387842"><ele>1728.1</ele><time>2026-03-02T12:18:56.000Z</time></trkpt>
<trkpt lat="42.211358" lon="23.387842"><ele>1728.1</ele><time>2026-03-02T12:18:57.000Z</time></trkpt>
<trkpt lat="42.211358" lon="23.387842"><ele>1728.1</ele><time>2026-03-02T12:18:58.000Z</time></trkpt>
<trkpt lat="42.211358" lon="23.387842"><ele>1728.1</ele><time>2026-03-02T12:18:59.000Z</time></trkpt>
<trkpt lat="42.211358" lon="23.387842"><ele>1728.2</ele><time>2026-03-02T12:19:00.000Z</time></trkpt>
<trkpt lat="42.211357" lon="23.387841"><ele>1728.2</ele><time>2026-03-02T12:19:01.000Z</time></trkpt>
<trkpt lat="42.211356" lon="23.387841"><ele>1728.2</ele><time>2026-03-02T12:19:02.000Z</time></trkpt>
<trkpt lat="42.211355" lon="23.387841"><ele>1728.2</ele><time>2026-03-02T12:19:03.000Z</time></trkpt>
<trkpt lat="42.211354" lon="23.387841"><ele>1728.2</ele><time>2026-03-02T12:19:04.000Z</time></trkpt>
<trkpt lat="42.211354" lon="23.387841"><ele>1728.1</ele><time>2026-03-02T12:19:05.000Z</time></trkpt>
<trkpt lat="42.211353" lon="23.387841"><ele>1728.1</ele><time>2026-03-02T12:19:06.000Z</time></trkpt>
<trkpt lat="42.211353" lon="23.387841"><ele>1728.1</ele><time>2026-03-02T12:19:07.000Z</time></trkpt>
<trkpt lat="42.211353" lon="23.387841"><ele>1728.1</ele><time>2026-03-02T12:19:08.000Z</time></trkpt>
<trkpt lat="42.211353" lon="23.387841"><ele>1728.1</ele><time>2026-03-02T12:19:09.000Z</time></trkpt>
<trkpt lat="42.211353" lon="23.387841"><ele>1728.2</ele><time>2026-03-02T12:19:10.000Z</time></trkpt>
<trkpt lat="42.211353" lon="23.387841"><ele>1728.2</ele><time>2026-03-02T12:19:11.000Z</time></trkpt>
<trkpt lat="42.211352" lon="23.387841"><ele>1728.2</ele><time>2026-03-02T12:19:12.000Z</time></trkpt>
<trkpt lat="42.211352" lon="23.387841"><ele>1728.2</ele><time>2026-03-02T12:19:13.000Z</time></trkpt>
<trkpt lat="42.211352" lon="23.38784"><ele>1728.2</ele><time>2026-03-02T12:19:14.000Z</time></trkpt>
<trkpt lat="42.211352" lon="23.387841"><ele>1728.2</ele><time>2026-03-02T12:19:15.000Z</time></trkpt>
<trkpt lat="42.211351" lon="23.38784"><ele>1728.2</ele><time>2026-03-02T12:19:16.000Z</time></trkpt>
<trkpt lat="42.211352" lon="23.38784"><ele>1728.2</ele><time>2026-03-02T12:19:17.000Z</time></trkpt>
<trkpt lat="42.211352" lon="23.387839"><ele>1728.2</ele><time>2026-03-02T12:19:18.000Z</time></trkpt>
<trkpt lat="42.211352" lon="23.387839"><ele>1728.2</ele><time>2026-03-02T12:19:19.000Z</time></trkpt>
<trkpt lat="42.211352" lon="23.387839"><ele>1728</ele><time>2026-03-02T12:19:20.000Z</time></trkpt>
<trkpt lat="42.211352" lon="23.387839"><ele>1728</ele><time>2026-03-02T12:19:21.000Z</time></trkpt>
<trkpt lat="42.211352" lon="23.387841"><ele>1728</ele><time>2026-03-02T12:19:22.000Z</time></trkpt>
<trkpt lat="42.21135" lon="23.387842"><ele>1728</ele><time>2026-03-02T12:19:23.000Z</time></trkpt>
<trkpt lat="42.211348" lon="23.387844"><ele>1728</ele><time>2026-03-02T12:19:24.000Z</time></trkpt>
<trkpt lat="42.211346" lon="23.387845"><ele>1728</ele><time>2026-03-02T12:19:25.000Z</time></trkpt>
<trkpt lat="42.211344" lon="23.387844"><ele>1728</ele><time>2026-03-02T12:19:26.000Z</time></trkpt>
<trkpt lat="42.211343" lon="23.387843"><ele>1728</ele><time>2026-03-02T12:19:27.000Z</time></trkpt>
<trkpt lat="42.211343" lon="23.387841"><ele>1728</ele><time>2026-03-02T12:19:28.000Z</time></trkpt>
<trkpt lat="42.211344" lon="23.38784"><ele>1728</ele><time>2026-03-02T12:19:29.000Z</time></trkpt>
<trkpt lat="42.211346" lon="23.387839"><ele>1727.9</ele><time>2026-03-02T12:19:30.000Z</time></trkpt>
<trkpt lat="42.211347" lon="23.387839"><ele>1727.9</ele><time>2026-03-02T12:19:31.000Z</time></trkpt>
<trkpt lat="42.211347" lon="23.38784"><ele>1727.9</ele><time>2026-03-02T12:19:32.000Z</time></trkpt>
<trkpt lat="42.211348" lon="23.387839"><ele>1727.9</ele><time>2026-03-02T12:19:33.000Z</time></trkpt>
<trkpt lat="42.21135" lon="23.387837"><ele>1727.9</ele><time>2026-03-02T12:19:34.000Z</time></trkpt>
<trkpt lat="42.211352" lon="23.387835"><ele>1728</ele><time>2026-03-02T12:19:35.000Z</time></trkpt>
<trkpt lat="42.211354" lon="23.387831"><ele>1728</ele><time>2026-03-02T12:19:36.000Z</time></trkpt>
<trkpt lat="42.211357" lon="23.387827"><ele>1728</ele><time>2026-03-02T12:19:37.000Z</time></trkpt>
<trkpt lat="42.21136" lon="23.387824"><ele>1728</ele><time>2026-03-02T12:19:38.000Z</time></trkpt>
<trkpt lat="42.211362" lon="23.387823"><ele>1728</ele><time>2026-03-02T12:19:39.000Z</time></trkpt>
<trkpt lat="42.211364" lon="23.387824"><ele>1728</ele><time>2026-03-02T12:19:40.000Z</time></trkpt>
<trkpt lat="42.211367" lon="23.387826"><ele>1728</ele><time>2026-03-02T12:19:41.000Z</time></trkpt>
<trkpt lat="42.211368" lon="23.387828"><ele>1728</ele><time>2026-03-02T12:19:42.000Z</time></trkpt>
<trkpt lat="42.211369" lon="23.387831"><ele>1728</ele><time>2026-03-02T12:19:43.000Z</time></trkpt>
<trkpt lat="42.21137" lon="23.387833"><ele>1728</ele><time>2026-03-02T12:19:44.000Z</time></trkpt>
<trkpt lat="42.21137" lon="23.387837"><ele>1728.1</ele><time>2026-03-02T12:19:45.000Z</time></trkpt>
<trkpt lat="42.211369" lon="23.387841"><ele>1728.1</ele><time>2026-03-02T12:19:46.000Z</time></trkpt>
<trkpt lat="42.211369" lon="23.387845"><ele>1728.1</ele><time>2026-03-02T12:19:47.000Z</time></trkpt>
<trkpt lat="42.211368" lon="23.38785"><ele>1728.1</ele><time>2026-03-02T12:19:48.000Z</time></trkpt>
<trkpt lat="42.211367" lon="23.387855"><ele>1728.1</ele><time>2026-03-02T12:19:49.000Z</time></trkpt>
<trkpt lat="42.211367" lon="23.387858"><ele>1728.2</ele><time>2026-03-02T12:19:50.000Z</time></trkpt>
<trkpt lat="42.211367" lon="23.38786"><ele>1728.2</ele><time>2026-03-02T12:19:51.000Z</time></trkpt>
<trkpt lat="42.211367" lon="23.387861"><ele>1728.2</ele><time>2026-03-02T12:19:52.000Z</time></trkpt>
<trkpt lat="42.211366" lon="23.387862"><ele>1728.2</ele><time>2026-03-02T12:19:53.000Z</time></trkpt>
<trkpt lat="42.211364" lon="23.387863"><ele>1728.2</ele><time>2026-03-02T12:19:54.000Z</time></trkpt>
<trkpt lat="42.211362" lon="23.387864"><ele>1728.3</ele><time>2026-03-02T12:19:55.000Z</time></trkpt>
<trkpt lat="42.21136" lon="23.387864"><ele>1728.3</ele><time>2026-03-02T12:19:56.000Z</time></trkpt>
<trkpt lat="42.211357" lon="23.387863"><ele>1728.3</ele><time>2026-03-02T12:19:57.000Z</time></trkpt>
<trkpt lat="42.211356" lon="23.38786"><ele>1728.3</ele><time>2026-03-02T12:19:58.000Z</time></trkpt>
<trkpt lat="42.211357" lon="23.387856"><ele>1728.3</ele><time>2026-03-02T12:19:59.000Z</time></trkpt>
<trkpt lat="42.211357" lon="23.387852"><ele>1728.5</ele><time>2026-03-02T12:20:00.000Z</time></trkpt>
<trkpt lat="42.211359" lon="23.387848"><ele>1728.5</ele><time>2026-03-02T12:20:01.000Z</time></trkpt>
<trkpt lat="42.211361" lon="23.387845"><ele>1728.5</ele><time>2026-03-02T12:20:02.000Z</time></trkpt>
<trkpt lat="42.211362" lon="23.387844"><ele>1728.5</ele><time>2026-03-02T12:20:03.000Z</time></trkpt>
<trkpt lat="42.211363" lon="23.387842"><ele>1728.5</ele><time>2026-03-02T12:20:04.000Z</time></trkpt>
<trkpt lat="42.211364" lon="23.38784"><ele>1728.6</ele><time>2026-03-02T12:20:05.000Z</time></trkpt>
<trkpt lat="42.211365" lon="23.387838"><ele>1728.6</ele><time>2026-03-02T12:20:06.000Z</time></trkpt>
<trkpt lat="42.211366" lon="23.387836"><ele>1728.6</ele><time>2026-03-02T12:20:07.000Z</time></trkpt>
<trkpt lat="42.211366" lon="23.387836"><ele>1728.6</ele><time>2026-03-02T12:20:08.000Z</time></trkpt>
<trkpt lat="42.211367" lon="23.387836"><ele>1728.6</ele><time>2026-03-02T12:20:09.000Z</time></trkpt>
<trkpt lat="42.211367" lon="23.387837"><ele>1728.7</ele><time>2026-03-02T12:20:10.000Z</time></trkpt>
<trkpt lat="42.211367" lon="23.387838"><ele>1728.7</ele><time>2026-03-02T12:20:11.000Z</time></trkpt>
<trkpt lat="42.211367" lon="23.38784"><ele>1728.7</ele><time>2026-03-02T12:20:12.000Z</time></trkpt>
<trkpt lat="42.211367" lon="23.387841"><ele>1728.7</ele><time>2026-03-02T12:20:13.000Z</time></trkpt>
<trkpt lat="42.211368" lon="23.387842"><ele>1728.7</ele><time>2026-03-02T12:20:14.000Z</time></trkpt>
<trkpt lat="42.211367" lon="23.387842"><ele>1728.6</ele><time>2026-03-02T12:20:15.000Z</time></trkpt>
<trkpt lat="42.211367" lon="23.387842"><ele>1728.6</ele><time>2026-03-02T12:20:16.000Z</time></trkpt>
<trkpt lat="42.211367" lon="23.387841"><ele>1728.6</ele><time>2026-03-02T12:20:17.000Z</time></trkpt>
<trkpt lat="42.211367" lon="23.387841"><ele>1728.6</ele><time>2026-03-02T12:20:18.000Z</time></trkpt>
<trkpt lat="42.211366" lon="23.38784"><ele>1728.6</ele><time>2026-03-02T12:20:19.000Z</time></trkpt>
<trkpt lat="42.211367" lon="23.38784"><ele>1728.6</ele><time>2026-03-02T12:20:20.000Z</time></trkpt>
<trkpt lat="42.211367" lon="23.387841"><ele>1728.6</ele><time>2026-03-02T12:20:21.000Z</time></trkpt>
<trkpt lat="42.211367" lon="23.387841"><ele>1728.6</ele><time>2026-03-02T12:20:22.000Z</time></trkpt>
<trkpt lat="42.211368" lon="23.38784"><ele>1728.6</ele><time>2026-03-02T12:20:23.000Z</time></trkpt>
<trkpt lat="42.211368" lon="23.387839"><ele>1728.6</ele><time>2026-03-02T12:20:24.000Z</time></trkpt>
<trkpt lat="42.211369" lon="23.387838"><ele>1728.7</ele><time>2026-03-02T12:20:25.000Z</time></trkpt>
<trkpt lat="42.211369" lon="23.387836"><ele>1728.7</ele><time>2026-03-02T12:20:26.000Z</time></trkpt>
<trkpt lat="42.21137" lon="23.387835"><ele>1728.7</ele><time>2026-03-02T12:20:27.000Z</time></trkpt>
<trkpt lat="42.21137" lon="23.387833"><ele>1728.7</ele><time>2026-03-02T12:20:28.000Z</time></trkpt>
<trkpt lat="42.21137" lon="23.387833"><ele>1728.7</ele><time>2026-03-02T12:20:29.000Z</time></trkpt>
<trkpt lat="42.211368" lon="23.387834"><ele>1728.6</ele><time>2026-03-02T12:20:30.000Z</time></trkpt>
<trkpt lat="42.211367" lon="23.387836"><ele>1728.6</ele><time>2026-03-02T12:20:31.000Z</time></trkpt>
<trkpt lat="42.211366" lon="23.38784"><ele>1728.6</ele><time>2026-03-02T12:20:32.000Z</time></trkpt>
<trkpt lat="42.211364" lon="23.387843"><ele>1728.6</ele><time>2026-03-02T12:20:33.000Z</time></trkpt>
<trkpt lat="42.211363" lon="23.387846"><ele>1728.6</ele><time>2026-03-02T12:20:34.000Z</time></trkpt>
<trkpt lat="42.211363" lon="23.387847"><ele>1728.6</ele><time>2026-03-02T12:20:35.000Z</time></trkpt>
<trkpt lat="42.211362" lon="23.387847"><ele>1728.6</ele><time>2026-03-02T12:20:36.000Z</time></trkpt>
<trkpt lat="42.211361" lon="23.387847"><ele>1728.6</ele><time>2026-03-02T12:20:37.000Z</time></trkpt>
<trkpt lat="42.21136" lon="23.387848"><ele>1728.6</ele><time>2026-03-02T12:20:38.000Z</time></trkpt>
<trkpt lat="42.21136" lon="23.387849"><ele>1728.6</ele><time>2026-03-02T12:20:39.000Z</time></trkpt>
<trkpt lat="42.21136" lon="23.38785"><ele>1728.6</ele><time>2026-03-02T12:20:40.000Z</time></trkpt>
<trkpt lat="42.21136" lon="23.387852"><ele>1728.6</ele><time>2026-03-02T12:20:41.000Z</time></trkpt>
<trkpt lat="42.211361" lon="23.387853"><ele>1728.6</ele><time>2026-03-02T12:20:42.000Z</time></trkpt>
<trkpt lat="42.211361" lon="23.387855"><ele>1728.6</ele><time>2026-03-02T12:20:43.000Z</time></trkpt>
<trkpt lat="42.211361" lon="23.387856"><ele>1728.6</ele><time>2026-03-02T12:20:44.000Z</time></trkpt>
<trkpt lat="42.21136" lon="23.387858"><ele>1728.8</ele><time>2026-03-02T12:20:45.000Z</time></trkpt>
<trkpt lat="42.21136" lon="23.38786"><ele>1728.8</ele><time>2026-03-02T12:20:46.000Z</time></trkpt>
<trkpt lat="42.21136" lon="23.387861"><ele>1728.8</ele><time>2026-03-02T12:20:47.000Z</time></trkpt>
<trkpt lat="42.211359" lon="23.387861"><ele>1728.8</ele><time>2026-03-02T12:20:48.000Z</time></trkpt>
<trkpt lat="42.21136" lon="23.387861"><ele>1728.8</ele><time>2026-03-02T12:20:49.000Z</time></trkpt>
<trkpt lat="42.21136" lon="23.387861"><ele>1728.9</ele><time>2026-03-02T12:20:50.000Z</time></trkpt>
<trkpt lat="42.21136" lon="23.387862"><ele>1728.9</ele><time>2026-03-02T12:20:51.000Z</time></trkpt>
<trkpt lat="42.21136" lon="23.387863"><ele>1728.9</ele><time>2026-03-02T12:20:52.000Z</time></trkpt>
<trkpt lat="42.211361" lon="23.387863"><ele>1728.9</ele><time>2026-03-02T12:20:53.000Z</time></trkpt>
<trkpt lat="42.211361" lon="23.387863"><ele>1728.9</ele><time>2026-03-02T12:20:54.000Z</time></trkpt>
<trkpt lat="42.211361" lon="23.387864"><ele>1728.9</ele><time>2026-03-02T12:20:55.000Z</time></trkpt>
<trkpt lat="42.211361" lon="23.387865"><ele>1728.9</ele><time>2026-03-02T12:20:56.000Z</time></trkpt>
<trkpt lat="42.211359" lon="23.387867"><ele>1728.9</ele><time>2026-03-02T12:20:57.000Z</time></trkpt>
<trkpt lat="42.211358" lon="23.387868"><ele>1728.9</ele><time>2026-03-02T12:20:58.000Z</time></trkpt>
<trkpt lat="42.211355" lon="23.38787"><ele>1728.9</ele><time>2026-03-02T12:20:59.000Z</time></trkpt>
<trkpt lat="42.211352" lon="23.387872"><ele>1728.8</ele><time>2026-03-02T12:21:00.000Z</time></trkpt>
<trkpt lat="42.211349" lon="23.387874"><ele>1728.8</ele><time>2026-03-02T12:21:01.000Z</time></trkpt>
<trkpt lat="42.211347" lon="23.387875"><ele>1728.8</ele><time>2026-03-02T12:21:02.000Z</time></trkpt>
<trkpt lat="42.211344" lon="23.387877"><ele>1728.8</ele><time>2026-03-02T12:21:03.000Z</time></trkpt>
<trkpt lat="42.211343" lon="23.387877"><ele>1728.8</ele><time>2026-03-02T12:21:04.000Z</time></trkpt>
<trkpt lat="42.211342" lon="23.387878"><ele>1728.5</ele><time>2026-03-02T12:21:05.000Z</time></trkpt>
<trkpt lat="42.211341" lon="23.387878"><ele>1728.5</ele><time>2026-03-02T12:21:06.000Z</time></trkpt>
<trkpt lat="42.211339" lon="23.387879"><ele>1728.5</ele><time>2026-03-02T12:21:07.000Z</time></trkpt>
<trkpt lat="42.211338" lon="23.38788"><ele>1728.5</ele><time>2026-03-02T12:21:08.000Z</time></trkpt>
<trkpt lat="42.211335" lon="23.387882"><ele>1728.5</ele><time>2026-03-02T12:21:09.000Z</time></trkpt>
<trkpt lat="42.211333" lon="23.387883"><ele>1728.5</ele><time>2026-03-02T12:21:10.000Z</time></trkpt>
<trkpt lat="42.211332" lon="23.387884"><ele>1728.5</ele><time>2026-03-02T12:21:11.000Z</time></trkpt>
<trkpt lat="42.211332" lon="23.387884"><ele>1728.5</ele><time>2026-03-02T12:21:12.000Z</time></trkpt>
<trkpt lat="42.211332" lon="23.387884"><ele>1728.5</ele><time>2026-03-02T12:21:13.000Z</time></trkpt>
<trkpt lat="42.211333" lon="23.387884"><ele>1728.5</ele><time>2026-03-02T12:21:14.000Z</time></trkpt>
<trkpt lat="42.211333" lon="23.387884"><ele>1728.5</ele><time>2026-03-02T12:21:15.000Z</time></trkpt>
<trkpt lat="42.211333" lon="23.387884"><ele>1728.5</ele><time>2026-03-02T12:21:16.000Z</time></trkpt>
<trkpt lat="42.211332" lon="23.387883"><ele>1728.5</ele><time>2026-03-02T12:21:17.000Z</time></trkpt>
<trkpt lat="42.211331" lon="23.387882"><ele>1728.5</ele><time>2026-03-02T12:21:18.000Z</time></trkpt>
<trkpt lat="42.21133" lon="23.387881"><ele>1728.5</ele><time>2026-03-02T12:21:19.000Z</time></trkpt>
<trkpt lat="42.211329" lon="23.38788"><ele>1728.3</ele><time>2026-03-02T12:21:20.000Z</time></trkpt>
<trkpt lat="42.211328" lon="23.387879"><ele>1728.3</ele><time>2026-03-02T12:21:21.000Z</time></trkpt>
<trkpt lat="42.211327" lon="23.387878"><ele>1728.3</ele><time>2026-03-02T12:21:22.000Z</time></trkpt>
<trkpt lat="42.211326" lon="23.387879"><ele>1728.3</ele><time>2026-03-02T12:21:23.000Z</time></trkpt>
<trkpt lat="42.211326" lon="23.387879"><ele>1728.3</ele><time>2026-03-02T12:21:24.000Z</time></trkpt>
<trkpt lat="42.211326" lon="23.38788"><ele>1728.1</ele><time>2026-03-02T12:21:25.000Z</time></trkpt>
<trkpt lat="42.211327" lon="23.387881"><ele>1728.1</ele><time>2026-03-02T12:21:26.000Z</time></trkpt>
<trkpt lat="42.211327" lon="23.387884"><ele>1728.1</ele><time>2026-03-02T12:21:27.000Z</time></trkpt>
<trkpt lat="42.211326" lon="23.387886"><ele>1728.1</ele><time>2026-03-02T12:21:28.000Z</time></trkpt>
<trkpt lat="42.211326" lon="23.387888"><ele>1728.1</ele><time>2026-03-02T12:21:29.000Z</time></trkpt>
<trkpt lat="42.211324" lon="23.38789"><ele>1727.6</ele><time>2026-03-02T12:21:30.000Z</time></trkpt>
<trkpt lat="42.211322" lon="23.38789"><ele>1727.6</ele><time>2026-03-02T12:21:31.000Z</time></trkpt>
<trkpt lat="42.211322" lon="23.387889"><ele>1727.6</ele><time>2026-03-02T12:21:32.000Z</time></trkpt>
<trkpt lat="42.211321" lon="23.387888"><ele>1727.6</ele><time>2026-03-02T12:21:33.000Z</time></trkpt>
<trkpt lat="42.211321" lon="23.387887"><ele>1727.6</ele><time>2026-03-02T12:21:34.000Z</time></trkpt>
<trkpt lat="42.211322" lon="23.387886"><ele>1727.4</ele><time>2026-03-02T12:21:35.000Z</time></trkpt>
<trkpt lat="42.211323" lon="23.387885"><ele>1727.4</ele><time>2026-03-02T12:21:36.000Z</time></trkpt>
<trkpt lat="42.211323" lon="23.387885"><ele>1727.4</ele><time>2026-03-02T12:21:37.000Z</time></trkpt>
<trkpt lat="42.211324" lon="23.387885"><ele>1727.4</ele><time>2026-03-02T12:21:38.000Z</time></trkpt>
<trkpt lat="42.211324" lon="23.387885"><ele>1727.4</ele><time>2026-03-02T12:21:39.000Z</time></trkpt>
<trkpt lat="42.211323" lon="23.387883"><ele>1727.3</ele><time>2026-03-02T12:21:40.000Z</time></trkpt>
<trkpt lat="42.211323" lon="23.387882"><ele>1727.3</ele><time>2026-03-02T12:21:41.000Z</time></trkpt>
<trkpt lat="42.211323" lon="23.38788"><ele>1727.3</ele><time>2026-03-02T12:21:42.000Z</time></trkpt>
<trkpt lat="42.211323" lon="23.387878"><ele>1727.3</ele><time>2026-03-02T12:21:43.000Z</time></trkpt>
<trkpt lat="42.211323" lon="23.387876"><ele>1727.3</ele><time>2026-03-02T12:21:44.000Z</time></trkpt>
<trkpt lat="42.211323" lon="23.387875"><ele>1727.2</ele><time>2026-03-02T12:21:45.000Z</time></trkpt>
<trkpt lat="42.211323" lon="23.387875"><ele>1727.2</ele><time>2026-03-02T12:21:46.000Z</time></trkpt>
<trkpt lat="42.211323" lon="23.387875"><ele>1727.2</ele><time>2026-03-02T12:21:47.000Z</time></trkpt>
<trkpt lat="42.211323" lon="23.387875"><ele>1727.2</ele><time>2026-03-02T12:21:48.000Z</time></trkpt>
<trkpt lat="42.211323" lon="23.387875"><ele>1727.2</ele><time>2026-03-02T12:21:49.000Z</time></trkpt>
<trkpt lat="42.211322" lon="23.387873"><ele>1727.1</ele><time>2026-03-02T12:21:50.000Z</time></trkpt>
<trkpt lat="42.211321" lon="23.387872"><ele>1727.1</ele><time>2026-03-02T12:21:51.000Z</time></trkpt>
<trkpt lat="42.21132" lon="23.38787"><ele>1727.1</ele><time>2026-03-02T12:21:52.000Z</time></trkpt>
<trkpt lat="42.211318" lon="23.387868"><ele>1727.1</ele><time>2026-03-02T12:21:53.000Z</time></trkpt>
<trkpt lat="42.211317" lon="23.387866"><ele>1727.1</ele><time>2026-03-02T12:21:54.000Z</time></trkpt>
<trkpt lat="42.211316" lon="23.387865"><ele>1727.1</ele><time>2026-03-02T12:21:55.000Z</time></trkpt>
<trkpt lat="42.211316" lon="23.387865"><ele>1727.1</ele><time>2026-03-02T12:21:56.000Z</time></trkpt>
<trkpt lat="42.211316" lon="23.387865"><ele>1727.1</ele><time>2026-03-02T12:21:57.000Z</time></trkpt>
<trkpt lat="42.211316" lon="23.387865"><ele>1727.1</ele><time>2026-03-02T12:21:58.000Z</time></trkpt>
<trkpt lat="42.211316" lon="23.387865"><ele>1727.1</ele><time>2026-03-02T12:21:59.000Z</time></trkpt>
<trkpt lat="42.211316" lon="23.387865"><ele>1727</ele><time>2026-03-02T12:22:00.000Z</time></trkpt>
<trkpt lat="42.211316" lon="23.387865"><ele>1727</ele><time>2026-03-02T12:22:01.000Z</time></trkpt>
<trkpt lat="42.211316" lon="23.387865"><ele>1727</ele><time>2026-03-02T12:22:02.000Z</time></trkpt>
<trkpt lat="42.211316" lon="23.387865"><ele>1727</ele><time>2026-03-02T12:22:03.000Z</time></trkpt>
<trkpt lat="42.211316" lon="23.387865"><ele>1727</ele><time>2026-03-02T12:22:04.000Z</time></trkpt>
<trkpt lat="42.211316" lon="23.387865"><ele>1727</ele><time>2026-03-02T12:22:05.000Z</time></trkpt>
<trkpt lat="42.211316" lon="23.387865"><ele>1727</ele><time>2026-03-02T12:22:06.000Z</time></trkpt>
<trkpt lat="42.211316" lon="23.387865"><ele>1727</ele><time>2026-03-02T12:22:07.000Z</time></trkpt>
<trkpt lat="42.211316" lon="23.387865"><ele>1727</ele><time>2026-03-02T12:22:08.000Z</time></trkpt>
<trkpt lat="42.211316" lon="23.387865"><ele>1727</ele><time>2026-03-02T12:22:09.000Z</time></trkpt>
<trkpt lat="42.211316" lon="23.387865"><ele>1727</ele><time>2026-03-02T12:22:10.000Z</time></trkpt>
<trkpt lat="42.211316" lon="23.387865"><ele>1727</ele><time>2026-03-02T12:22:11.000Z</time></trkpt>
<trkpt lat="42.211316" lon="23.387865"><ele>1727</ele><time>2026-03-02T12:22:12.000Z</time></trkpt>
<trkpt lat="42.211316" lon="23.387865"><ele>1727</ele><time>2026-03-02T12:22:13.000Z</time></trkpt>
<trkpt lat="42.211316" lon="23.387865"><ele>1727</ele><time>2026-03-02T12:22:14.000Z</time></trkpt>
<trkpt lat="42.211316" lon="23.387865"><ele>1726.9</ele><time>2026-03-02T12:22:15.000Z</time></trkpt>
<trkpt lat="42.211316" lon="23.387865"><ele>1726.9</ele><time>2026-03-02T12:22:16.000Z</time></trkpt>
<trkpt lat="42.211316" lon="23.387865"><ele>1726.9</ele><time>2026-03-02T12:22:17.000Z</time></trkpt>
<trkpt lat="42.211317" lon="23.387865"><ele>1726.9</ele><time>2026-03-02T12:22:18.000Z</time></trkpt>
<trkpt lat="42.211317" lon="23.387866"><ele>1726.9</ele><time>2026-03-02T12:22:19.000Z</time></trkpt>
<trkpt lat="42.211317" lon="23.387866"><ele>1726.8</ele><time>2026-03-02T12:22:20.000Z</time></trkpt>
<trkpt lat="42.211317" lon="23.387866"><ele>1726.8</ele><time>2026-03-02T12:22:21.000Z</time></trkpt>
<trkpt lat="42.211317" lon="23.387867"><ele>1726.8</ele><time>2026-03-02T12:22:22.000Z</time></trkpt>
<trkpt lat="42.211317" lon="23.387867"><ele>1726.8</ele><time>2026-03-02T12:22:23.000Z</time></trkpt>
<trkpt lat="42.211317" lon="23.387867"><ele>1726.8</ele><time>2026-03-02T12:22:24.000Z</time></trkpt>
<trkpt lat="42.211317" lon="23.387867"><ele>1726.8</ele><time>2026-03-02T12:22:25.000Z</time></trkpt>
<trkpt lat="42.211317" lon="23.387868"><ele>1726.8</ele><time>2026-03-02T12:22:26.000Z</time></trkpt>
<trkpt lat="42.211316" lon="23.387868"><ele>1726.8</ele><time>2026-03-02T12:22:27.000Z</time></trkpt>
<trkpt lat="42.211316" lon="23.387868"><ele>1726.8</ele><time>2026-03-02T12:22:28.000Z</time></trkpt>
<trkpt lat="42.211316" lon="23.387869"><ele>1726.8</ele><time>2026-03-02T12:22:29.000Z</time></trkpt>
<trkpt lat="42.211316" lon="23.387869"><ele>1726.7</ele><time>2026-03-02T12:22:30.000Z</time></trkpt>
<trkpt lat="42.211316" lon="23.38787"><ele>1726.7</ele><time>2026-03-02T12:22:31.000Z</time></trkpt>
<trkpt lat="42.211317" lon="23.387871"><ele>1726.7</ele><time>2026-03-02T12:22:32.000Z</time></trkpt>
<trkpt lat="42.211317" lon="23.387871"><ele>1726.7</ele><time>2026-03-02T12:22:33.000Z</time></trkpt>
<trkpt lat="42.211317" lon="23.387871"><ele>1726.7</ele><time>2026-03-02T12:22:34.000Z</time></trkpt>
<trkpt lat="42.211317" lon="23.387873"><ele>1726.7</ele><time>2026-03-02T12:22:35.000Z</time></trkpt>
<trkpt lat="42.211316" lon="23.387874"><ele>1726.7</ele><time>2026-03-02T12:22:36.000Z</time></trkpt>
<trkpt lat="42.211316" lon="23.387875"><ele>1726.7</ele><time>2026-03-02T12:22:37.000Z</time></trkpt>
<trkpt lat="42.211315" lon="23.387876"><ele>1726.7</ele><time>2026-03-02T12:22:38.000Z</time></trkpt>
<trkpt lat="42.211315" lon="23.387877"><ele>1726.7</ele><time>2026-03-02T12:22:39.000Z</time></trkpt>
<trkpt lat="42.211315" lon="23.387877"><ele>1726.8</ele><time>2026-03-02T12:22:40.000Z</time></trkpt>
<trkpt lat="42.211316" lon="23.387876"><ele>1726.8</ele><time>2026-03-02T12:22:41.000Z</time></trkpt>
<trkpt lat="42.211316" lon="23.387875"><ele>1726.8</ele><time>2026-03-02T12:22:42.000Z</time></trkpt>
<trkpt lat="42.211316" lon="23.387874"><ele>1726.8</ele><time>2026-03-02T12:22:43.000Z</time></trkpt>
<trkpt lat="42.211317" lon="23.387873"><ele>1726.8</ele><time>2026-03-02T12:22:44.000Z</time></trkpt>
<trkpt lat="42.211317" lon="23.387873"><ele>1726.9</ele><time>2026-03-02T12:22:45.000Z</time></trkpt>
<trkpt lat="42.211317" lon="23.387872"><ele>1726.9</ele><time>2026-03-02T12:22:46.000Z</time></trkpt>
<trkpt lat="42.211318" lon="23.387871"><ele>1726.9</ele><time>2026-03-02T12:22:47.000Z</time></trkpt>
<trkpt lat="42.21132" lon="23.387871"><ele>1726.9</ele><time>2026-03-02T12:22:48.000Z</time></trkpt>
<trkpt lat="42.211321" lon="23.387871"><ele>1726.9</ele><time>2026-03-02T12:22:49.000Z</time></trkpt>
<trkpt lat="42.211322" lon="23.387871"><ele>1727.1</ele><time>2026-03-02T12:22:50.000Z</time></trkpt>
<trkpt lat="42.211323" lon="23.387871"><ele>1727.1</ele><time>2026-03-02T12:22:51.000Z</time></trkpt>
<trkpt lat="42.211324" lon="23.387872"><ele>1727.1</ele><time>2026-03-02T12:22:52.000Z</time></trkpt>
<trkpt lat="42.211325" lon="23.387872"><ele>1727.1</ele><time>2026-03-02T12:22:53.000Z</time></trkpt>
<trkpt lat="42.211326" lon="23.387873"><ele>1727.1</ele><time>2026-03-02T12:22:54.000Z</time></trkpt>
<trkpt lat="42.211326" lon="23.387873"><ele>1727.1</ele><time>2026-03-02T12:22:55.000Z</time></trkpt>
<trkpt lat="42.211327" lon="23.387874"><ele>1727.1</ele><time>2026-03-02T12:22:56.000Z</time></trkpt>
<trkpt lat="42.211327" lon="23.387874"><ele>1727.1</ele><time>2026-03-02T12:22:57.000Z</time></trkpt>
<trkpt lat="42.211327" lon="23.387874"><ele>1727.1</ele><time>2026-03-02T12:22:58.000Z</time></trkpt>
<trkpt lat="42.211327" lon="23.387874"><ele>1727.1</ele><time>2026-03-02T12:22:59.000Z</time></trkpt>
<trkpt lat="42.211327" lon="23.387874"><ele>1726.9</ele><time>2026-03-02T12:23:00.000Z</time></trkpt>
<trkpt lat="42.211328" lon="23.387873"><ele>1726.9</ele><time>2026-03-02T12:23:01.000Z</time></trkpt>
<trkpt lat="42.211331" lon="23.387873"><ele>1726.9</ele><time>2026-03-02T12:23:02.000Z</time></trkpt>
<trkpt lat="42.211334" lon="23.387872"><ele>1726.9</ele><time>2026-03-02T12:23:03.000Z</time></trkpt>
<trkpt lat="42.211337" lon="23.38787"><ele>1726.9</ele><time>2026-03-02T12:23:04.000Z</time></trkpt>
<trkpt lat="42.211342" lon="23.387869"><ele>1726.8</ele><time>2026-03-02T12:23:05.000Z</time></trkpt>
<trkpt lat="42.211345" lon="23.387869"><ele>1726.8</ele><time>2026-03-02T12:23:06.000Z</time></trkpt>
<trkpt lat="42.211348" lon="23.387869"><ele>1726.8</ele><time>2026-03-02T12:23:07.000Z</time></trkpt>
<trkpt lat="42.211351" lon="23.387869"><ele>1726.8</ele><time>2026-03-02T12:23:08.000Z</time></trkpt>
<trkpt lat="42.211355" lon="23.387869"><ele>1726.8</ele><time>2026-03-02T12:23:09.000Z</time></trkpt>
<trkpt lat="42.21136" lon="23.387867"><ele>1726.7</ele><time>2026-03-02T12:23:10.000Z</time></trkpt>
<trkpt lat="42.211363" lon="23.387865"><ele>1726.7</ele><time>2026-03-02T12:23:11.000Z</time></trkpt>
<trkpt lat="42.211367" lon="23.387862"><ele>1726.7</ele><time>2026-03-02T12:23:12.000Z</time></trkpt>
<trkpt lat="42.211369" lon="23.387861"><ele>1726.7</ele><time>2026-03-02T12:23:13.000Z</time></trkpt>
<trkpt lat="42.211368" lon="23.387864"><ele>1726.7</ele><time>2026-03-02T12:23:14.000Z</time></trkpt>
<trkpt lat="42.211368" lon="23.387871"><ele>1726.6</ele><time>2026-03-02T12:23:15.000Z</time></trkpt>
<trkpt lat="42.211368" lon="23.387881"><ele>1726.6</ele><time>2026-03-02T12:23:16.000Z</time></trkpt>
<trkpt lat="42.211369" lon="23.387895"><ele>1726.6</ele><time>2026-03-02T12:23:17.000Z</time></trkpt>
<trkpt lat="42.211373" lon="23.387912"><ele>1726.6</ele><time>2026-03-02T12:23:18.000Z</time></trkpt>
<trkpt lat="42.21138" lon="23.387929"><ele>1726.6</ele><time>2026-03-02T12:23:19.000Z</time></trkpt>
<trkpt lat="42.211389" lon="23.387943"><ele>1726.5</ele><time>2026-03-02T12:23:20.000Z</time></trkpt>
<trkpt lat="42.2114" lon="23.387955"><ele>1726.5</ele><time>2026-03-02T12:23:21.000Z</time></trkpt>
<trkpt lat="42.211411" lon="23.387962"><ele>1726.5</ele><time>2026-03-02T12:23:22.000Z</time></trkpt>
<trkpt lat="42.211422" lon="23.387963"><ele>1726.5</ele><time>2026-03-02T12:23:23.000Z</time></trkpt>
<trkpt lat="42.21143" lon="23.38796"><ele>1726.5</ele><time>2026-03-02T12:23:24.000Z</time></trkpt>
<trkpt lat="42.211435" lon="23.387956"><ele>1726.5</ele><time>2026-03-02T12:23:25.000Z</time></trkpt>
<trkpt lat="42.211438" lon="23.387952"><ele>1726.5</ele><time>2026-03-02T12:23:26.000Z</time></trkpt>
<trkpt lat="42.21144" lon="23.387949"><ele>1726.5</ele><time>2026-03-02T12:23:27.000Z</time></trkpt>
<trkpt lat="42.211441" lon="23.387947"><ele>1726.5</ele><time>2026-03-02T12:23:28.000Z</time></trkpt>
<trkpt lat="42.211441" lon="23.387947"><ele>1726.5</ele><time>2026-03-02T12:23:29.000Z</time></trkpt>
<trkpt lat="42.211442" lon="23.387947"><ele>1726.6</ele><time>2026-03-02T12:23:30.000Z</time></trkpt>
<trkpt lat="42.211442" lon="23.387947"><ele>1726.6</ele><time>2026-03-02T12:23:31.000Z</time></trkpt>
<trkpt lat="42.211442" lon="23.387947"><ele>1726.6</ele><time>2026-03-02T12:23:32.000Z</time></trkpt>
<trkpt lat="42.211442" lon="23.387947"><ele>1726.6</ele><time>2026-03-02T12:23:33.000Z</time></trkpt>
<trkpt lat="42.211442" lon="23.387947"><ele>1726.6</ele><time>2026-03-02T12:23:34.000Z</time></trkpt>
<trkpt lat="42.21144" lon="23.387947"><ele>1726.9</ele><time>2026-03-02T12:23:35.000Z</time></trkpt>
<trkpt lat="42.211436" lon="23.387948"><ele>1726.9</ele><time>2026-03-02T12:23:36.000Z</time></trkpt>
<trkpt lat="42.211431" lon="23.38795"><ele>1726.9</ele><time>2026-03-02T12:23:37.000Z</time></trkpt>
<trkpt lat="42.211424" lon="23.387953"><ele>1726.9</ele><time>2026-03-02T12:23:38.000Z</time></trkpt>
<trkpt lat="42.211416" lon="23.387958"><ele>1726.9</ele><time>2026-03-02T12:23:39.000Z</time></trkpt>
<trkpt lat="42.211411" lon="23.387962"><ele>1726.9</ele><time>2026-03-02T12:23:40.000Z</time></trkpt>
<trkpt lat="42.211406" lon="23.387964"><ele>1726.9</ele><time>2026-03-02T12:23:41.000Z</time></trkpt>
<trkpt lat="42.211403" lon="23.387965"><ele>1726.9</ele><time>2026-03-02T12:23:42.000Z</time></trkpt>
<trkpt lat="42.211401" lon="23.38796"><ele>1726.9</ele><time>2026-03-02T12:23:43.000Z</time></trkpt>
<trkpt lat="42.211399" lon="23.38795"><ele>1726.9</ele><time>2026-03-02T12:23:44.000Z</time></trkpt>
<trkpt lat="42.211396" lon="23.387935"><ele>1727</ele><time>2026-03-02T12:23:45.000Z</time></trkpt>
<trkpt lat="42.211391" lon="23.387913"><ele>1727</ele><time>2026-03-02T12:23:46.000Z</time></trkpt>
<trkpt lat="42.211386" lon="23.387884"><ele>1727</ele><time>2026-03-02T12:23:47.000Z</time></trkpt>
<trkpt lat="42.21138" lon="23.387851"><ele>1727</ele><time>2026-03-02T12:23:48.000Z</time></trkpt>
<trkpt lat="42.211374" lon="23.387812"><ele>1727</ele><time>2026-03-02T12:23:49.000Z</time></trkpt>
<trkpt lat="42.21137" lon="23.387768"><ele>1727.1</ele><time>2026-03-02T12:23:50.000Z</time></trkpt>
<trkpt lat="42.211367" lon="23.387721"><ele>1727.1</ele><time>2026-03-02T12:23:51.000Z</time></trkpt>
<trkpt lat="42.211364" lon="23.38767"><ele>1727.1</ele><time>2026-03-02T12:23:52.000Z</time></trkpt>
<trkpt lat="42.211364" lon="23.387616"><ele>1727.1</ele><time>2026-03-02T12:23:53.000Z</time></trkpt>
<trkpt lat="42.211365" lon="23.387562"><ele>1727.1</ele><time>2026-03-02T12:23:54.000Z</time></trkpt>
<trkpt lat="42.211368" lon="23.387509"><ele>1727.2</ele><time>2026-03-02T12:23:55.000Z</time></trkpt>
<trkpt lat="42.211372" lon="23.387458"><ele>1727.2</ele><time>2026-03-02T12:23:56.000Z</time></trkpt>
<trkpt lat="42.211379" lon="23.387407"><ele>1727.2</ele><time>2026-03-02T12:23:57.000Z</time></trkpt>
<trkpt lat="42.211387" lon="23.387357"><ele>1727.2</ele><time>2026-03-02T12:23:58.000Z</time></trkpt>
<trkpt lat="42.211398" lon="23.387307"><ele>1727.2</ele><time>2026-03-02T12:23:59.000Z</time></trkpt>
<trkpt lat="42.21141" lon="23.387255"><ele>1727.1</ele><time>2026-03-02T12:24:00.000Z</time></trkpt>
<trkpt lat="42.211425" lon="23.387203"><ele>1727.1</ele><time>2026-03-02T12:24:01.000Z</time></trkpt>
<trkpt lat="42.211441" lon="23.387151"><ele>1727.1</ele><time>2026-03-02T12:24:02.000Z</time></trkpt>
<trkpt lat="42.211459" lon="23.387102"><ele>1727.1</ele><time>2026-03-02T12:24:03.000Z</time></trkpt>
<trkpt lat="42.21148" lon="23.387055"><ele>1727.1</ele><time>2026-03-02T12:24:04.000Z</time></trkpt>
<trkpt lat="42.211502" lon="23.387012"><ele>1726.3</ele><time>2026-03-02T12:24:05.000Z</time></trkpt>
<trkpt lat="42.211524" lon="23.386972"><ele>1726.3</ele><time>2026-03-02T12:24:06.000Z</time></trkpt>
<trkpt lat="42.211546" lon="23.386933"><ele>1726.3</ele><time>2026-03-02T12:24:07.000Z</time></trkpt>
<trkpt lat="42.211566" lon="23.386896"><ele>1726.3</ele><time>2026-03-02T12:24:08.000Z</time></trkpt>
<trkpt lat="42.211584" lon="23.386863"><ele>1726.3</ele><time>2026-03-02T12:24:09.000Z</time></trkpt>
<trkpt lat="42.211602" lon="23.386831"><ele>1725.7</ele><time>2026-03-02T12:24:10.000Z</time></trkpt>
<trkpt lat="42.211619" lon="23.386802"><ele>1725.7</ele><time>2026-03-02T12:24:11.000Z</time></trkpt>
<trkpt lat="42.211636" lon="23.386774"><ele>1725.7</ele><time>2026-03-02T12:24:12.000Z</time></trkpt>
<trkpt lat="42.211655" lon="23.386746"><ele>1725.7</ele><time>2026-03-02T12:24:13.000Z</time></trkpt>
<trkpt lat="42.211674" lon="23.386718"><ele>1725.7</ele><time>2026-03-02T12:24:14.000Z</time></trkpt>
<trkpt lat="42.211692" lon="23.386693"><ele>1724.1</ele><time>2026-03-02T12:24:15.000Z</time></trkpt>
<trkpt lat="42.211709" lon="23.386671"><ele>1724.1</ele><time>2026-03-02T12:24:16.000Z</time></trkpt>
<trkpt lat="42.211723" lon="23.386653"><ele>1724.1</ele><time>2026-03-02T12:24:17.000Z</time></trkpt>
<trkpt lat="42.211733" lon="23.38664"><ele>1724.1</ele><time>2026-03-02T12:24:18.000Z</time></trkpt>
<trkpt lat="42.211741" lon="23.386629"><ele>1724.1</ele><time>2026-03-02T12:24:19.000Z</time></trkpt>
<trkpt lat="42.211749" lon="23.386619"><ele>1722.6</ele><time>2026-03-02T12:24:20.000Z</time></trkpt>
<trkpt lat="42.211757" lon="23.386608"><ele>1722.6</ele><time>2026-03-02T12:24:21.000Z</time></trkpt>
<trkpt lat="42.211767" lon="23.386593"><ele>1722.6</ele><time>2026-03-02T12:24:22.000Z</time></trkpt>
<trkpt lat="42.21178" lon="23.386573"><ele>1722.6</ele><time>2026-03-02T12:24:23.000Z</time></trkpt>
<trkpt lat="42.211798" lon="23.386546"><ele>1722.6</ele><time>2026-03-02T12:24:24.000Z</time></trkpt>
<trkpt lat="42.211823" lon="23.386512"><ele>1722</ele><time>2026-03-02T12:24:25.000Z</time></trkpt>
<trkpt lat="42.211855" lon="23.386472"><ele>1722</ele><time>2026-03-02T12:24:26.000Z</time></trkpt>
<trkpt lat="42.211891" lon="23.386428"><ele>1722</ele><time>2026-03-02T12:24:27.000Z</time></trkpt>
<trkpt lat="42.211933" lon="23.386381"><ele>1722</ele><time>2026-03-02T12:24:28.000Z</time></trkpt>
<trkpt lat="42.211975" lon="23.386333"><ele>1722</ele><time>2026-03-02T12:24:29.000Z</time></trkpt>
<trkpt lat="42.212018" lon="23.386284"><ele>1721.2</ele><time>2026-03-02T12:24:30.000Z</time></trkpt>
<trkpt lat="42.212062" lon="23.386236"><ele>1721.2</ele><time>2026-03-02T12:24:31.000Z</time></trkpt>
<trkpt lat="42.212109" lon="23.386186"><ele>1721.2</ele><time>2026-03-02T12:24:32.000Z</time></trkpt>
<trkpt lat="42.212159" lon="23.386134"><ele>1721.2</ele><time>2026-03-02T12:24:33.000Z</time></trkpt>
<trkpt lat="42.212213" lon="23.386081"><ele>1721.2</ele><time>2026-03-02T12:24:34.000Z</time></trkpt>
<trkpt lat="42.21227" lon="23.386028"><ele>1720.9</ele><time>2026-03-02T12:24:35.000Z</time></trkpt>
<trkpt lat="42.21233" lon="23.385976"><ele>1720.9</ele><time>2026-03-02T12:24:36.000Z</time></trkpt>
<trkpt lat="42.212392" lon="23.385925"><ele>1720.9</ele><time>2026-03-02T12:24:37.000Z</time></trkpt>
<trkpt lat="42.212456" lon="23.385876"><ele>1720.9</ele><time>2026-03-02T12:24:38.000Z</time></trkpt>
<trkpt lat="42.212523" lon="23.385834"><ele>1720.9</ele><time>2026-03-02T12:24:39.000Z</time></trkpt>
<trkpt lat="42.212593" lon="23.385797"><ele>1720.9</ele><time>2026-03-02T12:24:40.000Z</time></trkpt>
<trkpt lat="42.212665" lon="23.385768"><ele>1720.9</ele><time>2026-03-02T12:24:41.000Z</time></trkpt>
<trkpt lat="42.212739" lon="23.385749"><ele>1720.9</ele><time>2026-03-02T12:24:42.000Z</time></trkpt>
<trkpt lat="42.212815" lon="23.385739"><ele>1720.9</ele><time>2026-03-02T12:24:43.000Z</time></trkpt>
<trkpt lat="42.212891" lon="23.385737"><ele>1720.9</ele><time>2026-03-02T12:24:44.000Z</time></trkpt>
<trkpt lat="42.212968" lon="23.385744"><ele>1721</ele><time>2026-03-02T12:24:45.000Z</time></trkpt>
<trkpt lat="42.213046" lon="23.385758"><ele>1721</ele><time>2026-03-02T12:24:46.000Z</time></trkpt>
<trkpt lat="42.213123" lon="23.385778"><ele>1721</ele><time>2026-03-02T12:24:47.000Z</time></trkpt>
<trkpt lat="42.213203" lon="23.385803"><ele>1721</ele><time>2026-03-02T12:24:48.000Z</time></trkpt>
<trkpt lat="42.213284" lon="23.385832"><ele>1721</ele><time>2026-03-02T12:24:49.000Z</time></trkpt>
<trkpt lat="42.213368" lon="23.385863"><ele>1721</ele><time>2026-03-02T12:24:50.000Z</time></trkpt>
<trkpt lat="42.213458" lon="23.385897"><ele>1721</ele><time>2026-03-02T12:24:51.000Z</time></trkpt>
<trkpt lat="42.213552" lon="23.385932"><ele>1721</ele><time>2026-03-02T12:24:52.000Z</time></trkpt>
<trkpt lat="42.213648" lon="23.385968"><ele>1721</ele><time>2026-03-02T12:24:53.000Z</time></trkpt>
<trkpt lat="42.213747" lon="23.386005"><ele>1721</ele><time>2026-03-02T12:24:54.000Z</time></trkpt>
<trkpt lat="42.213847" lon="23.386042"><ele>1720.9</ele><time>2026-03-02T12:24:55.000Z</time></trkpt>
<trkpt lat="42.213945" lon="23.386074"><ele>1720.9</ele><time>2026-03-02T12:24:56.000Z</time></trkpt>
<trkpt lat="42.214043" lon="23.386103"><ele>1720.9</ele><time>2026-03-02T12:24:57.000Z</time></trkpt>
<trkpt lat="42.21414" lon="23.386127"><ele>1720.9</ele><time>2026-03-02T12:24:58.000Z</time></trkpt>
<trkpt lat="42.214236" lon="23.386144"><ele>1720.9</ele><time>2026-03-02T12:24:59.000Z</time></trkpt>
<trkpt lat="42.21433" lon="23.386145"><ele>1720.6</ele><time>2026-03-02T12:25:00.000Z</time></trkpt>
<trkpt lat="42.214423" lon="23.386127"><ele>1720.6</ele><time>2026-03-02T12:25:01.000Z</time></trkpt>
<trkpt lat="42.214512" lon="23.386089"><ele>1720.6</ele><time>2026-03-02T12:25:02.000Z</time></trkpt>
<trkpt lat="42.214601" lon="23.386032"><ele>1720.6</ele><time>2026-03-02T12:25:03.000Z</time></trkpt>
<trkpt lat="42.214689" lon="23.385956"><ele>1720.6</ele><time>2026-03-02T12:25:04.000Z</time></trkpt>
<trkpt lat="42.214775" lon="23.385873"><ele>1719.3</ele><time>2026-03-02T12:25:05.000Z</time></trkpt>
<trkpt lat="42.214862" lon="23.38579"><ele>1719.3</ele><time>2026-03-02T12:25:06.000Z</time></trkpt>
<trkpt lat="42.214951" lon="23.385706"><ele>1719.3</ele><time>2026-03-02T12:25:07.000Z</time></trkpt>
<trkpt lat="42.215039" lon="23.385622"><ele>1719.3</ele><time>2026-03-02T12:25:08.000Z</time></trkpt>
<trkpt lat="42.215132" lon="23.385546"><ele>1719.3</ele><time>2026-03-02T12:25:09.000Z</time></trkpt>
<trkpt lat="42.215232" lon="23.385484"><ele>1718</ele><time>2026-03-02T12:25:10.000Z</time></trkpt>
<trkpt lat="42.215338" lon="23.385433"><ele>1718</ele><time>2026-03-02T12:25:11.000Z</time></trkpt>
<trkpt lat="42.215447" lon="23.385395"><ele>1718</ele><time>2026-03-02T12:25:12.000Z</time></trkpt>
<trkpt lat="42.215558" lon="23.385371"><ele>1718</ele><time>2026-03-02T12:25:13.000Z</time></trkpt>
<trkpt lat="42.215663" lon="23.385357"><ele>1718</ele><time>2026-03-02T12:25:14.000Z</time></trkpt>
<trkpt lat="42.215757" lon="23.38535"><ele>1714.4</ele><time>2026-03-02T12:25:15.000Z</time></trkpt>
<trkpt lat="42.215842" lon="23.38535"><ele>1714.4</ele><time>2026-03-02T12:25:16.000Z</time></trkpt>
<trkpt lat="42.215918" lon="23.38537"><ele>1714.4</ele><time>2026-03-02T12:25:17.000Z</time></trkpt>
<trkpt lat="42.215987" lon="23.385411"><ele>1714.4</ele><time>2026-03-02T12:25:18.000Z</time></trkpt>
<trkpt lat="42.216054" lon="23.385449"><ele>1714.4</ele><time>2026-03-02T12:25:19.000Z</time></trkpt>
<trkpt lat="42.216118" lon="23.385542"><ele>1709.8</ele><time>2026-03-02T12:25:20.000Z</time></trkpt>
<trkpt lat="42.216321" lon="23.385879"><ele>1709.8</ele><time>2026-03-02T12:25:23.000Z</time></trkpt>
<trkpt lat="42.216422" lon="23.386075"><ele>1709.8</ele><time>2026-03-02T12:25:24.000Z</time></trkpt>
</trkseg></trk></gpx>